<?xml version="1.0" encoding="UTF-8" standalone="no" ?>
<gpx xmlns="http://www.topografix.com/GPX/1/1" xmlns:xsi="http://www.w3.org/2001/XMLSchema-instance" xsi:schemaLocation="http://www.topografix.com/GPX/1/1 http://www.topografix.com/GPX/1/1/gpx.xsd" version="1.1" creator="VisuGPX - https://www.visugpx.com">
  <metadata>
    <name>2016-09-26 Bike ride-Amberieux en Dombes O via St Jean</name>
    <desc><![CDATA[2016-09-26 Bike ride-Amberieux en Dombes O via St Jean]]></desc>
  </metadata>
  <wpt lat="45.92462" lon="4.73718">
    <ele>174</ele>
    <name><![CDATA[2016-09-26 10:25 (Start)]]></name>
  </wpt>
  <wpt lat="45.92459" lon="4.73713">
    <ele>174</ele>
    <name><![CDATA[2016-09-26 10:25 (End)]]></name>
    <desc><![CDATA[Created by Google My Tracks on Android  Name: 2016-09-26 10:25 Activity type: biking Description: - Total distance: 46.23 km (28.7 mi) Total time: 2:07:47 Moving time: 2:06:49 Average speed: 21.71 km/h (13.5 mi/h) Average moving speed: 21.87 km/h (13.6 mi/h) Max speed: 47.50 km/h (29.5 mi/h) Average pace: 2:46 min/km (4:27 min/mi) Average moving pace: 2:45 min/km (4:25 min/mi) Fastest pace: 1:16 min/km (2:02 min/mi) Max elevation: 316 m (1037 ft) Min elevation: 156 m (512 ft) Elevation gain: 635 m (2082 ft) Max grade: 24 % Min grade: -10 % Recorded: 26/09/2016 10:25]]></desc>
  </wpt>
  <trk>
    <name><![CDATA[2016-09-26 10:25]]></name>
    <trkseg>
      <trkpt lat="45.92462" lon="4.73718">
        <ele>174</ele>
        <time>2016-09-26T08:25:50.653Z</time>
      </trkpt>
      <trkpt lat="45.92457" lon="4.73716">
        <ele>174</ele>
        <time>2016-09-26T08:26:21Z</time>
      </trkpt>
      <trkpt lat="45.92454" lon="4.73713">
        <ele>174</ele>
        <time>2016-09-26T08:26:22Z</time>
      </trkpt>
      <trkpt lat="45.92459" lon="4.73704">
        <ele>174</ele>
        <time>2016-09-26T08:26:33Z</time>
      </trkpt>
      <trkpt lat="45.92461" lon="4.737">
        <ele>174</ele>
        <time>2016-09-26T08:26:34Z</time>
      </trkpt>
      <trkpt lat="45.92465" lon="4.73693">
        <ele>174</ele>
        <time>2016-09-26T08:26:36Z</time>
      </trkpt>
      <trkpt lat="45.92467" lon="4.73688">
        <ele>174</ele>
        <time>2016-09-26T08:26:37Z</time>
      </trkpt>
      <trkpt lat="45.92469" lon="4.73684">
        <ele>174</ele>
        <time>2016-09-26T08:26:38Z</time>
      </trkpt>
      <trkpt lat="45.92472" lon="4.73678">
        <ele>174</ele>
        <time>2016-09-26T08:26:39Z</time>
      </trkpt>
      <trkpt lat="45.92477" lon="4.73668">
        <ele>175</ele>
        <time>2016-09-26T08:26:41Z</time>
      </trkpt>
      <trkpt lat="45.92479" lon="4.73663">
        <ele>174</ele>
        <time>2016-09-26T08:26:42Z</time>
      </trkpt>
      <trkpt lat="45.92482" lon="4.73652">
        <ele>174</ele>
        <time>2016-09-26T08:26:44Z</time>
      </trkpt>
      <trkpt lat="45.92484" lon="4.73649">
        <ele>174</ele>
        <time>2016-09-26T08:26:45Z</time>
      </trkpt>
      <trkpt lat="45.9249" lon="4.73647">
        <ele>174</ele>
        <time>2016-09-26T08:26:47Z</time>
      </trkpt>
      <trkpt lat="45.92493" lon="4.73648">
        <ele>174</ele>
        <time>2016-09-26T08:26:48Z</time>
      </trkpt>
      <trkpt lat="45.92501" lon="4.73649">
        <ele>174</ele>
        <time>2016-09-26T08:26:51Z</time>
      </trkpt>
      <trkpt lat="45.92505" lon="4.73649">
        <ele>174</ele>
        <time>2016-09-26T08:26:52Z</time>
      </trkpt>
      <trkpt lat="45.92509" lon="4.73647">
        <ele>174</ele>
        <time>2016-09-26T08:26:53Z</time>
      </trkpt>
      <trkpt lat="45.92514" lon="4.73646">
        <ele>174</ele>
        <time>2016-09-26T08:26:54Z</time>
      </trkpt>
      <trkpt lat="45.92522" lon="4.73645">
        <ele>173</ele>
        <time>2016-09-26T08:26:56Z</time>
      </trkpt>
      <trkpt lat="45.92526" lon="4.73645">
        <ele>173</ele>
        <time>2016-09-26T08:26:57Z</time>
      </trkpt>
      <trkpt lat="45.92534" lon="4.73644">
        <ele>173</ele>
        <time>2016-09-26T08:26:59Z</time>
      </trkpt>
      <trkpt lat="45.92538" lon="4.73642">
        <ele>173</ele>
        <time>2016-09-26T08:27:00Z</time>
      </trkpt>
      <trkpt lat="45.92546" lon="4.7364">
        <ele>173</ele>
        <time>2016-09-26T08:27:02Z</time>
      </trkpt>
      <trkpt lat="45.92549" lon="4.73639">
        <ele>173</ele>
        <time>2016-09-26T08:27:03Z</time>
      </trkpt>
      <trkpt lat="45.92555" lon="4.73635">
        <ele>173</ele>
        <time>2016-09-26T08:27:27Z</time>
      </trkpt>
      <trkpt lat="45.92557" lon="4.7363">
        <ele>173</ele>
        <time>2016-09-26T08:27:28Z</time>
      </trkpt>
      <trkpt lat="45.92564" lon="4.73625">
        <ele>173</ele>
        <time>2016-09-26T08:27:30Z</time>
      </trkpt>
      <trkpt lat="45.92567" lon="4.73625">
        <ele>173</ele>
        <time>2016-09-26T08:27:31Z</time>
      </trkpt>
      <trkpt lat="45.92575" lon="4.73626">
        <ele>173</ele>
        <time>2016-09-26T08:27:37Z</time>
      </trkpt>
      <trkpt lat="45.92583" lon="4.73627">
        <ele>173</ele>
        <time>2016-09-26T08:27:38Z</time>
      </trkpt>
      <trkpt lat="45.9259" lon="4.73629">
        <ele>172</ele>
        <time>2016-09-26T08:27:39Z</time>
      </trkpt>
      <trkpt lat="45.92597" lon="4.7363">
        <ele>172</ele>
        <time>2016-09-26T08:27:40Z</time>
      </trkpt>
      <trkpt lat="45.92603" lon="4.73634">
        <ele>172</ele>
        <time>2016-09-26T08:27:41Z</time>
      </trkpt>
      <trkpt lat="45.9261" lon="4.73639">
        <ele>172</ele>
        <time>2016-09-26T08:27:42Z</time>
      </trkpt>
      <trkpt lat="45.92614" lon="4.73643">
        <ele>173</ele>
        <time>2016-09-26T08:27:43Z</time>
      </trkpt>
      <trkpt lat="45.92618" lon="4.73648">
        <ele>173</ele>
        <time>2016-09-26T08:27:44Z</time>
      </trkpt>
      <trkpt lat="45.92621" lon="4.73653">
        <ele>173</ele>
        <time>2016-09-26T08:27:45Z</time>
      </trkpt>
      <trkpt lat="45.92624" lon="4.7366">
        <ele>173</ele>
        <time>2016-09-26T08:27:46Z</time>
      </trkpt>
      <trkpt lat="45.92626" lon="4.73666">
        <ele>173</ele>
        <time>2016-09-26T08:27:47Z</time>
      </trkpt>
      <trkpt lat="45.92631" lon="4.7367">
        <ele>173</ele>
        <time>2016-09-26T08:27:48Z</time>
      </trkpt>
      <trkpt lat="45.92636" lon="4.73675">
        <ele>173</ele>
        <time>2016-09-26T08:27:49Z</time>
      </trkpt>
      <trkpt lat="45.9264" lon="4.7368">
        <ele>173</ele>
        <time>2016-09-26T08:27:50Z</time>
      </trkpt>
      <trkpt lat="45.92644" lon="4.73685">
        <ele>173</ele>
        <time>2016-09-26T08:27:51Z</time>
      </trkpt>
      <trkpt lat="45.92649" lon="4.73692">
        <ele>173</ele>
        <time>2016-09-26T08:27:52Z</time>
      </trkpt>
      <trkpt lat="45.92653" lon="4.73697">
        <ele>173</ele>
        <time>2016-09-26T08:27:53Z</time>
      </trkpt>
      <trkpt lat="45.92659" lon="4.73702">
        <ele>173</ele>
        <time>2016-09-26T08:27:54Z</time>
      </trkpt>
      <trkpt lat="45.92664" lon="4.73705">
        <ele>173</ele>
        <time>2016-09-26T08:27:55Z</time>
      </trkpt>
      <trkpt lat="45.9267" lon="4.73708">
        <ele>174</ele>
        <time>2016-09-26T08:27:56Z</time>
      </trkpt>
      <trkpt lat="45.92675" lon="4.73711">
        <ele>174</ele>
        <time>2016-09-26T08:27:57Z</time>
      </trkpt>
      <trkpt lat="45.92681" lon="4.73712">
        <ele>173</ele>
        <time>2016-09-26T08:27:58Z</time>
      </trkpt>
      <trkpt lat="45.92687" lon="4.73713">
        <ele>173</ele>
        <time>2016-09-26T08:27:59Z</time>
      </trkpt>
      <trkpt lat="45.92692" lon="4.73715">
        <ele>173</ele>
        <time>2016-09-26T08:28:00Z</time>
      </trkpt>
      <trkpt lat="45.92698" lon="4.73716">
        <ele>173</ele>
        <time>2016-09-26T08:28:01Z</time>
      </trkpt>
      <trkpt lat="45.92704" lon="4.73717">
        <ele>173</ele>
        <time>2016-09-26T08:28:02Z</time>
      </trkpt>
      <trkpt lat="45.9271" lon="4.73717">
        <ele>173</ele>
        <time>2016-09-26T08:28:03Z</time>
      </trkpt>
      <trkpt lat="45.92716" lon="4.73718">
        <ele>173</ele>
        <time>2016-09-26T08:28:04Z</time>
      </trkpt>
      <trkpt lat="45.92723" lon="4.73719">
        <ele>173</ele>
        <time>2016-09-26T08:28:05Z</time>
      </trkpt>
      <trkpt lat="45.92729" lon="4.7372">
        <ele>173</ele>
        <time>2016-09-26T08:28:06Z</time>
      </trkpt>
      <trkpt lat="45.92736" lon="4.73722">
        <ele>173</ele>
        <time>2016-09-26T08:28:07Z</time>
      </trkpt>
      <trkpt lat="45.92742" lon="4.73723">
        <ele>173</ele>
        <time>2016-09-26T08:28:08Z</time>
      </trkpt>
      <trkpt lat="45.92747" lon="4.73724">
        <ele>173</ele>
        <time>2016-09-26T08:28:09Z</time>
      </trkpt>
      <trkpt lat="45.92753" lon="4.73724">
        <ele>172</ele>
        <time>2016-09-26T08:28:10Z</time>
      </trkpt>
      <trkpt lat="45.92757" lon="4.73725">
        <ele>172</ele>
        <time>2016-09-26T08:28:11Z</time>
      </trkpt>
      <trkpt lat="45.92762" lon="4.73726">
        <ele>172</ele>
        <time>2016-09-26T08:28:12Z</time>
      </trkpt>
      <trkpt lat="45.9277" lon="4.73729">
        <ele>172</ele>
        <time>2016-09-26T08:28:14Z</time>
      </trkpt>
      <trkpt lat="45.92773" lon="4.7373">
        <ele>172</ele>
        <time>2016-09-26T08:28:15Z</time>
      </trkpt>
      <trkpt lat="45.92781" lon="4.7373">
        <ele>172</ele>
        <time>2016-09-26T08:28:17Z</time>
      </trkpt>
      <trkpt lat="45.92783" lon="4.73726">
        <ele>172</ele>
        <time>2016-09-26T08:28:18Z</time>
      </trkpt>
      <trkpt lat="45.92786" lon="4.73714">
        <ele>172</ele>
        <time>2016-09-26T08:28:20Z</time>
      </trkpt>
      <trkpt lat="45.92787" lon="4.73706">
        <ele>172</ele>
        <time>2016-09-26T08:28:21Z</time>
      </trkpt>
      <trkpt lat="45.92789" lon="4.73699">
        <ele>172</ele>
        <time>2016-09-26T08:28:22Z</time>
      </trkpt>
      <trkpt lat="45.92791" lon="4.73691">
        <ele>172</ele>
        <time>2016-09-26T08:28:23Z</time>
      </trkpt>
      <trkpt lat="45.92792" lon="4.73683">
        <ele>172</ele>
        <time>2016-09-26T08:28:24Z</time>
      </trkpt>
      <trkpt lat="45.92794" lon="4.73676">
        <ele>172</ele>
        <time>2016-09-26T08:28:25Z</time>
      </trkpt>
      <trkpt lat="45.92796" lon="4.73669">
        <ele>172</ele>
        <time>2016-09-26T08:28:26Z</time>
      </trkpt>
      <trkpt lat="45.92798" lon="4.73661">
        <ele>172</ele>
        <time>2016-09-26T08:28:27Z</time>
      </trkpt>
      <trkpt lat="45.92802" lon="4.73651">
        <ele>172</ele>
        <time>2016-09-26T08:28:29Z</time>
      </trkpt>
      <trkpt lat="45.92805" lon="4.73647">
        <ele>172</ele>
        <time>2016-09-26T08:28:30Z</time>
      </trkpt>
      <trkpt lat="45.92812" lon="4.73639">
        <ele>172</ele>
        <time>2016-09-26T08:28:33Z</time>
      </trkpt>
      <trkpt lat="45.92814" lon="4.73638">
        <ele>172</ele>
        <time>2016-09-26T08:28:34Z</time>
      </trkpt>
      <trkpt lat="45.92819" lon="4.73636">
        <ele>171</ele>
        <time>2016-09-26T08:28:37Z</time>
      </trkpt>
      <trkpt lat="45.92821" lon="4.73629">
        <ele>172</ele>
        <time>2016-09-26T08:28:38Z</time>
      </trkpt>
      <trkpt lat="45.92821" lon="4.73622">
        <ele>172</ele>
        <time>2016-09-26T08:28:39Z</time>
      </trkpt>
      <trkpt lat="45.9282" lon="4.73616">
        <ele>172</ele>
        <time>2016-09-26T08:28:40Z</time>
      </trkpt>
      <trkpt lat="45.92819" lon="4.73609">
        <ele>172</ele>
        <time>2016-09-26T08:28:41Z</time>
      </trkpt>
      <trkpt lat="45.92819" lon="4.73601">
        <ele>171</ele>
        <time>2016-09-26T08:28:42Z</time>
      </trkpt>
      <trkpt lat="45.92819" lon="4.73594">
        <ele>171</ele>
        <time>2016-09-26T08:28:43Z</time>
      </trkpt>
      <trkpt lat="45.9282" lon="4.73585">
        <ele>171</ele>
        <time>2016-09-26T08:28:44Z</time>
      </trkpt>
      <trkpt lat="45.92821" lon="4.73578">
        <ele>171</ele>
        <time>2016-09-26T08:28:45Z</time>
      </trkpt>
      <trkpt lat="45.9282" lon="4.7357">
        <ele>171</ele>
        <time>2016-09-26T08:28:46Z</time>
      </trkpt>
      <trkpt lat="45.9282" lon="4.73561">
        <ele>171</ele>
        <time>2016-09-26T08:28:47Z</time>
      </trkpt>
      <trkpt lat="45.92821" lon="4.73553">
        <ele>171</ele>
        <time>2016-09-26T08:28:48Z</time>
      </trkpt>
      <trkpt lat="45.92821" lon="4.73545">
        <ele>171</ele>
        <time>2016-09-26T08:28:49Z</time>
      </trkpt>
      <trkpt lat="45.92822" lon="4.73537">
        <ele>172</ele>
        <time>2016-09-26T08:28:50Z</time>
      </trkpt>
      <trkpt lat="45.92823" lon="4.73528">
        <ele>172</ele>
        <time>2016-09-26T08:28:51Z</time>
      </trkpt>
      <trkpt lat="45.92824" lon="4.73519">
        <ele>172</ele>
        <time>2016-09-26T08:28:52Z</time>
      </trkpt>
      <trkpt lat="45.92825" lon="4.73511">
        <ele>172</ele>
        <time>2016-09-26T08:28:53Z</time>
      </trkpt>
      <trkpt lat="45.92826" lon="4.73502">
        <ele>172</ele>
        <time>2016-09-26T08:28:54Z</time>
      </trkpt>
      <trkpt lat="45.92827" lon="4.73493">
        <ele>172</ele>
        <time>2016-09-26T08:28:55Z</time>
      </trkpt>
      <trkpt lat="45.92829" lon="4.73484">
        <ele>172</ele>
        <time>2016-09-26T08:28:56Z</time>
      </trkpt>
      <trkpt lat="45.9283" lon="4.73475">
        <ele>172</ele>
        <time>2016-09-26T08:28:57Z</time>
      </trkpt>
      <trkpt lat="45.92831" lon="4.73466">
        <ele>172</ele>
        <time>2016-09-26T08:28:58Z</time>
      </trkpt>
      <trkpt lat="45.92834" lon="4.73455">
        <ele>172</ele>
        <time>2016-09-26T08:28:59Z</time>
      </trkpt>
      <trkpt lat="45.92835" lon="4.73446">
        <ele>172</ele>
        <time>2016-09-26T08:29:00Z</time>
      </trkpt>
      <trkpt lat="45.92837" lon="4.73436">
        <ele>172</ele>
        <time>2016-09-26T08:29:01Z</time>
      </trkpt>
      <trkpt lat="45.92839" lon="4.73427">
        <ele>172</ele>
        <time>2016-09-26T08:29:02Z</time>
      </trkpt>
      <trkpt lat="45.92841" lon="4.73419">
        <ele>172</ele>
        <time>2016-09-26T08:29:03Z</time>
      </trkpt>
      <trkpt lat="45.92845" lon="4.73411">
        <ele>172</ele>
        <time>2016-09-26T08:29:04Z</time>
      </trkpt>
      <trkpt lat="45.92846" lon="4.73402">
        <ele>172</ele>
        <time>2016-09-26T08:29:05Z</time>
      </trkpt>
      <trkpt lat="45.92846" lon="4.73394">
        <ele>172</ele>
        <time>2016-09-26T08:29:06Z</time>
      </trkpt>
      <trkpt lat="45.92845" lon="4.73385">
        <ele>172</ele>
        <time>2016-09-26T08:29:07Z</time>
      </trkpt>
      <trkpt lat="45.92846" lon="4.73377">
        <ele>172</ele>
        <time>2016-09-26T08:29:08Z</time>
      </trkpt>
      <trkpt lat="45.92847" lon="4.73369">
        <ele>171</ele>
        <time>2016-09-26T08:29:09Z</time>
      </trkpt>
      <trkpt lat="45.92848" lon="4.73361">
        <ele>171</ele>
        <time>2016-09-26T08:29:10Z</time>
      </trkpt>
      <trkpt lat="45.92849" lon="4.73353">
        <ele>171</ele>
        <time>2016-09-26T08:29:11Z</time>
      </trkpt>
      <trkpt lat="45.9285" lon="4.73344">
        <ele>171</ele>
        <time>2016-09-26T08:29:12Z</time>
      </trkpt>
      <trkpt lat="45.92851" lon="4.73335">
        <ele>171</ele>
        <time>2016-09-26T08:29:13Z</time>
      </trkpt>
      <trkpt lat="45.92851" lon="4.73326">
        <ele>171</ele>
        <time>2016-09-26T08:29:14Z</time>
      </trkpt>
      <trkpt lat="45.92852" lon="4.73318">
        <ele>171</ele>
        <time>2016-09-26T08:29:15Z</time>
      </trkpt>
      <trkpt lat="45.92853" lon="4.73309">
        <ele>171</ele>
        <time>2016-09-26T08:29:16Z</time>
      </trkpt>
      <trkpt lat="45.92854" lon="4.73301">
        <ele>171</ele>
        <time>2016-09-26T08:29:17Z</time>
      </trkpt>
      <trkpt lat="45.92855" lon="4.73292">
        <ele>171</ele>
        <time>2016-09-26T08:29:18Z</time>
      </trkpt>
      <trkpt lat="45.92857" lon="4.73284">
        <ele>171</ele>
        <time>2016-09-26T08:29:19Z</time>
      </trkpt>
      <trkpt lat="45.92858" lon="4.73275">
        <ele>171</ele>
        <time>2016-09-26T08:29:20Z</time>
      </trkpt>
      <trkpt lat="45.92859" lon="4.73266">
        <ele>171</ele>
        <time>2016-09-26T08:29:21Z</time>
      </trkpt>
      <trkpt lat="45.9286" lon="4.73257">
        <ele>171</ele>
        <time>2016-09-26T08:29:22Z</time>
      </trkpt>
      <trkpt lat="45.92861" lon="4.73248">
        <ele>171</ele>
        <time>2016-09-26T08:29:23Z</time>
      </trkpt>
      <trkpt lat="45.92862" lon="4.73239">
        <ele>171</ele>
        <time>2016-09-26T08:29:24Z</time>
      </trkpt>
      <trkpt lat="45.92863" lon="4.7323">
        <ele>171</ele>
        <time>2016-09-26T08:29:25Z</time>
      </trkpt>
      <trkpt lat="45.92863" lon="4.73221">
        <ele>171</ele>
        <time>2016-09-26T08:29:26Z</time>
      </trkpt>
      <trkpt lat="45.92864" lon="4.73213">
        <ele>171</ele>
        <time>2016-09-26T08:29:27Z</time>
      </trkpt>
      <trkpt lat="45.92865" lon="4.73204">
        <ele>171</ele>
        <time>2016-09-26T08:29:28Z</time>
      </trkpt>
      <trkpt lat="45.92865" lon="4.73195">
        <ele>171</ele>
        <time>2016-09-26T08:29:29Z</time>
      </trkpt>
      <trkpt lat="45.92866" lon="4.73187">
        <ele>171</ele>
        <time>2016-09-26T08:29:30Z</time>
      </trkpt>
      <trkpt lat="45.92867" lon="4.73177">
        <ele>171</ele>
        <time>2016-09-26T08:29:31Z</time>
      </trkpt>
      <trkpt lat="45.92868" lon="4.73168">
        <ele>171</ele>
        <time>2016-09-26T08:29:32Z</time>
      </trkpt>
      <trkpt lat="45.92868" lon="4.73159">
        <ele>171</ele>
        <time>2016-09-26T08:29:33Z</time>
      </trkpt>
      <trkpt lat="45.92869" lon="4.7315">
        <ele>171</ele>
        <time>2016-09-26T08:29:34Z</time>
      </trkpt>
      <trkpt lat="45.9287" lon="4.73141">
        <ele>171</ele>
        <time>2016-09-26T08:29:35Z</time>
      </trkpt>
      <trkpt lat="45.92872" lon="4.73133">
        <ele>171</ele>
        <time>2016-09-26T08:29:36Z</time>
      </trkpt>
      <trkpt lat="45.92873" lon="4.73124">
        <ele>171</ele>
        <time>2016-09-26T08:29:37Z</time>
      </trkpt>
      <trkpt lat="45.92875" lon="4.73116">
        <ele>172</ele>
        <time>2016-09-26T08:29:38Z</time>
      </trkpt>
      <trkpt lat="45.92877" lon="4.73109">
        <ele>172</ele>
        <time>2016-09-26T08:29:39Z</time>
      </trkpt>
      <trkpt lat="45.9288" lon="4.73101">
        <ele>172</ele>
        <time>2016-09-26T08:29:40Z</time>
      </trkpt>
      <trkpt lat="45.92883" lon="4.73093">
        <ele>172</ele>
        <time>2016-09-26T08:29:41Z</time>
      </trkpt>
      <trkpt lat="45.92886" lon="4.73085">
        <ele>172</ele>
        <time>2016-09-26T08:29:42Z</time>
      </trkpt>
      <trkpt lat="45.9289" lon="4.73078">
        <ele>172</ele>
        <time>2016-09-26T08:29:43Z</time>
      </trkpt>
      <trkpt lat="45.92893" lon="4.7307">
        <ele>172</ele>
        <time>2016-09-26T08:29:44Z</time>
      </trkpt>
      <trkpt lat="45.92897" lon="4.73064">
        <ele>172</ele>
        <time>2016-09-26T08:29:45Z</time>
      </trkpt>
      <trkpt lat="45.929" lon="4.73058">
        <ele>172</ele>
        <time>2016-09-26T08:29:46Z</time>
      </trkpt>
      <trkpt lat="45.92904" lon="4.73051">
        <ele>172</ele>
        <time>2016-09-26T08:29:47Z</time>
      </trkpt>
      <trkpt lat="45.92909" lon="4.73045">
        <ele>172</ele>
        <time>2016-09-26T08:29:48Z</time>
      </trkpt>
      <trkpt lat="45.92913" lon="4.73038">
        <ele>172</ele>
        <time>2016-09-26T08:29:49Z</time>
      </trkpt>
      <trkpt lat="45.92917" lon="4.73032">
        <ele>172</ele>
        <time>2016-09-26T08:29:50Z</time>
      </trkpt>
      <trkpt lat="45.92921" lon="4.73026">
        <ele>171</ele>
        <time>2016-09-26T08:29:51Z</time>
      </trkpt>
      <trkpt lat="45.92926" lon="4.7302">
        <ele>171</ele>
        <time>2016-09-26T08:29:52Z</time>
      </trkpt>
      <trkpt lat="45.9293" lon="4.73015">
        <ele>171</ele>
        <time>2016-09-26T08:29:53Z</time>
      </trkpt>
      <trkpt lat="45.92935" lon="4.73009">
        <ele>171</ele>
        <time>2016-09-26T08:29:54Z</time>
      </trkpt>
      <trkpt lat="45.9294" lon="4.73003">
        <ele>171</ele>
        <time>2016-09-26T08:29:55Z</time>
      </trkpt>
      <trkpt lat="45.92945" lon="4.72998">
        <ele>171</ele>
        <time>2016-09-26T08:29:56Z</time>
      </trkpt>
      <trkpt lat="45.92949" lon="4.72992">
        <ele>171</ele>
        <time>2016-09-26T08:29:57Z</time>
      </trkpt>
      <trkpt lat="45.92954" lon="4.72986">
        <ele>171</ele>
        <time>2016-09-26T08:29:58Z</time>
      </trkpt>
      <trkpt lat="45.92958" lon="4.72979">
        <ele>171</ele>
        <time>2016-09-26T08:29:59Z</time>
      </trkpt>
      <trkpt lat="45.92961" lon="4.72974">
        <ele>171</ele>
        <time>2016-09-26T08:30:00Z</time>
      </trkpt>
      <trkpt lat="45.92965" lon="4.72968">
        <ele>171</ele>
        <time>2016-09-26T08:30:01Z</time>
      </trkpt>
      <trkpt lat="45.92969" lon="4.72962">
        <ele>171</ele>
        <time>2016-09-26T08:30:02Z</time>
      </trkpt>
      <trkpt lat="45.92973" lon="4.72957">
        <ele>171</ele>
        <time>2016-09-26T08:30:03Z</time>
      </trkpt>
      <trkpt lat="45.92977" lon="4.72953">
        <ele>171</ele>
        <time>2016-09-26T08:30:04Z</time>
      </trkpt>
      <trkpt lat="45.92981" lon="4.72948">
        <ele>171</ele>
        <time>2016-09-26T08:30:05Z</time>
      </trkpt>
      <trkpt lat="45.92984" lon="4.72944">
        <ele>171</ele>
        <time>2016-09-26T08:30:06Z</time>
      </trkpt>
      <trkpt lat="45.92988" lon="4.7294">
        <ele>171</ele>
        <time>2016-09-26T08:30:07Z</time>
      </trkpt>
      <trkpt lat="45.92992" lon="4.72935">
        <ele>171</ele>
        <time>2016-09-26T08:30:08Z</time>
      </trkpt>
      <trkpt lat="45.92999" lon="4.72928">
        <ele>171</ele>
        <time>2016-09-26T08:30:10Z</time>
      </trkpt>
      <trkpt lat="45.93002" lon="4.72924">
        <ele>170</ele>
        <time>2016-09-26T08:30:11Z</time>
      </trkpt>
      <trkpt lat="45.93009" lon="4.72916">
        <ele>171</ele>
        <time>2016-09-26T08:30:13Z</time>
      </trkpt>
      <trkpt lat="45.93012" lon="4.72912">
        <ele>171</ele>
        <time>2016-09-26T08:30:14Z</time>
      </trkpt>
      <trkpt lat="45.93018" lon="4.72905">
        <ele>172</ele>
        <time>2016-09-26T08:30:16Z</time>
      </trkpt>
      <trkpt lat="45.93023" lon="4.72899">
        <ele>172</ele>
        <time>2016-09-26T08:30:17Z</time>
      </trkpt>
      <trkpt lat="45.93027" lon="4.72894">
        <ele>172</ele>
        <time>2016-09-26T08:30:18Z</time>
      </trkpt>
      <trkpt lat="45.93031" lon="4.72888">
        <ele>172</ele>
        <time>2016-09-26T08:30:19Z</time>
      </trkpt>
      <trkpt lat="45.93037" lon="4.72882">
        <ele>172</ele>
        <time>2016-09-26T08:30:20Z</time>
      </trkpt>
      <trkpt lat="45.93042" lon="4.72876">
        <ele>172</ele>
        <time>2016-09-26T08:30:21Z</time>
      </trkpt>
      <trkpt lat="45.93047" lon="4.7287">
        <ele>172</ele>
        <time>2016-09-26T08:30:22Z</time>
      </trkpt>
      <trkpt lat="45.93052" lon="4.72864">
        <ele>172</ele>
        <time>2016-09-26T08:30:23Z</time>
      </trkpt>
      <trkpt lat="45.93057" lon="4.72858">
        <ele>172</ele>
        <time>2016-09-26T08:30:24Z</time>
      </trkpt>
      <trkpt lat="45.93062" lon="4.72852">
        <ele>172</ele>
        <time>2016-09-26T08:30:25Z</time>
      </trkpt>
      <trkpt lat="45.93066" lon="4.72847">
        <ele>172</ele>
        <time>2016-09-26T08:30:26Z</time>
      </trkpt>
      <trkpt lat="45.9307" lon="4.72843">
        <ele>173</ele>
        <time>2016-09-26T08:30:27Z</time>
      </trkpt>
      <trkpt lat="45.93073" lon="4.72837">
        <ele>173</ele>
        <time>2016-09-26T08:30:28Z</time>
      </trkpt>
      <trkpt lat="45.93077" lon="4.72832">
        <ele>173</ele>
        <time>2016-09-26T08:30:29Z</time>
      </trkpt>
      <trkpt lat="45.9308" lon="4.72827">
        <ele>173</ele>
        <time>2016-09-26T08:30:30Z</time>
      </trkpt>
      <trkpt lat="45.93084" lon="4.72823">
        <ele>172</ele>
        <time>2016-09-26T08:30:31Z</time>
      </trkpt>
      <trkpt lat="45.93089" lon="4.72817">
        <ele>172</ele>
        <time>2016-09-26T08:30:32Z</time>
      </trkpt>
      <trkpt lat="45.93092" lon="4.7281">
        <ele>172</ele>
        <time>2016-09-26T08:30:33Z</time>
      </trkpt>
      <trkpt lat="45.93099" lon="4.72808">
        <ele>172</ele>
        <time>2016-09-26T08:30:34Z</time>
      </trkpt>
      <trkpt lat="45.93103" lon="4.72803">
        <ele>171</ele>
        <time>2016-09-26T08:30:35Z</time>
      </trkpt>
      <trkpt lat="45.93108" lon="4.72797">
        <ele>171</ele>
        <time>2016-09-26T08:30:36Z</time>
      </trkpt>
      <trkpt lat="45.93113" lon="4.72793">
        <ele>171</ele>
        <time>2016-09-26T08:30:37Z</time>
      </trkpt>
      <trkpt lat="45.93117" lon="4.72789">
        <ele>171</ele>
        <time>2016-09-26T08:30:38Z</time>
      </trkpt>
      <trkpt lat="45.93123" lon="4.72785">
        <ele>171</ele>
        <time>2016-09-26T08:30:39Z</time>
      </trkpt>
      <trkpt lat="45.93128" lon="4.7278">
        <ele>171</ele>
        <time>2016-09-26T08:30:40Z</time>
      </trkpt>
      <trkpt lat="45.93134" lon="4.72775">
        <ele>171</ele>
        <time>2016-09-26T08:30:41Z</time>
      </trkpt>
      <trkpt lat="45.93138" lon="4.7277">
        <ele>171</ele>
        <time>2016-09-26T08:30:42Z</time>
      </trkpt>
      <trkpt lat="45.93144" lon="4.72763">
        <ele>171</ele>
        <time>2016-09-26T08:30:43Z</time>
      </trkpt>
      <trkpt lat="45.93148" lon="4.72757">
        <ele>170</ele>
        <time>2016-09-26T08:30:44Z</time>
      </trkpt>
      <trkpt lat="45.93153" lon="4.72751">
        <ele>170</ele>
        <time>2016-09-26T08:30:45Z</time>
      </trkpt>
      <trkpt lat="45.93157" lon="4.72746">
        <ele>170</ele>
        <time>2016-09-26T08:30:46Z</time>
      </trkpt>
      <trkpt lat="45.93161" lon="4.72741">
        <ele>170</ele>
        <time>2016-09-26T08:30:47Z</time>
      </trkpt>
      <trkpt lat="45.93166" lon="4.72736">
        <ele>170</ele>
        <time>2016-09-26T08:30:48Z</time>
      </trkpt>
      <trkpt lat="45.93171" lon="4.7273">
        <ele>170</ele>
        <time>2016-09-26T08:30:49Z</time>
      </trkpt>
      <trkpt lat="45.93175" lon="4.72725">
        <ele>170</ele>
        <time>2016-09-26T08:30:50Z</time>
      </trkpt>
      <trkpt lat="45.9318" lon="4.72719">
        <ele>169</ele>
        <time>2016-09-26T08:30:51Z</time>
      </trkpt>
      <trkpt lat="45.93185" lon="4.72714">
        <ele>169</ele>
        <time>2016-09-26T08:30:52Z</time>
      </trkpt>
      <trkpt lat="45.9319" lon="4.72708">
        <ele>169</ele>
        <time>2016-09-26T08:30:53Z</time>
      </trkpt>
      <trkpt lat="45.93195" lon="4.72702">
        <ele>169</ele>
        <time>2016-09-26T08:30:54Z</time>
      </trkpt>
      <trkpt lat="45.932" lon="4.72695">
        <ele>169</ele>
        <time>2016-09-26T08:30:55Z</time>
      </trkpt>
      <trkpt lat="45.93205" lon="4.72689">
        <ele>169</ele>
        <time>2016-09-26T08:30:56Z</time>
      </trkpt>
      <trkpt lat="45.9321" lon="4.72683">
        <ele>169</ele>
        <time>2016-09-26T08:30:57Z</time>
      </trkpt>
      <trkpt lat="45.93214" lon="4.72677">
        <ele>169</ele>
        <time>2016-09-26T08:30:58Z</time>
      </trkpt>
      <trkpt lat="45.93219" lon="4.72672">
        <ele>169</ele>
        <time>2016-09-26T08:30:59Z</time>
      </trkpt>
      <trkpt lat="45.93224" lon="4.72668">
        <ele>169</ele>
        <time>2016-09-26T08:31:00Z</time>
      </trkpt>
      <trkpt lat="45.93228" lon="4.72664">
        <ele>169</ele>
        <time>2016-09-26T08:31:01Z</time>
      </trkpt>
      <trkpt lat="45.93232" lon="4.72659">
        <ele>169</ele>
        <time>2016-09-26T08:31:02Z</time>
      </trkpt>
      <trkpt lat="45.93237" lon="4.72653">
        <ele>169</ele>
        <time>2016-09-26T08:31:03Z</time>
      </trkpt>
      <trkpt lat="45.93241" lon="4.72647">
        <ele>170</ele>
        <time>2016-09-26T08:31:04Z</time>
      </trkpt>
      <trkpt lat="45.93246" lon="4.72642">
        <ele>170</ele>
        <time>2016-09-26T08:31:05Z</time>
      </trkpt>
      <trkpt lat="45.9325" lon="4.72637">
        <ele>169</ele>
        <time>2016-09-26T08:31:06Z</time>
      </trkpt>
      <trkpt lat="45.93255" lon="4.72631">
        <ele>170</ele>
        <time>2016-09-26T08:31:07Z</time>
      </trkpt>
      <trkpt lat="45.9326" lon="4.72626">
        <ele>170</ele>
        <time>2016-09-26T08:31:08Z</time>
      </trkpt>
      <trkpt lat="45.93264" lon="4.7262">
        <ele>170</ele>
        <time>2016-09-26T08:31:09Z</time>
      </trkpt>
      <trkpt lat="45.93269" lon="4.72615">
        <ele>170</ele>
        <time>2016-09-26T08:31:10Z</time>
      </trkpt>
      <trkpt lat="45.93275" lon="4.72609">
        <ele>170</ele>
        <time>2016-09-26T08:31:11Z</time>
      </trkpt>
      <trkpt lat="45.9328" lon="4.72603">
        <ele>170</ele>
        <time>2016-09-26T08:31:12Z</time>
      </trkpt>
      <trkpt lat="45.93285" lon="4.72597">
        <ele>170</ele>
        <time>2016-09-26T08:31:13Z</time>
      </trkpt>
      <trkpt lat="45.9329" lon="4.72592">
        <ele>170</ele>
        <time>2016-09-26T08:31:14Z</time>
      </trkpt>
      <trkpt lat="45.93294" lon="4.72586">
        <ele>170</ele>
        <time>2016-09-26T08:31:15Z</time>
      </trkpt>
      <trkpt lat="45.93298" lon="4.72581">
        <ele>171</ele>
        <time>2016-09-26T08:31:16Z</time>
      </trkpt>
      <trkpt lat="45.93302" lon="4.72577">
        <ele>171</ele>
        <time>2016-09-26T08:31:17Z</time>
      </trkpt>
      <trkpt lat="45.93307" lon="4.72572">
        <ele>171</ele>
        <time>2016-09-26T08:31:18Z</time>
      </trkpt>
      <trkpt lat="45.93312" lon="4.72567">
        <ele>171</ele>
        <time>2016-09-26T08:31:19Z</time>
      </trkpt>
      <trkpt lat="45.93316" lon="4.72561">
        <ele>171</ele>
        <time>2016-09-26T08:31:20Z</time>
      </trkpt>
      <trkpt lat="45.9332" lon="4.72555">
        <ele>171</ele>
        <time>2016-09-26T08:31:21Z</time>
      </trkpt>
      <trkpt lat="45.93325" lon="4.7255">
        <ele>172</ele>
        <time>2016-09-26T08:31:22Z</time>
      </trkpt>
      <trkpt lat="45.9333" lon="4.72544">
        <ele>172</ele>
        <time>2016-09-26T08:31:23Z</time>
      </trkpt>
      <trkpt lat="45.93335" lon="4.72537">
        <ele>171</ele>
        <time>2016-09-26T08:31:24Z</time>
      </trkpt>
      <trkpt lat="45.9334" lon="4.72531">
        <ele>172</ele>
        <time>2016-09-26T08:31:25Z</time>
      </trkpt>
      <trkpt lat="45.93345" lon="4.72524">
        <ele>172</ele>
        <time>2016-09-26T08:31:26Z</time>
      </trkpt>
      <trkpt lat="45.9335" lon="4.72518">
        <ele>172</ele>
        <time>2016-09-26T08:31:27Z</time>
      </trkpt>
      <trkpt lat="45.93355" lon="4.72513">
        <ele>172</ele>
        <time>2016-09-26T08:31:28Z</time>
      </trkpt>
      <trkpt lat="45.9336" lon="4.72507">
        <ele>172</ele>
        <time>2016-09-26T08:31:29Z</time>
      </trkpt>
      <trkpt lat="45.93365" lon="4.72502">
        <ele>172</ele>
        <time>2016-09-26T08:31:30Z</time>
      </trkpt>
      <trkpt lat="45.93369" lon="4.72496">
        <ele>173</ele>
        <time>2016-09-26T08:31:31Z</time>
      </trkpt>
      <trkpt lat="45.93373" lon="4.72492">
        <ele>173</ele>
        <time>2016-09-26T08:31:32Z</time>
      </trkpt>
      <trkpt lat="45.93378" lon="4.72486">
        <ele>173</ele>
        <time>2016-09-26T08:31:33Z</time>
      </trkpt>
      <trkpt lat="45.93382" lon="4.72481">
        <ele>173</ele>
        <time>2016-09-26T08:31:34Z</time>
      </trkpt>
      <trkpt lat="45.93386" lon="4.72476">
        <ele>173</ele>
        <time>2016-09-26T08:31:35Z</time>
      </trkpt>
      <trkpt lat="45.9339" lon="4.7247">
        <ele>173</ele>
        <time>2016-09-26T08:31:36Z</time>
      </trkpt>
      <trkpt lat="45.93394" lon="4.72465">
        <ele>173</ele>
        <time>2016-09-26T08:31:37Z</time>
      </trkpt>
      <trkpt lat="45.93396" lon="4.72458">
        <ele>173</ele>
        <time>2016-09-26T08:31:38Z</time>
      </trkpt>
      <trkpt lat="45.93398" lon="4.72451">
        <ele>173</ele>
        <time>2016-09-26T08:31:39Z</time>
      </trkpt>
      <trkpt lat="45.934" lon="4.72444">
        <ele>173</ele>
        <time>2016-09-26T08:31:40Z</time>
      </trkpt>
      <trkpt lat="45.93402" lon="4.72438">
        <ele>173</ele>
        <time>2016-09-26T08:31:41Z</time>
      </trkpt>
      <trkpt lat="45.93406" lon="4.72432">
        <ele>173</ele>
        <time>2016-09-26T08:31:42Z</time>
      </trkpt>
      <trkpt lat="45.93409" lon="4.72427">
        <ele>174</ele>
        <time>2016-09-26T08:31:43Z</time>
      </trkpt>
      <trkpt lat="45.93413" lon="4.72422">
        <ele>174</ele>
        <time>2016-09-26T08:31:44Z</time>
      </trkpt>
      <trkpt lat="45.93417" lon="4.72418">
        <ele>174</ele>
        <time>2016-09-26T08:31:45Z</time>
      </trkpt>
      <trkpt lat="45.93423" lon="4.72414">
        <ele>174</ele>
        <time>2016-09-26T08:31:46Z</time>
      </trkpt>
      <trkpt lat="45.93428" lon="4.72413">
        <ele>174</ele>
        <time>2016-09-26T08:31:47Z</time>
      </trkpt>
      <trkpt lat="45.93433" lon="4.7241">
        <ele>174</ele>
        <time>2016-09-26T08:31:48Z</time>
      </trkpt>
      <trkpt lat="45.93439" lon="4.72406">
        <ele>174</ele>
        <time>2016-09-26T08:31:49Z</time>
      </trkpt>
      <trkpt lat="45.93445" lon="4.72402">
        <ele>173</ele>
        <time>2016-09-26T08:31:50Z</time>
      </trkpt>
      <trkpt lat="45.93451" lon="4.72397">
        <ele>173</ele>
        <time>2016-09-26T08:31:51Z</time>
      </trkpt>
      <trkpt lat="45.93456" lon="4.72393">
        <ele>173</ele>
        <time>2016-09-26T08:31:52Z</time>
      </trkpt>
      <trkpt lat="45.93461" lon="4.72387">
        <ele>173</ele>
        <time>2016-09-26T08:31:53Z</time>
      </trkpt>
      <trkpt lat="45.93467" lon="4.72381">
        <ele>173</ele>
        <time>2016-09-26T08:31:54Z</time>
      </trkpt>
      <trkpt lat="45.93472" lon="4.72375">
        <ele>173</ele>
        <time>2016-09-26T08:31:55Z</time>
      </trkpt>
      <trkpt lat="45.93477" lon="4.72368">
        <ele>173</ele>
        <time>2016-09-26T08:31:56Z</time>
      </trkpt>
      <trkpt lat="45.93481" lon="4.72361">
        <ele>173</ele>
        <time>2016-09-26T08:31:57Z</time>
      </trkpt>
      <trkpt lat="45.93486" lon="4.72354">
        <ele>173</ele>
        <time>2016-09-26T08:31:58Z</time>
      </trkpt>
      <trkpt lat="45.9349" lon="4.72348">
        <ele>173</ele>
        <time>2016-09-26T08:31:59Z</time>
      </trkpt>
      <trkpt lat="45.93495" lon="4.72343">
        <ele>173</ele>
        <time>2016-09-26T08:32:00Z</time>
      </trkpt>
      <trkpt lat="45.93499" lon="4.72338">
        <ele>173</ele>
        <time>2016-09-26T08:32:01Z</time>
      </trkpt>
      <trkpt lat="45.93504" lon="4.72328">
        <ele>173</ele>
        <time>2016-09-26T08:32:03Z</time>
      </trkpt>
      <trkpt lat="45.93507" lon="4.72323">
        <ele>173</ele>
        <time>2016-09-26T08:32:04Z</time>
      </trkpt>
      <trkpt lat="45.93511" lon="4.72318">
        <ele>173</ele>
        <time>2016-09-26T08:32:05Z</time>
      </trkpt>
      <trkpt lat="45.93515" lon="4.72313">
        <ele>173</ele>
        <time>2016-09-26T08:32:06Z</time>
      </trkpt>
      <trkpt lat="45.93518" lon="4.72308">
        <ele>173</ele>
        <time>2016-09-26T08:32:07Z</time>
      </trkpt>
      <trkpt lat="45.93521" lon="4.72301">
        <ele>172</ele>
        <time>2016-09-26T08:32:08Z</time>
      </trkpt>
      <trkpt lat="45.93524" lon="4.72295">
        <ele>172</ele>
        <time>2016-09-26T08:32:09Z</time>
      </trkpt>
      <trkpt lat="45.93527" lon="4.72288">
        <ele>172</ele>
        <time>2016-09-26T08:32:10Z</time>
      </trkpt>
      <trkpt lat="45.93529" lon="4.72281">
        <ele>172</ele>
        <time>2016-09-26T08:32:11Z</time>
      </trkpt>
      <trkpt lat="45.93532" lon="4.72274">
        <ele>172</ele>
        <time>2016-09-26T08:32:12Z</time>
      </trkpt>
      <trkpt lat="45.93535" lon="4.72268">
        <ele>172</ele>
        <time>2016-09-26T08:32:13Z</time>
      </trkpt>
      <trkpt lat="45.93538" lon="4.7226">
        <ele>172</ele>
        <time>2016-09-26T08:32:14Z</time>
      </trkpt>
      <trkpt lat="45.93541" lon="4.72253">
        <ele>172</ele>
        <time>2016-09-26T08:32:15Z</time>
      </trkpt>
      <trkpt lat="45.93544" lon="4.72246">
        <ele>172</ele>
        <time>2016-09-26T08:32:16Z</time>
      </trkpt>
      <trkpt lat="45.93547" lon="4.7224">
        <ele>172</ele>
        <time>2016-09-26T08:32:17Z</time>
      </trkpt>
      <trkpt lat="45.9355" lon="4.72235">
        <ele>172</ele>
        <time>2016-09-26T08:32:18Z</time>
      </trkpt>
      <trkpt lat="45.93553" lon="4.72229">
        <ele>173</ele>
        <time>2016-09-26T08:32:19Z</time>
      </trkpt>
      <trkpt lat="45.93557" lon="4.72225">
        <ele>173</ele>
        <time>2016-09-26T08:32:20Z</time>
      </trkpt>
      <trkpt lat="45.93561" lon="4.72224">
        <ele>173</ele>
        <time>2016-09-26T08:32:21Z</time>
      </trkpt>
      <trkpt lat="45.93566" lon="4.72225">
        <ele>173</ele>
        <time>2016-09-26T08:32:22Z</time>
      </trkpt>
      <trkpt lat="45.9357" lon="4.72229">
        <ele>173</ele>
        <time>2016-09-26T08:32:23Z</time>
      </trkpt>
      <trkpt lat="45.93573" lon="4.72233">
        <ele>173</ele>
        <time>2016-09-26T08:32:24Z</time>
      </trkpt>
      <trkpt lat="45.93578" lon="4.72238">
        <ele>173</ele>
        <time>2016-09-26T08:32:25Z</time>
      </trkpt>
      <trkpt lat="45.93581" lon="4.72242">
        <ele>173</ele>
        <time>2016-09-26T08:32:26Z</time>
      </trkpt>
      <trkpt lat="45.93585" lon="4.72246">
        <ele>173</ele>
        <time>2016-09-26T08:32:27Z</time>
      </trkpt>
      <trkpt lat="45.93588" lon="4.7225">
        <ele>173</ele>
        <time>2016-09-26T08:32:28Z</time>
      </trkpt>
      <trkpt lat="45.93592" lon="4.72253">
        <ele>173</ele>
        <time>2016-09-26T08:32:29Z</time>
      </trkpt>
      <trkpt lat="45.93596" lon="4.72257">
        <ele>173</ele>
        <time>2016-09-26T08:32:30Z</time>
      </trkpt>
      <trkpt lat="45.93599" lon="4.72262">
        <ele>173</ele>
        <time>2016-09-26T08:32:31Z</time>
      </trkpt>
      <trkpt lat="45.936" lon="4.72269">
        <ele>173</ele>
        <time>2016-09-26T08:32:32Z</time>
      </trkpt>
      <trkpt lat="45.93602" lon="4.72277">
        <ele>172</ele>
        <time>2016-09-26T08:32:33Z</time>
      </trkpt>
      <trkpt lat="45.93605" lon="4.72283">
        <ele>172</ele>
        <time>2016-09-26T08:32:34Z</time>
      </trkpt>
      <trkpt lat="45.9361" lon="4.72289">
        <ele>172</ele>
        <time>2016-09-26T08:32:35Z</time>
      </trkpt>
      <trkpt lat="45.93614" lon="4.72293">
        <ele>172</ele>
        <time>2016-09-26T08:32:36Z</time>
      </trkpt>
      <trkpt lat="45.9362" lon="4.72293">
        <ele>172</ele>
        <time>2016-09-26T08:32:38Z</time>
      </trkpt>
      <trkpt lat="45.93624" lon="4.72297">
        <ele>172</ele>
        <time>2016-09-26T08:32:39Z</time>
      </trkpt>
      <trkpt lat="45.9363" lon="4.723">
        <ele>172</ele>
        <time>2016-09-26T08:32:41Z</time>
      </trkpt>
      <trkpt lat="45.93633" lon="4.72302">
        <ele>172</ele>
        <time>2016-09-26T08:32:42Z</time>
      </trkpt>
      <trkpt lat="45.93637" lon="4.72295">
        <ele>172</ele>
        <time>2016-09-26T08:32:44Z</time>
      </trkpt>
      <trkpt lat="45.9364" lon="4.72293">
        <ele>172</ele>
        <time>2016-09-26T08:32:45Z</time>
      </trkpt>
      <trkpt lat="45.93646" lon="4.72297">
        <ele>172</ele>
        <time>2016-09-26T08:32:46Z</time>
      </trkpt>
      <trkpt lat="45.93654" lon="4.723">
        <ele>172</ele>
        <time>2016-09-26T08:32:47Z</time>
      </trkpt>
      <trkpt lat="45.93669" lon="4.72307">
        <ele>172</ele>
        <time>2016-09-26T08:32:48Z</time>
      </trkpt>
      <trkpt lat="45.93676" lon="4.72313">
        <ele>172</ele>
        <time>2016-09-26T08:32:49Z</time>
      </trkpt>
      <trkpt lat="45.93681" lon="4.72314">
        <ele>172</ele>
        <time>2016-09-26T08:32:50Z</time>
      </trkpt>
      <trkpt lat="45.93686" lon="4.72315">
        <ele>172</ele>
        <time>2016-09-26T08:32:51Z</time>
      </trkpt>
      <trkpt lat="45.93691" lon="4.72317">
        <ele>172</ele>
        <time>2016-09-26T08:32:52Z</time>
      </trkpt>
      <trkpt lat="45.93697" lon="4.7232">
        <ele>172</ele>
        <time>2016-09-26T08:32:53Z</time>
      </trkpt>
      <trkpt lat="45.93702" lon="4.72318">
        <ele>172</ele>
        <time>2016-09-26T08:32:54Z</time>
      </trkpt>
      <trkpt lat="45.93709" lon="4.72322">
        <ele>172</ele>
        <time>2016-09-26T08:32:56Z</time>
      </trkpt>
      <trkpt lat="45.93711" lon="4.72332">
        <ele>172</ele>
        <time>2016-09-26T08:32:57Z</time>
      </trkpt>
      <trkpt lat="45.93716" lon="4.72332">
        <ele>172</ele>
        <time>2016-09-26T08:32:59Z</time>
      </trkpt>
      <trkpt lat="45.93722" lon="4.72335">
        <ele>172</ele>
        <time>2016-09-26T08:33:00Z</time>
      </trkpt>
      <trkpt lat="45.93727" lon="4.72333">
        <ele>172</ele>
        <time>2016-09-26T08:33:01Z</time>
      </trkpt>
      <trkpt lat="45.93732" lon="4.72327">
        <ele>172</ele>
        <time>2016-09-26T08:33:02Z</time>
      </trkpt>
      <trkpt lat="45.93736" lon="4.72322">
        <ele>172</ele>
        <time>2016-09-26T08:33:03Z</time>
      </trkpt>
      <trkpt lat="45.93742" lon="4.72316">
        <ele>172</ele>
        <time>2016-09-26T08:33:04Z</time>
      </trkpt>
      <trkpt lat="45.93748" lon="4.72312">
        <ele>172</ele>
        <time>2016-09-26T08:33:05Z</time>
      </trkpt>
      <trkpt lat="45.93753" lon="4.72307">
        <ele>172</ele>
        <time>2016-09-26T08:33:06Z</time>
      </trkpt>
      <trkpt lat="45.93757" lon="4.72301">
        <ele>172</ele>
        <time>2016-09-26T08:33:07Z</time>
      </trkpt>
      <trkpt lat="45.9376" lon="4.72295">
        <ele>172</ele>
        <time>2016-09-26T08:33:08Z</time>
      </trkpt>
      <trkpt lat="45.93763" lon="4.72288">
        <ele>172</ele>
        <time>2016-09-26T08:33:09Z</time>
      </trkpt>
      <trkpt lat="45.93766" lon="4.72282">
        <ele>172</ele>
        <time>2016-09-26T08:33:10Z</time>
      </trkpt>
      <trkpt lat="45.9377" lon="4.72275">
        <ele>172</ele>
        <time>2016-09-26T08:33:11Z</time>
      </trkpt>
      <trkpt lat="45.93773" lon="4.72267">
        <ele>172</ele>
        <time>2016-09-26T08:33:12Z</time>
      </trkpt>
      <trkpt lat="45.93776" lon="4.72262">
        <ele>172</ele>
        <time>2016-09-26T08:33:13Z</time>
      </trkpt>
      <trkpt lat="45.9378" lon="4.72255">
        <ele>172</ele>
        <time>2016-09-26T08:33:14Z</time>
      </trkpt>
      <trkpt lat="45.93783" lon="4.72249">
        <ele>172</ele>
        <time>2016-09-26T08:33:15Z</time>
      </trkpt>
      <trkpt lat="45.93787" lon="4.72242">
        <ele>172</ele>
        <time>2016-09-26T08:33:16Z</time>
      </trkpt>
      <trkpt lat="45.9379" lon="4.72237">
        <ele>172</ele>
        <time>2016-09-26T08:33:17Z</time>
      </trkpt>
      <trkpt lat="45.93794" lon="4.7223">
        <ele>172</ele>
        <time>2016-09-26T08:33:18Z</time>
      </trkpt>
      <trkpt lat="45.93798" lon="4.72224">
        <ele>172</ele>
        <time>2016-09-26T08:33:19Z</time>
      </trkpt>
      <trkpt lat="45.93802" lon="4.72218">
        <ele>172</ele>
        <time>2016-09-26T08:33:20Z</time>
      </trkpt>
      <trkpt lat="45.93805" lon="4.72212">
        <ele>172</ele>
        <time>2016-09-26T08:33:21Z</time>
      </trkpt>
      <trkpt lat="45.93808" lon="4.72206">
        <ele>172</ele>
        <time>2016-09-26T08:33:22Z</time>
      </trkpt>
      <trkpt lat="45.93812" lon="4.72199">
        <ele>172</ele>
        <time>2016-09-26T08:33:23Z</time>
      </trkpt>
      <trkpt lat="45.93815" lon="4.72191">
        <ele>172</ele>
        <time>2016-09-26T08:33:24Z</time>
      </trkpt>
      <trkpt lat="45.93818" lon="4.72183">
        <ele>172</ele>
        <time>2016-09-26T08:33:25Z</time>
      </trkpt>
      <trkpt lat="45.9382" lon="4.72177">
        <ele>172</ele>
        <time>2016-09-26T08:33:26Z</time>
      </trkpt>
      <trkpt lat="45.93824" lon="4.72171">
        <ele>171</ele>
        <time>2016-09-26T08:33:28Z</time>
      </trkpt>
      <trkpt lat="45.93826" lon="4.72167">
        <ele>171</ele>
        <time>2016-09-26T08:33:29Z</time>
      </trkpt>
      <trkpt lat="45.93831" lon="4.72157">
        <ele>172</ele>
        <time>2016-09-26T08:33:32Z</time>
      </trkpt>
      <trkpt lat="45.93833" lon="4.72153">
        <ele>172</ele>
        <time>2016-09-26T08:33:33Z</time>
      </trkpt>
      <trkpt lat="45.93837" lon="4.72146">
        <ele>171</ele>
        <time>2016-09-26T08:33:36Z</time>
      </trkpt>
      <trkpt lat="45.93839" lon="4.72143">
        <ele>172</ele>
        <time>2016-09-26T08:33:37Z</time>
      </trkpt>
      <trkpt lat="45.93843" lon="4.72138">
        <ele>172</ele>
        <time>2016-09-26T08:33:39Z</time>
      </trkpt>
      <trkpt lat="45.93846" lon="4.72135">
        <ele>172</ele>
        <time>2016-09-26T08:33:40Z</time>
      </trkpt>
      <trkpt lat="45.93852" lon="4.72128">
        <ele>172</ele>
        <time>2016-09-26T08:33:42Z</time>
      </trkpt>
      <trkpt lat="45.93856" lon="4.72125">
        <ele>172</ele>
        <time>2016-09-26T08:33:43Z</time>
      </trkpt>
      <trkpt lat="45.93862" lon="4.72117">
        <ele>172</ele>
        <time>2016-09-26T08:33:45Z</time>
      </trkpt>
      <trkpt lat="45.93866" lon="4.72112">
        <ele>172</ele>
        <time>2016-09-26T08:33:46Z</time>
      </trkpt>
      <trkpt lat="45.93869" lon="4.72107">
        <ele>172</ele>
        <time>2016-09-26T08:33:47Z</time>
      </trkpt>
      <trkpt lat="45.93873" lon="4.72102">
        <ele>172</ele>
        <time>2016-09-26T08:33:48Z</time>
      </trkpt>
      <trkpt lat="45.93876" lon="4.72098">
        <ele>172</ele>
        <time>2016-09-26T08:33:49Z</time>
      </trkpt>
      <trkpt lat="45.93879" lon="4.72093">
        <ele>172</ele>
        <time>2016-09-26T08:33:50Z</time>
      </trkpt>
      <trkpt lat="45.93882" lon="4.72089">
        <ele>172</ele>
        <time>2016-09-26T08:33:51Z</time>
      </trkpt>
      <trkpt lat="45.93886" lon="4.72084">
        <ele>172</ele>
        <time>2016-09-26T08:33:52Z</time>
      </trkpt>
      <trkpt lat="45.93889" lon="4.7208">
        <ele>172</ele>
        <time>2016-09-26T08:33:53Z</time>
      </trkpt>
      <trkpt lat="45.93893" lon="4.72076">
        <ele>172</ele>
        <time>2016-09-26T08:33:54Z</time>
      </trkpt>
      <trkpt lat="45.93899" lon="4.72069">
        <ele>172</ele>
        <time>2016-09-26T08:33:56Z</time>
      </trkpt>
      <trkpt lat="45.93901" lon="4.72066">
        <ele>172</ele>
        <time>2016-09-26T08:33:57Z</time>
      </trkpt>
      <trkpt lat="45.93908" lon="4.72063">
        <ele>172</ele>
        <time>2016-09-26T08:33:59Z</time>
      </trkpt>
      <trkpt lat="45.93912" lon="4.72058">
        <ele>172</ele>
        <time>2016-09-26T08:34:00Z</time>
      </trkpt>
      <trkpt lat="45.93917" lon="4.72054">
        <ele>172</ele>
        <time>2016-09-26T08:34:01Z</time>
      </trkpt>
      <trkpt lat="45.93921" lon="4.7205">
        <ele>172</ele>
        <time>2016-09-26T08:34:02Z</time>
      </trkpt>
      <trkpt lat="45.93926" lon="4.72045">
        <ele>172</ele>
        <time>2016-09-26T08:34:03Z</time>
      </trkpt>
      <trkpt lat="45.93931" lon="4.72039">
        <ele>172</ele>
        <time>2016-09-26T08:34:04Z</time>
      </trkpt>
      <trkpt lat="45.93935" lon="4.72033">
        <ele>172</ele>
        <time>2016-09-26T08:34:05Z</time>
      </trkpt>
      <trkpt lat="45.9394" lon="4.72024">
        <ele>172</ele>
        <time>2016-09-26T08:34:06Z</time>
      </trkpt>
      <trkpt lat="45.93943" lon="4.72019">
        <ele>172</ele>
        <time>2016-09-26T08:34:07Z</time>
      </trkpt>
      <trkpt lat="45.93946" lon="4.72015">
        <ele>172</ele>
        <time>2016-09-26T08:34:08Z</time>
      </trkpt>
      <trkpt lat="45.93953" lon="4.72007">
        <ele>172</ele>
        <time>2016-09-26T08:34:10Z</time>
      </trkpt>
      <trkpt lat="45.93955" lon="4.72001">
        <ele>172</ele>
        <time>2016-09-26T08:34:11Z</time>
      </trkpt>
      <trkpt lat="45.93958" lon="4.71997">
        <ele>172</ele>
        <time>2016-09-26T08:34:12Z</time>
      </trkpt>
      <trkpt lat="45.93962" lon="4.71991">
        <ele>173</ele>
        <time>2016-09-26T08:34:13Z</time>
      </trkpt>
      <trkpt lat="45.93965" lon="4.71986">
        <ele>173</ele>
        <time>2016-09-26T08:34:14Z</time>
      </trkpt>
      <trkpt lat="45.93968" lon="4.71982">
        <ele>173</ele>
        <time>2016-09-26T08:34:15Z</time>
      </trkpt>
      <trkpt lat="45.93972" lon="4.71978">
        <ele>173</ele>
        <time>2016-09-26T08:34:16Z</time>
      </trkpt>
      <trkpt lat="45.93975" lon="4.71974">
        <ele>173</ele>
        <time>2016-09-26T08:34:17Z</time>
      </trkpt>
      <trkpt lat="45.93979" lon="4.7197">
        <ele>173</ele>
        <time>2016-09-26T08:34:18Z</time>
      </trkpt>
      <trkpt lat="45.93984" lon="4.71966">
        <ele>173</ele>
        <time>2016-09-26T08:34:19Z</time>
      </trkpt>
      <trkpt lat="45.93988" lon="4.71967">
        <ele>173</ele>
        <time>2016-09-26T08:34:20Z</time>
      </trkpt>
      <trkpt lat="45.93993" lon="4.71967">
        <ele>173</ele>
        <time>2016-09-26T08:34:21Z</time>
      </trkpt>
      <trkpt lat="45.93998" lon="4.71969">
        <ele>173</ele>
        <time>2016-09-26T08:34:22Z</time>
      </trkpt>
      <trkpt lat="45.94003" lon="4.71971">
        <ele>174</ele>
        <time>2016-09-26T08:34:23Z</time>
      </trkpt>
      <trkpt lat="45.94006" lon="4.71978">
        <ele>174</ele>
        <time>2016-09-26T08:34:24Z</time>
      </trkpt>
      <trkpt lat="45.94009" lon="4.71983">
        <ele>174</ele>
        <time>2016-09-26T08:34:25Z</time>
      </trkpt>
      <trkpt lat="45.94013" lon="4.71988">
        <ele>174</ele>
        <time>2016-09-26T08:34:26Z</time>
      </trkpt>
      <trkpt lat="45.94017" lon="4.71994">
        <ele>174</ele>
        <time>2016-09-26T08:34:27Z</time>
      </trkpt>
      <trkpt lat="45.9402" lon="4.72001">
        <ele>173</ele>
        <time>2016-09-26T08:34:28Z</time>
      </trkpt>
      <trkpt lat="45.94023" lon="4.72007">
        <ele>173</ele>
        <time>2016-09-26T08:34:29Z</time>
      </trkpt>
      <trkpt lat="45.94027" lon="4.72013">
        <ele>173</ele>
        <time>2016-09-26T08:34:30Z</time>
      </trkpt>
      <trkpt lat="45.94029" lon="4.72019">
        <ele>173</ele>
        <time>2016-09-26T08:34:31Z</time>
      </trkpt>
      <trkpt lat="45.94032" lon="4.72025">
        <ele>173</ele>
        <time>2016-09-26T08:34:32Z</time>
      </trkpt>
      <trkpt lat="45.94035" lon="4.72031">
        <ele>173</ele>
        <time>2016-09-26T08:34:33Z</time>
      </trkpt>
      <trkpt lat="45.94041" lon="4.7204">
        <ele>173</ele>
        <time>2016-09-26T08:34:35Z</time>
      </trkpt>
      <trkpt lat="45.94045" lon="4.72042">
        <ele>173</ele>
        <time>2016-09-26T08:34:36Z</time>
      </trkpt>
      <trkpt lat="45.94053" lon="4.72041">
        <ele>173</ele>
        <time>2016-09-26T08:34:38Z</time>
      </trkpt>
      <trkpt lat="45.94057" lon="4.72038">
        <ele>173</ele>
        <time>2016-09-26T08:34:39Z</time>
      </trkpt>
      <trkpt lat="45.9406" lon="4.72033">
        <ele>174</ele>
        <time>2016-09-26T08:34:40Z</time>
      </trkpt>
      <trkpt lat="45.94064" lon="4.72028">
        <ele>174</ele>
        <time>2016-09-26T08:34:41Z</time>
      </trkpt>
      <trkpt lat="45.94068" lon="4.72022">
        <ele>174</ele>
        <time>2016-09-26T08:34:42Z</time>
      </trkpt>
      <trkpt lat="45.94072" lon="4.72016">
        <ele>174</ele>
        <time>2016-09-26T08:34:43Z</time>
      </trkpt>
      <trkpt lat="45.94077" lon="4.72011">
        <ele>174</ele>
        <time>2016-09-26T08:34:44Z</time>
      </trkpt>
      <trkpt lat="45.94081" lon="4.72006">
        <ele>175</ele>
        <time>2016-09-26T08:34:45Z</time>
      </trkpt>
      <trkpt lat="45.94086" lon="4.72002">
        <ele>175</ele>
        <time>2016-09-26T08:34:46Z</time>
      </trkpt>
      <trkpt lat="45.9409" lon="4.71997">
        <ele>175</ele>
        <time>2016-09-26T08:34:47Z</time>
      </trkpt>
      <trkpt lat="45.94095" lon="4.71992">
        <ele>174</ele>
        <time>2016-09-26T08:34:48Z</time>
      </trkpt>
      <trkpt lat="45.94099" lon="4.71986">
        <ele>174</ele>
        <time>2016-09-26T08:34:49Z</time>
      </trkpt>
      <trkpt lat="45.94103" lon="4.7198">
        <ele>174</ele>
        <time>2016-09-26T08:34:50Z</time>
      </trkpt>
      <trkpt lat="45.94108" lon="4.71975">
        <ele>174</ele>
        <time>2016-09-26T08:34:51Z</time>
      </trkpt>
      <trkpt lat="45.94112" lon="4.71971">
        <ele>174</ele>
        <time>2016-09-26T08:34:52Z</time>
      </trkpt>
      <trkpt lat="45.94116" lon="4.71968">
        <ele>174</ele>
        <time>2016-09-26T08:34:53Z</time>
      </trkpt>
      <trkpt lat="45.94122" lon="4.71966">
        <ele>174</ele>
        <time>2016-09-26T08:34:54Z</time>
      </trkpt>
      <trkpt lat="45.94128" lon="4.71967">
        <ele>174</ele>
        <time>2016-09-26T08:34:55Z</time>
      </trkpt>
      <trkpt lat="45.94132" lon="4.71968">
        <ele>174</ele>
        <time>2016-09-26T08:34:56Z</time>
      </trkpt>
      <trkpt lat="45.94137" lon="4.71971">
        <ele>174</ele>
        <time>2016-09-26T08:34:57Z</time>
      </trkpt>
      <trkpt lat="45.94141" lon="4.71974">
        <ele>174</ele>
        <time>2016-09-26T08:34:58Z</time>
      </trkpt>
      <trkpt lat="45.94145" lon="4.71978">
        <ele>174</ele>
        <time>2016-09-26T08:34:59Z</time>
      </trkpt>
      <trkpt lat="45.94147" lon="4.71984">
        <ele>173</ele>
        <time>2016-09-26T08:35:00Z</time>
      </trkpt>
      <trkpt lat="45.94149" lon="4.7199">
        <ele>173</ele>
        <time>2016-09-26T08:35:01Z</time>
      </trkpt>
      <trkpt lat="45.94153" lon="4.72">
        <ele>173</ele>
        <time>2016-09-26T08:35:03Z</time>
      </trkpt>
      <trkpt lat="45.94155" lon="4.72005">
        <ele>173</ele>
        <time>2016-09-26T08:35:04Z</time>
      </trkpt>
      <trkpt lat="45.94158" lon="4.72015">
        <ele>173</ele>
        <time>2016-09-26T08:35:06Z</time>
      </trkpt>
      <trkpt lat="45.9416" lon="4.72019">
        <ele>173</ele>
        <time>2016-09-26T08:35:07Z</time>
      </trkpt>
      <trkpt lat="45.94164" lon="4.7203">
        <ele>173</ele>
        <time>2016-09-26T08:35:09Z</time>
      </trkpt>
      <trkpt lat="45.94166" lon="4.72035">
        <ele>173</ele>
        <time>2016-09-26T08:35:10Z</time>
      </trkpt>
      <trkpt lat="45.9417" lon="4.72044">
        <ele>173</ele>
        <time>2016-09-26T08:35:12Z</time>
      </trkpt>
      <trkpt lat="45.94173" lon="4.72048">
        <ele>173</ele>
        <time>2016-09-26T08:35:13Z</time>
      </trkpt>
      <trkpt lat="45.94178" lon="4.72057">
        <ele>173</ele>
        <time>2016-09-26T08:35:15Z</time>
      </trkpt>
      <trkpt lat="45.94181" lon="4.72062">
        <ele>173</ele>
        <time>2016-09-26T08:35:16Z</time>
      </trkpt>
      <trkpt lat="45.94185" lon="4.72073">
        <ele>173</ele>
        <time>2016-09-26T08:35:18Z</time>
      </trkpt>
      <trkpt lat="45.94188" lon="4.72079">
        <ele>173</ele>
        <time>2016-09-26T08:35:19Z</time>
      </trkpt>
      <trkpt lat="45.94191" lon="4.72085">
        <ele>172</ele>
        <time>2016-09-26T08:35:20Z</time>
      </trkpt>
      <trkpt lat="45.94193" lon="4.72092">
        <ele>172</ele>
        <time>2016-09-26T08:35:21Z</time>
      </trkpt>
      <trkpt lat="45.94197" lon="4.72099">
        <ele>172</ele>
        <time>2016-09-26T08:35:22Z</time>
      </trkpt>
      <trkpt lat="45.942" lon="4.72106">
        <ele>172</ele>
        <time>2016-09-26T08:35:23Z</time>
      </trkpt>
      <trkpt lat="45.94203" lon="4.72113">
        <ele>173</ele>
        <time>2016-09-26T08:35:24Z</time>
      </trkpt>
      <trkpt lat="45.94206" lon="4.72122">
        <ele>172</ele>
        <time>2016-09-26T08:35:25Z</time>
      </trkpt>
      <trkpt lat="45.9421" lon="4.7213">
        <ele>172</ele>
        <time>2016-09-26T08:35:26Z</time>
      </trkpt>
      <trkpt lat="45.94213" lon="4.72139">
        <ele>172</ele>
        <time>2016-09-26T08:35:27Z</time>
      </trkpt>
      <trkpt lat="45.94217" lon="4.72148">
        <ele>172</ele>
        <time>2016-09-26T08:35:28Z</time>
      </trkpt>
      <trkpt lat="45.94221" lon="4.72157">
        <ele>173</ele>
        <time>2016-09-26T08:35:29Z</time>
      </trkpt>
      <trkpt lat="45.94225" lon="4.72166">
        <ele>173</ele>
        <time>2016-09-26T08:35:30Z</time>
      </trkpt>
      <trkpt lat="45.94229" lon="4.72176">
        <ele>172</ele>
        <time>2016-09-26T08:35:31Z</time>
      </trkpt>
      <trkpt lat="45.94233" lon="4.72186">
        <ele>172</ele>
        <time>2016-09-26T08:35:32Z</time>
      </trkpt>
      <trkpt lat="45.94237" lon="4.72196">
        <ele>172</ele>
        <time>2016-09-26T08:35:33Z</time>
      </trkpt>
      <trkpt lat="45.94242" lon="4.72206">
        <ele>172</ele>
        <time>2016-09-26T08:35:34Z</time>
      </trkpt>
      <trkpt lat="45.94246" lon="4.72216">
        <ele>171</ele>
        <time>2016-09-26T08:35:35Z</time>
      </trkpt>
      <trkpt lat="45.9425" lon="4.72225">
        <ele>171</ele>
        <time>2016-09-26T08:35:36Z</time>
      </trkpt>
      <trkpt lat="45.94254" lon="4.72234">
        <ele>171</ele>
        <time>2016-09-26T08:35:37Z</time>
      </trkpt>
      <trkpt lat="45.94258" lon="4.72243">
        <ele>171</ele>
        <time>2016-09-26T08:35:38Z</time>
      </trkpt>
      <trkpt lat="45.94262" lon="4.72253">
        <ele>171</ele>
        <time>2016-09-26T08:35:39Z</time>
      </trkpt>
      <trkpt lat="45.94265" lon="4.72263">
        <ele>171</ele>
        <time>2016-09-26T08:35:40Z</time>
      </trkpt>
      <trkpt lat="45.94268" lon="4.72271">
        <ele>171</ele>
        <time>2016-09-26T08:35:41Z</time>
      </trkpt>
      <trkpt lat="45.94271" lon="4.72279">
        <ele>171</ele>
        <time>2016-09-26T08:35:42Z</time>
      </trkpt>
      <trkpt lat="45.94275" lon="4.72285">
        <ele>171</ele>
        <time>2016-09-26T08:35:43Z</time>
      </trkpt>
      <trkpt lat="45.94278" lon="4.72292">
        <ele>171</ele>
        <time>2016-09-26T08:35:44Z</time>
      </trkpt>
      <trkpt lat="45.94281" lon="4.72298">
        <ele>171</ele>
        <time>2016-09-26T08:35:45Z</time>
      </trkpt>
      <trkpt lat="45.94283" lon="4.72305">
        <ele>171</ele>
        <time>2016-09-26T08:35:46Z</time>
      </trkpt>
      <trkpt lat="45.94286" lon="4.72312">
        <ele>171</ele>
        <time>2016-09-26T08:35:47Z</time>
      </trkpt>
      <trkpt lat="45.94289" lon="4.72319">
        <ele>171</ele>
        <time>2016-09-26T08:35:48Z</time>
      </trkpt>
      <trkpt lat="45.94292" lon="4.72326">
        <ele>171</ele>
        <time>2016-09-26T08:35:49Z</time>
      </trkpt>
      <trkpt lat="45.94296" lon="4.72332">
        <ele>171</ele>
        <time>2016-09-26T08:35:50Z</time>
      </trkpt>
      <trkpt lat="45.94299" lon="4.7234">
        <ele>172</ele>
        <time>2016-09-26T08:35:51Z</time>
      </trkpt>
      <trkpt lat="45.94302" lon="4.72347">
        <ele>172</ele>
        <time>2016-09-26T08:35:52Z</time>
      </trkpt>
      <trkpt lat="45.94305" lon="4.72355">
        <ele>172</ele>
        <time>2016-09-26T08:35:53Z</time>
      </trkpt>
      <trkpt lat="45.94309" lon="4.72363">
        <ele>172</ele>
        <time>2016-09-26T08:35:54Z</time>
      </trkpt>
      <trkpt lat="45.94311" lon="4.7237">
        <ele>172</ele>
        <time>2016-09-26T08:35:55Z</time>
      </trkpt>
      <trkpt lat="45.94314" lon="4.72378">
        <ele>172</ele>
        <time>2016-09-26T08:35:56Z</time>
      </trkpt>
      <trkpt lat="45.94317" lon="4.72385">
        <ele>172</ele>
        <time>2016-09-26T08:35:57Z</time>
      </trkpt>
      <trkpt lat="45.94321" lon="4.72391">
        <ele>172</ele>
        <time>2016-09-26T08:35:58Z</time>
      </trkpt>
      <trkpt lat="45.94324" lon="4.72399">
        <ele>172</ele>
        <time>2016-09-26T08:35:59Z</time>
      </trkpt>
      <trkpt lat="45.94327" lon="4.72406">
        <ele>173</ele>
        <time>2016-09-26T08:36:00Z</time>
      </trkpt>
      <trkpt lat="45.94331" lon="4.72412">
        <ele>173</ele>
        <time>2016-09-26T08:36:01Z</time>
      </trkpt>
      <trkpt lat="45.94334" lon="4.7242">
        <ele>173</ele>
        <time>2016-09-26T08:36:02Z</time>
      </trkpt>
      <trkpt lat="45.94338" lon="4.72428">
        <ele>173</ele>
        <time>2016-09-26T08:36:03Z</time>
      </trkpt>
      <trkpt lat="45.94341" lon="4.72435">
        <ele>173</ele>
        <time>2016-09-26T08:36:04Z</time>
      </trkpt>
      <trkpt lat="45.94344" lon="4.72441">
        <ele>173</ele>
        <time>2016-09-26T08:36:05Z</time>
      </trkpt>
      <trkpt lat="45.94347" lon="4.72448">
        <ele>173</ele>
        <time>2016-09-26T08:36:06Z</time>
      </trkpt>
      <trkpt lat="45.9435" lon="4.72455">
        <ele>173</ele>
        <time>2016-09-26T08:36:07Z</time>
      </trkpt>
      <trkpt lat="45.94353" lon="4.72462">
        <ele>173</ele>
        <time>2016-09-26T08:36:08Z</time>
      </trkpt>
      <trkpt lat="45.94357" lon="4.72469">
        <ele>173</ele>
        <time>2016-09-26T08:36:09Z</time>
      </trkpt>
      <trkpt lat="45.94361" lon="4.72476">
        <ele>173</ele>
        <time>2016-09-26T08:36:10Z</time>
      </trkpt>
      <trkpt lat="45.94363" lon="4.72485">
        <ele>173</ele>
        <time>2016-09-26T08:36:11Z</time>
      </trkpt>
      <trkpt lat="45.94366" lon="4.72492">
        <ele>173</ele>
        <time>2016-09-26T08:36:12Z</time>
      </trkpt>
      <trkpt lat="45.94369" lon="4.72499">
        <ele>173</ele>
        <time>2016-09-26T08:36:13Z</time>
      </trkpt>
      <trkpt lat="45.94372" lon="4.72506">
        <ele>173</ele>
        <time>2016-09-26T08:36:14Z</time>
      </trkpt>
      <trkpt lat="45.94375" lon="4.72513">
        <ele>173</ele>
        <time>2016-09-26T08:36:15Z</time>
      </trkpt>
      <trkpt lat="45.94377" lon="4.72521">
        <ele>174</ele>
        <time>2016-09-26T08:36:16Z</time>
      </trkpt>
      <trkpt lat="45.9438" lon="4.72529">
        <ele>174</ele>
        <time>2016-09-26T08:36:17Z</time>
      </trkpt>
      <trkpt lat="45.94383" lon="4.72538">
        <ele>174</ele>
        <time>2016-09-26T08:36:18Z</time>
      </trkpt>
      <trkpt lat="45.94385" lon="4.72546">
        <ele>173</ele>
        <time>2016-09-26T08:36:19Z</time>
      </trkpt>
      <trkpt lat="45.94387" lon="4.72554">
        <ele>173</ele>
        <time>2016-09-26T08:36:20Z</time>
      </trkpt>
      <trkpt lat="45.94388" lon="4.72562">
        <ele>173</ele>
        <time>2016-09-26T08:36:21Z</time>
      </trkpt>
      <trkpt lat="45.94388" lon="4.72569">
        <ele>173</ele>
        <time>2016-09-26T08:36:22Z</time>
      </trkpt>
      <trkpt lat="45.94389" lon="4.72577">
        <ele>173</ele>
        <time>2016-09-26T08:36:23Z</time>
      </trkpt>
      <trkpt lat="45.9439" lon="4.72586">
        <ele>173</ele>
        <time>2016-09-26T08:36:24Z</time>
      </trkpt>
      <trkpt lat="45.94391" lon="4.72596">
        <ele>173</ele>
        <time>2016-09-26T08:36:25Z</time>
      </trkpt>
      <trkpt lat="45.94392" lon="4.72605">
        <ele>173</ele>
        <time>2016-09-26T08:36:26Z</time>
      </trkpt>
      <trkpt lat="45.94391" lon="4.72613">
        <ele>173</ele>
        <time>2016-09-26T08:36:27Z</time>
      </trkpt>
      <trkpt lat="45.94392" lon="4.72622">
        <ele>173</ele>
        <time>2016-09-26T08:36:28Z</time>
      </trkpt>
      <trkpt lat="45.94394" lon="4.72629">
        <ele>174</ele>
        <time>2016-09-26T08:36:29Z</time>
      </trkpt>
      <trkpt lat="45.94395" lon="4.72637">
        <ele>174</ele>
        <time>2016-09-26T08:36:30Z</time>
      </trkpt>
      <trkpt lat="45.94396" lon="4.72646">
        <ele>174</ele>
        <time>2016-09-26T08:36:31Z</time>
      </trkpt>
      <trkpt lat="45.94398" lon="4.72654">
        <ele>174</ele>
        <time>2016-09-26T08:36:32Z</time>
      </trkpt>
      <trkpt lat="45.94398" lon="4.72662">
        <ele>174</ele>
        <time>2016-09-26T08:36:33Z</time>
      </trkpt>
      <trkpt lat="45.944" lon="4.72669">
        <ele>173</ele>
        <time>2016-09-26T08:36:34Z</time>
      </trkpt>
      <trkpt lat="45.94401" lon="4.72676">
        <ele>173</ele>
        <time>2016-09-26T08:36:35Z</time>
      </trkpt>
      <trkpt lat="45.94402" lon="4.72684">
        <ele>173</ele>
        <time>2016-09-26T08:36:36Z</time>
      </trkpt>
      <trkpt lat="45.94403" lon="4.72691">
        <ele>173</ele>
        <time>2016-09-26T08:36:37Z</time>
      </trkpt>
      <trkpt lat="45.94404" lon="4.72699">
        <ele>172</ele>
        <time>2016-09-26T08:36:38Z</time>
      </trkpt>
      <trkpt lat="45.94405" lon="4.72707">
        <ele>172</ele>
        <time>2016-09-26T08:36:39Z</time>
      </trkpt>
      <trkpt lat="45.94407" lon="4.72715">
        <ele>172</ele>
        <time>2016-09-26T08:36:40Z</time>
      </trkpt>
      <trkpt lat="45.94407" lon="4.72725">
        <ele>172</ele>
        <time>2016-09-26T08:36:41Z</time>
      </trkpt>
      <trkpt lat="45.94408" lon="4.72734">
        <ele>172</ele>
        <time>2016-09-26T08:36:42Z</time>
      </trkpt>
      <trkpt lat="45.94409" lon="4.72742">
        <ele>171</ele>
        <time>2016-09-26T08:36:43Z</time>
      </trkpt>
      <trkpt lat="45.94411" lon="4.72749">
        <ele>171</ele>
        <time>2016-09-26T08:36:44Z</time>
      </trkpt>
      <trkpt lat="45.94412" lon="4.72758">
        <ele>170</ele>
        <time>2016-09-26T08:36:45Z</time>
      </trkpt>
      <trkpt lat="45.94414" lon="4.72766">
        <ele>170</ele>
        <time>2016-09-26T08:36:46Z</time>
      </trkpt>
      <trkpt lat="45.94415" lon="4.72774">
        <ele>169</ele>
        <time>2016-09-26T08:36:47Z</time>
      </trkpt>
      <trkpt lat="45.94416" lon="4.72782">
        <ele>169</ele>
        <time>2016-09-26T08:36:48Z</time>
      </trkpt>
      <trkpt lat="45.94416" lon="4.72789">
        <ele>168</ele>
        <time>2016-09-26T08:36:49Z</time>
      </trkpt>
      <trkpt lat="45.94417" lon="4.72796">
        <ele>168</ele>
        <time>2016-09-26T08:36:50Z</time>
      </trkpt>
      <trkpt lat="45.94419" lon="4.72803">
        <ele>167</ele>
        <time>2016-09-26T08:36:51Z</time>
      </trkpt>
      <trkpt lat="45.9442" lon="4.7281">
        <ele>167</ele>
        <time>2016-09-26T08:36:52Z</time>
      </trkpt>
      <trkpt lat="45.94421" lon="4.72818">
        <ele>167</ele>
        <time>2016-09-26T08:36:53Z</time>
      </trkpt>
      <trkpt lat="45.94422" lon="4.72825">
        <ele>166</ele>
        <time>2016-09-26T08:36:54Z</time>
      </trkpt>
      <trkpt lat="45.94423" lon="4.72833">
        <ele>166</ele>
        <time>2016-09-26T08:36:55Z</time>
      </trkpt>
      <trkpt lat="45.94424" lon="4.7284">
        <ele>166</ele>
        <time>2016-09-26T08:36:56Z</time>
      </trkpt>
      <trkpt lat="45.94425" lon="4.72847">
        <ele>166</ele>
        <time>2016-09-26T08:36:57Z</time>
      </trkpt>
      <trkpt lat="45.94426" lon="4.72854">
        <ele>166</ele>
        <time>2016-09-26T08:36:58Z</time>
      </trkpt>
      <trkpt lat="45.94428" lon="4.7286">
        <ele>166</ele>
        <time>2016-09-26T08:36:59Z</time>
      </trkpt>
      <trkpt lat="45.94428" lon="4.72867">
        <ele>166</ele>
        <time>2016-09-26T08:37:00Z</time>
      </trkpt>
      <trkpt lat="45.94429" lon="4.72874">
        <ele>166</ele>
        <time>2016-09-26T08:37:01Z</time>
      </trkpt>
      <trkpt lat="45.94429" lon="4.7288">
        <ele>166</ele>
        <time>2016-09-26T08:37:02Z</time>
      </trkpt>
      <trkpt lat="45.9443" lon="4.72887">
        <ele>166</ele>
        <time>2016-09-26T08:37:03Z</time>
      </trkpt>
      <trkpt lat="45.94432" lon="4.72899">
        <ele>166</ele>
        <time>2016-09-26T08:37:05Z</time>
      </trkpt>
      <trkpt lat="45.94433" lon="4.72906">
        <ele>166</ele>
        <time>2016-09-26T08:37:06Z</time>
      </trkpt>
      <trkpt lat="45.94434" lon="4.72913">
        <ele>166</ele>
        <time>2016-09-26T08:37:07Z</time>
      </trkpt>
      <trkpt lat="45.94435" lon="4.7292">
        <ele>167</ele>
        <time>2016-09-26T08:37:08Z</time>
      </trkpt>
      <trkpt lat="45.94435" lon="4.72928">
        <ele>167</ele>
        <time>2016-09-26T08:37:09Z</time>
      </trkpt>
      <trkpt lat="45.94436" lon="4.72935">
        <ele>167</ele>
        <time>2016-09-26T08:37:10Z</time>
      </trkpt>
      <trkpt lat="45.94438" lon="4.72943">
        <ele>167</ele>
        <time>2016-09-26T08:37:11Z</time>
      </trkpt>
      <trkpt lat="45.94438" lon="4.72952">
        <ele>167</ele>
        <time>2016-09-26T08:37:12Z</time>
      </trkpt>
      <trkpt lat="45.9444" lon="4.72961">
        <ele>167</ele>
        <time>2016-09-26T08:37:13Z</time>
      </trkpt>
      <trkpt lat="45.94441" lon="4.72969">
        <ele>167</ele>
        <time>2016-09-26T08:37:14Z</time>
      </trkpt>
      <trkpt lat="45.94443" lon="4.72978">
        <ele>167</ele>
        <time>2016-09-26T08:37:15Z</time>
      </trkpt>
      <trkpt lat="45.94444" lon="4.72987">
        <ele>167</ele>
        <time>2016-09-26T08:37:16Z</time>
      </trkpt>
      <trkpt lat="45.94445" lon="4.72996">
        <ele>167</ele>
        <time>2016-09-26T08:37:17Z</time>
      </trkpt>
      <trkpt lat="45.94447" lon="4.73005">
        <ele>169</ele>
        <time>2016-09-26T08:37:18Z</time>
      </trkpt>
      <trkpt lat="45.94448" lon="4.73015">
        <ele>169</ele>
        <time>2016-09-26T08:37:19Z</time>
      </trkpt>
      <trkpt lat="45.94449" lon="4.73024">
        <ele>169</ele>
        <time>2016-09-26T08:37:20Z</time>
      </trkpt>
      <trkpt lat="45.9445" lon="4.73034">
        <ele>169</ele>
        <time>2016-09-26T08:37:21Z</time>
      </trkpt>
      <trkpt lat="45.94451" lon="4.73044">
        <ele>169</ele>
        <time>2016-09-26T08:37:22Z</time>
      </trkpt>
      <trkpt lat="45.94453" lon="4.73054">
        <ele>170</ele>
        <time>2016-09-26T08:37:23Z</time>
      </trkpt>
      <trkpt lat="45.94454" lon="4.73064">
        <ele>170</ele>
        <time>2016-09-26T08:37:24Z</time>
      </trkpt>
      <trkpt lat="45.94455" lon="4.73074">
        <ele>170</ele>
        <time>2016-09-26T08:37:25Z</time>
      </trkpt>
      <trkpt lat="45.94457" lon="4.73082">
        <ele>170</ele>
        <time>2016-09-26T08:37:26Z</time>
      </trkpt>
      <trkpt lat="45.94457" lon="4.73094">
        <ele>171</ele>
        <time>2016-09-26T08:37:27Z</time>
      </trkpt>
      <trkpt lat="45.94459" lon="4.73103">
        <ele>171</ele>
        <time>2016-09-26T08:37:28Z</time>
      </trkpt>
      <trkpt lat="45.9446" lon="4.73112">
        <ele>172</ele>
        <time>2016-09-26T08:37:29Z</time>
      </trkpt>
      <trkpt lat="45.94461" lon="4.73121">
        <ele>172</ele>
        <time>2016-09-26T08:37:30Z</time>
      </trkpt>
      <trkpt lat="45.94462" lon="4.73129">
        <ele>172</ele>
        <time>2016-09-26T08:37:31Z</time>
      </trkpt>
      <trkpt lat="45.94463" lon="4.73137">
        <ele>172</ele>
        <time>2016-09-26T08:37:32Z</time>
      </trkpt>
      <trkpt lat="45.94464" lon="4.73145">
        <ele>172</ele>
        <time>2016-09-26T08:37:33Z</time>
      </trkpt>
      <trkpt lat="45.94465" lon="4.73152">
        <ele>172</ele>
        <time>2016-09-26T08:37:34Z</time>
      </trkpt>
      <trkpt lat="45.94465" lon="4.7316">
        <ele>172</ele>
        <time>2016-09-26T08:37:35Z</time>
      </trkpt>
      <trkpt lat="45.94466" lon="4.73167">
        <ele>174</ele>
        <time>2016-09-26T08:37:36Z</time>
      </trkpt>
      <trkpt lat="45.94467" lon="4.73175">
        <ele>174</ele>
        <time>2016-09-26T08:37:37Z</time>
      </trkpt>
      <trkpt lat="45.94468" lon="4.73183">
        <ele>174</ele>
        <time>2016-09-26T08:37:38Z</time>
      </trkpt>
      <trkpt lat="45.94469" lon="4.7319">
        <ele>174</ele>
        <time>2016-09-26T08:37:39Z</time>
      </trkpt>
      <trkpt lat="45.94471" lon="4.73196">
        <ele>174</ele>
        <time>2016-09-26T08:37:40Z</time>
      </trkpt>
      <trkpt lat="45.94471" lon="4.73204">
        <ele>175</ele>
        <time>2016-09-26T08:37:41Z</time>
      </trkpt>
      <trkpt lat="45.94471" lon="4.73212">
        <ele>175</ele>
        <time>2016-09-26T08:37:42Z</time>
      </trkpt>
      <trkpt lat="45.94469" lon="4.73224">
        <ele>175</ele>
        <time>2016-09-26T08:37:43Z</time>
      </trkpt>
      <trkpt lat="45.9447" lon="4.73232">
        <ele>175</ele>
        <time>2016-09-26T08:37:44Z</time>
      </trkpt>
      <trkpt lat="45.94471" lon="4.73243">
        <ele>175</ele>
        <time>2016-09-26T08:37:46Z</time>
      </trkpt>
      <trkpt lat="45.94472" lon="4.73249">
        <ele>175</ele>
        <time>2016-09-26T08:37:47Z</time>
      </trkpt>
      <trkpt lat="45.94473" lon="4.73261">
        <ele>177</ele>
        <time>2016-09-26T08:37:49Z</time>
      </trkpt>
      <trkpt lat="45.94474" lon="4.73266">
        <ele>177</ele>
        <time>2016-09-26T08:37:50Z</time>
      </trkpt>
      <trkpt lat="45.94477" lon="4.73278">
        <ele>177</ele>
        <time>2016-09-26T08:37:52Z</time>
      </trkpt>
      <trkpt lat="45.94476" lon="4.73284">
        <ele>177</ele>
        <time>2016-09-26T08:37:53Z</time>
      </trkpt>
      <trkpt lat="45.94478" lon="4.73296">
        <ele>177</ele>
        <time>2016-09-26T08:37:55Z</time>
      </trkpt>
      <trkpt lat="45.94479" lon="4.73302">
        <ele>177</ele>
        <time>2016-09-26T08:37:56Z</time>
      </trkpt>
      <trkpt lat="45.9448" lon="4.73315">
        <ele>177</ele>
        <time>2016-09-26T08:37:58Z</time>
      </trkpt>
      <trkpt lat="45.94481" lon="4.73321">
        <ele>177</ele>
        <time>2016-09-26T08:37:59Z</time>
      </trkpt>
      <trkpt lat="45.94482" lon="4.73327">
        <ele>177</ele>
        <time>2016-09-26T08:38:00Z</time>
      </trkpt>
      <trkpt lat="45.94484" lon="4.73333">
        <ele>177</ele>
        <time>2016-09-26T08:38:01Z</time>
      </trkpt>
      <trkpt lat="45.94485" lon="4.73345">
        <ele>178</ele>
        <time>2016-09-26T08:38:03Z</time>
      </trkpt>
      <trkpt lat="45.94486" lon="4.7335">
        <ele>178</ele>
        <time>2016-09-26T08:38:04Z</time>
      </trkpt>
      <trkpt lat="45.94488" lon="4.73362">
        <ele>179</ele>
        <time>2016-09-26T08:38:06Z</time>
      </trkpt>
      <trkpt lat="45.94489" lon="4.73368">
        <ele>179</ele>
        <time>2016-09-26T08:38:07Z</time>
      </trkpt>
      <trkpt lat="45.94491" lon="4.7338">
        <ele>179</ele>
        <time>2016-09-26T08:38:09Z</time>
      </trkpt>
      <trkpt lat="45.94492" lon="4.73386">
        <ele>179</ele>
        <time>2016-09-26T08:38:10Z</time>
      </trkpt>
      <trkpt lat="45.94492" lon="4.73398">
        <ele>180</ele>
        <time>2016-09-26T08:38:12Z</time>
      </trkpt>
      <trkpt lat="45.94493" lon="4.73404">
        <ele>180</ele>
        <time>2016-09-26T08:38:13Z</time>
      </trkpt>
      <trkpt lat="45.94495" lon="4.73416">
        <ele>180</ele>
        <time>2016-09-26T08:38:15Z</time>
      </trkpt>
      <trkpt lat="45.94495" lon="4.73423">
        <ele>181</ele>
        <time>2016-09-26T08:38:16Z</time>
      </trkpt>
      <trkpt lat="45.94496" lon="4.73434">
        <ele>181</ele>
        <time>2016-09-26T08:38:18Z</time>
      </trkpt>
      <trkpt lat="45.94497" lon="4.7344">
        <ele>181</ele>
        <time>2016-09-26T08:38:19Z</time>
      </trkpt>
      <trkpt lat="45.94497" lon="4.73451">
        <ele>182</ele>
        <time>2016-09-26T08:38:21Z</time>
      </trkpt>
      <trkpt lat="45.94497" lon="4.73456">
        <ele>182</ele>
        <time>2016-09-26T08:38:22Z</time>
      </trkpt>
      <trkpt lat="45.94498" lon="4.73468">
        <ele>182</ele>
        <time>2016-09-26T08:38:24Z</time>
      </trkpt>
      <trkpt lat="45.94498" lon="4.73475">
        <ele>182</ele>
        <time>2016-09-26T08:38:25Z</time>
      </trkpt>
      <trkpt lat="45.94498" lon="4.73481">
        <ele>182</ele>
        <time>2016-09-26T08:38:26Z</time>
      </trkpt>
      <trkpt lat="45.94497" lon="4.73488">
        <ele>183</ele>
        <time>2016-09-26T08:38:27Z</time>
      </trkpt>
      <trkpt lat="45.94496" lon="4.73497">
        <ele>183</ele>
        <time>2016-09-26T08:38:28Z</time>
      </trkpt>
      <trkpt lat="45.94496" lon="4.73504">
        <ele>183</ele>
        <time>2016-09-26T08:38:29Z</time>
      </trkpt>
      <trkpt lat="45.94496" lon="4.73517">
        <ele>184</ele>
        <time>2016-09-26T08:38:31Z</time>
      </trkpt>
      <trkpt lat="45.94496" lon="4.73523">
        <ele>184</ele>
        <time>2016-09-26T08:38:32Z</time>
      </trkpt>
      <trkpt lat="45.94495" lon="4.73535">
        <ele>184</ele>
        <time>2016-09-26T08:38:34Z</time>
      </trkpt>
      <trkpt lat="45.94495" lon="4.7354">
        <ele>184</ele>
        <time>2016-09-26T08:38:35Z</time>
      </trkpt>
      <trkpt lat="45.94494" lon="4.73552">
        <ele>185</ele>
        <time>2016-09-26T08:38:37Z</time>
      </trkpt>
      <trkpt lat="45.94494" lon="4.73558">
        <ele>185</ele>
        <time>2016-09-26T08:38:38Z</time>
      </trkpt>
      <trkpt lat="45.94494" lon="4.73565">
        <ele>185</ele>
        <time>2016-09-26T08:38:39Z</time>
      </trkpt>
      <trkpt lat="45.94494" lon="4.73572">
        <ele>185</ele>
        <time>2016-09-26T08:38:40Z</time>
      </trkpt>
      <trkpt lat="45.94493" lon="4.73578">
        <ele>185</ele>
        <time>2016-09-26T08:38:41Z</time>
      </trkpt>
      <trkpt lat="45.94493" lon="4.73585">
        <ele>185</ele>
        <time>2016-09-26T08:38:42Z</time>
      </trkpt>
      <trkpt lat="45.94492" lon="4.73592">
        <ele>185</ele>
        <time>2016-09-26T08:38:43Z</time>
      </trkpt>
      <trkpt lat="45.9449" lon="4.73602">
        <ele>186</ele>
        <time>2016-09-26T08:38:44Z</time>
      </trkpt>
      <trkpt lat="45.94487" lon="4.73614">
        <ele>186</ele>
        <time>2016-09-26T08:38:45Z</time>
      </trkpt>
      <trkpt lat="45.94484" lon="4.73624">
        <ele>186</ele>
        <time>2016-09-26T08:38:46Z</time>
      </trkpt>
      <trkpt lat="45.94482" lon="4.73635">
        <ele>186</ele>
        <time>2016-09-26T08:38:48Z</time>
      </trkpt>
      <trkpt lat="45.94479" lon="4.73642">
        <ele>186</ele>
        <time>2016-09-26T08:38:49Z</time>
      </trkpt>
      <trkpt lat="45.94477" lon="4.73649">
        <ele>186</ele>
        <time>2016-09-26T08:38:50Z</time>
      </trkpt>
      <trkpt lat="45.94475" lon="4.73655">
        <ele>186</ele>
        <time>2016-09-26T08:38:51Z</time>
      </trkpt>
      <trkpt lat="45.94475" lon="4.73668">
        <ele>186</ele>
        <time>2016-09-26T08:38:53Z</time>
      </trkpt>
      <trkpt lat="45.94476" lon="4.73674">
        <ele>186</ele>
        <time>2016-09-26T08:38:54Z</time>
      </trkpt>
      <trkpt lat="45.94478" lon="4.73685">
        <ele>186</ele>
        <time>2016-09-26T08:38:56Z</time>
      </trkpt>
      <trkpt lat="45.94475" lon="4.73698">
        <ele>186</ele>
        <time>2016-09-26T08:38:57Z</time>
      </trkpt>
      <trkpt lat="45.94475" lon="4.73706">
        <ele>186</ele>
        <time>2016-09-26T08:38:58Z</time>
      </trkpt>
      <trkpt lat="45.94475" lon="4.73713">
        <ele>186</ele>
        <time>2016-09-26T08:38:59Z</time>
      </trkpt>
      <trkpt lat="45.94476" lon="4.73723">
        <ele>186</ele>
        <time>2016-09-26T08:39:00Z</time>
      </trkpt>
      <trkpt lat="45.94476" lon="4.73731">
        <ele>186</ele>
        <time>2016-09-26T08:39:01Z</time>
      </trkpt>
      <trkpt lat="45.94475" lon="4.73737">
        <ele>186</ele>
        <time>2016-09-26T08:39:02Z</time>
      </trkpt>
      <trkpt lat="45.94475" lon="4.73744">
        <ele>186</ele>
        <time>2016-09-26T08:39:03Z</time>
      </trkpt>
      <trkpt lat="45.94471" lon="4.73755">
        <ele>186</ele>
        <time>2016-09-26T08:39:05Z</time>
      </trkpt>
      <trkpt lat="45.94469" lon="4.73761">
        <ele>186</ele>
        <time>2016-09-26T08:39:06Z</time>
      </trkpt>
      <trkpt lat="45.94467" lon="4.73767">
        <ele>186</ele>
        <time>2016-09-26T08:39:07Z</time>
      </trkpt>
      <trkpt lat="45.94466" lon="4.73775">
        <ele>186</ele>
        <time>2016-09-26T08:39:08Z</time>
      </trkpt>
      <trkpt lat="45.94464" lon="4.73783">
        <ele>186</ele>
        <time>2016-09-26T08:39:09Z</time>
      </trkpt>
      <trkpt lat="45.94467" lon="4.73788">
        <ele>186</ele>
        <time>2016-09-26T08:39:10Z</time>
      </trkpt>
      <trkpt lat="45.94472" lon="4.73789">
        <ele>186</ele>
        <time>2016-09-26T08:39:11Z</time>
      </trkpt>
      <trkpt lat="45.94476" lon="4.73793">
        <ele>185</ele>
        <time>2016-09-26T08:39:12Z</time>
      </trkpt>
      <trkpt lat="45.9448" lon="4.73796">
        <ele>185</ele>
        <time>2016-09-26T08:39:13Z</time>
      </trkpt>
      <trkpt lat="45.94484" lon="4.73799">
        <ele>185</ele>
        <time>2016-09-26T08:39:14Z</time>
      </trkpt>
      <trkpt lat="45.94489" lon="4.73801">
        <ele>185</ele>
        <time>2016-09-26T08:39:15Z</time>
      </trkpt>
      <trkpt lat="45.94494" lon="4.73804">
        <ele>185</ele>
        <time>2016-09-26T08:39:16Z</time>
      </trkpt>
      <trkpt lat="45.945" lon="4.73808">
        <ele>185</ele>
        <time>2016-09-26T08:39:17Z</time>
      </trkpt>
      <trkpt lat="45.94506" lon="4.73813">
        <ele>186</ele>
        <time>2016-09-26T08:39:18Z</time>
      </trkpt>
      <trkpt lat="45.94511" lon="4.73816">
        <ele>186</ele>
        <time>2016-09-26T08:39:19Z</time>
      </trkpt>
      <trkpt lat="45.94514" lon="4.73821">
        <ele>186</ele>
        <time>2016-09-26T08:39:20Z</time>
      </trkpt>
      <trkpt lat="45.94519" lon="4.73825">
        <ele>186</ele>
        <time>2016-09-26T08:39:21Z</time>
      </trkpt>
      <trkpt lat="45.94525" lon="4.73829">
        <ele>186</ele>
        <time>2016-09-26T08:39:22Z</time>
      </trkpt>
      <trkpt lat="45.9453" lon="4.73831">
        <ele>186</ele>
        <time>2016-09-26T08:39:23Z</time>
      </trkpt>
      <trkpt lat="45.94534" lon="4.73836">
        <ele>186</ele>
        <time>2016-09-26T08:39:24Z</time>
      </trkpt>
      <trkpt lat="45.94539" lon="4.7384">
        <ele>186</ele>
        <time>2016-09-26T08:39:25Z</time>
      </trkpt>
      <trkpt lat="45.94544" lon="4.73843">
        <ele>186</ele>
        <time>2016-09-26T08:39:26Z</time>
      </trkpt>
      <trkpt lat="45.94548" lon="4.73846">
        <ele>186</ele>
        <time>2016-09-26T08:39:27Z</time>
      </trkpt>
      <trkpt lat="45.94552" lon="4.7385">
        <ele>186</ele>
        <time>2016-09-26T08:39:28Z</time>
      </trkpt>
      <trkpt lat="45.94558" lon="4.73854">
        <ele>186</ele>
        <time>2016-09-26T08:39:29Z</time>
      </trkpt>
      <trkpt lat="45.94562" lon="4.73857">
        <ele>186</ele>
        <time>2016-09-26T08:39:30Z</time>
      </trkpt>
      <trkpt lat="45.94566" lon="4.73861">
        <ele>186</ele>
        <time>2016-09-26T08:39:31Z</time>
      </trkpt>
      <trkpt lat="45.94571" lon="4.73864">
        <ele>186</ele>
        <time>2016-09-26T08:39:32Z</time>
      </trkpt>
      <trkpt lat="45.94574" lon="4.73868">
        <ele>186</ele>
        <time>2016-09-26T08:39:33Z</time>
      </trkpt>
      <trkpt lat="45.94578" lon="4.73873">
        <ele>186</ele>
        <time>2016-09-26T08:39:34Z</time>
      </trkpt>
      <trkpt lat="45.94583" lon="4.73878">
        <ele>186</ele>
        <time>2016-09-26T08:39:35Z</time>
      </trkpt>
      <trkpt lat="45.94588" lon="4.7388">
        <ele>187</ele>
        <time>2016-09-26T08:39:36Z</time>
      </trkpt>
      <trkpt lat="45.94593" lon="4.73884">
        <ele>187</ele>
        <time>2016-09-26T08:39:37Z</time>
      </trkpt>
      <trkpt lat="45.94598" lon="4.73888">
        <ele>187</ele>
        <time>2016-09-26T08:39:38Z</time>
      </trkpt>
      <trkpt lat="45.94601" lon="4.73893">
        <ele>187</ele>
        <time>2016-09-26T08:39:39Z</time>
      </trkpt>
      <trkpt lat="45.94603" lon="4.739">
        <ele>187</ele>
        <time>2016-09-26T08:39:40Z</time>
      </trkpt>
      <trkpt lat="45.94606" lon="4.73906">
        <ele>187</ele>
        <time>2016-09-26T08:39:41Z</time>
      </trkpt>
      <trkpt lat="45.94611" lon="4.73909">
        <ele>187</ele>
        <time>2016-09-26T08:39:42Z</time>
      </trkpt>
      <trkpt lat="45.94615" lon="4.73915">
        <ele>187</ele>
        <time>2016-09-26T08:39:43Z</time>
      </trkpt>
      <trkpt lat="45.94618" lon="4.7392">
        <ele>187</ele>
        <time>2016-09-26T08:39:44Z</time>
      </trkpt>
      <trkpt lat="45.94622" lon="4.73925">
        <ele>187</ele>
        <time>2016-09-26T08:39:45Z</time>
      </trkpt>
      <trkpt lat="45.94626" lon="4.7393">
        <ele>187</ele>
        <time>2016-09-26T08:39:46Z</time>
      </trkpt>
      <trkpt lat="45.94629" lon="4.73935">
        <ele>187</ele>
        <time>2016-09-26T08:39:47Z</time>
      </trkpt>
      <trkpt lat="45.94633" lon="4.73939">
        <ele>187</ele>
        <time>2016-09-26T08:39:48Z</time>
      </trkpt>
      <trkpt lat="45.94637" lon="4.73943">
        <ele>187</ele>
        <time>2016-09-26T08:39:49Z</time>
      </trkpt>
      <trkpt lat="45.9464" lon="4.73948">
        <ele>187</ele>
        <time>2016-09-26T08:39:50Z</time>
      </trkpt>
      <trkpt lat="45.94645" lon="4.73953">
        <ele>187</ele>
        <time>2016-09-26T08:39:52Z</time>
      </trkpt>
      <trkpt lat="45.94646" lon="4.73957">
        <ele>187</ele>
        <time>2016-09-26T08:39:53Z</time>
      </trkpt>
      <trkpt lat="45.9465" lon="4.73961">
        <ele>187</ele>
        <time>2016-09-26T08:39:54Z</time>
      </trkpt>
      <trkpt lat="45.94654" lon="4.73966">
        <ele>187</ele>
        <time>2016-09-26T08:39:55Z</time>
      </trkpt>
      <trkpt lat="45.94658" lon="4.73971">
        <ele>187</ele>
        <time>2016-09-26T08:39:56Z</time>
      </trkpt>
      <trkpt lat="45.94662" lon="4.73978">
        <ele>187</ele>
        <time>2016-09-26T08:39:57Z</time>
      </trkpt>
      <trkpt lat="45.94666" lon="4.73982">
        <ele>187</ele>
        <time>2016-09-26T08:39:58Z</time>
      </trkpt>
      <trkpt lat="45.9467" lon="4.73988">
        <ele>187</ele>
        <time>2016-09-26T08:39:59Z</time>
      </trkpt>
      <trkpt lat="45.94674" lon="4.73993">
        <ele>187</ele>
        <time>2016-09-26T08:40:00Z</time>
      </trkpt>
      <trkpt lat="45.94679" lon="4.73997">
        <ele>187</ele>
        <time>2016-09-26T08:40:01Z</time>
      </trkpt>
      <trkpt lat="45.94682" lon="4.74002">
        <ele>187</ele>
        <time>2016-09-26T08:40:02Z</time>
      </trkpt>
      <trkpt lat="45.94686" lon="4.74007">
        <ele>187</ele>
        <time>2016-09-26T08:40:03Z</time>
      </trkpt>
      <trkpt lat="45.9469" lon="4.74013">
        <ele>187</ele>
        <time>2016-09-26T08:40:04Z</time>
      </trkpt>
      <trkpt lat="45.94693" lon="4.74018">
        <ele>187</ele>
        <time>2016-09-26T08:40:05Z</time>
      </trkpt>
      <trkpt lat="45.94697" lon="4.74023">
        <ele>187</ele>
        <time>2016-09-26T08:40:06Z</time>
      </trkpt>
      <trkpt lat="45.94701" lon="4.74028">
        <ele>187</ele>
        <time>2016-09-26T08:40:07Z</time>
      </trkpt>
      <trkpt lat="45.94705" lon="4.74031">
        <ele>187</ele>
        <time>2016-09-26T08:40:08Z</time>
      </trkpt>
      <trkpt lat="45.9471" lon="4.74035">
        <ele>187</ele>
        <time>2016-09-26T08:40:09Z</time>
      </trkpt>
      <trkpt lat="45.94713" lon="4.74039">
        <ele>187</ele>
        <time>2016-09-26T08:40:10Z</time>
      </trkpt>
      <trkpt lat="45.94717" lon="4.74044">
        <ele>187</ele>
        <time>2016-09-26T08:40:11Z</time>
      </trkpt>
      <trkpt lat="45.9472" lon="4.74049">
        <ele>187</ele>
        <time>2016-09-26T08:40:12Z</time>
      </trkpt>
      <trkpt lat="45.94724" lon="4.74054">
        <ele>188</ele>
        <time>2016-09-26T08:40:13Z</time>
      </trkpt>
      <trkpt lat="45.94727" lon="4.7406">
        <ele>188</ele>
        <time>2016-09-26T08:40:14Z</time>
      </trkpt>
      <trkpt lat="45.94731" lon="4.74065">
        <ele>188</ele>
        <time>2016-09-26T08:40:15Z</time>
      </trkpt>
      <trkpt lat="45.94734" lon="4.7407">
        <ele>188</ele>
        <time>2016-09-26T08:40:16Z</time>
      </trkpt>
      <trkpt lat="45.94738" lon="4.74076">
        <ele>188</ele>
        <time>2016-09-26T08:40:17Z</time>
      </trkpt>
      <trkpt lat="45.94741" lon="4.74082">
        <ele>188</ele>
        <time>2016-09-26T08:40:18Z</time>
      </trkpt>
      <trkpt lat="45.94745" lon="4.74087">
        <ele>188</ele>
        <time>2016-09-26T08:40:19Z</time>
      </trkpt>
      <trkpt lat="45.94749" lon="4.74091">
        <ele>188</ele>
        <time>2016-09-26T08:40:20Z</time>
      </trkpt>
      <trkpt lat="45.94752" lon="4.74096">
        <ele>189</ele>
        <time>2016-09-26T08:40:21Z</time>
      </trkpt>
      <trkpt lat="45.94755" lon="4.74102">
        <ele>189</ele>
        <time>2016-09-26T08:40:22Z</time>
      </trkpt>
      <trkpt lat="45.94759" lon="4.74108">
        <ele>189</ele>
        <time>2016-09-26T08:40:23Z</time>
      </trkpt>
      <trkpt lat="45.94762" lon="4.74114">
        <ele>189</ele>
        <time>2016-09-26T08:40:24Z</time>
      </trkpt>
      <trkpt lat="45.94764" lon="4.74118">
        <ele>189</ele>
        <time>2016-09-26T08:40:25Z</time>
      </trkpt>
      <trkpt lat="45.94767" lon="4.74128">
        <ele>189</ele>
        <time>2016-09-26T08:40:27Z</time>
      </trkpt>
      <trkpt lat="45.9477" lon="4.74133">
        <ele>189</ele>
        <time>2016-09-26T08:40:28Z</time>
      </trkpt>
      <trkpt lat="45.94776" lon="4.74135">
        <ele>189</ele>
        <time>2016-09-26T08:40:29Z</time>
      </trkpt>
      <trkpt lat="45.94779" lon="4.74139">
        <ele>189</ele>
        <time>2016-09-26T08:40:30Z</time>
      </trkpt>
      <trkpt lat="45.94785" lon="4.74148">
        <ele>189</ele>
        <time>2016-09-26T08:40:32Z</time>
      </trkpt>
      <trkpt lat="45.94788" lon="4.74154">
        <ele>189</ele>
        <time>2016-09-26T08:40:33Z</time>
      </trkpt>
      <trkpt lat="45.94791" lon="4.74158">
        <ele>189</ele>
        <time>2016-09-26T08:40:34Z</time>
      </trkpt>
      <trkpt lat="45.94794" lon="4.74164">
        <ele>189</ele>
        <time>2016-09-26T08:40:35Z</time>
      </trkpt>
      <trkpt lat="45.94798" lon="4.7417">
        <ele>189</ele>
        <time>2016-09-26T08:40:36Z</time>
      </trkpt>
      <trkpt lat="45.94802" lon="4.74177">
        <ele>189</ele>
        <time>2016-09-26T08:40:37Z</time>
      </trkpt>
      <trkpt lat="45.94806" lon="4.74183">
        <ele>189</ele>
        <time>2016-09-26T08:40:38Z</time>
      </trkpt>
      <trkpt lat="45.94809" lon="4.74189">
        <ele>189</ele>
        <time>2016-09-26T08:40:39Z</time>
      </trkpt>
      <trkpt lat="45.94813" lon="4.74195">
        <ele>189</ele>
        <time>2016-09-26T08:40:40Z</time>
      </trkpt>
      <trkpt lat="45.94816" lon="4.742">
        <ele>189</ele>
        <time>2016-09-26T08:40:41Z</time>
      </trkpt>
      <trkpt lat="45.9482" lon="4.74205">
        <ele>188</ele>
        <time>2016-09-26T08:40:42Z</time>
      </trkpt>
      <trkpt lat="45.94824" lon="4.74211">
        <ele>188</ele>
        <time>2016-09-26T08:40:43Z</time>
      </trkpt>
      <trkpt lat="45.94828" lon="4.74217">
        <ele>188</ele>
        <time>2016-09-26T08:40:44Z</time>
      </trkpt>
      <trkpt lat="45.94831" lon="4.74224">
        <ele>188</ele>
        <time>2016-09-26T08:40:45Z</time>
      </trkpt>
      <trkpt lat="45.94834" lon="4.7423">
        <ele>190</ele>
        <time>2016-09-26T08:40:46Z</time>
      </trkpt>
      <trkpt lat="45.94838" lon="4.74236">
        <ele>190</ele>
        <time>2016-09-26T08:40:47Z</time>
      </trkpt>
      <trkpt lat="45.94841" lon="4.74242">
        <ele>189</ele>
        <time>2016-09-26T08:40:48Z</time>
      </trkpt>
      <trkpt lat="45.94843" lon="4.74251">
        <ele>190</ele>
        <time>2016-09-26T08:40:49Z</time>
      </trkpt>
      <trkpt lat="45.94846" lon="4.74255">
        <ele>190</ele>
        <time>2016-09-26T08:40:50Z</time>
      </trkpt>
      <trkpt lat="45.9485" lon="4.74261">
        <ele>190</ele>
        <time>2016-09-26T08:40:51Z</time>
      </trkpt>
      <trkpt lat="45.94853" lon="4.74266">
        <ele>190</ele>
        <time>2016-09-26T08:40:52Z</time>
      </trkpt>
      <trkpt lat="45.94857" lon="4.74272">
        <ele>190</ele>
        <time>2016-09-26T08:40:53Z</time>
      </trkpt>
      <trkpt lat="45.9486" lon="4.74278">
        <ele>190</ele>
        <time>2016-09-26T08:40:54Z</time>
      </trkpt>
      <trkpt lat="45.94864" lon="4.74283">
        <ele>191</ele>
        <time>2016-09-26T08:40:55Z</time>
      </trkpt>
      <trkpt lat="45.94867" lon="4.7429">
        <ele>191</ele>
        <time>2016-09-26T08:40:56Z</time>
      </trkpt>
      <trkpt lat="45.9487" lon="4.74296">
        <ele>191</ele>
        <time>2016-09-26T08:40:57Z</time>
      </trkpt>
      <trkpt lat="45.94874" lon="4.74303">
        <ele>191</ele>
        <time>2016-09-26T08:40:58Z</time>
      </trkpt>
      <trkpt lat="45.94876" lon="4.74309">
        <ele>191</ele>
        <time>2016-09-26T08:40:59Z</time>
      </trkpt>
      <trkpt lat="45.94879" lon="4.74316">
        <ele>191</ele>
        <time>2016-09-26T08:41:00Z</time>
      </trkpt>
      <trkpt lat="45.94882" lon="4.74323">
        <ele>191</ele>
        <time>2016-09-26T08:41:01Z</time>
      </trkpt>
      <trkpt lat="45.94885" lon="4.74329">
        <ele>191</ele>
        <time>2016-09-26T08:41:02Z</time>
      </trkpt>
      <trkpt lat="45.94889" lon="4.74335">
        <ele>191</ele>
        <time>2016-09-26T08:41:03Z</time>
      </trkpt>
      <trkpt lat="45.94892" lon="4.74342">
        <ele>191</ele>
        <time>2016-09-26T08:41:04Z</time>
      </trkpt>
      <trkpt lat="45.94894" lon="4.74348">
        <ele>191</ele>
        <time>2016-09-26T08:41:05Z</time>
      </trkpt>
      <trkpt lat="45.94897" lon="4.74354">
        <ele>191</ele>
        <time>2016-09-26T08:41:06Z</time>
      </trkpt>
      <trkpt lat="45.949" lon="4.7436">
        <ele>191</ele>
        <time>2016-09-26T08:41:07Z</time>
      </trkpt>
      <trkpt lat="45.94904" lon="4.74366">
        <ele>191</ele>
        <time>2016-09-26T08:41:08Z</time>
      </trkpt>
      <trkpt lat="45.94908" lon="4.74371">
        <ele>191</ele>
        <time>2016-09-26T08:41:09Z</time>
      </trkpt>
      <trkpt lat="45.94911" lon="4.74378">
        <ele>191</ele>
        <time>2016-09-26T08:41:10Z</time>
      </trkpt>
      <trkpt lat="45.94914" lon="4.74384">
        <ele>191</ele>
        <time>2016-09-26T08:41:11Z</time>
      </trkpt>
      <trkpt lat="45.94917" lon="4.7439">
        <ele>191</ele>
        <time>2016-09-26T08:41:12Z</time>
      </trkpt>
      <trkpt lat="45.9492" lon="4.74395">
        <ele>192</ele>
        <time>2016-09-26T08:41:13Z</time>
      </trkpt>
      <trkpt lat="45.94924" lon="4.74401">
        <ele>192</ele>
        <time>2016-09-26T08:41:14Z</time>
      </trkpt>
      <trkpt lat="45.94927" lon="4.74407">
        <ele>192</ele>
        <time>2016-09-26T08:41:15Z</time>
      </trkpt>
      <trkpt lat="45.9493" lon="4.74413">
        <ele>192</ele>
        <time>2016-09-26T08:41:16Z</time>
      </trkpt>
      <trkpt lat="45.94933" lon="4.74419">
        <ele>192</ele>
        <time>2016-09-26T08:41:17Z</time>
      </trkpt>
      <trkpt lat="45.94937" lon="4.74425">
        <ele>192</ele>
        <time>2016-09-26T08:41:18Z</time>
      </trkpt>
      <trkpt lat="45.9494" lon="4.74431">
        <ele>192</ele>
        <time>2016-09-26T08:41:19Z</time>
      </trkpt>
      <trkpt lat="45.94944" lon="4.74437">
        <ele>192</ele>
        <time>2016-09-26T08:41:20Z</time>
      </trkpt>
      <trkpt lat="45.94947" lon="4.74442">
        <ele>192</ele>
        <time>2016-09-26T08:41:21Z</time>
      </trkpt>
      <trkpt lat="45.94953" lon="4.74449">
        <ele>192</ele>
        <time>2016-09-26T08:41:23Z</time>
      </trkpt>
      <trkpt lat="45.94956" lon="4.74454">
        <ele>192</ele>
        <time>2016-09-26T08:41:24Z</time>
      </trkpt>
      <trkpt lat="45.94958" lon="4.74465">
        <ele>193</ele>
        <time>2016-09-26T08:41:25Z</time>
      </trkpt>
      <trkpt lat="45.94962" lon="4.7447">
        <ele>193</ele>
        <time>2016-09-26T08:41:26Z</time>
      </trkpt>
      <trkpt lat="45.94965" lon="4.74476">
        <ele>193</ele>
        <time>2016-09-26T08:41:27Z</time>
      </trkpt>
      <trkpt lat="45.94968" lon="4.74482">
        <ele>193</ele>
        <time>2016-09-26T08:41:28Z</time>
      </trkpt>
      <trkpt lat="45.9497" lon="4.74488">
        <ele>193</ele>
        <time>2016-09-26T08:41:29Z</time>
      </trkpt>
      <trkpt lat="45.94973" lon="4.74494">
        <ele>193</ele>
        <time>2016-09-26T08:41:30Z</time>
      </trkpt>
      <trkpt lat="45.94975" lon="4.745">
        <ele>193</ele>
        <time>2016-09-26T08:41:31Z</time>
      </trkpt>
      <trkpt lat="45.94978" lon="4.74505">
        <ele>193</ele>
        <time>2016-09-26T08:41:32Z</time>
      </trkpt>
      <trkpt lat="45.94981" lon="4.74511">
        <ele>193</ele>
        <time>2016-09-26T08:41:33Z</time>
      </trkpt>
      <trkpt lat="45.94984" lon="4.74517">
        <ele>193</ele>
        <time>2016-09-26T08:41:34Z</time>
      </trkpt>
      <trkpt lat="45.94987" lon="4.74523">
        <ele>193</ele>
        <time>2016-09-26T08:41:35Z</time>
      </trkpt>
      <trkpt lat="45.9499" lon="4.74529">
        <ele>193</ele>
        <time>2016-09-26T08:41:36Z</time>
      </trkpt>
      <trkpt lat="45.94992" lon="4.74535">
        <ele>193</ele>
        <time>2016-09-26T08:41:37Z</time>
      </trkpt>
      <trkpt lat="45.94995" lon="4.74541">
        <ele>193</ele>
        <time>2016-09-26T08:41:38Z</time>
      </trkpt>
      <trkpt lat="45.94998" lon="4.74547">
        <ele>193</ele>
        <time>2016-09-26T08:41:39Z</time>
      </trkpt>
      <trkpt lat="45.95001" lon="4.74554">
        <ele>194</ele>
        <time>2016-09-26T08:41:40Z</time>
      </trkpt>
      <trkpt lat="45.95004" lon="4.7456">
        <ele>194</ele>
        <time>2016-09-26T08:41:41Z</time>
      </trkpt>
      <trkpt lat="45.95008" lon="4.74566">
        <ele>194</ele>
        <time>2016-09-26T08:41:42Z</time>
      </trkpt>
      <trkpt lat="45.95011" lon="4.74572">
        <ele>194</ele>
        <time>2016-09-26T08:41:43Z</time>
      </trkpt>
      <trkpt lat="45.95015" lon="4.74577">
        <ele>194</ele>
        <time>2016-09-26T08:41:44Z</time>
      </trkpt>
      <trkpt lat="45.95018" lon="4.74583">
        <ele>194</ele>
        <time>2016-09-26T08:41:45Z</time>
      </trkpt>
      <trkpt lat="45.95021" lon="4.74588">
        <ele>194</ele>
        <time>2016-09-26T08:41:46Z</time>
      </trkpt>
      <trkpt lat="45.95023" lon="4.74592">
        <ele>194</ele>
        <time>2016-09-26T08:41:47Z</time>
      </trkpt>
      <trkpt lat="45.95027" lon="4.74598">
        <ele>194</ele>
        <time>2016-09-26T08:41:48Z</time>
      </trkpt>
      <trkpt lat="45.9503" lon="4.74604">
        <ele>194</ele>
        <time>2016-09-26T08:41:49Z</time>
      </trkpt>
      <trkpt lat="45.95033" lon="4.74609">
        <ele>194</ele>
        <time>2016-09-26T08:41:50Z</time>
      </trkpt>
      <trkpt lat="45.95036" lon="4.74615">
        <ele>194</ele>
        <time>2016-09-26T08:41:51Z</time>
      </trkpt>
      <trkpt lat="45.9504" lon="4.74621">
        <ele>194</ele>
        <time>2016-09-26T08:41:52Z</time>
      </trkpt>
      <trkpt lat="45.95043" lon="4.74627">
        <ele>194</ele>
        <time>2016-09-26T08:41:53Z</time>
      </trkpt>
      <trkpt lat="45.95046" lon="4.74634">
        <ele>194</ele>
        <time>2016-09-26T08:41:54Z</time>
      </trkpt>
      <trkpt lat="45.9505" lon="4.74635">
        <ele>194</ele>
        <time>2016-09-26T08:41:55Z</time>
      </trkpt>
      <trkpt lat="45.95056" lon="4.74643">
        <ele>194</ele>
        <time>2016-09-26T08:41:56Z</time>
      </trkpt>
      <trkpt lat="45.95061" lon="4.7465">
        <ele>194</ele>
        <time>2016-09-26T08:41:57Z</time>
      </trkpt>
      <trkpt lat="45.95064" lon="4.74657">
        <ele>195</ele>
        <time>2016-09-26T08:41:58Z</time>
      </trkpt>
      <trkpt lat="45.95067" lon="4.74664">
        <ele>195</ele>
        <time>2016-09-26T08:41:59Z</time>
      </trkpt>
      <trkpt lat="45.95069" lon="4.74671">
        <ele>194</ele>
        <time>2016-09-26T08:42:00Z</time>
      </trkpt>
      <trkpt lat="45.95073" lon="4.74678">
        <ele>194</ele>
        <time>2016-09-26T08:42:01Z</time>
      </trkpt>
      <trkpt lat="45.95076" lon="4.74684">
        <ele>194</ele>
        <time>2016-09-26T08:42:02Z</time>
      </trkpt>
      <trkpt lat="45.95079" lon="4.74691">
        <ele>194</ele>
        <time>2016-09-26T08:42:03Z</time>
      </trkpt>
      <trkpt lat="45.95082" lon="4.74698">
        <ele>194</ele>
        <time>2016-09-26T08:42:04Z</time>
      </trkpt>
      <trkpt lat="45.95085" lon="4.74705">
        <ele>194</ele>
        <time>2016-09-26T08:42:05Z</time>
      </trkpt>
      <trkpt lat="45.95088" lon="4.74712">
        <ele>194</ele>
        <time>2016-09-26T08:42:06Z</time>
      </trkpt>
      <trkpt lat="45.95091" lon="4.74718">
        <ele>194</ele>
        <time>2016-09-26T08:42:07Z</time>
      </trkpt>
      <trkpt lat="45.95095" lon="4.74725">
        <ele>194</ele>
        <time>2016-09-26T08:42:08Z</time>
      </trkpt>
      <trkpt lat="45.95099" lon="4.74731">
        <ele>194</ele>
        <time>2016-09-26T08:42:09Z</time>
      </trkpt>
      <trkpt lat="45.95102" lon="4.74738">
        <ele>194</ele>
        <time>2016-09-26T08:42:10Z</time>
      </trkpt>
      <trkpt lat="45.95105" lon="4.74744">
        <ele>194</ele>
        <time>2016-09-26T08:42:11Z</time>
      </trkpt>
      <trkpt lat="45.95109" lon="4.7475">
        <ele>194</ele>
        <time>2016-09-26T08:42:12Z</time>
      </trkpt>
      <trkpt lat="45.95113" lon="4.74756">
        <ele>194</ele>
        <time>2016-09-26T08:42:13Z</time>
      </trkpt>
      <trkpt lat="45.95117" lon="4.74762">
        <ele>194</ele>
        <time>2016-09-26T08:42:14Z</time>
      </trkpt>
      <trkpt lat="45.9512" lon="4.74767">
        <ele>194</ele>
        <time>2016-09-26T08:42:15Z</time>
      </trkpt>
      <trkpt lat="45.95124" lon="4.74773">
        <ele>194</ele>
        <time>2016-09-26T08:42:16Z</time>
      </trkpt>
      <trkpt lat="45.95128" lon="4.7478">
        <ele>194</ele>
        <time>2016-09-26T08:42:17Z</time>
      </trkpt>
      <trkpt lat="45.95131" lon="4.74785">
        <ele>194</ele>
        <time>2016-09-26T08:42:18Z</time>
      </trkpt>
      <trkpt lat="45.95135" lon="4.74791">
        <ele>194</ele>
        <time>2016-09-26T08:42:19Z</time>
      </trkpt>
      <trkpt lat="45.95138" lon="4.74797">
        <ele>194</ele>
        <time>2016-09-26T08:42:20Z</time>
      </trkpt>
      <trkpt lat="45.95142" lon="4.74803">
        <ele>194</ele>
        <time>2016-09-26T08:42:21Z</time>
      </trkpt>
      <trkpt lat="45.95146" lon="4.74809">
        <ele>194</ele>
        <time>2016-09-26T08:42:22Z</time>
      </trkpt>
      <trkpt lat="45.95149" lon="4.74815">
        <ele>194</ele>
        <time>2016-09-26T08:42:23Z</time>
      </trkpt>
      <trkpt lat="45.95153" lon="4.74821">
        <ele>194</ele>
        <time>2016-09-26T08:42:24Z</time>
      </trkpt>
      <trkpt lat="45.95157" lon="4.74826">
        <ele>194</ele>
        <time>2016-09-26T08:42:25Z</time>
      </trkpt>
      <trkpt lat="45.9516" lon="4.74832">
        <ele>194</ele>
        <time>2016-09-26T08:42:26Z</time>
      </trkpt>
      <trkpt lat="45.95164" lon="4.74839">
        <ele>194</ele>
        <time>2016-09-26T08:42:27Z</time>
      </trkpt>
      <trkpt lat="45.95168" lon="4.74847">
        <ele>194</ele>
        <time>2016-09-26T08:42:28Z</time>
      </trkpt>
      <trkpt lat="45.95173" lon="4.74854">
        <ele>194</ele>
        <time>2016-09-26T08:42:29Z</time>
      </trkpt>
      <trkpt lat="45.95177" lon="4.7486">
        <ele>194</ele>
        <time>2016-09-26T08:42:30Z</time>
      </trkpt>
      <trkpt lat="45.9518" lon="4.74866">
        <ele>194</ele>
        <time>2016-09-26T08:42:31Z</time>
      </trkpt>
      <trkpt lat="45.95184" lon="4.74871">
        <ele>194</ele>
        <time>2016-09-26T08:42:32Z</time>
      </trkpt>
      <trkpt lat="45.95187" lon="4.74876">
        <ele>194</ele>
        <time>2016-09-26T08:42:33Z</time>
      </trkpt>
      <trkpt lat="45.95191" lon="4.74882">
        <ele>194</ele>
        <time>2016-09-26T08:42:34Z</time>
      </trkpt>
      <trkpt lat="45.95195" lon="4.74889">
        <ele>194</ele>
        <time>2016-09-26T08:42:35Z</time>
      </trkpt>
      <trkpt lat="45.95199" lon="4.74895">
        <ele>194</ele>
        <time>2016-09-26T08:42:36Z</time>
      </trkpt>
      <trkpt lat="45.95203" lon="4.74901">
        <ele>194</ele>
        <time>2016-09-26T08:42:37Z</time>
      </trkpt>
      <trkpt lat="45.95207" lon="4.74908">
        <ele>194</ele>
        <time>2016-09-26T08:42:38Z</time>
      </trkpt>
      <trkpt lat="45.9521" lon="4.74914">
        <ele>193</ele>
        <time>2016-09-26T08:42:39Z</time>
      </trkpt>
      <trkpt lat="45.95213" lon="4.7492">
        <ele>192</ele>
        <time>2016-09-26T08:42:40Z</time>
      </trkpt>
      <trkpt lat="45.95217" lon="4.74925">
        <ele>192</ele>
        <time>2016-09-26T08:42:41Z</time>
      </trkpt>
      <trkpt lat="45.95221" lon="4.74932">
        <ele>192</ele>
        <time>2016-09-26T08:42:42Z</time>
      </trkpt>
      <trkpt lat="45.95225" lon="4.74938">
        <ele>192</ele>
        <time>2016-09-26T08:42:43Z</time>
      </trkpt>
      <trkpt lat="45.95229" lon="4.74944">
        <ele>192</ele>
        <time>2016-09-26T08:42:44Z</time>
      </trkpt>
      <trkpt lat="45.95232" lon="4.7495">
        <ele>192</ele>
        <time>2016-09-26T08:42:45Z</time>
      </trkpt>
      <trkpt lat="45.95236" lon="4.74956">
        <ele>192</ele>
        <time>2016-09-26T08:42:46Z</time>
      </trkpt>
      <trkpt lat="45.9524" lon="4.74963">
        <ele>191</ele>
        <time>2016-09-26T08:42:47Z</time>
      </trkpt>
      <trkpt lat="45.95244" lon="4.7497">
        <ele>191</ele>
        <time>2016-09-26T08:42:48Z</time>
      </trkpt>
      <trkpt lat="45.95248" lon="4.74976">
        <ele>191</ele>
        <time>2016-09-26T08:42:49Z</time>
      </trkpt>
      <trkpt lat="45.95251" lon="4.74982">
        <ele>192</ele>
        <time>2016-09-26T08:42:50Z</time>
      </trkpt>
      <trkpt lat="45.95255" lon="4.74988">
        <ele>192</ele>
        <time>2016-09-26T08:42:51Z</time>
      </trkpt>
      <trkpt lat="45.95259" lon="4.74994">
        <ele>192</ele>
        <time>2016-09-26T08:42:52Z</time>
      </trkpt>
      <trkpt lat="45.95264" lon="4.75001">
        <ele>191</ele>
        <time>2016-09-26T08:42:53Z</time>
      </trkpt>
      <trkpt lat="45.95268" lon="4.75008">
        <ele>191</ele>
        <time>2016-09-26T08:42:54Z</time>
      </trkpt>
      <trkpt lat="45.95273" lon="4.75014">
        <ele>191</ele>
        <time>2016-09-26T08:42:55Z</time>
      </trkpt>
      <trkpt lat="45.95278" lon="4.75021">
        <ele>191</ele>
        <time>2016-09-26T08:42:56Z</time>
      </trkpt>
      <trkpt lat="45.95282" lon="4.75028">
        <ele>191</ele>
        <time>2016-09-26T08:42:57Z</time>
      </trkpt>
      <trkpt lat="45.95287" lon="4.75034">
        <ele>191</ele>
        <time>2016-09-26T08:42:58Z</time>
      </trkpt>
      <trkpt lat="45.95292" lon="4.75041">
        <ele>191</ele>
        <time>2016-09-26T08:42:59Z</time>
      </trkpt>
      <trkpt lat="45.95296" lon="4.75046">
        <ele>191</ele>
        <time>2016-09-26T08:43:00Z</time>
      </trkpt>
      <trkpt lat="45.953" lon="4.75053">
        <ele>191</ele>
        <time>2016-09-26T08:43:01Z</time>
      </trkpt>
      <trkpt lat="45.95305" lon="4.75059">
        <ele>191</ele>
        <time>2016-09-26T08:43:02Z</time>
      </trkpt>
      <trkpt lat="45.95308" lon="4.75066">
        <ele>192</ele>
        <time>2016-09-26T08:43:03Z</time>
      </trkpt>
      <trkpt lat="45.95312" lon="4.75072">
        <ele>192</ele>
        <time>2016-09-26T08:43:04Z</time>
      </trkpt>
      <trkpt lat="45.95316" lon="4.75078">
        <ele>192</ele>
        <time>2016-09-26T08:43:05Z</time>
      </trkpt>
      <trkpt lat="45.9532" lon="4.75083">
        <ele>192</ele>
        <time>2016-09-26T08:43:06Z</time>
      </trkpt>
      <trkpt lat="45.95324" lon="4.75089">
        <ele>191</ele>
        <time>2016-09-26T08:43:07Z</time>
      </trkpt>
      <trkpt lat="45.95328" lon="4.75095">
        <ele>191</ele>
        <time>2016-09-26T08:43:08Z</time>
      </trkpt>
      <trkpt lat="45.95333" lon="4.75101">
        <ele>190</ele>
        <time>2016-09-26T08:43:09Z</time>
      </trkpt>
      <trkpt lat="45.95337" lon="4.75107">
        <ele>192</ele>
        <time>2016-09-26T08:43:10Z</time>
      </trkpt>
      <trkpt lat="45.9534" lon="4.75114">
        <ele>192</ele>
        <time>2016-09-26T08:43:11Z</time>
      </trkpt>
      <trkpt lat="45.95343" lon="4.75121">
        <ele>191</ele>
        <time>2016-09-26T08:43:12Z</time>
      </trkpt>
      <trkpt lat="45.95348" lon="4.75127">
        <ele>191</ele>
        <time>2016-09-26T08:43:13Z</time>
      </trkpt>
      <trkpt lat="45.95352" lon="4.75134">
        <ele>191</ele>
        <time>2016-09-26T08:43:14Z</time>
      </trkpt>
      <trkpt lat="45.95357" lon="4.7514">
        <ele>191</ele>
        <time>2016-09-26T08:43:15Z</time>
      </trkpt>
      <trkpt lat="45.95361" lon="4.75147">
        <ele>191</ele>
        <time>2016-09-26T08:43:16Z</time>
      </trkpt>
      <trkpt lat="45.95365" lon="4.75154">
        <ele>191</ele>
        <time>2016-09-26T08:43:17Z</time>
      </trkpt>
      <trkpt lat="45.95369" lon="4.7516">
        <ele>191</ele>
        <time>2016-09-26T08:43:18Z</time>
      </trkpt>
      <trkpt lat="45.95373" lon="4.75167">
        <ele>191</ele>
        <time>2016-09-26T08:43:19Z</time>
      </trkpt>
      <trkpt lat="45.95377" lon="4.75173">
        <ele>189</ele>
        <time>2016-09-26T08:43:20Z</time>
      </trkpt>
      <trkpt lat="45.95381" lon="4.7518">
        <ele>189</ele>
        <time>2016-09-26T08:43:21Z</time>
      </trkpt>
      <trkpt lat="45.95385" lon="4.75186">
        <ele>189</ele>
        <time>2016-09-26T08:43:22Z</time>
      </trkpt>
      <trkpt lat="45.95389" lon="4.75193">
        <ele>189</ele>
        <time>2016-09-26T08:43:23Z</time>
      </trkpt>
      <trkpt lat="45.95393" lon="4.75199">
        <ele>189</ele>
        <time>2016-09-26T08:43:24Z</time>
      </trkpt>
      <trkpt lat="45.95397" lon="4.75206">
        <ele>189</ele>
        <time>2016-09-26T08:43:25Z</time>
      </trkpt>
      <trkpt lat="45.95401" lon="4.75212">
        <ele>189</ele>
        <time>2016-09-26T08:43:26Z</time>
      </trkpt>
      <trkpt lat="45.95405" lon="4.75219">
        <ele>188</ele>
        <time>2016-09-26T08:43:27Z</time>
      </trkpt>
      <trkpt lat="45.95409" lon="4.75227">
        <ele>188</ele>
        <time>2016-09-26T08:43:28Z</time>
      </trkpt>
      <trkpt lat="45.95413" lon="4.75233">
        <ele>189</ele>
        <time>2016-09-26T08:43:29Z</time>
      </trkpt>
      <trkpt lat="45.95417" lon="4.75241">
        <ele>190</ele>
        <time>2016-09-26T08:43:30Z</time>
      </trkpt>
      <trkpt lat="45.95421" lon="4.75247">
        <ele>190</ele>
        <time>2016-09-26T08:43:31Z</time>
      </trkpt>
      <trkpt lat="45.95426" lon="4.75255">
        <ele>189</ele>
        <time>2016-09-26T08:43:32Z</time>
      </trkpt>
      <trkpt lat="45.9543" lon="4.75262">
        <ele>189</ele>
        <time>2016-09-26T08:43:33Z</time>
      </trkpt>
      <trkpt lat="45.95433" lon="4.7527">
        <ele>189</ele>
        <time>2016-09-26T08:43:34Z</time>
      </trkpt>
      <trkpt lat="45.95436" lon="4.75278">
        <ele>188</ele>
        <time>2016-09-26T08:43:35Z</time>
      </trkpt>
      <trkpt lat="45.9544" lon="4.75286">
        <ele>188</ele>
        <time>2016-09-26T08:43:36Z</time>
      </trkpt>
      <trkpt lat="45.95444" lon="4.75293">
        <ele>188</ele>
        <time>2016-09-26T08:43:37Z</time>
      </trkpt>
      <trkpt lat="45.95448" lon="4.75299">
        <ele>188</ele>
        <time>2016-09-26T08:43:38Z</time>
      </trkpt>
      <trkpt lat="45.95452" lon="4.75307">
        <ele>188</ele>
        <time>2016-09-26T08:43:39Z</time>
      </trkpt>
      <trkpt lat="45.95456" lon="4.75315">
        <ele>188</ele>
        <time>2016-09-26T08:43:40Z</time>
      </trkpt>
      <trkpt lat="45.9546" lon="4.75322">
        <ele>188</ele>
        <time>2016-09-26T08:43:41Z</time>
      </trkpt>
      <trkpt lat="45.95463" lon="4.7533">
        <ele>188</ele>
        <time>2016-09-26T08:43:42Z</time>
      </trkpt>
      <trkpt lat="45.95468" lon="4.75337">
        <ele>186</ele>
        <time>2016-09-26T08:43:43Z</time>
      </trkpt>
      <trkpt lat="45.95472" lon="4.75344">
        <ele>186</ele>
        <time>2016-09-26T08:43:44Z</time>
      </trkpt>
      <trkpt lat="45.95477" lon="4.75352">
        <ele>186</ele>
        <time>2016-09-26T08:43:45Z</time>
      </trkpt>
      <trkpt lat="45.95481" lon="4.75359">
        <ele>186</ele>
        <time>2016-09-26T08:43:46Z</time>
      </trkpt>
      <trkpt lat="45.95484" lon="4.75367">
        <ele>185</ele>
        <time>2016-09-26T08:43:47Z</time>
      </trkpt>
      <trkpt lat="45.95488" lon="4.75375">
        <ele>185</ele>
        <time>2016-09-26T08:43:48Z</time>
      </trkpt>
      <trkpt lat="45.95492" lon="4.75382">
        <ele>185</ele>
        <time>2016-09-26T08:43:49Z</time>
      </trkpt>
      <trkpt lat="45.95495" lon="4.75391">
        <ele>185</ele>
        <time>2016-09-26T08:43:50Z</time>
      </trkpt>
      <trkpt lat="45.95498" lon="4.75399">
        <ele>185</ele>
        <time>2016-09-26T08:43:51Z</time>
      </trkpt>
      <trkpt lat="45.955" lon="4.75407">
        <ele>187</ele>
        <time>2016-09-26T08:43:52Z</time>
      </trkpt>
      <trkpt lat="45.95503" lon="4.75415">
        <ele>186</ele>
        <time>2016-09-26T08:43:53Z</time>
      </trkpt>
      <trkpt lat="45.95505" lon="4.75425">
        <ele>186</ele>
        <time>2016-09-26T08:43:54Z</time>
      </trkpt>
      <trkpt lat="45.95506" lon="4.75434">
        <ele>186</ele>
        <time>2016-09-26T08:43:55Z</time>
      </trkpt>
      <trkpt lat="45.95507" lon="4.75443">
        <ele>186</ele>
        <time>2016-09-26T08:43:56Z</time>
      </trkpt>
      <trkpt lat="45.95507" lon="4.75453">
        <ele>186</ele>
        <time>2016-09-26T08:43:57Z</time>
      </trkpt>
      <trkpt lat="45.95506" lon="4.75463">
        <ele>186</ele>
        <time>2016-09-26T08:43:58Z</time>
      </trkpt>
      <trkpt lat="45.95506" lon="4.75473">
        <ele>186</ele>
        <time>2016-09-26T08:43:59Z</time>
      </trkpt>
      <trkpt lat="45.95506" lon="4.7548">
        <ele>186</ele>
        <time>2016-09-26T08:44:00Z</time>
      </trkpt>
      <trkpt lat="45.95508" lon="4.75489">
        <ele>185</ele>
        <time>2016-09-26T08:44:01Z</time>
      </trkpt>
      <trkpt lat="45.95511" lon="4.75496">
        <ele>185</ele>
        <time>2016-09-26T08:44:02Z</time>
      </trkpt>
      <trkpt lat="45.95516" lon="4.75501">
        <ele>185</ele>
        <time>2016-09-26T08:44:03Z</time>
      </trkpt>
      <trkpt lat="45.95522" lon="4.75505">
        <ele>185</ele>
        <time>2016-09-26T08:44:04Z</time>
      </trkpt>
      <trkpt lat="45.95527" lon="4.75508">
        <ele>185</ele>
        <time>2016-09-26T08:44:05Z</time>
      </trkpt>
      <trkpt lat="45.95531" lon="4.75512">
        <ele>185</ele>
        <time>2016-09-26T08:44:06Z</time>
      </trkpt>
      <trkpt lat="45.95536" lon="4.75516">
        <ele>186</ele>
        <time>2016-09-26T08:44:07Z</time>
      </trkpt>
      <trkpt lat="45.95541" lon="4.75521">
        <ele>186</ele>
        <time>2016-09-26T08:44:08Z</time>
      </trkpt>
      <trkpt lat="45.95545" lon="4.75526">
        <ele>186</ele>
        <time>2016-09-26T08:44:09Z</time>
      </trkpt>
      <trkpt lat="45.9555" lon="4.7553">
        <ele>186</ele>
        <time>2016-09-26T08:44:10Z</time>
      </trkpt>
      <trkpt lat="45.95555" lon="4.75535">
        <ele>186</ele>
        <time>2016-09-26T08:44:11Z</time>
      </trkpt>
      <trkpt lat="45.9556" lon="4.75541">
        <ele>186</ele>
        <time>2016-09-26T08:44:12Z</time>
      </trkpt>
      <trkpt lat="45.95565" lon="4.75546">
        <ele>186</ele>
        <time>2016-09-26T08:44:13Z</time>
      </trkpt>
      <trkpt lat="45.9557" lon="4.75551">
        <ele>186</ele>
        <time>2016-09-26T08:44:14Z</time>
      </trkpt>
      <trkpt lat="45.95575" lon="4.75556">
        <ele>186</ele>
        <time>2016-09-26T08:44:15Z</time>
      </trkpt>
      <trkpt lat="45.95579" lon="4.75562">
        <ele>186</ele>
        <time>2016-09-26T08:44:16Z</time>
      </trkpt>
      <trkpt lat="45.95584" lon="4.75568">
        <ele>188</ele>
        <time>2016-09-26T08:44:17Z</time>
      </trkpt>
      <trkpt lat="45.95588" lon="4.75574">
        <ele>187</ele>
        <time>2016-09-26T08:44:18Z</time>
      </trkpt>
      <trkpt lat="45.95591" lon="4.7558">
        <ele>187</ele>
        <time>2016-09-26T08:44:19Z</time>
      </trkpt>
      <trkpt lat="45.95594" lon="4.75586">
        <ele>187</ele>
        <time>2016-09-26T08:44:20Z</time>
      </trkpt>
      <trkpt lat="45.95597" lon="4.75592">
        <ele>187</ele>
        <time>2016-09-26T08:44:21Z</time>
      </trkpt>
      <trkpt lat="45.95599" lon="4.75598">
        <ele>187</ele>
        <time>2016-09-26T08:44:22Z</time>
      </trkpt>
      <trkpt lat="45.95602" lon="4.75604">
        <ele>187</ele>
        <time>2016-09-26T08:44:23Z</time>
      </trkpt>
      <trkpt lat="45.95604" lon="4.7561">
        <ele>187</ele>
        <time>2016-09-26T08:44:24Z</time>
      </trkpt>
      <trkpt lat="45.95607" lon="4.75617">
        <ele>188</ele>
        <time>2016-09-26T08:44:25Z</time>
      </trkpt>
      <trkpt lat="45.95609" lon="4.75624">
        <ele>188</ele>
        <time>2016-09-26T08:44:26Z</time>
      </trkpt>
      <trkpt lat="45.95611" lon="4.75631">
        <ele>188</ele>
        <time>2016-09-26T08:44:27Z</time>
      </trkpt>
      <trkpt lat="45.95613" lon="4.75638">
        <ele>188</ele>
        <time>2016-09-26T08:44:28Z</time>
      </trkpt>
      <trkpt lat="45.95615" lon="4.75646">
        <ele>188</ele>
        <time>2016-09-26T08:44:29Z</time>
      </trkpt>
      <trkpt lat="45.95617" lon="4.75653">
        <ele>188</ele>
        <time>2016-09-26T08:44:30Z</time>
      </trkpt>
      <trkpt lat="45.95619" lon="4.7566">
        <ele>188</ele>
        <time>2016-09-26T08:44:31Z</time>
      </trkpt>
      <trkpt lat="45.9562" lon="4.75667">
        <ele>187</ele>
        <time>2016-09-26T08:44:32Z</time>
      </trkpt>
      <trkpt lat="45.95621" lon="4.75675">
        <ele>187</ele>
        <time>2016-09-26T08:44:33Z</time>
      </trkpt>
      <trkpt lat="45.95622" lon="4.75683">
        <ele>187</ele>
        <time>2016-09-26T08:44:34Z</time>
      </trkpt>
      <trkpt lat="45.95623" lon="4.75691">
        <ele>187</ele>
        <time>2016-09-26T08:44:35Z</time>
      </trkpt>
      <trkpt lat="45.95624" lon="4.75699">
        <ele>187</ele>
        <time>2016-09-26T08:44:36Z</time>
      </trkpt>
      <trkpt lat="45.95625" lon="4.75707">
        <ele>187</ele>
        <time>2016-09-26T08:44:37Z</time>
      </trkpt>
      <trkpt lat="45.95626" lon="4.75716">
        <ele>187</ele>
        <time>2016-09-26T08:44:38Z</time>
      </trkpt>
      <trkpt lat="45.95627" lon="4.75725">
        <ele>187</ele>
        <time>2016-09-26T08:44:39Z</time>
      </trkpt>
      <trkpt lat="45.95629" lon="4.75734">
        <ele>187</ele>
        <time>2016-09-26T08:44:40Z</time>
      </trkpt>
      <trkpt lat="45.9563" lon="4.75742">
        <ele>187</ele>
        <time>2016-09-26T08:44:41Z</time>
      </trkpt>
      <trkpt lat="45.95631" lon="4.75751">
        <ele>186</ele>
        <time>2016-09-26T08:44:42Z</time>
      </trkpt>
      <trkpt lat="45.95631" lon="4.75759">
        <ele>186</ele>
        <time>2016-09-26T08:44:43Z</time>
      </trkpt>
      <trkpt lat="45.95633" lon="4.75767">
        <ele>186</ele>
        <time>2016-09-26T08:44:44Z</time>
      </trkpt>
      <trkpt lat="45.95634" lon="4.75775">
        <ele>185</ele>
        <time>2016-09-26T08:44:45Z</time>
      </trkpt>
      <trkpt lat="45.95634" lon="4.75783">
        <ele>185</ele>
        <time>2016-09-26T08:44:46Z</time>
      </trkpt>
      <trkpt lat="45.95635" lon="4.75791">
        <ele>185</ele>
        <time>2016-09-26T08:44:47Z</time>
      </trkpt>
      <trkpt lat="45.95637" lon="4.75798">
        <ele>185</ele>
        <time>2016-09-26T08:44:48Z</time>
      </trkpt>
      <trkpt lat="45.95638" lon="4.75806">
        <ele>185</ele>
        <time>2016-09-26T08:44:49Z</time>
      </trkpt>
      <trkpt lat="45.9564" lon="4.75815">
        <ele>185</ele>
        <time>2016-09-26T08:44:50Z</time>
      </trkpt>
      <trkpt lat="45.95641" lon="4.75823">
        <ele>185</ele>
        <time>2016-09-26T08:44:51Z</time>
      </trkpt>
      <trkpt lat="45.95643" lon="4.75832">
        <ele>185</ele>
        <time>2016-09-26T08:44:52Z</time>
      </trkpt>
      <trkpt lat="45.95645" lon="4.75841">
        <ele>184</ele>
        <time>2016-09-26T08:44:53Z</time>
      </trkpt>
      <trkpt lat="45.95648" lon="4.75849">
        <ele>184</ele>
        <time>2016-09-26T08:44:54Z</time>
      </trkpt>
      <trkpt lat="45.9565" lon="4.75858">
        <ele>184</ele>
        <time>2016-09-26T08:44:55Z</time>
      </trkpt>
      <trkpt lat="45.95652" lon="4.75866">
        <ele>184</ele>
        <time>2016-09-26T08:44:56Z</time>
      </trkpt>
      <trkpt lat="45.95655" lon="4.75875">
        <ele>184</ele>
        <time>2016-09-26T08:44:57Z</time>
      </trkpt>
      <trkpt lat="45.95657" lon="4.75884">
        <ele>184</ele>
        <time>2016-09-26T08:44:58Z</time>
      </trkpt>
      <trkpt lat="45.9566" lon="4.75892">
        <ele>184</ele>
        <time>2016-09-26T08:44:59Z</time>
      </trkpt>
      <trkpt lat="45.95663" lon="4.759">
        <ele>184</ele>
        <time>2016-09-26T08:45:00Z</time>
      </trkpt>
      <trkpt lat="45.95667" lon="4.75908">
        <ele>184</ele>
        <time>2016-09-26T08:45:01Z</time>
      </trkpt>
      <trkpt lat="45.9567" lon="4.75915">
        <ele>184</ele>
        <time>2016-09-26T08:45:02Z</time>
      </trkpt>
      <trkpt lat="45.95674" lon="4.75923">
        <ele>184</ele>
        <time>2016-09-26T08:45:03Z</time>
      </trkpt>
      <trkpt lat="45.95677" lon="4.75931">
        <ele>185</ele>
        <time>2016-09-26T08:45:04Z</time>
      </trkpt>
      <trkpt lat="45.95681" lon="4.75938">
        <ele>185</ele>
        <time>2016-09-26T08:45:05Z</time>
      </trkpt>
      <trkpt lat="45.95684" lon="4.75946">
        <ele>185</ele>
        <time>2016-09-26T08:45:06Z</time>
      </trkpt>
      <trkpt lat="45.95688" lon="4.75953">
        <ele>185</ele>
        <time>2016-09-26T08:45:07Z</time>
      </trkpt>
      <trkpt lat="45.95691" lon="4.75959">
        <ele>185</ele>
        <time>2016-09-26T08:45:08Z</time>
      </trkpt>
      <trkpt lat="45.95694" lon="4.75966">
        <ele>185</ele>
        <time>2016-09-26T08:45:09Z</time>
      </trkpt>
      <trkpt lat="45.95696" lon="4.75973">
        <ele>185</ele>
        <time>2016-09-26T08:45:10Z</time>
      </trkpt>
      <trkpt lat="45.95699" lon="4.75979">
        <ele>185</ele>
        <time>2016-09-26T08:45:11Z</time>
      </trkpt>
      <trkpt lat="45.95702" lon="4.75986">
        <ele>185</ele>
        <time>2016-09-26T08:45:12Z</time>
      </trkpt>
      <trkpt lat="45.95704" lon="4.75993">
        <ele>185</ele>
        <time>2016-09-26T08:45:13Z</time>
      </trkpt>
      <trkpt lat="45.95707" lon="4.76">
        <ele>185</ele>
        <time>2016-09-26T08:45:14Z</time>
      </trkpt>
      <trkpt lat="45.9571" lon="4.76006">
        <ele>184</ele>
        <time>2016-09-26T08:45:15Z</time>
      </trkpt>
      <trkpt lat="45.95713" lon="4.76013">
        <ele>184</ele>
        <time>2016-09-26T08:45:16Z</time>
      </trkpt>
      <trkpt lat="45.95717" lon="4.7602">
        <ele>184</ele>
        <time>2016-09-26T08:45:17Z</time>
      </trkpt>
      <trkpt lat="45.9572" lon="4.76026">
        <ele>184</ele>
        <time>2016-09-26T08:45:18Z</time>
      </trkpt>
      <trkpt lat="45.95723" lon="4.76033">
        <ele>184</ele>
        <time>2016-09-26T08:45:19Z</time>
      </trkpt>
      <trkpt lat="45.95726" lon="4.76039">
        <ele>184</ele>
        <time>2016-09-26T08:45:20Z</time>
      </trkpt>
      <trkpt lat="45.95729" lon="4.76045">
        <ele>184</ele>
        <time>2016-09-26T08:45:21Z</time>
      </trkpt>
      <trkpt lat="45.95732" lon="4.76051">
        <ele>184</ele>
        <time>2016-09-26T08:45:22Z</time>
      </trkpt>
      <trkpt lat="45.95735" lon="4.76057">
        <ele>184</ele>
        <time>2016-09-26T08:45:23Z</time>
      </trkpt>
      <trkpt lat="45.95739" lon="4.76063">
        <ele>184</ele>
        <time>2016-09-26T08:45:24Z</time>
      </trkpt>
      <trkpt lat="45.95741" lon="4.7607">
        <ele>185</ele>
        <time>2016-09-26T08:45:25Z</time>
      </trkpt>
      <trkpt lat="45.95744" lon="4.76077">
        <ele>185</ele>
        <time>2016-09-26T08:45:26Z</time>
      </trkpt>
      <trkpt lat="45.95747" lon="4.76085">
        <ele>185</ele>
        <time>2016-09-26T08:45:27Z</time>
      </trkpt>
      <trkpt lat="45.95749" lon="4.76092">
        <ele>185</ele>
        <time>2016-09-26T08:45:28Z</time>
      </trkpt>
      <trkpt lat="45.95751" lon="4.76099">
        <ele>186</ele>
        <time>2016-09-26T08:45:29Z</time>
      </trkpt>
      <trkpt lat="45.95752" lon="4.76107">
        <ele>186</ele>
        <time>2016-09-26T08:45:30Z</time>
      </trkpt>
      <trkpt lat="45.95754" lon="4.76114">
        <ele>186</ele>
        <time>2016-09-26T08:45:31Z</time>
      </trkpt>
      <trkpt lat="45.95755" lon="4.76121">
        <ele>186</ele>
        <time>2016-09-26T08:45:32Z</time>
      </trkpt>
      <trkpt lat="45.95757" lon="4.76129">
        <ele>186</ele>
        <time>2016-09-26T08:45:33Z</time>
      </trkpt>
      <trkpt lat="45.95758" lon="4.76137">
        <ele>186</ele>
        <time>2016-09-26T08:45:34Z</time>
      </trkpt>
      <trkpt lat="45.95758" lon="4.76144">
        <ele>186</ele>
        <time>2016-09-26T08:45:35Z</time>
      </trkpt>
      <trkpt lat="45.95759" lon="4.76153">
        <ele>186</ele>
        <time>2016-09-26T08:45:36Z</time>
      </trkpt>
      <trkpt lat="45.95759" lon="4.76161">
        <ele>185</ele>
        <time>2016-09-26T08:45:37Z</time>
      </trkpt>
      <trkpt lat="45.95759" lon="4.76168">
        <ele>185</ele>
        <time>2016-09-26T08:45:38Z</time>
      </trkpt>
      <trkpt lat="45.95759" lon="4.76177">
        <ele>185</ele>
        <time>2016-09-26T08:45:39Z</time>
      </trkpt>
      <trkpt lat="45.9576" lon="4.76185">
        <ele>186</ele>
        <time>2016-09-26T08:45:40Z</time>
      </trkpt>
      <trkpt lat="45.9576" lon="4.76192">
        <ele>186</ele>
        <time>2016-09-26T08:45:41Z</time>
      </trkpt>
      <trkpt lat="45.9576" lon="4.76201">
        <ele>186</ele>
        <time>2016-09-26T08:45:42Z</time>
      </trkpt>
      <trkpt lat="45.9576" lon="4.76209">
        <ele>186</ele>
        <time>2016-09-26T08:45:43Z</time>
      </trkpt>
      <trkpt lat="45.95759" lon="4.76217">
        <ele>186</ele>
        <time>2016-09-26T08:45:44Z</time>
      </trkpt>
      <trkpt lat="45.95759" lon="4.76225">
        <ele>186</ele>
        <time>2016-09-26T08:45:45Z</time>
      </trkpt>
      <trkpt lat="45.9576" lon="4.76233">
        <ele>186</ele>
        <time>2016-09-26T08:45:46Z</time>
      </trkpt>
      <trkpt lat="45.9576" lon="4.76241">
        <ele>185</ele>
        <time>2016-09-26T08:45:47Z</time>
      </trkpt>
      <trkpt lat="45.9576" lon="4.76249">
        <ele>185</ele>
        <time>2016-09-26T08:45:48Z</time>
      </trkpt>
      <trkpt lat="45.9576" lon="4.76258">
        <ele>185</ele>
        <time>2016-09-26T08:45:49Z</time>
      </trkpt>
      <trkpt lat="45.95761" lon="4.76266">
        <ele>185</ele>
        <time>2016-09-26T08:45:50Z</time>
      </trkpt>
      <trkpt lat="45.95761" lon="4.76273">
        <ele>185</ele>
        <time>2016-09-26T08:45:51Z</time>
      </trkpt>
      <trkpt lat="45.95762" lon="4.76281">
        <ele>186</ele>
        <time>2016-09-26T08:45:52Z</time>
      </trkpt>
      <trkpt lat="45.95762" lon="4.76289">
        <ele>186</ele>
        <time>2016-09-26T08:45:53Z</time>
      </trkpt>
      <trkpt lat="45.95763" lon="4.76297">
        <ele>186</ele>
        <time>2016-09-26T08:45:54Z</time>
      </trkpt>
      <trkpt lat="45.95764" lon="4.76305">
        <ele>185</ele>
        <time>2016-09-26T08:45:55Z</time>
      </trkpt>
      <trkpt lat="45.95764" lon="4.76312">
        <ele>185</ele>
        <time>2016-09-26T08:45:56Z</time>
      </trkpt>
      <trkpt lat="45.95765" lon="4.7632">
        <ele>185</ele>
        <time>2016-09-26T08:45:57Z</time>
      </trkpt>
      <trkpt lat="45.95766" lon="4.76327">
        <ele>185</ele>
        <time>2016-09-26T08:45:58Z</time>
      </trkpt>
      <trkpt lat="45.95766" lon="4.76335">
        <ele>185</ele>
        <time>2016-09-26T08:45:59Z</time>
      </trkpt>
      <trkpt lat="45.95766" lon="4.76343">
        <ele>186</ele>
        <time>2016-09-26T08:46:00Z</time>
      </trkpt>
      <trkpt lat="45.95766" lon="4.76351">
        <ele>186</ele>
        <time>2016-09-26T08:46:01Z</time>
      </trkpt>
      <trkpt lat="45.95767" lon="4.76359">
        <ele>186</ele>
        <time>2016-09-26T08:46:02Z</time>
      </trkpt>
      <trkpt lat="45.95767" lon="4.76367">
        <ele>186</ele>
        <time>2016-09-26T08:46:03Z</time>
      </trkpt>
      <trkpt lat="45.95768" lon="4.76375">
        <ele>186</ele>
        <time>2016-09-26T08:46:04Z</time>
      </trkpt>
      <trkpt lat="45.95769" lon="4.76383">
        <ele>186</ele>
        <time>2016-09-26T08:46:05Z</time>
      </trkpt>
      <trkpt lat="45.9577" lon="4.7639">
        <ele>186</ele>
        <time>2016-09-26T08:46:06Z</time>
      </trkpt>
      <trkpt lat="45.9577" lon="4.76397">
        <ele>186</ele>
        <time>2016-09-26T08:46:07Z</time>
      </trkpt>
      <trkpt lat="45.95771" lon="4.76404">
        <ele>186</ele>
        <time>2016-09-26T08:46:08Z</time>
      </trkpt>
      <trkpt lat="45.95771" lon="4.76412">
        <ele>186</ele>
        <time>2016-09-26T08:46:09Z</time>
      </trkpt>
      <trkpt lat="45.95771" lon="4.76419">
        <ele>186</ele>
        <time>2016-09-26T08:46:10Z</time>
      </trkpt>
      <trkpt lat="45.95772" lon="4.76427">
        <ele>186</ele>
        <time>2016-09-26T08:46:11Z</time>
      </trkpt>
      <trkpt lat="45.95773" lon="4.76435">
        <ele>186</ele>
        <time>2016-09-26T08:46:12Z</time>
      </trkpt>
      <trkpt lat="45.95773" lon="4.76445">
        <ele>186</ele>
        <time>2016-09-26T08:46:13Z</time>
      </trkpt>
      <trkpt lat="45.95774" lon="4.76454">
        <ele>186</ele>
        <time>2016-09-26T08:46:14Z</time>
      </trkpt>
      <trkpt lat="45.95775" lon="4.76462">
        <ele>186</ele>
        <time>2016-09-26T08:46:15Z</time>
      </trkpt>
      <trkpt lat="45.95774" lon="4.76469">
        <ele>186</ele>
        <time>2016-09-26T08:46:16Z</time>
      </trkpt>
      <trkpt lat="45.95775" lon="4.76477">
        <ele>186</ele>
        <time>2016-09-26T08:46:17Z</time>
      </trkpt>
      <trkpt lat="45.95777" lon="4.76485">
        <ele>186</ele>
        <time>2016-09-26T08:46:18Z</time>
      </trkpt>
      <trkpt lat="45.95777" lon="4.76493">
        <ele>186</ele>
        <time>2016-09-26T08:46:19Z</time>
      </trkpt>
      <trkpt lat="45.95778" lon="4.76501">
        <ele>186</ele>
        <time>2016-09-26T08:46:20Z</time>
      </trkpt>
      <trkpt lat="45.95779" lon="4.76509">
        <ele>186</ele>
        <time>2016-09-26T08:46:21Z</time>
      </trkpt>
      <trkpt lat="45.95781" lon="4.76517">
        <ele>186</ele>
        <time>2016-09-26T08:46:22Z</time>
      </trkpt>
      <trkpt lat="45.95783" lon="4.76524">
        <ele>187</ele>
        <time>2016-09-26T08:46:23Z</time>
      </trkpt>
      <trkpt lat="45.95785" lon="4.76531">
        <ele>187</ele>
        <time>2016-09-26T08:46:24Z</time>
      </trkpt>
      <trkpt lat="45.95787" lon="4.76538">
        <ele>187</ele>
        <time>2016-09-26T08:46:25Z</time>
      </trkpt>
      <trkpt lat="45.95788" lon="4.76544">
        <ele>187</ele>
        <time>2016-09-26T08:46:26Z</time>
      </trkpt>
      <trkpt lat="45.95789" lon="4.76551">
        <ele>187</ele>
        <time>2016-09-26T08:46:27Z</time>
      </trkpt>
      <trkpt lat="45.95791" lon="4.76558">
        <ele>187</ele>
        <time>2016-09-26T08:46:28Z</time>
      </trkpt>
      <trkpt lat="45.95793" lon="4.76566">
        <ele>187</ele>
        <time>2016-09-26T08:46:29Z</time>
      </trkpt>
      <trkpt lat="45.95795" lon="4.76573">
        <ele>187</ele>
        <time>2016-09-26T08:46:30Z</time>
      </trkpt>
      <trkpt lat="45.95797" lon="4.7658">
        <ele>187</ele>
        <time>2016-09-26T08:46:31Z</time>
      </trkpt>
      <trkpt lat="45.95799" lon="4.76588">
        <ele>187</ele>
        <time>2016-09-26T08:46:32Z</time>
      </trkpt>
      <trkpt lat="45.95799" lon="4.76597">
        <ele>187</ele>
        <time>2016-09-26T08:46:33Z</time>
      </trkpt>
      <trkpt lat="45.95801" lon="4.76605">
        <ele>187</ele>
        <time>2016-09-26T08:46:34Z</time>
      </trkpt>
      <trkpt lat="45.95801" lon="4.76614">
        <ele>188</ele>
        <time>2016-09-26T08:46:35Z</time>
      </trkpt>
      <trkpt lat="45.95801" lon="4.76623">
        <ele>188</ele>
        <time>2016-09-26T08:46:36Z</time>
      </trkpt>
      <trkpt lat="45.95803" lon="4.76631">
        <ele>188</ele>
        <time>2016-09-26T08:46:37Z</time>
      </trkpt>
      <trkpt lat="45.95804" lon="4.76639">
        <ele>188</ele>
        <time>2016-09-26T08:46:38Z</time>
      </trkpt>
      <trkpt lat="45.95805" lon="4.76648">
        <ele>188</ele>
        <time>2016-09-26T08:46:39Z</time>
      </trkpt>
      <trkpt lat="45.95806" lon="4.76656">
        <ele>188</ele>
        <time>2016-09-26T08:46:40Z</time>
      </trkpt>
      <trkpt lat="45.95807" lon="4.76664">
        <ele>188</ele>
        <time>2016-09-26T08:46:41Z</time>
      </trkpt>
      <trkpt lat="45.95809" lon="4.76672">
        <ele>189</ele>
        <time>2016-09-26T08:46:42Z</time>
      </trkpt>
      <trkpt lat="45.9581" lon="4.7668">
        <ele>189</ele>
        <time>2016-09-26T08:46:43Z</time>
      </trkpt>
      <trkpt lat="45.95812" lon="4.76687">
        <ele>189</ele>
        <time>2016-09-26T08:46:44Z</time>
      </trkpt>
      <trkpt lat="45.95813" lon="4.76695">
        <ele>189</ele>
        <time>2016-09-26T08:46:45Z</time>
      </trkpt>
      <trkpt lat="45.95814" lon="4.76703">
        <ele>189</ele>
        <time>2016-09-26T08:46:46Z</time>
      </trkpt>
      <trkpt lat="45.95816" lon="4.76711">
        <ele>189</ele>
        <time>2016-09-26T08:46:47Z</time>
      </trkpt>
      <trkpt lat="45.95817" lon="4.76718">
        <ele>189</ele>
        <time>2016-09-26T08:46:48Z</time>
      </trkpt>
      <trkpt lat="45.95818" lon="4.76725">
        <ele>190</ele>
        <time>2016-09-26T08:46:49Z</time>
      </trkpt>
      <trkpt lat="45.95818" lon="4.76733">
        <ele>190</ele>
        <time>2016-09-26T08:46:50Z</time>
      </trkpt>
      <trkpt lat="45.95819" lon="4.7674">
        <ele>190</ele>
        <time>2016-09-26T08:46:51Z</time>
      </trkpt>
      <trkpt lat="45.95821" lon="4.76747">
        <ele>190</ele>
        <time>2016-09-26T08:46:52Z</time>
      </trkpt>
      <trkpt lat="45.95822" lon="4.76755">
        <ele>191</ele>
        <time>2016-09-26T08:46:53Z</time>
      </trkpt>
      <trkpt lat="45.95824" lon="4.76762">
        <ele>190</ele>
        <time>2016-09-26T08:46:54Z</time>
      </trkpt>
      <trkpt lat="45.95825" lon="4.76771">
        <ele>190</ele>
        <time>2016-09-26T08:46:55Z</time>
      </trkpt>
      <trkpt lat="45.95826" lon="4.76779">
        <ele>190</ele>
        <time>2016-09-26T08:46:56Z</time>
      </trkpt>
      <trkpt lat="45.95827" lon="4.76788">
        <ele>190</ele>
        <time>2016-09-26T08:46:57Z</time>
      </trkpt>
      <trkpt lat="45.95828" lon="4.76797">
        <ele>190</ele>
        <time>2016-09-26T08:46:58Z</time>
      </trkpt>
      <trkpt lat="45.95826" lon="4.76806">
        <ele>190</ele>
        <time>2016-09-26T08:46:59Z</time>
      </trkpt>
      <trkpt lat="45.95826" lon="4.76815">
        <ele>190</ele>
        <time>2016-09-26T08:47:00Z</time>
      </trkpt>
      <trkpt lat="45.95826" lon="4.76823">
        <ele>190</ele>
        <time>2016-09-26T08:47:01Z</time>
      </trkpt>
      <trkpt lat="45.95825" lon="4.76831">
        <ele>190</ele>
        <time>2016-09-26T08:47:02Z</time>
      </trkpt>
      <trkpt lat="45.95823" lon="4.76838">
        <ele>190</ele>
        <time>2016-09-26T08:47:03Z</time>
      </trkpt>
      <trkpt lat="45.95822" lon="4.76846">
        <ele>190</ele>
        <time>2016-09-26T08:47:04Z</time>
      </trkpt>
      <trkpt lat="45.9582" lon="4.76854">
        <ele>189</ele>
        <time>2016-09-26T08:47:05Z</time>
      </trkpt>
      <trkpt lat="45.95818" lon="4.76862">
        <ele>189</ele>
        <time>2016-09-26T08:47:06Z</time>
      </trkpt>
      <trkpt lat="45.95817" lon="4.7687">
        <ele>189</ele>
        <time>2016-09-26T08:47:07Z</time>
      </trkpt>
      <trkpt lat="45.95815" lon="4.76877">
        <ele>189</ele>
        <time>2016-09-26T08:47:08Z</time>
      </trkpt>
      <trkpt lat="45.95813" lon="4.76885">
        <ele>189</ele>
        <time>2016-09-26T08:47:09Z</time>
      </trkpt>
      <trkpt lat="45.95812" lon="4.76893">
        <ele>189</ele>
        <time>2016-09-26T08:47:10Z</time>
      </trkpt>
      <trkpt lat="45.9581" lon="4.769">
        <ele>189</ele>
        <time>2016-09-26T08:47:11Z</time>
      </trkpt>
      <trkpt lat="45.95808" lon="4.76908">
        <ele>189</ele>
        <time>2016-09-26T08:47:12Z</time>
      </trkpt>
      <trkpt lat="45.95807" lon="4.76916">
        <ele>189</ele>
        <time>2016-09-26T08:47:13Z</time>
      </trkpt>
      <trkpt lat="45.95805" lon="4.76923">
        <ele>189</ele>
        <time>2016-09-26T08:47:14Z</time>
      </trkpt>
      <trkpt lat="45.95803" lon="4.76931">
        <ele>189</ele>
        <time>2016-09-26T08:47:15Z</time>
      </trkpt>
      <trkpt lat="45.95802" lon="4.76939">
        <ele>189</ele>
        <time>2016-09-26T08:47:16Z</time>
      </trkpt>
      <trkpt lat="45.95801" lon="4.76947">
        <ele>189</ele>
        <time>2016-09-26T08:47:17Z</time>
      </trkpt>
      <trkpt lat="45.95799" lon="4.76955">
        <ele>189</ele>
        <time>2016-09-26T08:47:18Z</time>
      </trkpt>
      <trkpt lat="45.95798" lon="4.76962">
        <ele>189</ele>
        <time>2016-09-26T08:47:19Z</time>
      </trkpt>
      <trkpt lat="45.95797" lon="4.7697">
        <ele>189</ele>
        <time>2016-09-26T08:47:20Z</time>
      </trkpt>
      <trkpt lat="45.95797" lon="4.76978">
        <ele>189</ele>
        <time>2016-09-26T08:47:21Z</time>
      </trkpt>
      <trkpt lat="45.95796" lon="4.76986">
        <ele>189</ele>
        <time>2016-09-26T08:47:22Z</time>
      </trkpt>
      <trkpt lat="45.95796" lon="4.76994">
        <ele>189</ele>
        <time>2016-09-26T08:47:23Z</time>
      </trkpt>
      <trkpt lat="45.95797" lon="4.77003">
        <ele>190</ele>
        <time>2016-09-26T08:47:24Z</time>
      </trkpt>
      <trkpt lat="45.95799" lon="4.77012">
        <ele>190</ele>
        <time>2016-09-26T08:47:25Z</time>
      </trkpt>
      <trkpt lat="45.95801" lon="4.7702">
        <ele>190</ele>
        <time>2016-09-26T08:47:26Z</time>
      </trkpt>
      <trkpt lat="45.95804" lon="4.77027">
        <ele>190</ele>
        <time>2016-09-26T08:47:27Z</time>
      </trkpt>
      <trkpt lat="45.95808" lon="4.77035">
        <ele>190</ele>
        <time>2016-09-26T08:47:28Z</time>
      </trkpt>
      <trkpt lat="45.95811" lon="4.77042">
        <ele>190</ele>
        <time>2016-09-26T08:47:29Z</time>
      </trkpt>
      <trkpt lat="45.95814" lon="4.77049">
        <ele>190</ele>
        <time>2016-09-26T08:47:30Z</time>
      </trkpt>
      <trkpt lat="45.95818" lon="4.77055">
        <ele>190</ele>
        <time>2016-09-26T08:47:31Z</time>
      </trkpt>
      <trkpt lat="45.95821" lon="4.77061">
        <ele>190</ele>
        <time>2016-09-26T08:47:32Z</time>
      </trkpt>
      <trkpt lat="45.95824" lon="4.77069">
        <ele>191</ele>
        <time>2016-09-26T08:47:33Z</time>
      </trkpt>
      <trkpt lat="45.95827" lon="4.77076">
        <ele>191</ele>
        <time>2016-09-26T08:47:34Z</time>
      </trkpt>
      <trkpt lat="45.95829" lon="4.77084">
        <ele>192</ele>
        <time>2016-09-26T08:47:35Z</time>
      </trkpt>
      <trkpt lat="45.95832" lon="4.77091">
        <ele>191</ele>
        <time>2016-09-26T08:47:36Z</time>
      </trkpt>
      <trkpt lat="45.95834" lon="4.77099">
        <ele>193</ele>
        <time>2016-09-26T08:47:37Z</time>
      </trkpt>
      <trkpt lat="45.95836" lon="4.77106">
        <ele>193</ele>
        <time>2016-09-26T08:47:38Z</time>
      </trkpt>
      <trkpt lat="45.95838" lon="4.77113">
        <ele>193</ele>
        <time>2016-09-26T08:47:39Z</time>
      </trkpt>
      <trkpt lat="45.9584" lon="4.7712">
        <ele>193</ele>
        <time>2016-09-26T08:47:40Z</time>
      </trkpt>
      <trkpt lat="45.95843" lon="4.77126">
        <ele>193</ele>
        <time>2016-09-26T08:47:41Z</time>
      </trkpt>
      <trkpt lat="45.95846" lon="4.77133">
        <ele>193</ele>
        <time>2016-09-26T08:47:42Z</time>
      </trkpt>
      <trkpt lat="45.95849" lon="4.7714">
        <ele>193</ele>
        <time>2016-09-26T08:47:43Z</time>
      </trkpt>
      <trkpt lat="45.95851" lon="4.77146">
        <ele>192</ele>
        <time>2016-09-26T08:47:44Z</time>
      </trkpt>
      <trkpt lat="45.95851" lon="4.77153">
        <ele>192</ele>
        <time>2016-09-26T08:47:45Z</time>
      </trkpt>
      <trkpt lat="45.95853" lon="4.7716">
        <ele>192</ele>
        <time>2016-09-26T08:47:46Z</time>
      </trkpt>
      <trkpt lat="45.95855" lon="4.77168">
        <ele>192</ele>
        <time>2016-09-26T08:47:47Z</time>
      </trkpt>
      <trkpt lat="45.95856" lon="4.77175">
        <ele>192</ele>
        <time>2016-09-26T08:47:48Z</time>
      </trkpt>
      <trkpt lat="45.95858" lon="4.77182">
        <ele>192</ele>
        <time>2016-09-26T08:47:49Z</time>
      </trkpt>
      <trkpt lat="45.95859" lon="4.7719">
        <ele>192</ele>
        <time>2016-09-26T08:47:50Z</time>
      </trkpt>
      <trkpt lat="45.95861" lon="4.77198">
        <ele>192</ele>
        <time>2016-09-26T08:47:51Z</time>
      </trkpt>
      <trkpt lat="45.95862" lon="4.77205">
        <ele>192</ele>
        <time>2016-09-26T08:47:52Z</time>
      </trkpt>
      <trkpt lat="45.95865" lon="4.77212">
        <ele>193</ele>
        <time>2016-09-26T08:47:53Z</time>
      </trkpt>
      <trkpt lat="45.95867" lon="4.7722">
        <ele>193</ele>
        <time>2016-09-26T08:47:54Z</time>
      </trkpt>
      <trkpt lat="45.95868" lon="4.77227">
        <ele>193</ele>
        <time>2016-09-26T08:47:55Z</time>
      </trkpt>
      <trkpt lat="45.9587" lon="4.77234">
        <ele>193</ele>
        <time>2016-09-26T08:47:56Z</time>
      </trkpt>
      <trkpt lat="45.95871" lon="4.77241">
        <ele>193</ele>
        <time>2016-09-26T08:47:57Z</time>
      </trkpt>
      <trkpt lat="45.95873" lon="4.77249">
        <ele>193</ele>
        <time>2016-09-26T08:47:58Z</time>
      </trkpt>
      <trkpt lat="45.95875" lon="4.77256">
        <ele>193</ele>
        <time>2016-09-26T08:47:59Z</time>
      </trkpt>
      <trkpt lat="45.95876" lon="4.77264">
        <ele>193</ele>
        <time>2016-09-26T08:48:00Z</time>
      </trkpt>
      <trkpt lat="45.95878" lon="4.77271">
        <ele>193</ele>
        <time>2016-09-26T08:48:01Z</time>
      </trkpt>
      <trkpt lat="45.9588" lon="4.77278">
        <ele>193</ele>
        <time>2016-09-26T08:48:02Z</time>
      </trkpt>
      <trkpt lat="45.95882" lon="4.77286">
        <ele>193</ele>
        <time>2016-09-26T08:48:03Z</time>
      </trkpt>
      <trkpt lat="45.95883" lon="4.77293">
        <ele>193</ele>
        <time>2016-09-26T08:48:04Z</time>
      </trkpt>
      <trkpt lat="45.95885" lon="4.773">
        <ele>193</ele>
        <time>2016-09-26T08:48:05Z</time>
      </trkpt>
      <trkpt lat="45.95887" lon="4.77307">
        <ele>193</ele>
        <time>2016-09-26T08:48:06Z</time>
      </trkpt>
      <trkpt lat="45.95889" lon="4.77315">
        <ele>193</ele>
        <time>2016-09-26T08:48:07Z</time>
      </trkpt>
      <trkpt lat="45.95891" lon="4.77322">
        <ele>193</ele>
        <time>2016-09-26T08:48:08Z</time>
      </trkpt>
      <trkpt lat="45.95894" lon="4.7733">
        <ele>193</ele>
        <time>2016-09-26T08:48:09Z</time>
      </trkpt>
      <trkpt lat="45.95896" lon="4.77338">
        <ele>193</ele>
        <time>2016-09-26T08:48:10Z</time>
      </trkpt>
      <trkpt lat="45.95898" lon="4.77344">
        <ele>193</ele>
        <time>2016-09-26T08:48:11Z</time>
      </trkpt>
      <trkpt lat="45.959" lon="4.77351">
        <ele>193</ele>
        <time>2016-09-26T08:48:12Z</time>
      </trkpt>
      <trkpt lat="45.95902" lon="4.77357">
        <ele>193</ele>
        <time>2016-09-26T08:48:13Z</time>
      </trkpt>
      <trkpt lat="45.95904" lon="4.77363">
        <ele>193</ele>
        <time>2016-09-26T08:48:14Z</time>
      </trkpt>
      <trkpt lat="45.95906" lon="4.77369">
        <ele>193</ele>
        <time>2016-09-26T08:48:15Z</time>
      </trkpt>
      <trkpt lat="45.95908" lon="4.77375">
        <ele>193</ele>
        <time>2016-09-26T08:48:16Z</time>
      </trkpt>
      <trkpt lat="45.95911" lon="4.77382">
        <ele>193</ele>
        <time>2016-09-26T08:48:17Z</time>
      </trkpt>
      <trkpt lat="45.95913" lon="4.77388">
        <ele>193</ele>
        <time>2016-09-26T08:48:18Z</time>
      </trkpt>
      <trkpt lat="45.95916" lon="4.77395">
        <ele>193</ele>
        <time>2016-09-26T08:48:19Z</time>
      </trkpt>
      <trkpt lat="45.95918" lon="4.77401">
        <ele>195</ele>
        <time>2016-09-26T08:48:20Z</time>
      </trkpt>
      <trkpt lat="45.9592" lon="4.77407">
        <ele>195</ele>
        <time>2016-09-26T08:48:21Z</time>
      </trkpt>
      <trkpt lat="45.95923" lon="4.77414">
        <ele>195</ele>
        <time>2016-09-26T08:48:22Z</time>
      </trkpt>
      <trkpt lat="45.95925" lon="4.7742">
        <ele>195</ele>
        <time>2016-09-26T08:48:23Z</time>
      </trkpt>
      <trkpt lat="45.95927" lon="4.77426">
        <ele>195</ele>
        <time>2016-09-26T08:48:24Z</time>
      </trkpt>
      <trkpt lat="45.9593" lon="4.77432">
        <ele>195</ele>
        <time>2016-09-26T08:48:25Z</time>
      </trkpt>
      <trkpt lat="45.95932" lon="4.77438">
        <ele>195</ele>
        <time>2016-09-26T08:48:26Z</time>
      </trkpt>
      <trkpt lat="45.95934" lon="4.77444">
        <ele>195</ele>
        <time>2016-09-26T08:48:27Z</time>
      </trkpt>
      <trkpt lat="45.95935" lon="4.77451">
        <ele>195</ele>
        <time>2016-09-26T08:48:28Z</time>
      </trkpt>
      <trkpt lat="45.95937" lon="4.77458">
        <ele>195</ele>
        <time>2016-09-26T08:48:29Z</time>
      </trkpt>
      <trkpt lat="45.95937" lon="4.77465">
        <ele>195</ele>
        <time>2016-09-26T08:48:30Z</time>
      </trkpt>
      <trkpt lat="45.95939" lon="4.77472">
        <ele>195</ele>
        <time>2016-09-26T08:48:31Z</time>
      </trkpt>
      <trkpt lat="45.95942" lon="4.77478">
        <ele>195</ele>
        <time>2016-09-26T08:48:32Z</time>
      </trkpt>
      <trkpt lat="45.95944" lon="4.77484">
        <ele>195</ele>
        <time>2016-09-26T08:48:33Z</time>
      </trkpt>
      <trkpt lat="45.95946" lon="4.77491">
        <ele>195</ele>
        <time>2016-09-26T08:48:34Z</time>
      </trkpt>
      <trkpt lat="45.95949" lon="4.77497">
        <ele>195</ele>
        <time>2016-09-26T08:48:35Z</time>
      </trkpt>
      <trkpt lat="45.95952" lon="4.77503">
        <ele>194</ele>
        <time>2016-09-26T08:48:36Z</time>
      </trkpt>
      <trkpt lat="45.95954" lon="4.7751">
        <ele>195</ele>
        <time>2016-09-26T08:48:37Z</time>
      </trkpt>
      <trkpt lat="45.95956" lon="4.77516">
        <ele>195</ele>
        <time>2016-09-26T08:48:38Z</time>
      </trkpt>
      <trkpt lat="45.9596" lon="4.77521">
        <ele>195</ele>
        <time>2016-09-26T08:48:39Z</time>
      </trkpt>
      <trkpt lat="45.95964" lon="4.77528">
        <ele>195</ele>
        <time>2016-09-26T08:48:40Z</time>
      </trkpt>
      <trkpt lat="45.95969" lon="4.77536">
        <ele>195</ele>
        <time>2016-09-26T08:48:42Z</time>
      </trkpt>
      <trkpt lat="45.9597" lon="4.77541">
        <ele>195</ele>
        <time>2016-09-26T08:48:43Z</time>
      </trkpt>
      <trkpt lat="45.95971" lon="4.77553">
        <ele>195</ele>
        <time>2016-09-26T08:48:45Z</time>
      </trkpt>
      <trkpt lat="45.95973" lon="4.77557">
        <ele>195</ele>
        <time>2016-09-26T08:48:46Z</time>
      </trkpt>
      <trkpt lat="45.95976" lon="4.77563">
        <ele>195</ele>
        <time>2016-09-26T08:48:47Z</time>
      </trkpt>
      <trkpt lat="45.95978" lon="4.77569">
        <ele>195</ele>
        <time>2016-09-26T08:48:48Z</time>
      </trkpt>
      <trkpt lat="45.95982" lon="4.77575">
        <ele>196</ele>
        <time>2016-09-26T08:48:49Z</time>
      </trkpt>
      <trkpt lat="45.95985" lon="4.77581">
        <ele>196</ele>
        <time>2016-09-26T08:48:50Z</time>
      </trkpt>
      <trkpt lat="45.95989" lon="4.77588">
        <ele>196</ele>
        <time>2016-09-26T08:48:51Z</time>
      </trkpt>
      <trkpt lat="45.95993" lon="4.77594">
        <ele>196</ele>
        <time>2016-09-26T08:48:52Z</time>
      </trkpt>
      <trkpt lat="45.95996" lon="4.77599">
        <ele>195</ele>
        <time>2016-09-26T08:48:53Z</time>
      </trkpt>
      <trkpt lat="45.96" lon="4.77603">
        <ele>198</ele>
        <time>2016-09-26T08:48:54Z</time>
      </trkpt>
      <trkpt lat="45.96004" lon="4.77606">
        <ele>198</ele>
        <time>2016-09-26T08:48:55Z</time>
      </trkpt>
      <trkpt lat="45.96008" lon="4.7761">
        <ele>199</ele>
        <time>2016-09-26T08:48:56Z</time>
      </trkpt>
      <trkpt lat="45.96012" lon="4.77614">
        <ele>199</ele>
        <time>2016-09-26T08:48:57Z</time>
      </trkpt>
      <trkpt lat="45.96016" lon="4.77618">
        <ele>199</ele>
        <time>2016-09-26T08:48:58Z</time>
      </trkpt>
      <trkpt lat="45.9602" lon="4.77622">
        <ele>199</ele>
        <time>2016-09-26T08:48:59Z</time>
      </trkpt>
      <trkpt lat="45.96023" lon="4.77627">
        <ele>199</ele>
        <time>2016-09-26T08:49:00Z</time>
      </trkpt>
      <trkpt lat="45.96027" lon="4.77632">
        <ele>199</ele>
        <time>2016-09-26T08:49:01Z</time>
      </trkpt>
      <trkpt lat="45.96032" lon="4.77636">
        <ele>199</ele>
        <time>2016-09-26T08:49:02Z</time>
      </trkpt>
      <trkpt lat="45.96035" lon="4.77639">
        <ele>199</ele>
        <time>2016-09-26T08:49:03Z</time>
      </trkpt>
      <trkpt lat="45.96039" lon="4.77642">
        <ele>199</ele>
        <time>2016-09-26T08:49:04Z</time>
      </trkpt>
      <trkpt lat="45.96046" lon="4.77649">
        <ele>199</ele>
        <time>2016-09-26T08:49:06Z</time>
      </trkpt>
      <trkpt lat="45.96049" lon="4.77654">
        <ele>200</ele>
        <time>2016-09-26T08:49:07Z</time>
      </trkpt>
      <trkpt lat="45.96053" lon="4.77659">
        <ele>200</ele>
        <time>2016-09-26T08:49:08Z</time>
      </trkpt>
      <trkpt lat="45.96056" lon="4.77664">
        <ele>200</ele>
        <time>2016-09-26T08:49:09Z</time>
      </trkpt>
      <trkpt lat="45.96059" lon="4.77669">
        <ele>198</ele>
        <time>2016-09-26T08:49:10Z</time>
      </trkpt>
      <trkpt lat="45.96062" lon="4.77674">
        <ele>198</ele>
        <time>2016-09-26T08:49:11Z</time>
      </trkpt>
      <trkpt lat="45.96066" lon="4.77679">
        <ele>198</ele>
        <time>2016-09-26T08:49:12Z</time>
      </trkpt>
      <trkpt lat="45.96069" lon="4.77685">
        <ele>198</ele>
        <time>2016-09-26T08:49:13Z</time>
      </trkpt>
      <trkpt lat="45.96072" lon="4.7769">
        <ele>198</ele>
        <time>2016-09-26T08:49:14Z</time>
      </trkpt>
      <trkpt lat="45.96075" lon="4.77695">
        <ele>197</ele>
        <time>2016-09-26T08:49:15Z</time>
      </trkpt>
      <trkpt lat="45.96077" lon="4.77702">
        <ele>197</ele>
        <time>2016-09-26T08:49:16Z</time>
      </trkpt>
      <trkpt lat="45.9608" lon="4.77706">
        <ele>197</ele>
        <time>2016-09-26T08:49:17Z</time>
      </trkpt>
      <trkpt lat="45.96083" lon="4.77711">
        <ele>196</ele>
        <time>2016-09-26T08:49:18Z</time>
      </trkpt>
      <trkpt lat="45.96086" lon="4.77715">
        <ele>199</ele>
        <time>2016-09-26T08:49:19Z</time>
      </trkpt>
      <trkpt lat="45.96092" lon="4.77724">
        <ele>199</ele>
        <time>2016-09-26T08:49:21Z</time>
      </trkpt>
      <trkpt lat="45.96095" lon="4.77729">
        <ele>199</ele>
        <time>2016-09-26T08:49:22Z</time>
      </trkpt>
      <trkpt lat="45.961" lon="4.77739">
        <ele>198</ele>
        <time>2016-09-26T08:49:24Z</time>
      </trkpt>
      <trkpt lat="45.96103" lon="4.77744">
        <ele>198</ele>
        <time>2016-09-26T08:49:25Z</time>
      </trkpt>
      <trkpt lat="45.96106" lon="4.77749">
        <ele>198</ele>
        <time>2016-09-26T08:49:26Z</time>
      </trkpt>
      <trkpt lat="45.96109" lon="4.77754">
        <ele>197</ele>
        <time>2016-09-26T08:49:27Z</time>
      </trkpt>
      <trkpt lat="45.96115" lon="4.77763">
        <ele>197</ele>
        <time>2016-09-26T08:49:29Z</time>
      </trkpt>
      <trkpt lat="45.96118" lon="4.77766">
        <ele>197</ele>
        <time>2016-09-26T08:49:30Z</time>
      </trkpt>
      <trkpt lat="45.96122" lon="4.77775">
        <ele>197</ele>
        <time>2016-09-26T08:49:32Z</time>
      </trkpt>
      <trkpt lat="45.96125" lon="4.7778">
        <ele>197</ele>
        <time>2016-09-26T08:49:33Z</time>
      </trkpt>
      <trkpt lat="45.96128" lon="4.77785">
        <ele>197</ele>
        <time>2016-09-26T08:49:34Z</time>
      </trkpt>
      <trkpt lat="45.96131" lon="4.7779">
        <ele>198</ele>
        <time>2016-09-26T08:49:35Z</time>
      </trkpt>
      <trkpt lat="45.96135" lon="4.77796">
        <ele>198</ele>
        <time>2016-09-26T08:49:36Z</time>
      </trkpt>
      <trkpt lat="45.96138" lon="4.77802">
        <ele>198</ele>
        <time>2016-09-26T08:49:37Z</time>
      </trkpt>
      <trkpt lat="45.96141" lon="4.77808">
        <ele>198</ele>
        <time>2016-09-26T08:49:38Z</time>
      </trkpt>
      <trkpt lat="45.96143" lon="4.77813">
        <ele>198</ele>
        <time>2016-09-26T08:49:39Z</time>
      </trkpt>
      <trkpt lat="45.96147" lon="4.7782">
        <ele>198</ele>
        <time>2016-09-26T08:49:40Z</time>
      </trkpt>
      <trkpt lat="45.9615" lon="4.77829">
        <ele>198</ele>
        <time>2016-09-26T08:49:41Z</time>
      </trkpt>
      <trkpt lat="45.96154" lon="4.77835">
        <ele>197</ele>
        <time>2016-09-26T08:49:42Z</time>
      </trkpt>
      <trkpt lat="45.96157" lon="4.77841">
        <ele>197</ele>
        <time>2016-09-26T08:49:43Z</time>
      </trkpt>
      <trkpt lat="45.96161" lon="4.77847">
        <ele>197</ele>
        <time>2016-09-26T08:49:44Z</time>
      </trkpt>
      <trkpt lat="45.96164" lon="4.77852">
        <ele>196</ele>
        <time>2016-09-26T08:49:45Z</time>
      </trkpt>
      <trkpt lat="45.96167" lon="4.77859">
        <ele>201</ele>
        <time>2016-09-26T08:49:46Z</time>
      </trkpt>
      <trkpt lat="45.9617" lon="4.77863">
        <ele>201</ele>
        <time>2016-09-26T08:49:47Z</time>
      </trkpt>
      <trkpt lat="45.96174" lon="4.77868">
        <ele>201</ele>
        <time>2016-09-26T08:49:48Z</time>
      </trkpt>
      <trkpt lat="45.96177" lon="4.77872">
        <ele>201</ele>
        <time>2016-09-26T08:49:49Z</time>
      </trkpt>
      <trkpt lat="45.96182" lon="4.77882">
        <ele>201</ele>
        <time>2016-09-26T08:49:51Z</time>
      </trkpt>
      <trkpt lat="45.96185" lon="4.77887">
        <ele>201</ele>
        <time>2016-09-26T08:49:52Z</time>
      </trkpt>
      <trkpt lat="45.96189" lon="4.77892">
        <ele>201</ele>
        <time>2016-09-26T08:49:53Z</time>
      </trkpt>
      <trkpt lat="45.96192" lon="4.77897">
        <ele>201</ele>
        <time>2016-09-26T08:49:54Z</time>
      </trkpt>
      <trkpt lat="45.96195" lon="4.77902">
        <ele>201</ele>
        <time>2016-09-26T08:49:55Z</time>
      </trkpt>
      <trkpt lat="45.96199" lon="4.77907">
        <ele>201</ele>
        <time>2016-09-26T08:49:56Z</time>
      </trkpt>
      <trkpt lat="45.96203" lon="4.77912">
        <ele>202</ele>
        <time>2016-09-26T08:49:57Z</time>
      </trkpt>
      <trkpt lat="45.96206" lon="4.77918">
        <ele>199</ele>
        <time>2016-09-26T08:49:58Z</time>
      </trkpt>
      <trkpt lat="45.9621" lon="4.77924">
        <ele>199</ele>
        <time>2016-09-26T08:49:59Z</time>
      </trkpt>
      <trkpt lat="45.96213" lon="4.77929">
        <ele>199</ele>
        <time>2016-09-26T08:50:00Z</time>
      </trkpt>
      <trkpt lat="45.96217" lon="4.77934">
        <ele>199</ele>
        <time>2016-09-26T08:50:01Z</time>
      </trkpt>
      <trkpt lat="45.9622" lon="4.77939">
        <ele>199</ele>
        <time>2016-09-26T08:50:02Z</time>
      </trkpt>
      <trkpt lat="45.96224" lon="4.77944">
        <ele>199</ele>
        <time>2016-09-26T08:50:03Z</time>
      </trkpt>
      <trkpt lat="45.96227" lon="4.77948">
        <ele>199</ele>
        <time>2016-09-26T08:50:04Z</time>
      </trkpt>
      <trkpt lat="45.96234" lon="4.77955">
        <ele>199</ele>
        <time>2016-09-26T08:50:06Z</time>
      </trkpt>
      <trkpt lat="45.96238" lon="4.77959">
        <ele>199</ele>
        <time>2016-09-26T08:50:07Z</time>
      </trkpt>
      <trkpt lat="45.96242" lon="4.77963">
        <ele>199</ele>
        <time>2016-09-26T08:50:08Z</time>
      </trkpt>
      <trkpt lat="45.96246" lon="4.77967">
        <ele>199</ele>
        <time>2016-09-26T08:50:09Z</time>
      </trkpt>
      <trkpt lat="45.9625" lon="4.77972">
        <ele>203</ele>
        <time>2016-09-26T08:50:10Z</time>
      </trkpt>
      <trkpt lat="45.96255" lon="4.77976">
        <ele>202</ele>
        <time>2016-09-26T08:50:11Z</time>
      </trkpt>
      <trkpt lat="45.96259" lon="4.77983">
        <ele>202</ele>
        <time>2016-09-26T08:50:12Z</time>
      </trkpt>
      <trkpt lat="45.96264" lon="4.77988">
        <ele>201</ele>
        <time>2016-09-26T08:50:13Z</time>
      </trkpt>
      <trkpt lat="45.96268" lon="4.77993">
        <ele>201</ele>
        <time>2016-09-26T08:50:14Z</time>
      </trkpt>
      <trkpt lat="45.96272" lon="4.77997">
        <ele>202</ele>
        <time>2016-09-26T08:50:15Z</time>
      </trkpt>
      <trkpt lat="45.96277" lon="4.78003">
        <ele>198</ele>
        <time>2016-09-26T08:50:16Z</time>
      </trkpt>
      <trkpt lat="45.96281" lon="4.78008">
        <ele>198</ele>
        <time>2016-09-26T08:50:17Z</time>
      </trkpt>
      <trkpt lat="45.96285" lon="4.78012">
        <ele>198</ele>
        <time>2016-09-26T08:50:18Z</time>
      </trkpt>
      <trkpt lat="45.96289" lon="4.78016">
        <ele>199</ele>
        <time>2016-09-26T08:50:19Z</time>
      </trkpt>
      <trkpt lat="45.96293" lon="4.78021">
        <ele>199</ele>
        <time>2016-09-26T08:50:20Z</time>
      </trkpt>
      <trkpt lat="45.96298" lon="4.78024">
        <ele>199</ele>
        <time>2016-09-26T08:50:21Z</time>
      </trkpt>
      <trkpt lat="45.96302" lon="4.78028">
        <ele>199</ele>
        <time>2016-09-26T08:50:22Z</time>
      </trkpt>
      <trkpt lat="45.96306" lon="4.78033">
        <ele>199</ele>
        <time>2016-09-26T08:50:23Z</time>
      </trkpt>
      <trkpt lat="45.9631" lon="4.78038">
        <ele>199</ele>
        <time>2016-09-26T08:50:24Z</time>
      </trkpt>
      <trkpt lat="45.96314" lon="4.78043">
        <ele>199</ele>
        <time>2016-09-26T08:50:25Z</time>
      </trkpt>
      <trkpt lat="45.96317" lon="4.78047">
        <ele>199</ele>
        <time>2016-09-26T08:50:26Z</time>
      </trkpt>
      <trkpt lat="45.96321" lon="4.78051">
        <ele>199</ele>
        <time>2016-09-26T08:50:27Z</time>
      </trkpt>
      <trkpt lat="45.96325" lon="4.78056">
        <ele>199</ele>
        <time>2016-09-26T08:50:28Z</time>
      </trkpt>
      <trkpt lat="45.96329" lon="4.78062">
        <ele>199</ele>
        <time>2016-09-26T08:50:29Z</time>
      </trkpt>
      <trkpt lat="45.96333" lon="4.78067">
        <ele>198</ele>
        <time>2016-09-26T08:50:30Z</time>
      </trkpt>
      <trkpt lat="45.96338" lon="4.78073">
        <ele>200</ele>
        <time>2016-09-26T08:50:31Z</time>
      </trkpt>
      <trkpt lat="45.96341" lon="4.7808">
        <ele>200</ele>
        <time>2016-09-26T08:50:32Z</time>
      </trkpt>
      <trkpt lat="45.96346" lon="4.78085">
        <ele>199</ele>
        <time>2016-09-26T08:50:33Z</time>
      </trkpt>
      <trkpt lat="45.9635" lon="4.78089">
        <ele>199</ele>
        <time>2016-09-26T08:50:34Z</time>
      </trkpt>
      <trkpt lat="45.96354" lon="4.78092">
        <ele>199</ele>
        <time>2016-09-26T08:50:35Z</time>
      </trkpt>
      <trkpt lat="45.96362" lon="4.78099">
        <ele>199</ele>
        <time>2016-09-26T08:50:37Z</time>
      </trkpt>
      <trkpt lat="45.96365" lon="4.78102">
        <ele>199</ele>
        <time>2016-09-26T08:50:38Z</time>
      </trkpt>
      <trkpt lat="45.96373" lon="4.78108">
        <ele>199</ele>
        <time>2016-09-26T08:50:40Z</time>
      </trkpt>
      <trkpt lat="45.96377" lon="4.78111">
        <ele>199</ele>
        <time>2016-09-26T08:50:41Z</time>
      </trkpt>
      <trkpt lat="45.96381" lon="4.78116">
        <ele>199</ele>
        <time>2016-09-26T08:50:42Z</time>
      </trkpt>
      <trkpt lat="45.96387" lon="4.78121">
        <ele>199</ele>
        <time>2016-09-26T08:50:43Z</time>
      </trkpt>
      <trkpt lat="45.96393" lon="4.78126">
        <ele>199</ele>
        <time>2016-09-26T08:50:44Z</time>
      </trkpt>
      <trkpt lat="45.96397" lon="4.7813">
        <ele>199</ele>
        <time>2016-09-26T08:50:45Z</time>
      </trkpt>
      <trkpt lat="45.96403" lon="4.78137">
        <ele>199</ele>
        <time>2016-09-26T08:50:47Z</time>
      </trkpt>
      <trkpt lat="45.96407" lon="4.78141">
        <ele>199</ele>
        <time>2016-09-26T08:50:48Z</time>
      </trkpt>
      <trkpt lat="45.96412" lon="4.78146">
        <ele>199</ele>
        <time>2016-09-26T08:50:49Z</time>
      </trkpt>
      <trkpt lat="45.96417" lon="4.78151">
        <ele>199</ele>
        <time>2016-09-26T08:50:50Z</time>
      </trkpt>
      <trkpt lat="45.96422" lon="4.78155">
        <ele>201</ele>
        <time>2016-09-26T08:50:51Z</time>
      </trkpt>
      <trkpt lat="45.96427" lon="4.78159">
        <ele>201</ele>
        <time>2016-09-26T08:50:52Z</time>
      </trkpt>
      <trkpt lat="45.96432" lon="4.78163">
        <ele>201</ele>
        <time>2016-09-26T08:50:53Z</time>
      </trkpt>
      <trkpt lat="45.96436" lon="4.78167">
        <ele>199</ele>
        <time>2016-09-26T08:50:54Z</time>
      </trkpt>
      <trkpt lat="45.9644" lon="4.78171">
        <ele>199</ele>
        <time>2016-09-26T08:50:55Z</time>
      </trkpt>
      <trkpt lat="45.96445" lon="4.78175">
        <ele>199</ele>
        <time>2016-09-26T08:50:56Z</time>
      </trkpt>
      <trkpt lat="45.9645" lon="4.78178">
        <ele>199</ele>
        <time>2016-09-26T08:50:57Z</time>
      </trkpt>
      <trkpt lat="45.96455" lon="4.78182">
        <ele>200</ele>
        <time>2016-09-26T08:50:58Z</time>
      </trkpt>
      <trkpt lat="45.96459" lon="4.78186">
        <ele>200</ele>
        <time>2016-09-26T08:50:59Z</time>
      </trkpt>
      <trkpt lat="45.96464" lon="4.7819">
        <ele>200</ele>
        <time>2016-09-26T08:51:00Z</time>
      </trkpt>
      <trkpt lat="45.96468" lon="4.78194">
        <ele>200</ele>
        <time>2016-09-26T08:51:01Z</time>
      </trkpt>
      <trkpt lat="45.96472" lon="4.78199">
        <ele>200</ele>
        <time>2016-09-26T08:51:02Z</time>
      </trkpt>
      <trkpt lat="45.96479" lon="4.78206">
        <ele>200</ele>
        <time>2016-09-26T08:51:04Z</time>
      </trkpt>
      <trkpt lat="45.96484" lon="4.78208">
        <ele>200</ele>
        <time>2016-09-26T08:51:05Z</time>
      </trkpt>
      <trkpt lat="45.96491" lon="4.78212">
        <ele>200</ele>
        <time>2016-09-26T08:51:06Z</time>
      </trkpt>
      <trkpt lat="45.965" lon="4.78217">
        <ele>204</ele>
        <time>2016-09-26T08:51:08Z</time>
      </trkpt>
      <trkpt lat="45.96503" lon="4.78221">
        <ele>204</ele>
        <time>2016-09-26T08:51:09Z</time>
      </trkpt>
      <trkpt lat="45.96508" lon="4.78225">
        <ele>204</ele>
        <time>2016-09-26T08:51:10Z</time>
      </trkpt>
      <trkpt lat="45.96515" lon="4.7823">
        <ele>204</ele>
        <time>2016-09-26T08:51:12Z</time>
      </trkpt>
      <trkpt lat="45.96519" lon="4.78232">
        <ele>204</ele>
        <time>2016-09-26T08:51:13Z</time>
      </trkpt>
      <trkpt lat="45.96524" lon="4.78242">
        <ele>204</ele>
        <time>2016-09-26T08:51:15Z</time>
      </trkpt>
      <trkpt lat="45.96528" lon="4.78246">
        <ele>204</ele>
        <time>2016-09-26T08:51:16Z</time>
      </trkpt>
      <trkpt lat="45.96531" lon="4.78251">
        <ele>200</ele>
        <time>2016-09-26T08:51:18Z</time>
      </trkpt>
      <trkpt lat="45.96532" lon="4.78259">
        <ele>200</ele>
        <time>2016-09-26T08:51:19Z</time>
      </trkpt>
      <trkpt lat="45.96535" lon="4.78264">
        <ele>200</ele>
        <time>2016-09-26T08:51:20Z</time>
      </trkpt>
      <trkpt lat="45.96539" lon="4.78269">
        <ele>200</ele>
        <time>2016-09-26T08:51:21Z</time>
      </trkpt>
      <trkpt lat="45.96544" lon="4.78276">
        <ele>200</ele>
        <time>2016-09-26T08:51:22Z</time>
      </trkpt>
      <trkpt lat="45.96547" lon="4.78283">
        <ele>200</ele>
        <time>2016-09-26T08:51:23Z</time>
      </trkpt>
      <trkpt lat="45.96551" lon="4.78289">
        <ele>200</ele>
        <time>2016-09-26T08:51:24Z</time>
      </trkpt>
      <trkpt lat="45.96555" lon="4.78295">
        <ele>200</ele>
        <time>2016-09-26T08:51:25Z</time>
      </trkpt>
      <trkpt lat="45.96559" lon="4.78302">
        <ele>200</ele>
        <time>2016-09-26T08:51:26Z</time>
      </trkpt>
      <trkpt lat="45.96564" lon="4.78307">
        <ele>200</ele>
        <time>2016-09-26T08:51:27Z</time>
      </trkpt>
      <trkpt lat="45.96568" lon="4.78312">
        <ele>199</ele>
        <time>2016-09-26T08:51:28Z</time>
      </trkpt>
      <trkpt lat="45.96574" lon="4.78317">
        <ele>199</ele>
        <time>2016-09-26T08:51:29Z</time>
      </trkpt>
      <trkpt lat="45.9658" lon="4.78322">
        <ele>199</ele>
        <time>2016-09-26T08:51:30Z</time>
      </trkpt>
      <trkpt lat="45.96584" lon="4.78326">
        <ele>200</ele>
        <time>2016-09-26T08:51:31Z</time>
      </trkpt>
      <trkpt lat="45.96588" lon="4.7833">
        <ele>200</ele>
        <time>2016-09-26T08:51:32Z</time>
      </trkpt>
      <trkpt lat="45.96592" lon="4.78335">
        <ele>199</ele>
        <time>2016-09-26T08:51:33Z</time>
      </trkpt>
      <trkpt lat="45.96596" lon="4.78341">
        <ele>199</ele>
        <time>2016-09-26T08:51:34Z</time>
      </trkpt>
      <trkpt lat="45.966" lon="4.78345">
        <ele>200</ele>
        <time>2016-09-26T08:51:35Z</time>
      </trkpt>
      <trkpt lat="45.96605" lon="4.78349">
        <ele>200</ele>
        <time>2016-09-26T08:51:36Z</time>
      </trkpt>
      <trkpt lat="45.9661" lon="4.78353">
        <ele>200</ele>
        <time>2016-09-26T08:51:37Z</time>
      </trkpt>
      <trkpt lat="45.96614" lon="4.78357">
        <ele>201</ele>
        <time>2016-09-26T08:51:38Z</time>
      </trkpt>
      <trkpt lat="45.96619" lon="4.78361">
        <ele>201</ele>
        <time>2016-09-26T08:51:39Z</time>
      </trkpt>
      <trkpt lat="45.96623" lon="4.78365">
        <ele>201</ele>
        <time>2016-09-26T08:51:40Z</time>
      </trkpt>
      <trkpt lat="45.96627" lon="4.78369">
        <ele>201</ele>
        <time>2016-09-26T08:51:41Z</time>
      </trkpt>
      <trkpt lat="45.96632" lon="4.78372">
        <ele>201</ele>
        <time>2016-09-26T08:51:42Z</time>
      </trkpt>
      <trkpt lat="45.96636" lon="4.78375">
        <ele>201</ele>
        <time>2016-09-26T08:51:43Z</time>
      </trkpt>
      <trkpt lat="45.9664" lon="4.78379">
        <ele>201</ele>
        <time>2016-09-26T08:51:44Z</time>
      </trkpt>
      <trkpt lat="45.96644" lon="4.78383">
        <ele>201</ele>
        <time>2016-09-26T08:51:45Z</time>
      </trkpt>
      <trkpt lat="45.96648" lon="4.78386">
        <ele>201</ele>
        <time>2016-09-26T08:51:46Z</time>
      </trkpt>
      <trkpt lat="45.96652" lon="4.78389">
        <ele>201</ele>
        <time>2016-09-26T08:51:47Z</time>
      </trkpt>
      <trkpt lat="45.96657" lon="4.78393">
        <ele>201</ele>
        <time>2016-09-26T08:51:48Z</time>
      </trkpt>
      <trkpt lat="45.9666" lon="4.78398">
        <ele>201</ele>
        <time>2016-09-26T08:51:49Z</time>
      </trkpt>
      <trkpt lat="45.96668" lon="4.78404">
        <ele>203</ele>
        <time>2016-09-26T08:51:51Z</time>
      </trkpt>
      <trkpt lat="45.96672" lon="4.78408">
        <ele>203</ele>
        <time>2016-09-26T08:51:52Z</time>
      </trkpt>
      <trkpt lat="45.96676" lon="4.78412">
        <ele>203</ele>
        <time>2016-09-26T08:51:53Z</time>
      </trkpt>
      <trkpt lat="45.9668" lon="4.78415">
        <ele>203</ele>
        <time>2016-09-26T08:51:54Z</time>
      </trkpt>
      <trkpt lat="45.96684" lon="4.78419">
        <ele>202</ele>
        <time>2016-09-26T08:51:55Z</time>
      </trkpt>
      <trkpt lat="45.96688" lon="4.78422">
        <ele>202</ele>
        <time>2016-09-26T08:51:56Z</time>
      </trkpt>
      <trkpt lat="45.96695" lon="4.78429">
        <ele>202</ele>
        <time>2016-09-26T08:51:58Z</time>
      </trkpt>
      <trkpt lat="45.96698" lon="4.78433">
        <ele>203</ele>
        <time>2016-09-26T08:51:59Z</time>
      </trkpt>
      <trkpt lat="45.96701" lon="4.78439">
        <ele>203</ele>
        <time>2016-09-26T08:52:00Z</time>
      </trkpt>
      <trkpt lat="45.96704" lon="4.78444">
        <ele>203</ele>
        <time>2016-09-26T08:52:01Z</time>
      </trkpt>
      <trkpt lat="45.96708" lon="4.78449">
        <ele>203</ele>
        <time>2016-09-26T08:52:02Z</time>
      </trkpt>
      <trkpt lat="45.96709" lon="4.78457">
        <ele>203</ele>
        <time>2016-09-26T08:52:03Z</time>
      </trkpt>
      <trkpt lat="45.96713" lon="4.78467">
        <ele>203</ele>
        <time>2016-09-26T08:52:04Z</time>
      </trkpt>
      <trkpt lat="45.96717" lon="4.78472">
        <ele>203</ele>
        <time>2016-09-26T08:52:05Z</time>
      </trkpt>
      <trkpt lat="45.96722" lon="4.78478">
        <ele>203</ele>
        <time>2016-09-26T08:52:06Z</time>
      </trkpt>
      <trkpt lat="45.96728" lon="4.78483">
        <ele>203</ele>
        <time>2016-09-26T08:52:07Z</time>
      </trkpt>
      <trkpt lat="45.96733" lon="4.78487">
        <ele>203</ele>
        <time>2016-09-26T08:52:08Z</time>
      </trkpt>
      <trkpt lat="45.96739" lon="4.7849">
        <ele>203</ele>
        <time>2016-09-26T08:52:09Z</time>
      </trkpt>
      <trkpt lat="45.96745" lon="4.78492">
        <ele>203</ele>
        <time>2016-09-26T08:52:10Z</time>
      </trkpt>
      <trkpt lat="45.96751" lon="4.78494">
        <ele>204</ele>
        <time>2016-09-26T08:52:11Z</time>
      </trkpt>
      <trkpt lat="45.96756" lon="4.78497">
        <ele>204</ele>
        <time>2016-09-26T08:52:12Z</time>
      </trkpt>
      <trkpt lat="45.96761" lon="4.785">
        <ele>203</ele>
        <time>2016-09-26T08:52:13Z</time>
      </trkpt>
      <trkpt lat="45.96766" lon="4.78505">
        <ele>203</ele>
        <time>2016-09-26T08:52:14Z</time>
      </trkpt>
      <trkpt lat="45.9677" lon="4.78509">
        <ele>203</ele>
        <time>2016-09-26T08:52:15Z</time>
      </trkpt>
      <trkpt lat="45.96774" lon="4.78515">
        <ele>203</ele>
        <time>2016-09-26T08:52:16Z</time>
      </trkpt>
      <trkpt lat="45.96777" lon="4.7852">
        <ele>203</ele>
        <time>2016-09-26T08:52:17Z</time>
      </trkpt>
      <trkpt lat="45.96781" lon="4.78526">
        <ele>203</ele>
        <time>2016-09-26T08:52:18Z</time>
      </trkpt>
      <trkpt lat="45.96784" lon="4.78531">
        <ele>203</ele>
        <time>2016-09-26T08:52:19Z</time>
      </trkpt>
      <trkpt lat="45.96787" lon="4.78535">
        <ele>203</ele>
        <time>2016-09-26T08:52:20Z</time>
      </trkpt>
      <trkpt lat="45.9679" lon="4.78541">
        <ele>203</ele>
        <time>2016-09-26T08:52:21Z</time>
      </trkpt>
      <trkpt lat="45.96794" lon="4.78549">
        <ele>203</ele>
        <time>2016-09-26T08:52:22Z</time>
      </trkpt>
      <trkpt lat="45.96798" lon="4.78554">
        <ele>203</ele>
        <time>2016-09-26T08:52:23Z</time>
      </trkpt>
      <trkpt lat="45.96802" lon="4.78559">
        <ele>203</ele>
        <time>2016-09-26T08:52:24Z</time>
      </trkpt>
      <trkpt lat="45.96805" lon="4.78565">
        <ele>203</ele>
        <time>2016-09-26T08:52:25Z</time>
      </trkpt>
      <trkpt lat="45.96809" lon="4.7857">
        <ele>203</ele>
        <time>2016-09-26T08:52:26Z</time>
      </trkpt>
      <trkpt lat="45.96812" lon="4.78575">
        <ele>203</ele>
        <time>2016-09-26T08:52:27Z</time>
      </trkpt>
      <trkpt lat="45.96818" lon="4.78584">
        <ele>202</ele>
        <time>2016-09-26T08:52:29Z</time>
      </trkpt>
      <trkpt lat="45.96821" lon="4.78589">
        <ele>202</ele>
        <time>2016-09-26T08:52:30Z</time>
      </trkpt>
      <trkpt lat="45.96824" lon="4.78595">
        <ele>202</ele>
        <time>2016-09-26T08:52:31Z</time>
      </trkpt>
      <trkpt lat="45.96826" lon="4.78602">
        <ele>202</ele>
        <time>2016-09-26T08:52:32Z</time>
      </trkpt>
      <trkpt lat="45.96829" lon="4.78609">
        <ele>202</ele>
        <time>2016-09-26T08:52:33Z</time>
      </trkpt>
      <trkpt lat="45.96832" lon="4.78617">
        <ele>202</ele>
        <time>2016-09-26T08:52:34Z</time>
      </trkpt>
      <trkpt lat="45.96835" lon="4.78625">
        <ele>203</ele>
        <time>2016-09-26T08:52:35Z</time>
      </trkpt>
      <trkpt lat="45.96837" lon="4.78634">
        <ele>203</ele>
        <time>2016-09-26T08:52:36Z</time>
      </trkpt>
      <trkpt lat="45.96841" lon="4.7864">
        <ele>203</ele>
        <time>2016-09-26T08:52:37Z</time>
      </trkpt>
      <trkpt lat="45.96843" lon="4.78646">
        <ele>203</ele>
        <time>2016-09-26T08:52:38Z</time>
      </trkpt>
      <trkpt lat="45.96845" lon="4.78651">
        <ele>203</ele>
        <time>2016-09-26T08:52:39Z</time>
      </trkpt>
      <trkpt lat="45.96848" lon="4.78657">
        <ele>202</ele>
        <time>2016-09-26T08:52:40Z</time>
      </trkpt>
      <trkpt lat="45.96849" lon="4.78666">
        <ele>202</ele>
        <time>2016-09-26T08:52:42Z</time>
      </trkpt>
      <trkpt lat="45.96852" lon="4.78671">
        <ele>202</ele>
        <time>2016-09-26T08:52:43Z</time>
      </trkpt>
      <trkpt lat="45.96857" lon="4.78677">
        <ele>202</ele>
        <time>2016-09-26T08:52:44Z</time>
      </trkpt>
      <trkpt lat="45.96861" lon="4.78684">
        <ele>202</ele>
        <time>2016-09-26T08:52:45Z</time>
      </trkpt>
      <trkpt lat="45.96865" lon="4.78692">
        <ele>202</ele>
        <time>2016-09-26T08:52:46Z</time>
      </trkpt>
      <trkpt lat="45.96869" lon="4.78699">
        <ele>202</ele>
        <time>2016-09-26T08:52:47Z</time>
      </trkpt>
      <trkpt lat="45.96872" lon="4.78705">
        <ele>202</ele>
        <time>2016-09-26T08:52:48Z</time>
      </trkpt>
      <trkpt lat="45.96876" lon="4.78711">
        <ele>202</ele>
        <time>2016-09-26T08:52:49Z</time>
      </trkpt>
      <trkpt lat="45.96879" lon="4.78718">
        <ele>202</ele>
        <time>2016-09-26T08:52:50Z</time>
      </trkpt>
      <trkpt lat="45.96882" lon="4.78725">
        <ele>202</ele>
        <time>2016-09-26T08:52:51Z</time>
      </trkpt>
      <trkpt lat="45.96887" lon="4.78733">
        <ele>202</ele>
        <time>2016-09-26T08:52:54Z</time>
      </trkpt>
      <trkpt lat="45.96889" lon="4.78736">
        <ele>202</ele>
        <time>2016-09-26T08:52:55Z</time>
      </trkpt>
      <trkpt lat="45.96892" lon="4.78741">
        <ele>202</ele>
        <time>2016-09-26T08:52:56Z</time>
      </trkpt>
      <trkpt lat="45.96895" lon="4.78747">
        <ele>202</ele>
        <time>2016-09-26T08:52:57Z</time>
      </trkpt>
      <trkpt lat="45.96899" lon="4.78754">
        <ele>202</ele>
        <time>2016-09-26T08:52:58Z</time>
      </trkpt>
      <trkpt lat="45.96902" lon="4.78762">
        <ele>202</ele>
        <time>2016-09-26T08:52:59Z</time>
      </trkpt>
      <trkpt lat="45.96906" lon="4.7877">
        <ele>201</ele>
        <time>2016-09-26T08:53:00Z</time>
      </trkpt>
      <trkpt lat="45.96911" lon="4.78779">
        <ele>201</ele>
        <time>2016-09-26T08:53:01Z</time>
      </trkpt>
      <trkpt lat="45.96915" lon="4.78785">
        <ele>201</ele>
        <time>2016-09-26T08:53:02Z</time>
      </trkpt>
      <trkpt lat="45.96918" lon="4.78793">
        <ele>203</ele>
        <time>2016-09-26T08:53:03Z</time>
      </trkpt>
      <trkpt lat="45.9692" lon="4.788">
        <ele>203</ele>
        <time>2016-09-26T08:53:04Z</time>
      </trkpt>
      <trkpt lat="45.96923" lon="4.78806">
        <ele>203</ele>
        <time>2016-09-26T08:53:05Z</time>
      </trkpt>
      <trkpt lat="45.96927" lon="4.78812">
        <ele>202</ele>
        <time>2016-09-26T08:53:06Z</time>
      </trkpt>
      <trkpt lat="45.9693" lon="4.78818">
        <ele>202</ele>
        <time>2016-09-26T08:53:07Z</time>
      </trkpt>
      <trkpt lat="45.96934" lon="4.78822">
        <ele>202</ele>
        <time>2016-09-26T08:53:08Z</time>
      </trkpt>
      <trkpt lat="45.96937" lon="4.78828">
        <ele>202</ele>
        <time>2016-09-26T08:53:09Z</time>
      </trkpt>
      <trkpt lat="45.96941" lon="4.78833">
        <ele>203</ele>
        <time>2016-09-26T08:53:10Z</time>
      </trkpt>
      <trkpt lat="45.96945" lon="4.78838">
        <ele>202</ele>
        <time>2016-09-26T08:53:11Z</time>
      </trkpt>
      <trkpt lat="45.96949" lon="4.78843">
        <ele>202</ele>
        <time>2016-09-26T08:53:12Z</time>
      </trkpt>
      <trkpt lat="45.96953" lon="4.78848">
        <ele>203</ele>
        <time>2016-09-26T08:53:13Z</time>
      </trkpt>
      <trkpt lat="45.96957" lon="4.78853">
        <ele>203</ele>
        <time>2016-09-26T08:53:14Z</time>
      </trkpt>
      <trkpt lat="45.96961" lon="4.78857">
        <ele>203</ele>
        <time>2016-09-26T08:53:15Z</time>
      </trkpt>
      <trkpt lat="45.96964" lon="4.78862">
        <ele>203</ele>
        <time>2016-09-26T08:53:16Z</time>
      </trkpt>
      <trkpt lat="45.96967" lon="4.78867">
        <ele>203</ele>
        <time>2016-09-26T08:53:17Z</time>
      </trkpt>
      <trkpt lat="45.96971" lon="4.78871">
        <ele>203</ele>
        <time>2016-09-26T08:53:18Z</time>
      </trkpt>
      <trkpt lat="45.96974" lon="4.78876">
        <ele>203</ele>
        <time>2016-09-26T08:53:19Z</time>
      </trkpt>
      <trkpt lat="45.96978" lon="4.7888">
        <ele>203</ele>
        <time>2016-09-26T08:53:20Z</time>
      </trkpt>
      <trkpt lat="45.96983" lon="4.78885">
        <ele>203</ele>
        <time>2016-09-26T08:53:21Z</time>
      </trkpt>
      <trkpt lat="45.96986" lon="4.7889">
        <ele>203</ele>
        <time>2016-09-26T08:53:22Z</time>
      </trkpt>
      <trkpt lat="45.96991" lon="4.78896">
        <ele>203</ele>
        <time>2016-09-26T08:53:23Z</time>
      </trkpt>
      <trkpt lat="45.96994" lon="4.78902">
        <ele>204</ele>
        <time>2016-09-26T08:53:24Z</time>
      </trkpt>
      <trkpt lat="45.96997" lon="4.78908">
        <ele>204</ele>
        <time>2016-09-26T08:53:25Z</time>
      </trkpt>
      <trkpt lat="45.97001" lon="4.78912">
        <ele>205</ele>
        <time>2016-09-26T08:53:26Z</time>
      </trkpt>
      <trkpt lat="45.97004" lon="4.78917">
        <ele>205</ele>
        <time>2016-09-26T08:53:27Z</time>
      </trkpt>
      <trkpt lat="45.97008" lon="4.78921">
        <ele>204</ele>
        <time>2016-09-26T08:53:28Z</time>
      </trkpt>
      <trkpt lat="45.97012" lon="4.78926">
        <ele>205</ele>
        <time>2016-09-26T08:53:29Z</time>
      </trkpt>
      <trkpt lat="45.97015" lon="4.7893">
        <ele>205</ele>
        <time>2016-09-26T08:53:30Z</time>
      </trkpt>
      <trkpt lat="45.97018" lon="4.78935">
        <ele>205</ele>
        <time>2016-09-26T08:53:31Z</time>
      </trkpt>
      <trkpt lat="45.97022" lon="4.78939">
        <ele>205</ele>
        <time>2016-09-26T08:53:32Z</time>
      </trkpt>
      <trkpt lat="45.97025" lon="4.78944">
        <ele>205</ele>
        <time>2016-09-26T08:53:33Z</time>
      </trkpt>
      <trkpt lat="45.97028" lon="4.78949">
        <ele>205</ele>
        <time>2016-09-26T08:53:34Z</time>
      </trkpt>
      <trkpt lat="45.97031" lon="4.78954">
        <ele>205</ele>
        <time>2016-09-26T08:53:35Z</time>
      </trkpt>
      <trkpt lat="45.97034" lon="4.78958">
        <ele>205</ele>
        <time>2016-09-26T08:53:36Z</time>
      </trkpt>
      <trkpt lat="45.97037" lon="4.78963">
        <ele>205</ele>
        <time>2016-09-26T08:53:37Z</time>
      </trkpt>
      <trkpt lat="45.9704" lon="4.78969">
        <ele>205</ele>
        <time>2016-09-26T08:53:38Z</time>
      </trkpt>
      <trkpt lat="45.97044" lon="4.78973">
        <ele>205</ele>
        <time>2016-09-26T08:53:39Z</time>
      </trkpt>
      <trkpt lat="45.97047" lon="4.78979">
        <ele>205</ele>
        <time>2016-09-26T08:53:40Z</time>
      </trkpt>
      <trkpt lat="45.97049" lon="4.78985">
        <ele>205</ele>
        <time>2016-09-26T08:53:41Z</time>
      </trkpt>
      <trkpt lat="45.97051" lon="4.7899">
        <ele>205</ele>
        <time>2016-09-26T08:53:42Z</time>
      </trkpt>
      <trkpt lat="45.97053" lon="4.78996">
        <ele>205</ele>
        <time>2016-09-26T08:53:43Z</time>
      </trkpt>
      <trkpt lat="45.97055" lon="4.79002">
        <ele>203</ele>
        <time>2016-09-26T08:53:44Z</time>
      </trkpt>
      <trkpt lat="45.97056" lon="4.79008">
        <ele>203</ele>
        <time>2016-09-26T08:53:45Z</time>
      </trkpt>
      <trkpt lat="45.97059" lon="4.79014">
        <ele>204</ele>
        <time>2016-09-26T08:53:46Z</time>
      </trkpt>
      <trkpt lat="45.97062" lon="4.79021">
        <ele>204</ele>
        <time>2016-09-26T08:53:47Z</time>
      </trkpt>
      <trkpt lat="45.97064" lon="4.79028">
        <ele>203</ele>
        <time>2016-09-26T08:53:48Z</time>
      </trkpt>
      <trkpt lat="45.97067" lon="4.79035">
        <ele>203</ele>
        <time>2016-09-26T08:53:49Z</time>
      </trkpt>
      <trkpt lat="45.97067" lon="4.79042">
        <ele>203</ele>
        <time>2016-09-26T08:53:50Z</time>
      </trkpt>
      <trkpt lat="45.9707" lon="4.7905">
        <ele>203</ele>
        <time>2016-09-26T08:53:51Z</time>
      </trkpt>
      <trkpt lat="45.97071" lon="4.79058">
        <ele>203</ele>
        <time>2016-09-26T08:53:52Z</time>
      </trkpt>
      <trkpt lat="45.97073" lon="4.79065">
        <ele>204</ele>
        <time>2016-09-26T08:53:53Z</time>
      </trkpt>
      <trkpt lat="45.97075" lon="4.79072">
        <ele>204</ele>
        <time>2016-09-26T08:53:54Z</time>
      </trkpt>
      <trkpt lat="45.97075" lon="4.79079">
        <ele>204</ele>
        <time>2016-09-26T08:53:55Z</time>
      </trkpt>
      <trkpt lat="45.97076" lon="4.79087">
        <ele>204</ele>
        <time>2016-09-26T08:53:56Z</time>
      </trkpt>
      <trkpt lat="45.97077" lon="4.79094">
        <ele>204</ele>
        <time>2016-09-26T08:53:57Z</time>
      </trkpt>
      <trkpt lat="45.97083" lon="4.79104">
        <ele>204</ele>
        <time>2016-09-26T08:53:59Z</time>
      </trkpt>
      <trkpt lat="45.97084" lon="4.79111">
        <ele>206</ele>
        <time>2016-09-26T08:54:00Z</time>
      </trkpt>
      <trkpt lat="45.97085" lon="4.79117">
        <ele>206</ele>
        <time>2016-09-26T08:54:01Z</time>
      </trkpt>
      <trkpt lat="45.97087" lon="4.79124">
        <ele>206</ele>
        <time>2016-09-26T08:54:02Z</time>
      </trkpt>
      <trkpt lat="45.9709" lon="4.7913">
        <ele>206</ele>
        <time>2016-09-26T08:54:03Z</time>
      </trkpt>
      <trkpt lat="45.97094" lon="4.79135">
        <ele>206</ele>
        <time>2016-09-26T08:54:04Z</time>
      </trkpt>
      <trkpt lat="45.97098" lon="4.79141">
        <ele>206</ele>
        <time>2016-09-26T08:54:05Z</time>
      </trkpt>
      <trkpt lat="45.97101" lon="4.79146">
        <ele>206</ele>
        <time>2016-09-26T08:54:06Z</time>
      </trkpt>
      <trkpt lat="45.97104" lon="4.79151">
        <ele>206</ele>
        <time>2016-09-26T08:54:07Z</time>
      </trkpt>
      <trkpt lat="45.97107" lon="4.79158">
        <ele>206</ele>
        <time>2016-09-26T08:54:08Z</time>
      </trkpt>
      <trkpt lat="45.9711" lon="4.79164">
        <ele>206</ele>
        <time>2016-09-26T08:54:09Z</time>
      </trkpt>
      <trkpt lat="45.97112" lon="4.79171">
        <ele>205</ele>
        <time>2016-09-26T08:54:10Z</time>
      </trkpt>
      <trkpt lat="45.97115" lon="4.79177">
        <ele>206</ele>
        <time>2016-09-26T08:54:11Z</time>
      </trkpt>
      <trkpt lat="45.97117" lon="4.79184">
        <ele>206</ele>
        <time>2016-09-26T08:54:12Z</time>
      </trkpt>
      <trkpt lat="45.9712" lon="4.7919">
        <ele>206</ele>
        <time>2016-09-26T08:54:13Z</time>
      </trkpt>
      <trkpt lat="45.97122" lon="4.79197">
        <ele>206</ele>
        <time>2016-09-26T08:54:14Z</time>
      </trkpt>
      <trkpt lat="45.97125" lon="4.79204">
        <ele>206</ele>
        <time>2016-09-26T08:54:15Z</time>
      </trkpt>
      <trkpt lat="45.97129" lon="4.7921">
        <ele>206</ele>
        <time>2016-09-26T08:54:16Z</time>
      </trkpt>
      <trkpt lat="45.97133" lon="4.79216">
        <ele>206</ele>
        <time>2016-09-26T08:54:17Z</time>
      </trkpt>
      <trkpt lat="45.97135" lon="4.79222">
        <ele>205</ele>
        <time>2016-09-26T08:54:18Z</time>
      </trkpt>
      <trkpt lat="45.97138" lon="4.79227">
        <ele>205</ele>
        <time>2016-09-26T08:54:19Z</time>
      </trkpt>
      <trkpt lat="45.9714" lon="4.79234">
        <ele>205</ele>
        <time>2016-09-26T08:54:20Z</time>
      </trkpt>
      <trkpt lat="45.97143" lon="4.7924">
        <ele>205</ele>
        <time>2016-09-26T08:54:21Z</time>
      </trkpt>
      <trkpt lat="45.97145" lon="4.79246">
        <ele>205</ele>
        <time>2016-09-26T08:54:22Z</time>
      </trkpt>
      <trkpt lat="45.97147" lon="4.79252">
        <ele>204</ele>
        <time>2016-09-26T08:54:23Z</time>
      </trkpt>
      <trkpt lat="45.97149" lon="4.79258">
        <ele>204</ele>
        <time>2016-09-26T08:54:24Z</time>
      </trkpt>
      <trkpt lat="45.97152" lon="4.79264">
        <ele>204</ele>
        <time>2016-09-26T08:54:25Z</time>
      </trkpt>
      <trkpt lat="45.97154" lon="4.79269">
        <ele>204</ele>
        <time>2016-09-26T08:54:26Z</time>
      </trkpt>
      <trkpt lat="45.97157" lon="4.79275">
        <ele>204</ele>
        <time>2016-09-26T08:54:27Z</time>
      </trkpt>
      <trkpt lat="45.9716" lon="4.79281">
        <ele>204</ele>
        <time>2016-09-26T08:54:28Z</time>
      </trkpt>
      <trkpt lat="45.97163" lon="4.79287">
        <ele>204</ele>
        <time>2016-09-26T08:54:29Z</time>
      </trkpt>
      <trkpt lat="45.97165" lon="4.79293">
        <ele>204</ele>
        <time>2016-09-26T08:54:30Z</time>
      </trkpt>
      <trkpt lat="45.97168" lon="4.793">
        <ele>207</ele>
        <time>2016-09-26T08:54:31Z</time>
      </trkpt>
      <trkpt lat="45.9717" lon="4.79306">
        <ele>207</ele>
        <time>2016-09-26T08:54:32Z</time>
      </trkpt>
      <trkpt lat="45.97172" lon="4.79313">
        <ele>207</ele>
        <time>2016-09-26T08:54:33Z</time>
      </trkpt>
      <trkpt lat="45.97176" lon="4.79319">
        <ele>207</ele>
        <time>2016-09-26T08:54:34Z</time>
      </trkpt>
      <trkpt lat="45.97178" lon="4.79325">
        <ele>206</ele>
        <time>2016-09-26T08:54:35Z</time>
      </trkpt>
      <trkpt lat="45.97181" lon="4.7933">
        <ele>207</ele>
        <time>2016-09-26T08:54:36Z</time>
      </trkpt>
      <trkpt lat="45.97183" lon="4.79336">
        <ele>206</ele>
        <time>2016-09-26T08:54:37Z</time>
      </trkpt>
      <trkpt lat="45.97185" lon="4.79342">
        <ele>207</ele>
        <time>2016-09-26T08:54:38Z</time>
      </trkpt>
      <trkpt lat="45.97187" lon="4.7935">
        <ele>207</ele>
        <time>2016-09-26T08:54:39Z</time>
      </trkpt>
      <trkpt lat="45.97189" lon="4.79358">
        <ele>207</ele>
        <time>2016-09-26T08:54:40Z</time>
      </trkpt>
      <trkpt lat="45.97192" lon="4.79366">
        <ele>207</ele>
        <time>2016-09-26T08:54:41Z</time>
      </trkpt>
      <trkpt lat="45.97195" lon="4.79371">
        <ele>207</ele>
        <time>2016-09-26T08:54:42Z</time>
      </trkpt>
      <trkpt lat="45.97197" lon="4.79378">
        <ele>207</ele>
        <time>2016-09-26T08:54:43Z</time>
      </trkpt>
      <trkpt lat="45.97199" lon="4.79383">
        <ele>207</ele>
        <time>2016-09-26T08:54:44Z</time>
      </trkpt>
      <trkpt lat="45.97204" lon="4.79394">
        <ele>208</ele>
        <time>2016-09-26T08:54:46Z</time>
      </trkpt>
      <trkpt lat="45.97208" lon="4.79399">
        <ele>208</ele>
        <time>2016-09-26T08:54:47Z</time>
      </trkpt>
      <trkpt lat="45.97213" lon="4.79409">
        <ele>208</ele>
        <time>2016-09-26T08:54:49Z</time>
      </trkpt>
      <trkpt lat="45.97215" lon="4.79414">
        <ele>208</ele>
        <time>2016-09-26T08:54:50Z</time>
      </trkpt>
      <trkpt lat="45.97219" lon="4.79423">
        <ele>208</ele>
        <time>2016-09-26T08:54:52Z</time>
      </trkpt>
      <trkpt lat="45.9722" lon="4.79429">
        <ele>208</ele>
        <time>2016-09-26T08:54:53Z</time>
      </trkpt>
      <trkpt lat="45.97222" lon="4.79435">
        <ele>209</ele>
        <time>2016-09-26T08:54:54Z</time>
      </trkpt>
      <trkpt lat="45.97223" lon="4.79442">
        <ele>209</ele>
        <time>2016-09-26T08:54:55Z</time>
      </trkpt>
      <trkpt lat="45.97224" lon="4.79448">
        <ele>209</ele>
        <time>2016-09-26T08:54:56Z</time>
      </trkpt>
      <trkpt lat="45.97226" lon="4.79455">
        <ele>209</ele>
        <time>2016-09-26T08:54:57Z</time>
      </trkpt>
      <trkpt lat="45.97229" lon="4.79461">
        <ele>209</ele>
        <time>2016-09-26T08:54:58Z</time>
      </trkpt>
      <trkpt lat="45.97231" lon="4.79467">
        <ele>209</ele>
        <time>2016-09-26T08:54:59Z</time>
      </trkpt>
      <trkpt lat="45.97233" lon="4.79473">
        <ele>209</ele>
        <time>2016-09-26T08:55:00Z</time>
      </trkpt>
      <trkpt lat="45.97235" lon="4.7948">
        <ele>209</ele>
        <time>2016-09-26T08:55:01Z</time>
      </trkpt>
      <trkpt lat="45.97236" lon="4.79486">
        <ele>210</ele>
        <time>2016-09-26T08:55:02Z</time>
      </trkpt>
      <trkpt lat="45.97238" lon="4.79493">
        <ele>210</ele>
        <time>2016-09-26T08:55:03Z</time>
      </trkpt>
      <trkpt lat="45.9724" lon="4.795">
        <ele>210</ele>
        <time>2016-09-26T08:55:04Z</time>
      </trkpt>
      <trkpt lat="45.97241" lon="4.79506">
        <ele>210</ele>
        <time>2016-09-26T08:55:05Z</time>
      </trkpt>
      <trkpt lat="45.97243" lon="4.79516">
        <ele>210</ele>
        <time>2016-09-26T08:55:06Z</time>
      </trkpt>
      <trkpt lat="45.97245" lon="4.79524">
        <ele>210</ele>
        <time>2016-09-26T08:55:07Z</time>
      </trkpt>
      <trkpt lat="45.97246" lon="4.7953">
        <ele>210</ele>
        <time>2016-09-26T08:55:08Z</time>
      </trkpt>
      <trkpt lat="45.97247" lon="4.79538">
        <ele>210</ele>
        <time>2016-09-26T08:55:09Z</time>
      </trkpt>
      <trkpt lat="45.97247" lon="4.79549">
        <ele>210</ele>
        <time>2016-09-26T08:55:11Z</time>
      </trkpt>
      <trkpt lat="45.9725" lon="4.79554">
        <ele>210</ele>
        <time>2016-09-26T08:55:12Z</time>
      </trkpt>
      <trkpt lat="45.97254" lon="4.7956">
        <ele>213</ele>
        <time>2016-09-26T08:55:13Z</time>
      </trkpt>
      <trkpt lat="45.9725" lon="4.79567">
        <ele>210</ele>
        <time>2016-09-26T08:55:14Z</time>
      </trkpt>
      <trkpt lat="45.97248" lon="4.79578">
        <ele>210</ele>
        <time>2016-09-26T08:55:16Z</time>
      </trkpt>
      <trkpt lat="45.97246" lon="4.79583">
        <ele>210</ele>
        <time>2016-09-26T08:55:17Z</time>
      </trkpt>
      <trkpt lat="45.97246" lon="4.79594">
        <ele>209</ele>
        <time>2016-09-26T08:55:19Z</time>
      </trkpt>
      <trkpt lat="45.97243" lon="4.79597">
        <ele>209</ele>
        <time>2016-09-26T08:55:20Z</time>
      </trkpt>
      <trkpt lat="45.97246" lon="4.79608">
        <ele>209</ele>
        <time>2016-09-26T08:55:22Z</time>
      </trkpt>
      <trkpt lat="45.97248" lon="4.79615">
        <ele>209</ele>
        <time>2016-09-26T08:55:23Z</time>
      </trkpt>
      <trkpt lat="45.97248" lon="4.79621">
        <ele>209</ele>
        <time>2016-09-26T08:55:24Z</time>
      </trkpt>
      <trkpt lat="45.97248" lon="4.79628">
        <ele>209</ele>
        <time>2016-09-26T08:55:25Z</time>
      </trkpt>
      <trkpt lat="45.97246" lon="4.79638">
        <ele>208</ele>
        <time>2016-09-26T08:55:26Z</time>
      </trkpt>
      <trkpt lat="45.97246" lon="4.79646">
        <ele>208</ele>
        <time>2016-09-26T08:55:27Z</time>
      </trkpt>
      <trkpt lat="45.97248" lon="4.79653">
        <ele>208</ele>
        <time>2016-09-26T08:55:28Z</time>
      </trkpt>
      <trkpt lat="45.97247" lon="4.79659">
        <ele>208</ele>
        <time>2016-09-26T08:55:29Z</time>
      </trkpt>
      <trkpt lat="45.9724" lon="4.79664">
        <ele>208</ele>
        <time>2016-09-26T08:55:31Z</time>
      </trkpt>
      <trkpt lat="45.97237" lon="4.79671">
        <ele>208</ele>
        <time>2016-09-26T08:55:32Z</time>
      </trkpt>
      <trkpt lat="45.97235" lon="4.79678">
        <ele>208</ele>
        <time>2016-09-26T08:55:33Z</time>
      </trkpt>
      <trkpt lat="45.97234" lon="4.79686">
        <ele>208</ele>
        <time>2016-09-26T08:55:34Z</time>
      </trkpt>
      <trkpt lat="45.97233" lon="4.79694">
        <ele>208</ele>
        <time>2016-09-26T08:55:35Z</time>
      </trkpt>
      <trkpt lat="45.97232" lon="4.79702">
        <ele>208</ele>
        <time>2016-09-26T08:55:36Z</time>
      </trkpt>
      <trkpt lat="45.97232" lon="4.7971">
        <ele>209</ele>
        <time>2016-09-26T08:55:37Z</time>
      </trkpt>
      <trkpt lat="45.97231" lon="4.79718">
        <ele>209</ele>
        <time>2016-09-26T08:55:38Z</time>
      </trkpt>
      <trkpt lat="45.97231" lon="4.79726">
        <ele>209</ele>
        <time>2016-09-26T08:55:39Z</time>
      </trkpt>
      <trkpt lat="45.97231" lon="4.79733">
        <ele>209</ele>
        <time>2016-09-26T08:55:40Z</time>
      </trkpt>
      <trkpt lat="45.97231" lon="4.7974">
        <ele>209</ele>
        <time>2016-09-26T08:55:41Z</time>
      </trkpt>
      <trkpt lat="45.97231" lon="4.79746">
        <ele>209</ele>
        <time>2016-09-26T08:55:42Z</time>
      </trkpt>
      <trkpt lat="45.97231" lon="4.79753">
        <ele>209</ele>
        <time>2016-09-26T08:55:43Z</time>
      </trkpt>
      <trkpt lat="45.9723" lon="4.79759">
        <ele>209</ele>
        <time>2016-09-26T08:55:44Z</time>
      </trkpt>
      <trkpt lat="45.97229" lon="4.79766">
        <ele>210</ele>
        <time>2016-09-26T08:55:45Z</time>
      </trkpt>
      <trkpt lat="45.97229" lon="4.79773">
        <ele>210</ele>
        <time>2016-09-26T08:55:46Z</time>
      </trkpt>
      <trkpt lat="45.97228" lon="4.7978">
        <ele>210</ele>
        <time>2016-09-26T08:55:47Z</time>
      </trkpt>
      <trkpt lat="45.97227" lon="4.79786">
        <ele>210</ele>
        <time>2016-09-26T08:55:48Z</time>
      </trkpt>
      <trkpt lat="45.97226" lon="4.79793">
        <ele>210</ele>
        <time>2016-09-26T08:55:49Z</time>
      </trkpt>
      <trkpt lat="45.97226" lon="4.798">
        <ele>210</ele>
        <time>2016-09-26T08:55:50Z</time>
      </trkpt>
      <trkpt lat="45.97225" lon="4.79807">
        <ele>210</ele>
        <time>2016-09-26T08:55:51Z</time>
      </trkpt>
      <trkpt lat="45.97225" lon="4.79814">
        <ele>210</ele>
        <time>2016-09-26T08:55:52Z</time>
      </trkpt>
      <trkpt lat="45.97225" lon="4.7982">
        <ele>210</ele>
        <time>2016-09-26T08:55:53Z</time>
      </trkpt>
      <trkpt lat="45.97224" lon="4.79827">
        <ele>210</ele>
        <time>2016-09-26T08:55:54Z</time>
      </trkpt>
      <trkpt lat="45.97224" lon="4.79839">
        <ele>211</ele>
        <time>2016-09-26T08:55:56Z</time>
      </trkpt>
      <trkpt lat="45.97225" lon="4.79846">
        <ele>211</ele>
        <time>2016-09-26T08:55:57Z</time>
      </trkpt>
      <trkpt lat="45.97227" lon="4.79853">
        <ele>211</ele>
        <time>2016-09-26T08:55:58Z</time>
      </trkpt>
      <trkpt lat="45.97229" lon="4.79861">
        <ele>211</ele>
        <time>2016-09-26T08:55:59Z</time>
      </trkpt>
      <trkpt lat="45.97232" lon="4.79868">
        <ele>211</ele>
        <time>2016-09-26T08:56:00Z</time>
      </trkpt>
      <trkpt lat="45.97235" lon="4.79875">
        <ele>211</ele>
        <time>2016-09-26T08:56:01Z</time>
      </trkpt>
      <trkpt lat="45.97239" lon="4.79885">
        <ele>211</ele>
        <time>2016-09-26T08:56:03Z</time>
      </trkpt>
      <trkpt lat="45.97241" lon="4.79889">
        <ele>211</ele>
        <time>2016-09-26T08:56:04Z</time>
      </trkpt>
      <trkpt lat="45.97247" lon="4.79896">
        <ele>211</ele>
        <time>2016-09-26T08:56:07Z</time>
      </trkpt>
      <trkpt lat="45.97248" lon="4.799">
        <ele>211</ele>
        <time>2016-09-26T08:56:08Z</time>
      </trkpt>
      <trkpt lat="45.97249" lon="4.7991">
        <ele>212</ele>
        <time>2016-09-26T08:56:12Z</time>
      </trkpt>
      <trkpt lat="45.97249" lon="4.79915">
        <ele>212</ele>
        <time>2016-09-26T08:56:13Z</time>
      </trkpt>
      <trkpt lat="45.97255" lon="4.7992">
        <ele>212</ele>
        <time>2016-09-26T08:56:15Z</time>
      </trkpt>
      <trkpt lat="45.97258" lon="4.79922">
        <ele>212</ele>
        <time>2016-09-26T08:56:16Z</time>
      </trkpt>
      <trkpt lat="45.97265" lon="4.79927">
        <ele>212</ele>
        <time>2016-09-26T08:56:19Z</time>
      </trkpt>
      <trkpt lat="45.97269" lon="4.79926">
        <ele>212</ele>
        <time>2016-09-26T08:56:20Z</time>
      </trkpt>
      <trkpt lat="45.97277" lon="4.79924">
        <ele>212</ele>
        <time>2016-09-26T08:56:22Z</time>
      </trkpt>
      <trkpt lat="45.97281" lon="4.79921">
        <ele>212</ele>
        <time>2016-09-26T08:56:23Z</time>
      </trkpt>
      <trkpt lat="45.97286" lon="4.79919">
        <ele>212</ele>
        <time>2016-09-26T08:56:24Z</time>
      </trkpt>
      <trkpt lat="45.97291" lon="4.79919">
        <ele>212</ele>
        <time>2016-09-26T08:56:25Z</time>
      </trkpt>
      <trkpt lat="45.97296" lon="4.79914">
        <ele>213</ele>
        <time>2016-09-26T08:56:26Z</time>
      </trkpt>
      <trkpt lat="45.97301" lon="4.79913">
        <ele>213</ele>
        <time>2016-09-26T08:56:27Z</time>
      </trkpt>
      <trkpt lat="45.97305" lon="4.79912">
        <ele>213</ele>
        <time>2016-09-26T08:56:28Z</time>
      </trkpt>
      <trkpt lat="45.97311" lon="4.79914">
        <ele>213</ele>
        <time>2016-09-26T08:56:29Z</time>
      </trkpt>
      <trkpt lat="45.9732" lon="4.79913">
        <ele>213</ele>
        <time>2016-09-26T08:56:31Z</time>
      </trkpt>
      <trkpt lat="45.97324" lon="4.79914">
        <ele>213</ele>
        <time>2016-09-26T08:56:32Z</time>
      </trkpt>
      <trkpt lat="45.97329" lon="4.79916">
        <ele>213</ele>
        <time>2016-09-26T08:56:33Z</time>
      </trkpt>
      <trkpt lat="45.97333" lon="4.79918">
        <ele>213</ele>
        <time>2016-09-26T08:56:34Z</time>
      </trkpt>
      <trkpt lat="45.97341" lon="4.79919">
        <ele>213</ele>
        <time>2016-09-26T08:56:36Z</time>
      </trkpt>
      <trkpt lat="45.97343" lon="4.79921">
        <ele>213</ele>
        <time>2016-09-26T08:56:37Z</time>
      </trkpt>
      <trkpt lat="45.97349" lon="4.79925">
        <ele>213</ele>
        <time>2016-09-26T08:56:39Z</time>
      </trkpt>
      <trkpt lat="45.97347" lon="4.79922">
        <ele>213</ele>
        <time>2016-09-26T08:56:40Z</time>
      </trkpt>
      <trkpt lat="45.97348" lon="4.7992">
        <ele>213</ele>
        <time>2016-09-26T08:56:41Z</time>
      </trkpt>
      <trkpt lat="45.97353" lon="4.79915">
        <ele>215</ele>
        <time>2016-09-26T08:56:43Z</time>
      </trkpt>
      <trkpt lat="45.97356" lon="4.7991">
        <ele>216</ele>
        <time>2016-09-26T08:56:44Z</time>
      </trkpt>
      <trkpt lat="45.97361" lon="4.79904">
        <ele>216</ele>
        <time>2016-09-26T08:56:46Z</time>
      </trkpt>
      <trkpt lat="45.97363" lon="4.79901">
        <ele>216</ele>
        <time>2016-09-26T08:56:47Z</time>
      </trkpt>
      <trkpt lat="45.97369" lon="4.79915">
        <ele>216</ele>
        <time>2016-09-26T08:56:48Z</time>
      </trkpt>
      <trkpt lat="45.97377" lon="4.79924">
        <ele>213</ele>
        <time>2016-09-26T08:56:49Z</time>
      </trkpt>
      <trkpt lat="45.97385" lon="4.79926">
        <ele>213</ele>
        <time>2016-09-26T08:56:50Z</time>
      </trkpt>
      <trkpt lat="45.97389" lon="4.79919">
        <ele>214</ele>
        <time>2016-09-26T08:56:51Z</time>
      </trkpt>
      <trkpt lat="45.97394" lon="4.79916">
        <ele>217</ele>
        <time>2016-09-26T08:56:52Z</time>
      </trkpt>
      <trkpt lat="45.97398" lon="4.79912">
        <ele>217</ele>
        <time>2016-09-26T08:56:53Z</time>
      </trkpt>
      <trkpt lat="45.97404" lon="4.79908">
        <ele>217</ele>
        <time>2016-09-26T08:56:54Z</time>
      </trkpt>
      <trkpt lat="45.97409" lon="4.79905">
        <ele>217</ele>
        <time>2016-09-26T08:56:55Z</time>
      </trkpt>
      <trkpt lat="45.97418" lon="4.79904">
        <ele>218</ele>
        <time>2016-09-26T08:56:57Z</time>
      </trkpt>
      <trkpt lat="45.97422" lon="4.79904">
        <ele>218</ele>
        <time>2016-09-26T08:56:58Z</time>
      </trkpt>
      <trkpt lat="45.97427" lon="4.79904">
        <ele>219</ele>
        <time>2016-09-26T08:56:59Z</time>
      </trkpt>
      <trkpt lat="45.97433" lon="4.79907">
        <ele>219</ele>
        <time>2016-09-26T08:57:00Z</time>
      </trkpt>
      <trkpt lat="45.97438" lon="4.79906">
        <ele>219</ele>
        <time>2016-09-26T08:57:01Z</time>
      </trkpt>
      <trkpt lat="45.97442" lon="4.79905">
        <ele>219</ele>
        <time>2016-09-26T08:57:02Z</time>
      </trkpt>
      <trkpt lat="45.97447" lon="4.79904">
        <ele>220</ele>
        <time>2016-09-26T08:57:03Z</time>
      </trkpt>
      <trkpt lat="45.97451" lon="4.79903">
        <ele>220</ele>
        <time>2016-09-26T08:57:04Z</time>
      </trkpt>
      <trkpt lat="45.97459" lon="4.79903">
        <ele>220</ele>
        <time>2016-09-26T08:57:06Z</time>
      </trkpt>
      <trkpt lat="45.97463" lon="4.79903">
        <ele>220</ele>
        <time>2016-09-26T08:57:07Z</time>
      </trkpt>
      <trkpt lat="45.97471" lon="4.79902">
        <ele>220</ele>
        <time>2016-09-26T08:57:09Z</time>
      </trkpt>
      <trkpt lat="45.97475" lon="4.79901">
        <ele>220</ele>
        <time>2016-09-26T08:57:10Z</time>
      </trkpt>
      <trkpt lat="45.97484" lon="4.79899">
        <ele>220</ele>
        <time>2016-09-26T08:57:12Z</time>
      </trkpt>
      <trkpt lat="45.97488" lon="4.79897">
        <ele>220</ele>
        <time>2016-09-26T08:57:13Z</time>
      </trkpt>
      <trkpt lat="45.97496" lon="4.79894">
        <ele>221</ele>
        <time>2016-09-26T08:57:15Z</time>
      </trkpt>
      <trkpt lat="45.97499" lon="4.79893">
        <ele>221</ele>
        <time>2016-09-26T08:57:16Z</time>
      </trkpt>
      <trkpt lat="45.97507" lon="4.79892">
        <ele>221</ele>
        <time>2016-09-26T08:57:18Z</time>
      </trkpt>
      <trkpt lat="45.97511" lon="4.79892">
        <ele>221</ele>
        <time>2016-09-26T08:57:19Z</time>
      </trkpt>
      <trkpt lat="45.97519" lon="4.79891">
        <ele>221</ele>
        <time>2016-09-26T08:57:21Z</time>
      </trkpt>
      <trkpt lat="45.97522" lon="4.7989">
        <ele>221</ele>
        <time>2016-09-26T08:57:22Z</time>
      </trkpt>
      <trkpt lat="45.97529" lon="4.79889">
        <ele>221</ele>
        <time>2016-09-26T08:57:24Z</time>
      </trkpt>
      <trkpt lat="45.97533" lon="4.79889">
        <ele>221</ele>
        <time>2016-09-26T08:57:25Z</time>
      </trkpt>
      <trkpt lat="45.9754" lon="4.79889">
        <ele>221</ele>
        <time>2016-09-26T08:57:27Z</time>
      </trkpt>
      <trkpt lat="45.97544" lon="4.79886">
        <ele>221</ele>
        <time>2016-09-26T08:57:28Z</time>
      </trkpt>
      <trkpt lat="45.97552" lon="4.79883">
        <ele>221</ele>
        <time>2016-09-26T08:57:30Z</time>
      </trkpt>
      <trkpt lat="45.97557" lon="4.79883">
        <ele>221</ele>
        <time>2016-09-26T08:57:31Z</time>
      </trkpt>
      <trkpt lat="45.97564" lon="4.79883">
        <ele>221</ele>
        <time>2016-09-26T08:57:33Z</time>
      </trkpt>
      <trkpt lat="45.97567" lon="4.79881">
        <ele>221</ele>
        <time>2016-09-26T08:57:34Z</time>
      </trkpt>
      <trkpt lat="45.97575" lon="4.79879">
        <ele>221</ele>
        <time>2016-09-26T08:57:36Z</time>
      </trkpt>
      <trkpt lat="45.97578" lon="4.79877">
        <ele>221</ele>
        <time>2016-09-26T08:57:37Z</time>
      </trkpt>
      <trkpt lat="45.97586" lon="4.79875">
        <ele>221</ele>
        <time>2016-09-26T08:57:39Z</time>
      </trkpt>
      <trkpt lat="45.97589" lon="4.79873">
        <ele>221</ele>
        <time>2016-09-26T08:57:40Z</time>
      </trkpt>
      <trkpt lat="45.97597" lon="4.7987">
        <ele>221</ele>
        <time>2016-09-26T08:57:42Z</time>
      </trkpt>
      <trkpt lat="45.976" lon="4.79871">
        <ele>221</ele>
        <time>2016-09-26T08:57:43Z</time>
      </trkpt>
      <trkpt lat="45.97607" lon="4.79868">
        <ele>221</ele>
        <time>2016-09-26T08:57:45Z</time>
      </trkpt>
      <trkpt lat="45.97611" lon="4.79866">
        <ele>221</ele>
        <time>2016-09-26T08:57:46Z</time>
      </trkpt>
      <trkpt lat="45.97618" lon="4.79864">
        <ele>221</ele>
        <time>2016-09-26T08:57:48Z</time>
      </trkpt>
      <trkpt lat="45.97622" lon="4.79863">
        <ele>221</ele>
        <time>2016-09-26T08:57:49Z</time>
      </trkpt>
      <trkpt lat="45.9763" lon="4.79861">
        <ele>221</ele>
        <time>2016-09-26T08:57:51Z</time>
      </trkpt>
      <trkpt lat="45.97634" lon="4.79859">
        <ele>221</ele>
        <time>2016-09-26T08:57:52Z</time>
      </trkpt>
      <trkpt lat="45.97642" lon="4.79856">
        <ele>221</ele>
        <time>2016-09-26T08:57:54Z</time>
      </trkpt>
      <trkpt lat="45.97646" lon="4.79855">
        <ele>221</ele>
        <time>2016-09-26T08:57:55Z</time>
      </trkpt>
      <trkpt lat="45.9765" lon="4.79854">
        <ele>221</ele>
        <time>2016-09-26T08:57:56Z</time>
      </trkpt>
      <trkpt lat="45.97655" lon="4.79851">
        <ele>221</ele>
        <time>2016-09-26T08:57:57Z</time>
      </trkpt>
      <trkpt lat="45.97663" lon="4.79849">
        <ele>221</ele>
        <time>2016-09-26T08:57:59Z</time>
      </trkpt>
      <trkpt lat="45.97668" lon="4.79847">
        <ele>221</ele>
        <time>2016-09-26T08:58:00Z</time>
      </trkpt>
      <trkpt lat="45.97673" lon="4.79846">
        <ele>221</ele>
        <time>2016-09-26T08:58:01Z</time>
      </trkpt>
      <trkpt lat="45.97679" lon="4.79844">
        <ele>221</ele>
        <time>2016-09-26T08:58:02Z</time>
      </trkpt>
      <trkpt lat="45.97684" lon="4.79843">
        <ele>221</ele>
        <time>2016-09-26T08:58:03Z</time>
      </trkpt>
      <trkpt lat="45.97688" lon="4.79842">
        <ele>220</ele>
        <time>2016-09-26T08:58:04Z</time>
      </trkpt>
      <trkpt lat="45.97697" lon="4.7984">
        <ele>220</ele>
        <time>2016-09-26T08:58:06Z</time>
      </trkpt>
      <trkpt lat="45.97701" lon="4.7984">
        <ele>220</ele>
        <time>2016-09-26T08:58:07Z</time>
      </trkpt>
      <trkpt lat="45.9771" lon="4.79838">
        <ele>220</ele>
        <time>2016-09-26T08:58:09Z</time>
      </trkpt>
      <trkpt lat="45.97714" lon="4.79837">
        <ele>220</ele>
        <time>2016-09-26T08:58:10Z</time>
      </trkpt>
      <trkpt lat="45.97719" lon="4.79836">
        <ele>220</ele>
        <time>2016-09-26T08:58:11Z</time>
      </trkpt>
      <trkpt lat="45.97724" lon="4.79835">
        <ele>220</ele>
        <time>2016-09-26T08:58:12Z</time>
      </trkpt>
      <trkpt lat="45.97728" lon="4.79834">
        <ele>221</ele>
        <time>2016-09-26T08:58:13Z</time>
      </trkpt>
      <trkpt lat="45.97733" lon="4.79833">
        <ele>223</ele>
        <time>2016-09-26T08:58:14Z</time>
      </trkpt>
      <trkpt lat="45.97738" lon="4.79831">
        <ele>223</ele>
        <time>2016-09-26T08:58:15Z</time>
      </trkpt>
      <trkpt lat="45.97744" lon="4.79829">
        <ele>222</ele>
        <time>2016-09-26T08:58:16Z</time>
      </trkpt>
      <trkpt lat="45.97749" lon="4.79829">
        <ele>222</ele>
        <time>2016-09-26T08:58:17Z</time>
      </trkpt>
      <trkpt lat="45.97754" lon="4.79828">
        <ele>222</ele>
        <time>2016-09-26T08:58:18Z</time>
      </trkpt>
      <trkpt lat="45.97759" lon="4.79827">
        <ele>222</ele>
        <time>2016-09-26T08:58:19Z</time>
      </trkpt>
      <trkpt lat="45.97764" lon="4.79827">
        <ele>223</ele>
        <time>2016-09-26T08:58:20Z</time>
      </trkpt>
      <trkpt lat="45.97769" lon="4.79826">
        <ele>223</ele>
        <time>2016-09-26T08:58:21Z</time>
      </trkpt>
      <trkpt lat="45.97774" lon="4.79825">
        <ele>223</ele>
        <time>2016-09-26T08:58:22Z</time>
      </trkpt>
      <trkpt lat="45.9778" lon="4.79824">
        <ele>223</ele>
        <time>2016-09-26T08:58:23Z</time>
      </trkpt>
      <trkpt lat="45.97785" lon="4.79823">
        <ele>223</ele>
        <time>2016-09-26T08:58:24Z</time>
      </trkpt>
      <trkpt lat="45.9779" lon="4.79822">
        <ele>223</ele>
        <time>2016-09-26T08:58:25Z</time>
      </trkpt>
      <trkpt lat="45.97795" lon="4.79821">
        <ele>223</ele>
        <time>2016-09-26T08:58:26Z</time>
      </trkpt>
      <trkpt lat="45.97802" lon="4.7982">
        <ele>223</ele>
        <time>2016-09-26T08:58:28Z</time>
      </trkpt>
      <trkpt lat="45.97806" lon="4.79821">
        <ele>223</ele>
        <time>2016-09-26T08:58:29Z</time>
      </trkpt>
      <trkpt lat="45.97814" lon="4.79822">
        <ele>223</ele>
        <time>2016-09-26T08:58:31Z</time>
      </trkpt>
      <trkpt lat="45.97818" lon="4.79821">
        <ele>223</ele>
        <time>2016-09-26T08:58:32Z</time>
      </trkpt>
      <trkpt lat="45.97823" lon="4.7982">
        <ele>223</ele>
        <time>2016-09-26T08:58:33Z</time>
      </trkpt>
      <trkpt lat="45.97828" lon="4.79818">
        <ele>223</ele>
        <time>2016-09-26T08:58:34Z</time>
      </trkpt>
      <trkpt lat="45.97835" lon="4.79819">
        <ele>224</ele>
        <time>2016-09-26T08:58:36Z</time>
      </trkpt>
      <trkpt lat="45.97838" lon="4.79818">
        <ele>224</ele>
        <time>2016-09-26T08:58:37Z</time>
      </trkpt>
      <trkpt lat="45.97844" lon="4.79816">
        <ele>224</ele>
        <time>2016-09-26T08:58:38Z</time>
      </trkpt>
      <trkpt lat="45.97849" lon="4.79813">
        <ele>224</ele>
        <time>2016-09-26T08:58:39Z</time>
      </trkpt>
      <trkpt lat="45.97854" lon="4.7981">
        <ele>224</ele>
        <time>2016-09-26T08:58:40Z</time>
      </trkpt>
      <trkpt lat="45.9786" lon="4.79808">
        <ele>224</ele>
        <time>2016-09-26T08:58:41Z</time>
      </trkpt>
      <trkpt lat="45.97866" lon="4.79807">
        <ele>224</ele>
        <time>2016-09-26T08:58:42Z</time>
      </trkpt>
      <trkpt lat="45.97872" lon="4.79808">
        <ele>224</ele>
        <time>2016-09-26T08:58:43Z</time>
      </trkpt>
      <trkpt lat="45.97878" lon="4.79806">
        <ele>224</ele>
        <time>2016-09-26T08:58:44Z</time>
      </trkpt>
      <trkpt lat="45.97885" lon="4.79803">
        <ele>224</ele>
        <time>2016-09-26T08:58:45Z</time>
      </trkpt>
      <trkpt lat="45.97891" lon="4.798">
        <ele>224</ele>
        <time>2016-09-26T08:58:46Z</time>
      </trkpt>
      <trkpt lat="45.97894" lon="4.79802">
        <ele>224</ele>
        <time>2016-09-26T08:58:47Z</time>
      </trkpt>
      <trkpt lat="45.97899" lon="4.79801">
        <ele>224</ele>
        <time>2016-09-26T08:58:48Z</time>
      </trkpt>
      <trkpt lat="45.97904" lon="4.79799">
        <ele>224</ele>
        <time>2016-09-26T08:58:49Z</time>
      </trkpt>
      <trkpt lat="45.9791" lon="4.79798">
        <ele>224</ele>
        <time>2016-09-26T08:58:50Z</time>
      </trkpt>
      <trkpt lat="45.97915" lon="4.79798">
        <ele>224</ele>
        <time>2016-09-26T08:58:51Z</time>
      </trkpt>
      <trkpt lat="45.9792" lon="4.79798">
        <ele>224</ele>
        <time>2016-09-26T08:58:52Z</time>
      </trkpt>
      <trkpt lat="45.97926" lon="4.79798">
        <ele>224</ele>
        <time>2016-09-26T08:58:53Z</time>
      </trkpt>
      <trkpt lat="45.97932" lon="4.79797">
        <ele>224</ele>
        <time>2016-09-26T08:58:54Z</time>
      </trkpt>
      <trkpt lat="45.97937" lon="4.79796">
        <ele>224</ele>
        <time>2016-09-26T08:58:55Z</time>
      </trkpt>
      <trkpt lat="45.97942" lon="4.79796">
        <ele>224</ele>
        <time>2016-09-26T08:58:56Z</time>
      </trkpt>
      <trkpt lat="45.97948" lon="4.79795">
        <ele>224</ele>
        <time>2016-09-26T08:58:57Z</time>
      </trkpt>
      <trkpt lat="45.97953" lon="4.79794">
        <ele>224</ele>
        <time>2016-09-26T08:58:58Z</time>
      </trkpt>
      <trkpt lat="45.97959" lon="4.79794">
        <ele>224</ele>
        <time>2016-09-26T08:58:59Z</time>
      </trkpt>
      <trkpt lat="45.97964" lon="4.7979">
        <ele>224</ele>
        <time>2016-09-26T08:59:00Z</time>
      </trkpt>
      <trkpt lat="45.97969" lon="4.79788">
        <ele>224</ele>
        <time>2016-09-26T08:59:01Z</time>
      </trkpt>
      <trkpt lat="45.97973" lon="4.79787">
        <ele>224</ele>
        <time>2016-09-26T08:59:02Z</time>
      </trkpt>
      <trkpt lat="45.97978" lon="4.79789">
        <ele>224</ele>
        <time>2016-09-26T08:59:03Z</time>
      </trkpt>
      <trkpt lat="45.97983" lon="4.79789">
        <ele>224</ele>
        <time>2016-09-26T08:59:04Z</time>
      </trkpt>
      <trkpt lat="45.97989" lon="4.7979">
        <ele>224</ele>
        <time>2016-09-26T08:59:05Z</time>
      </trkpt>
      <trkpt lat="45.97994" lon="4.79791">
        <ele>224</ele>
        <time>2016-09-26T08:59:06Z</time>
      </trkpt>
      <trkpt lat="45.97999" lon="4.79793">
        <ele>224</ele>
        <time>2016-09-26T08:59:07Z</time>
      </trkpt>
      <trkpt lat="45.98004" lon="4.79793">
        <ele>223</ele>
        <time>2016-09-26T08:59:08Z</time>
      </trkpt>
      <trkpt lat="45.9801" lon="4.79791">
        <ele>223</ele>
        <time>2016-09-26T08:59:09Z</time>
      </trkpt>
      <trkpt lat="45.98018" lon="4.79791">
        <ele>223</ele>
        <time>2016-09-26T08:59:11Z</time>
      </trkpt>
      <trkpt lat="45.98022" lon="4.7979">
        <ele>223</ele>
        <time>2016-09-26T08:59:12Z</time>
      </trkpt>
      <trkpt lat="45.98027" lon="4.79789">
        <ele>223</ele>
        <time>2016-09-26T08:59:13Z</time>
      </trkpt>
      <trkpt lat="45.98032" lon="4.79788">
        <ele>223</ele>
        <time>2016-09-26T08:59:14Z</time>
      </trkpt>
      <trkpt lat="45.98037" lon="4.79788">
        <ele>223</ele>
        <time>2016-09-26T08:59:15Z</time>
      </trkpt>
      <trkpt lat="45.98041" lon="4.79787">
        <ele>223</ele>
        <time>2016-09-26T08:59:16Z</time>
      </trkpt>
      <trkpt lat="45.98046" lon="4.79786">
        <ele>223</ele>
        <time>2016-09-26T08:59:17Z</time>
      </trkpt>
      <trkpt lat="45.98051" lon="4.79784">
        <ele>223</ele>
        <time>2016-09-26T08:59:18Z</time>
      </trkpt>
      <trkpt lat="45.98056" lon="4.79784">
        <ele>223</ele>
        <time>2016-09-26T08:59:19Z</time>
      </trkpt>
      <trkpt lat="45.9806" lon="4.79783">
        <ele>223</ele>
        <time>2016-09-26T08:59:20Z</time>
      </trkpt>
      <trkpt lat="45.98065" lon="4.79782">
        <ele>223</ele>
        <time>2016-09-26T08:59:21Z</time>
      </trkpt>
      <trkpt lat="45.9807" lon="4.79781">
        <ele>223</ele>
        <time>2016-09-26T08:59:22Z</time>
      </trkpt>
      <trkpt lat="45.98074" lon="4.79781">
        <ele>223</ele>
        <time>2016-09-26T08:59:23Z</time>
      </trkpt>
      <trkpt lat="45.98079" lon="4.7978">
        <ele>223</ele>
        <time>2016-09-26T08:59:24Z</time>
      </trkpt>
      <trkpt lat="45.98083" lon="4.79779">
        <ele>223</ele>
        <time>2016-09-26T08:59:25Z</time>
      </trkpt>
      <trkpt lat="45.98088" lon="4.79778">
        <ele>223</ele>
        <time>2016-09-26T08:59:26Z</time>
      </trkpt>
      <trkpt lat="45.98093" lon="4.79777">
        <ele>223</ele>
        <time>2016-09-26T08:59:27Z</time>
      </trkpt>
      <trkpt lat="45.98098" lon="4.79775">
        <ele>223</ele>
        <time>2016-09-26T08:59:28Z</time>
      </trkpt>
      <trkpt lat="45.98103" lon="4.79773">
        <ele>224</ele>
        <time>2016-09-26T08:59:29Z</time>
      </trkpt>
      <trkpt lat="45.98107" lon="4.79772">
        <ele>224</ele>
        <time>2016-09-26T08:59:30Z</time>
      </trkpt>
      <trkpt lat="45.98112" lon="4.79771">
        <ele>224</ele>
        <time>2016-09-26T08:59:31Z</time>
      </trkpt>
      <trkpt lat="45.98116" lon="4.7977">
        <ele>224</ele>
        <time>2016-09-26T08:59:32Z</time>
      </trkpt>
      <trkpt lat="45.98121" lon="4.79769">
        <ele>224</ele>
        <time>2016-09-26T08:59:33Z</time>
      </trkpt>
      <trkpt lat="45.98126" lon="4.79768">
        <ele>224</ele>
        <time>2016-09-26T08:59:34Z</time>
      </trkpt>
      <trkpt lat="45.98135" lon="4.79766">
        <ele>224</ele>
        <time>2016-09-26T08:59:36Z</time>
      </trkpt>
      <trkpt lat="45.98139" lon="4.79766">
        <ele>224</ele>
        <time>2016-09-26T08:59:37Z</time>
      </trkpt>
      <trkpt lat="45.98144" lon="4.79766">
        <ele>224</ele>
        <time>2016-09-26T08:59:38Z</time>
      </trkpt>
      <trkpt lat="45.98149" lon="4.79765">
        <ele>225</ele>
        <time>2016-09-26T08:59:39Z</time>
      </trkpt>
      <trkpt lat="45.98153" lon="4.79765">
        <ele>225</ele>
        <time>2016-09-26T08:59:40Z</time>
      </trkpt>
      <trkpt lat="45.98158" lon="4.79766">
        <ele>225</ele>
        <time>2016-09-26T08:59:41Z</time>
      </trkpt>
      <trkpt lat="45.98166" lon="4.79771">
        <ele>225</ele>
        <time>2016-09-26T08:59:43Z</time>
      </trkpt>
      <trkpt lat="45.9817" lon="4.79774">
        <ele>226</ele>
        <time>2016-09-26T08:59:44Z</time>
      </trkpt>
      <trkpt lat="45.98174" lon="4.79784">
        <ele>226</ele>
        <time>2016-09-26T08:59:46Z</time>
      </trkpt>
      <trkpt lat="45.98177" lon="4.79789">
        <ele>226</ele>
        <time>2016-09-26T08:59:47Z</time>
      </trkpt>
      <trkpt lat="45.98179" lon="4.79795">
        <ele>226</ele>
        <time>2016-09-26T08:59:48Z</time>
      </trkpt>
      <trkpt lat="45.98181" lon="4.79802">
        <ele>226</ele>
        <time>2016-09-26T08:59:49Z</time>
      </trkpt>
      <trkpt lat="45.98183" lon="4.79808">
        <ele>225</ele>
        <time>2016-09-26T08:59:50Z</time>
      </trkpt>
      <trkpt lat="45.98185" lon="4.79815">
        <ele>225</ele>
        <time>2016-09-26T08:59:51Z</time>
      </trkpt>
      <trkpt lat="45.98188" lon="4.79822">
        <ele>225</ele>
        <time>2016-09-26T08:59:52Z</time>
      </trkpt>
      <trkpt lat="45.9819" lon="4.79829">
        <ele>225</ele>
        <time>2016-09-26T08:59:53Z</time>
      </trkpt>
      <trkpt lat="45.98193" lon="4.79836">
        <ele>225</ele>
        <time>2016-09-26T08:59:54Z</time>
      </trkpt>
      <trkpt lat="45.98195" lon="4.79844">
        <ele>225</ele>
        <time>2016-09-26T08:59:55Z</time>
      </trkpt>
      <trkpt lat="45.98198" lon="4.79852">
        <ele>225</ele>
        <time>2016-09-26T08:59:56Z</time>
      </trkpt>
      <trkpt lat="45.982" lon="4.7986">
        <ele>225</ele>
        <time>2016-09-26T08:59:57Z</time>
      </trkpt>
      <trkpt lat="45.98203" lon="4.79868">
        <ele>225</ele>
        <time>2016-09-26T08:59:58Z</time>
      </trkpt>
      <trkpt lat="45.98206" lon="4.79876">
        <ele>225</ele>
        <time>2016-09-26T08:59:59Z</time>
      </trkpt>
      <trkpt lat="45.98208" lon="4.79884">
        <ele>225</ele>
        <time>2016-09-26T09:00:00Z</time>
      </trkpt>
      <trkpt lat="45.98211" lon="4.79891">
        <ele>225</ele>
        <time>2016-09-26T09:00:01Z</time>
      </trkpt>
      <trkpt lat="45.98214" lon="4.79899">
        <ele>225</ele>
        <time>2016-09-26T09:00:02Z</time>
      </trkpt>
      <trkpt lat="45.98216" lon="4.79906">
        <ele>225</ele>
        <time>2016-09-26T09:00:03Z</time>
      </trkpt>
      <trkpt lat="45.98219" lon="4.79912">
        <ele>225</ele>
        <time>2016-09-26T09:00:04Z</time>
      </trkpt>
      <trkpt lat="45.98221" lon="4.79918">
        <ele>225</ele>
        <time>2016-09-26T09:00:05Z</time>
      </trkpt>
      <trkpt lat="45.98224" lon="4.79925">
        <ele>225</ele>
        <time>2016-09-26T09:00:06Z</time>
      </trkpt>
      <trkpt lat="45.98226" lon="4.79931">
        <ele>225</ele>
        <time>2016-09-26T09:00:07Z</time>
      </trkpt>
      <trkpt lat="45.98229" lon="4.79938">
        <ele>225</ele>
        <time>2016-09-26T09:00:08Z</time>
      </trkpt>
      <trkpt lat="45.98231" lon="4.79946">
        <ele>225</ele>
        <time>2016-09-26T09:00:09Z</time>
      </trkpt>
      <trkpt lat="45.98234" lon="4.79953">
        <ele>225</ele>
        <time>2016-09-26T09:00:10Z</time>
      </trkpt>
      <trkpt lat="45.98236" lon="4.79961">
        <ele>225</ele>
        <time>2016-09-26T09:00:11Z</time>
      </trkpt>
      <trkpt lat="45.98239" lon="4.79968">
        <ele>225</ele>
        <time>2016-09-26T09:00:12Z</time>
      </trkpt>
      <trkpt lat="45.98242" lon="4.79975">
        <ele>225</ele>
        <time>2016-09-26T09:00:13Z</time>
      </trkpt>
      <trkpt lat="45.98245" lon="4.79983">
        <ele>225</ele>
        <time>2016-09-26T09:00:14Z</time>
      </trkpt>
      <trkpt lat="45.98248" lon="4.79991">
        <ele>226</ele>
        <time>2016-09-26T09:00:15Z</time>
      </trkpt>
      <trkpt lat="45.9825" lon="4.8">
        <ele>226</ele>
        <time>2016-09-26T09:00:16Z</time>
      </trkpt>
      <trkpt lat="45.98253" lon="4.80008">
        <ele>227</ele>
        <time>2016-09-26T09:00:17Z</time>
      </trkpt>
      <trkpt lat="45.98255" lon="4.80015">
        <ele>228</ele>
        <time>2016-09-26T09:00:18Z</time>
      </trkpt>
      <trkpt lat="45.98258" lon="4.80022">
        <ele>228</ele>
        <time>2016-09-26T09:00:19Z</time>
      </trkpt>
      <trkpt lat="45.98261" lon="4.80029">
        <ele>228</ele>
        <time>2016-09-26T09:00:20Z</time>
      </trkpt>
      <trkpt lat="45.98264" lon="4.80036">
        <ele>228</ele>
        <time>2016-09-26T09:00:21Z</time>
      </trkpt>
      <trkpt lat="45.98267" lon="4.80044">
        <ele>229</ele>
        <time>2016-09-26T09:00:22Z</time>
      </trkpt>
      <trkpt lat="45.98269" lon="4.80051">
        <ele>229</ele>
        <time>2016-09-26T09:00:23Z</time>
      </trkpt>
      <trkpt lat="45.98271" lon="4.80057">
        <ele>229</ele>
        <time>2016-09-26T09:00:24Z</time>
      </trkpt>
      <trkpt lat="45.98274" lon="4.80065">
        <ele>228</ele>
        <time>2016-09-26T09:00:25Z</time>
      </trkpt>
      <trkpt lat="45.98277" lon="4.80071">
        <ele>229</ele>
        <time>2016-09-26T09:00:26Z</time>
      </trkpt>
      <trkpt lat="45.98279" lon="4.80078">
        <ele>229</ele>
        <time>2016-09-26T09:00:27Z</time>
      </trkpt>
      <trkpt lat="45.98281" lon="4.80085">
        <ele>228</ele>
        <time>2016-09-26T09:00:28Z</time>
      </trkpt>
      <trkpt lat="45.98284" lon="4.80091">
        <ele>228</ele>
        <time>2016-09-26T09:00:29Z</time>
      </trkpt>
      <trkpt lat="45.98286" lon="4.80099">
        <ele>228</ele>
        <time>2016-09-26T09:00:30Z</time>
      </trkpt>
      <trkpt lat="45.98287" lon="4.80106">
        <ele>228</ele>
        <time>2016-09-26T09:00:31Z</time>
      </trkpt>
      <trkpt lat="45.98289" lon="4.80112">
        <ele>228</ele>
        <time>2016-09-26T09:00:32Z</time>
      </trkpt>
      <trkpt lat="45.98291" lon="4.80119">
        <ele>228</ele>
        <time>2016-09-26T09:00:33Z</time>
      </trkpt>
      <trkpt lat="45.98293" lon="4.80126">
        <ele>228</ele>
        <time>2016-09-26T09:00:34Z</time>
      </trkpt>
      <trkpt lat="45.98296" lon="4.80133">
        <ele>228</ele>
        <time>2016-09-26T09:00:35Z</time>
      </trkpt>
      <trkpt lat="45.98298" lon="4.80141">
        <ele>228</ele>
        <time>2016-09-26T09:00:36Z</time>
      </trkpt>
      <trkpt lat="45.98302" lon="4.80147">
        <ele>228</ele>
        <time>2016-09-26T09:00:37Z</time>
      </trkpt>
      <trkpt lat="45.98305" lon="4.80159">
        <ele>228</ele>
        <time>2016-09-26T09:00:39Z</time>
      </trkpt>
      <trkpt lat="45.98309" lon="4.80168">
        <ele>227</ele>
        <time>2016-09-26T09:00:40Z</time>
      </trkpt>
      <trkpt lat="45.98312" lon="4.80176">
        <ele>227</ele>
        <time>2016-09-26T09:00:41Z</time>
      </trkpt>
      <trkpt lat="45.98315" lon="4.80184">
        <ele>227</ele>
        <time>2016-09-26T09:00:42Z</time>
      </trkpt>
      <trkpt lat="45.98318" lon="4.80191">
        <ele>227</ele>
        <time>2016-09-26T09:00:43Z</time>
      </trkpt>
      <trkpt lat="45.9832" lon="4.80197">
        <ele>227</ele>
        <time>2016-09-26T09:00:44Z</time>
      </trkpt>
      <trkpt lat="45.98323" lon="4.80204">
        <ele>227</ele>
        <time>2016-09-26T09:00:45Z</time>
      </trkpt>
      <trkpt lat="45.98324" lon="4.8021">
        <ele>227</ele>
        <time>2016-09-26T09:00:46Z</time>
      </trkpt>
      <trkpt lat="45.98326" lon="4.80216">
        <ele>227</ele>
        <time>2016-09-26T09:00:47Z</time>
      </trkpt>
      <trkpt lat="45.98328" lon="4.80222">
        <ele>227</ele>
        <time>2016-09-26T09:00:48Z</time>
      </trkpt>
      <trkpt lat="45.98329" lon="4.80228">
        <ele>228</ele>
        <time>2016-09-26T09:00:49Z</time>
      </trkpt>
      <trkpt lat="45.98328" lon="4.80235">
        <ele>228</ele>
        <time>2016-09-26T09:00:50Z</time>
      </trkpt>
      <trkpt lat="45.98326" lon="4.80241">
        <ele>228</ele>
        <time>2016-09-26T09:00:51Z</time>
      </trkpt>
      <trkpt lat="45.98324" lon="4.80248">
        <ele>229</ele>
        <time>2016-09-26T09:00:52Z</time>
      </trkpt>
      <trkpt lat="45.98322" lon="4.80255">
        <ele>228</ele>
        <time>2016-09-26T09:00:53Z</time>
      </trkpt>
      <trkpt lat="45.9832" lon="4.80263">
        <ele>227</ele>
        <time>2016-09-26T09:00:54Z</time>
      </trkpt>
      <trkpt lat="45.98319" lon="4.80271">
        <ele>227</ele>
        <time>2016-09-26T09:00:55Z</time>
      </trkpt>
      <trkpt lat="45.98317" lon="4.8028">
        <ele>227</ele>
        <time>2016-09-26T09:00:56Z</time>
      </trkpt>
      <trkpt lat="45.98314" lon="4.80289">
        <ele>226</ele>
        <time>2016-09-26T09:00:57Z</time>
      </trkpt>
      <trkpt lat="45.98312" lon="4.80298">
        <ele>226</ele>
        <time>2016-09-26T09:00:58Z</time>
      </trkpt>
      <trkpt lat="45.9831" lon="4.80307">
        <ele>226</ele>
        <time>2016-09-26T09:00:59Z</time>
      </trkpt>
      <trkpt lat="45.98307" lon="4.80318">
        <ele>226</ele>
        <time>2016-09-26T09:01:00Z</time>
      </trkpt>
      <trkpt lat="45.98304" lon="4.80328">
        <ele>226</ele>
        <time>2016-09-26T09:01:01Z</time>
      </trkpt>
      <trkpt lat="45.98301" lon="4.80337">
        <ele>225</ele>
        <time>2016-09-26T09:01:02Z</time>
      </trkpt>
      <trkpt lat="45.98299" lon="4.80345">
        <ele>225</ele>
        <time>2016-09-26T09:01:03Z</time>
      </trkpt>
      <trkpt lat="45.98298" lon="4.80354">
        <ele>225</ele>
        <time>2016-09-26T09:01:04Z</time>
      </trkpt>
      <trkpt lat="45.98296" lon="4.80363">
        <ele>225</ele>
        <time>2016-09-26T09:01:05Z</time>
      </trkpt>
      <trkpt lat="45.98294" lon="4.80372">
        <ele>224</ele>
        <time>2016-09-26T09:01:06Z</time>
      </trkpt>
      <trkpt lat="45.98292" lon="4.80381">
        <ele>224</ele>
        <time>2016-09-26T09:01:07Z</time>
      </trkpt>
      <trkpt lat="45.98291" lon="4.80391">
        <ele>224</ele>
        <time>2016-09-26T09:01:08Z</time>
      </trkpt>
      <trkpt lat="45.98289" lon="4.80401">
        <ele>224</ele>
        <time>2016-09-26T09:01:09Z</time>
      </trkpt>
      <trkpt lat="45.98287" lon="4.8041">
        <ele>224</ele>
        <time>2016-09-26T09:01:10Z</time>
      </trkpt>
      <trkpt lat="45.98284" lon="4.8042">
        <ele>223</ele>
        <time>2016-09-26T09:01:11Z</time>
      </trkpt>
      <trkpt lat="45.98282" lon="4.80431">
        <ele>223</ele>
        <time>2016-09-26T09:01:12Z</time>
      </trkpt>
      <trkpt lat="45.9828" lon="4.80441">
        <ele>223</ele>
        <time>2016-09-26T09:01:13Z</time>
      </trkpt>
      <trkpt lat="45.98279" lon="4.80451">
        <ele>223</ele>
        <time>2016-09-26T09:01:14Z</time>
      </trkpt>
      <trkpt lat="45.98277" lon="4.8046">
        <ele>223</ele>
        <time>2016-09-26T09:01:15Z</time>
      </trkpt>
      <trkpt lat="45.98276" lon="4.80469">
        <ele>223</ele>
        <time>2016-09-26T09:01:16Z</time>
      </trkpt>
      <trkpt lat="45.98275" lon="4.80478">
        <ele>223</ele>
        <time>2016-09-26T09:01:17Z</time>
      </trkpt>
      <trkpt lat="45.98274" lon="4.80488">
        <ele>223</ele>
        <time>2016-09-26T09:01:18Z</time>
      </trkpt>
      <trkpt lat="45.98273" lon="4.80497">
        <ele>223</ele>
        <time>2016-09-26T09:01:19Z</time>
      </trkpt>
      <trkpt lat="45.98272" lon="4.80506">
        <ele>223</ele>
        <time>2016-09-26T09:01:20Z</time>
      </trkpt>
      <trkpt lat="45.9827" lon="4.80513">
        <ele>223</ele>
        <time>2016-09-26T09:01:21Z</time>
      </trkpt>
      <trkpt lat="45.98268" lon="4.80521">
        <ele>224</ele>
        <time>2016-09-26T09:01:22Z</time>
      </trkpt>
      <trkpt lat="45.98265" lon="4.80527">
        <ele>224</ele>
        <time>2016-09-26T09:01:23Z</time>
      </trkpt>
      <trkpt lat="45.98262" lon="4.80534">
        <ele>224</ele>
        <time>2016-09-26T09:01:24Z</time>
      </trkpt>
      <trkpt lat="45.9826" lon="4.80541">
        <ele>224</ele>
        <time>2016-09-26T09:01:25Z</time>
      </trkpt>
      <trkpt lat="45.98257" lon="4.80547">
        <ele>224</ele>
        <time>2016-09-26T09:01:26Z</time>
      </trkpt>
      <trkpt lat="45.98254" lon="4.80553">
        <ele>224</ele>
        <time>2016-09-26T09:01:27Z</time>
      </trkpt>
      <trkpt lat="45.98252" lon="4.8056">
        <ele>224</ele>
        <time>2016-09-26T09:01:28Z</time>
      </trkpt>
      <trkpt lat="45.98249" lon="4.80567">
        <ele>224</ele>
        <time>2016-09-26T09:01:29Z</time>
      </trkpt>
      <trkpt lat="45.98246" lon="4.80575">
        <ele>224</ele>
        <time>2016-09-26T09:01:30Z</time>
      </trkpt>
      <trkpt lat="45.98244" lon="4.80582">
        <ele>224</ele>
        <time>2016-09-26T09:01:31Z</time>
      </trkpt>
      <trkpt lat="45.9824" lon="4.80589">
        <ele>224</ele>
        <time>2016-09-26T09:01:32Z</time>
      </trkpt>
      <trkpt lat="45.98238" lon="4.80596">
        <ele>224</ele>
        <time>2016-09-26T09:01:33Z</time>
      </trkpt>
      <trkpt lat="45.98235" lon="4.80603">
        <ele>224</ele>
        <time>2016-09-26T09:01:34Z</time>
      </trkpt>
      <trkpt lat="45.98233" lon="4.8061">
        <ele>224</ele>
        <time>2016-09-26T09:01:35Z</time>
      </trkpt>
      <trkpt lat="45.98231" lon="4.80617">
        <ele>224</ele>
        <time>2016-09-26T09:01:36Z</time>
      </trkpt>
      <trkpt lat="45.98229" lon="4.80624">
        <ele>224</ele>
        <time>2016-09-26T09:01:37Z</time>
      </trkpt>
      <trkpt lat="45.98227" lon="4.8063">
        <ele>224</ele>
        <time>2016-09-26T09:01:38Z</time>
      </trkpt>
      <trkpt lat="45.98224" lon="4.80637">
        <ele>224</ele>
        <time>2016-09-26T09:01:39Z</time>
      </trkpt>
      <trkpt lat="45.98221" lon="4.80643">
        <ele>224</ele>
        <time>2016-09-26T09:01:40Z</time>
      </trkpt>
      <trkpt lat="45.98219" lon="4.80648">
        <ele>224</ele>
        <time>2016-09-26T09:01:41Z</time>
      </trkpt>
      <trkpt lat="45.98216" lon="4.80654">
        <ele>224</ele>
        <time>2016-09-26T09:01:42Z</time>
      </trkpt>
      <trkpt lat="45.98212" lon="4.80663">
        <ele>224</ele>
        <time>2016-09-26T09:01:44Z</time>
      </trkpt>
      <trkpt lat="45.98209" lon="4.80666">
        <ele>224</ele>
        <time>2016-09-26T09:01:45Z</time>
      </trkpt>
      <trkpt lat="45.98207" lon="4.80676">
        <ele>224</ele>
        <time>2016-09-26T09:01:47Z</time>
      </trkpt>
      <trkpt lat="45.98204" lon="4.80678">
        <ele>224</ele>
        <time>2016-09-26T09:01:48Z</time>
      </trkpt>
      <trkpt lat="45.98197" lon="4.80682">
        <ele>225</ele>
        <time>2016-09-26T09:01:50Z</time>
      </trkpt>
      <trkpt lat="45.98193" lon="4.80684">
        <ele>225</ele>
        <time>2016-09-26T09:01:51Z</time>
      </trkpt>
      <trkpt lat="45.98188" lon="4.80688">
        <ele>225</ele>
        <time>2016-09-26T09:01:52Z</time>
      </trkpt>
      <trkpt lat="45.98184" lon="4.8069">
        <ele>225</ele>
        <time>2016-09-26T09:01:53Z</time>
      </trkpt>
      <trkpt lat="45.98178" lon="4.80687">
        <ele>225</ele>
        <time>2016-09-26T09:01:55Z</time>
      </trkpt>
      <trkpt lat="45.98174" lon="4.80688">
        <ele>225</ele>
        <time>2016-09-26T09:01:56Z</time>
      </trkpt>
      <trkpt lat="45.98165" lon="4.80688">
        <ele>227</ele>
        <time>2016-09-26T09:01:58Z</time>
      </trkpt>
      <trkpt lat="45.98162" lon="4.80688">
        <ele>227</ele>
        <time>2016-09-26T09:01:59Z</time>
      </trkpt>
      <trkpt lat="45.98155" lon="4.80688">
        <ele>227</ele>
        <time>2016-09-26T09:02:01Z</time>
      </trkpt>
      <trkpt lat="45.98149" lon="4.80686">
        <ele>227</ele>
        <time>2016-09-26T09:02:02Z</time>
      </trkpt>
      <trkpt lat="45.98141" lon="4.80685">
        <ele>228</ele>
        <time>2016-09-26T09:02:04Z</time>
      </trkpt>
      <trkpt lat="45.98136" lon="4.80685">
        <ele>228</ele>
        <time>2016-09-26T09:02:05Z</time>
      </trkpt>
      <trkpt lat="45.98128" lon="4.80685">
        <ele>228</ele>
        <time>2016-09-26T09:02:07Z</time>
      </trkpt>
      <trkpt lat="45.98124" lon="4.80686">
        <ele>228</ele>
        <time>2016-09-26T09:02:08Z</time>
      </trkpt>
      <trkpt lat="45.98116" lon="4.80688">
        <ele>228</ele>
        <time>2016-09-26T09:02:09Z</time>
      </trkpt>
      <trkpt lat="45.98115" lon="4.80688">
        <ele>228</ele>
        <time>2016-09-26T09:02:10Z</time>
      </trkpt>
      <trkpt lat="45.9811" lon="4.80689">
        <ele>228</ele>
        <time>2016-09-26T09:02:11Z</time>
      </trkpt>
      <trkpt lat="45.98104" lon="4.80688">
        <ele>228</ele>
        <time>2016-09-26T09:02:12Z</time>
      </trkpt>
      <trkpt lat="45.98099" lon="4.80685">
        <ele>228</ele>
        <time>2016-09-26T09:02:13Z</time>
      </trkpt>
      <trkpt lat="45.98093" lon="4.80683">
        <ele>228</ele>
        <time>2016-09-26T09:02:14Z</time>
      </trkpt>
      <trkpt lat="45.98088" lon="4.80679">
        <ele>228</ele>
        <time>2016-09-26T09:02:15Z</time>
      </trkpt>
      <trkpt lat="45.98082" lon="4.80677">
        <ele>229</ele>
        <time>2016-09-26T09:02:16Z</time>
      </trkpt>
      <trkpt lat="45.98077" lon="4.80674">
        <ele>229</ele>
        <time>2016-09-26T09:02:17Z</time>
      </trkpt>
      <trkpt lat="45.98071" lon="4.80672">
        <ele>229</ele>
        <time>2016-09-26T09:02:18Z</time>
      </trkpt>
      <trkpt lat="45.98065" lon="4.80678">
        <ele>229</ele>
        <time>2016-09-26T09:02:21Z</time>
      </trkpt>
      <trkpt lat="45.98062" lon="4.80679">
        <ele>230</ele>
        <time>2016-09-26T09:02:22Z</time>
      </trkpt>
      <trkpt lat="45.98056" lon="4.8068">
        <ele>230</ele>
        <time>2016-09-26T09:02:25Z</time>
      </trkpt>
      <trkpt lat="45.98053" lon="4.80681">
        <ele>230</ele>
        <time>2016-09-26T09:02:26Z</time>
      </trkpt>
      <trkpt lat="45.98046" lon="4.80686">
        <ele>230</ele>
        <time>2016-09-26T09:02:29Z</time>
      </trkpt>
      <trkpt lat="45.98043" lon="4.8069">
        <ele>230</ele>
        <time>2016-09-26T09:02:30Z</time>
      </trkpt>
      <trkpt lat="45.98038" lon="4.80698">
        <ele>230</ele>
        <time>2016-09-26T09:02:32Z</time>
      </trkpt>
      <trkpt lat="45.98035" lon="4.80702">
        <ele>230</ele>
        <time>2016-09-26T09:02:33Z</time>
      </trkpt>
      <trkpt lat="45.98031" lon="4.80711">
        <ele>231</ele>
        <time>2016-09-26T09:02:35Z</time>
      </trkpt>
      <trkpt lat="45.98031" lon="4.80716">
        <ele>231</ele>
        <time>2016-09-26T09:02:36Z</time>
      </trkpt>
      <trkpt lat="45.98033" lon="4.80726">
        <ele>231</ele>
        <time>2016-09-26T09:02:38Z</time>
      </trkpt>
      <trkpt lat="45.98033" lon="4.8073">
        <ele>231</ele>
        <time>2016-09-26T09:02:39Z</time>
      </trkpt>
      <trkpt lat="45.98033" lon="4.8074">
        <ele>231</ele>
        <time>2016-09-26T09:02:41Z</time>
      </trkpt>
      <trkpt lat="45.98033" lon="4.80744">
        <ele>231</ele>
        <time>2016-09-26T09:02:42Z</time>
      </trkpt>
      <trkpt lat="45.98035" lon="4.80752">
        <ele>233</ele>
        <time>2016-09-26T09:02:44Z</time>
      </trkpt>
      <trkpt lat="45.98037" lon="4.80756">
        <ele>233</ele>
        <time>2016-09-26T09:02:45Z</time>
      </trkpt>
      <trkpt lat="45.98039" lon="4.80764">
        <ele>233</ele>
        <time>2016-09-26T09:02:47Z</time>
      </trkpt>
      <trkpt lat="45.9804" lon="4.80768">
        <ele>233</ele>
        <time>2016-09-26T09:02:48Z</time>
      </trkpt>
      <trkpt lat="45.98042" lon="4.80777">
        <ele>233</ele>
        <time>2016-09-26T09:02:50Z</time>
      </trkpt>
      <trkpt lat="45.98043" lon="4.80782">
        <ele>233</ele>
        <time>2016-09-26T09:02:51Z</time>
      </trkpt>
      <trkpt lat="45.98045" lon="4.80793">
        <ele>233</ele>
        <time>2016-09-26T09:02:53Z</time>
      </trkpt>
      <trkpt lat="45.98045" lon="4.80799">
        <ele>234</ele>
        <time>2016-09-26T09:02:54Z</time>
      </trkpt>
      <trkpt lat="45.98046" lon="4.80809">
        <ele>234</ele>
        <time>2016-09-26T09:02:56Z</time>
      </trkpt>
      <trkpt lat="45.98047" lon="4.80813">
        <ele>234</ele>
        <time>2016-09-26T09:02:57Z</time>
      </trkpt>
      <trkpt lat="45.9805" lon="4.80821">
        <ele>234</ele>
        <time>2016-09-26T09:02:59Z</time>
      </trkpt>
      <trkpt lat="45.98052" lon="4.80825">
        <ele>234</ele>
        <time>2016-09-26T09:03:00Z</time>
      </trkpt>
      <trkpt lat="45.98056" lon="4.80836">
        <ele>236</ele>
        <time>2016-09-26T09:03:03Z</time>
      </trkpt>
      <trkpt lat="45.98058" lon="4.8084">
        <ele>236</ele>
        <time>2016-09-26T09:03:04Z</time>
      </trkpt>
      <trkpt lat="45.9806" lon="4.80851">
        <ele>236</ele>
        <time>2016-09-26T09:03:07Z</time>
      </trkpt>
      <trkpt lat="45.98061" lon="4.80855">
        <ele>236</ele>
        <time>2016-09-26T09:03:08Z</time>
      </trkpt>
      <trkpt lat="45.98066" lon="4.80866">
        <ele>237</ele>
        <time>2016-09-26T09:03:11Z</time>
      </trkpt>
      <trkpt lat="45.98068" lon="4.80869">
        <ele>237</ele>
        <time>2016-09-26T09:03:12Z</time>
      </trkpt>
      <trkpt lat="45.98071" lon="4.80877">
        <ele>237</ele>
        <time>2016-09-26T09:03:14Z</time>
      </trkpt>
      <trkpt lat="45.98072" lon="4.80882">
        <ele>237</ele>
        <time>2016-09-26T09:03:15Z</time>
      </trkpt>
      <trkpt lat="45.98073" lon="4.80893">
        <ele>238</ele>
        <time>2016-09-26T09:03:18Z</time>
      </trkpt>
      <trkpt lat="45.98074" lon="4.80896">
        <ele>238</ele>
        <time>2016-09-26T09:03:19Z</time>
      </trkpt>
      <trkpt lat="45.98076" lon="4.80907">
        <ele>238</ele>
        <time>2016-09-26T09:03:22Z</time>
      </trkpt>
      <trkpt lat="45.98077" lon="4.80912">
        <ele>239</ele>
        <time>2016-09-26T09:03:23Z</time>
      </trkpt>
      <trkpt lat="45.9808" lon="4.80923">
        <ele>240</ele>
        <time>2016-09-26T09:03:26Z</time>
      </trkpt>
      <trkpt lat="45.98081" lon="4.80927">
        <ele>240</ele>
        <time>2016-09-26T09:03:27Z</time>
      </trkpt>
      <trkpt lat="45.98084" lon="4.80938">
        <ele>238</ele>
        <time>2016-09-26T09:03:30Z</time>
      </trkpt>
      <trkpt lat="45.98086" lon="4.80942">
        <ele>238</ele>
        <time>2016-09-26T09:03:31Z</time>
      </trkpt>
      <trkpt lat="45.98087" lon="4.80952">
        <ele>238</ele>
        <time>2016-09-26T09:03:33Z</time>
      </trkpt>
      <trkpt lat="45.98089" lon="4.80956">
        <ele>238</ele>
        <time>2016-09-26T09:03:34Z</time>
      </trkpt>
      <trkpt lat="45.98093" lon="4.80966">
        <ele>239</ele>
        <time>2016-09-26T09:03:37Z</time>
      </trkpt>
      <trkpt lat="45.98093" lon="4.8097">
        <ele>239</ele>
        <time>2016-09-26T09:03:38Z</time>
      </trkpt>
      <trkpt lat="45.98096" lon="4.80979">
        <ele>239</ele>
        <time>2016-09-26T09:03:40Z</time>
      </trkpt>
      <trkpt lat="45.98096" lon="4.80983">
        <ele>240</ele>
        <time>2016-09-26T09:03:41Z</time>
      </trkpt>
      <trkpt lat="45.981" lon="4.80992">
        <ele>240</ele>
        <time>2016-09-26T09:03:43Z</time>
      </trkpt>
      <trkpt lat="45.98102" lon="4.80997">
        <ele>240</ele>
        <time>2016-09-26T09:03:44Z</time>
      </trkpt>
      <trkpt lat="45.98104" lon="4.81005">
        <ele>242</ele>
        <time>2016-09-26T09:03:46Z</time>
      </trkpt>
      <trkpt lat="45.98106" lon="4.8101">
        <ele>242</ele>
        <time>2016-09-26T09:03:47Z</time>
      </trkpt>
      <trkpt lat="45.98109" lon="4.8102">
        <ele>242</ele>
        <time>2016-09-26T09:03:49Z</time>
      </trkpt>
      <trkpt lat="45.9811" lon="4.81026">
        <ele>242</ele>
        <time>2016-09-26T09:03:50Z</time>
      </trkpt>
      <trkpt lat="45.98112" lon="4.81037">
        <ele>242</ele>
        <time>2016-09-26T09:03:52Z</time>
      </trkpt>
      <trkpt lat="45.98114" lon="4.81043">
        <ele>242</ele>
        <time>2016-09-26T09:03:53Z</time>
      </trkpt>
      <trkpt lat="45.98116" lon="4.81049">
        <ele>243</ele>
        <time>2016-09-26T09:03:54Z</time>
      </trkpt>
      <trkpt lat="45.98118" lon="4.81058">
        <ele>243</ele>
        <time>2016-09-26T09:03:55Z</time>
      </trkpt>
      <trkpt lat="45.9812" lon="4.81065">
        <ele>243</ele>
        <time>2016-09-26T09:03:56Z</time>
      </trkpt>
      <trkpt lat="45.98122" lon="4.81071">
        <ele>243</ele>
        <time>2016-09-26T09:03:57Z</time>
      </trkpt>
      <trkpt lat="45.98125" lon="4.81082">
        <ele>243</ele>
        <time>2016-09-26T09:03:59Z</time>
      </trkpt>
      <trkpt lat="45.98126" lon="4.81087">
        <ele>245</ele>
        <time>2016-09-26T09:04:00Z</time>
      </trkpt>
      <trkpt lat="45.98131" lon="4.81098">
        <ele>245</ele>
        <time>2016-09-26T09:04:02Z</time>
      </trkpt>
      <trkpt lat="45.98133" lon="4.81103">
        <ele>245</ele>
        <time>2016-09-26T09:04:03Z</time>
      </trkpt>
      <trkpt lat="45.98137" lon="4.81114">
        <ele>245</ele>
        <time>2016-09-26T09:04:05Z</time>
      </trkpt>
      <trkpt lat="45.9814" lon="4.81118">
        <ele>245</ele>
        <time>2016-09-26T09:04:06Z</time>
      </trkpt>
      <trkpt lat="45.98144" lon="4.81129">
        <ele>245</ele>
        <time>2016-09-26T09:04:08Z</time>
      </trkpt>
      <trkpt lat="45.98146" lon="4.81134">
        <ele>245</ele>
        <time>2016-09-26T09:04:09Z</time>
      </trkpt>
      <trkpt lat="45.98149" lon="4.81141">
        <ele>245</ele>
        <time>2016-09-26T09:04:10Z</time>
      </trkpt>
      <trkpt lat="45.98151" lon="4.81148">
        <ele>245</ele>
        <time>2016-09-26T09:04:11Z</time>
      </trkpt>
      <trkpt lat="45.98153" lon="4.81155">
        <ele>245</ele>
        <time>2016-09-26T09:04:12Z</time>
      </trkpt>
      <trkpt lat="45.98155" lon="4.81161">
        <ele>245</ele>
        <time>2016-09-26T09:04:13Z</time>
      </trkpt>
      <trkpt lat="45.98157" lon="4.81169">
        <ele>246</ele>
        <time>2016-09-26T09:04:15Z</time>
      </trkpt>
      <trkpt lat="45.98159" lon="4.81172">
        <ele>246</ele>
        <time>2016-09-26T09:04:16Z</time>
      </trkpt>
      <trkpt lat="45.98162" lon="4.81181">
        <ele>246</ele>
        <time>2016-09-26T09:04:18Z</time>
      </trkpt>
      <trkpt lat="45.98164" lon="4.81184">
        <ele>246</ele>
        <time>2016-09-26T09:04:19Z</time>
      </trkpt>
      <trkpt lat="45.98165" lon="4.81193">
        <ele>246</ele>
        <time>2016-09-26T09:04:21Z</time>
      </trkpt>
      <trkpt lat="45.98166" lon="4.81198">
        <ele>246</ele>
        <time>2016-09-26T09:04:22Z</time>
      </trkpt>
      <trkpt lat="45.98166" lon="4.81206">
        <ele>247</ele>
        <time>2016-09-26T09:04:24Z</time>
      </trkpt>
      <trkpt lat="45.98166" lon="4.81211">
        <ele>247</ele>
        <time>2016-09-26T09:04:25Z</time>
      </trkpt>
      <trkpt lat="45.98167" lon="4.81223">
        <ele>246</ele>
        <time>2016-09-26T09:04:27Z</time>
      </trkpt>
      <trkpt lat="45.98167" lon="4.81229">
        <ele>246</ele>
        <time>2016-09-26T09:04:28Z</time>
      </trkpt>
      <trkpt lat="45.98167" lon="4.81239">
        <ele>247</ele>
        <time>2016-09-26T09:04:30Z</time>
      </trkpt>
      <trkpt lat="45.98169" lon="4.81243">
        <ele>247</ele>
        <time>2016-09-26T09:04:31Z</time>
      </trkpt>
      <trkpt lat="45.98174" lon="4.81253">
        <ele>248</ele>
        <time>2016-09-26T09:04:33Z</time>
      </trkpt>
      <trkpt lat="45.98175" lon="4.81259">
        <ele>247</ele>
        <time>2016-09-26T09:04:34Z</time>
      </trkpt>
      <trkpt lat="45.98178" lon="4.81264">
        <ele>247</ele>
        <time>2016-09-26T09:04:35Z</time>
      </trkpt>
      <trkpt lat="45.98181" lon="4.8127">
        <ele>247</ele>
        <time>2016-09-26T09:04:36Z</time>
      </trkpt>
      <trkpt lat="45.98183" lon="4.81275">
        <ele>247</ele>
        <time>2016-09-26T09:04:37Z</time>
      </trkpt>
      <trkpt lat="45.98185" lon="4.81282">
        <ele>247</ele>
        <time>2016-09-26T09:04:38Z</time>
      </trkpt>
      <trkpt lat="45.98183" lon="4.8129">
        <ele>247</ele>
        <time>2016-09-26T09:04:39Z</time>
      </trkpt>
      <trkpt lat="45.98183" lon="4.81297">
        <ele>247</ele>
        <time>2016-09-26T09:04:40Z</time>
      </trkpt>
      <trkpt lat="45.98181" lon="4.81306">
        <ele>247</ele>
        <time>2016-09-26T09:04:41Z</time>
      </trkpt>
      <trkpt lat="45.98182" lon="4.81314">
        <ele>247</ele>
        <time>2016-09-26T09:04:42Z</time>
      </trkpt>
      <trkpt lat="45.98184" lon="4.8132">
        <ele>247</ele>
        <time>2016-09-26T09:04:43Z</time>
      </trkpt>
      <trkpt lat="45.98186" lon="4.81326">
        <ele>247</ele>
        <time>2016-09-26T09:04:44Z</time>
      </trkpt>
      <trkpt lat="45.98188" lon="4.81333">
        <ele>247</ele>
        <time>2016-09-26T09:04:45Z</time>
      </trkpt>
      <trkpt lat="45.9819" lon="4.81339">
        <ele>248</ele>
        <time>2016-09-26T09:04:46Z</time>
      </trkpt>
      <trkpt lat="45.98192" lon="4.81351">
        <ele>248</ele>
        <time>2016-09-26T09:04:48Z</time>
      </trkpt>
      <trkpt lat="45.98193" lon="4.81357">
        <ele>248</ele>
        <time>2016-09-26T09:04:49Z</time>
      </trkpt>
      <trkpt lat="45.98196" lon="4.8137">
        <ele>248</ele>
        <time>2016-09-26T09:04:51Z</time>
      </trkpt>
      <trkpt lat="45.98198" lon="4.81375">
        <ele>248</ele>
        <time>2016-09-26T09:04:52Z</time>
      </trkpt>
      <trkpt lat="45.982" lon="4.81385">
        <ele>248</ele>
        <time>2016-09-26T09:04:54Z</time>
      </trkpt>
      <trkpt lat="45.98201" lon="4.8139">
        <ele>248</ele>
        <time>2016-09-26T09:04:55Z</time>
      </trkpt>
      <trkpt lat="45.98202" lon="4.81401">
        <ele>248</ele>
        <time>2016-09-26T09:04:57Z</time>
      </trkpt>
      <trkpt lat="45.98204" lon="4.81406">
        <ele>248</ele>
        <time>2016-09-26T09:04:58Z</time>
      </trkpt>
      <trkpt lat="45.98207" lon="4.81417">
        <ele>248</ele>
        <time>2016-09-26T09:05:00Z</time>
      </trkpt>
      <trkpt lat="45.98209" lon="4.81422">
        <ele>249</ele>
        <time>2016-09-26T09:05:01Z</time>
      </trkpt>
      <trkpt lat="45.98213" lon="4.81433">
        <ele>249</ele>
        <time>2016-09-26T09:05:03Z</time>
      </trkpt>
      <trkpt lat="45.98216" lon="4.81439">
        <ele>249</ele>
        <time>2016-09-26T09:05:04Z</time>
      </trkpt>
      <trkpt lat="45.98218" lon="4.81445">
        <ele>249</ele>
        <time>2016-09-26T09:05:05Z</time>
      </trkpt>
      <trkpt lat="45.98221" lon="4.81451">
        <ele>249</ele>
        <time>2016-09-26T09:05:06Z</time>
      </trkpt>
      <trkpt lat="45.98223" lon="4.81457">
        <ele>249</ele>
        <time>2016-09-26T09:05:07Z</time>
      </trkpt>
      <trkpt lat="45.98225" lon="4.81464">
        <ele>249</ele>
        <time>2016-09-26T09:05:08Z</time>
      </trkpt>
      <trkpt lat="45.98227" lon="4.81471">
        <ele>249</ele>
        <time>2016-09-26T09:05:09Z</time>
      </trkpt>
      <trkpt lat="45.98229" lon="4.81477">
        <ele>249</ele>
        <time>2016-09-26T09:05:10Z</time>
      </trkpt>
      <trkpt lat="45.98232" lon="4.81483">
        <ele>249</ele>
        <time>2016-09-26T09:05:11Z</time>
      </trkpt>
      <trkpt lat="45.98234" lon="4.8149">
        <ele>249</ele>
        <time>2016-09-26T09:05:12Z</time>
      </trkpt>
      <trkpt lat="45.98237" lon="4.81497">
        <ele>249</ele>
        <time>2016-09-26T09:05:13Z</time>
      </trkpt>
      <trkpt lat="45.98239" lon="4.81504">
        <ele>249</ele>
        <time>2016-09-26T09:05:14Z</time>
      </trkpt>
      <trkpt lat="45.98242" lon="4.81511">
        <ele>249</ele>
        <time>2016-09-26T09:05:15Z</time>
      </trkpt>
      <trkpt lat="45.98244" lon="4.81519">
        <ele>249</ele>
        <time>2016-09-26T09:05:16Z</time>
      </trkpt>
      <trkpt lat="45.98247" lon="4.81527">
        <ele>249</ele>
        <time>2016-09-26T09:05:17Z</time>
      </trkpt>
      <trkpt lat="45.98249" lon="4.81535">
        <ele>249</ele>
        <time>2016-09-26T09:05:18Z</time>
      </trkpt>
      <trkpt lat="45.98251" lon="4.81542">
        <ele>247</ele>
        <time>2016-09-26T09:05:19Z</time>
      </trkpt>
      <trkpt lat="45.98253" lon="4.81549">
        <ele>247</ele>
        <time>2016-09-26T09:05:20Z</time>
      </trkpt>
      <trkpt lat="45.98255" lon="4.81556">
        <ele>247</ele>
        <time>2016-09-26T09:05:21Z</time>
      </trkpt>
      <trkpt lat="45.98258" lon="4.81563">
        <ele>247</ele>
        <time>2016-09-26T09:05:22Z</time>
      </trkpt>
      <trkpt lat="45.9826" lon="4.8157">
        <ele>247</ele>
        <time>2016-09-26T09:05:23Z</time>
      </trkpt>
      <trkpt lat="45.98262" lon="4.81576">
        <ele>247</ele>
        <time>2016-09-26T09:05:24Z</time>
      </trkpt>
      <trkpt lat="45.98264" lon="4.81582">
        <ele>247</ele>
        <time>2016-09-26T09:05:25Z</time>
      </trkpt>
      <trkpt lat="45.98267" lon="4.81588">
        <ele>247</ele>
        <time>2016-09-26T09:05:26Z</time>
      </trkpt>
      <trkpt lat="45.98269" lon="4.81596">
        <ele>247</ele>
        <time>2016-09-26T09:05:27Z</time>
      </trkpt>
      <trkpt lat="45.98271" lon="4.81603">
        <ele>247</ele>
        <time>2016-09-26T09:05:28Z</time>
      </trkpt>
      <trkpt lat="45.98274" lon="4.81609">
        <ele>247</ele>
        <time>2016-09-26T09:05:29Z</time>
      </trkpt>
      <trkpt lat="45.98276" lon="4.81614">
        <ele>247</ele>
        <time>2016-09-26T09:05:30Z</time>
      </trkpt>
      <trkpt lat="45.9828" lon="4.8162">
        <ele>247</ele>
        <time>2016-09-26T09:05:31Z</time>
      </trkpt>
      <trkpt lat="45.98284" lon="4.81625">
        <ele>247</ele>
        <time>2016-09-26T09:05:32Z</time>
      </trkpt>
      <trkpt lat="45.98288" lon="4.8163">
        <ele>247</ele>
        <time>2016-09-26T09:05:33Z</time>
      </trkpt>
      <trkpt lat="45.98292" lon="4.81635">
        <ele>247</ele>
        <time>2016-09-26T09:05:34Z</time>
      </trkpt>
      <trkpt lat="45.98297" lon="4.8164">
        <ele>247</ele>
        <time>2016-09-26T09:05:35Z</time>
      </trkpt>
      <trkpt lat="45.98302" lon="4.81644">
        <ele>246</ele>
        <time>2016-09-26T09:05:36Z</time>
      </trkpt>
      <trkpt lat="45.98307" lon="4.81648">
        <ele>246</ele>
        <time>2016-09-26T09:05:37Z</time>
      </trkpt>
      <trkpt lat="45.98311" lon="4.81653">
        <ele>246</ele>
        <time>2016-09-26T09:05:38Z</time>
      </trkpt>
      <trkpt lat="45.98316" lon="4.81656">
        <ele>246</ele>
        <time>2016-09-26T09:05:39Z</time>
      </trkpt>
      <trkpt lat="45.9832" lon="4.8166">
        <ele>246</ele>
        <time>2016-09-26T09:05:40Z</time>
      </trkpt>
      <trkpt lat="45.98325" lon="4.81663">
        <ele>246</ele>
        <time>2016-09-26T09:05:41Z</time>
      </trkpt>
      <trkpt lat="45.98329" lon="4.81666">
        <ele>246</ele>
        <time>2016-09-26T09:05:42Z</time>
      </trkpt>
      <trkpt lat="45.98332" lon="4.8167">
        <ele>246</ele>
        <time>2016-09-26T09:05:43Z</time>
      </trkpt>
      <trkpt lat="45.98337" lon="4.81672">
        <ele>246</ele>
        <time>2016-09-26T09:05:44Z</time>
      </trkpt>
      <trkpt lat="45.98342" lon="4.81673">
        <ele>245</ele>
        <time>2016-09-26T09:05:45Z</time>
      </trkpt>
      <trkpt lat="45.98347" lon="4.81674">
        <ele>245</ele>
        <time>2016-09-26T09:05:46Z</time>
      </trkpt>
      <trkpt lat="45.98352" lon="4.81675">
        <ele>245</ele>
        <time>2016-09-26T09:05:47Z</time>
      </trkpt>
      <trkpt lat="45.98356" lon="4.81676">
        <ele>245</ele>
        <time>2016-09-26T09:05:48Z</time>
      </trkpt>
      <trkpt lat="45.98362" lon="4.81676">
        <ele>244</ele>
        <time>2016-09-26T09:05:49Z</time>
      </trkpt>
      <trkpt lat="45.98367" lon="4.81676">
        <ele>244</ele>
        <time>2016-09-26T09:05:50Z</time>
      </trkpt>
      <trkpt lat="45.98372" lon="4.81675">
        <ele>244</ele>
        <time>2016-09-26T09:05:51Z</time>
      </trkpt>
      <trkpt lat="45.98378" lon="4.81675">
        <ele>244</ele>
        <time>2016-09-26T09:05:52Z</time>
      </trkpt>
      <trkpt lat="45.98383" lon="4.81674">
        <ele>243</ele>
        <time>2016-09-26T09:05:53Z</time>
      </trkpt>
      <trkpt lat="45.98388" lon="4.81673">
        <ele>243</ele>
        <time>2016-09-26T09:05:54Z</time>
      </trkpt>
      <trkpt lat="45.98394" lon="4.81672">
        <ele>243</ele>
        <time>2016-09-26T09:05:55Z</time>
      </trkpt>
      <trkpt lat="45.98399" lon="4.81671">
        <ele>243</ele>
        <time>2016-09-26T09:05:56Z</time>
      </trkpt>
      <trkpt lat="45.98403" lon="4.81669">
        <ele>242</ele>
        <time>2016-09-26T09:05:57Z</time>
      </trkpt>
      <trkpt lat="45.98408" lon="4.81669">
        <ele>242</ele>
        <time>2016-09-26T09:05:58Z</time>
      </trkpt>
      <trkpt lat="45.98412" lon="4.81669">
        <ele>242</ele>
        <time>2016-09-26T09:05:59Z</time>
      </trkpt>
      <trkpt lat="45.98417" lon="4.81668">
        <ele>241</ele>
        <time>2016-09-26T09:06:00Z</time>
      </trkpt>
      <trkpt lat="45.98423" lon="4.81668">
        <ele>241</ele>
        <time>2016-09-26T09:06:01Z</time>
      </trkpt>
      <trkpt lat="45.98428" lon="4.81669">
        <ele>240</ele>
        <time>2016-09-26T09:06:02Z</time>
      </trkpt>
      <trkpt lat="45.98433" lon="4.81672">
        <ele>240</ele>
        <time>2016-09-26T09:06:03Z</time>
      </trkpt>
      <trkpt lat="45.98438" lon="4.81676">
        <ele>240</ele>
        <time>2016-09-26T09:06:04Z</time>
      </trkpt>
      <trkpt lat="45.98442" lon="4.8168">
        <ele>239</ele>
        <time>2016-09-26T09:06:05Z</time>
      </trkpt>
      <trkpt lat="45.98446" lon="4.81686">
        <ele>239</ele>
        <time>2016-09-26T09:06:06Z</time>
      </trkpt>
      <trkpt lat="45.98449" lon="4.81692">
        <ele>239</ele>
        <time>2016-09-26T09:06:07Z</time>
      </trkpt>
      <trkpt lat="45.98452" lon="4.81699">
        <ele>239</ele>
        <time>2016-09-26T09:06:08Z</time>
      </trkpt>
      <trkpt lat="45.98456" lon="4.81706">
        <ele>239</ele>
        <time>2016-09-26T09:06:09Z</time>
      </trkpt>
      <trkpt lat="45.9846" lon="4.81712">
        <ele>239</ele>
        <time>2016-09-26T09:06:10Z</time>
      </trkpt>
      <trkpt lat="45.98464" lon="4.81719">
        <ele>239</ele>
        <time>2016-09-26T09:06:11Z</time>
      </trkpt>
      <trkpt lat="45.9847" lon="4.81725">
        <ele>239</ele>
        <time>2016-09-26T09:06:12Z</time>
      </trkpt>
      <trkpt lat="45.98475" lon="4.81733">
        <ele>239</ele>
        <time>2016-09-26T09:06:13Z</time>
      </trkpt>
      <trkpt lat="45.9848" lon="4.8174">
        <ele>238</ele>
        <time>2016-09-26T09:06:14Z</time>
      </trkpt>
      <trkpt lat="45.98487" lon="4.81746">
        <ele>238</ele>
        <time>2016-09-26T09:06:15Z</time>
      </trkpt>
      <trkpt lat="45.98493" lon="4.81752">
        <ele>238</ele>
        <time>2016-09-26T09:06:16Z</time>
      </trkpt>
      <trkpt lat="45.98499" lon="4.81759">
        <ele>238</ele>
        <time>2016-09-26T09:06:17Z</time>
      </trkpt>
      <trkpt lat="45.98506" lon="4.81767">
        <ele>237</ele>
        <time>2016-09-26T09:06:18Z</time>
      </trkpt>
      <trkpt lat="45.98512" lon="4.81775">
        <ele>238</ele>
        <time>2016-09-26T09:06:19Z</time>
      </trkpt>
      <trkpt lat="45.98518" lon="4.81783">
        <ele>238</ele>
        <time>2016-09-26T09:06:20Z</time>
      </trkpt>
      <trkpt lat="45.98524" lon="4.8179">
        <ele>238</ele>
        <time>2016-09-26T09:06:21Z</time>
      </trkpt>
      <trkpt lat="45.98529" lon="4.81798">
        <ele>238</ele>
        <time>2016-09-26T09:06:22Z</time>
      </trkpt>
      <trkpt lat="45.98534" lon="4.81804">
        <ele>238</ele>
        <time>2016-09-26T09:06:23Z</time>
      </trkpt>
      <trkpt lat="45.98538" lon="4.81809">
        <ele>238</ele>
        <time>2016-09-26T09:06:24Z</time>
      </trkpt>
      <trkpt lat="45.98543" lon="4.81813">
        <ele>238</ele>
        <time>2016-09-26T09:06:25Z</time>
      </trkpt>
      <trkpt lat="45.98548" lon="4.81814">
        <ele>238</ele>
        <time>2016-09-26T09:06:26Z</time>
      </trkpt>
      <trkpt lat="45.98554" lon="4.81813">
        <ele>238</ele>
        <time>2016-09-26T09:06:27Z</time>
      </trkpt>
      <trkpt lat="45.98559" lon="4.81811">
        <ele>238</ele>
        <time>2016-09-26T09:06:28Z</time>
      </trkpt>
      <trkpt lat="45.98564" lon="4.81806">
        <ele>238</ele>
        <time>2016-09-26T09:06:29Z</time>
      </trkpt>
      <trkpt lat="45.98568" lon="4.818">
        <ele>238</ele>
        <time>2016-09-26T09:06:30Z</time>
      </trkpt>
      <trkpt lat="45.98572" lon="4.81795">
        <ele>238</ele>
        <time>2016-09-26T09:06:31Z</time>
      </trkpt>
      <trkpt lat="45.98576" lon="4.81791">
        <ele>238</ele>
        <time>2016-09-26T09:06:32Z</time>
      </trkpt>
      <trkpt lat="45.98581" lon="4.81786">
        <ele>238</ele>
        <time>2016-09-26T09:06:33Z</time>
      </trkpt>
      <trkpt lat="45.98585" lon="4.81782">
        <ele>238</ele>
        <time>2016-09-26T09:06:34Z</time>
      </trkpt>
      <trkpt lat="45.9859" lon="4.81778">
        <ele>238</ele>
        <time>2016-09-26T09:06:35Z</time>
      </trkpt>
      <trkpt lat="45.98594" lon="4.81776">
        <ele>238</ele>
        <time>2016-09-26T09:06:36Z</time>
      </trkpt>
      <trkpt lat="45.98599" lon="4.81773">
        <ele>238</ele>
        <time>2016-09-26T09:06:37Z</time>
      </trkpt>
      <trkpt lat="45.98603" lon="4.81771">
        <ele>238</ele>
        <time>2016-09-26T09:06:38Z</time>
      </trkpt>
      <trkpt lat="45.98611" lon="4.81769">
        <ele>238</ele>
        <time>2016-09-26T09:06:40Z</time>
      </trkpt>
      <trkpt lat="45.98616" lon="4.81768">
        <ele>238</ele>
        <time>2016-09-26T09:06:41Z</time>
      </trkpt>
      <trkpt lat="45.98621" lon="4.81766">
        <ele>238</ele>
        <time>2016-09-26T09:06:42Z</time>
      </trkpt>
      <trkpt lat="45.98626" lon="4.81765">
        <ele>238</ele>
        <time>2016-09-26T09:06:43Z</time>
      </trkpt>
      <trkpt lat="45.98634" lon="4.81764">
        <ele>238</ele>
        <time>2016-09-26T09:06:45Z</time>
      </trkpt>
      <trkpt lat="45.98639" lon="4.81762">
        <ele>238</ele>
        <time>2016-09-26T09:06:46Z</time>
      </trkpt>
      <trkpt lat="45.98643" lon="4.81761">
        <ele>238</ele>
        <time>2016-09-26T09:06:47Z</time>
      </trkpt>
      <trkpt lat="45.98648" lon="4.81759">
        <ele>238</ele>
        <time>2016-09-26T09:06:48Z</time>
      </trkpt>
      <trkpt lat="45.98653" lon="4.81757">
        <ele>238</ele>
        <time>2016-09-26T09:06:49Z</time>
      </trkpt>
      <trkpt lat="45.98658" lon="4.81756">
        <ele>238</ele>
        <time>2016-09-26T09:06:50Z</time>
      </trkpt>
      <trkpt lat="45.98663" lon="4.81754">
        <ele>238</ele>
        <time>2016-09-26T09:06:51Z</time>
      </trkpt>
      <trkpt lat="45.98669" lon="4.81753">
        <ele>238</ele>
        <time>2016-09-26T09:06:52Z</time>
      </trkpt>
      <trkpt lat="45.98674" lon="4.81753">
        <ele>238</ele>
        <time>2016-09-26T09:06:53Z</time>
      </trkpt>
      <trkpt lat="45.98679" lon="4.81752">
        <ele>239</ele>
        <time>2016-09-26T09:06:54Z</time>
      </trkpt>
      <trkpt lat="45.98685" lon="4.81751">
        <ele>239</ele>
        <time>2016-09-26T09:06:55Z</time>
      </trkpt>
      <trkpt lat="45.9869" lon="4.81748">
        <ele>238</ele>
        <time>2016-09-26T09:06:56Z</time>
      </trkpt>
      <trkpt lat="45.98695" lon="4.81747">
        <ele>239</ele>
        <time>2016-09-26T09:06:57Z</time>
      </trkpt>
      <trkpt lat="45.987" lon="4.81745">
        <ele>239</ele>
        <time>2016-09-26T09:06:58Z</time>
      </trkpt>
      <trkpt lat="45.98706" lon="4.81745">
        <ele>239</ele>
        <time>2016-09-26T09:06:59Z</time>
      </trkpt>
      <trkpt lat="45.98712" lon="4.81745">
        <ele>239</ele>
        <time>2016-09-26T09:07:00Z</time>
      </trkpt>
      <trkpt lat="45.98717" lon="4.81743">
        <ele>239</ele>
        <time>2016-09-26T09:07:01Z</time>
      </trkpt>
      <trkpt lat="45.98721" lon="4.81743">
        <ele>239</ele>
        <time>2016-09-26T09:07:02Z</time>
      </trkpt>
      <trkpt lat="45.98729" lon="4.81748">
        <ele>240</ele>
        <time>2016-09-26T09:07:04Z</time>
      </trkpt>
      <trkpt lat="45.98732" lon="4.81752">
        <ele>240</ele>
        <time>2016-09-26T09:07:05Z</time>
      </trkpt>
      <trkpt lat="45.98735" lon="4.81758">
        <ele>240</ele>
        <time>2016-09-26T09:07:06Z</time>
      </trkpt>
      <trkpt lat="45.98738" lon="4.81764">
        <ele>240</ele>
        <time>2016-09-26T09:07:07Z</time>
      </trkpt>
      <trkpt lat="45.98741" lon="4.8177">
        <ele>240</ele>
        <time>2016-09-26T09:07:08Z</time>
      </trkpt>
      <trkpt lat="45.98744" lon="4.81776">
        <ele>240</ele>
        <time>2016-09-26T09:07:09Z</time>
      </trkpt>
      <trkpt lat="45.98747" lon="4.81783">
        <ele>240</ele>
        <time>2016-09-26T09:07:10Z</time>
      </trkpt>
      <trkpt lat="45.9875" lon="4.81788">
        <ele>240</ele>
        <time>2016-09-26T09:07:11Z</time>
      </trkpt>
      <trkpt lat="45.98753" lon="4.81794">
        <ele>240</ele>
        <time>2016-09-26T09:07:12Z</time>
      </trkpt>
      <trkpt lat="45.98756" lon="4.81801">
        <ele>240</ele>
        <time>2016-09-26T09:07:13Z</time>
      </trkpt>
      <trkpt lat="45.98759" lon="4.81808">
        <ele>240</ele>
        <time>2016-09-26T09:07:14Z</time>
      </trkpt>
      <trkpt lat="45.98762" lon="4.81817">
        <ele>240</ele>
        <time>2016-09-26T09:07:15Z</time>
      </trkpt>
      <trkpt lat="45.98765" lon="4.81824">
        <ele>240</ele>
        <time>2016-09-26T09:07:16Z</time>
      </trkpt>
      <trkpt lat="45.98769" lon="4.81828">
        <ele>240</ele>
        <time>2016-09-26T09:07:17Z</time>
      </trkpt>
      <trkpt lat="45.98772" lon="4.81834">
        <ele>239</ele>
        <time>2016-09-26T09:07:18Z</time>
      </trkpt>
      <trkpt lat="45.98775" lon="4.8184">
        <ele>239</ele>
        <time>2016-09-26T09:07:19Z</time>
      </trkpt>
      <trkpt lat="45.98778" lon="4.81847">
        <ele>239</ele>
        <time>2016-09-26T09:07:20Z</time>
      </trkpt>
      <trkpt lat="45.98781" lon="4.81853">
        <ele>239</ele>
        <time>2016-09-26T09:07:21Z</time>
      </trkpt>
      <trkpt lat="45.98784" lon="4.8186">
        <ele>239</ele>
        <time>2016-09-26T09:07:22Z</time>
      </trkpt>
      <trkpt lat="45.98787" lon="4.81866">
        <ele>239</ele>
        <time>2016-09-26T09:07:23Z</time>
      </trkpt>
      <trkpt lat="45.9879" lon="4.81874">
        <ele>239</ele>
        <time>2016-09-26T09:07:24Z</time>
      </trkpt>
      <trkpt lat="45.98793" lon="4.81882">
        <ele>239</ele>
        <time>2016-09-26T09:07:25Z</time>
      </trkpt>
      <trkpt lat="45.98795" lon="4.8189">
        <ele>239</ele>
        <time>2016-09-26T09:07:26Z</time>
      </trkpt>
      <trkpt lat="45.98797" lon="4.81898">
        <ele>239</ele>
        <time>2016-09-26T09:07:27Z</time>
      </trkpt>
      <trkpt lat="45.988" lon="4.81906">
        <ele>239</ele>
        <time>2016-09-26T09:07:28Z</time>
      </trkpt>
      <trkpt lat="45.98801" lon="4.81916">
        <ele>239</ele>
        <time>2016-09-26T09:07:29Z</time>
      </trkpt>
      <trkpt lat="45.98803" lon="4.81924">
        <ele>239</ele>
        <time>2016-09-26T09:07:30Z</time>
      </trkpt>
      <trkpt lat="45.98805" lon="4.81933">
        <ele>239</ele>
        <time>2016-09-26T09:07:31Z</time>
      </trkpt>
      <trkpt lat="45.98806" lon="4.81941">
        <ele>239</ele>
        <time>2016-09-26T09:07:32Z</time>
      </trkpt>
      <trkpt lat="45.98807" lon="4.81949">
        <ele>239</ele>
        <time>2016-09-26T09:07:33Z</time>
      </trkpt>
      <trkpt lat="45.98808" lon="4.81958">
        <ele>239</ele>
        <time>2016-09-26T09:07:34Z</time>
      </trkpt>
      <trkpt lat="45.98809" lon="4.81966">
        <ele>239</ele>
        <time>2016-09-26T09:07:35Z</time>
      </trkpt>
      <trkpt lat="45.98811" lon="4.81973">
        <ele>239</ele>
        <time>2016-09-26T09:07:36Z</time>
      </trkpt>
      <trkpt lat="45.98812" lon="4.81981">
        <ele>239</ele>
        <time>2016-09-26T09:07:37Z</time>
      </trkpt>
      <trkpt lat="45.98813" lon="4.81988">
        <ele>238</ele>
        <time>2016-09-26T09:07:38Z</time>
      </trkpt>
      <trkpt lat="45.98815" lon="4.81995">
        <ele>238</ele>
        <time>2016-09-26T09:07:39Z</time>
      </trkpt>
      <trkpt lat="45.98816" lon="4.82003">
        <ele>238</ele>
        <time>2016-09-26T09:07:40Z</time>
      </trkpt>
      <trkpt lat="45.98817" lon="4.8201">
        <ele>238</ele>
        <time>2016-09-26T09:07:41Z</time>
      </trkpt>
      <trkpt lat="45.98819" lon="4.82018">
        <ele>238</ele>
        <time>2016-09-26T09:07:42Z</time>
      </trkpt>
      <trkpt lat="45.98821" lon="4.82026">
        <ele>238</ele>
        <time>2016-09-26T09:07:43Z</time>
      </trkpt>
      <trkpt lat="45.98823" lon="4.82034">
        <ele>238</ele>
        <time>2016-09-26T09:07:44Z</time>
      </trkpt>
      <trkpt lat="45.98824" lon="4.82042">
        <ele>238</ele>
        <time>2016-09-26T09:07:45Z</time>
      </trkpt>
      <trkpt lat="45.98825" lon="4.8205">
        <ele>238</ele>
        <time>2016-09-26T09:07:46Z</time>
      </trkpt>
      <trkpt lat="45.98827" lon="4.82057">
        <ele>237</ele>
        <time>2016-09-26T09:07:47Z</time>
      </trkpt>
      <trkpt lat="45.98828" lon="4.82065">
        <ele>237</ele>
        <time>2016-09-26T09:07:48Z</time>
      </trkpt>
      <trkpt lat="45.98829" lon="4.82072">
        <ele>237</ele>
        <time>2016-09-26T09:07:49Z</time>
      </trkpt>
      <trkpt lat="45.98831" lon="4.8208">
        <ele>236</ele>
        <time>2016-09-26T09:07:50Z</time>
      </trkpt>
      <trkpt lat="45.98831" lon="4.82086">
        <ele>236</ele>
        <time>2016-09-26T09:07:51Z</time>
      </trkpt>
      <trkpt lat="45.98833" lon="4.82094">
        <ele>237</ele>
        <time>2016-09-26T09:07:52Z</time>
      </trkpt>
      <trkpt lat="45.98835" lon="4.82102">
        <ele>236</ele>
        <time>2016-09-26T09:07:53Z</time>
      </trkpt>
      <trkpt lat="45.98836" lon="4.82111">
        <ele>236</ele>
        <time>2016-09-26T09:07:54Z</time>
      </trkpt>
      <trkpt lat="45.98839" lon="4.82119">
        <ele>235</ele>
        <time>2016-09-26T09:07:55Z</time>
      </trkpt>
      <trkpt lat="45.9884" lon="4.82127">
        <ele>236</ele>
        <time>2016-09-26T09:07:56Z</time>
      </trkpt>
      <trkpt lat="45.98842" lon="4.82136">
        <ele>236</ele>
        <time>2016-09-26T09:07:57Z</time>
      </trkpt>
      <trkpt lat="45.98844" lon="4.82144">
        <ele>236</ele>
        <time>2016-09-26T09:07:58Z</time>
      </trkpt>
      <trkpt lat="45.98846" lon="4.82152">
        <ele>236</ele>
        <time>2016-09-26T09:07:59Z</time>
      </trkpt>
      <trkpt lat="45.98846" lon="4.82161">
        <ele>236</ele>
        <time>2016-09-26T09:08:00Z</time>
      </trkpt>
      <trkpt lat="45.98849" lon="4.82169">
        <ele>236</ele>
        <time>2016-09-26T09:08:01Z</time>
      </trkpt>
      <trkpt lat="45.98851" lon="4.82176">
        <ele>236</ele>
        <time>2016-09-26T09:08:02Z</time>
      </trkpt>
      <trkpt lat="45.98854" lon="4.82183">
        <ele>236</ele>
        <time>2016-09-26T09:08:03Z</time>
      </trkpt>
      <trkpt lat="45.98856" lon="4.82191">
        <ele>236</ele>
        <time>2016-09-26T09:08:04Z</time>
      </trkpt>
      <trkpt lat="45.98858" lon="4.82197">
        <ele>236</ele>
        <time>2016-09-26T09:08:05Z</time>
      </trkpt>
      <trkpt lat="45.98861" lon="4.82203">
        <ele>236</ele>
        <time>2016-09-26T09:08:06Z</time>
      </trkpt>
      <trkpt lat="45.98863" lon="4.82209">
        <ele>236</ele>
        <time>2016-09-26T09:08:07Z</time>
      </trkpt>
      <trkpt lat="45.98866" lon="4.82216">
        <ele>236</ele>
        <time>2016-09-26T09:08:08Z</time>
      </trkpt>
      <trkpt lat="45.98869" lon="4.82223">
        <ele>236</ele>
        <time>2016-09-26T09:08:09Z</time>
      </trkpt>
      <trkpt lat="45.98872" lon="4.8223">
        <ele>236</ele>
        <time>2016-09-26T09:08:10Z</time>
      </trkpt>
      <trkpt lat="45.98875" lon="4.82237">
        <ele>236</ele>
        <time>2016-09-26T09:08:11Z</time>
      </trkpt>
      <trkpt lat="45.98878" lon="4.82243">
        <ele>236</ele>
        <time>2016-09-26T09:08:12Z</time>
      </trkpt>
      <trkpt lat="45.98881" lon="4.82249">
        <ele>236</ele>
        <time>2016-09-26T09:08:13Z</time>
      </trkpt>
      <trkpt lat="45.98884" lon="4.82255">
        <ele>236</ele>
        <time>2016-09-26T09:08:14Z</time>
      </trkpt>
      <trkpt lat="45.98887" lon="4.82261">
        <ele>236</ele>
        <time>2016-09-26T09:08:15Z</time>
      </trkpt>
      <trkpt lat="45.9889" lon="4.82268">
        <ele>236</ele>
        <time>2016-09-26T09:08:16Z</time>
      </trkpt>
      <trkpt lat="45.98892" lon="4.82273">
        <ele>236</ele>
        <time>2016-09-26T09:08:17Z</time>
      </trkpt>
      <trkpt lat="45.98897" lon="4.82276">
        <ele>236</ele>
        <time>2016-09-26T09:08:18Z</time>
      </trkpt>
      <trkpt lat="45.98901" lon="4.82281">
        <ele>236</ele>
        <time>2016-09-26T09:08:19Z</time>
      </trkpt>
      <trkpt lat="45.98906" lon="4.82286">
        <ele>236</ele>
        <time>2016-09-26T09:08:20Z</time>
      </trkpt>
      <trkpt lat="45.9891" lon="4.82291">
        <ele>236</ele>
        <time>2016-09-26T09:08:21Z</time>
      </trkpt>
      <trkpt lat="45.98915" lon="4.82297">
        <ele>236</ele>
        <time>2016-09-26T09:08:22Z</time>
      </trkpt>
      <trkpt lat="45.9892" lon="4.82302">
        <ele>234</ele>
        <time>2016-09-26T09:08:23Z</time>
      </trkpt>
      <trkpt lat="45.98924" lon="4.82307">
        <ele>234</ele>
        <time>2016-09-26T09:08:24Z</time>
      </trkpt>
      <trkpt lat="45.98929" lon="4.82312">
        <ele>235</ele>
        <time>2016-09-26T09:08:25Z</time>
      </trkpt>
      <trkpt lat="45.98933" lon="4.82317">
        <ele>235</ele>
        <time>2016-09-26T09:08:26Z</time>
      </trkpt>
      <trkpt lat="45.98937" lon="4.82322">
        <ele>235</ele>
        <time>2016-09-26T09:08:27Z</time>
      </trkpt>
      <trkpt lat="45.98941" lon="4.82327">
        <ele>234</ele>
        <time>2016-09-26T09:08:28Z</time>
      </trkpt>
      <trkpt lat="45.98944" lon="4.82333">
        <ele>234</ele>
        <time>2016-09-26T09:08:29Z</time>
      </trkpt>
      <trkpt lat="45.98947" lon="4.8234">
        <ele>235</ele>
        <time>2016-09-26T09:08:30Z</time>
      </trkpt>
      <trkpt lat="45.9895" lon="4.82346">
        <ele>235</ele>
        <time>2016-09-26T09:08:31Z</time>
      </trkpt>
      <trkpt lat="45.98952" lon="4.82354">
        <ele>235</ele>
        <time>2016-09-26T09:08:32Z</time>
      </trkpt>
      <trkpt lat="45.98955" lon="4.8236">
        <ele>235</ele>
        <time>2016-09-26T09:08:33Z</time>
      </trkpt>
      <trkpt lat="45.98957" lon="4.82368">
        <ele>235</ele>
        <time>2016-09-26T09:08:34Z</time>
      </trkpt>
      <trkpt lat="45.9896" lon="4.82377">
        <ele>235</ele>
        <time>2016-09-26T09:08:35Z</time>
      </trkpt>
      <trkpt lat="45.98963" lon="4.82384">
        <ele>235</ele>
        <time>2016-09-26T09:08:36Z</time>
      </trkpt>
      <trkpt lat="45.98965" lon="4.82392">
        <ele>235</ele>
        <time>2016-09-26T09:08:37Z</time>
      </trkpt>
      <trkpt lat="45.98967" lon="4.824">
        <ele>235</ele>
        <time>2016-09-26T09:08:38Z</time>
      </trkpt>
      <trkpt lat="45.98969" lon="4.82408">
        <ele>235</ele>
        <time>2016-09-26T09:08:39Z</time>
      </trkpt>
      <trkpt lat="45.98971" lon="4.82416">
        <ele>235</ele>
        <time>2016-09-26T09:08:40Z</time>
      </trkpt>
      <trkpt lat="45.98972" lon="4.82425">
        <ele>236</ele>
        <time>2016-09-26T09:08:41Z</time>
      </trkpt>
      <trkpt lat="45.98973" lon="4.82435">
        <ele>236</ele>
        <time>2016-09-26T09:08:42Z</time>
      </trkpt>
      <trkpt lat="45.98974" lon="4.82442">
        <ele>236</ele>
        <time>2016-09-26T09:08:43Z</time>
      </trkpt>
      <trkpt lat="45.98976" lon="4.82449">
        <ele>236</ele>
        <time>2016-09-26T09:08:44Z</time>
      </trkpt>
      <trkpt lat="45.98978" lon="4.82455">
        <ele>236</ele>
        <time>2016-09-26T09:08:45Z</time>
      </trkpt>
      <trkpt lat="45.9898" lon="4.82461">
        <ele>236</ele>
        <time>2016-09-26T09:08:46Z</time>
      </trkpt>
      <trkpt lat="45.98981" lon="4.82468">
        <ele>236</ele>
        <time>2016-09-26T09:08:47Z</time>
      </trkpt>
      <trkpt lat="45.98984" lon="4.82473">
        <ele>236</ele>
        <time>2016-09-26T09:08:48Z</time>
      </trkpt>
      <trkpt lat="45.98987" lon="4.82479">
        <ele>236</ele>
        <time>2016-09-26T09:08:49Z</time>
      </trkpt>
      <trkpt lat="45.98989" lon="4.82485">
        <ele>236</ele>
        <time>2016-09-26T09:08:50Z</time>
      </trkpt>
      <trkpt lat="45.98991" lon="4.82492">
        <ele>236</ele>
        <time>2016-09-26T09:08:51Z</time>
      </trkpt>
      <trkpt lat="45.98994" lon="4.82497">
        <ele>235</ele>
        <time>2016-09-26T09:08:52Z</time>
      </trkpt>
      <trkpt lat="45.98999" lon="4.82502">
        <ele>235</ele>
        <time>2016-09-26T09:08:53Z</time>
      </trkpt>
      <trkpt lat="45.99002" lon="4.82508">
        <ele>235</ele>
        <time>2016-09-26T09:08:54Z</time>
      </trkpt>
      <trkpt lat="45.99006" lon="4.82513">
        <ele>235</ele>
        <time>2016-09-26T09:08:55Z</time>
      </trkpt>
      <trkpt lat="45.99009" lon="4.8252">
        <ele>235</ele>
        <time>2016-09-26T09:08:56Z</time>
      </trkpt>
      <trkpt lat="45.99012" lon="4.82527">
        <ele>235</ele>
        <time>2016-09-26T09:08:57Z</time>
      </trkpt>
      <trkpt lat="45.99016" lon="4.82534">
        <ele>235</ele>
        <time>2016-09-26T09:08:58Z</time>
      </trkpt>
      <trkpt lat="45.99019" lon="4.82541">
        <ele>235</ele>
        <time>2016-09-26T09:08:59Z</time>
      </trkpt>
      <trkpt lat="45.99023" lon="4.82547">
        <ele>235</ele>
        <time>2016-09-26T09:09:00Z</time>
      </trkpt>
      <trkpt lat="45.99028" lon="4.82552">
        <ele>235</ele>
        <time>2016-09-26T09:09:01Z</time>
      </trkpt>
      <trkpt lat="45.99032" lon="4.82557">
        <ele>235</ele>
        <time>2016-09-26T09:09:02Z</time>
      </trkpt>
      <trkpt lat="45.99036" lon="4.82562">
        <ele>235</ele>
        <time>2016-09-26T09:09:03Z</time>
      </trkpt>
      <trkpt lat="45.9904" lon="4.82565">
        <ele>235</ele>
        <time>2016-09-26T09:09:04Z</time>
      </trkpt>
      <trkpt lat="45.99045" lon="4.82569">
        <ele>235</ele>
        <time>2016-09-26T09:09:05Z</time>
      </trkpt>
      <trkpt lat="45.99051" lon="4.8257">
        <ele>235</ele>
        <time>2016-09-26T09:09:06Z</time>
      </trkpt>
      <trkpt lat="45.99055" lon="4.82574">
        <ele>235</ele>
        <time>2016-09-26T09:09:07Z</time>
      </trkpt>
      <trkpt lat="45.9906" lon="4.82575">
        <ele>235</ele>
        <time>2016-09-26T09:09:08Z</time>
      </trkpt>
      <trkpt lat="45.99065" lon="4.82576">
        <ele>235</ele>
        <time>2016-09-26T09:09:09Z</time>
      </trkpt>
      <trkpt lat="45.99073" lon="4.82581">
        <ele>235</ele>
        <time>2016-09-26T09:09:11Z</time>
      </trkpt>
      <trkpt lat="45.99075" lon="4.82585">
        <ele>235</ele>
        <time>2016-09-26T09:09:12Z</time>
      </trkpt>
      <trkpt lat="45.99077" lon="4.82596">
        <ele>235</ele>
        <time>2016-09-26T09:09:15Z</time>
      </trkpt>
      <trkpt lat="45.99075" lon="4.826">
        <ele>235</ele>
        <time>2016-09-26T09:09:16Z</time>
      </trkpt>
      <trkpt lat="45.9907" lon="4.82607">
        <ele>236</ele>
        <time>2016-09-26T09:09:18Z</time>
      </trkpt>
      <trkpt lat="45.99068" lon="4.82611">
        <ele>236</ele>
        <time>2016-09-26T09:09:19Z</time>
      </trkpt>
      <trkpt lat="45.99063" lon="4.8262">
        <ele>236</ele>
        <time>2016-09-26T09:09:21Z</time>
      </trkpt>
      <trkpt lat="45.9906" lon="4.82625">
        <ele>236</ele>
        <time>2016-09-26T09:09:22Z</time>
      </trkpt>
      <trkpt lat="45.99054" lon="4.82633">
        <ele>236</ele>
        <time>2016-09-26T09:09:24Z</time>
      </trkpt>
      <trkpt lat="45.99052" lon="4.82638">
        <ele>236</ele>
        <time>2016-09-26T09:09:25Z</time>
      </trkpt>
      <trkpt lat="45.99047" lon="4.82648">
        <ele>236</ele>
        <time>2016-09-26T09:09:27Z</time>
      </trkpt>
      <trkpt lat="45.99045" lon="4.82653">
        <ele>236</ele>
        <time>2016-09-26T09:09:28Z</time>
      </trkpt>
      <trkpt lat="45.99041" lon="4.82662">
        <ele>236</ele>
        <time>2016-09-26T09:09:30Z</time>
      </trkpt>
      <trkpt lat="45.99039" lon="4.82667">
        <ele>236</ele>
        <time>2016-09-26T09:09:31Z</time>
      </trkpt>
      <trkpt lat="45.99035" lon="4.82675">
        <ele>238</ele>
        <time>2016-09-26T09:09:33Z</time>
      </trkpt>
      <trkpt lat="45.99034" lon="4.8268">
        <ele>238</ele>
        <time>2016-09-26T09:09:34Z</time>
      </trkpt>
      <trkpt lat="45.9903" lon="4.8269">
        <ele>238</ele>
        <time>2016-09-26T09:09:36Z</time>
      </trkpt>
      <trkpt lat="45.99028" lon="4.82694">
        <ele>238</ele>
        <time>2016-09-26T09:09:37Z</time>
      </trkpt>
      <trkpt lat="45.99023" lon="4.82702">
        <ele>238</ele>
        <time>2016-09-26T09:09:39Z</time>
      </trkpt>
      <trkpt lat="45.99021" lon="4.82706">
        <ele>238</ele>
        <time>2016-09-26T09:09:40Z</time>
      </trkpt>
      <trkpt lat="45.99017" lon="4.82715">
        <ele>239</ele>
        <time>2016-09-26T09:09:42Z</time>
      </trkpt>
      <trkpt lat="45.99016" lon="4.8272">
        <ele>239</ele>
        <time>2016-09-26T09:09:43Z</time>
      </trkpt>
      <trkpt lat="45.99013" lon="4.8273">
        <ele>239</ele>
        <time>2016-09-26T09:09:45Z</time>
      </trkpt>
      <trkpt lat="45.99012" lon="4.82734">
        <ele>239</ele>
        <time>2016-09-26T09:09:46Z</time>
      </trkpt>
      <trkpt lat="45.99008" lon="4.82746">
        <ele>240</ele>
        <time>2016-09-26T09:09:49Z</time>
      </trkpt>
      <trkpt lat="45.99005" lon="4.82749">
        <ele>240</ele>
        <time>2016-09-26T09:09:50Z</time>
      </trkpt>
      <trkpt lat="45.99001" lon="4.82756">
        <ele>241</ele>
        <time>2016-09-26T09:09:52Z</time>
      </trkpt>
      <trkpt lat="45.98998" lon="4.82759">
        <ele>243</ele>
        <time>2016-09-26T09:09:53Z</time>
      </trkpt>
      <trkpt lat="45.98994" lon="4.82768">
        <ele>245</ele>
        <time>2016-09-26T09:09:55Z</time>
      </trkpt>
      <trkpt lat="45.98992" lon="4.82772">
        <ele>246</ele>
        <time>2016-09-26T09:09:56Z</time>
      </trkpt>
      <trkpt lat="45.98989" lon="4.8278">
        <ele>246</ele>
        <time>2016-09-26T09:09:58Z</time>
      </trkpt>
      <trkpt lat="45.98987" lon="4.82783">
        <ele>247</ele>
        <time>2016-09-26T09:09:59Z</time>
      </trkpt>
      <trkpt lat="45.98984" lon="4.82791">
        <ele>247</ele>
        <time>2016-09-26T09:10:01Z</time>
      </trkpt>
      <trkpt lat="45.98982" lon="4.82795">
        <ele>248</ele>
        <time>2016-09-26T09:10:02Z</time>
      </trkpt>
      <trkpt lat="45.98979" lon="4.82804">
        <ele>248</ele>
        <time>2016-09-26T09:10:04Z</time>
      </trkpt>
      <trkpt lat="45.98978" lon="4.82808">
        <ele>248</ele>
        <time>2016-09-26T09:10:05Z</time>
      </trkpt>
      <trkpt lat="45.98973" lon="4.82818">
        <ele>249</ele>
        <time>2016-09-26T09:10:08Z</time>
      </trkpt>
      <trkpt lat="45.98971" lon="4.82822">
        <ele>249</ele>
        <time>2016-09-26T09:10:09Z</time>
      </trkpt>
      <trkpt lat="45.98967" lon="4.82831">
        <ele>249</ele>
        <time>2016-09-26T09:10:12Z</time>
      </trkpt>
      <trkpt lat="45.98966" lon="4.82834">
        <ele>252</ele>
        <time>2016-09-26T09:10:13Z</time>
      </trkpt>
      <trkpt lat="45.98963" lon="4.82844">
        <ele>252</ele>
        <time>2016-09-26T09:10:16Z</time>
      </trkpt>
      <trkpt lat="45.98962" lon="4.82847">
        <ele>252</ele>
        <time>2016-09-26T09:10:17Z</time>
      </trkpt>
      <trkpt lat="45.98956" lon="4.82855">
        <ele>252</ele>
        <time>2016-09-26T09:10:20Z</time>
      </trkpt>
      <trkpt lat="45.98954" lon="4.82858">
        <ele>252</ele>
        <time>2016-09-26T09:10:21Z</time>
      </trkpt>
      <trkpt lat="45.98949" lon="4.82863">
        <ele>253</ele>
        <time>2016-09-26T09:10:23Z</time>
      </trkpt>
      <trkpt lat="45.98947" lon="4.82866">
        <ele>253</ele>
        <time>2016-09-26T09:10:24Z</time>
      </trkpt>
      <trkpt lat="45.98946" lon="4.82877">
        <ele>253</ele>
        <time>2016-09-26T09:10:27Z</time>
      </trkpt>
      <trkpt lat="45.98945" lon="4.82881">
        <ele>253</ele>
        <time>2016-09-26T09:10:28Z</time>
      </trkpt>
      <trkpt lat="45.98941" lon="4.82893">
        <ele>253</ele>
        <time>2016-09-26T09:10:31Z</time>
      </trkpt>
      <trkpt lat="45.9894" lon="4.82896">
        <ele>253</ele>
        <time>2016-09-26T09:10:32Z</time>
      </trkpt>
      <trkpt lat="45.98939" lon="4.82907">
        <ele>254</ele>
        <time>2016-09-26T09:10:35Z</time>
      </trkpt>
      <trkpt lat="45.98938" lon="4.8291">
        <ele>254</ele>
        <time>2016-09-26T09:10:36Z</time>
      </trkpt>
      <trkpt lat="45.98933" lon="4.82916">
        <ele>254</ele>
        <time>2016-09-26T09:10:39Z</time>
      </trkpt>
      <trkpt lat="45.98931" lon="4.82919">
        <ele>255</ele>
        <time>2016-09-26T09:10:40Z</time>
      </trkpt>
      <trkpt lat="45.98927" lon="4.8293">
        <ele>255</ele>
        <time>2016-09-26T09:10:43Z</time>
      </trkpt>
      <trkpt lat="45.98926" lon="4.82934">
        <ele>255</ele>
        <time>2016-09-26T09:10:44Z</time>
      </trkpt>
      <trkpt lat="45.98922" lon="4.82945">
        <ele>255</ele>
        <time>2016-09-26T09:10:47Z</time>
      </trkpt>
      <trkpt lat="45.9892" lon="4.82949">
        <ele>255</ele>
        <time>2016-09-26T09:10:48Z</time>
      </trkpt>
      <trkpt lat="45.98916" lon="4.82958">
        <ele>258</ele>
        <time>2016-09-26T09:10:51Z</time>
      </trkpt>
      <trkpt lat="45.98914" lon="4.8296">
        <ele>258</ele>
        <time>2016-09-26T09:10:52Z</time>
      </trkpt>
      <trkpt lat="45.9891" lon="4.8297">
        <ele>259</ele>
        <time>2016-09-26T09:10:55Z</time>
      </trkpt>
      <trkpt lat="45.98909" lon="4.82974">
        <ele>258</ele>
        <time>2016-09-26T09:10:56Z</time>
      </trkpt>
      <trkpt lat="45.98903" lon="4.82982">
        <ele>259</ele>
        <time>2016-09-26T09:10:59Z</time>
      </trkpt>
      <trkpt lat="45.989" lon="4.82983">
        <ele>259</ele>
        <time>2016-09-26T09:11:00Z</time>
      </trkpt>
      <trkpt lat="45.98892" lon="4.82986">
        <ele>259</ele>
        <time>2016-09-26T09:11:03Z</time>
      </trkpt>
      <trkpt lat="45.98889" lon="4.82988">
        <ele>259</ele>
        <time>2016-09-26T09:11:04Z</time>
      </trkpt>
      <trkpt lat="45.98882" lon="4.82993">
        <ele>259</ele>
        <time>2016-09-26T09:11:07Z</time>
      </trkpt>
      <trkpt lat="45.98879" lon="4.82994">
        <ele>260</ele>
        <time>2016-09-26T09:11:08Z</time>
      </trkpt>
      <trkpt lat="45.98872" lon="4.82999">
        <ele>260</ele>
        <time>2016-09-26T09:11:11Z</time>
      </trkpt>
      <trkpt lat="45.9887" lon="4.83">
        <ele>260</ele>
        <time>2016-09-26T09:11:12Z</time>
      </trkpt>
      <trkpt lat="45.98863" lon="4.83005">
        <ele>260</ele>
        <time>2016-09-26T09:11:15Z</time>
      </trkpt>
      <trkpt lat="45.9886" lon="4.83005">
        <ele>261</ele>
        <time>2016-09-26T09:11:16Z</time>
      </trkpt>
      <trkpt lat="45.98854" lon="4.83008">
        <ele>261</ele>
        <time>2016-09-26T09:11:18Z</time>
      </trkpt>
      <trkpt lat="45.98851" lon="4.83009">
        <ele>261</ele>
        <time>2016-09-26T09:11:19Z</time>
      </trkpt>
      <trkpt lat="45.98844" lon="4.83015">
        <ele>261</ele>
        <time>2016-09-26T09:11:22Z</time>
      </trkpt>
      <trkpt lat="45.98841" lon="4.83016">
        <ele>261</ele>
        <time>2016-09-26T09:11:23Z</time>
      </trkpt>
      <trkpt lat="45.98834" lon="4.8302">
        <ele>261</ele>
        <time>2016-09-26T09:11:26Z</time>
      </trkpt>
      <trkpt lat="45.98832" lon="4.83022">
        <ele>264</ele>
        <time>2016-09-26T09:11:27Z</time>
      </trkpt>
      <trkpt lat="45.98825" lon="4.83027">
        <ele>264</ele>
        <time>2016-09-26T09:11:30Z</time>
      </trkpt>
      <trkpt lat="45.98822" lon="4.83029">
        <ele>264</ele>
        <time>2016-09-26T09:11:31Z</time>
      </trkpt>
      <trkpt lat="45.98817" lon="4.83032">
        <ele>264</ele>
        <time>2016-09-26T09:11:33Z</time>
      </trkpt>
      <trkpt lat="45.98813" lon="4.83037">
        <ele>264</ele>
        <time>2016-09-26T09:11:34Z</time>
      </trkpt>
      <trkpt lat="45.98808" lon="4.83043">
        <ele>264</ele>
        <time>2016-09-26T09:11:36Z</time>
      </trkpt>
      <trkpt lat="45.98805" lon="4.83045">
        <ele>264</ele>
        <time>2016-09-26T09:11:37Z</time>
      </trkpt>
      <trkpt lat="45.98799" lon="4.83049">
        <ele>264</ele>
        <time>2016-09-26T09:11:39Z</time>
      </trkpt>
      <trkpt lat="45.98795" lon="4.83051">
        <ele>265</ele>
        <time>2016-09-26T09:11:40Z</time>
      </trkpt>
      <trkpt lat="45.98788" lon="4.83056">
        <ele>265</ele>
        <time>2016-09-26T09:11:42Z</time>
      </trkpt>
      <trkpt lat="45.98786" lon="4.83058">
        <ele>265</ele>
        <time>2016-09-26T09:11:43Z</time>
      </trkpt>
      <trkpt lat="45.9878" lon="4.83062">
        <ele>265</ele>
        <time>2016-09-26T09:11:45Z</time>
      </trkpt>
      <trkpt lat="45.98777" lon="4.83064">
        <ele>265</ele>
        <time>2016-09-26T09:11:46Z</time>
      </trkpt>
      <trkpt lat="45.98772" lon="4.83069">
        <ele>265</ele>
        <time>2016-09-26T09:11:48Z</time>
      </trkpt>
      <trkpt lat="45.98769" lon="4.83072">
        <ele>266</ele>
        <time>2016-09-26T09:11:49Z</time>
      </trkpt>
      <trkpt lat="45.98765" lon="4.83078">
        <ele>266</ele>
        <time>2016-09-26T09:11:51Z</time>
      </trkpt>
      <trkpt lat="45.98763" lon="4.83081">
        <ele>266</ele>
        <time>2016-09-26T09:11:52Z</time>
      </trkpt>
      <trkpt lat="45.98755" lon="4.83087">
        <ele>266</ele>
        <time>2016-09-26T09:11:55Z</time>
      </trkpt>
      <trkpt lat="45.98752" lon="4.8309">
        <ele>266</ele>
        <time>2016-09-26T09:11:56Z</time>
      </trkpt>
      <trkpt lat="45.98746" lon="4.83095">
        <ele>267</ele>
        <time>2016-09-26T09:11:58Z</time>
      </trkpt>
      <trkpt lat="45.98744" lon="4.83098">
        <ele>267</ele>
        <time>2016-09-26T09:11:59Z</time>
      </trkpt>
      <trkpt lat="45.98738" lon="4.83103">
        <ele>267</ele>
        <time>2016-09-26T09:12:01Z</time>
      </trkpt>
      <trkpt lat="45.98735" lon="4.83106">
        <ele>267</ele>
        <time>2016-09-26T09:12:02Z</time>
      </trkpt>
      <trkpt lat="45.98729" lon="4.83111">
        <ele>267</ele>
        <time>2016-09-26T09:12:04Z</time>
      </trkpt>
      <trkpt lat="45.98726" lon="4.83114">
        <ele>267</ele>
        <time>2016-09-26T09:12:05Z</time>
      </trkpt>
      <trkpt lat="45.9872" lon="4.8312">
        <ele>266</ele>
        <time>2016-09-26T09:12:07Z</time>
      </trkpt>
      <trkpt lat="45.98717" lon="4.83123">
        <ele>266</ele>
        <time>2016-09-26T09:12:08Z</time>
      </trkpt>
      <trkpt lat="45.9871" lon="4.83128">
        <ele>266</ele>
        <time>2016-09-26T09:12:10Z</time>
      </trkpt>
      <trkpt lat="45.98706" lon="4.83132">
        <ele>266</ele>
        <time>2016-09-26T09:12:11Z</time>
      </trkpt>
      <trkpt lat="45.98699" lon="4.83137">
        <ele>266</ele>
        <time>2016-09-26T09:12:13Z</time>
      </trkpt>
      <trkpt lat="45.98696" lon="4.8314">
        <ele>266</ele>
        <time>2016-09-26T09:12:14Z</time>
      </trkpt>
      <trkpt lat="45.9869" lon="4.83147">
        <ele>266</ele>
        <time>2016-09-26T09:12:16Z</time>
      </trkpt>
      <trkpt lat="45.98686" lon="4.83149">
        <ele>266</ele>
        <time>2016-09-26T09:12:17Z</time>
      </trkpt>
      <trkpt lat="45.98679" lon="4.83154">
        <ele>266</ele>
        <time>2016-09-26T09:12:19Z</time>
      </trkpt>
      <trkpt lat="45.98676" lon="4.83156">
        <ele>266</ele>
        <time>2016-09-26T09:12:20Z</time>
      </trkpt>
      <trkpt lat="45.98668" lon="4.83161">
        <ele>266</ele>
        <time>2016-09-26T09:12:22Z</time>
      </trkpt>
      <trkpt lat="45.98665" lon="4.83163">
        <ele>266</ele>
        <time>2016-09-26T09:12:23Z</time>
      </trkpt>
      <trkpt lat="45.98657" lon="4.83168">
        <ele>266</ele>
        <time>2016-09-26T09:12:25Z</time>
      </trkpt>
      <trkpt lat="45.98653" lon="4.83172">
        <ele>267</ele>
        <time>2016-09-26T09:12:26Z</time>
      </trkpt>
      <trkpt lat="45.9865" lon="4.83176">
        <ele>267</ele>
        <time>2016-09-26T09:12:27Z</time>
      </trkpt>
      <trkpt lat="45.98646" lon="4.83179">
        <ele>267</ele>
        <time>2016-09-26T09:12:28Z</time>
      </trkpt>
      <trkpt lat="45.98642" lon="4.83183">
        <ele>267</ele>
        <time>2016-09-26T09:12:29Z</time>
      </trkpt>
      <trkpt lat="45.98638" lon="4.83186">
        <ele>267</ele>
        <time>2016-09-26T09:12:30Z</time>
      </trkpt>
      <trkpt lat="45.98634" lon="4.8319">
        <ele>267</ele>
        <time>2016-09-26T09:12:31Z</time>
      </trkpt>
      <trkpt lat="45.9863" lon="4.83194">
        <ele>267</ele>
        <time>2016-09-26T09:12:32Z</time>
      </trkpt>
      <trkpt lat="45.98627" lon="4.83198">
        <ele>267</ele>
        <time>2016-09-26T09:12:33Z</time>
      </trkpt>
      <trkpt lat="45.98624" lon="4.83203">
        <ele>267</ele>
        <time>2016-09-26T09:12:34Z</time>
      </trkpt>
      <trkpt lat="45.9862" lon="4.83207">
        <ele>267</ele>
        <time>2016-09-26T09:12:35Z</time>
      </trkpt>
      <trkpt lat="45.98617" lon="4.83213">
        <ele>267</ele>
        <time>2016-09-26T09:12:36Z</time>
      </trkpt>
      <trkpt lat="45.9861" lon="4.83221">
        <ele>267</ele>
        <time>2016-09-26T09:12:38Z</time>
      </trkpt>
      <trkpt lat="45.98607" lon="4.83226">
        <ele>267</ele>
        <time>2016-09-26T09:12:39Z</time>
      </trkpt>
      <trkpt lat="45.98604" lon="4.8323">
        <ele>268</ele>
        <time>2016-09-26T09:12:40Z</time>
      </trkpt>
      <trkpt lat="45.986" lon="4.83234">
        <ele>268</ele>
        <time>2016-09-26T09:12:41Z</time>
      </trkpt>
      <trkpt lat="45.98597" lon="4.83239">
        <ele>268</ele>
        <time>2016-09-26T09:12:42Z</time>
      </trkpt>
      <trkpt lat="45.98594" lon="4.83244">
        <ele>268</ele>
        <time>2016-09-26T09:12:43Z</time>
      </trkpt>
      <trkpt lat="45.98591" lon="4.83249">
        <ele>268</ele>
        <time>2016-09-26T09:12:44Z</time>
      </trkpt>
      <trkpt lat="45.98587" lon="4.83253">
        <ele>268</ele>
        <time>2016-09-26T09:12:45Z</time>
      </trkpt>
      <trkpt lat="45.98584" lon="4.83258">
        <ele>268</ele>
        <time>2016-09-26T09:12:46Z</time>
      </trkpt>
      <trkpt lat="45.98581" lon="4.83263">
        <ele>269</ele>
        <time>2016-09-26T09:12:47Z</time>
      </trkpt>
      <trkpt lat="45.98577" lon="4.83268">
        <ele>269</ele>
        <time>2016-09-26T09:12:48Z</time>
      </trkpt>
      <trkpt lat="45.98573" lon="4.83272">
        <ele>269</ele>
        <time>2016-09-26T09:12:49Z</time>
      </trkpt>
      <trkpt lat="45.9857" lon="4.83277">
        <ele>269</ele>
        <time>2016-09-26T09:12:50Z</time>
      </trkpt>
      <trkpt lat="45.98566" lon="4.83281">
        <ele>269</ele>
        <time>2016-09-26T09:12:51Z</time>
      </trkpt>
      <trkpt lat="45.98562" lon="4.83286">
        <ele>269</ele>
        <time>2016-09-26T09:12:52Z</time>
      </trkpt>
      <trkpt lat="45.98559" lon="4.8329">
        <ele>269</ele>
        <time>2016-09-26T09:12:53Z</time>
      </trkpt>
      <trkpt lat="45.98555" lon="4.83296">
        <ele>269</ele>
        <time>2016-09-26T09:12:54Z</time>
      </trkpt>
      <trkpt lat="45.98552" lon="4.83301">
        <ele>269</ele>
        <time>2016-09-26T09:12:55Z</time>
      </trkpt>
      <trkpt lat="45.98548" lon="4.83306">
        <ele>269</ele>
        <time>2016-09-26T09:12:56Z</time>
      </trkpt>
      <trkpt lat="45.98544" lon="4.83311">
        <ele>269</ele>
        <time>2016-09-26T09:12:57Z</time>
      </trkpt>
      <trkpt lat="45.9854" lon="4.83317">
        <ele>269</ele>
        <time>2016-09-26T09:12:58Z</time>
      </trkpt>
      <trkpt lat="45.98537" lon="4.83321">
        <ele>269</ele>
        <time>2016-09-26T09:12:59Z</time>
      </trkpt>
      <trkpt lat="45.98533" lon="4.83326">
        <ele>269</ele>
        <time>2016-09-26T09:13:00Z</time>
      </trkpt>
      <trkpt lat="45.9853" lon="4.83331">
        <ele>269</ele>
        <time>2016-09-26T09:13:01Z</time>
      </trkpt>
      <trkpt lat="45.98523" lon="4.83339">
        <ele>270</ele>
        <time>2016-09-26T09:13:03Z</time>
      </trkpt>
      <trkpt lat="45.98519" lon="4.83343">
        <ele>270</ele>
        <time>2016-09-26T09:13:04Z</time>
      </trkpt>
      <trkpt lat="45.98516" lon="4.83347">
        <ele>270</ele>
        <time>2016-09-26T09:13:05Z</time>
      </trkpt>
      <trkpt lat="45.98512" lon="4.83351">
        <ele>270</ele>
        <time>2016-09-26T09:13:06Z</time>
      </trkpt>
      <trkpt lat="45.98508" lon="4.83356">
        <ele>270</ele>
        <time>2016-09-26T09:13:07Z</time>
      </trkpt>
      <trkpt lat="45.98504" lon="4.83361">
        <ele>269</ele>
        <time>2016-09-26T09:13:08Z</time>
      </trkpt>
      <trkpt lat="45.98501" lon="4.83365">
        <ele>269</ele>
        <time>2016-09-26T09:13:09Z</time>
      </trkpt>
      <trkpt lat="45.98497" lon="4.83369">
        <ele>270</ele>
        <time>2016-09-26T09:13:10Z</time>
      </trkpt>
      <trkpt lat="45.98493" lon="4.83373">
        <ele>270</ele>
        <time>2016-09-26T09:13:11Z</time>
      </trkpt>
      <trkpt lat="45.98489" lon="4.83378">
        <ele>269</ele>
        <time>2016-09-26T09:13:12Z</time>
      </trkpt>
      <trkpt lat="45.98486" lon="4.83382">
        <ele>269</ele>
        <time>2016-09-26T09:13:13Z</time>
      </trkpt>
      <trkpt lat="45.98482" lon="4.83387">
        <ele>269</ele>
        <time>2016-09-26T09:13:14Z</time>
      </trkpt>
      <trkpt lat="45.98479" lon="4.83392">
        <ele>269</ele>
        <time>2016-09-26T09:13:15Z</time>
      </trkpt>
      <trkpt lat="45.98476" lon="4.83397">
        <ele>269</ele>
        <time>2016-09-26T09:13:16Z</time>
      </trkpt>
      <trkpt lat="45.98473" lon="4.83401">
        <ele>269</ele>
        <time>2016-09-26T09:13:17Z</time>
      </trkpt>
      <trkpt lat="45.98469" lon="4.83406">
        <ele>269</ele>
        <time>2016-09-26T09:13:18Z</time>
      </trkpt>
      <trkpt lat="45.98466" lon="4.8341">
        <ele>269</ele>
        <time>2016-09-26T09:13:19Z</time>
      </trkpt>
      <trkpt lat="45.98463" lon="4.83415">
        <ele>269</ele>
        <time>2016-09-26T09:13:20Z</time>
      </trkpt>
      <trkpt lat="45.98456" lon="4.83423">
        <ele>269</ele>
        <time>2016-09-26T09:13:22Z</time>
      </trkpt>
      <trkpt lat="45.98453" lon="4.83427">
        <ele>269</ele>
        <time>2016-09-26T09:13:23Z</time>
      </trkpt>
      <trkpt lat="45.98447" lon="4.83436">
        <ele>268</ele>
        <time>2016-09-26T09:13:25Z</time>
      </trkpt>
      <trkpt lat="45.98444" lon="4.83439">
        <ele>268</ele>
        <time>2016-09-26T09:13:26Z</time>
      </trkpt>
      <trkpt lat="45.98441" lon="4.83444">
        <ele>268</ele>
        <time>2016-09-26T09:13:27Z</time>
      </trkpt>
      <trkpt lat="45.98437" lon="4.83448">
        <ele>268</ele>
        <time>2016-09-26T09:13:28Z</time>
      </trkpt>
      <trkpt lat="45.98434" lon="4.83453">
        <ele>268</ele>
        <time>2016-09-26T09:13:29Z</time>
      </trkpt>
      <trkpt lat="45.9843" lon="4.83458">
        <ele>268</ele>
        <time>2016-09-26T09:13:30Z</time>
      </trkpt>
      <trkpt lat="45.98427" lon="4.83463">
        <ele>268</ele>
        <time>2016-09-26T09:13:31Z</time>
      </trkpt>
      <trkpt lat="45.98423" lon="4.83468">
        <ele>268</ele>
        <time>2016-09-26T09:13:32Z</time>
      </trkpt>
      <trkpt lat="45.9842" lon="4.83473">
        <ele>268</ele>
        <time>2016-09-26T09:13:33Z</time>
      </trkpt>
      <trkpt lat="45.98416" lon="4.83478">
        <ele>269</ele>
        <time>2016-09-26T09:13:34Z</time>
      </trkpt>
      <trkpt lat="45.98412" lon="4.83483">
        <ele>269</ele>
        <time>2016-09-26T09:13:35Z</time>
      </trkpt>
      <trkpt lat="45.98408" lon="4.83488">
        <ele>269</ele>
        <time>2016-09-26T09:13:36Z</time>
      </trkpt>
      <trkpt lat="45.98405" lon="4.83493">
        <ele>269</ele>
        <time>2016-09-26T09:13:37Z</time>
      </trkpt>
      <trkpt lat="45.98401" lon="4.83498">
        <ele>269</ele>
        <time>2016-09-26T09:13:38Z</time>
      </trkpt>
      <trkpt lat="45.98397" lon="4.83503">
        <ele>269</ele>
        <time>2016-09-26T09:13:39Z</time>
      </trkpt>
      <trkpt lat="45.98394" lon="4.83508">
        <ele>269</ele>
        <time>2016-09-26T09:13:40Z</time>
      </trkpt>
      <trkpt lat="45.9839" lon="4.83513">
        <ele>269</ele>
        <time>2016-09-26T09:13:41Z</time>
      </trkpt>
      <trkpt lat="45.98387" lon="4.83518">
        <ele>269</ele>
        <time>2016-09-26T09:13:42Z</time>
      </trkpt>
      <trkpt lat="45.98383" lon="4.83524">
        <ele>269</ele>
        <time>2016-09-26T09:13:43Z</time>
      </trkpt>
      <trkpt lat="45.9838" lon="4.83529">
        <ele>269</ele>
        <time>2016-09-26T09:13:44Z</time>
      </trkpt>
      <trkpt lat="45.98376" lon="4.83534">
        <ele>269</ele>
        <time>2016-09-26T09:13:45Z</time>
      </trkpt>
      <trkpt lat="45.98373" lon="4.83539">
        <ele>269</ele>
        <time>2016-09-26T09:13:46Z</time>
      </trkpt>
      <trkpt lat="45.98369" lon="4.83544">
        <ele>269</ele>
        <time>2016-09-26T09:13:47Z</time>
      </trkpt>
      <trkpt lat="45.98366" lon="4.83549">
        <ele>269</ele>
        <time>2016-09-26T09:13:48Z</time>
      </trkpt>
      <trkpt lat="45.98363" lon="4.83554">
        <ele>269</ele>
        <time>2016-09-26T09:13:49Z</time>
      </trkpt>
      <trkpt lat="45.98359" lon="4.8356">
        <ele>269</ele>
        <time>2016-09-26T09:13:50Z</time>
      </trkpt>
      <trkpt lat="45.98355" lon="4.83564">
        <ele>269</ele>
        <time>2016-09-26T09:13:51Z</time>
      </trkpt>
      <trkpt lat="45.98352" lon="4.83569">
        <ele>269</ele>
        <time>2016-09-26T09:13:52Z</time>
      </trkpt>
      <trkpt lat="45.98348" lon="4.83575">
        <ele>269</ele>
        <time>2016-09-26T09:13:53Z</time>
      </trkpt>
      <trkpt lat="45.98345" lon="4.8358">
        <ele>270</ele>
        <time>2016-09-26T09:13:54Z</time>
      </trkpt>
      <trkpt lat="45.98341" lon="4.83584">
        <ele>270</ele>
        <time>2016-09-26T09:13:55Z</time>
      </trkpt>
      <trkpt lat="45.98338" lon="4.83588">
        <ele>270</ele>
        <time>2016-09-26T09:13:56Z</time>
      </trkpt>
      <trkpt lat="45.98334" lon="4.83593">
        <ele>270</ele>
        <time>2016-09-26T09:13:57Z</time>
      </trkpt>
      <trkpt lat="45.98331" lon="4.83598">
        <ele>271</ele>
        <time>2016-09-26T09:13:58Z</time>
      </trkpt>
      <trkpt lat="45.98328" lon="4.83603">
        <ele>271</ele>
        <time>2016-09-26T09:13:59Z</time>
      </trkpt>
      <trkpt lat="45.98325" lon="4.83608">
        <ele>271</ele>
        <time>2016-09-26T09:14:00Z</time>
      </trkpt>
      <trkpt lat="45.98322" lon="4.83613">
        <ele>271</ele>
        <time>2016-09-26T09:14:01Z</time>
      </trkpt>
      <trkpt lat="45.98319" lon="4.83619">
        <ele>271</ele>
        <time>2016-09-26T09:14:02Z</time>
      </trkpt>
      <trkpt lat="45.98316" lon="4.83624">
        <ele>271</ele>
        <time>2016-09-26T09:14:03Z</time>
      </trkpt>
      <trkpt lat="45.98313" lon="4.83629">
        <ele>271</ele>
        <time>2016-09-26T09:14:04Z</time>
      </trkpt>
      <trkpt lat="45.9831" lon="4.83635">
        <ele>271</ele>
        <time>2016-09-26T09:14:05Z</time>
      </trkpt>
      <trkpt lat="45.98307" lon="4.8364">
        <ele>271</ele>
        <time>2016-09-26T09:14:06Z</time>
      </trkpt>
      <trkpt lat="45.98304" lon="4.83646">
        <ele>271</ele>
        <time>2016-09-26T09:14:07Z</time>
      </trkpt>
      <trkpt lat="45.98301" lon="4.83653">
        <ele>271</ele>
        <time>2016-09-26T09:14:08Z</time>
      </trkpt>
      <trkpt lat="45.98298" lon="4.8366">
        <ele>271</ele>
        <time>2016-09-26T09:14:09Z</time>
      </trkpt>
      <trkpt lat="45.98296" lon="4.83667">
        <ele>272</ele>
        <time>2016-09-26T09:14:10Z</time>
      </trkpt>
      <trkpt lat="45.98293" lon="4.83675">
        <ele>272</ele>
        <time>2016-09-26T09:14:11Z</time>
      </trkpt>
      <trkpt lat="45.9829" lon="4.83681">
        <ele>272</ele>
        <time>2016-09-26T09:14:12Z</time>
      </trkpt>
      <trkpt lat="45.98288" lon="4.83688">
        <ele>272</ele>
        <time>2016-09-26T09:14:13Z</time>
      </trkpt>
      <trkpt lat="45.98285" lon="4.83695">
        <ele>272</ele>
        <time>2016-09-26T09:14:14Z</time>
      </trkpt>
      <trkpt lat="45.98283" lon="4.83701">
        <ele>272</ele>
        <time>2016-09-26T09:14:15Z</time>
      </trkpt>
      <trkpt lat="45.98281" lon="4.83708">
        <ele>272</ele>
        <time>2016-09-26T09:14:16Z</time>
      </trkpt>
      <trkpt lat="45.98279" lon="4.83714">
        <ele>272</ele>
        <time>2016-09-26T09:14:17Z</time>
      </trkpt>
      <trkpt lat="45.98277" lon="4.83719">
        <ele>272</ele>
        <time>2016-09-26T09:14:18Z</time>
      </trkpt>
      <trkpt lat="45.98275" lon="4.83725">
        <ele>272</ele>
        <time>2016-09-26T09:14:19Z</time>
      </trkpt>
      <trkpt lat="45.98273" lon="4.83731">
        <ele>272</ele>
        <time>2016-09-26T09:14:20Z</time>
      </trkpt>
      <trkpt lat="45.98271" lon="4.83738">
        <ele>272</ele>
        <time>2016-09-26T09:14:21Z</time>
      </trkpt>
      <trkpt lat="45.98268" lon="4.83745">
        <ele>272</ele>
        <time>2016-09-26T09:14:22Z</time>
      </trkpt>
      <trkpt lat="45.98266" lon="4.83752">
        <ele>272</ele>
        <time>2016-09-26T09:14:23Z</time>
      </trkpt>
      <trkpt lat="45.98263" lon="4.83759">
        <ele>272</ele>
        <time>2016-09-26T09:14:24Z</time>
      </trkpt>
      <trkpt lat="45.98261" lon="4.83766">
        <ele>272</ele>
        <time>2016-09-26T09:14:25Z</time>
      </trkpt>
      <trkpt lat="45.9826" lon="4.83773">
        <ele>272</ele>
        <time>2016-09-26T09:14:26Z</time>
      </trkpt>
      <trkpt lat="45.98258" lon="4.83779">
        <ele>272</ele>
        <time>2016-09-26T09:14:27Z</time>
      </trkpt>
      <trkpt lat="45.98255" lon="4.83785">
        <ele>272</ele>
        <time>2016-09-26T09:14:28Z</time>
      </trkpt>
      <trkpt lat="45.98253" lon="4.83792">
        <ele>272</ele>
        <time>2016-09-26T09:14:29Z</time>
      </trkpt>
      <trkpt lat="45.98251" lon="4.83799">
        <ele>272</ele>
        <time>2016-09-26T09:14:30Z</time>
      </trkpt>
      <trkpt lat="45.98249" lon="4.83805">
        <ele>272</ele>
        <time>2016-09-26T09:14:31Z</time>
      </trkpt>
      <trkpt lat="45.98247" lon="4.83812">
        <ele>272</ele>
        <time>2016-09-26T09:14:32Z</time>
      </trkpt>
      <trkpt lat="45.98245" lon="4.83818">
        <ele>272</ele>
        <time>2016-09-26T09:14:33Z</time>
      </trkpt>
      <trkpt lat="45.98243" lon="4.83825">
        <ele>272</ele>
        <time>2016-09-26T09:14:34Z</time>
      </trkpt>
      <trkpt lat="45.98241" lon="4.83832">
        <ele>272</ele>
        <time>2016-09-26T09:14:35Z</time>
      </trkpt>
      <trkpt lat="45.98238" lon="4.83839">
        <ele>272</ele>
        <time>2016-09-26T09:14:36Z</time>
      </trkpt>
      <trkpt lat="45.98236" lon="4.83846">
        <ele>272</ele>
        <time>2016-09-26T09:14:37Z</time>
      </trkpt>
      <trkpt lat="45.98233" lon="4.83853">
        <ele>272</ele>
        <time>2016-09-26T09:14:38Z</time>
      </trkpt>
      <trkpt lat="45.98231" lon="4.83859">
        <ele>272</ele>
        <time>2016-09-26T09:14:39Z</time>
      </trkpt>
      <trkpt lat="45.98229" lon="4.83864">
        <ele>272</ele>
        <time>2016-09-26T09:14:40Z</time>
      </trkpt>
      <trkpt lat="45.98225" lon="4.8387">
        <ele>272</ele>
        <time>2016-09-26T09:14:41Z</time>
      </trkpt>
      <trkpt lat="45.98223" lon="4.83875">
        <ele>272</ele>
        <time>2016-09-26T09:14:42Z</time>
      </trkpt>
      <trkpt lat="45.98221" lon="4.83882">
        <ele>272</ele>
        <time>2016-09-26T09:14:43Z</time>
      </trkpt>
      <trkpt lat="45.98219" lon="4.83888">
        <ele>272</ele>
        <time>2016-09-26T09:14:44Z</time>
      </trkpt>
      <trkpt lat="45.98217" lon="4.83895">
        <ele>273</ele>
        <time>2016-09-26T09:14:45Z</time>
      </trkpt>
      <trkpt lat="45.98215" lon="4.83902">
        <ele>273</ele>
        <time>2016-09-26T09:14:46Z</time>
      </trkpt>
      <trkpt lat="45.98213" lon="4.83908">
        <ele>273</ele>
        <time>2016-09-26T09:14:47Z</time>
      </trkpt>
      <trkpt lat="45.98211" lon="4.83915">
        <ele>273</ele>
        <time>2016-09-26T09:14:48Z</time>
      </trkpt>
      <trkpt lat="45.98208" lon="4.83921">
        <ele>273</ele>
        <time>2016-09-26T09:14:49Z</time>
      </trkpt>
      <trkpt lat="45.98206" lon="4.83927">
        <ele>273</ele>
        <time>2016-09-26T09:14:50Z</time>
      </trkpt>
      <trkpt lat="45.98204" lon="4.83934">
        <ele>273</ele>
        <time>2016-09-26T09:14:51Z</time>
      </trkpt>
      <trkpt lat="45.98202" lon="4.83941">
        <ele>273</ele>
        <time>2016-09-26T09:14:52Z</time>
      </trkpt>
      <trkpt lat="45.98199" lon="4.83947">
        <ele>273</ele>
        <time>2016-09-26T09:14:53Z</time>
      </trkpt>
      <trkpt lat="45.98197" lon="4.83953">
        <ele>273</ele>
        <time>2016-09-26T09:14:54Z</time>
      </trkpt>
      <trkpt lat="45.98195" lon="4.83959">
        <ele>273</ele>
        <time>2016-09-26T09:14:55Z</time>
      </trkpt>
      <trkpt lat="45.98193" lon="4.83965">
        <ele>273</ele>
        <time>2016-09-26T09:14:56Z</time>
      </trkpt>
      <trkpt lat="45.98188" lon="4.83975">
        <ele>273</ele>
        <time>2016-09-26T09:14:58Z</time>
      </trkpt>
      <trkpt lat="45.98186" lon="4.83981">
        <ele>273</ele>
        <time>2016-09-26T09:14:59Z</time>
      </trkpt>
      <trkpt lat="45.98183" lon="4.83988">
        <ele>273</ele>
        <time>2016-09-26T09:15:00Z</time>
      </trkpt>
      <trkpt lat="45.9818" lon="4.83995">
        <ele>273</ele>
        <time>2016-09-26T09:15:01Z</time>
      </trkpt>
      <trkpt lat="45.98178" lon="4.84002">
        <ele>273</ele>
        <time>2016-09-26T09:15:02Z</time>
      </trkpt>
      <trkpt lat="45.98175" lon="4.84009">
        <ele>273</ele>
        <time>2016-09-26T09:15:03Z</time>
      </trkpt>
      <trkpt lat="45.98172" lon="4.84016">
        <ele>273</ele>
        <time>2016-09-26T09:15:04Z</time>
      </trkpt>
      <trkpt lat="45.98168" lon="4.84022">
        <ele>273</ele>
        <time>2016-09-26T09:15:05Z</time>
      </trkpt>
      <trkpt lat="45.98165" lon="4.84028">
        <ele>273</ele>
        <time>2016-09-26T09:15:06Z</time>
      </trkpt>
      <trkpt lat="45.98162" lon="4.84034">
        <ele>273</ele>
        <time>2016-09-26T09:15:07Z</time>
      </trkpt>
      <trkpt lat="45.98159" lon="4.84039">
        <ele>273</ele>
        <time>2016-09-26T09:15:08Z</time>
      </trkpt>
      <trkpt lat="45.98156" lon="4.84044">
        <ele>273</ele>
        <time>2016-09-26T09:15:09Z</time>
      </trkpt>
      <trkpt lat="45.98153" lon="4.84049">
        <ele>273</ele>
        <time>2016-09-26T09:15:10Z</time>
      </trkpt>
      <trkpt lat="45.98149" lon="4.84056">
        <ele>273</ele>
        <time>2016-09-26T09:15:11Z</time>
      </trkpt>
      <trkpt lat="45.98143" lon="4.84065">
        <ele>273</ele>
        <time>2016-09-26T09:15:13Z</time>
      </trkpt>
      <trkpt lat="45.9814" lon="4.8407">
        <ele>273</ele>
        <time>2016-09-26T09:15:14Z</time>
      </trkpt>
      <trkpt lat="45.98136" lon="4.84075">
        <ele>273</ele>
        <time>2016-09-26T09:15:15Z</time>
      </trkpt>
      <trkpt lat="45.98132" lon="4.84079">
        <ele>273</ele>
        <time>2016-09-26T09:15:16Z</time>
      </trkpt>
      <trkpt lat="45.98129" lon="4.84083">
        <ele>273</ele>
        <time>2016-09-26T09:15:17Z</time>
      </trkpt>
      <trkpt lat="45.98125" lon="4.84087">
        <ele>273</ele>
        <time>2016-09-26T09:15:18Z</time>
      </trkpt>
      <trkpt lat="45.98121" lon="4.84091">
        <ele>273</ele>
        <time>2016-09-26T09:15:19Z</time>
      </trkpt>
      <trkpt lat="45.98117" lon="4.84095">
        <ele>273</ele>
        <time>2016-09-26T09:15:20Z</time>
      </trkpt>
      <trkpt lat="45.98113" lon="4.841">
        <ele>273</ele>
        <time>2016-09-26T09:15:21Z</time>
      </trkpt>
      <trkpt lat="45.98108" lon="4.84104">
        <ele>273</ele>
        <time>2016-09-26T09:15:22Z</time>
      </trkpt>
      <trkpt lat="45.98104" lon="4.84109">
        <ele>273</ele>
        <time>2016-09-26T09:15:23Z</time>
      </trkpt>
      <trkpt lat="45.981" lon="4.84113">
        <ele>273</ele>
        <time>2016-09-26T09:15:24Z</time>
      </trkpt>
      <trkpt lat="45.98095" lon="4.84117">
        <ele>273</ele>
        <time>2016-09-26T09:15:25Z</time>
      </trkpt>
      <trkpt lat="45.98091" lon="4.84121">
        <ele>273</ele>
        <time>2016-09-26T09:15:26Z</time>
      </trkpt>
      <trkpt lat="45.98087" lon="4.84124">
        <ele>273</ele>
        <time>2016-09-26T09:15:27Z</time>
      </trkpt>
      <trkpt lat="45.98083" lon="4.84128">
        <ele>273</ele>
        <time>2016-09-26T09:15:28Z</time>
      </trkpt>
      <trkpt lat="45.98079" lon="4.84132">
        <ele>273</ele>
        <time>2016-09-26T09:15:29Z</time>
      </trkpt>
      <trkpt lat="45.98075" lon="4.84136">
        <ele>273</ele>
        <time>2016-09-26T09:15:30Z</time>
      </trkpt>
      <trkpt lat="45.98071" lon="4.84141">
        <ele>273</ele>
        <time>2016-09-26T09:15:31Z</time>
      </trkpt>
      <trkpt lat="45.98066" lon="4.84145">
        <ele>273</ele>
        <time>2016-09-26T09:15:32Z</time>
      </trkpt>
      <trkpt lat="45.98062" lon="4.84148">
        <ele>273</ele>
        <time>2016-09-26T09:15:33Z</time>
      </trkpt>
      <trkpt lat="45.98058" lon="4.84153">
        <ele>273</ele>
        <time>2016-09-26T09:15:34Z</time>
      </trkpt>
      <trkpt lat="45.98053" lon="4.84157">
        <ele>273</ele>
        <time>2016-09-26T09:15:35Z</time>
      </trkpt>
      <trkpt lat="45.98049" lon="4.84162">
        <ele>273</ele>
        <time>2016-09-26T09:15:36Z</time>
      </trkpt>
      <trkpt lat="45.98044" lon="4.84166">
        <ele>273</ele>
        <time>2016-09-26T09:15:37Z</time>
      </trkpt>
      <trkpt lat="45.98039" lon="4.8417">
        <ele>273</ele>
        <time>2016-09-26T09:15:38Z</time>
      </trkpt>
      <trkpt lat="45.98034" lon="4.84174">
        <ele>273</ele>
        <time>2016-09-26T09:15:39Z</time>
      </trkpt>
      <trkpt lat="45.98029" lon="4.84179">
        <ele>274</ele>
        <time>2016-09-26T09:15:40Z</time>
      </trkpt>
      <trkpt lat="45.98025" lon="4.84183">
        <ele>274</ele>
        <time>2016-09-26T09:15:41Z</time>
      </trkpt>
      <trkpt lat="45.9802" lon="4.84187">
        <ele>274</ele>
        <time>2016-09-26T09:15:42Z</time>
      </trkpt>
      <trkpt lat="45.98015" lon="4.8419">
        <ele>274</ele>
        <time>2016-09-26T09:15:43Z</time>
      </trkpt>
      <trkpt lat="45.9801" lon="4.84195">
        <ele>274</ele>
        <time>2016-09-26T09:15:44Z</time>
      </trkpt>
      <trkpt lat="45.98005" lon="4.84199">
        <ele>274</ele>
        <time>2016-09-26T09:15:45Z</time>
      </trkpt>
      <trkpt lat="45.98" lon="4.84204">
        <ele>274</ele>
        <time>2016-09-26T09:15:46Z</time>
      </trkpt>
      <trkpt lat="45.97996" lon="4.84208">
        <ele>274</ele>
        <time>2016-09-26T09:15:47Z</time>
      </trkpt>
      <trkpt lat="45.97992" lon="4.84213">
        <ele>274</ele>
        <time>2016-09-26T09:15:48Z</time>
      </trkpt>
      <trkpt lat="45.97987" lon="4.84217">
        <ele>274</ele>
        <time>2016-09-26T09:15:49Z</time>
      </trkpt>
      <trkpt lat="45.97983" lon="4.84221">
        <ele>274</ele>
        <time>2016-09-26T09:15:50Z</time>
      </trkpt>
      <trkpt lat="45.97979" lon="4.84224">
        <ele>274</ele>
        <time>2016-09-26T09:15:51Z</time>
      </trkpt>
      <trkpt lat="45.97975" lon="4.84228">
        <ele>274</ele>
        <time>2016-09-26T09:15:52Z</time>
      </trkpt>
      <trkpt lat="45.97971" lon="4.84232">
        <ele>274</ele>
        <time>2016-09-26T09:15:53Z</time>
      </trkpt>
      <trkpt lat="45.97968" lon="4.84235">
        <ele>274</ele>
        <time>2016-09-26T09:15:54Z</time>
      </trkpt>
      <trkpt lat="45.97964" lon="4.84239">
        <ele>274</ele>
        <time>2016-09-26T09:15:55Z</time>
      </trkpt>
      <trkpt lat="45.9796" lon="4.84243">
        <ele>274</ele>
        <time>2016-09-26T09:15:56Z</time>
      </trkpt>
      <trkpt lat="45.97952" lon="4.84249">
        <ele>275</ele>
        <time>2016-09-26T09:15:58Z</time>
      </trkpt>
      <trkpt lat="45.97948" lon="4.84253">
        <ele>275</ele>
        <time>2016-09-26T09:15:59Z</time>
      </trkpt>
      <trkpt lat="45.97943" lon="4.84258">
        <ele>275</ele>
        <time>2016-09-26T09:16:00Z</time>
      </trkpt>
      <trkpt lat="45.97939" lon="4.84262">
        <ele>275</ele>
        <time>2016-09-26T09:16:01Z</time>
      </trkpt>
      <trkpt lat="45.97935" lon="4.84268">
        <ele>275</ele>
        <time>2016-09-26T09:16:02Z</time>
      </trkpt>
      <trkpt lat="45.97932" lon="4.84274">
        <ele>275</ele>
        <time>2016-09-26T09:16:03Z</time>
      </trkpt>
      <trkpt lat="45.97929" lon="4.8428">
        <ele>275</ele>
        <time>2016-09-26T09:16:04Z</time>
      </trkpt>
      <trkpt lat="45.97927" lon="4.84287">
        <ele>275</ele>
        <time>2016-09-26T09:16:05Z</time>
      </trkpt>
      <trkpt lat="45.97926" lon="4.84293">
        <ele>275</ele>
        <time>2016-09-26T09:16:06Z</time>
      </trkpt>
      <trkpt lat="45.97926" lon="4.843">
        <ele>275</ele>
        <time>2016-09-26T09:16:07Z</time>
      </trkpt>
      <trkpt lat="45.97926" lon="4.84306">
        <ele>275</ele>
        <time>2016-09-26T09:16:08Z</time>
      </trkpt>
      <trkpt lat="45.97928" lon="4.84313">
        <ele>275</ele>
        <time>2016-09-26T09:16:09Z</time>
      </trkpt>
      <trkpt lat="45.97929" lon="4.84319">
        <ele>275</ele>
        <time>2016-09-26T09:16:10Z</time>
      </trkpt>
      <trkpt lat="45.9793" lon="4.84327">
        <ele>275</ele>
        <time>2016-09-26T09:16:11Z</time>
      </trkpt>
      <trkpt lat="45.97931" lon="4.84335">
        <ele>275</ele>
        <time>2016-09-26T09:16:12Z</time>
      </trkpt>
      <trkpt lat="45.97932" lon="4.84343">
        <ele>275</ele>
        <time>2016-09-26T09:16:13Z</time>
      </trkpt>
      <trkpt lat="45.97934" lon="4.84351">
        <ele>275</ele>
        <time>2016-09-26T09:16:14Z</time>
      </trkpt>
      <trkpt lat="45.97936" lon="4.8436">
        <ele>275</ele>
        <time>2016-09-26T09:16:15Z</time>
      </trkpt>
      <trkpt lat="45.97937" lon="4.84369">
        <ele>275</ele>
        <time>2016-09-26T09:16:16Z</time>
      </trkpt>
      <trkpt lat="45.97939" lon="4.84377">
        <ele>275</ele>
        <time>2016-09-26T09:16:17Z</time>
      </trkpt>
      <trkpt lat="45.9794" lon="4.84385">
        <ele>275</ele>
        <time>2016-09-26T09:16:18Z</time>
      </trkpt>
      <trkpt lat="45.97941" lon="4.84392">
        <ele>275</ele>
        <time>2016-09-26T09:16:19Z</time>
      </trkpt>
      <trkpt lat="45.97942" lon="4.84399">
        <ele>275</ele>
        <time>2016-09-26T09:16:20Z</time>
      </trkpt>
      <trkpt lat="45.97943" lon="4.84406">
        <ele>275</ele>
        <time>2016-09-26T09:16:21Z</time>
      </trkpt>
      <trkpt lat="45.97945" lon="4.84414">
        <ele>275</ele>
        <time>2016-09-26T09:16:22Z</time>
      </trkpt>
      <trkpt lat="45.97946" lon="4.84421">
        <ele>275</ele>
        <time>2016-09-26T09:16:23Z</time>
      </trkpt>
      <trkpt lat="45.97947" lon="4.84428">
        <ele>275</ele>
        <time>2016-09-26T09:16:24Z</time>
      </trkpt>
      <trkpt lat="45.97948" lon="4.84435">
        <ele>275</ele>
        <time>2016-09-26T09:16:25Z</time>
      </trkpt>
      <trkpt lat="45.97949" lon="4.84442">
        <ele>275</ele>
        <time>2016-09-26T09:16:26Z</time>
      </trkpt>
      <trkpt lat="45.9795" lon="4.84449">
        <ele>275</ele>
        <time>2016-09-26T09:16:27Z</time>
      </trkpt>
      <trkpt lat="45.9795" lon="4.84457">
        <ele>275</ele>
        <time>2016-09-26T09:16:28Z</time>
      </trkpt>
      <trkpt lat="45.97952" lon="4.84465">
        <ele>275</ele>
        <time>2016-09-26T09:16:29Z</time>
      </trkpt>
      <trkpt lat="45.97954" lon="4.84472">
        <ele>275</ele>
        <time>2016-09-26T09:16:30Z</time>
      </trkpt>
      <trkpt lat="45.97955" lon="4.8448">
        <ele>275</ele>
        <time>2016-09-26T09:16:31Z</time>
      </trkpt>
      <trkpt lat="45.97957" lon="4.84488">
        <ele>275</ele>
        <time>2016-09-26T09:16:32Z</time>
      </trkpt>
      <trkpt lat="45.97958" lon="4.84496">
        <ele>275</ele>
        <time>2016-09-26T09:16:33Z</time>
      </trkpt>
      <trkpt lat="45.97959" lon="4.84504">
        <ele>275</ele>
        <time>2016-09-26T09:16:34Z</time>
      </trkpt>
      <trkpt lat="45.97961" lon="4.84512">
        <ele>275</ele>
        <time>2016-09-26T09:16:35Z</time>
      </trkpt>
      <trkpt lat="45.97962" lon="4.84521">
        <ele>275</ele>
        <time>2016-09-26T09:16:36Z</time>
      </trkpt>
      <trkpt lat="45.97964" lon="4.8453">
        <ele>275</ele>
        <time>2016-09-26T09:16:37Z</time>
      </trkpt>
      <trkpt lat="45.97965" lon="4.84538">
        <ele>275</ele>
        <time>2016-09-26T09:16:38Z</time>
      </trkpt>
      <trkpt lat="45.97967" lon="4.84546">
        <ele>275</ele>
        <time>2016-09-26T09:16:39Z</time>
      </trkpt>
      <trkpt lat="45.97968" lon="4.84554">
        <ele>275</ele>
        <time>2016-09-26T09:16:40Z</time>
      </trkpt>
      <trkpt lat="45.97969" lon="4.84562">
        <ele>275</ele>
        <time>2016-09-26T09:16:41Z</time>
      </trkpt>
      <trkpt lat="45.97971" lon="4.84569">
        <ele>275</ele>
        <time>2016-09-26T09:16:42Z</time>
      </trkpt>
      <trkpt lat="45.97972" lon="4.84576">
        <ele>275</ele>
        <time>2016-09-26T09:16:43Z</time>
      </trkpt>
      <trkpt lat="45.97973" lon="4.84583">
        <ele>275</ele>
        <time>2016-09-26T09:16:44Z</time>
      </trkpt>
      <trkpt lat="45.97974" lon="4.84591">
        <ele>274</ele>
        <time>2016-09-26T09:16:45Z</time>
      </trkpt>
      <trkpt lat="45.97976" lon="4.84598">
        <ele>275</ele>
        <time>2016-09-26T09:16:46Z</time>
      </trkpt>
      <trkpt lat="45.97977" lon="4.84606">
        <ele>275</ele>
        <time>2016-09-26T09:16:47Z</time>
      </trkpt>
      <trkpt lat="45.97978" lon="4.84615">
        <ele>275</ele>
        <time>2016-09-26T09:16:48Z</time>
      </trkpt>
      <trkpt lat="45.9798" lon="4.84623">
        <ele>275</ele>
        <time>2016-09-26T09:16:49Z</time>
      </trkpt>
      <trkpt lat="45.97981" lon="4.84631">
        <ele>275</ele>
        <time>2016-09-26T09:16:50Z</time>
      </trkpt>
      <trkpt lat="45.97983" lon="4.84639">
        <ele>275</ele>
        <time>2016-09-26T09:16:51Z</time>
      </trkpt>
      <trkpt lat="45.97984" lon="4.84647">
        <ele>274</ele>
        <time>2016-09-26T09:16:52Z</time>
      </trkpt>
      <trkpt lat="45.97985" lon="4.84654">
        <ele>274</ele>
        <time>2016-09-26T09:16:53Z</time>
      </trkpt>
      <trkpt lat="45.97986" lon="4.84662">
        <ele>274</ele>
        <time>2016-09-26T09:16:54Z</time>
      </trkpt>
      <trkpt lat="45.97987" lon="4.8467">
        <ele>275</ele>
        <time>2016-09-26T09:16:55Z</time>
      </trkpt>
      <trkpt lat="45.97988" lon="4.84678">
        <ele>275</ele>
        <time>2016-09-26T09:16:56Z</time>
      </trkpt>
      <trkpt lat="45.97989" lon="4.84685">
        <ele>275</ele>
        <time>2016-09-26T09:16:57Z</time>
      </trkpt>
      <trkpt lat="45.9799" lon="4.84692">
        <ele>275</ele>
        <time>2016-09-26T09:16:58Z</time>
      </trkpt>
      <trkpt lat="45.9799" lon="4.847">
        <ele>275</ele>
        <time>2016-09-26T09:16:59Z</time>
      </trkpt>
      <trkpt lat="45.97991" lon="4.84708">
        <ele>275</ele>
        <time>2016-09-26T09:17:00Z</time>
      </trkpt>
      <trkpt lat="45.97991" lon="4.84717">
        <ele>275</ele>
        <time>2016-09-26T09:17:01Z</time>
      </trkpt>
      <trkpt lat="45.97992" lon="4.84725">
        <ele>275</ele>
        <time>2016-09-26T09:17:02Z</time>
      </trkpt>
      <trkpt lat="45.97992" lon="4.84733">
        <ele>275</ele>
        <time>2016-09-26T09:17:03Z</time>
      </trkpt>
      <trkpt lat="45.97993" lon="4.8474">
        <ele>275</ele>
        <time>2016-09-26T09:17:04Z</time>
      </trkpt>
      <trkpt lat="45.97993" lon="4.84748">
        <ele>275</ele>
        <time>2016-09-26T09:17:05Z</time>
      </trkpt>
      <trkpt lat="45.97994" lon="4.84755">
        <ele>275</ele>
        <time>2016-09-26T09:17:06Z</time>
      </trkpt>
      <trkpt lat="45.97994" lon="4.84762">
        <ele>275</ele>
        <time>2016-09-26T09:17:07Z</time>
      </trkpt>
      <trkpt lat="45.97995" lon="4.84769">
        <ele>275</ele>
        <time>2016-09-26T09:17:08Z</time>
      </trkpt>
      <trkpt lat="45.97995" lon="4.84776">
        <ele>274</ele>
        <time>2016-09-26T09:17:09Z</time>
      </trkpt>
      <trkpt lat="45.97996" lon="4.84784">
        <ele>274</ele>
        <time>2016-09-26T09:17:10Z</time>
      </trkpt>
      <trkpt lat="45.97997" lon="4.84792">
        <ele>274</ele>
        <time>2016-09-26T09:17:11Z</time>
      </trkpt>
      <trkpt lat="45.97998" lon="4.84799">
        <ele>274</ele>
        <time>2016-09-26T09:17:12Z</time>
      </trkpt>
      <trkpt lat="45.97999" lon="4.84807">
        <ele>274</ele>
        <time>2016-09-26T09:17:13Z</time>
      </trkpt>
      <trkpt lat="45.97999" lon="4.84814">
        <ele>273</ele>
        <time>2016-09-26T09:17:14Z</time>
      </trkpt>
      <trkpt lat="45.98" lon="4.84822">
        <ele>273</ele>
        <time>2016-09-26T09:17:15Z</time>
      </trkpt>
      <trkpt lat="45.98" lon="4.84831">
        <ele>272</ele>
        <time>2016-09-26T09:17:16Z</time>
      </trkpt>
      <trkpt lat="45.98001" lon="4.8484">
        <ele>272</ele>
        <time>2016-09-26T09:17:17Z</time>
      </trkpt>
      <trkpt lat="45.98002" lon="4.84848">
        <ele>272</ele>
        <time>2016-09-26T09:17:18Z</time>
      </trkpt>
      <trkpt lat="45.98002" lon="4.84855">
        <ele>272</ele>
        <time>2016-09-26T09:17:19Z</time>
      </trkpt>
      <trkpt lat="45.98002" lon="4.84861">
        <ele>272</ele>
        <time>2016-09-26T09:17:20Z</time>
      </trkpt>
      <trkpt lat="45.98003" lon="4.84868">
        <ele>272</ele>
        <time>2016-09-26T09:17:21Z</time>
      </trkpt>
      <trkpt lat="45.98004" lon="4.84876">
        <ele>272</ele>
        <time>2016-09-26T09:17:22Z</time>
      </trkpt>
      <trkpt lat="45.98005" lon="4.84882">
        <ele>272</ele>
        <time>2016-09-26T09:17:23Z</time>
      </trkpt>
      <trkpt lat="45.98006" lon="4.84894">
        <ele>272</ele>
        <time>2016-09-26T09:17:25Z</time>
      </trkpt>
      <trkpt lat="45.98006" lon="4.849">
        <ele>272</ele>
        <time>2016-09-26T09:17:26Z</time>
      </trkpt>
      <trkpt lat="45.98006" lon="4.84912">
        <ele>272</ele>
        <time>2016-09-26T09:17:28Z</time>
      </trkpt>
      <trkpt lat="45.98006" lon="4.84918">
        <ele>272</ele>
        <time>2016-09-26T09:17:29Z</time>
      </trkpt>
      <trkpt lat="45.98006" lon="4.84925">
        <ele>272</ele>
        <time>2016-09-26T09:17:30Z</time>
      </trkpt>
      <trkpt lat="45.98007" lon="4.84933">
        <ele>272</ele>
        <time>2016-09-26T09:17:31Z</time>
      </trkpt>
      <trkpt lat="45.98007" lon="4.84941">
        <ele>272</ele>
        <time>2016-09-26T09:17:32Z</time>
      </trkpt>
      <trkpt lat="45.98008" lon="4.8495">
        <ele>272</ele>
        <time>2016-09-26T09:17:33Z</time>
      </trkpt>
      <trkpt lat="45.98009" lon="4.84958">
        <ele>272</ele>
        <time>2016-09-26T09:17:34Z</time>
      </trkpt>
      <trkpt lat="45.9801" lon="4.84966">
        <ele>272</ele>
        <time>2016-09-26T09:17:35Z</time>
      </trkpt>
      <trkpt lat="45.98011" lon="4.84974">
        <ele>272</ele>
        <time>2016-09-26T09:17:36Z</time>
      </trkpt>
      <trkpt lat="45.98012" lon="4.84981">
        <ele>272</ele>
        <time>2016-09-26T09:17:37Z</time>
      </trkpt>
      <trkpt lat="45.98013" lon="4.84988">
        <ele>272</ele>
        <time>2016-09-26T09:17:38Z</time>
      </trkpt>
      <trkpt lat="45.98013" lon="4.84996">
        <ele>272</ele>
        <time>2016-09-26T09:17:39Z</time>
      </trkpt>
      <trkpt lat="45.98014" lon="4.85004">
        <ele>272</ele>
        <time>2016-09-26T09:17:40Z</time>
      </trkpt>
      <trkpt lat="45.98015" lon="4.85012">
        <ele>272</ele>
        <time>2016-09-26T09:17:41Z</time>
      </trkpt>
      <trkpt lat="45.98016" lon="4.85021">
        <ele>273</ele>
        <time>2016-09-26T09:17:42Z</time>
      </trkpt>
      <trkpt lat="45.98017" lon="4.85029">
        <ele>273</ele>
        <time>2016-09-26T09:17:43Z</time>
      </trkpt>
      <trkpt lat="45.98017" lon="4.85037">
        <ele>273</ele>
        <time>2016-09-26T09:17:44Z</time>
      </trkpt>
      <trkpt lat="45.98017" lon="4.85045">
        <ele>273</ele>
        <time>2016-09-26T09:17:45Z</time>
      </trkpt>
      <trkpt lat="45.98018" lon="4.85054">
        <ele>273</ele>
        <time>2016-09-26T09:17:46Z</time>
      </trkpt>
      <trkpt lat="45.98019" lon="4.85062">
        <ele>273</ele>
        <time>2016-09-26T09:17:47Z</time>
      </trkpt>
      <trkpt lat="45.98019" lon="4.85069">
        <ele>273</ele>
        <time>2016-09-26T09:17:48Z</time>
      </trkpt>
      <trkpt lat="45.98019" lon="4.85076">
        <ele>273</ele>
        <time>2016-09-26T09:17:49Z</time>
      </trkpt>
      <trkpt lat="45.9802" lon="4.85083">
        <ele>273</ele>
        <time>2016-09-26T09:17:50Z</time>
      </trkpt>
      <trkpt lat="45.9802" lon="4.8509">
        <ele>274</ele>
        <time>2016-09-26T09:17:51Z</time>
      </trkpt>
      <trkpt lat="45.98021" lon="4.85097">
        <ele>274</ele>
        <time>2016-09-26T09:17:52Z</time>
      </trkpt>
      <trkpt lat="45.98022" lon="4.85104">
        <ele>274</ele>
        <time>2016-09-26T09:17:53Z</time>
      </trkpt>
      <trkpt lat="45.98023" lon="4.85111">
        <ele>274</ele>
        <time>2016-09-26T09:17:54Z</time>
      </trkpt>
      <trkpt lat="45.98025" lon="4.85117">
        <ele>274</ele>
        <time>2016-09-26T09:17:55Z</time>
      </trkpt>
      <trkpt lat="45.98026" lon="4.85124">
        <ele>274</ele>
        <time>2016-09-26T09:17:56Z</time>
      </trkpt>
      <trkpt lat="45.98028" lon="4.8513">
        <ele>274</ele>
        <time>2016-09-26T09:17:57Z</time>
      </trkpt>
      <trkpt lat="45.98029" lon="4.85137">
        <ele>275</ele>
        <time>2016-09-26T09:17:58Z</time>
      </trkpt>
      <trkpt lat="45.98031" lon="4.85144">
        <ele>275</ele>
        <time>2016-09-26T09:17:59Z</time>
      </trkpt>
      <trkpt lat="45.98033" lon="4.85151">
        <ele>275</ele>
        <time>2016-09-26T09:18:00Z</time>
      </trkpt>
      <trkpt lat="45.98035" lon="4.85157">
        <ele>275</ele>
        <time>2016-09-26T09:18:01Z</time>
      </trkpt>
      <trkpt lat="45.98036" lon="4.85164">
        <ele>275</ele>
        <time>2016-09-26T09:18:02Z</time>
      </trkpt>
      <trkpt lat="45.98038" lon="4.8517">
        <ele>275</ele>
        <time>2016-09-26T09:18:03Z</time>
      </trkpt>
      <trkpt lat="45.98039" lon="4.85177">
        <ele>276</ele>
        <time>2016-09-26T09:18:04Z</time>
      </trkpt>
      <trkpt lat="45.98041" lon="4.85183">
        <ele>276</ele>
        <time>2016-09-26T09:18:05Z</time>
      </trkpt>
      <trkpt lat="45.98044" lon="4.85193">
        <ele>276</ele>
        <time>2016-09-26T09:18:07Z</time>
      </trkpt>
      <trkpt lat="45.98046" lon="4.85198">
        <ele>276</ele>
        <time>2016-09-26T09:18:08Z</time>
      </trkpt>
      <trkpt lat="45.98049" lon="4.85207">
        <ele>276</ele>
        <time>2016-09-26T09:18:10Z</time>
      </trkpt>
      <trkpt lat="45.98051" lon="4.85211">
        <ele>276</ele>
        <time>2016-09-26T09:18:11Z</time>
      </trkpt>
      <trkpt lat="45.98053" lon="4.85219">
        <ele>276</ele>
        <time>2016-09-26T09:18:13Z</time>
      </trkpt>
      <trkpt lat="45.98054" lon="4.85223">
        <ele>276</ele>
        <time>2016-09-26T09:18:14Z</time>
      </trkpt>
      <trkpt lat="45.98057" lon="4.85232">
        <ele>276</ele>
        <time>2016-09-26T09:18:16Z</time>
      </trkpt>
      <trkpt lat="45.9806" lon="4.85237">
        <ele>276</ele>
        <time>2016-09-26T09:18:17Z</time>
      </trkpt>
      <trkpt lat="45.98063" lon="4.85243">
        <ele>276</ele>
        <time>2016-09-26T09:18:18Z</time>
      </trkpt>
      <trkpt lat="45.98066" lon="4.85249">
        <ele>276</ele>
        <time>2016-09-26T09:18:19Z</time>
      </trkpt>
      <trkpt lat="45.98069" lon="4.85255">
        <ele>276</ele>
        <time>2016-09-26T09:18:20Z</time>
      </trkpt>
      <trkpt lat="45.98073" lon="4.85261">
        <ele>276</ele>
        <time>2016-09-26T09:18:21Z</time>
      </trkpt>
      <trkpt lat="45.98076" lon="4.85268">
        <ele>276</ele>
        <time>2016-09-26T09:18:22Z</time>
      </trkpt>
      <trkpt lat="45.98079" lon="4.85274">
        <ele>276</ele>
        <time>2016-09-26T09:18:23Z</time>
      </trkpt>
      <trkpt lat="45.98082" lon="4.8528">
        <ele>276</ele>
        <time>2016-09-26T09:18:24Z</time>
      </trkpt>
      <trkpt lat="45.98085" lon="4.85286">
        <ele>276</ele>
        <time>2016-09-26T09:18:25Z</time>
      </trkpt>
      <trkpt lat="45.98088" lon="4.85292">
        <ele>276</ele>
        <time>2016-09-26T09:18:26Z</time>
      </trkpt>
      <trkpt lat="45.98091" lon="4.85299">
        <ele>276</ele>
        <time>2016-09-26T09:18:27Z</time>
      </trkpt>
      <trkpt lat="45.98095" lon="4.85305">
        <ele>276</ele>
        <time>2016-09-26T09:18:28Z</time>
      </trkpt>
      <trkpt lat="45.98099" lon="4.8531">
        <ele>276</ele>
        <time>2016-09-26T09:18:29Z</time>
      </trkpt>
      <trkpt lat="45.98103" lon="4.85316">
        <ele>276</ele>
        <time>2016-09-26T09:18:30Z</time>
      </trkpt>
      <trkpt lat="45.98106" lon="4.85322">
        <ele>276</ele>
        <time>2016-09-26T09:18:31Z</time>
      </trkpt>
      <trkpt lat="45.98109" lon="4.85328">
        <ele>276</ele>
        <time>2016-09-26T09:18:32Z</time>
      </trkpt>
      <trkpt lat="45.98113" lon="4.85334">
        <ele>276</ele>
        <time>2016-09-26T09:18:33Z</time>
      </trkpt>
      <trkpt lat="45.98116" lon="4.8534">
        <ele>276</ele>
        <time>2016-09-26T09:18:34Z</time>
      </trkpt>
      <trkpt lat="45.98118" lon="4.85346">
        <ele>276</ele>
        <time>2016-09-26T09:18:35Z</time>
      </trkpt>
      <trkpt lat="45.98121" lon="4.85352">
        <ele>276</ele>
        <time>2016-09-26T09:18:36Z</time>
      </trkpt>
      <trkpt lat="45.98124" lon="4.85358">
        <ele>276</ele>
        <time>2016-09-26T09:18:37Z</time>
      </trkpt>
      <trkpt lat="45.98124" lon="4.85365">
        <ele>276</ele>
        <time>2016-09-26T09:18:38Z</time>
      </trkpt>
      <trkpt lat="45.98124" lon="4.85372">
        <ele>276</ele>
        <time>2016-09-26T09:18:39Z</time>
      </trkpt>
      <trkpt lat="45.98126" lon="4.85379">
        <ele>276</ele>
        <time>2016-09-26T09:18:40Z</time>
      </trkpt>
      <trkpt lat="45.98129" lon="4.85386">
        <ele>276</ele>
        <time>2016-09-26T09:18:41Z</time>
      </trkpt>
      <trkpt lat="45.98131" lon="4.85393">
        <ele>276</ele>
        <time>2016-09-26T09:18:42Z</time>
      </trkpt>
      <trkpt lat="45.98134" lon="4.85402">
        <ele>276</ele>
        <time>2016-09-26T09:18:43Z</time>
      </trkpt>
      <trkpt lat="45.98137" lon="4.85409">
        <ele>276</ele>
        <time>2016-09-26T09:18:44Z</time>
      </trkpt>
      <trkpt lat="45.9814" lon="4.85419">
        <ele>276</ele>
        <time>2016-09-26T09:18:45Z</time>
      </trkpt>
      <trkpt lat="45.98143" lon="4.85427">
        <ele>276</ele>
        <time>2016-09-26T09:18:46Z</time>
      </trkpt>
      <trkpt lat="45.98146" lon="4.85435">
        <ele>276</ele>
        <time>2016-09-26T09:18:47Z</time>
      </trkpt>
      <trkpt lat="45.98151" lon="4.85442">
        <ele>276</ele>
        <time>2016-09-26T09:18:48Z</time>
      </trkpt>
      <trkpt lat="45.98154" lon="4.85448">
        <ele>276</ele>
        <time>2016-09-26T09:18:49Z</time>
      </trkpt>
      <trkpt lat="45.98156" lon="4.85454">
        <ele>276</ele>
        <time>2016-09-26T09:18:50Z</time>
      </trkpt>
      <trkpt lat="45.98159" lon="4.8546">
        <ele>275</ele>
        <time>2016-09-26T09:18:51Z</time>
      </trkpt>
      <trkpt lat="45.98161" lon="4.85466">
        <ele>275</ele>
        <time>2016-09-26T09:18:52Z</time>
      </trkpt>
      <trkpt lat="45.98163" lon="4.85473">
        <ele>275</ele>
        <time>2016-09-26T09:18:53Z</time>
      </trkpt>
      <trkpt lat="45.98166" lon="4.85479">
        <ele>275</ele>
        <time>2016-09-26T09:18:54Z</time>
      </trkpt>
      <trkpt lat="45.98169" lon="4.85485">
        <ele>275</ele>
        <time>2016-09-26T09:18:55Z</time>
      </trkpt>
      <trkpt lat="45.98172" lon="4.85492">
        <ele>275</ele>
        <time>2016-09-26T09:18:56Z</time>
      </trkpt>
      <trkpt lat="45.98175" lon="4.85498">
        <ele>275</ele>
        <time>2016-09-26T09:18:57Z</time>
      </trkpt>
      <trkpt lat="45.98177" lon="4.85505">
        <ele>275</ele>
        <time>2016-09-26T09:18:58Z</time>
      </trkpt>
      <trkpt lat="45.9818" lon="4.85512">
        <ele>275</ele>
        <time>2016-09-26T09:18:59Z</time>
      </trkpt>
      <trkpt lat="45.98181" lon="4.8552">
        <ele>275</ele>
        <time>2016-09-26T09:19:00Z</time>
      </trkpt>
      <trkpt lat="45.98184" lon="4.85528">
        <ele>276</ele>
        <time>2016-09-26T09:19:01Z</time>
      </trkpt>
      <trkpt lat="45.98188" lon="4.85535">
        <ele>276</ele>
        <time>2016-09-26T09:19:02Z</time>
      </trkpt>
      <trkpt lat="45.98191" lon="4.85542">
        <ele>276</ele>
        <time>2016-09-26T09:19:03Z</time>
      </trkpt>
      <trkpt lat="45.98194" lon="4.85548">
        <ele>276</ele>
        <time>2016-09-26T09:19:04Z</time>
      </trkpt>
      <trkpt lat="45.98197" lon="4.85555">
        <ele>276</ele>
        <time>2016-09-26T09:19:05Z</time>
      </trkpt>
      <trkpt lat="45.98199" lon="4.85561">
        <ele>276</ele>
        <time>2016-09-26T09:19:06Z</time>
      </trkpt>
      <trkpt lat="45.98202" lon="4.85567">
        <ele>276</ele>
        <time>2016-09-26T09:19:07Z</time>
      </trkpt>
      <trkpt lat="45.98204" lon="4.85574">
        <ele>276</ele>
        <time>2016-09-26T09:19:08Z</time>
      </trkpt>
      <trkpt lat="45.98207" lon="4.8558">
        <ele>276</ele>
        <time>2016-09-26T09:19:09Z</time>
      </trkpt>
      <trkpt lat="45.9821" lon="4.85586">
        <ele>277</ele>
        <time>2016-09-26T09:19:10Z</time>
      </trkpt>
      <trkpt lat="45.98213" lon="4.85592">
        <ele>277</ele>
        <time>2016-09-26T09:19:11Z</time>
      </trkpt>
      <trkpt lat="45.98215" lon="4.85598">
        <ele>277</ele>
        <time>2016-09-26T09:19:12Z</time>
      </trkpt>
      <trkpt lat="45.98217" lon="4.85604">
        <ele>277</ele>
        <time>2016-09-26T09:19:13Z</time>
      </trkpt>
      <trkpt lat="45.9822" lon="4.85609">
        <ele>277</ele>
        <time>2016-09-26T09:19:14Z</time>
      </trkpt>
      <trkpt lat="45.98222" lon="4.85615">
        <ele>277</ele>
        <time>2016-09-26T09:19:15Z</time>
      </trkpt>
      <trkpt lat="45.98225" lon="4.85619">
        <ele>277</ele>
        <time>2016-09-26T09:19:16Z</time>
      </trkpt>
      <trkpt lat="45.98228" lon="4.85625">
        <ele>277</ele>
        <time>2016-09-26T09:19:17Z</time>
      </trkpt>
      <trkpt lat="45.9823" lon="4.85631">
        <ele>277</ele>
        <time>2016-09-26T09:19:18Z</time>
      </trkpt>
      <trkpt lat="45.98233" lon="4.8564">
        <ele>277</ele>
        <time>2016-09-26T09:19:19Z</time>
      </trkpt>
      <trkpt lat="45.98236" lon="4.85648">
        <ele>277</ele>
        <time>2016-09-26T09:19:20Z</time>
      </trkpt>
      <trkpt lat="45.98239" lon="4.85656">
        <ele>276</ele>
        <time>2016-09-26T09:19:21Z</time>
      </trkpt>
      <trkpt lat="45.98242" lon="4.85663">
        <ele>276</ele>
        <time>2016-09-26T09:19:22Z</time>
      </trkpt>
      <trkpt lat="45.98245" lon="4.8567">
        <ele>276</ele>
        <time>2016-09-26T09:19:23Z</time>
      </trkpt>
      <trkpt lat="45.98248" lon="4.85678">
        <ele>276</ele>
        <time>2016-09-26T09:19:24Z</time>
      </trkpt>
      <trkpt lat="45.9825" lon="4.85685">
        <ele>275</ele>
        <time>2016-09-26T09:19:25Z</time>
      </trkpt>
      <trkpt lat="45.98253" lon="4.85692">
        <ele>275</ele>
        <time>2016-09-26T09:19:26Z</time>
      </trkpt>
      <trkpt lat="45.98255" lon="4.85698">
        <ele>275</ele>
        <time>2016-09-26T09:19:27Z</time>
      </trkpt>
      <trkpt lat="45.98258" lon="4.85704">
        <ele>275</ele>
        <time>2016-09-26T09:19:28Z</time>
      </trkpt>
      <trkpt lat="45.98261" lon="4.8571">
        <ele>275</ele>
        <time>2016-09-26T09:19:29Z</time>
      </trkpt>
      <trkpt lat="45.98263" lon="4.85716">
        <ele>275</ele>
        <time>2016-09-26T09:19:30Z</time>
      </trkpt>
      <trkpt lat="45.98267" lon="4.85723">
        <ele>275</ele>
        <time>2016-09-26T09:19:31Z</time>
      </trkpt>
      <trkpt lat="45.9827" lon="4.85729">
        <ele>275</ele>
        <time>2016-09-26T09:19:32Z</time>
      </trkpt>
      <trkpt lat="45.98273" lon="4.85737">
        <ele>274</ele>
        <time>2016-09-26T09:19:33Z</time>
      </trkpt>
      <trkpt lat="45.98276" lon="4.85744">
        <ele>274</ele>
        <time>2016-09-26T09:19:34Z</time>
      </trkpt>
      <trkpt lat="45.9828" lon="4.85753">
        <ele>275</ele>
        <time>2016-09-26T09:19:35Z</time>
      </trkpt>
      <trkpt lat="45.98283" lon="4.85761">
        <ele>275</ele>
        <time>2016-09-26T09:19:36Z</time>
      </trkpt>
      <trkpt lat="45.98286" lon="4.85768">
        <ele>275</ele>
        <time>2016-09-26T09:19:37Z</time>
      </trkpt>
      <trkpt lat="45.98289" lon="4.85776">
        <ele>275</ele>
        <time>2016-09-26T09:19:38Z</time>
      </trkpt>
      <trkpt lat="45.98291" lon="4.85783">
        <ele>275</ele>
        <time>2016-09-26T09:19:39Z</time>
      </trkpt>
      <trkpt lat="45.98294" lon="4.8579">
        <ele>275</ele>
        <time>2016-09-26T09:19:40Z</time>
      </trkpt>
      <trkpt lat="45.98296" lon="4.85797">
        <ele>275</ele>
        <time>2016-09-26T09:19:41Z</time>
      </trkpt>
      <trkpt lat="45.98298" lon="4.85804">
        <ele>275</ele>
        <time>2016-09-26T09:19:42Z</time>
      </trkpt>
      <trkpt lat="45.98301" lon="4.8581">
        <ele>275</ele>
        <time>2016-09-26T09:19:43Z</time>
      </trkpt>
      <trkpt lat="45.98303" lon="4.85816">
        <ele>275</ele>
        <time>2016-09-26T09:19:44Z</time>
      </trkpt>
      <trkpt lat="45.98306" lon="4.85822">
        <ele>275</ele>
        <time>2016-09-26T09:19:45Z</time>
      </trkpt>
      <trkpt lat="45.98309" lon="4.85828">
        <ele>275</ele>
        <time>2016-09-26T09:19:46Z</time>
      </trkpt>
      <trkpt lat="45.98311" lon="4.85834">
        <ele>276</ele>
        <time>2016-09-26T09:19:47Z</time>
      </trkpt>
      <trkpt lat="45.98313" lon="4.8584">
        <ele>276</ele>
        <time>2016-09-26T09:19:48Z</time>
      </trkpt>
      <trkpt lat="45.98316" lon="4.85846">
        <ele>276</ele>
        <time>2016-09-26T09:19:49Z</time>
      </trkpt>
      <trkpt lat="45.98317" lon="4.85852">
        <ele>276</ele>
        <time>2016-09-26T09:19:50Z</time>
      </trkpt>
      <trkpt lat="45.98319" lon="4.85859">
        <ele>276</ele>
        <time>2016-09-26T09:19:51Z</time>
      </trkpt>
      <trkpt lat="45.98321" lon="4.85865">
        <ele>276</ele>
        <time>2016-09-26T09:19:52Z</time>
      </trkpt>
      <trkpt lat="45.98324" lon="4.8587">
        <ele>276</ele>
        <time>2016-09-26T09:19:53Z</time>
      </trkpt>
      <trkpt lat="45.98326" lon="4.85876">
        <ele>276</ele>
        <time>2016-09-26T09:19:54Z</time>
      </trkpt>
      <trkpt lat="45.98329" lon="4.85882">
        <ele>276</ele>
        <time>2016-09-26T09:19:55Z</time>
      </trkpt>
      <trkpt lat="45.98331" lon="4.85888">
        <ele>276</ele>
        <time>2016-09-26T09:19:56Z</time>
      </trkpt>
      <trkpt lat="45.98334" lon="4.85894">
        <ele>276</ele>
        <time>2016-09-26T09:19:57Z</time>
      </trkpt>
      <trkpt lat="45.98336" lon="4.85901">
        <ele>276</ele>
        <time>2016-09-26T09:19:58Z</time>
      </trkpt>
      <trkpt lat="45.98339" lon="4.85908">
        <ele>276</ele>
        <time>2016-09-26T09:19:59Z</time>
      </trkpt>
      <trkpt lat="45.98342" lon="4.85914">
        <ele>276</ele>
        <time>2016-09-26T09:20:00Z</time>
      </trkpt>
      <trkpt lat="45.98343" lon="4.8592">
        <ele>276</ele>
        <time>2016-09-26T09:20:01Z</time>
      </trkpt>
      <trkpt lat="45.98346" lon="4.85927">
        <ele>276</ele>
        <time>2016-09-26T09:20:02Z</time>
      </trkpt>
      <trkpt lat="45.98348" lon="4.85934">
        <ele>276</ele>
        <time>2016-09-26T09:20:03Z</time>
      </trkpt>
      <trkpt lat="45.9835" lon="4.85941">
        <ele>276</ele>
        <time>2016-09-26T09:20:04Z</time>
      </trkpt>
      <trkpt lat="45.98353" lon="4.85948">
        <ele>276</ele>
        <time>2016-09-26T09:20:05Z</time>
      </trkpt>
      <trkpt lat="45.98356" lon="4.85954">
        <ele>276</ele>
        <time>2016-09-26T09:20:06Z</time>
      </trkpt>
      <trkpt lat="45.98359" lon="4.85961">
        <ele>276</ele>
        <time>2016-09-26T09:20:07Z</time>
      </trkpt>
      <trkpt lat="45.98362" lon="4.85968">
        <ele>276</ele>
        <time>2016-09-26T09:20:08Z</time>
      </trkpt>
      <trkpt lat="45.98364" lon="4.85975">
        <ele>276</ele>
        <time>2016-09-26T09:20:09Z</time>
      </trkpt>
      <trkpt lat="45.98367" lon="4.85981">
        <ele>276</ele>
        <time>2016-09-26T09:20:10Z</time>
      </trkpt>
      <trkpt lat="45.98369" lon="4.85988">
        <ele>276</ele>
        <time>2016-09-26T09:20:11Z</time>
      </trkpt>
      <trkpt lat="45.98372" lon="4.85995">
        <ele>277</ele>
        <time>2016-09-26T09:20:12Z</time>
      </trkpt>
      <trkpt lat="45.98375" lon="4.86001">
        <ele>277</ele>
        <time>2016-09-26T09:20:13Z</time>
      </trkpt>
      <trkpt lat="45.98379" lon="4.86009">
        <ele>277</ele>
        <time>2016-09-26T09:20:14Z</time>
      </trkpt>
      <trkpt lat="45.98383" lon="4.86017">
        <ele>277</ele>
        <time>2016-09-26T09:20:15Z</time>
      </trkpt>
      <trkpt lat="45.98386" lon="4.86025">
        <ele>277</ele>
        <time>2016-09-26T09:20:16Z</time>
      </trkpt>
      <trkpt lat="45.98389" lon="4.86032">
        <ele>277</ele>
        <time>2016-09-26T09:20:17Z</time>
      </trkpt>
      <trkpt lat="45.98391" lon="4.86038">
        <ele>277</ele>
        <time>2016-09-26T09:20:18Z</time>
      </trkpt>
      <trkpt lat="45.98394" lon="4.86043">
        <ele>277</ele>
        <time>2016-09-26T09:20:19Z</time>
      </trkpt>
      <trkpt lat="45.98396" lon="4.86055">
        <ele>277</ele>
        <time>2016-09-26T09:20:21Z</time>
      </trkpt>
      <trkpt lat="45.98397" lon="4.8606">
        <ele>277</ele>
        <time>2016-09-26T09:20:22Z</time>
      </trkpt>
      <trkpt lat="45.98401" lon="4.8607">
        <ele>277</ele>
        <time>2016-09-26T09:20:24Z</time>
      </trkpt>
      <trkpt lat="45.98403" lon="4.86076">
        <ele>277</ele>
        <time>2016-09-26T09:20:25Z</time>
      </trkpt>
      <trkpt lat="45.98404" lon="4.86083">
        <ele>277</ele>
        <time>2016-09-26T09:20:26Z</time>
      </trkpt>
      <trkpt lat="45.98406" lon="4.86089">
        <ele>277</ele>
        <time>2016-09-26T09:20:27Z</time>
      </trkpt>
      <trkpt lat="45.98406" lon="4.861">
        <ele>277</ele>
        <time>2016-09-26T09:20:29Z</time>
      </trkpt>
      <trkpt lat="45.98407" lon="4.86106">
        <ele>277</ele>
        <time>2016-09-26T09:20:30Z</time>
      </trkpt>
      <trkpt lat="45.98409" lon="4.86118">
        <ele>277</ele>
        <time>2016-09-26T09:20:32Z</time>
      </trkpt>
      <trkpt lat="45.9841" lon="4.86124">
        <ele>277</ele>
        <time>2016-09-26T09:20:33Z</time>
      </trkpt>
      <trkpt lat="45.98411" lon="4.86131">
        <ele>276</ele>
        <time>2016-09-26T09:20:34Z</time>
      </trkpt>
      <trkpt lat="45.98413" lon="4.86137">
        <ele>276</ele>
        <time>2016-09-26T09:20:35Z</time>
      </trkpt>
      <trkpt lat="45.98414" lon="4.86144">
        <ele>276</ele>
        <time>2016-09-26T09:20:36Z</time>
      </trkpt>
      <trkpt lat="45.98416" lon="4.8615">
        <ele>276</ele>
        <time>2016-09-26T09:20:37Z</time>
      </trkpt>
      <trkpt lat="45.98417" lon="4.86156">
        <ele>276</ele>
        <time>2016-09-26T09:20:38Z</time>
      </trkpt>
      <trkpt lat="45.98417" lon="4.86163">
        <ele>276</ele>
        <time>2016-09-26T09:20:39Z</time>
      </trkpt>
      <trkpt lat="45.98418" lon="4.86169">
        <ele>276</ele>
        <time>2016-09-26T09:20:40Z</time>
      </trkpt>
      <trkpt lat="45.98419" lon="4.86176">
        <ele>276</ele>
        <time>2016-09-26T09:20:41Z</time>
      </trkpt>
      <trkpt lat="45.98421" lon="4.86182">
        <ele>275</ele>
        <time>2016-09-26T09:20:42Z</time>
      </trkpt>
      <trkpt lat="45.98422" lon="4.86189">
        <ele>275</ele>
        <time>2016-09-26T09:20:43Z</time>
      </trkpt>
      <trkpt lat="45.98423" lon="4.86195">
        <ele>275</ele>
        <time>2016-09-26T09:20:44Z</time>
      </trkpt>
      <trkpt lat="45.98424" lon="4.86202">
        <ele>275</ele>
        <time>2016-09-26T09:20:45Z</time>
      </trkpt>
      <trkpt lat="45.98425" lon="4.86209">
        <ele>275</ele>
        <time>2016-09-26T09:20:46Z</time>
      </trkpt>
      <trkpt lat="45.98426" lon="4.86216">
        <ele>275</ele>
        <time>2016-09-26T09:20:47Z</time>
      </trkpt>
      <trkpt lat="45.98427" lon="4.86222">
        <ele>275</ele>
        <time>2016-09-26T09:20:48Z</time>
      </trkpt>
      <trkpt lat="45.98428" lon="4.86229">
        <ele>275</ele>
        <time>2016-09-26T09:20:49Z</time>
      </trkpt>
      <trkpt lat="45.98429" lon="4.86236">
        <ele>275</ele>
        <time>2016-09-26T09:20:50Z</time>
      </trkpt>
      <trkpt lat="45.9843" lon="4.86243">
        <ele>275</ele>
        <time>2016-09-26T09:20:51Z</time>
      </trkpt>
      <trkpt lat="45.98432" lon="4.86251">
        <ele>275</ele>
        <time>2016-09-26T09:20:52Z</time>
      </trkpt>
      <trkpt lat="45.98434" lon="4.8626">
        <ele>275</ele>
        <time>2016-09-26T09:20:53Z</time>
      </trkpt>
      <trkpt lat="45.98436" lon="4.86269">
        <ele>275</ele>
        <time>2016-09-26T09:20:54Z</time>
      </trkpt>
      <trkpt lat="45.98437" lon="4.86279">
        <ele>276</ele>
        <time>2016-09-26T09:20:55Z</time>
      </trkpt>
      <trkpt lat="45.98439" lon="4.86289">
        <ele>276</ele>
        <time>2016-09-26T09:20:56Z</time>
      </trkpt>
      <trkpt lat="45.98441" lon="4.863">
        <ele>276</ele>
        <time>2016-09-26T09:20:57Z</time>
      </trkpt>
      <trkpt lat="45.98443" lon="4.8631">
        <ele>276</ele>
        <time>2016-09-26T09:20:58Z</time>
      </trkpt>
      <trkpt lat="45.98445" lon="4.8632">
        <ele>276</ele>
        <time>2016-09-26T09:20:59Z</time>
      </trkpt>
      <trkpt lat="45.98447" lon="4.8633">
        <ele>276</ele>
        <time>2016-09-26T09:21:00Z</time>
      </trkpt>
      <trkpt lat="45.98449" lon="4.86339">
        <ele>277</ele>
        <time>2016-09-26T09:21:01Z</time>
      </trkpt>
      <trkpt lat="45.98451" lon="4.8635">
        <ele>277</ele>
        <time>2016-09-26T09:21:02Z</time>
      </trkpt>
      <trkpt lat="45.98453" lon="4.8636">
        <ele>277</ele>
        <time>2016-09-26T09:21:03Z</time>
      </trkpt>
      <trkpt lat="45.98456" lon="4.86369">
        <ele>277</ele>
        <time>2016-09-26T09:21:04Z</time>
      </trkpt>
      <trkpt lat="45.9846" lon="4.86377">
        <ele>277</ele>
        <time>2016-09-26T09:21:05Z</time>
      </trkpt>
      <trkpt lat="45.98463" lon="4.86386">
        <ele>277</ele>
        <time>2016-09-26T09:21:06Z</time>
      </trkpt>
      <trkpt lat="45.98466" lon="4.86394">
        <ele>277</ele>
        <time>2016-09-26T09:21:07Z</time>
      </trkpt>
      <trkpt lat="45.9847" lon="4.86403">
        <ele>277</ele>
        <time>2016-09-26T09:21:08Z</time>
      </trkpt>
      <trkpt lat="45.98473" lon="4.86411">
        <ele>277</ele>
        <time>2016-09-26T09:21:09Z</time>
      </trkpt>
      <trkpt lat="45.98477" lon="4.86419">
        <ele>278</ele>
        <time>2016-09-26T09:21:10Z</time>
      </trkpt>
      <trkpt lat="45.9848" lon="4.86427">
        <ele>278</ele>
        <time>2016-09-26T09:21:11Z</time>
      </trkpt>
      <trkpt lat="45.98483" lon="4.86434">
        <ele>278</ele>
        <time>2016-09-26T09:21:12Z</time>
      </trkpt>
      <trkpt lat="45.98487" lon="4.86442">
        <ele>278</ele>
        <time>2016-09-26T09:21:13Z</time>
      </trkpt>
      <trkpt lat="45.9849" lon="4.86449">
        <ele>278</ele>
        <time>2016-09-26T09:21:14Z</time>
      </trkpt>
      <trkpt lat="45.98493" lon="4.86455">
        <ele>278</ele>
        <time>2016-09-26T09:21:15Z</time>
      </trkpt>
      <trkpt lat="45.98497" lon="4.86461">
        <ele>278</ele>
        <time>2016-09-26T09:21:16Z</time>
      </trkpt>
      <trkpt lat="45.985" lon="4.86469">
        <ele>279</ele>
        <time>2016-09-26T09:21:17Z</time>
      </trkpt>
      <trkpt lat="45.98503" lon="4.86476">
        <ele>278</ele>
        <time>2016-09-26T09:21:18Z</time>
      </trkpt>
      <trkpt lat="45.98506" lon="4.86482">
        <ele>278</ele>
        <time>2016-09-26T09:21:19Z</time>
      </trkpt>
      <trkpt lat="45.9851" lon="4.8649">
        <ele>279</ele>
        <time>2016-09-26T09:21:20Z</time>
      </trkpt>
      <trkpt lat="45.98513" lon="4.86496">
        <ele>279</ele>
        <time>2016-09-26T09:21:21Z</time>
      </trkpt>
      <trkpt lat="45.98516" lon="4.86503">
        <ele>279</ele>
        <time>2016-09-26T09:21:22Z</time>
      </trkpt>
      <trkpt lat="45.98521" lon="4.86513">
        <ele>279</ele>
        <time>2016-09-26T09:21:23Z</time>
      </trkpt>
      <trkpt lat="45.98523" lon="4.8652">
        <ele>279</ele>
        <time>2016-09-26T09:21:24Z</time>
      </trkpt>
      <trkpt lat="45.98526" lon="4.86528">
        <ele>279</ele>
        <time>2016-09-26T09:21:25Z</time>
      </trkpt>
      <trkpt lat="45.9853" lon="4.86535">
        <ele>279</ele>
        <time>2016-09-26T09:21:26Z</time>
      </trkpt>
      <trkpt lat="45.98533" lon="4.86542">
        <ele>279</ele>
        <time>2016-09-26T09:21:27Z</time>
      </trkpt>
      <trkpt lat="45.98536" lon="4.86549">
        <ele>279</ele>
        <time>2016-09-26T09:21:28Z</time>
      </trkpt>
      <trkpt lat="45.9854" lon="4.86556">
        <ele>278</ele>
        <time>2016-09-26T09:21:29Z</time>
      </trkpt>
      <trkpt lat="45.98543" lon="4.86566">
        <ele>278</ele>
        <time>2016-09-26T09:21:30Z</time>
      </trkpt>
      <trkpt lat="45.98547" lon="4.86575">
        <ele>278</ele>
        <time>2016-09-26T09:21:31Z</time>
      </trkpt>
      <trkpt lat="45.98549" lon="4.86584">
        <ele>278</ele>
        <time>2016-09-26T09:21:32Z</time>
      </trkpt>
      <trkpt lat="45.98551" lon="4.86593">
        <ele>278</ele>
        <time>2016-09-26T09:21:33Z</time>
      </trkpt>
      <trkpt lat="45.98553" lon="4.86601">
        <ele>278</ele>
        <time>2016-09-26T09:21:34Z</time>
      </trkpt>
      <trkpt lat="45.98556" lon="4.86608">
        <ele>278</ele>
        <time>2016-09-26T09:21:35Z</time>
      </trkpt>
      <trkpt lat="45.98557" lon="4.86616">
        <ele>278</ele>
        <time>2016-09-26T09:21:36Z</time>
      </trkpt>
      <trkpt lat="45.98559" lon="4.86624">
        <ele>278</ele>
        <time>2016-09-26T09:21:37Z</time>
      </trkpt>
      <trkpt lat="45.9856" lon="4.86632">
        <ele>278</ele>
        <time>2016-09-26T09:21:38Z</time>
      </trkpt>
      <trkpt lat="45.98561" lon="4.86639">
        <ele>277</ele>
        <time>2016-09-26T09:21:39Z</time>
      </trkpt>
      <trkpt lat="45.98562" lon="4.86647">
        <ele>277</ele>
        <time>2016-09-26T09:21:40Z</time>
      </trkpt>
      <trkpt lat="45.98563" lon="4.86655">
        <ele>277</ele>
        <time>2016-09-26T09:21:41Z</time>
      </trkpt>
      <trkpt lat="45.98564" lon="4.86663">
        <ele>277</ele>
        <time>2016-09-26T09:21:42Z</time>
      </trkpt>
      <trkpt lat="45.98565" lon="4.86671">
        <ele>276</ele>
        <time>2016-09-26T09:21:43Z</time>
      </trkpt>
      <trkpt lat="45.98567" lon="4.8668">
        <ele>276</ele>
        <time>2016-09-26T09:21:44Z</time>
      </trkpt>
      <trkpt lat="45.98568" lon="4.86688">
        <ele>277</ele>
        <time>2016-09-26T09:21:45Z</time>
      </trkpt>
      <trkpt lat="45.98569" lon="4.86696">
        <ele>277</ele>
        <time>2016-09-26T09:21:46Z</time>
      </trkpt>
      <trkpt lat="45.9857" lon="4.86704">
        <ele>277</ele>
        <time>2016-09-26T09:21:47Z</time>
      </trkpt>
      <trkpt lat="45.98572" lon="4.8671">
        <ele>277</ele>
        <time>2016-09-26T09:21:48Z</time>
      </trkpt>
      <trkpt lat="45.98572" lon="4.86718">
        <ele>277</ele>
        <time>2016-09-26T09:21:49Z</time>
      </trkpt>
      <trkpt lat="45.98572" lon="4.86726">
        <ele>277</ele>
        <time>2016-09-26T09:21:50Z</time>
      </trkpt>
      <trkpt lat="45.98572" lon="4.86733">
        <ele>277</ele>
        <time>2016-09-26T09:21:51Z</time>
      </trkpt>
      <trkpt lat="45.98573" lon="4.86741">
        <ele>277</ele>
        <time>2016-09-26T09:21:52Z</time>
      </trkpt>
      <trkpt lat="45.98574" lon="4.86748">
        <ele>276</ele>
        <time>2016-09-26T09:21:53Z</time>
      </trkpt>
      <trkpt lat="45.98575" lon="4.86755">
        <ele>277</ele>
        <time>2016-09-26T09:21:54Z</time>
      </trkpt>
      <trkpt lat="45.98577" lon="4.86762">
        <ele>277</ele>
        <time>2016-09-26T09:21:55Z</time>
      </trkpt>
      <trkpt lat="45.98578" lon="4.8677">
        <ele>277</ele>
        <time>2016-09-26T09:21:56Z</time>
      </trkpt>
      <trkpt lat="45.98579" lon="4.86778">
        <ele>277</ele>
        <time>2016-09-26T09:21:57Z</time>
      </trkpt>
      <trkpt lat="45.9858" lon="4.86785">
        <ele>277</ele>
        <time>2016-09-26T09:21:58Z</time>
      </trkpt>
      <trkpt lat="45.98581" lon="4.86793">
        <ele>277</ele>
        <time>2016-09-26T09:21:59Z</time>
      </trkpt>
      <trkpt lat="45.98582" lon="4.86801">
        <ele>277</ele>
        <time>2016-09-26T09:22:00Z</time>
      </trkpt>
      <trkpt lat="45.98583" lon="4.8681">
        <ele>277</ele>
        <time>2016-09-26T09:22:01Z</time>
      </trkpt>
      <trkpt lat="45.98583" lon="4.86818">
        <ele>277</ele>
        <time>2016-09-26T09:22:02Z</time>
      </trkpt>
      <trkpt lat="45.98583" lon="4.86826">
        <ele>277</ele>
        <time>2016-09-26T09:22:03Z</time>
      </trkpt>
      <trkpt lat="45.98583" lon="4.86836">
        <ele>277</ele>
        <time>2016-09-26T09:22:04Z</time>
      </trkpt>
      <trkpt lat="45.98584" lon="4.86845">
        <ele>277</ele>
        <time>2016-09-26T09:22:05Z</time>
      </trkpt>
      <trkpt lat="45.98584" lon="4.86854">
        <ele>277</ele>
        <time>2016-09-26T09:22:06Z</time>
      </trkpt>
      <trkpt lat="45.98584" lon="4.86863">
        <ele>277</ele>
        <time>2016-09-26T09:22:07Z</time>
      </trkpt>
      <trkpt lat="45.98584" lon="4.86872">
        <ele>277</ele>
        <time>2016-09-26T09:22:08Z</time>
      </trkpt>
      <trkpt lat="45.98584" lon="4.86881">
        <ele>277</ele>
        <time>2016-09-26T09:22:09Z</time>
      </trkpt>
      <trkpt lat="45.98585" lon="4.8689">
        <ele>278</ele>
        <time>2016-09-26T09:22:10Z</time>
      </trkpt>
      <trkpt lat="45.98585" lon="4.869">
        <ele>278</ele>
        <time>2016-09-26T09:22:11Z</time>
      </trkpt>
      <trkpt lat="45.98584" lon="4.86909">
        <ele>278</ele>
        <time>2016-09-26T09:22:12Z</time>
      </trkpt>
      <trkpt lat="45.98583" lon="4.86918">
        <ele>279</ele>
        <time>2016-09-26T09:22:13Z</time>
      </trkpt>
      <trkpt lat="45.98584" lon="4.86929">
        <ele>279</ele>
        <time>2016-09-26T09:22:14Z</time>
      </trkpt>
      <trkpt lat="45.98584" lon="4.86939">
        <ele>279</ele>
        <time>2016-09-26T09:22:15Z</time>
      </trkpt>
      <trkpt lat="45.98584" lon="4.86948">
        <ele>279</ele>
        <time>2016-09-26T09:22:16Z</time>
      </trkpt>
      <trkpt lat="45.98583" lon="4.86957">
        <ele>281</ele>
        <time>2016-09-26T09:22:17Z</time>
      </trkpt>
      <trkpt lat="45.98583" lon="4.86966">
        <ele>281</ele>
        <time>2016-09-26T09:22:18Z</time>
      </trkpt>
      <trkpt lat="45.98583" lon="4.86974">
        <ele>281</ele>
        <time>2016-09-26T09:22:19Z</time>
      </trkpt>
      <trkpt lat="45.98583" lon="4.86983">
        <ele>281</ele>
        <time>2016-09-26T09:22:20Z</time>
      </trkpt>
      <trkpt lat="45.98584" lon="4.86993">
        <ele>280</ele>
        <time>2016-09-26T09:22:21Z</time>
      </trkpt>
      <trkpt lat="45.98586" lon="4.87003">
        <ele>280</ele>
        <time>2016-09-26T09:22:22Z</time>
      </trkpt>
      <trkpt lat="45.98588" lon="4.87013">
        <ele>279</ele>
        <time>2016-09-26T09:22:23Z</time>
      </trkpt>
      <trkpt lat="45.9859" lon="4.87023">
        <ele>279</ele>
        <time>2016-09-26T09:22:24Z</time>
      </trkpt>
      <trkpt lat="45.98592" lon="4.87035">
        <ele>279</ele>
        <time>2016-09-26T09:22:25Z</time>
      </trkpt>
      <trkpt lat="45.98594" lon="4.87044">
        <ele>279</ele>
        <time>2016-09-26T09:22:26Z</time>
      </trkpt>
      <trkpt lat="45.98596" lon="4.87052">
        <ele>279</ele>
        <time>2016-09-26T09:22:27Z</time>
      </trkpt>
      <trkpt lat="45.98597" lon="4.8706">
        <ele>279</ele>
        <time>2016-09-26T09:22:28Z</time>
      </trkpt>
      <trkpt lat="45.98598" lon="4.87067">
        <ele>279</ele>
        <time>2016-09-26T09:22:29Z</time>
      </trkpt>
      <trkpt lat="45.98599" lon="4.87075">
        <ele>279</ele>
        <time>2016-09-26T09:22:30Z</time>
      </trkpt>
      <trkpt lat="45.98599" lon="4.87082">
        <ele>279</ele>
        <time>2016-09-26T09:22:31Z</time>
      </trkpt>
      <trkpt lat="45.98599" lon="4.87091">
        <ele>279</ele>
        <time>2016-09-26T09:22:32Z</time>
      </trkpt>
      <trkpt lat="45.98599" lon="4.87098">
        <ele>279</ele>
        <time>2016-09-26T09:22:33Z</time>
      </trkpt>
      <trkpt lat="45.98599" lon="4.87106">
        <ele>279</ele>
        <time>2016-09-26T09:22:34Z</time>
      </trkpt>
      <trkpt lat="45.986" lon="4.87116">
        <ele>279</ele>
        <time>2016-09-26T09:22:35Z</time>
      </trkpt>
      <trkpt lat="45.986" lon="4.87126">
        <ele>279</ele>
        <time>2016-09-26T09:22:36Z</time>
      </trkpt>
      <trkpt lat="45.986" lon="4.87135">
        <ele>278</ele>
        <time>2016-09-26T09:22:37Z</time>
      </trkpt>
      <trkpt lat="45.98599" lon="4.87143">
        <ele>278</ele>
        <time>2016-09-26T09:22:38Z</time>
      </trkpt>
      <trkpt lat="45.98599" lon="4.87152">
        <ele>278</ele>
        <time>2016-09-26T09:22:39Z</time>
      </trkpt>
      <trkpt lat="45.98598" lon="4.8716">
        <ele>278</ele>
        <time>2016-09-26T09:22:40Z</time>
      </trkpt>
      <trkpt lat="45.98597" lon="4.87168">
        <ele>277</ele>
        <time>2016-09-26T09:22:41Z</time>
      </trkpt>
      <trkpt lat="45.98597" lon="4.87178">
        <ele>277</ele>
        <time>2016-09-26T09:22:42Z</time>
      </trkpt>
      <trkpt lat="45.98597" lon="4.87188">
        <ele>277</ele>
        <time>2016-09-26T09:22:43Z</time>
      </trkpt>
      <trkpt lat="45.98596" lon="4.87197">
        <ele>277</ele>
        <time>2016-09-26T09:22:44Z</time>
      </trkpt>
      <trkpt lat="45.98597" lon="4.87207">
        <ele>277</ele>
        <time>2016-09-26T09:22:45Z</time>
      </trkpt>
      <trkpt lat="45.98595" lon="4.87215">
        <ele>277</ele>
        <time>2016-09-26T09:22:46Z</time>
      </trkpt>
      <trkpt lat="45.98593" lon="4.87222">
        <ele>277</ele>
        <time>2016-09-26T09:22:47Z</time>
      </trkpt>
      <trkpt lat="45.9859" lon="4.87229">
        <ele>277</ele>
        <time>2016-09-26T09:22:48Z</time>
      </trkpt>
      <trkpt lat="45.98587" lon="4.87236">
        <ele>277</ele>
        <time>2016-09-26T09:22:49Z</time>
      </trkpt>
      <trkpt lat="45.98586" lon="4.87244">
        <ele>276</ele>
        <time>2016-09-26T09:22:50Z</time>
      </trkpt>
      <trkpt lat="45.98584" lon="4.87251">
        <ele>276</ele>
        <time>2016-09-26T09:22:51Z</time>
      </trkpt>
      <trkpt lat="45.98582" lon="4.87258">
        <ele>276</ele>
        <time>2016-09-26T09:22:52Z</time>
      </trkpt>
      <trkpt lat="45.98582" lon="4.87268">
        <ele>276</ele>
        <time>2016-09-26T09:22:53Z</time>
      </trkpt>
      <trkpt lat="45.98582" lon="4.87279">
        <ele>276</ele>
        <time>2016-09-26T09:22:54Z</time>
      </trkpt>
      <trkpt lat="45.98583" lon="4.87289">
        <ele>276</ele>
        <time>2016-09-26T09:22:55Z</time>
      </trkpt>
      <trkpt lat="45.98586" lon="4.87302">
        <ele>274</ele>
        <time>2016-09-26T09:22:56Z</time>
      </trkpt>
      <trkpt lat="45.98587" lon="4.87312">
        <ele>274</ele>
        <time>2016-09-26T09:22:57Z</time>
      </trkpt>
      <trkpt lat="45.98589" lon="4.87323">
        <ele>274</ele>
        <time>2016-09-26T09:22:58Z</time>
      </trkpt>
      <trkpt lat="45.98591" lon="4.87334">
        <ele>273</ele>
        <time>2016-09-26T09:22:59Z</time>
      </trkpt>
      <trkpt lat="45.98592" lon="4.87344">
        <ele>273</ele>
        <time>2016-09-26T09:23:00Z</time>
      </trkpt>
      <trkpt lat="45.98593" lon="4.87357">
        <ele>272</ele>
        <time>2016-09-26T09:23:01Z</time>
      </trkpt>
      <trkpt lat="45.98594" lon="4.8737">
        <ele>272</ele>
        <time>2016-09-26T09:23:02Z</time>
      </trkpt>
      <trkpt lat="45.98596" lon="4.87382">
        <ele>272</ele>
        <time>2016-09-26T09:23:03Z</time>
      </trkpt>
      <trkpt lat="45.98599" lon="4.87395">
        <ele>271</ele>
        <time>2016-09-26T09:23:04Z</time>
      </trkpt>
      <trkpt lat="45.98601" lon="4.87406">
        <ele>271</ele>
        <time>2016-09-26T09:23:05Z</time>
      </trkpt>
      <trkpt lat="45.98604" lon="4.87417">
        <ele>270</ele>
        <time>2016-09-26T09:23:06Z</time>
      </trkpt>
      <trkpt lat="45.98606" lon="4.87427">
        <ele>270</ele>
        <time>2016-09-26T09:23:07Z</time>
      </trkpt>
      <trkpt lat="45.98609" lon="4.87437">
        <ele>269</ele>
        <time>2016-09-26T09:23:08Z</time>
      </trkpt>
      <trkpt lat="45.98613" lon="4.87443">
        <ele>269</ele>
        <time>2016-09-26T09:23:09Z</time>
      </trkpt>
      <trkpt lat="45.98616" lon="4.87454">
        <ele>269</ele>
        <time>2016-09-26T09:23:10Z</time>
      </trkpt>
      <trkpt lat="45.98618" lon="4.87462">
        <ele>268</ele>
        <time>2016-09-26T09:23:11Z</time>
      </trkpt>
      <trkpt lat="45.98621" lon="4.87471">
        <ele>268</ele>
        <time>2016-09-26T09:23:12Z</time>
      </trkpt>
      <trkpt lat="45.98624" lon="4.8748">
        <ele>268</ele>
        <time>2016-09-26T09:23:13Z</time>
      </trkpt>
      <trkpt lat="45.98626" lon="4.87489">
        <ele>268</ele>
        <time>2016-09-26T09:23:14Z</time>
      </trkpt>
      <trkpt lat="45.98628" lon="4.87499">
        <ele>268</ele>
        <time>2016-09-26T09:23:15Z</time>
      </trkpt>
      <trkpt lat="45.98631" lon="4.87509">
        <ele>267</ele>
        <time>2016-09-26T09:23:16Z</time>
      </trkpt>
      <trkpt lat="45.98633" lon="4.87519">
        <ele>267</ele>
        <time>2016-09-26T09:23:17Z</time>
      </trkpt>
      <trkpt lat="45.98634" lon="4.87528">
        <ele>267</ele>
        <time>2016-09-26T09:23:18Z</time>
      </trkpt>
      <trkpt lat="45.98634" lon="4.87538">
        <ele>267</ele>
        <time>2016-09-26T09:23:19Z</time>
      </trkpt>
      <trkpt lat="45.98636" lon="4.87546">
        <ele>267</ele>
        <time>2016-09-26T09:23:20Z</time>
      </trkpt>
      <trkpt lat="45.98642" lon="4.87556">
        <ele>267</ele>
        <time>2016-09-26T09:23:21Z</time>
      </trkpt>
      <trkpt lat="45.98648" lon="4.87564">
        <ele>267</ele>
        <time>2016-09-26T09:23:22Z</time>
      </trkpt>
      <trkpt lat="45.98654" lon="4.8757">
        <ele>267</ele>
        <time>2016-09-26T09:23:23Z</time>
      </trkpt>
      <trkpt lat="45.9866" lon="4.87575">
        <ele>267</ele>
        <time>2016-09-26T09:23:24Z</time>
      </trkpt>
      <trkpt lat="45.98666" lon="4.87578">
        <ele>267</ele>
        <time>2016-09-26T09:23:25Z</time>
      </trkpt>
      <trkpt lat="45.98672" lon="4.87579">
        <ele>267</ele>
        <time>2016-09-26T09:23:26Z</time>
      </trkpt>
      <trkpt lat="45.98678" lon="4.87579">
        <ele>267</ele>
        <time>2016-09-26T09:23:27Z</time>
      </trkpt>
      <trkpt lat="45.98684" lon="4.87578">
        <ele>267</ele>
        <time>2016-09-26T09:23:28Z</time>
      </trkpt>
      <trkpt lat="45.9869" lon="4.87577">
        <ele>267</ele>
        <time>2016-09-26T09:23:29Z</time>
      </trkpt>
      <trkpt lat="45.98695" lon="4.87576">
        <ele>267</ele>
        <time>2016-09-26T09:23:30Z</time>
      </trkpt>
      <trkpt lat="45.987" lon="4.87576">
        <ele>267</ele>
        <time>2016-09-26T09:23:31Z</time>
      </trkpt>
      <trkpt lat="45.98707" lon="4.87578">
        <ele>267</ele>
        <time>2016-09-26T09:23:32Z</time>
      </trkpt>
      <trkpt lat="45.98713" lon="4.87579">
        <ele>267</ele>
        <time>2016-09-26T09:23:33Z</time>
      </trkpt>
      <trkpt lat="45.98718" lon="4.87579">
        <ele>267</ele>
        <time>2016-09-26T09:23:34Z</time>
      </trkpt>
      <trkpt lat="45.98724" lon="4.87579">
        <ele>267</ele>
        <time>2016-09-26T09:23:35Z</time>
      </trkpt>
      <trkpt lat="45.98729" lon="4.87578">
        <ele>267</ele>
        <time>2016-09-26T09:23:36Z</time>
      </trkpt>
      <trkpt lat="45.98734" lon="4.87579">
        <ele>267</ele>
        <time>2016-09-26T09:23:37Z</time>
      </trkpt>
      <trkpt lat="45.98739" lon="4.8758">
        <ele>267</ele>
        <time>2016-09-26T09:23:38Z</time>
      </trkpt>
      <trkpt lat="45.98743" lon="4.87582">
        <ele>268</ele>
        <time>2016-09-26T09:23:39Z</time>
      </trkpt>
      <trkpt lat="45.98748" lon="4.87584">
        <ele>268</ele>
        <time>2016-09-26T09:23:40Z</time>
      </trkpt>
      <trkpt lat="45.98752" lon="4.87586">
        <ele>268</ele>
        <time>2016-09-26T09:23:41Z</time>
      </trkpt>
      <trkpt lat="45.98757" lon="4.8759">
        <ele>269</ele>
        <time>2016-09-26T09:23:42Z</time>
      </trkpt>
      <trkpt lat="45.98762" lon="4.87593">
        <ele>270</ele>
        <time>2016-09-26T09:23:43Z</time>
      </trkpt>
      <trkpt lat="45.98766" lon="4.87598">
        <ele>270</ele>
        <time>2016-09-26T09:23:44Z</time>
      </trkpt>
      <trkpt lat="45.98771" lon="4.87602">
        <ele>270</ele>
        <time>2016-09-26T09:23:45Z</time>
      </trkpt>
      <trkpt lat="45.98776" lon="4.87608">
        <ele>271</ele>
        <time>2016-09-26T09:23:46Z</time>
      </trkpt>
      <trkpt lat="45.98782" lon="4.87613">
        <ele>271</ele>
        <time>2016-09-26T09:23:47Z</time>
      </trkpt>
      <trkpt lat="45.98786" lon="4.87617">
        <ele>271</ele>
        <time>2016-09-26T09:23:48Z</time>
      </trkpt>
      <trkpt lat="45.9879" lon="4.87622">
        <ele>271</ele>
        <time>2016-09-26T09:23:49Z</time>
      </trkpt>
      <trkpt lat="45.98795" lon="4.87629">
        <ele>271</ele>
        <time>2016-09-26T09:23:50Z</time>
      </trkpt>
      <trkpt lat="45.988" lon="4.87635">
        <ele>271</ele>
        <time>2016-09-26T09:23:51Z</time>
      </trkpt>
      <trkpt lat="45.98803" lon="4.87641">
        <ele>272</ele>
        <time>2016-09-26T09:23:52Z</time>
      </trkpt>
      <trkpt lat="45.98805" lon="4.87649">
        <ele>272</ele>
        <time>2016-09-26T09:23:53Z</time>
      </trkpt>
      <trkpt lat="45.98807" lon="4.87658">
        <ele>272</ele>
        <time>2016-09-26T09:23:55Z</time>
      </trkpt>
      <trkpt lat="45.98809" lon="4.87665">
        <ele>272</ele>
        <time>2016-09-26T09:23:56Z</time>
      </trkpt>
      <trkpt lat="45.9881" lon="4.87671">
        <ele>273</ele>
        <time>2016-09-26T09:23:57Z</time>
      </trkpt>
      <trkpt lat="45.98811" lon="4.87678">
        <ele>273</ele>
        <time>2016-09-26T09:23:58Z</time>
      </trkpt>
      <trkpt lat="45.98813" lon="4.87684">
        <ele>273</ele>
        <time>2016-09-26T09:23:59Z</time>
      </trkpt>
      <trkpt lat="45.98813" lon="4.87691">
        <ele>273</ele>
        <time>2016-09-26T09:24:00Z</time>
      </trkpt>
      <trkpt lat="45.98814" lon="4.87698">
        <ele>273</ele>
        <time>2016-09-26T09:24:01Z</time>
      </trkpt>
      <trkpt lat="45.98815" lon="4.87705">
        <ele>274</ele>
        <time>2016-09-26T09:24:02Z</time>
      </trkpt>
      <trkpt lat="45.98817" lon="4.87711">
        <ele>274</ele>
        <time>2016-09-26T09:24:03Z</time>
      </trkpt>
      <trkpt lat="45.98819" lon="4.87718">
        <ele>274</ele>
        <time>2016-09-26T09:24:04Z</time>
      </trkpt>
      <trkpt lat="45.98821" lon="4.87725">
        <ele>274</ele>
        <time>2016-09-26T09:24:05Z</time>
      </trkpt>
      <trkpt lat="45.98823" lon="4.8773">
        <ele>274</ele>
        <time>2016-09-26T09:24:06Z</time>
      </trkpt>
      <trkpt lat="45.98825" lon="4.87736">
        <ele>274</ele>
        <time>2016-09-26T09:24:07Z</time>
      </trkpt>
      <trkpt lat="45.98826" lon="4.87743">
        <ele>273</ele>
        <time>2016-09-26T09:24:08Z</time>
      </trkpt>
      <trkpt lat="45.98828" lon="4.87751">
        <ele>274</ele>
        <time>2016-09-26T09:24:09Z</time>
      </trkpt>
      <trkpt lat="45.9883" lon="4.87757">
        <ele>274</ele>
        <time>2016-09-26T09:24:10Z</time>
      </trkpt>
      <trkpt lat="45.98833" lon="4.87762">
        <ele>274</ele>
        <time>2016-09-26T09:24:11Z</time>
      </trkpt>
      <trkpt lat="45.98834" lon="4.87769">
        <ele>273</ele>
        <time>2016-09-26T09:24:12Z</time>
      </trkpt>
      <trkpt lat="45.98837" lon="4.87775">
        <ele>273</ele>
        <time>2016-09-26T09:24:13Z</time>
      </trkpt>
      <trkpt lat="45.98839" lon="4.87781">
        <ele>273</ele>
        <time>2016-09-26T09:24:14Z</time>
      </trkpt>
      <trkpt lat="45.98842" lon="4.87787">
        <ele>273</ele>
        <time>2016-09-26T09:24:15Z</time>
      </trkpt>
      <trkpt lat="45.98845" lon="4.87794">
        <ele>273</ele>
        <time>2016-09-26T09:24:16Z</time>
      </trkpt>
      <trkpt lat="45.98848" lon="4.87801">
        <ele>273</ele>
        <time>2016-09-26T09:24:17Z</time>
      </trkpt>
      <trkpt lat="45.98851" lon="4.87808">
        <ele>273</ele>
        <time>2016-09-26T09:24:18Z</time>
      </trkpt>
      <trkpt lat="45.98852" lon="4.87816">
        <ele>273</ele>
        <time>2016-09-26T09:24:19Z</time>
      </trkpt>
      <trkpt lat="45.98854" lon="4.87824">
        <ele>273</ele>
        <time>2016-09-26T09:24:20Z</time>
      </trkpt>
      <trkpt lat="45.98857" lon="4.87832">
        <ele>273</ele>
        <time>2016-09-26T09:24:21Z</time>
      </trkpt>
      <trkpt lat="45.9886" lon="4.87839">
        <ele>273</ele>
        <time>2016-09-26T09:24:22Z</time>
      </trkpt>
      <trkpt lat="45.98863" lon="4.87845">
        <ele>273</ele>
        <time>2016-09-26T09:24:23Z</time>
      </trkpt>
      <trkpt lat="45.98865" lon="4.87851">
        <ele>273</ele>
        <time>2016-09-26T09:24:24Z</time>
      </trkpt>
      <trkpt lat="45.98869" lon="4.87857">
        <ele>273</ele>
        <time>2016-09-26T09:24:25Z</time>
      </trkpt>
      <trkpt lat="45.98872" lon="4.87863">
        <ele>273</ele>
        <time>2016-09-26T09:24:26Z</time>
      </trkpt>
      <trkpt lat="45.98876" lon="4.87869">
        <ele>272</ele>
        <time>2016-09-26T09:24:27Z</time>
      </trkpt>
      <trkpt lat="45.9888" lon="4.87875">
        <ele>272</ele>
        <time>2016-09-26T09:24:28Z</time>
      </trkpt>
      <trkpt lat="45.98884" lon="4.87881">
        <ele>272</ele>
        <time>2016-09-26T09:24:29Z</time>
      </trkpt>
      <trkpt lat="45.98888" lon="4.87886">
        <ele>272</ele>
        <time>2016-09-26T09:24:30Z</time>
      </trkpt>
      <trkpt lat="45.98891" lon="4.87891">
        <ele>272</ele>
        <time>2016-09-26T09:24:31Z</time>
      </trkpt>
      <trkpt lat="45.98895" lon="4.87896">
        <ele>272</ele>
        <time>2016-09-26T09:24:32Z</time>
      </trkpt>
      <trkpt lat="45.98899" lon="4.87901">
        <ele>272</ele>
        <time>2016-09-26T09:24:33Z</time>
      </trkpt>
      <trkpt lat="45.98902" lon="4.87906">
        <ele>272</ele>
        <time>2016-09-26T09:24:34Z</time>
      </trkpt>
      <trkpt lat="45.98905" lon="4.87911">
        <ele>272</ele>
        <time>2016-09-26T09:24:35Z</time>
      </trkpt>
      <trkpt lat="45.98909" lon="4.87916">
        <ele>271</ele>
        <time>2016-09-26T09:24:36Z</time>
      </trkpt>
      <trkpt lat="45.98913" lon="4.87919">
        <ele>271</ele>
        <time>2016-09-26T09:24:37Z</time>
      </trkpt>
      <trkpt lat="45.98916" lon="4.87923">
        <ele>271</ele>
        <time>2016-09-26T09:24:38Z</time>
      </trkpt>
      <trkpt lat="45.98923" lon="4.87929">
        <ele>272</ele>
        <time>2016-09-26T09:24:40Z</time>
      </trkpt>
      <trkpt lat="45.98927" lon="4.87932">
        <ele>272</ele>
        <time>2016-09-26T09:24:41Z</time>
      </trkpt>
      <trkpt lat="45.98934" lon="4.87937">
        <ele>272</ele>
        <time>2016-09-26T09:24:43Z</time>
      </trkpt>
      <trkpt lat="45.98937" lon="4.87939">
        <ele>273</ele>
        <time>2016-09-26T09:24:44Z</time>
      </trkpt>
      <trkpt lat="45.98944" lon="4.87944">
        <ele>273</ele>
        <time>2016-09-26T09:24:46Z</time>
      </trkpt>
      <trkpt lat="45.98948" lon="4.87946">
        <ele>273</ele>
        <time>2016-09-26T09:24:47Z</time>
      </trkpt>
      <trkpt lat="45.98955" lon="4.87948">
        <ele>273</ele>
        <time>2016-09-26T09:24:49Z</time>
      </trkpt>
      <trkpt lat="45.98958" lon="4.8795">
        <ele>273</ele>
        <time>2016-09-26T09:24:50Z</time>
      </trkpt>
      <trkpt lat="45.98962" lon="4.87952">
        <ele>273</ele>
        <time>2016-09-26T09:24:51Z</time>
      </trkpt>
      <trkpt lat="45.98967" lon="4.87953">
        <ele>273</ele>
        <time>2016-09-26T09:24:52Z</time>
      </trkpt>
      <trkpt lat="45.98971" lon="4.87956">
        <ele>274</ele>
        <time>2016-09-26T09:24:53Z</time>
      </trkpt>
      <trkpt lat="45.98975" lon="4.87958">
        <ele>274</ele>
        <time>2016-09-26T09:24:54Z</time>
      </trkpt>
      <trkpt lat="45.98983" lon="4.87962">
        <ele>274</ele>
        <time>2016-09-26T09:24:56Z</time>
      </trkpt>
      <trkpt lat="45.98986" lon="4.87964">
        <ele>274</ele>
        <time>2016-09-26T09:24:57Z</time>
      </trkpt>
      <trkpt lat="45.98994" lon="4.87968">
        <ele>274</ele>
        <time>2016-09-26T09:24:59Z</time>
      </trkpt>
      <trkpt lat="45.98997" lon="4.8797">
        <ele>274</ele>
        <time>2016-09-26T09:25:00Z</time>
      </trkpt>
      <trkpt lat="45.99004" lon="4.87974">
        <ele>276</ele>
        <time>2016-09-26T09:25:02Z</time>
      </trkpt>
      <trkpt lat="45.99007" lon="4.87977">
        <ele>276</ele>
        <time>2016-09-26T09:25:03Z</time>
      </trkpt>
      <trkpt lat="45.99014" lon="4.8798">
        <ele>276</ele>
        <time>2016-09-26T09:25:05Z</time>
      </trkpt>
      <trkpt lat="45.99016" lon="4.87982">
        <ele>276</ele>
        <time>2016-09-26T09:25:06Z</time>
      </trkpt>
      <trkpt lat="45.99024" lon="4.87985">
        <ele>276</ele>
        <time>2016-09-26T09:25:08Z</time>
      </trkpt>
      <trkpt lat="45.99029" lon="4.87989">
        <ele>276</ele>
        <time>2016-09-26T09:25:09Z</time>
      </trkpt>
      <trkpt lat="45.99033" lon="4.87992">
        <ele>276</ele>
        <time>2016-09-26T09:25:10Z</time>
      </trkpt>
      <trkpt lat="45.99037" lon="4.87995">
        <ele>276</ele>
        <time>2016-09-26T09:25:11Z</time>
      </trkpt>
      <trkpt lat="45.99042" lon="4.88">
        <ele>277</ele>
        <time>2016-09-26T09:25:12Z</time>
      </trkpt>
      <trkpt lat="45.99047" lon="4.88005">
        <ele>277</ele>
        <time>2016-09-26T09:25:13Z</time>
      </trkpt>
      <trkpt lat="45.99052" lon="4.88008">
        <ele>277</ele>
        <time>2016-09-26T09:25:14Z</time>
      </trkpt>
      <trkpt lat="45.99057" lon="4.88011">
        <ele>277</ele>
        <time>2016-09-26T09:25:15Z</time>
      </trkpt>
      <trkpt lat="45.99062" lon="4.88015">
        <ele>277</ele>
        <time>2016-09-26T09:25:16Z</time>
      </trkpt>
      <trkpt lat="45.99067" lon="4.88018">
        <ele>277</ele>
        <time>2016-09-26T09:25:17Z</time>
      </trkpt>
      <trkpt lat="45.99071" lon="4.88021">
        <ele>277</ele>
        <time>2016-09-26T09:25:18Z</time>
      </trkpt>
      <trkpt lat="45.99075" lon="4.88024">
        <ele>277</ele>
        <time>2016-09-26T09:25:19Z</time>
      </trkpt>
      <trkpt lat="45.9908" lon="4.88025">
        <ele>277</ele>
        <time>2016-09-26T09:25:20Z</time>
      </trkpt>
      <trkpt lat="45.99084" lon="4.88028">
        <ele>278</ele>
        <time>2016-09-26T09:25:21Z</time>
      </trkpt>
      <trkpt lat="45.99093" lon="4.88032">
        <ele>278</ele>
        <time>2016-09-26T09:25:23Z</time>
      </trkpt>
      <trkpt lat="45.99096" lon="4.88034">
        <ele>278</ele>
        <time>2016-09-26T09:25:24Z</time>
      </trkpt>
      <trkpt lat="45.99104" lon="4.88038">
        <ele>278</ele>
        <time>2016-09-26T09:25:26Z</time>
      </trkpt>
      <trkpt lat="45.99109" lon="4.8804">
        <ele>278</ele>
        <time>2016-09-26T09:25:27Z</time>
      </trkpt>
      <trkpt lat="45.99117" lon="4.88044">
        <ele>278</ele>
        <time>2016-09-26T09:25:29Z</time>
      </trkpt>
      <trkpt lat="45.99121" lon="4.88046">
        <ele>278</ele>
        <time>2016-09-26T09:25:30Z</time>
      </trkpt>
      <trkpt lat="45.99129" lon="4.88051">
        <ele>279</ele>
        <time>2016-09-26T09:25:32Z</time>
      </trkpt>
      <trkpt lat="45.99133" lon="4.88053">
        <ele>279</ele>
        <time>2016-09-26T09:25:33Z</time>
      </trkpt>
      <trkpt lat="45.99141" lon="4.88058">
        <ele>279</ele>
        <time>2016-09-26T09:25:35Z</time>
      </trkpt>
      <trkpt lat="45.99145" lon="4.88062">
        <ele>279</ele>
        <time>2016-09-26T09:25:36Z</time>
      </trkpt>
      <trkpt lat="45.9915" lon="4.88064">
        <ele>279</ele>
        <time>2016-09-26T09:25:37Z</time>
      </trkpt>
      <trkpt lat="45.99154" lon="4.88066">
        <ele>279</ele>
        <time>2016-09-26T09:25:38Z</time>
      </trkpt>
      <trkpt lat="45.99162" lon="4.88071">
        <ele>279</ele>
        <time>2016-09-26T09:25:40Z</time>
      </trkpt>
      <trkpt lat="45.99166" lon="4.88074">
        <ele>279</ele>
        <time>2016-09-26T09:25:41Z</time>
      </trkpt>
      <trkpt lat="45.99174" lon="4.88079">
        <ele>279</ele>
        <time>2016-09-26T09:25:43Z</time>
      </trkpt>
      <trkpt lat="45.99178" lon="4.88081">
        <ele>279</ele>
        <time>2016-09-26T09:25:44Z</time>
      </trkpt>
      <trkpt lat="45.99182" lon="4.88084">
        <ele>279</ele>
        <time>2016-09-26T09:25:45Z</time>
      </trkpt>
      <trkpt lat="45.99186" lon="4.88087">
        <ele>279</ele>
        <time>2016-09-26T09:25:46Z</time>
      </trkpt>
      <trkpt lat="45.99194" lon="4.88092">
        <ele>280</ele>
        <time>2016-09-26T09:25:48Z</time>
      </trkpt>
      <trkpt lat="45.99198" lon="4.88095">
        <ele>280</ele>
        <time>2016-09-26T09:25:49Z</time>
      </trkpt>
      <trkpt lat="45.99205" lon="4.881">
        <ele>280</ele>
        <time>2016-09-26T09:25:51Z</time>
      </trkpt>
      <trkpt lat="45.99209" lon="4.88103">
        <ele>280</ele>
        <time>2016-09-26T09:25:52Z</time>
      </trkpt>
      <trkpt lat="45.99217" lon="4.88108">
        <ele>280</ele>
        <time>2016-09-26T09:25:54Z</time>
      </trkpt>
      <trkpt lat="45.99221" lon="4.8811">
        <ele>280</ele>
        <time>2016-09-26T09:25:55Z</time>
      </trkpt>
      <trkpt lat="45.99228" lon="4.88116">
        <ele>280</ele>
        <time>2016-09-26T09:25:57Z</time>
      </trkpt>
      <trkpt lat="45.99232" lon="4.88119">
        <ele>280</ele>
        <time>2016-09-26T09:25:58Z</time>
      </trkpt>
      <trkpt lat="45.99236" lon="4.88123">
        <ele>280</ele>
        <time>2016-09-26T09:25:59Z</time>
      </trkpt>
      <trkpt lat="45.9924" lon="4.88125">
        <ele>280</ele>
        <time>2016-09-26T09:26:00Z</time>
      </trkpt>
      <trkpt lat="45.99248" lon="4.88131">
        <ele>280</ele>
        <time>2016-09-26T09:26:02Z</time>
      </trkpt>
      <trkpt lat="45.99252" lon="4.88134">
        <ele>283</ele>
        <time>2016-09-26T09:26:03Z</time>
      </trkpt>
      <trkpt lat="45.99256" lon="4.88138">
        <ele>283</ele>
        <time>2016-09-26T09:26:04Z</time>
      </trkpt>
      <trkpt lat="45.9926" lon="4.88142">
        <ele>283</ele>
        <time>2016-09-26T09:26:05Z</time>
      </trkpt>
      <trkpt lat="45.99263" lon="4.88146">
        <ele>283</ele>
        <time>2016-09-26T09:26:06Z</time>
      </trkpt>
      <trkpt lat="45.99267" lon="4.88151">
        <ele>283</ele>
        <time>2016-09-26T09:26:07Z</time>
      </trkpt>
      <trkpt lat="45.99275" lon="4.88156">
        <ele>283</ele>
        <time>2016-09-26T09:26:09Z</time>
      </trkpt>
      <trkpt lat="45.99279" lon="4.8816">
        <ele>283</ele>
        <time>2016-09-26T09:26:10Z</time>
      </trkpt>
      <trkpt lat="45.99283" lon="4.88164">
        <ele>284</ele>
        <time>2016-09-26T09:26:11Z</time>
      </trkpt>
      <trkpt lat="45.99287" lon="4.88168">
        <ele>284</ele>
        <time>2016-09-26T09:26:12Z</time>
      </trkpt>
      <trkpt lat="45.99291" lon="4.88172">
        <ele>284</ele>
        <time>2016-09-26T09:26:13Z</time>
      </trkpt>
      <trkpt lat="45.99294" lon="4.88178">
        <ele>284</ele>
        <time>2016-09-26T09:26:14Z</time>
      </trkpt>
      <trkpt lat="45.99299" lon="4.88181">
        <ele>284</ele>
        <time>2016-09-26T09:26:15Z</time>
      </trkpt>
      <trkpt lat="45.99303" lon="4.88184">
        <ele>285</ele>
        <time>2016-09-26T09:26:16Z</time>
      </trkpt>
      <trkpt lat="45.99307" lon="4.88188">
        <ele>285</ele>
        <time>2016-09-26T09:26:17Z</time>
      </trkpt>
      <trkpt lat="45.9931" lon="4.88192">
        <ele>285</ele>
        <time>2016-09-26T09:26:18Z</time>
      </trkpt>
      <trkpt lat="45.99314" lon="4.88196">
        <ele>285</ele>
        <time>2016-09-26T09:26:19Z</time>
      </trkpt>
      <trkpt lat="45.99318" lon="4.88199">
        <ele>285</ele>
        <time>2016-09-26T09:26:20Z</time>
      </trkpt>
      <trkpt lat="45.99326" lon="4.88205">
        <ele>285</ele>
        <time>2016-09-26T09:26:22Z</time>
      </trkpt>
      <trkpt lat="45.9933" lon="4.88206">
        <ele>285</ele>
        <time>2016-09-26T09:26:23Z</time>
      </trkpt>
      <trkpt lat="45.99338" lon="4.88211">
        <ele>287</ele>
        <time>2016-09-26T09:26:25Z</time>
      </trkpt>
      <trkpt lat="45.99343" lon="4.88214">
        <ele>287</ele>
        <time>2016-09-26T09:26:26Z</time>
      </trkpt>
      <trkpt lat="45.99347" lon="4.88218">
        <ele>287</ele>
        <time>2016-09-26T09:26:27Z</time>
      </trkpt>
      <trkpt lat="45.99351" lon="4.88222">
        <ele>287</ele>
        <time>2016-09-26T09:26:28Z</time>
      </trkpt>
      <trkpt lat="45.99355" lon="4.88227">
        <ele>287</ele>
        <time>2016-09-26T09:26:29Z</time>
      </trkpt>
      <trkpt lat="45.99359" lon="4.88231">
        <ele>287</ele>
        <time>2016-09-26T09:26:30Z</time>
      </trkpt>
      <trkpt lat="45.99363" lon="4.88236">
        <ele>287</ele>
        <time>2016-09-26T09:26:31Z</time>
      </trkpt>
      <trkpt lat="45.99367" lon="4.88241">
        <ele>287</ele>
        <time>2016-09-26T09:26:32Z</time>
      </trkpt>
      <trkpt lat="45.99371" lon="4.88245">
        <ele>287</ele>
        <time>2016-09-26T09:26:33Z</time>
      </trkpt>
      <trkpt lat="45.99374" lon="4.8825">
        <ele>285</ele>
        <time>2016-09-26T09:26:34Z</time>
      </trkpt>
      <trkpt lat="45.99378" lon="4.88256">
        <ele>285</ele>
        <time>2016-09-26T09:26:35Z</time>
      </trkpt>
      <trkpt lat="45.9938" lon="4.88263">
        <ele>285</ele>
        <time>2016-09-26T09:26:36Z</time>
      </trkpt>
      <trkpt lat="45.99383" lon="4.88271">
        <ele>284</ele>
        <time>2016-09-26T09:26:37Z</time>
      </trkpt>
      <trkpt lat="45.99386" lon="4.88276">
        <ele>284</ele>
        <time>2016-09-26T09:26:38Z</time>
      </trkpt>
      <trkpt lat="45.99389" lon="4.88282">
        <ele>284</ele>
        <time>2016-09-26T09:26:39Z</time>
      </trkpt>
      <trkpt lat="45.99391" lon="4.88288">
        <ele>284</ele>
        <time>2016-09-26T09:26:40Z</time>
      </trkpt>
      <trkpt lat="45.99394" lon="4.88294">
        <ele>284</ele>
        <time>2016-09-26T09:26:41Z</time>
      </trkpt>
      <trkpt lat="45.99397" lon="4.88301">
        <ele>284</ele>
        <time>2016-09-26T09:26:42Z</time>
      </trkpt>
      <trkpt lat="45.99399" lon="4.88307">
        <ele>284</ele>
        <time>2016-09-26T09:26:43Z</time>
      </trkpt>
      <trkpt lat="45.99402" lon="4.88313">
        <ele>283</ele>
        <time>2016-09-26T09:26:44Z</time>
      </trkpt>
      <trkpt lat="45.99404" lon="4.8832">
        <ele>283</ele>
        <time>2016-09-26T09:26:45Z</time>
      </trkpt>
      <trkpt lat="45.99407" lon="4.88326">
        <ele>283</ele>
        <time>2016-09-26T09:26:46Z</time>
      </trkpt>
      <trkpt lat="45.99412" lon="4.88334">
        <ele>282</ele>
        <time>2016-09-26T09:26:48Z</time>
      </trkpt>
      <trkpt lat="45.99415" lon="4.88341">
        <ele>282</ele>
        <time>2016-09-26T09:26:49Z</time>
      </trkpt>
      <trkpt lat="45.99418" lon="4.88348">
        <ele>282</ele>
        <time>2016-09-26T09:26:50Z</time>
      </trkpt>
      <trkpt lat="45.9942" lon="4.88355">
        <ele>283</ele>
        <time>2016-09-26T09:26:51Z</time>
      </trkpt>
      <trkpt lat="45.99422" lon="4.88362">
        <ele>283</ele>
        <time>2016-09-26T09:26:52Z</time>
      </trkpt>
      <trkpt lat="45.99425" lon="4.88369">
        <ele>283</ele>
        <time>2016-09-26T09:26:53Z</time>
      </trkpt>
      <trkpt lat="45.99429" lon="4.88376">
        <ele>283</ele>
        <time>2016-09-26T09:26:54Z</time>
      </trkpt>
      <trkpt lat="45.99431" lon="4.88383">
        <ele>283</ele>
        <time>2016-09-26T09:26:55Z</time>
      </trkpt>
      <trkpt lat="45.99434" lon="4.8839">
        <ele>283</ele>
        <time>2016-09-26T09:26:56Z</time>
      </trkpt>
      <trkpt lat="45.99437" lon="4.88396">
        <ele>283</ele>
        <time>2016-09-26T09:26:57Z</time>
      </trkpt>
      <trkpt lat="45.9944" lon="4.88402">
        <ele>283</ele>
        <time>2016-09-26T09:26:58Z</time>
      </trkpt>
      <trkpt lat="45.99443" lon="4.88407">
        <ele>283</ele>
        <time>2016-09-26T09:26:59Z</time>
      </trkpt>
      <trkpt lat="45.99446" lon="4.88411">
        <ele>283</ele>
        <time>2016-09-26T09:27:00Z</time>
      </trkpt>
      <trkpt lat="45.9945" lon="4.88416">
        <ele>283</ele>
        <time>2016-09-26T09:27:01Z</time>
      </trkpt>
      <trkpt lat="45.99454" lon="4.8842">
        <ele>283</ele>
        <time>2016-09-26T09:27:02Z</time>
      </trkpt>
      <trkpt lat="45.99458" lon="4.88423">
        <ele>283</ele>
        <time>2016-09-26T09:27:03Z</time>
      </trkpt>
      <trkpt lat="45.99463" lon="4.88428">
        <ele>284</ele>
        <time>2016-09-26T09:27:04Z</time>
      </trkpt>
      <trkpt lat="45.99468" lon="4.88432">
        <ele>284</ele>
        <time>2016-09-26T09:27:05Z</time>
      </trkpt>
      <trkpt lat="45.99472" lon="4.88437">
        <ele>284</ele>
        <time>2016-09-26T09:27:06Z</time>
      </trkpt>
      <trkpt lat="45.99476" lon="4.88443">
        <ele>284</ele>
        <time>2016-09-26T09:27:07Z</time>
      </trkpt>
      <trkpt lat="45.99479" lon="4.88449">
        <ele>284</ele>
        <time>2016-09-26T09:27:08Z</time>
      </trkpt>
      <trkpt lat="45.99483" lon="4.88453">
        <ele>284</ele>
        <time>2016-09-26T09:27:09Z</time>
      </trkpt>
      <trkpt lat="45.99487" lon="4.88459">
        <ele>284</ele>
        <time>2016-09-26T09:27:10Z</time>
      </trkpt>
      <trkpt lat="45.9949" lon="4.88464">
        <ele>284</ele>
        <time>2016-09-26T09:27:11Z</time>
      </trkpt>
      <trkpt lat="45.99493" lon="4.88469">
        <ele>284</ele>
        <time>2016-09-26T09:27:12Z</time>
      </trkpt>
      <trkpt lat="45.99496" lon="4.88475">
        <ele>284</ele>
        <time>2016-09-26T09:27:13Z</time>
      </trkpt>
      <trkpt lat="45.995" lon="4.88481">
        <ele>284</ele>
        <time>2016-09-26T09:27:14Z</time>
      </trkpt>
      <trkpt lat="45.99503" lon="4.88487">
        <ele>284</ele>
        <time>2016-09-26T09:27:15Z</time>
      </trkpt>
      <trkpt lat="45.99507" lon="4.88493">
        <ele>284</ele>
        <time>2016-09-26T09:27:16Z</time>
      </trkpt>
      <trkpt lat="45.9951" lon="4.88499">
        <ele>284</ele>
        <time>2016-09-26T09:27:17Z</time>
      </trkpt>
      <trkpt lat="45.99514" lon="4.88506">
        <ele>285</ele>
        <time>2016-09-26T09:27:18Z</time>
      </trkpt>
      <trkpt lat="45.99517" lon="4.88511">
        <ele>285</ele>
        <time>2016-09-26T09:27:19Z</time>
      </trkpt>
      <trkpt lat="45.9952" lon="4.88518">
        <ele>285</ele>
        <time>2016-09-26T09:27:20Z</time>
      </trkpt>
      <trkpt lat="45.99523" lon="4.88524">
        <ele>285</ele>
        <time>2016-09-26T09:27:21Z</time>
      </trkpt>
      <trkpt lat="45.99526" lon="4.88531">
        <ele>285</ele>
        <time>2016-09-26T09:27:22Z</time>
      </trkpt>
      <trkpt lat="45.99529" lon="4.88538">
        <ele>285</ele>
        <time>2016-09-26T09:27:23Z</time>
      </trkpt>
      <trkpt lat="45.99532" lon="4.88544">
        <ele>285</ele>
        <time>2016-09-26T09:27:24Z</time>
      </trkpt>
      <trkpt lat="45.99536" lon="4.8855">
        <ele>285</ele>
        <time>2016-09-26T09:27:25Z</time>
      </trkpt>
      <trkpt lat="45.99539" lon="4.88557">
        <ele>285</ele>
        <time>2016-09-26T09:27:26Z</time>
      </trkpt>
      <trkpt lat="45.99542" lon="4.88564">
        <ele>285</ele>
        <time>2016-09-26T09:27:27Z</time>
      </trkpt>
      <trkpt lat="45.99544" lon="4.88571">
        <ele>286</ele>
        <time>2016-09-26T09:27:28Z</time>
      </trkpt>
      <trkpt lat="45.99546" lon="4.88579">
        <ele>286</ele>
        <time>2016-09-26T09:27:29Z</time>
      </trkpt>
      <trkpt lat="45.99548" lon="4.88586">
        <ele>286</ele>
        <time>2016-09-26T09:27:30Z</time>
      </trkpt>
      <trkpt lat="45.99549" lon="4.88593">
        <ele>286</ele>
        <time>2016-09-26T09:27:31Z</time>
      </trkpt>
      <trkpt lat="45.99551" lon="4.886">
        <ele>286</ele>
        <time>2016-09-26T09:27:32Z</time>
      </trkpt>
      <trkpt lat="45.99552" lon="4.88608">
        <ele>286</ele>
        <time>2016-09-26T09:27:33Z</time>
      </trkpt>
      <trkpt lat="45.99552" lon="4.88616">
        <ele>286</ele>
        <time>2016-09-26T09:27:34Z</time>
      </trkpt>
      <trkpt lat="45.99553" lon="4.88624">
        <ele>286</ele>
        <time>2016-09-26T09:27:35Z</time>
      </trkpt>
      <trkpt lat="45.99554" lon="4.88632">
        <ele>286</ele>
        <time>2016-09-26T09:27:36Z</time>
      </trkpt>
      <trkpt lat="45.99553" lon="4.8864">
        <ele>286</ele>
        <time>2016-09-26T09:27:37Z</time>
      </trkpt>
      <trkpt lat="45.99552" lon="4.88649">
        <ele>286</ele>
        <time>2016-09-26T09:27:38Z</time>
      </trkpt>
      <trkpt lat="45.99552" lon="4.88657">
        <ele>286</ele>
        <time>2016-09-26T09:27:39Z</time>
      </trkpt>
      <trkpt lat="45.99553" lon="4.88664">
        <ele>286</ele>
        <time>2016-09-26T09:27:40Z</time>
      </trkpt>
      <trkpt lat="45.99554" lon="4.88673">
        <ele>286</ele>
        <time>2016-09-26T09:27:41Z</time>
      </trkpt>
      <trkpt lat="45.99555" lon="4.8868">
        <ele>286</ele>
        <time>2016-09-26T09:27:42Z</time>
      </trkpt>
      <trkpt lat="45.99556" lon="4.88687">
        <ele>286</ele>
        <time>2016-09-26T09:27:43Z</time>
      </trkpt>
      <trkpt lat="45.99557" lon="4.88695">
        <ele>286</ele>
        <time>2016-09-26T09:27:44Z</time>
      </trkpt>
      <trkpt lat="45.99558" lon="4.88701">
        <ele>286</ele>
        <time>2016-09-26T09:27:45Z</time>
      </trkpt>
      <trkpt lat="45.99559" lon="4.88708">
        <ele>286</ele>
        <time>2016-09-26T09:27:46Z</time>
      </trkpt>
      <trkpt lat="45.99561" lon="4.88716">
        <ele>286</ele>
        <time>2016-09-26T09:27:47Z</time>
      </trkpt>
      <trkpt lat="45.99562" lon="4.88723">
        <ele>286</ele>
        <time>2016-09-26T09:27:48Z</time>
      </trkpt>
      <trkpt lat="45.99563" lon="4.8873">
        <ele>287</ele>
        <time>2016-09-26T09:27:49Z</time>
      </trkpt>
      <trkpt lat="45.99563" lon="4.88737">
        <ele>287</ele>
        <time>2016-09-26T09:27:50Z</time>
      </trkpt>
      <trkpt lat="45.99564" lon="4.88745">
        <ele>287</ele>
        <time>2016-09-26T09:27:51Z</time>
      </trkpt>
      <trkpt lat="45.99564" lon="4.88752">
        <ele>287</ele>
        <time>2016-09-26T09:27:52Z</time>
      </trkpt>
      <trkpt lat="45.99564" lon="4.88759">
        <ele>287</ele>
        <time>2016-09-26T09:27:53Z</time>
      </trkpt>
      <trkpt lat="45.99564" lon="4.88766">
        <ele>287</ele>
        <time>2016-09-26T09:27:54Z</time>
      </trkpt>
      <trkpt lat="45.99565" lon="4.88773">
        <ele>287</ele>
        <time>2016-09-26T09:27:55Z</time>
      </trkpt>
      <trkpt lat="45.99566" lon="4.8878">
        <ele>287</ele>
        <time>2016-09-26T09:27:56Z</time>
      </trkpt>
      <trkpt lat="45.99567" lon="4.88787">
        <ele>287</ele>
        <time>2016-09-26T09:27:57Z</time>
      </trkpt>
      <trkpt lat="45.99568" lon="4.88794">
        <ele>287</ele>
        <time>2016-09-26T09:27:58Z</time>
      </trkpt>
      <trkpt lat="45.99568" lon="4.888">
        <ele>287</ele>
        <time>2016-09-26T09:27:59Z</time>
      </trkpt>
      <trkpt lat="45.99569" lon="4.88807">
        <ele>287</ele>
        <time>2016-09-26T09:28:00Z</time>
      </trkpt>
      <trkpt lat="45.99569" lon="4.88813">
        <ele>287</ele>
        <time>2016-09-26T09:28:01Z</time>
      </trkpt>
      <trkpt lat="45.99569" lon="4.88826">
        <ele>287</ele>
        <time>2016-09-26T09:28:03Z</time>
      </trkpt>
      <trkpt lat="45.99569" lon="4.88832">
        <ele>287</ele>
        <time>2016-09-26T09:28:04Z</time>
      </trkpt>
      <trkpt lat="45.9957" lon="4.88839">
        <ele>287</ele>
        <time>2016-09-26T09:28:05Z</time>
      </trkpt>
      <trkpt lat="45.99571" lon="4.88846">
        <ele>287</ele>
        <time>2016-09-26T09:28:06Z</time>
      </trkpt>
      <trkpt lat="45.99572" lon="4.88855">
        <ele>287</ele>
        <time>2016-09-26T09:28:07Z</time>
      </trkpt>
      <trkpt lat="45.99572" lon="4.88864">
        <ele>287</ele>
        <time>2016-09-26T09:28:08Z</time>
      </trkpt>
      <trkpt lat="45.99573" lon="4.88871">
        <ele>287</ele>
        <time>2016-09-26T09:28:09Z</time>
      </trkpt>
      <trkpt lat="45.99574" lon="4.88877">
        <ele>287</ele>
        <time>2016-09-26T09:28:10Z</time>
      </trkpt>
      <trkpt lat="45.99575" lon="4.88885">
        <ele>287</ele>
        <time>2016-09-26T09:28:11Z</time>
      </trkpt>
      <trkpt lat="45.99576" lon="4.88893">
        <ele>287</ele>
        <time>2016-09-26T09:28:12Z</time>
      </trkpt>
      <trkpt lat="45.99577" lon="4.88902">
        <ele>287</ele>
        <time>2016-09-26T09:28:13Z</time>
      </trkpt>
      <trkpt lat="45.99577" lon="4.88909">
        <ele>287</ele>
        <time>2016-09-26T09:28:14Z</time>
      </trkpt>
      <trkpt lat="45.99578" lon="4.88917">
        <ele>287</ele>
        <time>2016-09-26T09:28:15Z</time>
      </trkpt>
      <trkpt lat="45.99579" lon="4.88924">
        <ele>287</ele>
        <time>2016-09-26T09:28:16Z</time>
      </trkpt>
      <trkpt lat="45.99579" lon="4.88931">
        <ele>287</ele>
        <time>2016-09-26T09:28:17Z</time>
      </trkpt>
      <trkpt lat="45.9958" lon="4.88938">
        <ele>287</ele>
        <time>2016-09-26T09:28:18Z</time>
      </trkpt>
      <trkpt lat="45.99581" lon="4.88946">
        <ele>287</ele>
        <time>2016-09-26T09:28:19Z</time>
      </trkpt>
      <trkpt lat="45.99581" lon="4.88953">
        <ele>287</ele>
        <time>2016-09-26T09:28:20Z</time>
      </trkpt>
      <trkpt lat="45.99581" lon="4.88961">
        <ele>287</ele>
        <time>2016-09-26T09:28:21Z</time>
      </trkpt>
      <trkpt lat="45.99581" lon="4.88969">
        <ele>287</ele>
        <time>2016-09-26T09:28:22Z</time>
      </trkpt>
      <trkpt lat="45.9958" lon="4.88977">
        <ele>287</ele>
        <time>2016-09-26T09:28:23Z</time>
      </trkpt>
      <trkpt lat="45.9958" lon="4.88985">
        <ele>288</ele>
        <time>2016-09-26T09:28:24Z</time>
      </trkpt>
      <trkpt lat="45.9958" lon="4.88992">
        <ele>288</ele>
        <time>2016-09-26T09:28:25Z</time>
      </trkpt>
      <trkpt lat="45.9958" lon="4.89">
        <ele>288</ele>
        <time>2016-09-26T09:28:26Z</time>
      </trkpt>
      <trkpt lat="45.9958" lon="4.89007">
        <ele>288</ele>
        <time>2016-09-26T09:28:27Z</time>
      </trkpt>
      <trkpt lat="45.99581" lon="4.89017">
        <ele>288</ele>
        <time>2016-09-26T09:28:28Z</time>
      </trkpt>
      <trkpt lat="45.99581" lon="4.89026">
        <ele>288</ele>
        <time>2016-09-26T09:28:29Z</time>
      </trkpt>
      <trkpt lat="45.99581" lon="4.89034">
        <ele>288</ele>
        <time>2016-09-26T09:28:30Z</time>
      </trkpt>
      <trkpt lat="45.99581" lon="4.89043">
        <ele>288</ele>
        <time>2016-09-26T09:28:31Z</time>
      </trkpt>
      <trkpt lat="45.99581" lon="4.8905">
        <ele>288</ele>
        <time>2016-09-26T09:28:32Z</time>
      </trkpt>
      <trkpt lat="45.9958" lon="4.89057">
        <ele>289</ele>
        <time>2016-09-26T09:28:33Z</time>
      </trkpt>
      <trkpt lat="45.9958" lon="4.89064">
        <ele>289</ele>
        <time>2016-09-26T09:28:34Z</time>
      </trkpt>
      <trkpt lat="45.99579" lon="4.89071">
        <ele>289</ele>
        <time>2016-09-26T09:28:35Z</time>
      </trkpt>
      <trkpt lat="45.99578" lon="4.89078">
        <ele>289</ele>
        <time>2016-09-26T09:28:36Z</time>
      </trkpt>
      <trkpt lat="45.99578" lon="4.89085">
        <ele>289</ele>
        <time>2016-09-26T09:28:37Z</time>
      </trkpt>
      <trkpt lat="45.99577" lon="4.89092">
        <ele>289</ele>
        <time>2016-09-26T09:28:38Z</time>
      </trkpt>
      <trkpt lat="45.99577" lon="4.89105">
        <ele>289</ele>
        <time>2016-09-26T09:28:40Z</time>
      </trkpt>
      <trkpt lat="45.99577" lon="4.89112">
        <ele>289</ele>
        <time>2016-09-26T09:28:41Z</time>
      </trkpt>
      <trkpt lat="45.99577" lon="4.89119">
        <ele>289</ele>
        <time>2016-09-26T09:28:42Z</time>
      </trkpt>
      <trkpt lat="45.99577" lon="4.89126">
        <ele>289</ele>
        <time>2016-09-26T09:28:43Z</time>
      </trkpt>
      <trkpt lat="45.99577" lon="4.89133">
        <ele>289</ele>
        <time>2016-09-26T09:28:44Z</time>
      </trkpt>
      <trkpt lat="45.99577" lon="4.8914">
        <ele>289</ele>
        <time>2016-09-26T09:28:45Z</time>
      </trkpt>
      <trkpt lat="45.99577" lon="4.89148">
        <ele>289</ele>
        <time>2016-09-26T09:28:46Z</time>
      </trkpt>
      <trkpt lat="45.99577" lon="4.89154">
        <ele>288</ele>
        <time>2016-09-26T09:28:47Z</time>
      </trkpt>
      <trkpt lat="45.99577" lon="4.89161">
        <ele>288</ele>
        <time>2016-09-26T09:28:48Z</time>
      </trkpt>
      <trkpt lat="45.99577" lon="4.89169">
        <ele>288</ele>
        <time>2016-09-26T09:28:49Z</time>
      </trkpt>
      <trkpt lat="45.99577" lon="4.89176">
        <ele>288</ele>
        <time>2016-09-26T09:28:50Z</time>
      </trkpt>
      <trkpt lat="45.99578" lon="4.89183">
        <ele>288</ele>
        <time>2016-09-26T09:28:51Z</time>
      </trkpt>
      <trkpt lat="45.99579" lon="4.89191">
        <ele>288</ele>
        <time>2016-09-26T09:28:52Z</time>
      </trkpt>
      <trkpt lat="45.99579" lon="4.89199">
        <ele>288</ele>
        <time>2016-09-26T09:28:53Z</time>
      </trkpt>
      <trkpt lat="45.9958" lon="4.89208">
        <ele>288</ele>
        <time>2016-09-26T09:28:54Z</time>
      </trkpt>
      <trkpt lat="45.99581" lon="4.89217">
        <ele>288</ele>
        <time>2016-09-26T09:28:55Z</time>
      </trkpt>
      <trkpt lat="45.99581" lon="4.89224">
        <ele>288</ele>
        <time>2016-09-26T09:28:56Z</time>
      </trkpt>
      <trkpt lat="45.99582" lon="4.89232">
        <ele>288</ele>
        <time>2016-09-26T09:28:57Z</time>
      </trkpt>
      <trkpt lat="45.99582" lon="4.8924">
        <ele>288</ele>
        <time>2016-09-26T09:28:58Z</time>
      </trkpt>
      <trkpt lat="45.99583" lon="4.89248">
        <ele>288</ele>
        <time>2016-09-26T09:28:59Z</time>
      </trkpt>
      <trkpt lat="45.99583" lon="4.89257">
        <ele>288</ele>
        <time>2016-09-26T09:29:00Z</time>
      </trkpt>
      <trkpt lat="45.99584" lon="4.89264">
        <ele>288</ele>
        <time>2016-09-26T09:29:01Z</time>
      </trkpt>
      <trkpt lat="45.99585" lon="4.89272">
        <ele>288</ele>
        <time>2016-09-26T09:29:02Z</time>
      </trkpt>
      <trkpt lat="45.99586" lon="4.8928">
        <ele>289</ele>
        <time>2016-09-26T09:29:03Z</time>
      </trkpt>
      <trkpt lat="45.99586" lon="4.89288">
        <ele>289</ele>
        <time>2016-09-26T09:29:04Z</time>
      </trkpt>
      <trkpt lat="45.99587" lon="4.89296">
        <ele>289</ele>
        <time>2016-09-26T09:29:05Z</time>
      </trkpt>
      <trkpt lat="45.99587" lon="4.89303">
        <ele>289</ele>
        <time>2016-09-26T09:29:06Z</time>
      </trkpt>
      <trkpt lat="45.99588" lon="4.89311">
        <ele>289</ele>
        <time>2016-09-26T09:29:07Z</time>
      </trkpt>
      <trkpt lat="45.99588" lon="4.89319">
        <ele>289</ele>
        <time>2016-09-26T09:29:08Z</time>
      </trkpt>
      <trkpt lat="45.99588" lon="4.89326">
        <ele>289</ele>
        <time>2016-09-26T09:29:09Z</time>
      </trkpt>
      <trkpt lat="45.99589" lon="4.89333">
        <ele>289</ele>
        <time>2016-09-26T09:29:10Z</time>
      </trkpt>
      <trkpt lat="45.99589" lon="4.89339">
        <ele>289</ele>
        <time>2016-09-26T09:29:11Z</time>
      </trkpt>
      <trkpt lat="45.99589" lon="4.89346">
        <ele>289</ele>
        <time>2016-09-26T09:29:12Z</time>
      </trkpt>
      <trkpt lat="45.9959" lon="4.89353">
        <ele>289</ele>
        <time>2016-09-26T09:29:13Z</time>
      </trkpt>
      <trkpt lat="45.9959" lon="4.89365">
        <ele>289</ele>
        <time>2016-09-26T09:29:15Z</time>
      </trkpt>
      <trkpt lat="45.99591" lon="4.89372">
        <ele>289</ele>
        <time>2016-09-26T09:29:16Z</time>
      </trkpt>
      <trkpt lat="45.99591" lon="4.89379">
        <ele>290</ele>
        <time>2016-09-26T09:29:17Z</time>
      </trkpt>
      <trkpt lat="45.99591" lon="4.89386">
        <ele>290</ele>
        <time>2016-09-26T09:29:18Z</time>
      </trkpt>
      <trkpt lat="45.99592" lon="4.89393">
        <ele>290</ele>
        <time>2016-09-26T09:29:19Z</time>
      </trkpt>
      <trkpt lat="45.99592" lon="4.89401">
        <ele>290</ele>
        <time>2016-09-26T09:29:20Z</time>
      </trkpt>
      <trkpt lat="45.99593" lon="4.89408">
        <ele>290</ele>
        <time>2016-09-26T09:29:21Z</time>
      </trkpt>
      <trkpt lat="45.99594" lon="4.89416">
        <ele>290</ele>
        <time>2016-09-26T09:29:22Z</time>
      </trkpt>
      <trkpt lat="45.99594" lon="4.89423">
        <ele>290</ele>
        <time>2016-09-26T09:29:23Z</time>
      </trkpt>
      <trkpt lat="45.99593" lon="4.89431">
        <ele>290</ele>
        <time>2016-09-26T09:29:24Z</time>
      </trkpt>
      <trkpt lat="45.99594" lon="4.89439">
        <ele>290</ele>
        <time>2016-09-26T09:29:25Z</time>
      </trkpt>
      <trkpt lat="45.99595" lon="4.89447">
        <ele>290</ele>
        <time>2016-09-26T09:29:26Z</time>
      </trkpt>
      <trkpt lat="45.99596" lon="4.89455">
        <ele>290</ele>
        <time>2016-09-26T09:29:27Z</time>
      </trkpt>
      <trkpt lat="45.99596" lon="4.89463">
        <ele>290</ele>
        <time>2016-09-26T09:29:28Z</time>
      </trkpt>
      <trkpt lat="45.99597" lon="4.89471">
        <ele>290</ele>
        <time>2016-09-26T09:29:29Z</time>
      </trkpt>
      <trkpt lat="45.99597" lon="4.89479">
        <ele>290</ele>
        <time>2016-09-26T09:29:30Z</time>
      </trkpt>
      <trkpt lat="45.99597" lon="4.89487">
        <ele>290</ele>
        <time>2016-09-26T09:29:31Z</time>
      </trkpt>
      <trkpt lat="45.99598" lon="4.89495">
        <ele>290</ele>
        <time>2016-09-26T09:29:32Z</time>
      </trkpt>
      <trkpt lat="45.99599" lon="4.89502">
        <ele>290</ele>
        <time>2016-09-26T09:29:33Z</time>
      </trkpt>
      <trkpt lat="45.99599" lon="4.8951">
        <ele>290</ele>
        <time>2016-09-26T09:29:34Z</time>
      </trkpt>
      <trkpt lat="45.996" lon="4.89518">
        <ele>291</ele>
        <time>2016-09-26T09:29:35Z</time>
      </trkpt>
      <trkpt lat="45.99601" lon="4.89526">
        <ele>291</ele>
        <time>2016-09-26T09:29:36Z</time>
      </trkpt>
      <trkpt lat="45.99601" lon="4.89533">
        <ele>291</ele>
        <time>2016-09-26T09:29:37Z</time>
      </trkpt>
      <trkpt lat="45.99601" lon="4.8954">
        <ele>291</ele>
        <time>2016-09-26T09:29:38Z</time>
      </trkpt>
      <trkpt lat="45.99601" lon="4.89548">
        <ele>291</ele>
        <time>2016-09-26T09:29:39Z</time>
      </trkpt>
      <trkpt lat="45.99601" lon="4.89556">
        <ele>291</ele>
        <time>2016-09-26T09:29:40Z</time>
      </trkpt>
      <trkpt lat="45.99602" lon="4.89565">
        <ele>291</ele>
        <time>2016-09-26T09:29:41Z</time>
      </trkpt>
      <trkpt lat="45.99603" lon="4.89573">
        <ele>291</ele>
        <time>2016-09-26T09:29:42Z</time>
      </trkpt>
      <trkpt lat="45.99603" lon="4.89582">
        <ele>291</ele>
        <time>2016-09-26T09:29:43Z</time>
      </trkpt>
      <trkpt lat="45.99604" lon="4.8959">
        <ele>292</ele>
        <time>2016-09-26T09:29:44Z</time>
      </trkpt>
      <trkpt lat="45.99604" lon="4.89597">
        <ele>292</ele>
        <time>2016-09-26T09:29:45Z</time>
      </trkpt>
      <trkpt lat="45.99605" lon="4.89604">
        <ele>291</ele>
        <time>2016-09-26T09:29:46Z</time>
      </trkpt>
      <trkpt lat="45.99604" lon="4.89612">
        <ele>291</ele>
        <time>2016-09-26T09:29:47Z</time>
      </trkpt>
      <trkpt lat="45.99605" lon="4.89619">
        <ele>291</ele>
        <time>2016-09-26T09:29:48Z</time>
      </trkpt>
      <trkpt lat="45.99605" lon="4.89626">
        <ele>291</ele>
        <time>2016-09-26T09:29:49Z</time>
      </trkpt>
      <trkpt lat="45.99605" lon="4.89633">
        <ele>291</ele>
        <time>2016-09-26T09:29:50Z</time>
      </trkpt>
      <trkpt lat="45.99606" lon="4.8964">
        <ele>291</ele>
        <time>2016-09-26T09:29:51Z</time>
      </trkpt>
      <trkpt lat="45.99606" lon="4.89648">
        <ele>291</ele>
        <time>2016-09-26T09:29:52Z</time>
      </trkpt>
      <trkpt lat="45.99606" lon="4.89655">
        <ele>291</ele>
        <time>2016-09-26T09:29:53Z</time>
      </trkpt>
      <trkpt lat="45.99605" lon="4.89663">
        <ele>291</ele>
        <time>2016-09-26T09:29:54Z</time>
      </trkpt>
      <trkpt lat="45.99605" lon="4.8967">
        <ele>292</ele>
        <time>2016-09-26T09:29:55Z</time>
      </trkpt>
      <trkpt lat="45.99604" lon="4.89678">
        <ele>292</ele>
        <time>2016-09-26T09:29:56Z</time>
      </trkpt>
      <trkpt lat="45.99604" lon="4.89686">
        <ele>292</ele>
        <time>2016-09-26T09:29:57Z</time>
      </trkpt>
      <trkpt lat="45.99605" lon="4.89693">
        <ele>291</ele>
        <time>2016-09-26T09:29:58Z</time>
      </trkpt>
      <trkpt lat="45.99605" lon="4.89701">
        <ele>292</ele>
        <time>2016-09-26T09:29:59Z</time>
      </trkpt>
      <trkpt lat="45.99604" lon="4.89709">
        <ele>292</ele>
        <time>2016-09-26T09:30:00Z</time>
      </trkpt>
      <trkpt lat="45.99604" lon="4.89716">
        <ele>292</ele>
        <time>2016-09-26T09:30:01Z</time>
      </trkpt>
      <trkpt lat="45.99603" lon="4.89722">
        <ele>292</ele>
        <time>2016-09-26T09:30:02Z</time>
      </trkpt>
      <trkpt lat="45.99601" lon="4.89734">
        <ele>292</ele>
        <time>2016-09-26T09:30:04Z</time>
      </trkpt>
      <trkpt lat="45.99601" lon="4.89741">
        <ele>292</ele>
        <time>2016-09-26T09:30:05Z</time>
      </trkpt>
      <trkpt lat="45.99602" lon="4.89748">
        <ele>292</ele>
        <time>2016-09-26T09:30:06Z</time>
      </trkpt>
      <trkpt lat="45.99602" lon="4.89756">
        <ele>292</ele>
        <time>2016-09-26T09:30:07Z</time>
      </trkpt>
      <trkpt lat="45.99602" lon="4.89762">
        <ele>292</ele>
        <time>2016-09-26T09:30:08Z</time>
      </trkpt>
      <trkpt lat="45.99604" lon="4.89772">
        <ele>292</ele>
        <time>2016-09-26T09:30:09Z</time>
      </trkpt>
      <trkpt lat="45.99603" lon="4.89779">
        <ele>292</ele>
        <time>2016-09-26T09:30:10Z</time>
      </trkpt>
      <trkpt lat="45.99604" lon="4.89787">
        <ele>292</ele>
        <time>2016-09-26T09:30:11Z</time>
      </trkpt>
      <trkpt lat="45.99604" lon="4.89794">
        <ele>292</ele>
        <time>2016-09-26T09:30:12Z</time>
      </trkpt>
      <trkpt lat="45.99604" lon="4.89801">
        <ele>292</ele>
        <time>2016-09-26T09:30:13Z</time>
      </trkpt>
      <trkpt lat="45.99604" lon="4.89808">
        <ele>292</ele>
        <time>2016-09-26T09:30:14Z</time>
      </trkpt>
      <trkpt lat="45.99604" lon="4.89815">
        <ele>292</ele>
        <time>2016-09-26T09:30:15Z</time>
      </trkpt>
      <trkpt lat="45.99603" lon="4.89828">
        <ele>292</ele>
        <time>2016-09-26T09:30:17Z</time>
      </trkpt>
      <trkpt lat="45.99602" lon="4.89833">
        <ele>293</ele>
        <time>2016-09-26T09:30:18Z</time>
      </trkpt>
      <trkpt lat="45.99602" lon="4.89841">
        <ele>293</ele>
        <time>2016-09-26T09:30:19Z</time>
      </trkpt>
      <trkpt lat="45.99601" lon="4.8985">
        <ele>293</ele>
        <time>2016-09-26T09:30:20Z</time>
      </trkpt>
      <trkpt lat="45.99601" lon="4.89859">
        <ele>293</ele>
        <time>2016-09-26T09:30:21Z</time>
      </trkpt>
      <trkpt lat="45.99601" lon="4.89867">
        <ele>293</ele>
        <time>2016-09-26T09:30:22Z</time>
      </trkpt>
      <trkpt lat="45.99599" lon="4.89878">
        <ele>292</ele>
        <time>2016-09-26T09:30:23Z</time>
      </trkpt>
      <trkpt lat="45.99599" lon="4.89886">
        <ele>292</ele>
        <time>2016-09-26T09:30:24Z</time>
      </trkpt>
      <trkpt lat="45.99599" lon="4.89896">
        <ele>292</ele>
        <time>2016-09-26T09:30:25Z</time>
      </trkpt>
      <trkpt lat="45.99598" lon="4.89903">
        <ele>292</ele>
        <time>2016-09-26T09:30:26Z</time>
      </trkpt>
      <trkpt lat="45.99599" lon="4.89911">
        <ele>292</ele>
        <time>2016-09-26T09:30:27Z</time>
      </trkpt>
      <trkpt lat="45.99599" lon="4.89917">
        <ele>293</ele>
        <time>2016-09-26T09:30:28Z</time>
      </trkpt>
      <trkpt lat="45.99599" lon="4.8993">
        <ele>293</ele>
        <time>2016-09-26T09:30:30Z</time>
      </trkpt>
      <trkpt lat="45.99599" lon="4.89937">
        <ele>293</ele>
        <time>2016-09-26T09:30:31Z</time>
      </trkpt>
      <trkpt lat="45.99599" lon="4.89943">
        <ele>293</ele>
        <time>2016-09-26T09:30:32Z</time>
      </trkpt>
      <trkpt lat="45.996" lon="4.8995">
        <ele>294</ele>
        <time>2016-09-26T09:30:33Z</time>
      </trkpt>
      <trkpt lat="45.996" lon="4.89957">
        <ele>294</ele>
        <time>2016-09-26T09:30:34Z</time>
      </trkpt>
      <trkpt lat="45.99601" lon="4.89964">
        <ele>294</ele>
        <time>2016-09-26T09:30:35Z</time>
      </trkpt>
      <trkpt lat="45.99601" lon="4.8997">
        <ele>294</ele>
        <time>2016-09-26T09:30:36Z</time>
      </trkpt>
      <trkpt lat="45.99601" lon="4.89977">
        <ele>294</ele>
        <time>2016-09-26T09:30:37Z</time>
      </trkpt>
      <trkpt lat="45.99602" lon="4.89989">
        <ele>294</ele>
        <time>2016-09-26T09:30:39Z</time>
      </trkpt>
      <trkpt lat="45.99602" lon="4.89995">
        <ele>295</ele>
        <time>2016-09-26T09:30:40Z</time>
      </trkpt>
      <trkpt lat="45.99604" lon="4.90007">
        <ele>296</ele>
        <time>2016-09-26T09:30:42Z</time>
      </trkpt>
      <trkpt lat="45.99605" lon="4.90013">
        <ele>296</ele>
        <time>2016-09-26T09:30:43Z</time>
      </trkpt>
      <trkpt lat="45.99607" lon="4.90019">
        <ele>296</ele>
        <time>2016-09-26T09:30:44Z</time>
      </trkpt>
      <trkpt lat="45.99609" lon="4.90026">
        <ele>296</ele>
        <time>2016-09-26T09:30:45Z</time>
      </trkpt>
      <trkpt lat="45.99611" lon="4.90033">
        <ele>296</ele>
        <time>2016-09-26T09:30:46Z</time>
      </trkpt>
      <trkpt lat="45.99613" lon="4.90038">
        <ele>296</ele>
        <time>2016-09-26T09:30:47Z</time>
      </trkpt>
      <trkpt lat="45.99616" lon="4.90044">
        <ele>296</ele>
        <time>2016-09-26T09:30:48Z</time>
      </trkpt>
      <trkpt lat="45.99619" lon="4.90049">
        <ele>297</ele>
        <time>2016-09-26T09:30:49Z</time>
      </trkpt>
      <trkpt lat="45.99622" lon="4.90055">
        <ele>297</ele>
        <time>2016-09-26T09:30:50Z</time>
      </trkpt>
      <trkpt lat="45.99624" lon="4.90061">
        <ele>297</ele>
        <time>2016-09-26T09:30:51Z</time>
      </trkpt>
      <trkpt lat="45.99627" lon="4.90066">
        <ele>297</ele>
        <time>2016-09-26T09:30:52Z</time>
      </trkpt>
      <trkpt lat="45.99629" lon="4.90072">
        <ele>297</ele>
        <time>2016-09-26T09:30:53Z</time>
      </trkpt>
      <trkpt lat="45.99634" lon="4.90079">
        <ele>297</ele>
        <time>2016-09-26T09:30:54Z</time>
      </trkpt>
      <trkpt lat="45.99635" lon="4.90087">
        <ele>299</ele>
        <time>2016-09-26T09:30:55Z</time>
      </trkpt>
      <trkpt lat="45.99638" lon="4.90097">
        <ele>299</ele>
        <time>2016-09-26T09:30:57Z</time>
      </trkpt>
      <trkpt lat="45.99639" lon="4.90102">
        <ele>299</ele>
        <time>2016-09-26T09:30:58Z</time>
      </trkpt>
      <trkpt lat="45.99643" lon="4.90113">
        <ele>299</ele>
        <time>2016-09-26T09:31:00Z</time>
      </trkpt>
      <trkpt lat="45.99645" lon="4.90118">
        <ele>299</ele>
        <time>2016-09-26T09:31:01Z</time>
      </trkpt>
      <trkpt lat="45.99646" lon="4.90129">
        <ele>299</ele>
        <time>2016-09-26T09:31:03Z</time>
      </trkpt>
      <trkpt lat="45.99647" lon="4.90135">
        <ele>299</ele>
        <time>2016-09-26T09:31:04Z</time>
      </trkpt>
      <trkpt lat="45.99649" lon="4.90144">
        <ele>300</ele>
        <time>2016-09-26T09:31:06Z</time>
      </trkpt>
      <trkpt lat="45.9965" lon="4.90149">
        <ele>300</ele>
        <time>2016-09-26T09:31:07Z</time>
      </trkpt>
      <trkpt lat="45.99653" lon="4.90161">
        <ele>300</ele>
        <time>2016-09-26T09:31:09Z</time>
      </trkpt>
      <trkpt lat="45.99653" lon="4.90166">
        <ele>300</ele>
        <time>2016-09-26T09:31:10Z</time>
      </trkpt>
      <trkpt lat="45.99655" lon="4.90175">
        <ele>301</ele>
        <time>2016-09-26T09:31:12Z</time>
      </trkpt>
      <trkpt lat="45.99657" lon="4.90179">
        <ele>301</ele>
        <time>2016-09-26T09:31:13Z</time>
      </trkpt>
      <trkpt lat="45.99659" lon="4.9019">
        <ele>301</ele>
        <time>2016-09-26T09:31:15Z</time>
      </trkpt>
      <trkpt lat="45.99661" lon="4.90193">
        <ele>301</ele>
        <time>2016-09-26T09:31:16Z</time>
      </trkpt>
      <trkpt lat="45.99665" lon="4.90203">
        <ele>302</ele>
        <time>2016-09-26T09:31:18Z</time>
      </trkpt>
      <trkpt lat="45.99667" lon="4.90208">
        <ele>302</ele>
        <time>2016-09-26T09:31:19Z</time>
      </trkpt>
      <trkpt lat="45.9967" lon="4.90219">
        <ele>303</ele>
        <time>2016-09-26T09:31:21Z</time>
      </trkpt>
      <trkpt lat="45.99672" lon="4.90225">
        <ele>304</ele>
        <time>2016-09-26T09:31:22Z</time>
      </trkpt>
      <trkpt lat="45.99675" lon="4.90236">
        <ele>304</ele>
        <time>2016-09-26T09:31:24Z</time>
      </trkpt>
      <trkpt lat="45.99676" lon="4.90242">
        <ele>304</ele>
        <time>2016-09-26T09:31:25Z</time>
      </trkpt>
      <trkpt lat="45.99676" lon="4.90249">
        <ele>304</ele>
        <time>2016-09-26T09:31:26Z</time>
      </trkpt>
      <trkpt lat="45.99677" lon="4.90256">
        <ele>304</ele>
        <time>2016-09-26T09:31:27Z</time>
      </trkpt>
      <trkpt lat="45.99678" lon="4.90266">
        <ele>304</ele>
        <time>2016-09-26T09:31:29Z</time>
      </trkpt>
      <trkpt lat="45.99678" lon="4.90271">
        <ele>304</ele>
        <time>2016-09-26T09:31:30Z</time>
      </trkpt>
      <trkpt lat="45.99678" lon="4.90284">
        <ele>304</ele>
        <time>2016-09-26T09:31:32Z</time>
      </trkpt>
      <trkpt lat="45.99677" lon="4.90289">
        <ele>304</ele>
        <time>2016-09-26T09:31:33Z</time>
      </trkpt>
      <trkpt lat="45.99677" lon="4.90295">
        <ele>304</ele>
        <time>2016-09-26T09:31:34Z</time>
      </trkpt>
      <trkpt lat="45.99676" lon="4.90302">
        <ele>304</ele>
        <time>2016-09-26T09:31:35Z</time>
      </trkpt>
      <trkpt lat="45.99674" lon="4.90314">
        <ele>304</ele>
        <time>2016-09-26T09:31:37Z</time>
      </trkpt>
      <trkpt lat="45.99673" lon="4.90322">
        <ele>303</ele>
        <time>2016-09-26T09:31:38Z</time>
      </trkpt>
      <trkpt lat="45.99669" lon="4.90333">
        <ele>302</ele>
        <time>2016-09-26T09:31:41Z</time>
      </trkpt>
      <trkpt lat="45.99669" lon="4.90334">
        <ele>302</ele>
        <time>2016-09-26T09:31:42Z</time>
      </trkpt>
      <trkpt lat="45.99674" lon="4.9034">
        <ele>302</ele>
        <time>2016-09-26T09:31:58Z</time>
      </trkpt>
      <trkpt lat="45.99678" lon="4.9034">
        <ele>302</ele>
        <time>2016-09-26T09:31:59Z</time>
      </trkpt>
      <trkpt lat="45.99681" lon="4.90348">
        <ele>302</ele>
        <time>2016-09-26T09:32:01Z</time>
      </trkpt>
      <trkpt lat="45.99683" lon="4.90353">
        <ele>302</ele>
        <time>2016-09-26T09:32:02Z</time>
      </trkpt>
      <trkpt lat="45.99686" lon="4.90361">
        <ele>302</ele>
        <time>2016-09-26T09:32:03Z</time>
      </trkpt>
      <trkpt lat="45.99687" lon="4.90369">
        <ele>302</ele>
        <time>2016-09-26T09:32:04Z</time>
      </trkpt>
      <trkpt lat="45.99686" lon="4.90379">
        <ele>302</ele>
        <time>2016-09-26T09:32:05Z</time>
      </trkpt>
      <trkpt lat="45.99683" lon="4.9039">
        <ele>302</ele>
        <time>2016-09-26T09:32:06Z</time>
      </trkpt>
      <trkpt lat="45.99684" lon="4.90401">
        <ele>302</ele>
        <time>2016-09-26T09:32:07Z</time>
      </trkpt>
      <trkpt lat="45.99681" lon="4.9041">
        <ele>302</ele>
        <time>2016-09-26T09:32:08Z</time>
      </trkpt>
      <trkpt lat="45.99679" lon="4.9042">
        <ele>300</ele>
        <time>2016-09-26T09:32:09Z</time>
      </trkpt>
      <trkpt lat="45.99676" lon="4.90428">
        <ele>300</ele>
        <time>2016-09-26T09:32:10Z</time>
      </trkpt>
      <trkpt lat="45.99673" lon="4.90434">
        <ele>300</ele>
        <time>2016-09-26T09:32:11Z</time>
      </trkpt>
      <trkpt lat="45.9967" lon="4.90438">
        <ele>300</ele>
        <time>2016-09-26T09:32:12Z</time>
      </trkpt>
      <trkpt lat="45.99665" lon="4.90441">
        <ele>300</ele>
        <time>2016-09-26T09:32:13Z</time>
      </trkpt>
      <trkpt lat="45.9966" lon="4.90442">
        <ele>300</ele>
        <time>2016-09-26T09:32:14Z</time>
      </trkpt>
      <trkpt lat="45.99655" lon="4.90444">
        <ele>300</ele>
        <time>2016-09-26T09:32:15Z</time>
      </trkpt>
      <trkpt lat="45.99648" lon="4.90445">
        <ele>300</ele>
        <time>2016-09-26T09:32:16Z</time>
      </trkpt>
      <trkpt lat="45.99641" lon="4.90453">
        <ele>300</ele>
        <time>2016-09-26T09:32:18Z</time>
      </trkpt>
      <trkpt lat="45.99636" lon="4.90456">
        <ele>300</ele>
        <time>2016-09-26T09:32:19Z</time>
      </trkpt>
      <trkpt lat="45.9963" lon="4.90455">
        <ele>300</ele>
        <time>2016-09-26T09:32:20Z</time>
      </trkpt>
      <trkpt lat="45.99623" lon="4.90454">
        <ele>300</ele>
        <time>2016-09-26T09:32:21Z</time>
      </trkpt>
      <trkpt lat="45.99617" lon="4.90454">
        <ele>300</ele>
        <time>2016-09-26T09:32:22Z</time>
      </trkpt>
      <trkpt lat="45.99613" lon="4.90454">
        <ele>300</ele>
        <time>2016-09-26T09:32:23Z</time>
      </trkpt>
      <trkpt lat="45.99607" lon="4.90454">
        <ele>300</ele>
        <time>2016-09-26T09:32:24Z</time>
      </trkpt>
      <trkpt lat="45.99601" lon="4.90455">
        <ele>300</ele>
        <time>2016-09-26T09:32:25Z</time>
      </trkpt>
      <trkpt lat="45.99595" lon="4.90457">
        <ele>300</ele>
        <time>2016-09-26T09:32:26Z</time>
      </trkpt>
      <trkpt lat="45.99589" lon="4.9046">
        <ele>300</ele>
        <time>2016-09-26T09:32:27Z</time>
      </trkpt>
      <trkpt lat="45.99584" lon="4.90464">
        <ele>300</ele>
        <time>2016-09-26T09:32:28Z</time>
      </trkpt>
      <trkpt lat="45.99577" lon="4.90467">
        <ele>299</ele>
        <time>2016-09-26T09:32:29Z</time>
      </trkpt>
      <trkpt lat="45.9957" lon="4.90472">
        <ele>299</ele>
        <time>2016-09-26T09:32:30Z</time>
      </trkpt>
      <trkpt lat="45.99565" lon="4.90477">
        <ele>299</ele>
        <time>2016-09-26T09:32:31Z</time>
      </trkpt>
      <trkpt lat="45.9956" lon="4.90484">
        <ele>299</ele>
        <time>2016-09-26T09:32:32Z</time>
      </trkpt>
      <trkpt lat="45.99556" lon="4.90488">
        <ele>299</ele>
        <time>2016-09-26T09:32:33Z</time>
      </trkpt>
      <trkpt lat="45.99552" lon="4.90495">
        <ele>299</ele>
        <time>2016-09-26T09:32:34Z</time>
      </trkpt>
      <trkpt lat="45.99548" lon="4.90502">
        <ele>299</ele>
        <time>2016-09-26T09:32:35Z</time>
      </trkpt>
      <trkpt lat="45.99543" lon="4.90506">
        <ele>299</ele>
        <time>2016-09-26T09:32:36Z</time>
      </trkpt>
      <trkpt lat="45.99539" lon="4.90513">
        <ele>299</ele>
        <time>2016-09-26T09:32:37Z</time>
      </trkpt>
      <trkpt lat="45.99536" lon="4.9052">
        <ele>299</ele>
        <time>2016-09-26T09:32:38Z</time>
      </trkpt>
      <trkpt lat="45.99532" lon="4.90526">
        <ele>299</ele>
        <time>2016-09-26T09:32:39Z</time>
      </trkpt>
      <trkpt lat="45.99527" lon="4.9053">
        <ele>299</ele>
        <time>2016-09-26T09:32:40Z</time>
      </trkpt>
      <trkpt lat="45.99522" lon="4.90534">
        <ele>299</ele>
        <time>2016-09-26T09:32:41Z</time>
      </trkpt>
      <trkpt lat="45.99518" lon="4.90539">
        <ele>299</ele>
        <time>2016-09-26T09:32:42Z</time>
      </trkpt>
      <trkpt lat="45.99514" lon="4.90545">
        <ele>299</ele>
        <time>2016-09-26T09:32:43Z</time>
      </trkpt>
      <trkpt lat="45.99508" lon="4.9055">
        <ele>299</ele>
        <time>2016-09-26T09:32:44Z</time>
      </trkpt>
      <trkpt lat="45.99505" lon="4.90556">
        <ele>299</ele>
        <time>2016-09-26T09:32:45Z</time>
      </trkpt>
      <trkpt lat="45.99502" lon="4.90563">
        <ele>299</ele>
        <time>2016-09-26T09:32:46Z</time>
      </trkpt>
      <trkpt lat="45.99498" lon="4.90569">
        <ele>299</ele>
        <time>2016-09-26T09:32:47Z</time>
      </trkpt>
      <trkpt lat="45.99494" lon="4.90574">
        <ele>299</ele>
        <time>2016-09-26T09:32:48Z</time>
      </trkpt>
      <trkpt lat="45.99488" lon="4.90578">
        <ele>299</ele>
        <time>2016-09-26T09:32:49Z</time>
      </trkpt>
      <trkpt lat="45.99486" lon="4.90584">
        <ele>299</ele>
        <time>2016-09-26T09:32:50Z</time>
      </trkpt>
      <trkpt lat="45.99484" lon="4.90592">
        <ele>298</ele>
        <time>2016-09-26T09:32:51Z</time>
      </trkpt>
      <trkpt lat="45.99477" lon="4.90601">
        <ele>298</ele>
        <time>2016-09-26T09:32:53Z</time>
      </trkpt>
      <trkpt lat="45.99473" lon="4.90603">
        <ele>298</ele>
        <time>2016-09-26T09:32:54Z</time>
      </trkpt>
      <trkpt lat="45.99469" lon="4.90607">
        <ele>298</ele>
        <time>2016-09-26T09:32:55Z</time>
      </trkpt>
      <trkpt lat="45.99463" lon="4.90608">
        <ele>298</ele>
        <time>2016-09-26T09:32:56Z</time>
      </trkpt>
      <trkpt lat="45.99458" lon="4.90612">
        <ele>298</ele>
        <time>2016-09-26T09:32:57Z</time>
      </trkpt>
      <trkpt lat="45.99454" lon="4.90616">
        <ele>298</ele>
        <time>2016-09-26T09:32:58Z</time>
      </trkpt>
      <trkpt lat="45.99447" lon="4.90624">
        <ele>298</ele>
        <time>2016-09-26T09:33:00Z</time>
      </trkpt>
      <trkpt lat="45.99443" lon="4.90627">
        <ele>298</ele>
        <time>2016-09-26T09:33:01Z</time>
      </trkpt>
      <trkpt lat="45.99439" lon="4.90631">
        <ele>298</ele>
        <time>2016-09-26T09:33:02Z</time>
      </trkpt>
      <trkpt lat="45.99434" lon="4.90633">
        <ele>298</ele>
        <time>2016-09-26T09:33:03Z</time>
      </trkpt>
      <trkpt lat="45.9943" lon="4.90638">
        <ele>298</ele>
        <time>2016-09-26T09:33:04Z</time>
      </trkpt>
      <trkpt lat="45.99427" lon="4.90641">
        <ele>298</ele>
        <time>2016-09-26T09:33:05Z</time>
      </trkpt>
      <trkpt lat="45.99423" lon="4.90646">
        <ele>298</ele>
        <time>2016-09-26T09:33:06Z</time>
      </trkpt>
      <trkpt lat="45.9942" lon="4.90651">
        <ele>298</ele>
        <time>2016-09-26T09:33:07Z</time>
      </trkpt>
      <trkpt lat="45.99416" lon="4.90656">
        <ele>298</ele>
        <time>2016-09-26T09:33:08Z</time>
      </trkpt>
      <trkpt lat="45.99412" lon="4.9066">
        <ele>298</ele>
        <time>2016-09-26T09:33:09Z</time>
      </trkpt>
      <trkpt lat="45.99408" lon="4.90665">
        <ele>298</ele>
        <time>2016-09-26T09:33:10Z</time>
      </trkpt>
      <trkpt lat="45.99403" lon="4.9067">
        <ele>298</ele>
        <time>2016-09-26T09:33:11Z</time>
      </trkpt>
      <trkpt lat="45.99398" lon="4.90675">
        <ele>298</ele>
        <time>2016-09-26T09:33:12Z</time>
      </trkpt>
      <trkpt lat="45.99393" lon="4.90681">
        <ele>298</ele>
        <time>2016-09-26T09:33:13Z</time>
      </trkpt>
      <trkpt lat="45.99388" lon="4.90686">
        <ele>298</ele>
        <time>2016-09-26T09:33:14Z</time>
      </trkpt>
      <trkpt lat="45.99384" lon="4.90692">
        <ele>298</ele>
        <time>2016-09-26T09:33:15Z</time>
      </trkpt>
      <trkpt lat="45.9938" lon="4.90698">
        <ele>298</ele>
        <time>2016-09-26T09:33:16Z</time>
      </trkpt>
      <trkpt lat="45.99377" lon="4.90702">
        <ele>298</ele>
        <time>2016-09-26T09:33:17Z</time>
      </trkpt>
      <trkpt lat="45.99373" lon="4.90707">
        <ele>299</ele>
        <time>2016-09-26T09:33:18Z</time>
      </trkpt>
      <trkpt lat="45.99369" lon="4.90712">
        <ele>299</ele>
        <time>2016-09-26T09:33:19Z</time>
      </trkpt>
      <trkpt lat="45.99365" lon="4.90716">
        <ele>299</ele>
        <time>2016-09-26T09:33:20Z</time>
      </trkpt>
      <trkpt lat="45.99361" lon="4.90721">
        <ele>299</ele>
        <time>2016-09-26T09:33:21Z</time>
      </trkpt>
      <trkpt lat="45.99357" lon="4.90727">
        <ele>299</ele>
        <time>2016-09-26T09:33:22Z</time>
      </trkpt>
      <trkpt lat="45.99355" lon="4.90733">
        <ele>299</ele>
        <time>2016-09-26T09:33:23Z</time>
      </trkpt>
      <trkpt lat="45.99351" lon="4.90737">
        <ele>299</ele>
        <time>2016-09-26T09:33:24Z</time>
      </trkpt>
      <trkpt lat="45.99347" lon="4.90742">
        <ele>299</ele>
        <time>2016-09-26T09:33:25Z</time>
      </trkpt>
      <trkpt lat="45.99343" lon="4.90747">
        <ele>299</ele>
        <time>2016-09-26T09:33:26Z</time>
      </trkpt>
      <trkpt lat="45.99339" lon="4.90752">
        <ele>300</ele>
        <time>2016-09-26T09:33:27Z</time>
      </trkpt>
      <trkpt lat="45.99335" lon="4.90756">
        <ele>300</ele>
        <time>2016-09-26T09:33:28Z</time>
      </trkpt>
      <trkpt lat="45.99331" lon="4.90761">
        <ele>300</ele>
        <time>2016-09-26T09:33:29Z</time>
      </trkpt>
      <trkpt lat="45.99327" lon="4.90765">
        <ele>300</ele>
        <time>2016-09-26T09:33:30Z</time>
      </trkpt>
      <trkpt lat="45.99322" lon="4.9077">
        <ele>300</ele>
        <time>2016-09-26T09:33:31Z</time>
      </trkpt>
      <trkpt lat="45.99317" lon="4.90773">
        <ele>300</ele>
        <time>2016-09-26T09:33:32Z</time>
      </trkpt>
      <trkpt lat="45.99313" lon="4.90778">
        <ele>300</ele>
        <time>2016-09-26T09:33:33Z</time>
      </trkpt>
      <trkpt lat="45.99309" lon="4.90784">
        <ele>300</ele>
        <time>2016-09-26T09:33:34Z</time>
      </trkpt>
      <trkpt lat="45.99306" lon="4.9079">
        <ele>300</ele>
        <time>2016-09-26T09:33:35Z</time>
      </trkpt>
      <trkpt lat="45.99303" lon="4.90795">
        <ele>300</ele>
        <time>2016-09-26T09:33:36Z</time>
      </trkpt>
      <trkpt lat="45.99299" lon="4.90799">
        <ele>300</ele>
        <time>2016-09-26T09:33:37Z</time>
      </trkpt>
      <trkpt lat="45.99292" lon="4.90807">
        <ele>300</ele>
        <time>2016-09-26T09:33:39Z</time>
      </trkpt>
      <trkpt lat="45.99288" lon="4.90811">
        <ele>300</ele>
        <time>2016-09-26T09:33:40Z</time>
      </trkpt>
      <trkpt lat="45.99284" lon="4.90815">
        <ele>300</ele>
        <time>2016-09-26T09:33:41Z</time>
      </trkpt>
      <trkpt lat="45.99279" lon="4.9082">
        <ele>300</ele>
        <time>2016-09-26T09:33:42Z</time>
      </trkpt>
      <trkpt lat="45.99276" lon="4.90824">
        <ele>300</ele>
        <time>2016-09-26T09:33:43Z</time>
      </trkpt>
      <trkpt lat="45.99272" lon="4.9083">
        <ele>300</ele>
        <time>2016-09-26T09:33:44Z</time>
      </trkpt>
      <trkpt lat="45.99269" lon="4.90838">
        <ele>300</ele>
        <time>2016-09-26T09:33:45Z</time>
      </trkpt>
      <trkpt lat="45.99265" lon="4.90844">
        <ele>300</ele>
        <time>2016-09-26T09:33:46Z</time>
      </trkpt>
      <trkpt lat="45.9926" lon="4.9085">
        <ele>300</ele>
        <time>2016-09-26T09:33:47Z</time>
      </trkpt>
      <trkpt lat="45.99256" lon="4.90855">
        <ele>300</ele>
        <time>2016-09-26T09:33:48Z</time>
      </trkpt>
      <trkpt lat="45.99251" lon="4.9086">
        <ele>299</ele>
        <time>2016-09-26T09:33:49Z</time>
      </trkpt>
      <trkpt lat="45.99246" lon="4.90864">
        <ele>300</ele>
        <time>2016-09-26T09:33:50Z</time>
      </trkpt>
      <trkpt lat="45.99242" lon="4.9087">
        <ele>300</ele>
        <time>2016-09-26T09:33:51Z</time>
      </trkpt>
      <trkpt lat="45.99237" lon="4.90875">
        <ele>300</ele>
        <time>2016-09-26T09:33:52Z</time>
      </trkpt>
      <trkpt lat="45.99234" lon="4.90881">
        <ele>299</ele>
        <time>2016-09-26T09:33:53Z</time>
      </trkpt>
      <trkpt lat="45.99229" lon="4.90886">
        <ele>299</ele>
        <time>2016-09-26T09:33:54Z</time>
      </trkpt>
      <trkpt lat="45.99225" lon="4.90891">
        <ele>299</ele>
        <time>2016-09-26T09:33:55Z</time>
      </trkpt>
      <trkpt lat="45.99221" lon="4.90895">
        <ele>299</ele>
        <time>2016-09-26T09:33:56Z</time>
      </trkpt>
      <trkpt lat="45.99217" lon="4.909">
        <ele>299</ele>
        <time>2016-09-26T09:33:57Z</time>
      </trkpt>
      <trkpt lat="45.99213" lon="4.90905">
        <ele>299</ele>
        <time>2016-09-26T09:33:58Z</time>
      </trkpt>
      <trkpt lat="45.99209" lon="4.90909">
        <ele>299</ele>
        <time>2016-09-26T09:33:59Z</time>
      </trkpt>
      <trkpt lat="45.99205" lon="4.90914">
        <ele>300</ele>
        <time>2016-09-26T09:34:00Z</time>
      </trkpt>
      <trkpt lat="45.99203" lon="4.90923">
        <ele>300</ele>
        <time>2016-09-26T09:34:01Z</time>
      </trkpt>
      <trkpt lat="45.99199" lon="4.9093">
        <ele>300</ele>
        <time>2016-09-26T09:34:02Z</time>
      </trkpt>
      <trkpt lat="45.99195" lon="4.90936">
        <ele>300</ele>
        <time>2016-09-26T09:34:03Z</time>
      </trkpt>
      <trkpt lat="45.9919" lon="4.90942">
        <ele>300</ele>
        <time>2016-09-26T09:34:04Z</time>
      </trkpt>
      <trkpt lat="45.99185" lon="4.90947">
        <ele>300</ele>
        <time>2016-09-26T09:34:05Z</time>
      </trkpt>
      <trkpt lat="45.99181" lon="4.90952">
        <ele>300</ele>
        <time>2016-09-26T09:34:06Z</time>
      </trkpt>
      <trkpt lat="45.99177" lon="4.90957">
        <ele>300</ele>
        <time>2016-09-26T09:34:07Z</time>
      </trkpt>
      <trkpt lat="45.99172" lon="4.90963">
        <ele>300</ele>
        <time>2016-09-26T09:34:08Z</time>
      </trkpt>
      <trkpt lat="45.99168" lon="4.90969">
        <ele>300</ele>
        <time>2016-09-26T09:34:09Z</time>
      </trkpt>
      <trkpt lat="45.99163" lon="4.90974">
        <ele>301</ele>
        <time>2016-09-26T09:34:10Z</time>
      </trkpt>
      <trkpt lat="45.99159" lon="4.90979">
        <ele>301</ele>
        <time>2016-09-26T09:34:11Z</time>
      </trkpt>
      <trkpt lat="45.99154" lon="4.90984">
        <ele>301</ele>
        <time>2016-09-26T09:34:12Z</time>
      </trkpt>
      <trkpt lat="45.9915" lon="4.9099">
        <ele>301</ele>
        <time>2016-09-26T09:34:13Z</time>
      </trkpt>
      <trkpt lat="45.99145" lon="4.90995">
        <ele>301</ele>
        <time>2016-09-26T09:34:14Z</time>
      </trkpt>
      <trkpt lat="45.9914" lon="4.91">
        <ele>301</ele>
        <time>2016-09-26T09:34:15Z</time>
      </trkpt>
      <trkpt lat="45.99136" lon="4.91005">
        <ele>301</ele>
        <time>2016-09-26T09:34:16Z</time>
      </trkpt>
      <trkpt lat="45.99131" lon="4.9101">
        <ele>301</ele>
        <time>2016-09-26T09:34:17Z</time>
      </trkpt>
      <trkpt lat="45.99126" lon="4.91016">
        <ele>301</ele>
        <time>2016-09-26T09:34:18Z</time>
      </trkpt>
      <trkpt lat="45.99121" lon="4.91022">
        <ele>301</ele>
        <time>2016-09-26T09:34:19Z</time>
      </trkpt>
      <trkpt lat="45.99116" lon="4.91027">
        <ele>301</ele>
        <time>2016-09-26T09:34:20Z</time>
      </trkpt>
      <trkpt lat="45.99111" lon="4.91032">
        <ele>301</ele>
        <time>2016-09-26T09:34:21Z</time>
      </trkpt>
      <trkpt lat="45.99107" lon="4.91038">
        <ele>301</ele>
        <time>2016-09-26T09:34:22Z</time>
      </trkpt>
      <trkpt lat="45.99103" lon="4.91043">
        <ele>301</ele>
        <time>2016-09-26T09:34:23Z</time>
      </trkpt>
      <trkpt lat="45.99099" lon="4.91048">
        <ele>301</ele>
        <time>2016-09-26T09:34:24Z</time>
      </trkpt>
      <trkpt lat="45.99096" lon="4.91052">
        <ele>301</ele>
        <time>2016-09-26T09:34:25Z</time>
      </trkpt>
      <trkpt lat="45.99092" lon="4.91057">
        <ele>301</ele>
        <time>2016-09-26T09:34:26Z</time>
      </trkpt>
      <trkpt lat="45.99088" lon="4.91062">
        <ele>300</ele>
        <time>2016-09-26T09:34:27Z</time>
      </trkpt>
      <trkpt lat="45.99084" lon="4.91067">
        <ele>300</ele>
        <time>2016-09-26T09:34:28Z</time>
      </trkpt>
      <trkpt lat="45.9908" lon="4.91072">
        <ele>300</ele>
        <time>2016-09-26T09:34:29Z</time>
      </trkpt>
      <trkpt lat="45.99076" lon="4.91077">
        <ele>300</ele>
        <time>2016-09-26T09:34:30Z</time>
      </trkpt>
      <trkpt lat="45.99073" lon="4.91084">
        <ele>300</ele>
        <time>2016-09-26T09:34:31Z</time>
      </trkpt>
      <trkpt lat="45.99069" lon="4.91088">
        <ele>300</ele>
        <time>2016-09-26T09:34:32Z</time>
      </trkpt>
      <trkpt lat="45.99065" lon="4.91092">
        <ele>300</ele>
        <time>2016-09-26T09:34:33Z</time>
      </trkpt>
      <trkpt lat="45.9906" lon="4.91095">
        <ele>299</ele>
        <time>2016-09-26T09:34:34Z</time>
      </trkpt>
      <trkpt lat="45.99056" lon="4.911">
        <ele>299</ele>
        <time>2016-09-26T09:34:35Z</time>
      </trkpt>
      <trkpt lat="45.99053" lon="4.91107">
        <ele>299</ele>
        <time>2016-09-26T09:34:36Z</time>
      </trkpt>
      <trkpt lat="45.9905" lon="4.91114">
        <ele>299</ele>
        <time>2016-09-26T09:34:37Z</time>
      </trkpt>
      <trkpt lat="45.99045" lon="4.9112">
        <ele>299</ele>
        <time>2016-09-26T09:34:38Z</time>
      </trkpt>
      <trkpt lat="45.99041" lon="4.91126">
        <ele>299</ele>
        <time>2016-09-26T09:34:39Z</time>
      </trkpt>
      <trkpt lat="45.99037" lon="4.91132">
        <ele>299</ele>
        <time>2016-09-26T09:34:40Z</time>
      </trkpt>
      <trkpt lat="45.99033" lon="4.91138">
        <ele>299</ele>
        <time>2016-09-26T09:34:41Z</time>
      </trkpt>
      <trkpt lat="45.99028" lon="4.91142">
        <ele>299</ele>
        <time>2016-09-26T09:34:42Z</time>
      </trkpt>
      <trkpt lat="45.99023" lon="4.91148">
        <ele>299</ele>
        <time>2016-09-26T09:34:43Z</time>
      </trkpt>
      <trkpt lat="45.99019" lon="4.91154">
        <ele>299</ele>
        <time>2016-09-26T09:34:44Z</time>
      </trkpt>
      <trkpt lat="45.99015" lon="4.9116">
        <ele>299</ele>
        <time>2016-09-26T09:34:45Z</time>
      </trkpt>
      <trkpt lat="45.99011" lon="4.91165">
        <ele>299</ele>
        <time>2016-09-26T09:34:46Z</time>
      </trkpt>
      <trkpt lat="45.99006" lon="4.9117">
        <ele>299</ele>
        <time>2016-09-26T09:34:47Z</time>
      </trkpt>
      <trkpt lat="45.99002" lon="4.91175">
        <ele>299</ele>
        <time>2016-09-26T09:34:48Z</time>
      </trkpt>
      <trkpt lat="45.98998" lon="4.9118">
        <ele>299</ele>
        <time>2016-09-26T09:34:49Z</time>
      </trkpt>
      <trkpt lat="45.98993" lon="4.91186">
        <ele>299</ele>
        <time>2016-09-26T09:34:50Z</time>
      </trkpt>
      <trkpt lat="45.98988" lon="4.91193">
        <ele>299</ele>
        <time>2016-09-26T09:34:51Z</time>
      </trkpt>
      <trkpt lat="45.98984" lon="4.91199">
        <ele>299</ele>
        <time>2016-09-26T09:34:52Z</time>
      </trkpt>
      <trkpt lat="45.98979" lon="4.91205">
        <ele>299</ele>
        <time>2016-09-26T09:34:53Z</time>
      </trkpt>
      <trkpt lat="45.98974" lon="4.9121">
        <ele>299</ele>
        <time>2016-09-26T09:34:54Z</time>
      </trkpt>
      <trkpt lat="45.9897" lon="4.91216">
        <ele>299</ele>
        <time>2016-09-26T09:34:55Z</time>
      </trkpt>
      <trkpt lat="45.98965" lon="4.9122">
        <ele>299</ele>
        <time>2016-09-26T09:34:56Z</time>
      </trkpt>
      <trkpt lat="45.9896" lon="4.91226">
        <ele>299</ele>
        <time>2016-09-26T09:34:57Z</time>
      </trkpt>
      <trkpt lat="45.98956" lon="4.91231">
        <ele>299</ele>
        <time>2016-09-26T09:34:58Z</time>
      </trkpt>
      <trkpt lat="45.98951" lon="4.91235">
        <ele>299</ele>
        <time>2016-09-26T09:34:59Z</time>
      </trkpt>
      <trkpt lat="45.98946" lon="4.91239">
        <ele>299</ele>
        <time>2016-09-26T09:35:00Z</time>
      </trkpt>
      <trkpt lat="45.98942" lon="4.91244">
        <ele>299</ele>
        <time>2016-09-26T09:35:01Z</time>
      </trkpt>
      <trkpt lat="45.98937" lon="4.91248">
        <ele>299</ele>
        <time>2016-09-26T09:35:02Z</time>
      </trkpt>
      <trkpt lat="45.98933" lon="4.91253">
        <ele>299</ele>
        <time>2016-09-26T09:35:03Z</time>
      </trkpt>
      <trkpt lat="45.98928" lon="4.9126">
        <ele>299</ele>
        <time>2016-09-26T09:35:04Z</time>
      </trkpt>
      <trkpt lat="45.98923" lon="4.91265">
        <ele>299</ele>
        <time>2016-09-26T09:35:05Z</time>
      </trkpt>
      <trkpt lat="45.98919" lon="4.91272">
        <ele>299</ele>
        <time>2016-09-26T09:35:06Z</time>
      </trkpt>
      <trkpt lat="45.98914" lon="4.91277">
        <ele>299</ele>
        <time>2016-09-26T09:35:07Z</time>
      </trkpt>
      <trkpt lat="45.9891" lon="4.91282">
        <ele>299</ele>
        <time>2016-09-26T09:35:08Z</time>
      </trkpt>
      <trkpt lat="45.98905" lon="4.91288">
        <ele>299</ele>
        <time>2016-09-26T09:35:09Z</time>
      </trkpt>
      <trkpt lat="45.989" lon="4.91293">
        <ele>299</ele>
        <time>2016-09-26T09:35:10Z</time>
      </trkpt>
      <trkpt lat="45.98895" lon="4.91299">
        <ele>299</ele>
        <time>2016-09-26T09:35:11Z</time>
      </trkpt>
      <trkpt lat="45.98891" lon="4.91304">
        <ele>299</ele>
        <time>2016-09-26T09:35:12Z</time>
      </trkpt>
      <trkpt lat="45.98885" lon="4.9131">
        <ele>299</ele>
        <time>2016-09-26T09:35:13Z</time>
      </trkpt>
      <trkpt lat="45.9888" lon="4.91316">
        <ele>299</ele>
        <time>2016-09-26T09:35:14Z</time>
      </trkpt>
      <trkpt lat="45.98876" lon="4.91322">
        <ele>299</ele>
        <time>2016-09-26T09:35:15Z</time>
      </trkpt>
      <trkpt lat="45.98871" lon="4.91328">
        <ele>298</ele>
        <time>2016-09-26T09:35:16Z</time>
      </trkpt>
      <trkpt lat="45.98867" lon="4.91334">
        <ele>298</ele>
        <time>2016-09-26T09:35:17Z</time>
      </trkpt>
      <trkpt lat="45.98862" lon="4.91339">
        <ele>298</ele>
        <time>2016-09-26T09:35:18Z</time>
      </trkpt>
      <trkpt lat="45.98858" lon="4.91344">
        <ele>298</ele>
        <time>2016-09-26T09:35:19Z</time>
      </trkpt>
      <trkpt lat="45.98854" lon="4.91348">
        <ele>298</ele>
        <time>2016-09-26T09:35:20Z</time>
      </trkpt>
      <trkpt lat="45.98849" lon="4.91353">
        <ele>298</ele>
        <time>2016-09-26T09:35:21Z</time>
      </trkpt>
      <trkpt lat="45.98845" lon="4.91358">
        <ele>298</ele>
        <time>2016-09-26T09:35:22Z</time>
      </trkpt>
      <trkpt lat="45.9884" lon="4.91364">
        <ele>298</ele>
        <time>2016-09-26T09:35:23Z</time>
      </trkpt>
      <trkpt lat="45.98836" lon="4.91369">
        <ele>298</ele>
        <time>2016-09-26T09:35:24Z</time>
      </trkpt>
      <trkpt lat="45.98831" lon="4.91375">
        <ele>298</ele>
        <time>2016-09-26T09:35:25Z</time>
      </trkpt>
      <trkpt lat="45.98826" lon="4.9138">
        <ele>298</ele>
        <time>2016-09-26T09:35:26Z</time>
      </trkpt>
      <trkpt lat="45.98821" lon="4.91384">
        <ele>298</ele>
        <time>2016-09-26T09:35:27Z</time>
      </trkpt>
      <trkpt lat="45.98816" lon="4.91389">
        <ele>299</ele>
        <time>2016-09-26T09:35:28Z</time>
      </trkpt>
      <trkpt lat="45.98812" lon="4.91395">
        <ele>299</ele>
        <time>2016-09-26T09:35:29Z</time>
      </trkpt>
      <trkpt lat="45.98808" lon="4.914">
        <ele>299</ele>
        <time>2016-09-26T09:35:30Z</time>
      </trkpt>
      <trkpt lat="45.98804" lon="4.91405">
        <ele>299</ele>
        <time>2016-09-26T09:35:31Z</time>
      </trkpt>
      <trkpt lat="45.98799" lon="4.91411">
        <ele>299</ele>
        <time>2016-09-26T09:35:32Z</time>
      </trkpt>
      <trkpt lat="45.98795" lon="4.91416">
        <ele>299</ele>
        <time>2016-09-26T09:35:33Z</time>
      </trkpt>
      <trkpt lat="45.98791" lon="4.91422">
        <ele>298</ele>
        <time>2016-09-26T09:35:34Z</time>
      </trkpt>
      <trkpt lat="45.98787" lon="4.91428">
        <ele>298</ele>
        <time>2016-09-26T09:35:35Z</time>
      </trkpt>
      <trkpt lat="45.98783" lon="4.91434">
        <ele>298</ele>
        <time>2016-09-26T09:35:36Z</time>
      </trkpt>
      <trkpt lat="45.98779" lon="4.9144">
        <ele>298</ele>
        <time>2016-09-26T09:35:37Z</time>
      </trkpt>
      <trkpt lat="45.98774" lon="4.91445">
        <ele>298</ele>
        <time>2016-09-26T09:35:38Z</time>
      </trkpt>
      <trkpt lat="45.9877" lon="4.91451">
        <ele>298</ele>
        <time>2016-09-26T09:35:39Z</time>
      </trkpt>
      <trkpt lat="45.98765" lon="4.91457">
        <ele>298</ele>
        <time>2016-09-26T09:35:40Z</time>
      </trkpt>
      <trkpt lat="45.9876" lon="4.91463">
        <ele>298</ele>
        <time>2016-09-26T09:35:41Z</time>
      </trkpt>
      <trkpt lat="45.98755" lon="4.91468">
        <ele>298</ele>
        <time>2016-09-26T09:35:42Z</time>
      </trkpt>
      <trkpt lat="45.9875" lon="4.91473">
        <ele>299</ele>
        <time>2016-09-26T09:35:43Z</time>
      </trkpt>
      <trkpt lat="45.98745" lon="4.91479">
        <ele>299</ele>
        <time>2016-09-26T09:35:44Z</time>
      </trkpt>
      <trkpt lat="45.9874" lon="4.91485">
        <ele>299</ele>
        <time>2016-09-26T09:35:45Z</time>
      </trkpt>
      <trkpt lat="45.98736" lon="4.9149">
        <ele>299</ele>
        <time>2016-09-26T09:35:46Z</time>
      </trkpt>
      <trkpt lat="45.9873" lon="4.91495">
        <ele>299</ele>
        <time>2016-09-26T09:35:47Z</time>
      </trkpt>
      <trkpt lat="45.98726" lon="4.915">
        <ele>299</ele>
        <time>2016-09-26T09:35:48Z</time>
      </trkpt>
      <trkpt lat="45.98722" lon="4.91505">
        <ele>299</ele>
        <time>2016-09-26T09:35:49Z</time>
      </trkpt>
      <trkpt lat="45.98717" lon="4.9151">
        <ele>299</ele>
        <time>2016-09-26T09:35:50Z</time>
      </trkpt>
      <trkpt lat="45.98712" lon="4.91515">
        <ele>299</ele>
        <time>2016-09-26T09:35:51Z</time>
      </trkpt>
      <trkpt lat="45.98708" lon="4.9152">
        <ele>299</ele>
        <time>2016-09-26T09:35:52Z</time>
      </trkpt>
      <trkpt lat="45.98703" lon="4.91525">
        <ele>299</ele>
        <time>2016-09-26T09:35:53Z</time>
      </trkpt>
      <trkpt lat="45.98699" lon="4.9153">
        <ele>299</ele>
        <time>2016-09-26T09:35:54Z</time>
      </trkpt>
      <trkpt lat="45.98694" lon="4.91535">
        <ele>299</ele>
        <time>2016-09-26T09:35:55Z</time>
      </trkpt>
      <trkpt lat="45.98689" lon="4.9154">
        <ele>299</ele>
        <time>2016-09-26T09:35:56Z</time>
      </trkpt>
      <trkpt lat="45.98684" lon="4.91546">
        <ele>299</ele>
        <time>2016-09-26T09:35:57Z</time>
      </trkpt>
      <trkpt lat="45.98679" lon="4.91552">
        <ele>299</ele>
        <time>2016-09-26T09:35:58Z</time>
      </trkpt>
      <trkpt lat="45.98674" lon="4.91557">
        <ele>299</ele>
        <time>2016-09-26T09:35:59Z</time>
      </trkpt>
      <trkpt lat="45.98669" lon="4.91563">
        <ele>299</ele>
        <time>2016-09-26T09:36:00Z</time>
      </trkpt>
      <trkpt lat="45.98664" lon="4.91569">
        <ele>299</ele>
        <time>2016-09-26T09:36:01Z</time>
      </trkpt>
      <trkpt lat="45.98659" lon="4.91575">
        <ele>299</ele>
        <time>2016-09-26T09:36:02Z</time>
      </trkpt>
      <trkpt lat="45.98654" lon="4.91581">
        <ele>299</ele>
        <time>2016-09-26T09:36:03Z</time>
      </trkpt>
      <trkpt lat="45.98649" lon="4.91586">
        <ele>299</ele>
        <time>2016-09-26T09:36:04Z</time>
      </trkpt>
      <trkpt lat="45.98644" lon="4.91593">
        <ele>299</ele>
        <time>2016-09-26T09:36:05Z</time>
      </trkpt>
      <trkpt lat="45.98638" lon="4.916">
        <ele>298</ele>
        <time>2016-09-26T09:36:06Z</time>
      </trkpt>
      <trkpt lat="45.98633" lon="4.91606">
        <ele>298</ele>
        <time>2016-09-26T09:36:07Z</time>
      </trkpt>
      <trkpt lat="45.98629" lon="4.91611">
        <ele>298</ele>
        <time>2016-09-26T09:36:08Z</time>
      </trkpt>
      <trkpt lat="45.98624" lon="4.91616">
        <ele>298</ele>
        <time>2016-09-26T09:36:09Z</time>
      </trkpt>
      <trkpt lat="45.98619" lon="4.91621">
        <ele>298</ele>
        <time>2016-09-26T09:36:10Z</time>
      </trkpt>
      <trkpt lat="45.98615" lon="4.91627">
        <ele>298</ele>
        <time>2016-09-26T09:36:11Z</time>
      </trkpt>
      <trkpt lat="45.9861" lon="4.91634">
        <ele>298</ele>
        <time>2016-09-26T09:36:12Z</time>
      </trkpt>
      <trkpt lat="45.98605" lon="4.91641">
        <ele>298</ele>
        <time>2016-09-26T09:36:13Z</time>
      </trkpt>
      <trkpt lat="45.986" lon="4.91647">
        <ele>298</ele>
        <time>2016-09-26T09:36:14Z</time>
      </trkpt>
      <trkpt lat="45.98596" lon="4.91653">
        <ele>298</ele>
        <time>2016-09-26T09:36:15Z</time>
      </trkpt>
      <trkpt lat="45.98591" lon="4.91659">
        <ele>298</ele>
        <time>2016-09-26T09:36:16Z</time>
      </trkpt>
      <trkpt lat="45.98586" lon="4.91665">
        <ele>298</ele>
        <time>2016-09-26T09:36:17Z</time>
      </trkpt>
      <trkpt lat="45.9858" lon="4.9167">
        <ele>298</ele>
        <time>2016-09-26T09:36:18Z</time>
      </trkpt>
      <trkpt lat="45.98576" lon="4.91677">
        <ele>298</ele>
        <time>2016-09-26T09:36:19Z</time>
      </trkpt>
      <trkpt lat="45.98571" lon="4.91683">
        <ele>298</ele>
        <time>2016-09-26T09:36:20Z</time>
      </trkpt>
      <trkpt lat="45.98567" lon="4.91689">
        <ele>298</ele>
        <time>2016-09-26T09:36:21Z</time>
      </trkpt>
      <trkpt lat="45.98562" lon="4.91695">
        <ele>298</ele>
        <time>2016-09-26T09:36:22Z</time>
      </trkpt>
      <trkpt lat="45.98558" lon="4.91701">
        <ele>298</ele>
        <time>2016-09-26T09:36:23Z</time>
      </trkpt>
      <trkpt lat="45.98553" lon="4.91707">
        <ele>298</ele>
        <time>2016-09-26T09:36:24Z</time>
      </trkpt>
      <trkpt lat="45.98549" lon="4.91713">
        <ele>298</ele>
        <time>2016-09-26T09:36:25Z</time>
      </trkpt>
      <trkpt lat="45.98544" lon="4.91719">
        <ele>298</ele>
        <time>2016-09-26T09:36:26Z</time>
      </trkpt>
      <trkpt lat="45.9854" lon="4.91725">
        <ele>297</ele>
        <time>2016-09-26T09:36:27Z</time>
      </trkpt>
      <trkpt lat="45.98535" lon="4.9173">
        <ele>297</ele>
        <time>2016-09-26T09:36:28Z</time>
      </trkpt>
      <trkpt lat="45.98529" lon="4.91736">
        <ele>297</ele>
        <time>2016-09-26T09:36:29Z</time>
      </trkpt>
      <trkpt lat="45.98524" lon="4.91742">
        <ele>297</ele>
        <time>2016-09-26T09:36:30Z</time>
      </trkpt>
      <trkpt lat="45.98519" lon="4.91748">
        <ele>297</ele>
        <time>2016-09-26T09:36:31Z</time>
      </trkpt>
      <trkpt lat="45.98514" lon="4.91754">
        <ele>297</ele>
        <time>2016-09-26T09:36:32Z</time>
      </trkpt>
      <trkpt lat="45.9851" lon="4.9176">
        <ele>297</ele>
        <time>2016-09-26T09:36:33Z</time>
      </trkpt>
      <trkpt lat="45.98506" lon="4.91767">
        <ele>297</ele>
        <time>2016-09-26T09:36:34Z</time>
      </trkpt>
      <trkpt lat="45.98501" lon="4.91773">
        <ele>297</ele>
        <time>2016-09-26T09:36:35Z</time>
      </trkpt>
      <trkpt lat="45.98496" lon="4.9178">
        <ele>297</ele>
        <time>2016-09-26T09:36:36Z</time>
      </trkpt>
      <trkpt lat="45.98491" lon="4.91788">
        <ele>297</ele>
        <time>2016-09-26T09:36:37Z</time>
      </trkpt>
      <trkpt lat="45.98486" lon="4.91794">
        <ele>297</ele>
        <time>2016-09-26T09:36:38Z</time>
      </trkpt>
      <trkpt lat="45.98481" lon="4.91801">
        <ele>297</ele>
        <time>2016-09-26T09:36:39Z</time>
      </trkpt>
      <trkpt lat="45.98477" lon="4.91807">
        <ele>297</ele>
        <time>2016-09-26T09:36:40Z</time>
      </trkpt>
      <trkpt lat="45.98473" lon="4.91813">
        <ele>297</ele>
        <time>2016-09-26T09:36:41Z</time>
      </trkpt>
      <trkpt lat="45.98468" lon="4.91819">
        <ele>297</ele>
        <time>2016-09-26T09:36:42Z</time>
      </trkpt>
      <trkpt lat="45.98463" lon="4.91823">
        <ele>297</ele>
        <time>2016-09-26T09:36:43Z</time>
      </trkpt>
      <trkpt lat="45.98459" lon="4.91828">
        <ele>297</ele>
        <time>2016-09-26T09:36:44Z</time>
      </trkpt>
      <trkpt lat="45.98453" lon="4.91834">
        <ele>297</ele>
        <time>2016-09-26T09:36:45Z</time>
      </trkpt>
      <trkpt lat="45.98449" lon="4.91841">
        <ele>297</ele>
        <time>2016-09-26T09:36:46Z</time>
      </trkpt>
      <trkpt lat="45.98443" lon="4.91847">
        <ele>297</ele>
        <time>2016-09-26T09:36:47Z</time>
      </trkpt>
      <trkpt lat="45.98438" lon="4.91854">
        <ele>297</ele>
        <time>2016-09-26T09:36:48Z</time>
      </trkpt>
      <trkpt lat="45.98433" lon="4.9186">
        <ele>297</ele>
        <time>2016-09-26T09:36:49Z</time>
      </trkpt>
      <trkpt lat="45.98428" lon="4.91867">
        <ele>297</ele>
        <time>2016-09-26T09:36:50Z</time>
      </trkpt>
      <trkpt lat="45.98423" lon="4.91874">
        <ele>297</ele>
        <time>2016-09-26T09:36:51Z</time>
      </trkpt>
      <trkpt lat="45.98419" lon="4.91881">
        <ele>297</ele>
        <time>2016-09-26T09:36:52Z</time>
      </trkpt>
      <trkpt lat="45.98413" lon="4.91888">
        <ele>297</ele>
        <time>2016-09-26T09:36:53Z</time>
      </trkpt>
      <trkpt lat="45.98408" lon="4.91894">
        <ele>297</ele>
        <time>2016-09-26T09:36:54Z</time>
      </trkpt>
      <trkpt lat="45.98403" lon="4.91901">
        <ele>297</ele>
        <time>2016-09-26T09:36:55Z</time>
      </trkpt>
      <trkpt lat="45.98397" lon="4.91908">
        <ele>297</ele>
        <time>2016-09-26T09:36:56Z</time>
      </trkpt>
      <trkpt lat="45.98392" lon="4.91914">
        <ele>297</ele>
        <time>2016-09-26T09:36:57Z</time>
      </trkpt>
      <trkpt lat="45.98387" lon="4.9192">
        <ele>297</ele>
        <time>2016-09-26T09:36:58Z</time>
      </trkpt>
      <trkpt lat="45.98382" lon="4.91926">
        <ele>297</ele>
        <time>2016-09-26T09:36:59Z</time>
      </trkpt>
      <trkpt lat="45.98377" lon="4.91932">
        <ele>297</ele>
        <time>2016-09-26T09:37:00Z</time>
      </trkpt>
      <trkpt lat="45.98373" lon="4.91938">
        <ele>298</ele>
        <time>2016-09-26T09:37:01Z</time>
      </trkpt>
      <trkpt lat="45.98369" lon="4.91944">
        <ele>298</ele>
        <time>2016-09-26T09:37:02Z</time>
      </trkpt>
      <trkpt lat="45.98364" lon="4.9195">
        <ele>298</ele>
        <time>2016-09-26T09:37:03Z</time>
      </trkpt>
      <trkpt lat="45.98359" lon="4.91955">
        <ele>298</ele>
        <time>2016-09-26T09:37:04Z</time>
      </trkpt>
      <trkpt lat="45.98354" lon="4.91961">
        <ele>297</ele>
        <time>2016-09-26T09:37:05Z</time>
      </trkpt>
      <trkpt lat="45.98349" lon="4.91968">
        <ele>297</ele>
        <time>2016-09-26T09:37:06Z</time>
      </trkpt>
      <trkpt lat="45.98344" lon="4.91975">
        <ele>297</ele>
        <time>2016-09-26T09:37:07Z</time>
      </trkpt>
      <trkpt lat="45.98339" lon="4.91981">
        <ele>297</ele>
        <time>2016-09-26T09:37:08Z</time>
      </trkpt>
      <trkpt lat="45.98334" lon="4.91987">
        <ele>297</ele>
        <time>2016-09-26T09:37:09Z</time>
      </trkpt>
      <trkpt lat="45.98329" lon="4.91993">
        <ele>297</ele>
        <time>2016-09-26T09:37:10Z</time>
      </trkpt>
      <trkpt lat="45.98325" lon="4.91999">
        <ele>297</ele>
        <time>2016-09-26T09:37:11Z</time>
      </trkpt>
      <trkpt lat="45.9832" lon="4.92005">
        <ele>297</ele>
        <time>2016-09-26T09:37:12Z</time>
      </trkpt>
      <trkpt lat="45.98316" lon="4.9201">
        <ele>298</ele>
        <time>2016-09-26T09:37:13Z</time>
      </trkpt>
      <trkpt lat="45.98311" lon="4.92014">
        <ele>298</ele>
        <time>2016-09-26T09:37:14Z</time>
      </trkpt>
      <trkpt lat="45.98306" lon="4.92019">
        <ele>298</ele>
        <time>2016-09-26T09:37:15Z</time>
      </trkpt>
      <trkpt lat="45.98301" lon="4.92025">
        <ele>298</ele>
        <time>2016-09-26T09:37:16Z</time>
      </trkpt>
      <trkpt lat="45.98297" lon="4.9203">
        <ele>298</ele>
        <time>2016-09-26T09:37:17Z</time>
      </trkpt>
      <trkpt lat="45.98292" lon="4.92035">
        <ele>298</ele>
        <time>2016-09-26T09:37:18Z</time>
      </trkpt>
      <trkpt lat="45.98287" lon="4.92041">
        <ele>298</ele>
        <time>2016-09-26T09:37:19Z</time>
      </trkpt>
      <trkpt lat="45.98281" lon="4.92046">
        <ele>298</ele>
        <time>2016-09-26T09:37:20Z</time>
      </trkpt>
      <trkpt lat="45.98276" lon="4.92051">
        <ele>298</ele>
        <time>2016-09-26T09:37:21Z</time>
      </trkpt>
      <trkpt lat="45.9827" lon="4.92056">
        <ele>298</ele>
        <time>2016-09-26T09:37:22Z</time>
      </trkpt>
      <trkpt lat="45.98265" lon="4.92063">
        <ele>298</ele>
        <time>2016-09-26T09:37:23Z</time>
      </trkpt>
      <trkpt lat="45.9826" lon="4.92069">
        <ele>299</ele>
        <time>2016-09-26T09:37:24Z</time>
      </trkpt>
      <trkpt lat="45.98255" lon="4.92075">
        <ele>299</ele>
        <time>2016-09-26T09:37:25Z</time>
      </trkpt>
      <trkpt lat="45.98251" lon="4.92081">
        <ele>299</ele>
        <time>2016-09-26T09:37:26Z</time>
      </trkpt>
      <trkpt lat="45.98246" lon="4.92086">
        <ele>299</ele>
        <time>2016-09-26T09:37:27Z</time>
      </trkpt>
      <trkpt lat="45.9824" lon="4.92091">
        <ele>299</ele>
        <time>2016-09-26T09:37:28Z</time>
      </trkpt>
      <trkpt lat="45.98233" lon="4.92095">
        <ele>299</ele>
        <time>2016-09-26T09:37:29Z</time>
      </trkpt>
      <trkpt lat="45.98229" lon="4.921">
        <ele>299</ele>
        <time>2016-09-26T09:37:30Z</time>
      </trkpt>
      <trkpt lat="45.98224" lon="4.92105">
        <ele>299</ele>
        <time>2016-09-26T09:37:31Z</time>
      </trkpt>
      <trkpt lat="45.9822" lon="4.92111">
        <ele>299</ele>
        <time>2016-09-26T09:37:32Z</time>
      </trkpt>
      <trkpt lat="45.98216" lon="4.92116">
        <ele>299</ele>
        <time>2016-09-26T09:37:33Z</time>
      </trkpt>
      <trkpt lat="45.98212" lon="4.92122">
        <ele>299</ele>
        <time>2016-09-26T09:37:34Z</time>
      </trkpt>
      <trkpt lat="45.98207" lon="4.92127">
        <ele>299</ele>
        <time>2016-09-26T09:37:35Z</time>
      </trkpt>
      <trkpt lat="45.98203" lon="4.92131">
        <ele>299</ele>
        <time>2016-09-26T09:37:36Z</time>
      </trkpt>
      <trkpt lat="45.98199" lon="4.92136">
        <ele>299</ele>
        <time>2016-09-26T09:37:37Z</time>
      </trkpt>
      <trkpt lat="45.98194" lon="4.92141">
        <ele>299</ele>
        <time>2016-09-26T09:37:38Z</time>
      </trkpt>
      <trkpt lat="45.9819" lon="4.92147">
        <ele>299</ele>
        <time>2016-09-26T09:37:39Z</time>
      </trkpt>
      <trkpt lat="45.98186" lon="4.92154">
        <ele>299</ele>
        <time>2016-09-26T09:37:40Z</time>
      </trkpt>
      <trkpt lat="45.98181" lon="4.9216">
        <ele>299</ele>
        <time>2016-09-26T09:37:41Z</time>
      </trkpt>
      <trkpt lat="45.98176" lon="4.92165">
        <ele>299</ele>
        <time>2016-09-26T09:37:42Z</time>
      </trkpt>
      <trkpt lat="45.9817" lon="4.92172">
        <ele>299</ele>
        <time>2016-09-26T09:37:43Z</time>
      </trkpt>
      <trkpt lat="45.98165" lon="4.92177">
        <ele>299</ele>
        <time>2016-09-26T09:37:44Z</time>
      </trkpt>
      <trkpt lat="45.9816" lon="4.92182">
        <ele>299</ele>
        <time>2016-09-26T09:37:45Z</time>
      </trkpt>
      <trkpt lat="45.98156" lon="4.92189">
        <ele>299</ele>
        <time>2016-09-26T09:37:46Z</time>
      </trkpt>
      <trkpt lat="45.98151" lon="4.92195">
        <ele>299</ele>
        <time>2016-09-26T09:37:47Z</time>
      </trkpt>
      <trkpt lat="45.98147" lon="4.92201">
        <ele>299</ele>
        <time>2016-09-26T09:37:48Z</time>
      </trkpt>
      <trkpt lat="45.98143" lon="4.92207">
        <ele>299</ele>
        <time>2016-09-26T09:37:49Z</time>
      </trkpt>
      <trkpt lat="45.98139" lon="4.92212">
        <ele>299</ele>
        <time>2016-09-26T09:37:50Z</time>
      </trkpt>
      <trkpt lat="45.98135" lon="4.92218">
        <ele>299</ele>
        <time>2016-09-26T09:37:51Z</time>
      </trkpt>
      <trkpt lat="45.98131" lon="4.92223">
        <ele>299</ele>
        <time>2016-09-26T09:37:52Z</time>
      </trkpt>
      <trkpt lat="45.98127" lon="4.92228">
        <ele>299</ele>
        <time>2016-09-26T09:37:53Z</time>
      </trkpt>
      <trkpt lat="45.98123" lon="4.92234">
        <ele>299</ele>
        <time>2016-09-26T09:37:54Z</time>
      </trkpt>
      <trkpt lat="45.98118" lon="4.92239">
        <ele>299</ele>
        <time>2016-09-26T09:37:55Z</time>
      </trkpt>
      <trkpt lat="45.98115" lon="4.92244">
        <ele>299</ele>
        <time>2016-09-26T09:37:56Z</time>
      </trkpt>
      <trkpt lat="45.98111" lon="4.92249">
        <ele>299</ele>
        <time>2016-09-26T09:37:57Z</time>
      </trkpt>
      <trkpt lat="45.98107" lon="4.92255">
        <ele>300</ele>
        <time>2016-09-26T09:37:58Z</time>
      </trkpt>
      <trkpt lat="45.98103" lon="4.9226">
        <ele>300</ele>
        <time>2016-09-26T09:37:59Z</time>
      </trkpt>
      <trkpt lat="45.98099" lon="4.92265">
        <ele>300</ele>
        <time>2016-09-26T09:38:00Z</time>
      </trkpt>
      <trkpt lat="45.98095" lon="4.9227">
        <ele>300</ele>
        <time>2016-09-26T09:38:01Z</time>
      </trkpt>
      <trkpt lat="45.98091" lon="4.92275">
        <ele>300</ele>
        <time>2016-09-26T09:38:02Z</time>
      </trkpt>
      <trkpt lat="45.98086" lon="4.9228">
        <ele>300</ele>
        <time>2016-09-26T09:38:03Z</time>
      </trkpt>
      <trkpt lat="45.98083" lon="4.92286">
        <ele>299</ele>
        <time>2016-09-26T09:38:04Z</time>
      </trkpt>
      <trkpt lat="45.98078" lon="4.92292">
        <ele>299</ele>
        <time>2016-09-26T09:38:05Z</time>
      </trkpt>
      <trkpt lat="45.98073" lon="4.92298">
        <ele>299</ele>
        <time>2016-09-26T09:38:06Z</time>
      </trkpt>
      <trkpt lat="45.98069" lon="4.92305">
        <ele>299</ele>
        <time>2016-09-26T09:38:07Z</time>
      </trkpt>
      <trkpt lat="45.98064" lon="4.92311">
        <ele>299</ele>
        <time>2016-09-26T09:38:08Z</time>
      </trkpt>
      <trkpt lat="45.98059" lon="4.92319">
        <ele>299</ele>
        <time>2016-09-26T09:38:09Z</time>
      </trkpt>
      <trkpt lat="45.98054" lon="4.92326">
        <ele>299</ele>
        <time>2016-09-26T09:38:10Z</time>
      </trkpt>
      <trkpt lat="45.9805" lon="4.92332">
        <ele>299</ele>
        <time>2016-09-26T09:38:11Z</time>
      </trkpt>
      <trkpt lat="45.98045" lon="4.92338">
        <ele>299</ele>
        <time>2016-09-26T09:38:12Z</time>
      </trkpt>
      <trkpt lat="45.98041" lon="4.92344">
        <ele>299</ele>
        <time>2016-09-26T09:38:13Z</time>
      </trkpt>
      <trkpt lat="45.98036" lon="4.9235">
        <ele>299</ele>
        <time>2016-09-26T09:38:14Z</time>
      </trkpt>
      <trkpt lat="45.98032" lon="4.92355">
        <ele>299</ele>
        <time>2016-09-26T09:38:15Z</time>
      </trkpt>
      <trkpt lat="45.98027" lon="4.92362">
        <ele>298</ele>
        <time>2016-09-26T09:38:16Z</time>
      </trkpt>
      <trkpt lat="45.98023" lon="4.92367">
        <ele>298</ele>
        <time>2016-09-26T09:38:17Z</time>
      </trkpt>
      <trkpt lat="45.98019" lon="4.92372">
        <ele>298</ele>
        <time>2016-09-26T09:38:18Z</time>
      </trkpt>
      <trkpt lat="45.98015" lon="4.92377">
        <ele>298</ele>
        <time>2016-09-26T09:38:19Z</time>
      </trkpt>
      <trkpt lat="45.98012" lon="4.92381">
        <ele>298</ele>
        <time>2016-09-26T09:38:20Z</time>
      </trkpt>
      <trkpt lat="45.98008" lon="4.92385">
        <ele>298</ele>
        <time>2016-09-26T09:38:21Z</time>
      </trkpt>
      <trkpt lat="45.98004" lon="4.92391">
        <ele>298</ele>
        <time>2016-09-26T09:38:22Z</time>
      </trkpt>
      <trkpt lat="45.97999" lon="4.92396">
        <ele>298</ele>
        <time>2016-09-26T09:38:23Z</time>
      </trkpt>
      <trkpt lat="45.97995" lon="4.92402">
        <ele>298</ele>
        <time>2016-09-26T09:38:24Z</time>
      </trkpt>
      <trkpt lat="45.9799" lon="4.92408">
        <ele>298</ele>
        <time>2016-09-26T09:38:25Z</time>
      </trkpt>
      <trkpt lat="45.97985" lon="4.92413">
        <ele>298</ele>
        <time>2016-09-26T09:38:26Z</time>
      </trkpt>
      <trkpt lat="45.9798" lon="4.92419">
        <ele>298</ele>
        <time>2016-09-26T09:38:27Z</time>
      </trkpt>
      <trkpt lat="45.97975" lon="4.92425">
        <ele>298</ele>
        <time>2016-09-26T09:38:28Z</time>
      </trkpt>
      <trkpt lat="45.9797" lon="4.92431">
        <ele>298</ele>
        <time>2016-09-26T09:38:29Z</time>
      </trkpt>
      <trkpt lat="45.97965" lon="4.92435">
        <ele>298</ele>
        <time>2016-09-26T09:38:30Z</time>
      </trkpt>
      <trkpt lat="45.9796" lon="4.92441">
        <ele>298</ele>
        <time>2016-09-26T09:38:31Z</time>
      </trkpt>
      <trkpt lat="45.97955" lon="4.92447">
        <ele>299</ele>
        <time>2016-09-26T09:38:32Z</time>
      </trkpt>
      <trkpt lat="45.97951" lon="4.92453">
        <ele>299</ele>
        <time>2016-09-26T09:38:33Z</time>
      </trkpt>
      <trkpt lat="45.97947" lon="4.92458">
        <ele>299</ele>
        <time>2016-09-26T09:38:34Z</time>
      </trkpt>
      <trkpt lat="45.97942" lon="4.92463">
        <ele>299</ele>
        <time>2016-09-26T09:38:35Z</time>
      </trkpt>
      <trkpt lat="45.97938" lon="4.92468">
        <ele>299</ele>
        <time>2016-09-26T09:38:36Z</time>
      </trkpt>
      <trkpt lat="45.97934" lon="4.92473">
        <ele>299</ele>
        <time>2016-09-26T09:38:37Z</time>
      </trkpt>
      <trkpt lat="45.9793" lon="4.92478">
        <ele>299</ele>
        <time>2016-09-26T09:38:38Z</time>
      </trkpt>
      <trkpt lat="45.97926" lon="4.92483">
        <ele>299</ele>
        <time>2016-09-26T09:38:39Z</time>
      </trkpt>
      <trkpt lat="45.97922" lon="4.92487">
        <ele>299</ele>
        <time>2016-09-26T09:38:40Z</time>
      </trkpt>
      <trkpt lat="45.97918" lon="4.92492">
        <ele>299</ele>
        <time>2016-09-26T09:38:41Z</time>
      </trkpt>
      <trkpt lat="45.97914" lon="4.92497">
        <ele>299</ele>
        <time>2016-09-26T09:38:42Z</time>
      </trkpt>
      <trkpt lat="45.97909" lon="4.92501">
        <ele>299</ele>
        <time>2016-09-26T09:38:43Z</time>
      </trkpt>
      <trkpt lat="45.97905" lon="4.92506">
        <ele>299</ele>
        <time>2016-09-26T09:38:44Z</time>
      </trkpt>
      <trkpt lat="45.979" lon="4.9251">
        <ele>299</ele>
        <time>2016-09-26T09:38:45Z</time>
      </trkpt>
      <trkpt lat="45.97896" lon="4.92515">
        <ele>300</ele>
        <time>2016-09-26T09:38:46Z</time>
      </trkpt>
      <trkpt lat="45.97892" lon="4.92521">
        <ele>300</ele>
        <time>2016-09-26T09:38:47Z</time>
      </trkpt>
      <trkpt lat="45.97888" lon="4.92526">
        <ele>300</ele>
        <time>2016-09-26T09:38:48Z</time>
      </trkpt>
      <trkpt lat="45.97884" lon="4.92531">
        <ele>300</ele>
        <time>2016-09-26T09:38:49Z</time>
      </trkpt>
      <trkpt lat="45.9788" lon="4.92535">
        <ele>300</ele>
        <time>2016-09-26T09:38:50Z</time>
      </trkpt>
      <trkpt lat="45.97876" lon="4.92541">
        <ele>300</ele>
        <time>2016-09-26T09:38:51Z</time>
      </trkpt>
      <trkpt lat="45.97872" lon="4.92546">
        <ele>300</ele>
        <time>2016-09-26T09:38:52Z</time>
      </trkpt>
      <trkpt lat="45.97868" lon="4.92551">
        <ele>300</ele>
        <time>2016-09-26T09:38:53Z</time>
      </trkpt>
      <trkpt lat="45.97864" lon="4.92556">
        <ele>300</ele>
        <time>2016-09-26T09:38:54Z</time>
      </trkpt>
      <trkpt lat="45.9786" lon="4.92561">
        <ele>300</ele>
        <time>2016-09-26T09:38:55Z</time>
      </trkpt>
      <trkpt lat="45.97855" lon="4.92567">
        <ele>300</ele>
        <time>2016-09-26T09:38:56Z</time>
      </trkpt>
      <trkpt lat="45.97851" lon="4.92572">
        <ele>300</ele>
        <time>2016-09-26T09:38:57Z</time>
      </trkpt>
      <trkpt lat="45.97847" lon="4.92578">
        <ele>300</ele>
        <time>2016-09-26T09:38:58Z</time>
      </trkpt>
      <trkpt lat="45.97842" lon="4.92583">
        <ele>300</ele>
        <time>2016-09-26T09:38:59Z</time>
      </trkpt>
      <trkpt lat="45.97838" lon="4.92588">
        <ele>300</ele>
        <time>2016-09-26T09:39:00Z</time>
      </trkpt>
      <trkpt lat="45.97833" lon="4.92593">
        <ele>300</ele>
        <time>2016-09-26T09:39:01Z</time>
      </trkpt>
      <trkpt lat="45.97829" lon="4.926">
        <ele>300</ele>
        <time>2016-09-26T09:39:02Z</time>
      </trkpt>
      <trkpt lat="45.97825" lon="4.92606">
        <ele>300</ele>
        <time>2016-09-26T09:39:03Z</time>
      </trkpt>
      <trkpt lat="45.9782" lon="4.92612">
        <ele>300</ele>
        <time>2016-09-26T09:39:04Z</time>
      </trkpt>
      <trkpt lat="45.97815" lon="4.92618">
        <ele>300</ele>
        <time>2016-09-26T09:39:05Z</time>
      </trkpt>
      <trkpt lat="45.97811" lon="4.92624">
        <ele>300</ele>
        <time>2016-09-26T09:39:06Z</time>
      </trkpt>
      <trkpt lat="45.97806" lon="4.92629">
        <ele>301</ele>
        <time>2016-09-26T09:39:07Z</time>
      </trkpt>
      <trkpt lat="45.97802" lon="4.92635">
        <ele>301</ele>
        <time>2016-09-26T09:39:08Z</time>
      </trkpt>
      <trkpt lat="45.97797" lon="4.9264">
        <ele>301</ele>
        <time>2016-09-26T09:39:09Z</time>
      </trkpt>
      <trkpt lat="45.97793" lon="4.92645">
        <ele>301</ele>
        <time>2016-09-26T09:39:10Z</time>
      </trkpt>
      <trkpt lat="45.97789" lon="4.92651">
        <ele>300</ele>
        <time>2016-09-26T09:39:11Z</time>
      </trkpt>
      <trkpt lat="45.97785" lon="4.92657">
        <ele>300</ele>
        <time>2016-09-26T09:39:12Z</time>
      </trkpt>
      <trkpt lat="45.9778" lon="4.92662">
        <ele>300</ele>
        <time>2016-09-26T09:39:13Z</time>
      </trkpt>
      <trkpt lat="45.97775" lon="4.92668">
        <ele>300</ele>
        <time>2016-09-26T09:39:14Z</time>
      </trkpt>
      <trkpt lat="45.97771" lon="4.92673">
        <ele>300</ele>
        <time>2016-09-26T09:39:15Z</time>
      </trkpt>
      <trkpt lat="45.97767" lon="4.92678">
        <ele>300</ele>
        <time>2016-09-26T09:39:16Z</time>
      </trkpt>
      <trkpt lat="45.97762" lon="4.92683">
        <ele>300</ele>
        <time>2016-09-26T09:39:17Z</time>
      </trkpt>
      <trkpt lat="45.97758" lon="4.92689">
        <ele>300</ele>
        <time>2016-09-26T09:39:18Z</time>
      </trkpt>
      <trkpt lat="45.97753" lon="4.92694">
        <ele>300</ele>
        <time>2016-09-26T09:39:19Z</time>
      </trkpt>
      <trkpt lat="45.97748" lon="4.92699">
        <ele>301</ele>
        <time>2016-09-26T09:39:20Z</time>
      </trkpt>
      <trkpt lat="45.97744" lon="4.92704">
        <ele>301</ele>
        <time>2016-09-26T09:39:21Z</time>
      </trkpt>
      <trkpt lat="45.97739" lon="4.92708">
        <ele>301</ele>
        <time>2016-09-26T09:39:22Z</time>
      </trkpt>
      <trkpt lat="45.97735" lon="4.92713">
        <ele>301</ele>
        <time>2016-09-26T09:39:23Z</time>
      </trkpt>
      <trkpt lat="45.97731" lon="4.92718">
        <ele>301</ele>
        <time>2016-09-26T09:39:24Z</time>
      </trkpt>
      <trkpt lat="45.97727" lon="4.92723">
        <ele>301</ele>
        <time>2016-09-26T09:39:25Z</time>
      </trkpt>
      <trkpt lat="45.97723" lon="4.92728">
        <ele>301</ele>
        <time>2016-09-26T09:39:26Z</time>
      </trkpt>
      <trkpt lat="45.97719" lon="4.92733">
        <ele>301</ele>
        <time>2016-09-26T09:39:27Z</time>
      </trkpt>
      <trkpt lat="45.97715" lon="4.92737">
        <ele>301</ele>
        <time>2016-09-26T09:39:28Z</time>
      </trkpt>
      <trkpt lat="45.9771" lon="4.92741">
        <ele>301</ele>
        <time>2016-09-26T09:39:29Z</time>
      </trkpt>
      <trkpt lat="45.97706" lon="4.92747">
        <ele>302</ele>
        <time>2016-09-26T09:39:30Z</time>
      </trkpt>
      <trkpt lat="45.97702" lon="4.92752">
        <ele>301</ele>
        <time>2016-09-26T09:39:31Z</time>
      </trkpt>
      <trkpt lat="45.97697" lon="4.92758">
        <ele>301</ele>
        <time>2016-09-26T09:39:32Z</time>
      </trkpt>
      <trkpt lat="45.97692" lon="4.92764">
        <ele>301</ele>
        <time>2016-09-26T09:39:33Z</time>
      </trkpt>
      <trkpt lat="45.97687" lon="4.92771">
        <ele>301</ele>
        <time>2016-09-26T09:39:34Z</time>
      </trkpt>
      <trkpt lat="45.97682" lon="4.92777">
        <ele>301</ele>
        <time>2016-09-26T09:39:35Z</time>
      </trkpt>
      <trkpt lat="45.97677" lon="4.92783">
        <ele>301</ele>
        <time>2016-09-26T09:39:36Z</time>
      </trkpt>
      <trkpt lat="45.97672" lon="4.92789">
        <ele>301</ele>
        <time>2016-09-26T09:39:37Z</time>
      </trkpt>
      <trkpt lat="45.97667" lon="4.92794">
        <ele>301</ele>
        <time>2016-09-26T09:39:38Z</time>
      </trkpt>
      <trkpt lat="45.97663" lon="4.928">
        <ele>301</ele>
        <time>2016-09-26T09:39:39Z</time>
      </trkpt>
      <trkpt lat="45.97658" lon="4.92805">
        <ele>300</ele>
        <time>2016-09-26T09:39:40Z</time>
      </trkpt>
      <trkpt lat="45.97654" lon="4.9281">
        <ele>300</ele>
        <time>2016-09-26T09:39:41Z</time>
      </trkpt>
      <trkpt lat="45.97649" lon="4.92816">
        <ele>300</ele>
        <time>2016-09-26T09:39:42Z</time>
      </trkpt>
      <trkpt lat="45.97645" lon="4.92821">
        <ele>300</ele>
        <time>2016-09-26T09:39:43Z</time>
      </trkpt>
      <trkpt lat="45.97641" lon="4.92826">
        <ele>300</ele>
        <time>2016-09-26T09:39:44Z</time>
      </trkpt>
      <trkpt lat="45.97636" lon="4.92831">
        <ele>300</ele>
        <time>2016-09-26T09:39:45Z</time>
      </trkpt>
      <trkpt lat="45.97632" lon="4.92835">
        <ele>298</ele>
        <time>2016-09-26T09:39:46Z</time>
      </trkpt>
      <trkpt lat="45.97627" lon="4.9284">
        <ele>298</ele>
        <time>2016-09-26T09:39:47Z</time>
      </trkpt>
      <trkpt lat="45.97623" lon="4.92845">
        <ele>298</ele>
        <time>2016-09-26T09:39:48Z</time>
      </trkpt>
      <trkpt lat="45.97619" lon="4.9285">
        <ele>298</ele>
        <time>2016-09-26T09:39:49Z</time>
      </trkpt>
      <trkpt lat="45.97614" lon="4.92854">
        <ele>298</ele>
        <time>2016-09-26T09:39:50Z</time>
      </trkpt>
      <trkpt lat="45.9761" lon="4.92858">
        <ele>298</ele>
        <time>2016-09-26T09:39:51Z</time>
      </trkpt>
      <trkpt lat="45.97606" lon="4.92863">
        <ele>298</ele>
        <time>2016-09-26T09:39:52Z</time>
      </trkpt>
      <trkpt lat="45.97601" lon="4.92868">
        <ele>298</ele>
        <time>2016-09-26T09:39:53Z</time>
      </trkpt>
      <trkpt lat="45.97597" lon="4.92873">
        <ele>298</ele>
        <time>2016-09-26T09:39:54Z</time>
      </trkpt>
      <trkpt lat="45.97592" lon="4.92878">
        <ele>298</ele>
        <time>2016-09-26T09:39:55Z</time>
      </trkpt>
      <trkpt lat="45.97588" lon="4.92883">
        <ele>298</ele>
        <time>2016-09-26T09:39:56Z</time>
      </trkpt>
      <trkpt lat="45.97584" lon="4.92888">
        <ele>298</ele>
        <time>2016-09-26T09:39:57Z</time>
      </trkpt>
      <trkpt lat="45.9758" lon="4.92892">
        <ele>298</ele>
        <time>2016-09-26T09:39:58Z</time>
      </trkpt>
      <trkpt lat="45.97576" lon="4.92897">
        <ele>298</ele>
        <time>2016-09-26T09:39:59Z</time>
      </trkpt>
      <trkpt lat="45.97572" lon="4.92902">
        <ele>298</ele>
        <time>2016-09-26T09:40:00Z</time>
      </trkpt>
      <trkpt lat="45.97568" lon="4.92906">
        <ele>298</ele>
        <time>2016-09-26T09:40:01Z</time>
      </trkpt>
      <trkpt lat="45.97564" lon="4.92911">
        <ele>298</ele>
        <time>2016-09-26T09:40:02Z</time>
      </trkpt>
      <trkpt lat="45.97559" lon="4.92917">
        <ele>298</ele>
        <time>2016-09-26T09:40:03Z</time>
      </trkpt>
      <trkpt lat="45.97554" lon="4.92922">
        <ele>298</ele>
        <time>2016-09-26T09:40:04Z</time>
      </trkpt>
      <trkpt lat="45.9755" lon="4.92928">
        <ele>299</ele>
        <time>2016-09-26T09:40:05Z</time>
      </trkpt>
      <trkpt lat="45.97545" lon="4.92934">
        <ele>299</ele>
        <time>2016-09-26T09:40:06Z</time>
      </trkpt>
      <trkpt lat="45.9754" lon="4.9294">
        <ele>299</ele>
        <time>2016-09-26T09:40:07Z</time>
      </trkpt>
      <trkpt lat="45.97535" lon="4.92946">
        <ele>299</ele>
        <time>2016-09-26T09:40:08Z</time>
      </trkpt>
      <trkpt lat="45.9753" lon="4.92953">
        <ele>299</ele>
        <time>2016-09-26T09:40:09Z</time>
      </trkpt>
      <trkpt lat="45.97525" lon="4.92959">
        <ele>299</ele>
        <time>2016-09-26T09:40:10Z</time>
      </trkpt>
      <trkpt lat="45.9752" lon="4.92966">
        <ele>299</ele>
        <time>2016-09-26T09:40:11Z</time>
      </trkpt>
      <trkpt lat="45.97516" lon="4.92974">
        <ele>299</ele>
        <time>2016-09-26T09:40:12Z</time>
      </trkpt>
      <trkpt lat="45.9751" lon="4.92982">
        <ele>299</ele>
        <time>2016-09-26T09:40:13Z</time>
      </trkpt>
      <trkpt lat="45.97506" lon="4.92989">
        <ele>299</ele>
        <time>2016-09-26T09:40:14Z</time>
      </trkpt>
      <trkpt lat="45.97502" lon="4.92995">
        <ele>299</ele>
        <time>2016-09-26T09:40:15Z</time>
      </trkpt>
      <trkpt lat="45.97498" lon="4.93">
        <ele>299</ele>
        <time>2016-09-26T09:40:16Z</time>
      </trkpt>
      <trkpt lat="45.97494" lon="4.93005">
        <ele>299</ele>
        <time>2016-09-26T09:40:17Z</time>
      </trkpt>
      <trkpt lat="45.9749" lon="4.93011">
        <ele>299</ele>
        <time>2016-09-26T09:40:18Z</time>
      </trkpt>
      <trkpt lat="45.97485" lon="4.93017">
        <ele>299</ele>
        <time>2016-09-26T09:40:19Z</time>
      </trkpt>
      <trkpt lat="45.97481" lon="4.93022">
        <ele>299</ele>
        <time>2016-09-26T09:40:20Z</time>
      </trkpt>
      <trkpt lat="45.97478" lon="4.93027">
        <ele>299</ele>
        <time>2016-09-26T09:40:21Z</time>
      </trkpt>
      <trkpt lat="45.97474" lon="4.93032">
        <ele>299</ele>
        <time>2016-09-26T09:40:22Z</time>
      </trkpt>
      <trkpt lat="45.9747" lon="4.93037">
        <ele>299</ele>
        <time>2016-09-26T09:40:23Z</time>
      </trkpt>
      <trkpt lat="45.97465" lon="4.93042">
        <ele>299</ele>
        <time>2016-09-26T09:40:24Z</time>
      </trkpt>
      <trkpt lat="45.97461" lon="4.93047">
        <ele>299</ele>
        <time>2016-09-26T09:40:25Z</time>
      </trkpt>
      <trkpt lat="45.97457" lon="4.93052">
        <ele>299</ele>
        <time>2016-09-26T09:40:26Z</time>
      </trkpt>
      <trkpt lat="45.97453" lon="4.93057">
        <ele>299</ele>
        <time>2016-09-26T09:40:27Z</time>
      </trkpt>
      <trkpt lat="45.97449" lon="4.93062">
        <ele>299</ele>
        <time>2016-09-26T09:40:28Z</time>
      </trkpt>
      <trkpt lat="45.97445" lon="4.93067">
        <ele>299</ele>
        <time>2016-09-26T09:40:29Z</time>
      </trkpt>
      <trkpt lat="45.9744" lon="4.93071">
        <ele>299</ele>
        <time>2016-09-26T09:40:30Z</time>
      </trkpt>
      <trkpt lat="45.97436" lon="4.93076">
        <ele>299</ele>
        <time>2016-09-26T09:40:31Z</time>
      </trkpt>
      <trkpt lat="45.97432" lon="4.93081">
        <ele>299</ele>
        <time>2016-09-26T09:40:32Z</time>
      </trkpt>
      <trkpt lat="45.97428" lon="4.93086">
        <ele>299</ele>
        <time>2016-09-26T09:40:33Z</time>
      </trkpt>
      <trkpt lat="45.97424" lon="4.93092">
        <ele>299</ele>
        <time>2016-09-26T09:40:34Z</time>
      </trkpt>
      <trkpt lat="45.9742" lon="4.93097">
        <ele>299</ele>
        <time>2016-09-26T09:40:35Z</time>
      </trkpt>
      <trkpt lat="45.97415" lon="4.93102">
        <ele>299</ele>
        <time>2016-09-26T09:40:36Z</time>
      </trkpt>
      <trkpt lat="45.97411" lon="4.93108">
        <ele>300</ele>
        <time>2016-09-26T09:40:37Z</time>
      </trkpt>
      <trkpt lat="45.97407" lon="4.93114">
        <ele>300</ele>
        <time>2016-09-26T09:40:38Z</time>
      </trkpt>
      <trkpt lat="45.97402" lon="4.93119">
        <ele>300</ele>
        <time>2016-09-26T09:40:39Z</time>
      </trkpt>
      <trkpt lat="45.97397" lon="4.93125">
        <ele>300</ele>
        <time>2016-09-26T09:40:40Z</time>
      </trkpt>
      <trkpt lat="45.97392" lon="4.93131">
        <ele>300</ele>
        <time>2016-09-26T09:40:41Z</time>
      </trkpt>
      <trkpt lat="45.97387" lon="4.93137">
        <ele>300</ele>
        <time>2016-09-26T09:40:42Z</time>
      </trkpt>
      <trkpt lat="45.97383" lon="4.93142">
        <ele>300</ele>
        <time>2016-09-26T09:40:43Z</time>
      </trkpt>
      <trkpt lat="45.97378" lon="4.93148">
        <ele>300</ele>
        <time>2016-09-26T09:40:44Z</time>
      </trkpt>
      <trkpt lat="45.97374" lon="4.93154">
        <ele>300</ele>
        <time>2016-09-26T09:40:45Z</time>
      </trkpt>
      <trkpt lat="45.97369" lon="4.93159">
        <ele>300</ele>
        <time>2016-09-26T09:40:46Z</time>
      </trkpt>
      <trkpt lat="45.97366" lon="4.93163">
        <ele>300</ele>
        <time>2016-09-26T09:40:47Z</time>
      </trkpt>
      <trkpt lat="45.97362" lon="4.93168">
        <ele>301</ele>
        <time>2016-09-26T09:40:48Z</time>
      </trkpt>
      <trkpt lat="45.97358" lon="4.93172">
        <ele>301</ele>
        <time>2016-09-26T09:40:49Z</time>
      </trkpt>
      <trkpt lat="45.97354" lon="4.93177">
        <ele>301</ele>
        <time>2016-09-26T09:40:50Z</time>
      </trkpt>
      <trkpt lat="45.9735" lon="4.93181">
        <ele>301</ele>
        <time>2016-09-26T09:40:51Z</time>
      </trkpt>
      <trkpt lat="45.97345" lon="4.93185">
        <ele>301</ele>
        <time>2016-09-26T09:40:52Z</time>
      </trkpt>
      <trkpt lat="45.97341" lon="4.9319">
        <ele>301</ele>
        <time>2016-09-26T09:40:53Z</time>
      </trkpt>
      <trkpt lat="45.97337" lon="4.93194">
        <ele>301</ele>
        <time>2016-09-26T09:40:54Z</time>
      </trkpt>
      <trkpt lat="45.97332" lon="4.93198">
        <ele>301</ele>
        <time>2016-09-26T09:40:55Z</time>
      </trkpt>
      <trkpt lat="45.97327" lon="4.93203">
        <ele>301</ele>
        <time>2016-09-26T09:40:56Z</time>
      </trkpt>
      <trkpt lat="45.97322" lon="4.93207">
        <ele>301</ele>
        <time>2016-09-26T09:40:57Z</time>
      </trkpt>
      <trkpt lat="45.97317" lon="4.93213">
        <ele>302</ele>
        <time>2016-09-26T09:40:58Z</time>
      </trkpt>
      <trkpt lat="45.97312" lon="4.93219">
        <ele>302</ele>
        <time>2016-09-26T09:40:59Z</time>
      </trkpt>
      <trkpt lat="45.97306" lon="4.93225">
        <ele>302</ele>
        <time>2016-09-26T09:41:00Z</time>
      </trkpt>
      <trkpt lat="45.97302" lon="4.93229">
        <ele>302</ele>
        <time>2016-09-26T09:41:01Z</time>
      </trkpt>
      <trkpt lat="45.97297" lon="4.93234">
        <ele>301</ele>
        <time>2016-09-26T09:41:02Z</time>
      </trkpt>
      <trkpt lat="45.97292" lon="4.93239">
        <ele>301</ele>
        <time>2016-09-26T09:41:03Z</time>
      </trkpt>
      <trkpt lat="45.97287" lon="4.93245">
        <ele>301</ele>
        <time>2016-09-26T09:41:04Z</time>
      </trkpt>
      <trkpt lat="45.97283" lon="4.9325">
        <ele>302</ele>
        <time>2016-09-26T09:41:05Z</time>
      </trkpt>
      <trkpt lat="45.97279" lon="4.93255">
        <ele>302</ele>
        <time>2016-09-26T09:41:06Z</time>
      </trkpt>
      <trkpt lat="45.97275" lon="4.9326">
        <ele>302</ele>
        <time>2016-09-26T09:41:07Z</time>
      </trkpt>
      <trkpt lat="45.97271" lon="4.93265">
        <ele>302</ele>
        <time>2016-09-26T09:41:08Z</time>
      </trkpt>
      <trkpt lat="45.97267" lon="4.9327">
        <ele>302</ele>
        <time>2016-09-26T09:41:09Z</time>
      </trkpt>
      <trkpt lat="45.97263" lon="4.93275">
        <ele>302</ele>
        <time>2016-09-26T09:41:10Z</time>
      </trkpt>
      <trkpt lat="45.97259" lon="4.93281">
        <ele>302</ele>
        <time>2016-09-26T09:41:11Z</time>
      </trkpt>
      <trkpt lat="45.97254" lon="4.93286">
        <ele>302</ele>
        <time>2016-09-26T09:41:12Z</time>
      </trkpt>
      <trkpt lat="45.9725" lon="4.93292">
        <ele>300</ele>
        <time>2016-09-26T09:41:13Z</time>
      </trkpt>
      <trkpt lat="45.97246" lon="4.93299">
        <ele>300</ele>
        <time>2016-09-26T09:41:14Z</time>
      </trkpt>
      <trkpt lat="45.97242" lon="4.93306">
        <ele>300</ele>
        <time>2016-09-26T09:41:15Z</time>
      </trkpt>
      <trkpt lat="45.97238" lon="4.93312">
        <ele>301</ele>
        <time>2016-09-26T09:41:16Z</time>
      </trkpt>
      <trkpt lat="45.97234" lon="4.93316">
        <ele>301</ele>
        <time>2016-09-26T09:41:17Z</time>
      </trkpt>
      <trkpt lat="45.9723" lon="4.93321">
        <ele>301</ele>
        <time>2016-09-26T09:41:18Z</time>
      </trkpt>
      <trkpt lat="45.97225" lon="4.93327">
        <ele>300</ele>
        <time>2016-09-26T09:41:19Z</time>
      </trkpt>
      <trkpt lat="45.97222" lon="4.93332">
        <ele>300</ele>
        <time>2016-09-26T09:41:20Z</time>
      </trkpt>
      <trkpt lat="45.97218" lon="4.93337">
        <ele>301</ele>
        <time>2016-09-26T09:41:21Z</time>
      </trkpt>
      <trkpt lat="45.97214" lon="4.93341">
        <ele>301</ele>
        <time>2016-09-26T09:41:22Z</time>
      </trkpt>
      <trkpt lat="45.9721" lon="4.93346">
        <ele>301</ele>
        <time>2016-09-26T09:41:23Z</time>
      </trkpt>
      <trkpt lat="45.97205" lon="4.93351">
        <ele>301</ele>
        <time>2016-09-26T09:41:24Z</time>
      </trkpt>
      <trkpt lat="45.97201" lon="4.93356">
        <ele>301</ele>
        <time>2016-09-26T09:41:25Z</time>
      </trkpt>
      <trkpt lat="45.97196" lon="4.9336">
        <ele>301</ele>
        <time>2016-09-26T09:41:26Z</time>
      </trkpt>
      <trkpt lat="45.97192" lon="4.93365">
        <ele>301</ele>
        <time>2016-09-26T09:41:27Z</time>
      </trkpt>
      <trkpt lat="45.97187" lon="4.9337">
        <ele>301</ele>
        <time>2016-09-26T09:41:28Z</time>
      </trkpt>
      <trkpt lat="45.97183" lon="4.93375">
        <ele>301</ele>
        <time>2016-09-26T09:41:29Z</time>
      </trkpt>
      <trkpt lat="45.97179" lon="4.93381">
        <ele>301</ele>
        <time>2016-09-26T09:41:30Z</time>
      </trkpt>
      <trkpt lat="45.97174" lon="4.93386">
        <ele>301</ele>
        <time>2016-09-26T09:41:31Z</time>
      </trkpt>
      <trkpt lat="45.9717" lon="4.9339">
        <ele>301</ele>
        <time>2016-09-26T09:41:32Z</time>
      </trkpt>
      <trkpt lat="45.97166" lon="4.93395">
        <ele>301</ele>
        <time>2016-09-26T09:41:33Z</time>
      </trkpt>
      <trkpt lat="45.97162" lon="4.934">
        <ele>301</ele>
        <time>2016-09-26T09:41:34Z</time>
      </trkpt>
      <trkpt lat="45.97158" lon="4.93404">
        <ele>301</ele>
        <time>2016-09-26T09:41:35Z</time>
      </trkpt>
      <trkpt lat="45.97154" lon="4.93409">
        <ele>301</ele>
        <time>2016-09-26T09:41:36Z</time>
      </trkpt>
      <trkpt lat="45.97149" lon="4.93414">
        <ele>301</ele>
        <time>2016-09-26T09:41:37Z</time>
      </trkpt>
      <trkpt lat="45.97145" lon="4.93418">
        <ele>302</ele>
        <time>2016-09-26T09:41:38Z</time>
      </trkpt>
      <trkpt lat="45.9714" lon="4.93422">
        <ele>301</ele>
        <time>2016-09-26T09:41:39Z</time>
      </trkpt>
      <trkpt lat="45.97135" lon="4.93427">
        <ele>301</ele>
        <time>2016-09-26T09:41:40Z</time>
      </trkpt>
      <trkpt lat="45.9713" lon="4.93432">
        <ele>301</ele>
        <time>2016-09-26T09:41:41Z</time>
      </trkpt>
      <trkpt lat="45.97125" lon="4.93437">
        <ele>301</ele>
        <time>2016-09-26T09:41:42Z</time>
      </trkpt>
      <trkpt lat="45.9712" lon="4.93443">
        <ele>301</ele>
        <time>2016-09-26T09:41:43Z</time>
      </trkpt>
      <trkpt lat="45.97115" lon="4.93449">
        <ele>301</ele>
        <time>2016-09-26T09:41:44Z</time>
      </trkpt>
      <trkpt lat="45.9711" lon="4.93454">
        <ele>301</ele>
        <time>2016-09-26T09:41:45Z</time>
      </trkpt>
      <trkpt lat="45.97106" lon="4.93461">
        <ele>301</ele>
        <time>2016-09-26T09:41:46Z</time>
      </trkpt>
      <trkpt lat="45.97101" lon="4.93465">
        <ele>301</ele>
        <time>2016-09-26T09:41:47Z</time>
      </trkpt>
      <trkpt lat="45.97097" lon="4.93469">
        <ele>301</ele>
        <time>2016-09-26T09:41:48Z</time>
      </trkpt>
      <trkpt lat="45.97093" lon="4.93475">
        <ele>301</ele>
        <time>2016-09-26T09:41:49Z</time>
      </trkpt>
      <trkpt lat="45.97089" lon="4.9348">
        <ele>301</ele>
        <time>2016-09-26T09:41:50Z</time>
      </trkpt>
      <trkpt lat="45.97085" lon="4.93485">
        <ele>301</ele>
        <time>2016-09-26T09:41:51Z</time>
      </trkpt>
      <trkpt lat="45.97081" lon="4.9349">
        <ele>300</ele>
        <time>2016-09-26T09:41:52Z</time>
      </trkpt>
      <trkpt lat="45.97076" lon="4.93495">
        <ele>300</ele>
        <time>2016-09-26T09:41:53Z</time>
      </trkpt>
      <trkpt lat="45.97072" lon="4.935">
        <ele>299</ele>
        <time>2016-09-26T09:41:54Z</time>
      </trkpt>
      <trkpt lat="45.97068" lon="4.93505">
        <ele>299</ele>
        <time>2016-09-26T09:41:55Z</time>
      </trkpt>
      <trkpt lat="45.97064" lon="4.93511">
        <ele>299</ele>
        <time>2016-09-26T09:41:56Z</time>
      </trkpt>
      <trkpt lat="45.9706" lon="4.93516">
        <ele>299</ele>
        <time>2016-09-26T09:41:57Z</time>
      </trkpt>
      <trkpt lat="45.97056" lon="4.93521">
        <ele>299</ele>
        <time>2016-09-26T09:41:58Z</time>
      </trkpt>
      <trkpt lat="45.97052" lon="4.93526">
        <ele>299</ele>
        <time>2016-09-26T09:41:59Z</time>
      </trkpt>
      <trkpt lat="45.97048" lon="4.93532">
        <ele>299</ele>
        <time>2016-09-26T09:42:00Z</time>
      </trkpt>
      <trkpt lat="45.97044" lon="4.93537">
        <ele>299</ele>
        <time>2016-09-26T09:42:01Z</time>
      </trkpt>
      <trkpt lat="45.9704" lon="4.93542">
        <ele>299</ele>
        <time>2016-09-26T09:42:02Z</time>
      </trkpt>
      <trkpt lat="45.97037" lon="4.93546">
        <ele>299</ele>
        <time>2016-09-26T09:42:03Z</time>
      </trkpt>
      <trkpt lat="45.97033" lon="4.93552">
        <ele>299</ele>
        <time>2016-09-26T09:42:04Z</time>
      </trkpt>
      <trkpt lat="45.9703" lon="4.93558">
        <ele>299</ele>
        <time>2016-09-26T09:42:05Z</time>
      </trkpt>
      <trkpt lat="45.97026" lon="4.93564">
        <ele>299</ele>
        <time>2016-09-26T09:42:06Z</time>
      </trkpt>
      <trkpt lat="45.97022" lon="4.93569">
        <ele>299</ele>
        <time>2016-09-26T09:42:07Z</time>
      </trkpt>
      <trkpt lat="45.97018" lon="4.93576">
        <ele>299</ele>
        <time>2016-09-26T09:42:08Z</time>
      </trkpt>
      <trkpt lat="45.97014" lon="4.93582">
        <ele>299</ele>
        <time>2016-09-26T09:42:09Z</time>
      </trkpt>
      <trkpt lat="45.9701" lon="4.93587">
        <ele>299</ele>
        <time>2016-09-26T09:42:10Z</time>
      </trkpt>
      <trkpt lat="45.97005" lon="4.93593">
        <ele>299</ele>
        <time>2016-09-26T09:42:11Z</time>
      </trkpt>
      <trkpt lat="45.97" lon="4.93599">
        <ele>299</ele>
        <time>2016-09-26T09:42:12Z</time>
      </trkpt>
      <trkpt lat="45.96995" lon="4.93606">
        <ele>299</ele>
        <time>2016-09-26T09:42:13Z</time>
      </trkpt>
      <trkpt lat="45.9699" lon="4.93612">
        <ele>299</ele>
        <time>2016-09-26T09:42:14Z</time>
      </trkpt>
      <trkpt lat="45.96985" lon="4.93617">
        <ele>299</ele>
        <time>2016-09-26T09:42:15Z</time>
      </trkpt>
      <trkpt lat="45.96981" lon="4.93623">
        <ele>299</ele>
        <time>2016-09-26T09:42:16Z</time>
      </trkpt>
      <trkpt lat="45.96975" lon="4.93631">
        <ele>299</ele>
        <time>2016-09-26T09:42:17Z</time>
      </trkpt>
      <trkpt lat="45.96971" lon="4.93636">
        <ele>299</ele>
        <time>2016-09-26T09:42:18Z</time>
      </trkpt>
      <trkpt lat="45.96967" lon="4.93643">
        <ele>299</ele>
        <time>2016-09-26T09:42:19Z</time>
      </trkpt>
      <trkpt lat="45.96962" lon="4.93649">
        <ele>299</ele>
        <time>2016-09-26T09:42:20Z</time>
      </trkpt>
      <trkpt lat="45.96957" lon="4.93655">
        <ele>299</ele>
        <time>2016-09-26T09:42:21Z</time>
      </trkpt>
      <trkpt lat="45.96952" lon="4.9366">
        <ele>299</ele>
        <time>2016-09-26T09:42:22Z</time>
      </trkpt>
      <trkpt lat="45.96948" lon="4.93666">
        <ele>299</ele>
        <time>2016-09-26T09:42:23Z</time>
      </trkpt>
      <trkpt lat="45.96943" lon="4.93671">
        <ele>298</ele>
        <time>2016-09-26T09:42:24Z</time>
      </trkpt>
      <trkpt lat="45.96938" lon="4.93677">
        <ele>298</ele>
        <time>2016-09-26T09:42:25Z</time>
      </trkpt>
      <trkpt lat="45.96933" lon="4.93682">
        <ele>298</ele>
        <time>2016-09-26T09:42:26Z</time>
      </trkpt>
      <trkpt lat="45.96928" lon="4.93687">
        <ele>298</ele>
        <time>2016-09-26T09:42:27Z</time>
      </trkpt>
      <trkpt lat="45.96924" lon="4.93692">
        <ele>298</ele>
        <time>2016-09-26T09:42:28Z</time>
      </trkpt>
      <trkpt lat="45.96918" lon="4.93697">
        <ele>298</ele>
        <time>2016-09-26T09:42:29Z</time>
      </trkpt>
      <trkpt lat="45.96913" lon="4.93702">
        <ele>297</ele>
        <time>2016-09-26T09:42:30Z</time>
      </trkpt>
      <trkpt lat="45.96907" lon="4.93707">
        <ele>297</ele>
        <time>2016-09-26T09:42:31Z</time>
      </trkpt>
      <trkpt lat="45.96901" lon="4.93712">
        <ele>297</ele>
        <time>2016-09-26T09:42:32Z</time>
      </trkpt>
      <trkpt lat="45.96895" lon="4.93717">
        <ele>297</ele>
        <time>2016-09-26T09:42:33Z</time>
      </trkpt>
      <trkpt lat="45.96889" lon="4.93721">
        <ele>297</ele>
        <time>2016-09-26T09:42:34Z</time>
      </trkpt>
      <trkpt lat="45.96882" lon="4.93725">
        <ele>297</ele>
        <time>2016-09-26T09:42:35Z</time>
      </trkpt>
      <trkpt lat="45.96876" lon="4.93729">
        <ele>297</ele>
        <time>2016-09-26T09:42:36Z</time>
      </trkpt>
      <trkpt lat="45.96869" lon="4.93733">
        <ele>297</ele>
        <time>2016-09-26T09:42:37Z</time>
      </trkpt>
      <trkpt lat="45.96862" lon="4.93736">
        <ele>297</ele>
        <time>2016-09-26T09:42:38Z</time>
      </trkpt>
      <trkpt lat="45.96856" lon="4.93739">
        <ele>297</ele>
        <time>2016-09-26T09:42:39Z</time>
      </trkpt>
      <trkpt lat="45.96849" lon="4.93742">
        <ele>297</ele>
        <time>2016-09-26T09:42:40Z</time>
      </trkpt>
      <trkpt lat="45.96842" lon="4.93744">
        <ele>296</ele>
        <time>2016-09-26T09:42:41Z</time>
      </trkpt>
      <trkpt lat="45.96835" lon="4.93747">
        <ele>296</ele>
        <time>2016-09-26T09:42:42Z</time>
      </trkpt>
      <trkpt lat="45.96828" lon="4.9375">
        <ele>296</ele>
        <time>2016-09-26T09:42:43Z</time>
      </trkpt>
      <trkpt lat="45.96822" lon="4.93753">
        <ele>296</ele>
        <time>2016-09-26T09:42:44Z</time>
      </trkpt>
      <trkpt lat="45.96815" lon="4.93755">
        <ele>296</ele>
        <time>2016-09-26T09:42:45Z</time>
      </trkpt>
      <trkpt lat="45.96808" lon="4.93757">
        <ele>295</ele>
        <time>2016-09-26T09:42:46Z</time>
      </trkpt>
      <trkpt lat="45.96801" lon="4.93758">
        <ele>295</ele>
        <time>2016-09-26T09:42:47Z</time>
      </trkpt>
      <trkpt lat="45.96793" lon="4.93761">
        <ele>295</ele>
        <time>2016-09-26T09:42:48Z</time>
      </trkpt>
      <trkpt lat="45.96787" lon="4.93765">
        <ele>295</ele>
        <time>2016-09-26T09:42:49Z</time>
      </trkpt>
      <trkpt lat="45.9678" lon="4.93769">
        <ele>295</ele>
        <time>2016-09-26T09:42:50Z</time>
      </trkpt>
      <trkpt lat="45.96774" lon="4.93772">
        <ele>295</ele>
        <time>2016-09-26T09:42:51Z</time>
      </trkpt>
      <trkpt lat="45.96768" lon="4.93774">
        <ele>295</ele>
        <time>2016-09-26T09:42:52Z</time>
      </trkpt>
      <trkpt lat="45.96761" lon="4.93776">
        <ele>295</ele>
        <time>2016-09-26T09:42:53Z</time>
      </trkpt>
      <trkpt lat="45.96755" lon="4.93779">
        <ele>295</ele>
        <time>2016-09-26T09:42:54Z</time>
      </trkpt>
      <trkpt lat="45.96749" lon="4.93782">
        <ele>295</ele>
        <time>2016-09-26T09:42:55Z</time>
      </trkpt>
      <trkpt lat="45.96743" lon="4.93786">
        <ele>296</ele>
        <time>2016-09-26T09:42:56Z</time>
      </trkpt>
      <trkpt lat="45.96736" lon="4.93788">
        <ele>296</ele>
        <time>2016-09-26T09:42:57Z</time>
      </trkpt>
      <trkpt lat="45.9673" lon="4.93791">
        <ele>296</ele>
        <time>2016-09-26T09:42:58Z</time>
      </trkpt>
      <trkpt lat="45.96723" lon="4.93794">
        <ele>296</ele>
        <time>2016-09-26T09:42:59Z</time>
      </trkpt>
      <trkpt lat="45.96716" lon="4.93796">
        <ele>296</ele>
        <time>2016-09-26T09:43:00Z</time>
      </trkpt>
      <trkpt lat="45.96709" lon="4.93799">
        <ele>296</ele>
        <time>2016-09-26T09:43:01Z</time>
      </trkpt>
      <trkpt lat="45.96703" lon="4.93802">
        <ele>296</ele>
        <time>2016-09-26T09:43:02Z</time>
      </trkpt>
      <trkpt lat="45.96696" lon="4.93804">
        <ele>297</ele>
        <time>2016-09-26T09:43:03Z</time>
      </trkpt>
      <trkpt lat="45.9669" lon="4.93805">
        <ele>297</ele>
        <time>2016-09-26T09:43:04Z</time>
      </trkpt>
      <trkpt lat="45.96684" lon="4.93807">
        <ele>297</ele>
        <time>2016-09-26T09:43:05Z</time>
      </trkpt>
      <trkpt lat="45.96678" lon="4.9381">
        <ele>297</ele>
        <time>2016-09-26T09:43:06Z</time>
      </trkpt>
      <trkpt lat="45.96672" lon="4.93812">
        <ele>297</ele>
        <time>2016-09-26T09:43:07Z</time>
      </trkpt>
      <trkpt lat="45.96667" lon="4.93814">
        <ele>297</ele>
        <time>2016-09-26T09:43:08Z</time>
      </trkpt>
      <trkpt lat="45.96662" lon="4.93816">
        <ele>298</ele>
        <time>2016-09-26T09:43:09Z</time>
      </trkpt>
      <trkpt lat="45.96656" lon="4.93817">
        <ele>297</ele>
        <time>2016-09-26T09:43:10Z</time>
      </trkpt>
      <trkpt lat="45.96651" lon="4.93819">
        <ele>297</ele>
        <time>2016-09-26T09:43:11Z</time>
      </trkpt>
      <trkpt lat="45.96645" lon="4.93821">
        <ele>297</ele>
        <time>2016-09-26T09:43:12Z</time>
      </trkpt>
      <trkpt lat="45.9664" lon="4.93823">
        <ele>297</ele>
        <time>2016-09-26T09:43:13Z</time>
      </trkpt>
      <trkpt lat="45.96634" lon="4.93825">
        <ele>297</ele>
        <time>2016-09-26T09:43:14Z</time>
      </trkpt>
      <trkpt lat="45.96628" lon="4.93827">
        <ele>297</ele>
        <time>2016-09-26T09:43:15Z</time>
      </trkpt>
      <trkpt lat="45.96622" lon="4.9383">
        <ele>297</ele>
        <time>2016-09-26T09:43:16Z</time>
      </trkpt>
      <trkpt lat="45.96616" lon="4.93832">
        <ele>297</ele>
        <time>2016-09-26T09:43:17Z</time>
      </trkpt>
      <trkpt lat="45.96609" lon="4.93834">
        <ele>296</ele>
        <time>2016-09-26T09:43:18Z</time>
      </trkpt>
      <trkpt lat="45.96602" lon="4.93834">
        <ele>296</ele>
        <time>2016-09-26T09:43:19Z</time>
      </trkpt>
      <trkpt lat="45.96595" lon="4.93836">
        <ele>296</ele>
        <time>2016-09-26T09:43:20Z</time>
      </trkpt>
      <trkpt lat="45.96588" lon="4.93839">
        <ele>296</ele>
        <time>2016-09-26T09:43:21Z</time>
      </trkpt>
      <trkpt lat="45.96582" lon="4.93841">
        <ele>296</ele>
        <time>2016-09-26T09:43:22Z</time>
      </trkpt>
      <trkpt lat="45.96576" lon="4.93843">
        <ele>296</ele>
        <time>2016-09-26T09:43:23Z</time>
      </trkpt>
      <trkpt lat="45.9657" lon="4.93845">
        <ele>296</ele>
        <time>2016-09-26T09:43:24Z</time>
      </trkpt>
      <trkpt lat="45.96564" lon="4.93846">
        <ele>296</ele>
        <time>2016-09-26T09:43:25Z</time>
      </trkpt>
      <trkpt lat="45.96558" lon="4.93848">
        <ele>296</ele>
        <time>2016-09-26T09:43:26Z</time>
      </trkpt>
      <trkpt lat="45.96551" lon="4.93851">
        <ele>296</ele>
        <time>2016-09-26T09:43:27Z</time>
      </trkpt>
      <trkpt lat="45.96545" lon="4.93853">
        <ele>296</ele>
        <time>2016-09-26T09:43:28Z</time>
      </trkpt>
      <trkpt lat="45.96538" lon="4.93856">
        <ele>296</ele>
        <time>2016-09-26T09:43:29Z</time>
      </trkpt>
      <trkpt lat="45.96532" lon="4.93858">
        <ele>296</ele>
        <time>2016-09-26T09:43:30Z</time>
      </trkpt>
      <trkpt lat="45.96526" lon="4.93859">
        <ele>296</ele>
        <time>2016-09-26T09:43:31Z</time>
      </trkpt>
      <trkpt lat="45.96519" lon="4.93862">
        <ele>296</ele>
        <time>2016-09-26T09:43:32Z</time>
      </trkpt>
      <trkpt lat="45.96513" lon="4.93863">
        <ele>296</ele>
        <time>2016-09-26T09:43:33Z</time>
      </trkpt>
      <trkpt lat="45.96508" lon="4.93864">
        <ele>296</ele>
        <time>2016-09-26T09:43:34Z</time>
      </trkpt>
      <trkpt lat="45.96502" lon="4.93866">
        <ele>296</ele>
        <time>2016-09-26T09:43:35Z</time>
      </trkpt>
      <trkpt lat="45.96496" lon="4.93868">
        <ele>296</ele>
        <time>2016-09-26T09:43:36Z</time>
      </trkpt>
      <trkpt lat="45.9649" lon="4.9387">
        <ele>296</ele>
        <time>2016-09-26T09:43:37Z</time>
      </trkpt>
      <trkpt lat="45.96484" lon="4.93872">
        <ele>296</ele>
        <time>2016-09-26T09:43:38Z</time>
      </trkpt>
      <trkpt lat="45.96479" lon="4.93874">
        <ele>296</ele>
        <time>2016-09-26T09:43:39Z</time>
      </trkpt>
      <trkpt lat="45.96473" lon="4.93876">
        <ele>295</ele>
        <time>2016-09-26T09:43:40Z</time>
      </trkpt>
      <trkpt lat="45.96466" lon="4.93878">
        <ele>295</ele>
        <time>2016-09-26T09:43:41Z</time>
      </trkpt>
      <trkpt lat="45.9646" lon="4.93881">
        <ele>295</ele>
        <time>2016-09-26T09:43:42Z</time>
      </trkpt>
      <trkpt lat="45.96454" lon="4.93883">
        <ele>296</ele>
        <time>2016-09-26T09:43:43Z</time>
      </trkpt>
      <trkpt lat="45.96448" lon="4.93885">
        <ele>296</ele>
        <time>2016-09-26T09:43:44Z</time>
      </trkpt>
      <trkpt lat="45.96442" lon="4.93888">
        <ele>296</ele>
        <time>2016-09-26T09:43:45Z</time>
      </trkpt>
      <trkpt lat="45.96435" lon="4.93891">
        <ele>296</ele>
        <time>2016-09-26T09:43:46Z</time>
      </trkpt>
      <trkpt lat="45.96429" lon="4.93893">
        <ele>296</ele>
        <time>2016-09-26T09:43:47Z</time>
      </trkpt>
      <trkpt lat="45.96422" lon="4.93896">
        <ele>296</ele>
        <time>2016-09-26T09:43:48Z</time>
      </trkpt>
      <trkpt lat="45.96415" lon="4.93898">
        <ele>295</ele>
        <time>2016-09-26T09:43:49Z</time>
      </trkpt>
      <trkpt lat="45.96408" lon="4.93901">
        <ele>295</ele>
        <time>2016-09-26T09:43:50Z</time>
      </trkpt>
      <trkpt lat="45.96402" lon="4.93905">
        <ele>295</ele>
        <time>2016-09-26T09:43:51Z</time>
      </trkpt>
      <trkpt lat="45.96396" lon="4.93907">
        <ele>295</ele>
        <time>2016-09-26T09:43:52Z</time>
      </trkpt>
      <trkpt lat="45.96389" lon="4.9391">
        <ele>294</ele>
        <time>2016-09-26T09:43:53Z</time>
      </trkpt>
      <trkpt lat="45.96383" lon="4.93912">
        <ele>294</ele>
        <time>2016-09-26T09:43:54Z</time>
      </trkpt>
      <trkpt lat="45.96377" lon="4.93914">
        <ele>294</ele>
        <time>2016-09-26T09:43:55Z</time>
      </trkpt>
      <trkpt lat="45.9637" lon="4.93917">
        <ele>294</ele>
        <time>2016-09-26T09:43:56Z</time>
      </trkpt>
      <trkpt lat="45.96365" lon="4.93919">
        <ele>294</ele>
        <time>2016-09-26T09:43:57Z</time>
      </trkpt>
      <trkpt lat="45.96358" lon="4.93922">
        <ele>294</ele>
        <time>2016-09-26T09:43:58Z</time>
      </trkpt>
      <trkpt lat="45.96352" lon="4.93925">
        <ele>293</ele>
        <time>2016-09-26T09:43:59Z</time>
      </trkpt>
      <trkpt lat="45.96345" lon="4.93927">
        <ele>293</ele>
        <time>2016-09-26T09:44:00Z</time>
      </trkpt>
      <trkpt lat="45.96339" lon="4.93929">
        <ele>293</ele>
        <time>2016-09-26T09:44:01Z</time>
      </trkpt>
      <trkpt lat="45.96332" lon="4.93932">
        <ele>292</ele>
        <time>2016-09-26T09:44:02Z</time>
      </trkpt>
      <trkpt lat="45.96325" lon="4.93935">
        <ele>292</ele>
        <time>2016-09-26T09:44:03Z</time>
      </trkpt>
      <trkpt lat="45.96318" lon="4.93936">
        <ele>292</ele>
        <time>2016-09-26T09:44:04Z</time>
      </trkpt>
      <trkpt lat="45.96311" lon="4.93938">
        <ele>292</ele>
        <time>2016-09-26T09:44:05Z</time>
      </trkpt>
      <trkpt lat="45.96304" lon="4.93941">
        <ele>292</ele>
        <time>2016-09-26T09:44:06Z</time>
      </trkpt>
      <trkpt lat="45.96297" lon="4.93944">
        <ele>292</ele>
        <time>2016-09-26T09:44:07Z</time>
      </trkpt>
      <trkpt lat="45.9629" lon="4.93946">
        <ele>292</ele>
        <time>2016-09-26T09:44:08Z</time>
      </trkpt>
      <trkpt lat="45.96284" lon="4.9395">
        <ele>291</ele>
        <time>2016-09-26T09:44:09Z</time>
      </trkpt>
      <trkpt lat="45.96277" lon="4.93953">
        <ele>291</ele>
        <time>2016-09-26T09:44:10Z</time>
      </trkpt>
      <trkpt lat="45.96271" lon="4.93955">
        <ele>291</ele>
        <time>2016-09-26T09:44:11Z</time>
      </trkpt>
      <trkpt lat="45.96264" lon="4.93958">
        <ele>291</ele>
        <time>2016-09-26T09:44:12Z</time>
      </trkpt>
      <trkpt lat="45.96258" lon="4.93961">
        <ele>291</ele>
        <time>2016-09-26T09:44:13Z</time>
      </trkpt>
      <trkpt lat="45.96251" lon="4.93966">
        <ele>291</ele>
        <time>2016-09-26T09:44:14Z</time>
      </trkpt>
      <trkpt lat="45.96245" lon="4.9397">
        <ele>290</ele>
        <time>2016-09-26T09:44:15Z</time>
      </trkpt>
      <trkpt lat="45.9624" lon="4.93973">
        <ele>290</ele>
        <time>2016-09-26T09:44:16Z</time>
      </trkpt>
      <trkpt lat="45.96234" lon="4.93978">
        <ele>290</ele>
        <time>2016-09-26T09:44:17Z</time>
      </trkpt>
      <trkpt lat="45.96228" lon="4.93983">
        <ele>290</ele>
        <time>2016-09-26T09:44:18Z</time>
      </trkpt>
      <trkpt lat="45.96222" lon="4.93987">
        <ele>290</ele>
        <time>2016-09-26T09:44:19Z</time>
      </trkpt>
      <trkpt lat="45.96215" lon="4.93992">
        <ele>290</ele>
        <time>2016-09-26T09:44:20Z</time>
      </trkpt>
      <trkpt lat="45.96208" lon="4.93998">
        <ele>290</ele>
        <time>2016-09-26T09:44:21Z</time>
      </trkpt>
      <trkpt lat="45.96201" lon="4.94003">
        <ele>290</ele>
        <time>2016-09-26T09:44:22Z</time>
      </trkpt>
      <trkpt lat="45.96194" lon="4.94009">
        <ele>290</ele>
        <time>2016-09-26T09:44:23Z</time>
      </trkpt>
      <trkpt lat="45.96187" lon="4.94014">
        <ele>290</ele>
        <time>2016-09-26T09:44:24Z</time>
      </trkpt>
      <trkpt lat="45.96181" lon="4.9402">
        <ele>290</ele>
        <time>2016-09-26T09:44:25Z</time>
      </trkpt>
      <trkpt lat="45.96175" lon="4.94025">
        <ele>290</ele>
        <time>2016-09-26T09:44:26Z</time>
      </trkpt>
      <trkpt lat="45.96169" lon="4.94031">
        <ele>290</ele>
        <time>2016-09-26T09:44:27Z</time>
      </trkpt>
      <trkpt lat="45.96163" lon="4.94036">
        <ele>290</ele>
        <time>2016-09-26T09:44:28Z</time>
      </trkpt>
      <trkpt lat="45.96157" lon="4.9404">
        <ele>290</ele>
        <time>2016-09-26T09:44:29Z</time>
      </trkpt>
      <trkpt lat="45.96152" lon="4.94045">
        <ele>290</ele>
        <time>2016-09-26T09:44:30Z</time>
      </trkpt>
      <trkpt lat="45.96146" lon="4.94049">
        <ele>290</ele>
        <time>2016-09-26T09:44:31Z</time>
      </trkpt>
      <trkpt lat="45.96141" lon="4.94053">
        <ele>290</ele>
        <time>2016-09-26T09:44:32Z</time>
      </trkpt>
      <trkpt lat="45.96135" lon="4.94058">
        <ele>290</ele>
        <time>2016-09-26T09:44:33Z</time>
      </trkpt>
      <trkpt lat="45.96131" lon="4.94062">
        <ele>290</ele>
        <time>2016-09-26T09:44:34Z</time>
      </trkpt>
      <trkpt lat="45.96126" lon="4.94066">
        <ele>290</ele>
        <time>2016-09-26T09:44:35Z</time>
      </trkpt>
      <trkpt lat="45.96121" lon="4.94071">
        <ele>290</ele>
        <time>2016-09-26T09:44:36Z</time>
      </trkpt>
      <trkpt lat="45.96115" lon="4.94074">
        <ele>291</ele>
        <time>2016-09-26T09:44:37Z</time>
      </trkpt>
      <trkpt lat="45.9611" lon="4.94079">
        <ele>291</ele>
        <time>2016-09-26T09:44:38Z</time>
      </trkpt>
      <trkpt lat="45.96104" lon="4.94083">
        <ele>291</ele>
        <time>2016-09-26T09:44:39Z</time>
      </trkpt>
      <trkpt lat="45.96099" lon="4.94087">
        <ele>291</ele>
        <time>2016-09-26T09:44:40Z</time>
      </trkpt>
      <trkpt lat="45.96093" lon="4.94092">
        <ele>291</ele>
        <time>2016-09-26T09:44:41Z</time>
      </trkpt>
      <trkpt lat="45.96088" lon="4.94096">
        <ele>291</ele>
        <time>2016-09-26T09:44:42Z</time>
      </trkpt>
      <trkpt lat="45.96083" lon="4.94101">
        <ele>291</ele>
        <time>2016-09-26T09:44:43Z</time>
      </trkpt>
      <trkpt lat="45.96078" lon="4.94105">
        <ele>291</ele>
        <time>2016-09-26T09:44:44Z</time>
      </trkpt>
      <trkpt lat="45.96073" lon="4.94109">
        <ele>291</ele>
        <time>2016-09-26T09:44:45Z</time>
      </trkpt>
      <trkpt lat="45.96068" lon="4.94113">
        <ele>291</ele>
        <time>2016-09-26T09:44:46Z</time>
      </trkpt>
      <trkpt lat="45.96063" lon="4.94117">
        <ele>291</ele>
        <time>2016-09-26T09:44:47Z</time>
      </trkpt>
      <trkpt lat="45.96059" lon="4.9412">
        <ele>291</ele>
        <time>2016-09-26T09:44:48Z</time>
      </trkpt>
      <trkpt lat="45.96054" lon="4.94123">
        <ele>291</ele>
        <time>2016-09-26T09:44:49Z</time>
      </trkpt>
      <trkpt lat="45.96049" lon="4.94124">
        <ele>291</ele>
        <time>2016-09-26T09:44:50Z</time>
      </trkpt>
      <trkpt lat="45.96043" lon="4.94126">
        <ele>291</ele>
        <time>2016-09-26T09:44:51Z</time>
      </trkpt>
      <trkpt lat="45.96037" lon="4.94127">
        <ele>291</ele>
        <time>2016-09-26T09:44:52Z</time>
      </trkpt>
      <trkpt lat="45.9603" lon="4.94126">
        <ele>291</ele>
        <time>2016-09-26T09:44:53Z</time>
      </trkpt>
      <trkpt lat="45.96024" lon="4.94125">
        <ele>291</ele>
        <time>2016-09-26T09:44:54Z</time>
      </trkpt>
      <trkpt lat="45.96018" lon="4.94123">
        <ele>291</ele>
        <time>2016-09-26T09:44:55Z</time>
      </trkpt>
      <trkpt lat="45.96012" lon="4.94122">
        <ele>291</ele>
        <time>2016-09-26T09:44:56Z</time>
      </trkpt>
      <trkpt lat="45.96005" lon="4.94121">
        <ele>291</ele>
        <time>2016-09-26T09:44:57Z</time>
      </trkpt>
      <trkpt lat="45.95999" lon="4.94119">
        <ele>291</ele>
        <time>2016-09-26T09:44:58Z</time>
      </trkpt>
      <trkpt lat="45.95993" lon="4.94118">
        <ele>291</ele>
        <time>2016-09-26T09:44:59Z</time>
      </trkpt>
      <trkpt lat="45.95987" lon="4.94117">
        <ele>292</ele>
        <time>2016-09-26T09:45:00Z</time>
      </trkpt>
      <trkpt lat="45.95981" lon="4.94115">
        <ele>292</ele>
        <time>2016-09-26T09:45:01Z</time>
      </trkpt>
      <trkpt lat="45.95975" lon="4.94114">
        <ele>292</ele>
        <time>2016-09-26T09:45:02Z</time>
      </trkpt>
      <trkpt lat="45.9597" lon="4.94113">
        <ele>292</ele>
        <time>2016-09-26T09:45:03Z</time>
      </trkpt>
      <trkpt lat="45.95964" lon="4.94112">
        <ele>292</ele>
        <time>2016-09-26T09:45:04Z</time>
      </trkpt>
      <trkpt lat="45.9596" lon="4.9411">
        <ele>292</ele>
        <time>2016-09-26T09:45:05Z</time>
      </trkpt>
      <trkpt lat="45.95954" lon="4.94108">
        <ele>292</ele>
        <time>2016-09-26T09:45:06Z</time>
      </trkpt>
      <trkpt lat="45.95948" lon="4.94107">
        <ele>292</ele>
        <time>2016-09-26T09:45:07Z</time>
      </trkpt>
      <trkpt lat="45.95942" lon="4.94105">
        <ele>292</ele>
        <time>2016-09-26T09:45:08Z</time>
      </trkpt>
      <trkpt lat="45.95937" lon="4.94104">
        <ele>292</ele>
        <time>2016-09-26T09:45:09Z</time>
      </trkpt>
      <trkpt lat="45.95932" lon="4.94102">
        <ele>292</ele>
        <time>2016-09-26T09:45:10Z</time>
      </trkpt>
      <trkpt lat="45.95926" lon="4.941">
        <ele>292</ele>
        <time>2016-09-26T09:45:11Z</time>
      </trkpt>
      <trkpt lat="45.95921" lon="4.94098">
        <ele>292</ele>
        <time>2016-09-26T09:45:12Z</time>
      </trkpt>
      <trkpt lat="45.95915" lon="4.94097">
        <ele>293</ele>
        <time>2016-09-26T09:45:13Z</time>
      </trkpt>
      <trkpt lat="45.9591" lon="4.94096">
        <ele>293</ele>
        <time>2016-09-26T09:45:14Z</time>
      </trkpt>
      <trkpt lat="45.95905" lon="4.94094">
        <ele>293</ele>
        <time>2016-09-26T09:45:15Z</time>
      </trkpt>
      <trkpt lat="45.95899" lon="4.94093">
        <ele>293</ele>
        <time>2016-09-26T09:45:16Z</time>
      </trkpt>
      <trkpt lat="45.95894" lon="4.94092">
        <ele>293</ele>
        <time>2016-09-26T09:45:17Z</time>
      </trkpt>
      <trkpt lat="45.95889" lon="4.9409">
        <ele>293</ele>
        <time>2016-09-26T09:45:18Z</time>
      </trkpt>
      <trkpt lat="45.95881" lon="4.94089">
        <ele>293</ele>
        <time>2016-09-26T09:45:20Z</time>
      </trkpt>
      <trkpt lat="45.95876" lon="4.94088">
        <ele>293</ele>
        <time>2016-09-26T09:45:21Z</time>
      </trkpt>
      <trkpt lat="45.95871" lon="4.94087">
        <ele>293</ele>
        <time>2016-09-26T09:45:22Z</time>
      </trkpt>
      <trkpt lat="45.95866" lon="4.94086">
        <ele>293</ele>
        <time>2016-09-26T09:45:23Z</time>
      </trkpt>
      <trkpt lat="45.95861" lon="4.94085">
        <ele>293</ele>
        <time>2016-09-26T09:45:24Z</time>
      </trkpt>
      <trkpt lat="45.95856" lon="4.94083">
        <ele>293</ele>
        <time>2016-09-26T09:45:25Z</time>
      </trkpt>
      <trkpt lat="45.95851" lon="4.94082">
        <ele>293</ele>
        <time>2016-09-26T09:45:26Z</time>
      </trkpt>
      <trkpt lat="45.95845" lon="4.9408">
        <ele>294</ele>
        <time>2016-09-26T09:45:27Z</time>
      </trkpt>
      <trkpt lat="45.95839" lon="4.94079">
        <ele>294</ele>
        <time>2016-09-26T09:45:28Z</time>
      </trkpt>
      <trkpt lat="45.95834" lon="4.94077">
        <ele>294</ele>
        <time>2016-09-26T09:45:29Z</time>
      </trkpt>
      <trkpt lat="45.95829" lon="4.94076">
        <ele>294</ele>
        <time>2016-09-26T09:45:30Z</time>
      </trkpt>
      <trkpt lat="45.95824" lon="4.94074">
        <ele>294</ele>
        <time>2016-09-26T09:45:31Z</time>
      </trkpt>
      <trkpt lat="45.95819" lon="4.94073">
        <ele>294</ele>
        <time>2016-09-26T09:45:32Z</time>
      </trkpt>
      <trkpt lat="45.95815" lon="4.94072">
        <ele>294</ele>
        <time>2016-09-26T09:45:33Z</time>
      </trkpt>
      <trkpt lat="45.9581" lon="4.94072">
        <ele>294</ele>
        <time>2016-09-26T09:45:34Z</time>
      </trkpt>
      <trkpt lat="45.95804" lon="4.9407">
        <ele>294</ele>
        <time>2016-09-26T09:45:35Z</time>
      </trkpt>
      <trkpt lat="45.95795" lon="4.94067">
        <ele>294</ele>
        <time>2016-09-26T09:45:37Z</time>
      </trkpt>
      <trkpt lat="45.95791" lon="4.94066">
        <ele>294</ele>
        <time>2016-09-26T09:45:38Z</time>
      </trkpt>
      <trkpt lat="45.95787" lon="4.94064">
        <ele>294</ele>
        <time>2016-09-26T09:45:39Z</time>
      </trkpt>
      <trkpt lat="45.95782" lon="4.94064">
        <ele>294</ele>
        <time>2016-09-26T09:45:40Z</time>
      </trkpt>
      <trkpt lat="45.95777" lon="4.94063">
        <ele>294</ele>
        <time>2016-09-26T09:45:41Z</time>
      </trkpt>
      <trkpt lat="45.95772" lon="4.94062">
        <ele>294</ele>
        <time>2016-09-26T09:45:42Z</time>
      </trkpt>
      <trkpt lat="45.95768" lon="4.94061">
        <ele>294</ele>
        <time>2016-09-26T09:45:43Z</time>
      </trkpt>
      <trkpt lat="45.95763" lon="4.9406">
        <ele>294</ele>
        <time>2016-09-26T09:45:44Z</time>
      </trkpt>
      <trkpt lat="45.95755" lon="4.94058">
        <ele>294</ele>
        <time>2016-09-26T09:45:46Z</time>
      </trkpt>
      <trkpt lat="45.95751" lon="4.94058">
        <ele>294</ele>
        <time>2016-09-26T09:45:47Z</time>
      </trkpt>
      <trkpt lat="45.95742" lon="4.94056">
        <ele>295</ele>
        <time>2016-09-26T09:45:49Z</time>
      </trkpt>
      <trkpt lat="45.95737" lon="4.94054">
        <ele>295</ele>
        <time>2016-09-26T09:45:50Z</time>
      </trkpt>
      <trkpt lat="45.95728" lon="4.94052">
        <ele>295</ele>
        <time>2016-09-26T09:45:52Z</time>
      </trkpt>
      <trkpt lat="45.95723" lon="4.94051">
        <ele>295</ele>
        <time>2016-09-26T09:45:53Z</time>
      </trkpt>
      <trkpt lat="45.95718" lon="4.9405">
        <ele>295</ele>
        <time>2016-09-26T09:45:54Z</time>
      </trkpt>
      <trkpt lat="45.95713" lon="4.9405">
        <ele>295</ele>
        <time>2016-09-26T09:45:55Z</time>
      </trkpt>
      <trkpt lat="45.95708" lon="4.94049">
        <ele>295</ele>
        <time>2016-09-26T09:45:56Z</time>
      </trkpt>
      <trkpt lat="45.95703" lon="4.94047">
        <ele>295</ele>
        <time>2016-09-26T09:45:57Z</time>
      </trkpt>
      <trkpt lat="45.95699" lon="4.94045">
        <ele>295</ele>
        <time>2016-09-26T09:45:58Z</time>
      </trkpt>
      <trkpt lat="45.95695" lon="4.94043">
        <ele>295</ele>
        <time>2016-09-26T09:45:59Z</time>
      </trkpt>
      <trkpt lat="45.95689" lon="4.94042">
        <ele>295</ele>
        <time>2016-09-26T09:46:00Z</time>
      </trkpt>
      <trkpt lat="45.95685" lon="4.9404">
        <ele>295</ele>
        <time>2016-09-26T09:46:01Z</time>
      </trkpt>
      <trkpt lat="45.95678" lon="4.94035">
        <ele>295</ele>
        <time>2016-09-26T09:46:03Z</time>
      </trkpt>
      <trkpt lat="45.95675" lon="4.9403">
        <ele>295</ele>
        <time>2016-09-26T09:46:04Z</time>
      </trkpt>
      <trkpt lat="45.95678" lon="4.9402">
        <ele>295</ele>
        <time>2016-09-26T09:46:06Z</time>
      </trkpt>
      <trkpt lat="45.95678" lon="4.94012">
        <ele>295</ele>
        <time>2016-09-26T09:46:07Z</time>
      </trkpt>
      <trkpt lat="45.95678" lon="4.94005">
        <ele>295</ele>
        <time>2016-09-26T09:46:08Z</time>
      </trkpt>
      <trkpt lat="45.95678" lon="4.93998">
        <ele>295</ele>
        <time>2016-09-26T09:46:09Z</time>
      </trkpt>
      <trkpt lat="45.95678" lon="4.93985">
        <ele>295</ele>
        <time>2016-09-26T09:46:11Z</time>
      </trkpt>
      <trkpt lat="45.95676" lon="4.9398">
        <ele>295</ele>
        <time>2016-09-26T09:46:12Z</time>
      </trkpt>
      <trkpt lat="45.9567" lon="4.93976">
        <ele>295</ele>
        <time>2016-09-26T09:46:14Z</time>
      </trkpt>
      <trkpt lat="45.95666" lon="4.93974">
        <ele>294</ele>
        <time>2016-09-26T09:46:15Z</time>
      </trkpt>
      <trkpt lat="45.95662" lon="4.93965">
        <ele>294</ele>
        <time>2016-09-26T09:46:17Z</time>
      </trkpt>
      <trkpt lat="45.9566" lon="4.9396">
        <ele>294</ele>
        <time>2016-09-26T09:46:18Z</time>
      </trkpt>
      <trkpt lat="45.95657" lon="4.93956">
        <ele>294</ele>
        <time>2016-09-26T09:46:19Z</time>
      </trkpt>
      <trkpt lat="45.95654" lon="4.93949">
        <ele>294</ele>
        <time>2016-09-26T09:46:20Z</time>
      </trkpt>
      <trkpt lat="45.95655" lon="4.9394">
        <ele>294</ele>
        <time>2016-09-26T09:46:21Z</time>
      </trkpt>
      <trkpt lat="45.95657" lon="4.93928">
        <ele>294</ele>
        <time>2016-09-26T09:46:22Z</time>
      </trkpt>
      <trkpt lat="45.95659" lon="4.93918">
        <ele>294</ele>
        <time>2016-09-26T09:46:23Z</time>
      </trkpt>
      <trkpt lat="45.95661" lon="4.93909">
        <ele>293</ele>
        <time>2016-09-26T09:46:24Z</time>
      </trkpt>
      <trkpt lat="45.95662" lon="4.939">
        <ele>292</ele>
        <time>2016-09-26T09:46:25Z</time>
      </trkpt>
      <trkpt lat="45.95663" lon="4.9389">
        <ele>292</ele>
        <time>2016-09-26T09:46:26Z</time>
      </trkpt>
      <trkpt lat="45.95663" lon="4.93881">
        <ele>291</ele>
        <time>2016-09-26T09:46:27Z</time>
      </trkpt>
      <trkpt lat="45.95662" lon="4.93872">
        <ele>291</ele>
        <time>2016-09-26T09:46:28Z</time>
      </trkpt>
      <trkpt lat="45.95658" lon="4.93866">
        <ele>290</ele>
        <time>2016-09-26T09:46:29Z</time>
      </trkpt>
      <trkpt lat="45.95653" lon="4.93862">
        <ele>290</ele>
        <time>2016-09-26T09:46:30Z</time>
      </trkpt>
      <trkpt lat="45.95648" lon="4.93859">
        <ele>290</ele>
        <time>2016-09-26T09:46:31Z</time>
      </trkpt>
      <trkpt lat="45.95643" lon="4.93855">
        <ele>290</ele>
        <time>2016-09-26T09:46:32Z</time>
      </trkpt>
      <trkpt lat="45.95639" lon="4.93851">
        <ele>290</ele>
        <time>2016-09-26T09:46:33Z</time>
      </trkpt>
      <trkpt lat="45.95634" lon="4.93847">
        <ele>290</ele>
        <time>2016-09-26T09:46:34Z</time>
      </trkpt>
      <trkpt lat="45.95629" lon="4.93845">
        <ele>290</ele>
        <time>2016-09-26T09:46:35Z</time>
      </trkpt>
      <trkpt lat="45.95626" lon="4.9384">
        <ele>290</ele>
        <time>2016-09-26T09:46:36Z</time>
      </trkpt>
      <trkpt lat="45.95622" lon="4.93836">
        <ele>290</ele>
        <time>2016-09-26T09:46:37Z</time>
      </trkpt>
      <trkpt lat="45.95618" lon="4.9383">
        <ele>289</ele>
        <time>2016-09-26T09:46:38Z</time>
      </trkpt>
      <trkpt lat="45.95613" lon="4.93826">
        <ele>289</ele>
        <time>2016-09-26T09:46:39Z</time>
      </trkpt>
      <trkpt lat="45.95608" lon="4.93822">
        <ele>289</ele>
        <time>2016-09-26T09:46:40Z</time>
      </trkpt>
      <trkpt lat="45.95603" lon="4.93817">
        <ele>289</ele>
        <time>2016-09-26T09:46:41Z</time>
      </trkpt>
      <trkpt lat="45.95598" lon="4.93813">
        <ele>289</ele>
        <time>2016-09-26T09:46:42Z</time>
      </trkpt>
      <trkpt lat="45.95593" lon="4.93808">
        <ele>289</ele>
        <time>2016-09-26T09:46:43Z</time>
      </trkpt>
      <trkpt lat="45.95589" lon="4.93803">
        <ele>289</ele>
        <time>2016-09-26T09:46:44Z</time>
      </trkpt>
      <trkpt lat="45.95585" lon="4.93798">
        <ele>289</ele>
        <time>2016-09-26T09:46:45Z</time>
      </trkpt>
      <trkpt lat="45.95581" lon="4.93792">
        <ele>290</ele>
        <time>2016-09-26T09:46:46Z</time>
      </trkpt>
      <trkpt lat="45.95579" lon="4.93785">
        <ele>290</ele>
        <time>2016-09-26T09:46:47Z</time>
      </trkpt>
      <trkpt lat="45.95577" lon="4.93777">
        <ele>290</ele>
        <time>2016-09-26T09:46:48Z</time>
      </trkpt>
      <trkpt lat="45.95575" lon="4.9377">
        <ele>290</ele>
        <time>2016-09-26T09:46:49Z</time>
      </trkpt>
      <trkpt lat="45.95574" lon="4.93762">
        <ele>290</ele>
        <time>2016-09-26T09:46:50Z</time>
      </trkpt>
      <trkpt lat="45.95573" lon="4.93755">
        <ele>290</ele>
        <time>2016-09-26T09:46:51Z</time>
      </trkpt>
      <trkpt lat="45.95572" lon="4.93746">
        <ele>289</ele>
        <time>2016-09-26T09:46:52Z</time>
      </trkpt>
      <trkpt lat="45.95571" lon="4.93738">
        <ele>290</ele>
        <time>2016-09-26T09:46:53Z</time>
      </trkpt>
      <trkpt lat="45.95569" lon="4.93729">
        <ele>290</ele>
        <time>2016-09-26T09:46:54Z</time>
      </trkpt>
      <trkpt lat="45.95569" lon="4.93719">
        <ele>290</ele>
        <time>2016-09-26T09:46:55Z</time>
      </trkpt>
      <trkpt lat="45.95568" lon="4.9371">
        <ele>290</ele>
        <time>2016-09-26T09:46:56Z</time>
      </trkpt>
      <trkpt lat="45.95568" lon="4.937">
        <ele>290</ele>
        <time>2016-09-26T09:46:57Z</time>
      </trkpt>
      <trkpt lat="45.95568" lon="4.93691">
        <ele>290</ele>
        <time>2016-09-26T09:46:58Z</time>
      </trkpt>
      <trkpt lat="45.95567" lon="4.93684">
        <ele>289</ele>
        <time>2016-09-26T09:46:59Z</time>
      </trkpt>
      <trkpt lat="45.95568" lon="4.93675">
        <ele>289</ele>
        <time>2016-09-26T09:47:00Z</time>
      </trkpt>
      <trkpt lat="45.95568" lon="4.93667">
        <ele>289</ele>
        <time>2016-09-26T09:47:01Z</time>
      </trkpt>
      <trkpt lat="45.95568" lon="4.93661">
        <ele>289</ele>
        <time>2016-09-26T09:47:02Z</time>
      </trkpt>
      <trkpt lat="45.95569" lon="4.93655">
        <ele>289</ele>
        <time>2016-09-26T09:47:03Z</time>
      </trkpt>
      <trkpt lat="45.95569" lon="4.93648">
        <ele>289</ele>
        <time>2016-09-26T09:47:04Z</time>
      </trkpt>
      <trkpt lat="45.9557" lon="4.93639">
        <ele>289</ele>
        <time>2016-09-26T09:47:05Z</time>
      </trkpt>
      <trkpt lat="45.95569" lon="4.93631">
        <ele>289</ele>
        <time>2016-09-26T09:47:06Z</time>
      </trkpt>
      <trkpt lat="45.95569" lon="4.93623">
        <ele>289</ele>
        <time>2016-09-26T09:47:07Z</time>
      </trkpt>
      <trkpt lat="45.9557" lon="4.93615">
        <ele>289</ele>
        <time>2016-09-26T09:47:08Z</time>
      </trkpt>
      <trkpt lat="45.9557" lon="4.93607">
        <ele>289</ele>
        <time>2016-09-26T09:47:09Z</time>
      </trkpt>
      <trkpt lat="45.95571" lon="4.93599">
        <ele>289</ele>
        <time>2016-09-26T09:47:10Z</time>
      </trkpt>
      <trkpt lat="45.95572" lon="4.93591">
        <ele>289</ele>
        <time>2016-09-26T09:47:11Z</time>
      </trkpt>
      <trkpt lat="45.95573" lon="4.93584">
        <ele>289</ele>
        <time>2016-09-26T09:47:12Z</time>
      </trkpt>
      <trkpt lat="45.95573" lon="4.93576">
        <ele>289</ele>
        <time>2016-09-26T09:47:13Z</time>
      </trkpt>
      <trkpt lat="45.95574" lon="4.93568">
        <ele>289</ele>
        <time>2016-09-26T09:47:14Z</time>
      </trkpt>
      <trkpt lat="45.95575" lon="4.93561">
        <ele>289</ele>
        <time>2016-09-26T09:47:15Z</time>
      </trkpt>
      <trkpt lat="45.95576" lon="4.93551">
        <ele>289</ele>
        <time>2016-09-26T09:47:16Z</time>
      </trkpt>
      <trkpt lat="45.95576" lon="4.93542">
        <ele>289</ele>
        <time>2016-09-26T09:47:17Z</time>
      </trkpt>
      <trkpt lat="45.95575" lon="4.93533">
        <ele>290</ele>
        <time>2016-09-26T09:47:18Z</time>
      </trkpt>
      <trkpt lat="45.95574" lon="4.93525">
        <ele>290</ele>
        <time>2016-09-26T09:47:19Z</time>
      </trkpt>
      <trkpt lat="45.95573" lon="4.93517">
        <ele>290</ele>
        <time>2016-09-26T09:47:20Z</time>
      </trkpt>
      <trkpt lat="45.95571" lon="4.93509">
        <ele>290</ele>
        <time>2016-09-26T09:47:21Z</time>
      </trkpt>
      <trkpt lat="45.95569" lon="4.93502">
        <ele>290</ele>
        <time>2016-09-26T09:47:22Z</time>
      </trkpt>
      <trkpt lat="45.95566" lon="4.93495">
        <ele>290</ele>
        <time>2016-09-26T09:47:23Z</time>
      </trkpt>
      <trkpt lat="45.95564" lon="4.93488">
        <ele>290</ele>
        <time>2016-09-26T09:47:24Z</time>
      </trkpt>
      <trkpt lat="45.95561" lon="4.93482">
        <ele>289</ele>
        <time>2016-09-26T09:47:25Z</time>
      </trkpt>
      <trkpt lat="45.95559" lon="4.93475">
        <ele>289</ele>
        <time>2016-09-26T09:47:26Z</time>
      </trkpt>
      <trkpt lat="45.95556" lon="4.93468">
        <ele>289</ele>
        <time>2016-09-26T09:47:27Z</time>
      </trkpt>
      <trkpt lat="45.95553" lon="4.93462">
        <ele>289</ele>
        <time>2016-09-26T09:47:28Z</time>
      </trkpt>
      <trkpt lat="45.95551" lon="4.93455">
        <ele>289</ele>
        <time>2016-09-26T09:47:29Z</time>
      </trkpt>
      <trkpt lat="45.95548" lon="4.93447">
        <ele>289</ele>
        <time>2016-09-26T09:47:30Z</time>
      </trkpt>
      <trkpt lat="45.95546" lon="4.93439">
        <ele>289</ele>
        <time>2016-09-26T09:47:31Z</time>
      </trkpt>
      <trkpt lat="45.95543" lon="4.93432">
        <ele>289</ele>
        <time>2016-09-26T09:47:32Z</time>
      </trkpt>
      <trkpt lat="45.9554" lon="4.93425">
        <ele>289</ele>
        <time>2016-09-26T09:47:33Z</time>
      </trkpt>
      <trkpt lat="45.95537" lon="4.93417">
        <ele>289</ele>
        <time>2016-09-26T09:47:34Z</time>
      </trkpt>
      <trkpt lat="45.95535" lon="4.93409">
        <ele>289</ele>
        <time>2016-09-26T09:47:35Z</time>
      </trkpt>
      <trkpt lat="45.95532" lon="4.93402">
        <ele>289</ele>
        <time>2016-09-26T09:47:36Z</time>
      </trkpt>
      <trkpt lat="45.95529" lon="4.93395">
        <ele>289</ele>
        <time>2016-09-26T09:47:37Z</time>
      </trkpt>
      <trkpt lat="45.95526" lon="4.93389">
        <ele>289</ele>
        <time>2016-09-26T09:47:38Z</time>
      </trkpt>
      <trkpt lat="45.95524" lon="4.93383">
        <ele>289</ele>
        <time>2016-09-26T09:47:39Z</time>
      </trkpt>
      <trkpt lat="45.95521" lon="4.93377">
        <ele>289</ele>
        <time>2016-09-26T09:47:40Z</time>
      </trkpt>
      <trkpt lat="45.95519" lon="4.93371">
        <ele>289</ele>
        <time>2016-09-26T09:47:41Z</time>
      </trkpt>
      <trkpt lat="45.95516" lon="4.93365">
        <ele>289</ele>
        <time>2016-09-26T09:47:42Z</time>
      </trkpt>
      <trkpt lat="45.95514" lon="4.93359">
        <ele>289</ele>
        <time>2016-09-26T09:47:43Z</time>
      </trkpt>
      <trkpt lat="45.95512" lon="4.93353">
        <ele>289</ele>
        <time>2016-09-26T09:47:44Z</time>
      </trkpt>
      <trkpt lat="45.9551" lon="4.93347">
        <ele>289</ele>
        <time>2016-09-26T09:47:45Z</time>
      </trkpt>
      <trkpt lat="45.95508" lon="4.93341">
        <ele>289</ele>
        <time>2016-09-26T09:47:46Z</time>
      </trkpt>
      <trkpt lat="45.95505" lon="4.93333">
        <ele>289</ele>
        <time>2016-09-26T09:47:47Z</time>
      </trkpt>
      <trkpt lat="45.95501" lon="4.93326">
        <ele>289</ele>
        <time>2016-09-26T09:47:48Z</time>
      </trkpt>
      <trkpt lat="45.95498" lon="4.9332">
        <ele>289</ele>
        <time>2016-09-26T09:47:49Z</time>
      </trkpt>
      <trkpt lat="45.95495" lon="4.93313">
        <ele>290</ele>
        <time>2016-09-26T09:47:50Z</time>
      </trkpt>
      <trkpt lat="45.95492" lon="4.93305">
        <ele>290</ele>
        <time>2016-09-26T09:47:51Z</time>
      </trkpt>
      <trkpt lat="45.9549" lon="4.93298">
        <ele>290</ele>
        <time>2016-09-26T09:47:52Z</time>
      </trkpt>
      <trkpt lat="45.95487" lon="4.93292">
        <ele>290</ele>
        <time>2016-09-26T09:47:53Z</time>
      </trkpt>
      <trkpt lat="45.95484" lon="4.93285">
        <ele>290</ele>
        <time>2016-09-26T09:47:54Z</time>
      </trkpt>
      <trkpt lat="45.95482" lon="4.93279">
        <ele>290</ele>
        <time>2016-09-26T09:47:55Z</time>
      </trkpt>
      <trkpt lat="45.95479" lon="4.93273">
        <ele>290</ele>
        <time>2016-09-26T09:47:56Z</time>
      </trkpt>
      <trkpt lat="45.95477" lon="4.93267">
        <ele>290</ele>
        <time>2016-09-26T09:47:57Z</time>
      </trkpt>
      <trkpt lat="45.95475" lon="4.93261">
        <ele>290</ele>
        <time>2016-09-26T09:47:58Z</time>
      </trkpt>
      <trkpt lat="45.95472" lon="4.9325">
        <ele>290</ele>
        <time>2016-09-26T09:48:00Z</time>
      </trkpt>
      <trkpt lat="45.95471" lon="4.93244">
        <ele>290</ele>
        <time>2016-09-26T09:48:01Z</time>
      </trkpt>
      <trkpt lat="45.95468" lon="4.93237">
        <ele>290</ele>
        <time>2016-09-26T09:48:02Z</time>
      </trkpt>
      <trkpt lat="45.95465" lon="4.93231">
        <ele>290</ele>
        <time>2016-09-26T09:48:03Z</time>
      </trkpt>
      <trkpt lat="45.95463" lon="4.93226">
        <ele>290</ele>
        <time>2016-09-26T09:48:04Z</time>
      </trkpt>
      <trkpt lat="45.9546" lon="4.9322">
        <ele>290</ele>
        <time>2016-09-26T09:48:05Z</time>
      </trkpt>
      <trkpt lat="45.95457" lon="4.93215">
        <ele>291</ele>
        <time>2016-09-26T09:48:06Z</time>
      </trkpt>
      <trkpt lat="45.95455" lon="4.93209">
        <ele>291</ele>
        <time>2016-09-26T09:48:07Z</time>
      </trkpt>
      <trkpt lat="45.95454" lon="4.93202">
        <ele>291</ele>
        <time>2016-09-26T09:48:08Z</time>
      </trkpt>
      <trkpt lat="45.95453" lon="4.93195">
        <ele>291</ele>
        <time>2016-09-26T09:48:09Z</time>
      </trkpt>
      <trkpt lat="45.95454" lon="4.93184">
        <ele>291</ele>
        <time>2016-09-26T09:48:11Z</time>
      </trkpt>
      <trkpt lat="45.95457" lon="4.93179">
        <ele>291</ele>
        <time>2016-09-26T09:48:12Z</time>
      </trkpt>
      <trkpt lat="45.95463" lon="4.93171">
        <ele>290</ele>
        <time>2016-09-26T09:48:14Z</time>
      </trkpt>
      <trkpt lat="45.95467" lon="4.93169">
        <ele>290</ele>
        <time>2016-09-26T09:48:15Z</time>
      </trkpt>
      <trkpt lat="45.95474" lon="4.93163">
        <ele>290</ele>
        <time>2016-09-26T09:48:17Z</time>
      </trkpt>
      <trkpt lat="45.95478" lon="4.9316">
        <ele>290</ele>
        <time>2016-09-26T09:48:18Z</time>
      </trkpt>
      <trkpt lat="45.95486" lon="4.93155">
        <ele>290</ele>
        <time>2016-09-26T09:48:20Z</time>
      </trkpt>
      <trkpt lat="45.9549" lon="4.93152">
        <ele>290</ele>
        <time>2016-09-26T09:48:21Z</time>
      </trkpt>
      <trkpt lat="45.95495" lon="4.9315">
        <ele>290</ele>
        <time>2016-09-26T09:48:22Z</time>
      </trkpt>
      <trkpt lat="45.95499" lon="4.93147">
        <ele>290</ele>
        <time>2016-09-26T09:48:23Z</time>
      </trkpt>
      <trkpt lat="45.95503" lon="4.93144">
        <ele>289</ele>
        <time>2016-09-26T09:48:24Z</time>
      </trkpt>
      <trkpt lat="45.95507" lon="4.93142">
        <ele>289</ele>
        <time>2016-09-26T09:48:25Z</time>
      </trkpt>
      <trkpt lat="45.95515" lon="4.93136">
        <ele>289</ele>
        <time>2016-09-26T09:48:27Z</time>
      </trkpt>
      <trkpt lat="45.95518" lon="4.93134">
        <ele>289</ele>
        <time>2016-09-26T09:48:28Z</time>
      </trkpt>
      <trkpt lat="45.95522" lon="4.93131">
        <ele>289</ele>
        <time>2016-09-26T09:48:29Z</time>
      </trkpt>
      <trkpt lat="45.95526" lon="4.93125">
        <ele>289</ele>
        <time>2016-09-26T09:48:30Z</time>
      </trkpt>
      <trkpt lat="45.95531" lon="4.93122">
        <ele>289</ele>
        <time>2016-09-26T09:48:31Z</time>
      </trkpt>
      <trkpt lat="45.95535" lon="4.93116">
        <ele>289</ele>
        <time>2016-09-26T09:48:32Z</time>
      </trkpt>
      <trkpt lat="45.95539" lon="4.93109">
        <ele>289</ele>
        <time>2016-09-26T09:48:33Z</time>
      </trkpt>
      <trkpt lat="45.95543" lon="4.931">
        <ele>289</ele>
        <time>2016-09-26T09:48:34Z</time>
      </trkpt>
      <trkpt lat="45.95545" lon="4.93092">
        <ele>289</ele>
        <time>2016-09-26T09:48:35Z</time>
      </trkpt>
      <trkpt lat="45.95547" lon="4.93085">
        <ele>290</ele>
        <time>2016-09-26T09:48:36Z</time>
      </trkpt>
      <trkpt lat="45.95549" lon="4.93077">
        <ele>290</ele>
        <time>2016-09-26T09:48:37Z</time>
      </trkpt>
      <trkpt lat="45.95549" lon="4.9307">
        <ele>290</ele>
        <time>2016-09-26T09:48:38Z</time>
      </trkpt>
      <trkpt lat="45.9555" lon="4.93062">
        <ele>290</ele>
        <time>2016-09-26T09:48:39Z</time>
      </trkpt>
      <trkpt lat="45.95552" lon="4.93053">
        <ele>290</ele>
        <time>2016-09-26T09:48:40Z</time>
      </trkpt>
      <trkpt lat="45.95553" lon="4.93045">
        <ele>291</ele>
        <time>2016-09-26T09:48:41Z</time>
      </trkpt>
      <trkpt lat="45.95554" lon="4.93036">
        <ele>291</ele>
        <time>2016-09-26T09:48:42Z</time>
      </trkpt>
      <trkpt lat="45.95555" lon="4.93028">
        <ele>291</ele>
        <time>2016-09-26T09:48:43Z</time>
      </trkpt>
      <trkpt lat="45.95557" lon="4.93021">
        <ele>291</ele>
        <time>2016-09-26T09:48:44Z</time>
      </trkpt>
      <trkpt lat="45.95558" lon="4.93014">
        <ele>291</ele>
        <time>2016-09-26T09:48:45Z</time>
      </trkpt>
      <trkpt lat="45.9556" lon="4.93008">
        <ele>291</ele>
        <time>2016-09-26T09:48:46Z</time>
      </trkpt>
      <trkpt lat="45.95561" lon="4.92999">
        <ele>292</ele>
        <time>2016-09-26T09:48:47Z</time>
      </trkpt>
      <trkpt lat="45.95562" lon="4.9299">
        <ele>292</ele>
        <time>2016-09-26T09:48:48Z</time>
      </trkpt>
      <trkpt lat="45.95563" lon="4.92981">
        <ele>292</ele>
        <time>2016-09-26T09:48:49Z</time>
      </trkpt>
      <trkpt lat="45.95564" lon="4.92974">
        <ele>292</ele>
        <time>2016-09-26T09:48:50Z</time>
      </trkpt>
      <trkpt lat="45.95565" lon="4.92966">
        <ele>292</ele>
        <time>2016-09-26T09:48:51Z</time>
      </trkpt>
      <trkpt lat="45.95566" lon="4.92959">
        <ele>292</ele>
        <time>2016-09-26T09:48:52Z</time>
      </trkpt>
      <trkpt lat="45.95567" lon="4.92952">
        <ele>292</ele>
        <time>2016-09-26T09:48:53Z</time>
      </trkpt>
      <trkpt lat="45.95567" lon="4.92945">
        <ele>292</ele>
        <time>2016-09-26T09:48:54Z</time>
      </trkpt>
      <trkpt lat="45.95568" lon="4.92938">
        <ele>293</ele>
        <time>2016-09-26T09:48:55Z</time>
      </trkpt>
      <trkpt lat="45.95569" lon="4.92931">
        <ele>293</ele>
        <time>2016-09-26T09:48:56Z</time>
      </trkpt>
      <trkpt lat="45.9557" lon="4.92924">
        <ele>293</ele>
        <time>2016-09-26T09:48:57Z</time>
      </trkpt>
      <trkpt lat="45.95571" lon="4.92917">
        <ele>293</ele>
        <time>2016-09-26T09:48:58Z</time>
      </trkpt>
      <trkpt lat="45.95572" lon="4.9291">
        <ele>294</ele>
        <time>2016-09-26T09:48:59Z</time>
      </trkpt>
      <trkpt lat="45.95572" lon="4.92903">
        <ele>294</ele>
        <time>2016-09-26T09:49:00Z</time>
      </trkpt>
      <trkpt lat="45.95573" lon="4.92897">
        <ele>294</ele>
        <time>2016-09-26T09:49:01Z</time>
      </trkpt>
      <trkpt lat="45.95574" lon="4.9289">
        <ele>294</ele>
        <time>2016-09-26T09:49:02Z</time>
      </trkpt>
      <trkpt lat="45.95574" lon="4.92883">
        <ele>294</ele>
        <time>2016-09-26T09:49:03Z</time>
      </trkpt>
      <trkpt lat="45.95575" lon="4.92875">
        <ele>294</ele>
        <time>2016-09-26T09:49:04Z</time>
      </trkpt>
      <trkpt lat="45.95576" lon="4.92868">
        <ele>294</ele>
        <time>2016-09-26T09:49:05Z</time>
      </trkpt>
      <trkpt lat="45.95578" lon="4.9286">
        <ele>294</ele>
        <time>2016-09-26T09:49:06Z</time>
      </trkpt>
      <trkpt lat="45.95579" lon="4.92853">
        <ele>294</ele>
        <time>2016-09-26T09:49:07Z</time>
      </trkpt>
      <trkpt lat="45.95579" lon="4.92845">
        <ele>294</ele>
        <time>2016-09-26T09:49:08Z</time>
      </trkpt>
      <trkpt lat="45.9558" lon="4.92838">
        <ele>295</ele>
        <time>2016-09-26T09:49:09Z</time>
      </trkpt>
      <trkpt lat="45.95581" lon="4.92831">
        <ele>295</ele>
        <time>2016-09-26T09:49:10Z</time>
      </trkpt>
      <trkpt lat="45.95582" lon="4.92825">
        <ele>295</ele>
        <time>2016-09-26T09:49:11Z</time>
      </trkpt>
      <trkpt lat="45.95582" lon="4.92818">
        <ele>295</ele>
        <time>2016-09-26T09:49:12Z</time>
      </trkpt>
      <trkpt lat="45.95584" lon="4.92812">
        <ele>295</ele>
        <time>2016-09-26T09:49:13Z</time>
      </trkpt>
      <trkpt lat="45.95585" lon="4.92805">
        <ele>295</ele>
        <time>2016-09-26T09:49:14Z</time>
      </trkpt>
      <trkpt lat="45.95586" lon="4.92798">
        <ele>295</ele>
        <time>2016-09-26T09:49:15Z</time>
      </trkpt>
      <trkpt lat="45.95586" lon="4.92792">
        <ele>295</ele>
        <time>2016-09-26T09:49:16Z</time>
      </trkpt>
      <trkpt lat="45.95588" lon="4.92785">
        <ele>295</ele>
        <time>2016-09-26T09:49:17Z</time>
      </trkpt>
      <trkpt lat="45.95589" lon="4.92777">
        <ele>295</ele>
        <time>2016-09-26T09:49:18Z</time>
      </trkpt>
      <trkpt lat="45.95591" lon="4.92769">
        <ele>295</ele>
        <time>2016-09-26T09:49:19Z</time>
      </trkpt>
      <trkpt lat="45.95592" lon="4.92762">
        <ele>295</ele>
        <time>2016-09-26T09:49:20Z</time>
      </trkpt>
      <trkpt lat="45.95593" lon="4.92754">
        <ele>295</ele>
        <time>2016-09-26T09:49:21Z</time>
      </trkpt>
      <trkpt lat="45.95595" lon="4.92746">
        <ele>295</ele>
        <time>2016-09-26T09:49:22Z</time>
      </trkpt>
      <trkpt lat="45.95596" lon="4.92739">
        <ele>295</ele>
        <time>2016-09-26T09:49:23Z</time>
      </trkpt>
      <trkpt lat="45.95598" lon="4.92731">
        <ele>295</ele>
        <time>2016-09-26T09:49:24Z</time>
      </trkpt>
      <trkpt lat="45.956" lon="4.92724">
        <ele>295</ele>
        <time>2016-09-26T09:49:25Z</time>
      </trkpt>
      <trkpt lat="45.95601" lon="4.92715">
        <ele>295</ele>
        <time>2016-09-26T09:49:26Z</time>
      </trkpt>
      <trkpt lat="45.95603" lon="4.92708">
        <ele>295</ele>
        <time>2016-09-26T09:49:27Z</time>
      </trkpt>
      <trkpt lat="45.95603" lon="4.927">
        <ele>295</ele>
        <time>2016-09-26T09:49:28Z</time>
      </trkpt>
      <trkpt lat="45.95605" lon="4.92692">
        <ele>295</ele>
        <time>2016-09-26T09:49:29Z</time>
      </trkpt>
      <trkpt lat="45.95606" lon="4.92685">
        <ele>295</ele>
        <time>2016-09-26T09:49:30Z</time>
      </trkpt>
      <trkpt lat="45.95608" lon="4.92678">
        <ele>295</ele>
        <time>2016-09-26T09:49:31Z</time>
      </trkpt>
      <trkpt lat="45.95609" lon="4.92671">
        <ele>295</ele>
        <time>2016-09-26T09:49:32Z</time>
      </trkpt>
      <trkpt lat="45.9561" lon="4.92664">
        <ele>294</ele>
        <time>2016-09-26T09:49:33Z</time>
      </trkpt>
      <trkpt lat="45.95611" lon="4.92656">
        <ele>294</ele>
        <time>2016-09-26T09:49:34Z</time>
      </trkpt>
      <trkpt lat="45.95613" lon="4.92649">
        <ele>294</ele>
        <time>2016-09-26T09:49:35Z</time>
      </trkpt>
      <trkpt lat="45.95615" lon="4.92642">
        <ele>294</ele>
        <time>2016-09-26T09:49:36Z</time>
      </trkpt>
      <trkpt lat="45.95617" lon="4.92635">
        <ele>294</ele>
        <time>2016-09-26T09:49:37Z</time>
      </trkpt>
      <trkpt lat="45.95618" lon="4.92627">
        <ele>294</ele>
        <time>2016-09-26T09:49:38Z</time>
      </trkpt>
      <trkpt lat="45.95619" lon="4.9262">
        <ele>294</ele>
        <time>2016-09-26T09:49:39Z</time>
      </trkpt>
      <trkpt lat="45.9562" lon="4.92613">
        <ele>294</ele>
        <time>2016-09-26T09:49:40Z</time>
      </trkpt>
      <trkpt lat="45.95621" lon="4.92606">
        <ele>294</ele>
        <time>2016-09-26T09:49:41Z</time>
      </trkpt>
      <trkpt lat="45.95623" lon="4.92599">
        <ele>294</ele>
        <time>2016-09-26T09:49:42Z</time>
      </trkpt>
      <trkpt lat="45.95624" lon="4.9259">
        <ele>294</ele>
        <time>2016-09-26T09:49:43Z</time>
      </trkpt>
      <trkpt lat="45.95625" lon="4.92582">
        <ele>294</ele>
        <time>2016-09-26T09:49:44Z</time>
      </trkpt>
      <trkpt lat="45.95627" lon="4.92574">
        <ele>294</ele>
        <time>2016-09-26T09:49:45Z</time>
      </trkpt>
      <trkpt lat="45.95628" lon="4.92566">
        <ele>294</ele>
        <time>2016-09-26T09:49:46Z</time>
      </trkpt>
      <trkpt lat="45.9563" lon="4.92559">
        <ele>294</ele>
        <time>2016-09-26T09:49:47Z</time>
      </trkpt>
      <trkpt lat="45.9563" lon="4.92552">
        <ele>294</ele>
        <time>2016-09-26T09:49:48Z</time>
      </trkpt>
      <trkpt lat="45.95631" lon="4.92544">
        <ele>294</ele>
        <time>2016-09-26T09:49:49Z</time>
      </trkpt>
      <trkpt lat="45.95631" lon="4.92537">
        <ele>294</ele>
        <time>2016-09-26T09:49:50Z</time>
      </trkpt>
      <trkpt lat="45.95632" lon="4.92529">
        <ele>294</ele>
        <time>2016-09-26T09:49:51Z</time>
      </trkpt>
      <trkpt lat="45.95633" lon="4.92521">
        <ele>294</ele>
        <time>2016-09-26T09:49:52Z</time>
      </trkpt>
      <trkpt lat="45.95634" lon="4.92514">
        <ele>294</ele>
        <time>2016-09-26T09:49:53Z</time>
      </trkpt>
      <trkpt lat="45.95635" lon="4.92506">
        <ele>294</ele>
        <time>2016-09-26T09:49:54Z</time>
      </trkpt>
      <trkpt lat="45.95636" lon="4.92498">
        <ele>293</ele>
        <time>2016-09-26T09:49:55Z</time>
      </trkpt>
      <trkpt lat="45.95637" lon="4.92491">
        <ele>293</ele>
        <time>2016-09-26T09:49:56Z</time>
      </trkpt>
      <trkpt lat="45.95638" lon="4.92483">
        <ele>293</ele>
        <time>2016-09-26T09:49:57Z</time>
      </trkpt>
      <trkpt lat="45.95639" lon="4.92475">
        <ele>293</ele>
        <time>2016-09-26T09:49:58Z</time>
      </trkpt>
      <trkpt lat="45.9564" lon="4.92467">
        <ele>293</ele>
        <time>2016-09-26T09:49:59Z</time>
      </trkpt>
      <trkpt lat="45.95641" lon="4.92459">
        <ele>293</ele>
        <time>2016-09-26T09:50:00Z</time>
      </trkpt>
      <trkpt lat="45.95643" lon="4.92453">
        <ele>293</ele>
        <time>2016-09-26T09:50:01Z</time>
      </trkpt>
      <trkpt lat="45.95645" lon="4.92446">
        <ele>293</ele>
        <time>2016-09-26T09:50:02Z</time>
      </trkpt>
      <trkpt lat="45.95646" lon="4.92438">
        <ele>293</ele>
        <time>2016-09-26T09:50:03Z</time>
      </trkpt>
      <trkpt lat="45.95647" lon="4.9243">
        <ele>293</ele>
        <time>2016-09-26T09:50:04Z</time>
      </trkpt>
      <trkpt lat="45.95648" lon="4.92423">
        <ele>293</ele>
        <time>2016-09-26T09:50:05Z</time>
      </trkpt>
      <trkpt lat="45.95649" lon="4.92414">
        <ele>293</ele>
        <time>2016-09-26T09:50:06Z</time>
      </trkpt>
      <trkpt lat="45.95651" lon="4.92406">
        <ele>293</ele>
        <time>2016-09-26T09:50:07Z</time>
      </trkpt>
      <trkpt lat="45.95652" lon="4.92398">
        <ele>293</ele>
        <time>2016-09-26T09:50:08Z</time>
      </trkpt>
      <trkpt lat="45.95653" lon="4.9239">
        <ele>293</ele>
        <time>2016-09-26T09:50:09Z</time>
      </trkpt>
      <trkpt lat="45.95653" lon="4.92382">
        <ele>293</ele>
        <time>2016-09-26T09:50:10Z</time>
      </trkpt>
      <trkpt lat="45.95654" lon="4.92375">
        <ele>293</ele>
        <time>2016-09-26T09:50:11Z</time>
      </trkpt>
      <trkpt lat="45.95655" lon="4.92367">
        <ele>293</ele>
        <time>2016-09-26T09:50:12Z</time>
      </trkpt>
      <trkpt lat="45.95656" lon="4.9236">
        <ele>293</ele>
        <time>2016-09-26T09:50:13Z</time>
      </trkpt>
      <trkpt lat="45.95656" lon="4.92352">
        <ele>293</ele>
        <time>2016-09-26T09:50:14Z</time>
      </trkpt>
      <trkpt lat="45.95657" lon="4.92345">
        <ele>293</ele>
        <time>2016-09-26T09:50:15Z</time>
      </trkpt>
      <trkpt lat="45.95657" lon="4.92337">
        <ele>293</ele>
        <time>2016-09-26T09:50:16Z</time>
      </trkpt>
      <trkpt lat="45.95657" lon="4.92329">
        <ele>293</ele>
        <time>2016-09-26T09:50:17Z</time>
      </trkpt>
      <trkpt lat="45.95658" lon="4.92322">
        <ele>293</ele>
        <time>2016-09-26T09:50:18Z</time>
      </trkpt>
      <trkpt lat="45.95659" lon="4.92315">
        <ele>293</ele>
        <time>2016-09-26T09:50:19Z</time>
      </trkpt>
      <trkpt lat="45.95659" lon="4.92307">
        <ele>293</ele>
        <time>2016-09-26T09:50:20Z</time>
      </trkpt>
      <trkpt lat="45.9566" lon="4.923">
        <ele>293</ele>
        <time>2016-09-26T09:50:21Z</time>
      </trkpt>
      <trkpt lat="45.95661" lon="4.92292">
        <ele>293</ele>
        <time>2016-09-26T09:50:22Z</time>
      </trkpt>
      <trkpt lat="45.95661" lon="4.92284">
        <ele>293</ele>
        <time>2016-09-26T09:50:23Z</time>
      </trkpt>
      <trkpt lat="45.95661" lon="4.92276">
        <ele>293</ele>
        <time>2016-09-26T09:50:24Z</time>
      </trkpt>
      <trkpt lat="45.95662" lon="4.92268">
        <ele>294</ele>
        <time>2016-09-26T09:50:25Z</time>
      </trkpt>
      <trkpt lat="45.95662" lon="4.9226">
        <ele>294</ele>
        <time>2016-09-26T09:50:26Z</time>
      </trkpt>
      <trkpt lat="45.95662" lon="4.92253">
        <ele>294</ele>
        <time>2016-09-26T09:50:27Z</time>
      </trkpt>
      <trkpt lat="45.95662" lon="4.92245">
        <ele>294</ele>
        <time>2016-09-26T09:50:28Z</time>
      </trkpt>
      <trkpt lat="45.95662" lon="4.92238">
        <ele>294</ele>
        <time>2016-09-26T09:50:29Z</time>
      </trkpt>
      <trkpt lat="45.95662" lon="4.92231">
        <ele>294</ele>
        <time>2016-09-26T09:50:30Z</time>
      </trkpt>
      <trkpt lat="45.95663" lon="4.92224">
        <ele>294</ele>
        <time>2016-09-26T09:50:31Z</time>
      </trkpt>
      <trkpt lat="45.95663" lon="4.92216">
        <ele>294</ele>
        <time>2016-09-26T09:50:32Z</time>
      </trkpt>
      <trkpt lat="45.95664" lon="4.92208">
        <ele>294</ele>
        <time>2016-09-26T09:50:33Z</time>
      </trkpt>
      <trkpt lat="45.95663" lon="4.922">
        <ele>295</ele>
        <time>2016-09-26T09:50:34Z</time>
      </trkpt>
      <trkpt lat="45.95664" lon="4.92192">
        <ele>295</ele>
        <time>2016-09-26T09:50:35Z</time>
      </trkpt>
      <trkpt lat="45.95663" lon="4.92185">
        <ele>295</ele>
        <time>2016-09-26T09:50:36Z</time>
      </trkpt>
      <trkpt lat="45.95663" lon="4.92178">
        <ele>296</ele>
        <time>2016-09-26T09:50:37Z</time>
      </trkpt>
      <trkpt lat="45.95663" lon="4.92171">
        <ele>296</ele>
        <time>2016-09-26T09:50:38Z</time>
      </trkpt>
      <trkpt lat="45.95663" lon="4.92159">
        <ele>296</ele>
        <time>2016-09-26T09:50:40Z</time>
      </trkpt>
      <trkpt lat="45.95663" lon="4.92152">
        <ele>296</ele>
        <time>2016-09-26T09:50:41Z</time>
      </trkpt>
      <trkpt lat="45.95664" lon="4.92145">
        <ele>296</ele>
        <time>2016-09-26T09:50:42Z</time>
      </trkpt>
      <trkpt lat="45.95664" lon="4.92139">
        <ele>296</ele>
        <time>2016-09-26T09:50:43Z</time>
      </trkpt>
      <trkpt lat="45.95665" lon="4.92131">
        <ele>296</ele>
        <time>2016-09-26T09:50:44Z</time>
      </trkpt>
      <trkpt lat="45.95665" lon="4.92124">
        <ele>296</ele>
        <time>2016-09-26T09:50:45Z</time>
      </trkpt>
      <trkpt lat="45.95666" lon="4.92117">
        <ele>296</ele>
        <time>2016-09-26T09:50:46Z</time>
      </trkpt>
      <trkpt lat="45.95667" lon="4.92109">
        <ele>300</ele>
        <time>2016-09-26T09:50:47Z</time>
      </trkpt>
      <trkpt lat="45.95668" lon="4.92101">
        <ele>300</ele>
        <time>2016-09-26T09:50:48Z</time>
      </trkpt>
      <trkpt lat="45.95669" lon="4.92096">
        <ele>299</ele>
        <time>2016-09-26T09:50:49Z</time>
      </trkpt>
      <trkpt lat="45.9567" lon="4.92089">
        <ele>299</ele>
        <time>2016-09-26T09:50:50Z</time>
      </trkpt>
      <trkpt lat="45.95671" lon="4.92081">
        <ele>299</ele>
        <time>2016-09-26T09:50:51Z</time>
      </trkpt>
      <trkpt lat="45.95672" lon="4.92074">
        <ele>300</ele>
        <time>2016-09-26T09:50:52Z</time>
      </trkpt>
      <trkpt lat="45.95672" lon="4.92066">
        <ele>300</ele>
        <time>2016-09-26T09:50:53Z</time>
      </trkpt>
      <trkpt lat="45.95673" lon="4.92058">
        <ele>300</ele>
        <time>2016-09-26T09:50:54Z</time>
      </trkpt>
      <trkpt lat="45.95676" lon="4.92049">
        <ele>300</ele>
        <time>2016-09-26T09:50:55Z</time>
      </trkpt>
      <trkpt lat="45.95678" lon="4.92041">
        <ele>300</ele>
        <time>2016-09-26T09:50:56Z</time>
      </trkpt>
      <trkpt lat="45.95681" lon="4.92033">
        <ele>300</ele>
        <time>2016-09-26T09:50:57Z</time>
      </trkpt>
      <trkpt lat="45.95683" lon="4.92026">
        <ele>300</ele>
        <time>2016-09-26T09:50:58Z</time>
      </trkpt>
      <trkpt lat="45.95686" lon="4.92019">
        <ele>300</ele>
        <time>2016-09-26T09:50:59Z</time>
      </trkpt>
      <trkpt lat="45.95689" lon="4.92013">
        <ele>300</ele>
        <time>2016-09-26T09:51:00Z</time>
      </trkpt>
      <trkpt lat="45.95692" lon="4.92008">
        <ele>300</ele>
        <time>2016-09-26T09:51:01Z</time>
      </trkpt>
      <trkpt lat="45.95694" lon="4.92002">
        <ele>300</ele>
        <time>2016-09-26T09:51:02Z</time>
      </trkpt>
      <trkpt lat="45.95697" lon="4.91997">
        <ele>299</ele>
        <time>2016-09-26T09:51:03Z</time>
      </trkpt>
      <trkpt lat="45.95702" lon="4.91988">
        <ele>300</ele>
        <time>2016-09-26T09:51:05Z</time>
      </trkpt>
      <trkpt lat="45.95705" lon="4.91981">
        <ele>300</ele>
        <time>2016-09-26T09:51:06Z</time>
      </trkpt>
      <trkpt lat="45.95709" lon="4.91973">
        <ele>300</ele>
        <time>2016-09-26T09:51:08Z</time>
      </trkpt>
      <trkpt lat="45.95712" lon="4.91968">
        <ele>300</ele>
        <time>2016-09-26T09:51:09Z</time>
      </trkpt>
      <trkpt lat="45.95714" lon="4.91962">
        <ele>300</ele>
        <time>2016-09-26T09:51:10Z</time>
      </trkpt>
      <trkpt lat="45.95718" lon="4.91957">
        <ele>300</ele>
        <time>2016-09-26T09:51:11Z</time>
      </trkpt>
      <trkpt lat="45.95724" lon="4.91948">
        <ele>300</ele>
        <time>2016-09-26T09:51:13Z</time>
      </trkpt>
      <trkpt lat="45.95727" lon="4.91943">
        <ele>300</ele>
        <time>2016-09-26T09:51:14Z</time>
      </trkpt>
      <trkpt lat="45.95731" lon="4.91937">
        <ele>300</ele>
        <time>2016-09-26T09:51:15Z</time>
      </trkpt>
      <trkpt lat="45.95735" lon="4.91932">
        <ele>300</ele>
        <time>2016-09-26T09:51:16Z</time>
      </trkpt>
      <trkpt lat="45.95742" lon="4.91924">
        <ele>300</ele>
        <time>2016-09-26T09:51:18Z</time>
      </trkpt>
      <trkpt lat="45.95745" lon="4.91918">
        <ele>301</ele>
        <time>2016-09-26T09:51:19Z</time>
      </trkpt>
      <trkpt lat="45.95749" lon="4.91911">
        <ele>300</ele>
        <time>2016-09-26T09:51:20Z</time>
      </trkpt>
      <trkpt lat="45.95753" lon="4.91904">
        <ele>301</ele>
        <time>2016-09-26T09:51:21Z</time>
      </trkpt>
      <trkpt lat="45.95756" lon="4.91898">
        <ele>301</ele>
        <time>2016-09-26T09:51:22Z</time>
      </trkpt>
      <trkpt lat="45.95759" lon="4.91892">
        <ele>301</ele>
        <time>2016-09-26T09:51:23Z</time>
      </trkpt>
      <trkpt lat="45.95764" lon="4.91883">
        <ele>301</ele>
        <time>2016-09-26T09:51:24Z</time>
      </trkpt>
      <trkpt lat="45.95767" lon="4.91877">
        <ele>300</ele>
        <time>2016-09-26T09:51:25Z</time>
      </trkpt>
      <trkpt lat="45.95772" lon="4.91869">
        <ele>300</ele>
        <time>2016-09-26T09:51:26Z</time>
      </trkpt>
      <trkpt lat="45.95776" lon="4.91863">
        <ele>300</ele>
        <time>2016-09-26T09:51:27Z</time>
      </trkpt>
      <trkpt lat="45.95779" lon="4.91855">
        <ele>300</ele>
        <time>2016-09-26T09:51:28Z</time>
      </trkpt>
      <trkpt lat="45.95783" lon="4.91848">
        <ele>300</ele>
        <time>2016-09-26T09:51:29Z</time>
      </trkpt>
      <trkpt lat="45.95786" lon="4.91841">
        <ele>300</ele>
        <time>2016-09-26T09:51:30Z</time>
      </trkpt>
      <trkpt lat="45.95789" lon="4.91836">
        <ele>301</ele>
        <time>2016-09-26T09:51:31Z</time>
      </trkpt>
      <trkpt lat="45.95791" lon="4.9183">
        <ele>300</ele>
        <time>2016-09-26T09:51:32Z</time>
      </trkpt>
      <trkpt lat="45.95794" lon="4.91824">
        <ele>300</ele>
        <time>2016-09-26T09:51:33Z</time>
      </trkpt>
      <trkpt lat="45.95797" lon="4.91818">
        <ele>301</ele>
        <time>2016-09-26T09:51:34Z</time>
      </trkpt>
      <trkpt lat="45.95799" lon="4.91812">
        <ele>301</ele>
        <time>2016-09-26T09:51:35Z</time>
      </trkpt>
      <trkpt lat="45.95802" lon="4.91807">
        <ele>301</ele>
        <time>2016-09-26T09:51:36Z</time>
      </trkpt>
      <trkpt lat="45.95805" lon="4.91802">
        <ele>301</ele>
        <time>2016-09-26T09:51:37Z</time>
      </trkpt>
      <trkpt lat="45.95811" lon="4.91793">
        <ele>301</ele>
        <time>2016-09-26T09:51:39Z</time>
      </trkpt>
      <trkpt lat="45.95813" lon="4.91788">
        <ele>301</ele>
        <time>2016-09-26T09:51:40Z</time>
      </trkpt>
      <trkpt lat="45.95817" lon="4.91781">
        <ele>301</ele>
        <time>2016-09-26T09:51:42Z</time>
      </trkpt>
      <trkpt lat="45.9582" lon="4.91776">
        <ele>301</ele>
        <time>2016-09-26T09:51:43Z</time>
      </trkpt>
      <trkpt lat="45.95824" lon="4.91766">
        <ele>302</ele>
        <time>2016-09-26T09:51:45Z</time>
      </trkpt>
      <trkpt lat="45.95827" lon="4.91762">
        <ele>302</ele>
        <time>2016-09-26T09:51:46Z</time>
      </trkpt>
      <trkpt lat="45.95833" lon="4.91754">
        <ele>303</ele>
        <time>2016-09-26T09:51:48Z</time>
      </trkpt>
      <trkpt lat="45.95835" lon="4.91749">
        <ele>303</ele>
        <time>2016-09-26T09:51:49Z</time>
      </trkpt>
      <trkpt lat="45.95839" lon="4.91739">
        <ele>303</ele>
        <time>2016-09-26T09:51:51Z</time>
      </trkpt>
      <trkpt lat="45.95839" lon="4.91733">
        <ele>303</ele>
        <time>2016-09-26T09:51:52Z</time>
      </trkpt>
      <trkpt lat="45.9584" lon="4.91725">
        <ele>303</ele>
        <time>2016-09-26T09:51:53Z</time>
      </trkpt>
      <trkpt lat="45.95841" lon="4.91717">
        <ele>302</ele>
        <time>2016-09-26T09:51:54Z</time>
      </trkpt>
      <trkpt lat="45.95842" lon="4.91709">
        <ele>302</ele>
        <time>2016-09-26T09:51:55Z</time>
      </trkpt>
      <trkpt lat="45.95843" lon="4.917">
        <ele>302</ele>
        <time>2016-09-26T09:51:56Z</time>
      </trkpt>
      <trkpt lat="45.95845" lon="4.9169">
        <ele>302</ele>
        <time>2016-09-26T09:51:57Z</time>
      </trkpt>
      <trkpt lat="45.95845" lon="4.91681">
        <ele>302</ele>
        <time>2016-09-26T09:51:58Z</time>
      </trkpt>
      <trkpt lat="45.95847" lon="4.91672">
        <ele>302</ele>
        <time>2016-09-26T09:51:59Z</time>
      </trkpt>
      <trkpt lat="45.95848" lon="4.91662">
        <ele>301</ele>
        <time>2016-09-26T09:52:00Z</time>
      </trkpt>
      <trkpt lat="45.95849" lon="4.91654">
        <ele>301</ele>
        <time>2016-09-26T09:52:01Z</time>
      </trkpt>
      <trkpt lat="45.9585" lon="4.91647">
        <ele>301</ele>
        <time>2016-09-26T09:52:02Z</time>
      </trkpt>
      <trkpt lat="45.95851" lon="4.9164">
        <ele>301</ele>
        <time>2016-09-26T09:52:03Z</time>
      </trkpt>
      <trkpt lat="45.95852" lon="4.91633">
        <ele>301</ele>
        <time>2016-09-26T09:52:04Z</time>
      </trkpt>
      <trkpt lat="45.95852" lon="4.91625">
        <ele>301</ele>
        <time>2016-09-26T09:52:05Z</time>
      </trkpt>
      <trkpt lat="45.95853" lon="4.91616">
        <ele>301</ele>
        <time>2016-09-26T09:52:06Z</time>
      </trkpt>
      <trkpt lat="45.95854" lon="4.91607">
        <ele>301</ele>
        <time>2016-09-26T09:52:07Z</time>
      </trkpt>
      <trkpt lat="45.95854" lon="4.91598">
        <ele>301</ele>
        <time>2016-09-26T09:52:08Z</time>
      </trkpt>
      <trkpt lat="45.95855" lon="4.9159">
        <ele>301</ele>
        <time>2016-09-26T09:52:09Z</time>
      </trkpt>
      <trkpt lat="45.95854" lon="4.91582">
        <ele>300</ele>
        <time>2016-09-26T09:52:10Z</time>
      </trkpt>
      <trkpt lat="45.95854" lon="4.91573">
        <ele>300</ele>
        <time>2016-09-26T09:52:11Z</time>
      </trkpt>
      <trkpt lat="45.95854" lon="4.91564">
        <ele>300</ele>
        <time>2016-09-26T09:52:12Z</time>
      </trkpt>
      <trkpt lat="45.95854" lon="4.91556">
        <ele>300</ele>
        <time>2016-09-26T09:52:13Z</time>
      </trkpt>
      <trkpt lat="45.95854" lon="4.91548">
        <ele>300</ele>
        <time>2016-09-26T09:52:14Z</time>
      </trkpt>
      <trkpt lat="45.95855" lon="4.91541">
        <ele>300</ele>
        <time>2016-09-26T09:52:15Z</time>
      </trkpt>
      <trkpt lat="45.95855" lon="4.91533">
        <ele>300</ele>
        <time>2016-09-26T09:52:16Z</time>
      </trkpt>
      <trkpt lat="45.95856" lon="4.91526">
        <ele>300</ele>
        <time>2016-09-26T09:52:17Z</time>
      </trkpt>
      <trkpt lat="45.95857" lon="4.91518">
        <ele>300</ele>
        <time>2016-09-26T09:52:18Z</time>
      </trkpt>
      <trkpt lat="45.95858" lon="4.9151">
        <ele>300</ele>
        <time>2016-09-26T09:52:19Z</time>
      </trkpt>
      <trkpt lat="45.95859" lon="4.91503">
        <ele>300</ele>
        <time>2016-09-26T09:52:20Z</time>
      </trkpt>
      <trkpt lat="45.95859" lon="4.91496">
        <ele>299</ele>
        <time>2016-09-26T09:52:21Z</time>
      </trkpt>
      <trkpt lat="45.95859" lon="4.91487">
        <ele>299</ele>
        <time>2016-09-26T09:52:22Z</time>
      </trkpt>
      <trkpt lat="45.95859" lon="4.9148">
        <ele>299</ele>
        <time>2016-09-26T09:52:23Z</time>
      </trkpt>
      <trkpt lat="45.9586" lon="4.91472">
        <ele>299</ele>
        <time>2016-09-26T09:52:24Z</time>
      </trkpt>
      <trkpt lat="45.9586" lon="4.91464">
        <ele>299</ele>
        <time>2016-09-26T09:52:25Z</time>
      </trkpt>
      <trkpt lat="45.95861" lon="4.91457">
        <ele>299</ele>
        <time>2016-09-26T09:52:26Z</time>
      </trkpt>
      <trkpt lat="45.95861" lon="4.91449">
        <ele>299</ele>
        <time>2016-09-26T09:52:27Z</time>
      </trkpt>
      <trkpt lat="45.95859" lon="4.91436">
        <ele>298</ele>
        <time>2016-09-26T09:52:28Z</time>
      </trkpt>
      <trkpt lat="45.95859" lon="4.91427">
        <ele>298</ele>
        <time>2016-09-26T09:52:29Z</time>
      </trkpt>
      <trkpt lat="45.95859" lon="4.91419">
        <ele>298</ele>
        <time>2016-09-26T09:52:30Z</time>
      </trkpt>
      <trkpt lat="45.95859" lon="4.91411">
        <ele>298</ele>
        <time>2016-09-26T09:52:31Z</time>
      </trkpt>
      <trkpt lat="45.9586" lon="4.91401">
        <ele>298</ele>
        <time>2016-09-26T09:52:32Z</time>
      </trkpt>
      <trkpt lat="45.95862" lon="4.91391">
        <ele>298</ele>
        <time>2016-09-26T09:52:33Z</time>
      </trkpt>
      <trkpt lat="45.95863" lon="4.91382">
        <ele>298</ele>
        <time>2016-09-26T09:52:34Z</time>
      </trkpt>
      <trkpt lat="45.95864" lon="4.91372">
        <ele>298</ele>
        <time>2016-09-26T09:52:35Z</time>
      </trkpt>
      <trkpt lat="45.95865" lon="4.91362">
        <ele>298</ele>
        <time>2016-09-26T09:52:36Z</time>
      </trkpt>
      <trkpt lat="45.95865" lon="4.91355">
        <ele>298</ele>
        <time>2016-09-26T09:52:37Z</time>
      </trkpt>
      <trkpt lat="45.95865" lon="4.91348">
        <ele>298</ele>
        <time>2016-09-26T09:52:38Z</time>
      </trkpt>
      <trkpt lat="45.95865" lon="4.9134">
        <ele>298</ele>
        <time>2016-09-26T09:52:39Z</time>
      </trkpt>
      <trkpt lat="45.95866" lon="4.91333">
        <ele>298</ele>
        <time>2016-09-26T09:52:40Z</time>
      </trkpt>
      <trkpt lat="45.95866" lon="4.91325">
        <ele>298</ele>
        <time>2016-09-26T09:52:41Z</time>
      </trkpt>
      <trkpt lat="45.95867" lon="4.91318">
        <ele>298</ele>
        <time>2016-09-26T09:52:42Z</time>
      </trkpt>
      <trkpt lat="45.95868" lon="4.91311">
        <ele>298</ele>
        <time>2016-09-26T09:52:43Z</time>
      </trkpt>
      <trkpt lat="45.95868" lon="4.91305">
        <ele>298</ele>
        <time>2016-09-26T09:52:44Z</time>
      </trkpt>
      <trkpt lat="45.95868" lon="4.91298">
        <ele>298</ele>
        <time>2016-09-26T09:52:45Z</time>
      </trkpt>
      <trkpt lat="45.95867" lon="4.91291">
        <ele>298</ele>
        <time>2016-09-26T09:52:46Z</time>
      </trkpt>
      <trkpt lat="45.95866" lon="4.91283">
        <ele>298</ele>
        <time>2016-09-26T09:52:47Z</time>
      </trkpt>
      <trkpt lat="45.95866" lon="4.91275">
        <ele>298</ele>
        <time>2016-09-26T09:52:48Z</time>
      </trkpt>
      <trkpt lat="45.95867" lon="4.91267">
        <ele>298</ele>
        <time>2016-09-26T09:52:49Z</time>
      </trkpt>
      <trkpt lat="45.95867" lon="4.91258">
        <ele>297</ele>
        <time>2016-09-26T09:52:50Z</time>
      </trkpt>
      <trkpt lat="45.95867" lon="4.91249">
        <ele>297</ele>
        <time>2016-09-26T09:52:51Z</time>
      </trkpt>
      <trkpt lat="45.95868" lon="4.9124">
        <ele>297</ele>
        <time>2016-09-26T09:52:52Z</time>
      </trkpt>
      <trkpt lat="45.95868" lon="4.91231">
        <ele>297</ele>
        <time>2016-09-26T09:52:53Z</time>
      </trkpt>
      <trkpt lat="45.95869" lon="4.91222">
        <ele>297</ele>
        <time>2016-09-26T09:52:54Z</time>
      </trkpt>
      <trkpt lat="45.9587" lon="4.91214">
        <ele>297</ele>
        <time>2016-09-26T09:52:55Z</time>
      </trkpt>
      <trkpt lat="45.9587" lon="4.91204">
        <ele>297</ele>
        <time>2016-09-26T09:52:56Z</time>
      </trkpt>
      <trkpt lat="45.95871" lon="4.91195">
        <ele>297</ele>
        <time>2016-09-26T09:52:57Z</time>
      </trkpt>
      <trkpt lat="45.95871" lon="4.91187">
        <ele>297</ele>
        <time>2016-09-26T09:52:58Z</time>
      </trkpt>
      <trkpt lat="45.95871" lon="4.91179">
        <ele>297</ele>
        <time>2016-09-26T09:52:59Z</time>
      </trkpt>
      <trkpt lat="45.95872" lon="4.91171">
        <ele>297</ele>
        <time>2016-09-26T09:53:00Z</time>
      </trkpt>
      <trkpt lat="45.95872" lon="4.91163">
        <ele>297</ele>
        <time>2016-09-26T09:53:01Z</time>
      </trkpt>
      <trkpt lat="45.95873" lon="4.91155">
        <ele>297</ele>
        <time>2016-09-26T09:53:02Z</time>
      </trkpt>
      <trkpt lat="45.95873" lon="4.91147">
        <ele>297</ele>
        <time>2016-09-26T09:53:03Z</time>
      </trkpt>
      <trkpt lat="45.95872" lon="4.91141">
        <ele>298</ele>
        <time>2016-09-26T09:53:04Z</time>
      </trkpt>
      <trkpt lat="45.95873" lon="4.91128">
        <ele>298</ele>
        <time>2016-09-26T09:53:06Z</time>
      </trkpt>
      <trkpt lat="45.95873" lon="4.9112">
        <ele>298</ele>
        <time>2016-09-26T09:53:07Z</time>
      </trkpt>
      <trkpt lat="45.95873" lon="4.91111">
        <ele>298</ele>
        <time>2016-09-26T09:53:08Z</time>
      </trkpt>
      <trkpt lat="45.95874" lon="4.91104">
        <ele>298</ele>
        <time>2016-09-26T09:53:09Z</time>
      </trkpt>
      <trkpt lat="45.95874" lon="4.91097">
        <ele>298</ele>
        <time>2016-09-26T09:53:10Z</time>
      </trkpt>
      <trkpt lat="45.95874" lon="4.9109">
        <ele>298</ele>
        <time>2016-09-26T09:53:11Z</time>
      </trkpt>
      <trkpt lat="45.95875" lon="4.91082">
        <ele>297</ele>
        <time>2016-09-26T09:53:12Z</time>
      </trkpt>
      <trkpt lat="45.95877" lon="4.91074">
        <ele>297</ele>
        <time>2016-09-26T09:53:13Z</time>
      </trkpt>
      <trkpt lat="45.95878" lon="4.91066">
        <ele>297</ele>
        <time>2016-09-26T09:53:14Z</time>
      </trkpt>
      <trkpt lat="45.95878" lon="4.91056">
        <ele>297</ele>
        <time>2016-09-26T09:53:15Z</time>
      </trkpt>
      <trkpt lat="45.9588" lon="4.91046">
        <ele>297</ele>
        <time>2016-09-26T09:53:16Z</time>
      </trkpt>
      <trkpt lat="45.95883" lon="4.91032">
        <ele>297</ele>
        <time>2016-09-26T09:53:17Z</time>
      </trkpt>
      <trkpt lat="45.95884" lon="4.91019">
        <ele>296</ele>
        <time>2016-09-26T09:53:18Z</time>
      </trkpt>
      <trkpt lat="45.95886" lon="4.91009">
        <ele>296</ele>
        <time>2016-09-26T09:53:19Z</time>
      </trkpt>
      <trkpt lat="45.95887" lon="4.91">
        <ele>296</ele>
        <time>2016-09-26T09:53:20Z</time>
      </trkpt>
      <trkpt lat="45.95888" lon="4.90992">
        <ele>294</ele>
        <time>2016-09-26T09:53:21Z</time>
      </trkpt>
      <trkpt lat="45.95888" lon="4.90983">
        <ele>294</ele>
        <time>2016-09-26T09:53:22Z</time>
      </trkpt>
      <trkpt lat="45.95888" lon="4.90974">
        <ele>294</ele>
        <time>2016-09-26T09:53:23Z</time>
      </trkpt>
      <trkpt lat="45.95888" lon="4.90966">
        <ele>293</ele>
        <time>2016-09-26T09:53:24Z</time>
      </trkpt>
      <trkpt lat="45.95887" lon="4.90957">
        <ele>293</ele>
        <time>2016-09-26T09:53:25Z</time>
      </trkpt>
      <trkpt lat="45.95887" lon="4.90948">
        <ele>293</ele>
        <time>2016-09-26T09:53:26Z</time>
      </trkpt>
      <trkpt lat="45.95887" lon="4.9094">
        <ele>293</ele>
        <time>2016-09-26T09:53:27Z</time>
      </trkpt>
      <trkpt lat="45.95887" lon="4.90932">
        <ele>293</ele>
        <time>2016-09-26T09:53:28Z</time>
      </trkpt>
      <trkpt lat="45.95887" lon="4.90924">
        <ele>293</ele>
        <time>2016-09-26T09:53:29Z</time>
      </trkpt>
      <trkpt lat="45.95887" lon="4.90914">
        <ele>291</ele>
        <time>2016-09-26T09:53:30Z</time>
      </trkpt>
      <trkpt lat="45.95887" lon="4.90905">
        <ele>291</ele>
        <time>2016-09-26T09:53:31Z</time>
      </trkpt>
      <trkpt lat="45.95887" lon="4.90897">
        <ele>291</ele>
        <time>2016-09-26T09:53:32Z</time>
      </trkpt>
      <trkpt lat="45.95887" lon="4.90889">
        <ele>292</ele>
        <time>2016-09-26T09:53:33Z</time>
      </trkpt>
      <trkpt lat="45.95887" lon="4.9088">
        <ele>292</ele>
        <time>2016-09-26T09:53:34Z</time>
      </trkpt>
      <trkpt lat="45.95888" lon="4.90872">
        <ele>291</ele>
        <time>2016-09-26T09:53:35Z</time>
      </trkpt>
      <trkpt lat="45.95887" lon="4.90863">
        <ele>291</ele>
        <time>2016-09-26T09:53:36Z</time>
      </trkpt>
      <trkpt lat="45.95886" lon="4.90853">
        <ele>291</ele>
        <time>2016-09-26T09:53:37Z</time>
      </trkpt>
      <trkpt lat="45.95886" lon="4.90844">
        <ele>291</ele>
        <time>2016-09-26T09:53:38Z</time>
      </trkpt>
      <trkpt lat="45.95885" lon="4.90834">
        <ele>291</ele>
        <time>2016-09-26T09:53:39Z</time>
      </trkpt>
      <trkpt lat="45.95885" lon="4.90825">
        <ele>291</ele>
        <time>2016-09-26T09:53:40Z</time>
      </trkpt>
      <trkpt lat="45.95885" lon="4.90816">
        <ele>291</ele>
        <time>2016-09-26T09:53:41Z</time>
      </trkpt>
      <trkpt lat="45.95884" lon="4.90807">
        <ele>291</ele>
        <time>2016-09-26T09:53:42Z</time>
      </trkpt>
      <trkpt lat="45.95885" lon="4.90798">
        <ele>291</ele>
        <time>2016-09-26T09:53:43Z</time>
      </trkpt>
      <trkpt lat="45.95884" lon="4.9079">
        <ele>291</ele>
        <time>2016-09-26T09:53:44Z</time>
      </trkpt>
      <trkpt lat="45.95884" lon="4.90782">
        <ele>291</ele>
        <time>2016-09-26T09:53:45Z</time>
      </trkpt>
      <trkpt lat="45.95883" lon="4.90775">
        <ele>291</ele>
        <time>2016-09-26T09:53:46Z</time>
      </trkpt>
      <trkpt lat="45.95882" lon="4.90767">
        <ele>291</ele>
        <time>2016-09-26T09:53:47Z</time>
      </trkpt>
      <trkpt lat="45.95882" lon="4.9076">
        <ele>291</ele>
        <time>2016-09-26T09:53:48Z</time>
      </trkpt>
      <trkpt lat="45.95883" lon="4.90752">
        <ele>291</ele>
        <time>2016-09-26T09:53:49Z</time>
      </trkpt>
      <trkpt lat="45.95884" lon="4.90744">
        <ele>291</ele>
        <time>2016-09-26T09:53:50Z</time>
      </trkpt>
      <trkpt lat="45.95883" lon="4.90736">
        <ele>292</ele>
        <time>2016-09-26T09:53:51Z</time>
      </trkpt>
      <trkpt lat="45.95883" lon="4.90728">
        <ele>292</ele>
        <time>2016-09-26T09:53:52Z</time>
      </trkpt>
      <trkpt lat="45.95883" lon="4.9072">
        <ele>292</ele>
        <time>2016-09-26T09:53:53Z</time>
      </trkpt>
      <trkpt lat="45.95883" lon="4.90712">
        <ele>292</ele>
        <time>2016-09-26T09:53:54Z</time>
      </trkpt>
      <trkpt lat="45.95883" lon="4.90705">
        <ele>292</ele>
        <time>2016-09-26T09:53:55Z</time>
      </trkpt>
      <trkpt lat="45.95883" lon="4.90697">
        <ele>292</ele>
        <time>2016-09-26T09:53:56Z</time>
      </trkpt>
      <trkpt lat="45.95883" lon="4.90689">
        <ele>292</ele>
        <time>2016-09-26T09:53:57Z</time>
      </trkpt>
      <trkpt lat="45.95883" lon="4.90681">
        <ele>292</ele>
        <time>2016-09-26T09:53:58Z</time>
      </trkpt>
      <trkpt lat="45.95883" lon="4.90673">
        <ele>292</ele>
        <time>2016-09-26T09:53:59Z</time>
      </trkpt>
      <trkpt lat="45.95883" lon="4.90665">
        <ele>293</ele>
        <time>2016-09-26T09:54:00Z</time>
      </trkpt>
      <trkpt lat="45.95882" lon="4.90657">
        <ele>293</ele>
        <time>2016-09-26T09:54:01Z</time>
      </trkpt>
      <trkpt lat="45.95882" lon="4.9065">
        <ele>293</ele>
        <time>2016-09-26T09:54:02Z</time>
      </trkpt>
      <trkpt lat="45.95883" lon="4.90642">
        <ele>293</ele>
        <time>2016-09-26T09:54:03Z</time>
      </trkpt>
      <trkpt lat="45.95883" lon="4.90634">
        <ele>293</ele>
        <time>2016-09-26T09:54:04Z</time>
      </trkpt>
      <trkpt lat="45.95883" lon="4.90626">
        <ele>293</ele>
        <time>2016-09-26T09:54:05Z</time>
      </trkpt>
      <trkpt lat="45.95884" lon="4.90619">
        <ele>293</ele>
        <time>2016-09-26T09:54:06Z</time>
      </trkpt>
      <trkpt lat="45.95884" lon="4.90611">
        <ele>293</ele>
        <time>2016-09-26T09:54:07Z</time>
      </trkpt>
      <trkpt lat="45.95883" lon="4.90603">
        <ele>293</ele>
        <time>2016-09-26T09:54:08Z</time>
      </trkpt>
      <trkpt lat="45.95883" lon="4.90595">
        <ele>293</ele>
        <time>2016-09-26T09:54:09Z</time>
      </trkpt>
      <trkpt lat="45.95884" lon="4.90587">
        <ele>293</ele>
        <time>2016-09-26T09:54:10Z</time>
      </trkpt>
      <trkpt lat="45.95884" lon="4.90579">
        <ele>292</ele>
        <time>2016-09-26T09:54:11Z</time>
      </trkpt>
      <trkpt lat="45.95884" lon="4.9057">
        <ele>292</ele>
        <time>2016-09-26T09:54:12Z</time>
      </trkpt>
      <trkpt lat="45.95884" lon="4.90562">
        <ele>292</ele>
        <time>2016-09-26T09:54:13Z</time>
      </trkpt>
      <trkpt lat="45.95885" lon="4.90554">
        <ele>292</ele>
        <time>2016-09-26T09:54:14Z</time>
      </trkpt>
      <trkpt lat="45.95885" lon="4.90546">
        <ele>292</ele>
        <time>2016-09-26T09:54:15Z</time>
      </trkpt>
      <trkpt lat="45.95886" lon="4.90538">
        <ele>292</ele>
        <time>2016-09-26T09:54:16Z</time>
      </trkpt>
      <trkpt lat="45.95886" lon="4.9053">
        <ele>292</ele>
        <time>2016-09-26T09:54:17Z</time>
      </trkpt>
      <trkpt lat="45.95886" lon="4.90522">
        <ele>292</ele>
        <time>2016-09-26T09:54:18Z</time>
      </trkpt>
      <trkpt lat="45.95885" lon="4.90515">
        <ele>292</ele>
        <time>2016-09-26T09:54:19Z</time>
      </trkpt>
      <trkpt lat="45.95886" lon="4.90508">
        <ele>292</ele>
        <time>2016-09-26T09:54:20Z</time>
      </trkpt>
      <trkpt lat="45.95886" lon="4.90501">
        <ele>292</ele>
        <time>2016-09-26T09:54:21Z</time>
      </trkpt>
      <trkpt lat="45.95887" lon="4.90494">
        <ele>292</ele>
        <time>2016-09-26T09:54:22Z</time>
      </trkpt>
      <trkpt lat="45.95887" lon="4.90487">
        <ele>292</ele>
        <time>2016-09-26T09:54:23Z</time>
      </trkpt>
      <trkpt lat="45.95887" lon="4.90479">
        <ele>292</ele>
        <time>2016-09-26T09:54:24Z</time>
      </trkpt>
      <trkpt lat="45.95888" lon="4.90471">
        <ele>292</ele>
        <time>2016-09-26T09:54:25Z</time>
      </trkpt>
      <trkpt lat="45.95889" lon="4.90464">
        <ele>292</ele>
        <time>2016-09-26T09:54:26Z</time>
      </trkpt>
      <trkpt lat="45.95889" lon="4.90456">
        <ele>292</ele>
        <time>2016-09-26T09:54:27Z</time>
      </trkpt>
      <trkpt lat="45.95889" lon="4.90449">
        <ele>292</ele>
        <time>2016-09-26T09:54:28Z</time>
      </trkpt>
      <trkpt lat="45.95889" lon="4.90442">
        <ele>292</ele>
        <time>2016-09-26T09:54:29Z</time>
      </trkpt>
      <trkpt lat="45.95889" lon="4.90434">
        <ele>292</ele>
        <time>2016-09-26T09:54:30Z</time>
      </trkpt>
      <trkpt lat="45.95889" lon="4.90426">
        <ele>292</ele>
        <time>2016-09-26T09:54:31Z</time>
      </trkpt>
      <trkpt lat="45.95889" lon="4.90418">
        <ele>292</ele>
        <time>2016-09-26T09:54:32Z</time>
      </trkpt>
      <trkpt lat="45.95889" lon="4.90409">
        <ele>292</ele>
        <time>2016-09-26T09:54:33Z</time>
      </trkpt>
      <trkpt lat="45.95889" lon="4.90401">
        <ele>292</ele>
        <time>2016-09-26T09:54:34Z</time>
      </trkpt>
      <trkpt lat="45.95889" lon="4.90393">
        <ele>292</ele>
        <time>2016-09-26T09:54:35Z</time>
      </trkpt>
      <trkpt lat="45.9589" lon="4.90385">
        <ele>292</ele>
        <time>2016-09-26T09:54:36Z</time>
      </trkpt>
      <trkpt lat="45.95891" lon="4.90377">
        <ele>292</ele>
        <time>2016-09-26T09:54:37Z</time>
      </trkpt>
      <trkpt lat="45.95891" lon="4.90368">
        <ele>292</ele>
        <time>2016-09-26T09:54:38Z</time>
      </trkpt>
      <trkpt lat="45.95892" lon="4.90359">
        <ele>292</ele>
        <time>2016-09-26T09:54:39Z</time>
      </trkpt>
      <trkpt lat="45.95892" lon="4.9035">
        <ele>292</ele>
        <time>2016-09-26T09:54:40Z</time>
      </trkpt>
      <trkpt lat="45.95892" lon="4.90342">
        <ele>292</ele>
        <time>2016-09-26T09:54:41Z</time>
      </trkpt>
      <trkpt lat="45.95892" lon="4.90334">
        <ele>292</ele>
        <time>2016-09-26T09:54:42Z</time>
      </trkpt>
      <trkpt lat="45.95893" lon="4.90325">
        <ele>292</ele>
        <time>2016-09-26T09:54:43Z</time>
      </trkpt>
      <trkpt lat="45.95893" lon="4.90317">
        <ele>292</ele>
        <time>2016-09-26T09:54:44Z</time>
      </trkpt>
      <trkpt lat="45.95893" lon="4.90309">
        <ele>292</ele>
        <time>2016-09-26T09:54:45Z</time>
      </trkpt>
      <trkpt lat="45.95893" lon="4.90301">
        <ele>292</ele>
        <time>2016-09-26T09:54:46Z</time>
      </trkpt>
      <trkpt lat="45.95893" lon="4.90292">
        <ele>292</ele>
        <time>2016-09-26T09:54:47Z</time>
      </trkpt>
      <trkpt lat="45.95894" lon="4.90284">
        <ele>292</ele>
        <time>2016-09-26T09:54:48Z</time>
      </trkpt>
      <trkpt lat="45.95894" lon="4.90277">
        <ele>292</ele>
        <time>2016-09-26T09:54:49Z</time>
      </trkpt>
      <trkpt lat="45.95895" lon="4.90268">
        <ele>292</ele>
        <time>2016-09-26T09:54:50Z</time>
      </trkpt>
      <trkpt lat="45.95895" lon="4.9026">
        <ele>292</ele>
        <time>2016-09-26T09:54:51Z</time>
      </trkpt>
      <trkpt lat="45.95896" lon="4.90251">
        <ele>292</ele>
        <time>2016-09-26T09:54:52Z</time>
      </trkpt>
      <trkpt lat="45.95895" lon="4.90242">
        <ele>292</ele>
        <time>2016-09-26T09:54:53Z</time>
      </trkpt>
      <trkpt lat="45.95896" lon="4.90233">
        <ele>292</ele>
        <time>2016-09-26T09:54:54Z</time>
      </trkpt>
      <trkpt lat="45.95896" lon="4.90225">
        <ele>292</ele>
        <time>2016-09-26T09:54:55Z</time>
      </trkpt>
      <trkpt lat="45.95896" lon="4.90215">
        <ele>291</ele>
        <time>2016-09-26T09:54:56Z</time>
      </trkpt>
      <trkpt lat="45.95896" lon="4.90205">
        <ele>291</ele>
        <time>2016-09-26T09:54:57Z</time>
      </trkpt>
      <trkpt lat="45.95897" lon="4.90195">
        <ele>291</ele>
        <time>2016-09-26T09:54:58Z</time>
      </trkpt>
      <trkpt lat="45.95897" lon="4.90186">
        <ele>291</ele>
        <time>2016-09-26T09:54:59Z</time>
      </trkpt>
      <trkpt lat="45.95897" lon="4.90177">
        <ele>291</ele>
        <time>2016-09-26T09:55:00Z</time>
      </trkpt>
      <trkpt lat="45.95898" lon="4.90168">
        <ele>290</ele>
        <time>2016-09-26T09:55:01Z</time>
      </trkpt>
      <trkpt lat="45.95898" lon="4.9016">
        <ele>290</ele>
        <time>2016-09-26T09:55:02Z</time>
      </trkpt>
      <trkpt lat="45.95898" lon="4.90151">
        <ele>290</ele>
        <time>2016-09-26T09:55:03Z</time>
      </trkpt>
      <trkpt lat="45.95897" lon="4.90142">
        <ele>290</ele>
        <time>2016-09-26T09:55:04Z</time>
      </trkpt>
      <trkpt lat="45.95897" lon="4.90134">
        <ele>290</ele>
        <time>2016-09-26T09:55:05Z</time>
      </trkpt>
      <trkpt lat="45.95898" lon="4.90127">
        <ele>290</ele>
        <time>2016-09-26T09:55:06Z</time>
      </trkpt>
      <trkpt lat="45.95899" lon="4.90118">
        <ele>290</ele>
        <time>2016-09-26T09:55:07Z</time>
      </trkpt>
      <trkpt lat="45.95898" lon="4.9011">
        <ele>290</ele>
        <time>2016-09-26T09:55:08Z</time>
      </trkpt>
      <trkpt lat="45.95897" lon="4.90102">
        <ele>290</ele>
        <time>2016-09-26T09:55:09Z</time>
      </trkpt>
      <trkpt lat="45.95896" lon="4.90094">
        <ele>290</ele>
        <time>2016-09-26T09:55:10Z</time>
      </trkpt>
      <trkpt lat="45.95896" lon="4.90086">
        <ele>290</ele>
        <time>2016-09-26T09:55:11Z</time>
      </trkpt>
      <trkpt lat="45.95896" lon="4.90078">
        <ele>290</ele>
        <time>2016-09-26T09:55:12Z</time>
      </trkpt>
      <trkpt lat="45.95896" lon="4.9007">
        <ele>290</ele>
        <time>2016-09-26T09:55:13Z</time>
      </trkpt>
      <trkpt lat="45.95896" lon="4.90061">
        <ele>290</ele>
        <time>2016-09-26T09:55:14Z</time>
      </trkpt>
      <trkpt lat="45.95897" lon="4.90053">
        <ele>290</ele>
        <time>2016-09-26T09:55:15Z</time>
      </trkpt>
      <trkpt lat="45.95898" lon="4.90045">
        <ele>290</ele>
        <time>2016-09-26T09:55:16Z</time>
      </trkpt>
      <trkpt lat="45.95897" lon="4.90036">
        <ele>290</ele>
        <time>2016-09-26T09:55:17Z</time>
      </trkpt>
      <trkpt lat="45.95897" lon="4.90028">
        <ele>290</ele>
        <time>2016-09-26T09:55:18Z</time>
      </trkpt>
      <trkpt lat="45.95898" lon="4.9002">
        <ele>290</ele>
        <time>2016-09-26T09:55:19Z</time>
      </trkpt>
      <trkpt lat="45.95898" lon="4.90012">
        <ele>290</ele>
        <time>2016-09-26T09:55:20Z</time>
      </trkpt>
      <trkpt lat="45.95898" lon="4.90004">
        <ele>290</ele>
        <time>2016-09-26T09:55:21Z</time>
      </trkpt>
      <trkpt lat="45.95899" lon="4.89995">
        <ele>290</ele>
        <time>2016-09-26T09:55:22Z</time>
      </trkpt>
      <trkpt lat="45.95898" lon="4.89986">
        <ele>290</ele>
        <time>2016-09-26T09:55:23Z</time>
      </trkpt>
      <trkpt lat="45.95898" lon="4.89977">
        <ele>290</ele>
        <time>2016-09-26T09:55:24Z</time>
      </trkpt>
      <trkpt lat="45.95898" lon="4.89968">
        <ele>290</ele>
        <time>2016-09-26T09:55:25Z</time>
      </trkpt>
      <trkpt lat="45.95898" lon="4.89959">
        <ele>290</ele>
        <time>2016-09-26T09:55:26Z</time>
      </trkpt>
      <trkpt lat="45.95898" lon="4.89951">
        <ele>290</ele>
        <time>2016-09-26T09:55:27Z</time>
      </trkpt>
      <trkpt lat="45.95898" lon="4.89943">
        <ele>290</ele>
        <time>2016-09-26T09:55:28Z</time>
      </trkpt>
      <trkpt lat="45.95898" lon="4.89935">
        <ele>290</ele>
        <time>2016-09-26T09:55:29Z</time>
      </trkpt>
      <trkpt lat="45.95898" lon="4.89927">
        <ele>290</ele>
        <time>2016-09-26T09:55:30Z</time>
      </trkpt>
      <trkpt lat="45.95898" lon="4.8992">
        <ele>290</ele>
        <time>2016-09-26T09:55:31Z</time>
      </trkpt>
      <trkpt lat="45.95898" lon="4.89913">
        <ele>290</ele>
        <time>2016-09-26T09:55:32Z</time>
      </trkpt>
      <trkpt lat="45.95898" lon="4.89905">
        <ele>290</ele>
        <time>2016-09-26T09:55:33Z</time>
      </trkpt>
      <trkpt lat="45.95898" lon="4.89898">
        <ele>290</ele>
        <time>2016-09-26T09:55:34Z</time>
      </trkpt>
      <trkpt lat="45.95897" lon="4.8989">
        <ele>290</ele>
        <time>2016-09-26T09:55:35Z</time>
      </trkpt>
      <trkpt lat="45.95898" lon="4.89881">
        <ele>290</ele>
        <time>2016-09-26T09:55:36Z</time>
      </trkpt>
      <trkpt lat="45.95899" lon="4.89873">
        <ele>290</ele>
        <time>2016-09-26T09:55:37Z</time>
      </trkpt>
      <trkpt lat="45.95899" lon="4.89865">
        <ele>290</ele>
        <time>2016-09-26T09:55:38Z</time>
      </trkpt>
      <trkpt lat="45.95898" lon="4.89857">
        <ele>290</ele>
        <time>2016-09-26T09:55:39Z</time>
      </trkpt>
      <trkpt lat="45.95899" lon="4.89848">
        <ele>290</ele>
        <time>2016-09-26T09:55:40Z</time>
      </trkpt>
      <trkpt lat="45.95897" lon="4.89839">
        <ele>290</ele>
        <time>2016-09-26T09:55:41Z</time>
      </trkpt>
      <trkpt lat="45.95896" lon="4.8983">
        <ele>289</ele>
        <time>2016-09-26T09:55:42Z</time>
      </trkpt>
      <trkpt lat="45.95896" lon="4.89821">
        <ele>289</ele>
        <time>2016-09-26T09:55:43Z</time>
      </trkpt>
      <trkpt lat="45.95896" lon="4.89812">
        <ele>289</ele>
        <time>2016-09-26T09:55:44Z</time>
      </trkpt>
      <trkpt lat="45.95896" lon="4.89804">
        <ele>289</ele>
        <time>2016-09-26T09:55:45Z</time>
      </trkpt>
      <trkpt lat="45.95897" lon="4.89795">
        <ele>289</ele>
        <time>2016-09-26T09:55:46Z</time>
      </trkpt>
      <trkpt lat="45.95897" lon="4.89787">
        <ele>289</ele>
        <time>2016-09-26T09:55:47Z</time>
      </trkpt>
      <trkpt lat="45.95898" lon="4.89779">
        <ele>289</ele>
        <time>2016-09-26T09:55:48Z</time>
      </trkpt>
      <trkpt lat="45.95898" lon="4.89771">
        <ele>289</ele>
        <time>2016-09-26T09:55:49Z</time>
      </trkpt>
      <trkpt lat="45.95897" lon="4.89764">
        <ele>289</ele>
        <time>2016-09-26T09:55:50Z</time>
      </trkpt>
      <trkpt lat="45.95897" lon="4.89756">
        <ele>289</ele>
        <time>2016-09-26T09:55:51Z</time>
      </trkpt>
      <trkpt lat="45.95898" lon="4.8975">
        <ele>289</ele>
        <time>2016-09-26T09:55:52Z</time>
      </trkpt>
      <trkpt lat="45.95898" lon="4.89743">
        <ele>289</ele>
        <time>2016-09-26T09:55:53Z</time>
      </trkpt>
      <trkpt lat="45.95898" lon="4.89736">
        <ele>289</ele>
        <time>2016-09-26T09:55:54Z</time>
      </trkpt>
      <trkpt lat="45.95897" lon="4.89729">
        <ele>289</ele>
        <time>2016-09-26T09:55:55Z</time>
      </trkpt>
      <trkpt lat="45.95896" lon="4.89722">
        <ele>289</ele>
        <time>2016-09-26T09:55:56Z</time>
      </trkpt>
      <trkpt lat="45.95896" lon="4.89714">
        <ele>289</ele>
        <time>2016-09-26T09:55:57Z</time>
      </trkpt>
      <trkpt lat="45.95896" lon="4.89706">
        <ele>289</ele>
        <time>2016-09-26T09:55:58Z</time>
      </trkpt>
      <trkpt lat="45.95895" lon="4.89697">
        <ele>289</ele>
        <time>2016-09-26T09:55:59Z</time>
      </trkpt>
      <trkpt lat="45.95895" lon="4.89689">
        <ele>289</ele>
        <time>2016-09-26T09:56:00Z</time>
      </trkpt>
      <trkpt lat="45.95895" lon="4.89679">
        <ele>289</ele>
        <time>2016-09-26T09:56:01Z</time>
      </trkpt>
      <trkpt lat="45.95895" lon="4.8967">
        <ele>289</ele>
        <time>2016-09-26T09:56:02Z</time>
      </trkpt>
      <trkpt lat="45.95894" lon="4.8966">
        <ele>289</ele>
        <time>2016-09-26T09:56:03Z</time>
      </trkpt>
      <trkpt lat="45.95894" lon="4.89651">
        <ele>289</ele>
        <time>2016-09-26T09:56:04Z</time>
      </trkpt>
      <trkpt lat="45.95894" lon="4.89641">
        <ele>289</ele>
        <time>2016-09-26T09:56:05Z</time>
      </trkpt>
      <trkpt lat="45.95894" lon="4.89632">
        <ele>289</ele>
        <time>2016-09-26T09:56:06Z</time>
      </trkpt>
      <trkpt lat="45.95894" lon="4.89623">
        <ele>289</ele>
        <time>2016-09-26T09:56:07Z</time>
      </trkpt>
      <trkpt lat="45.95894" lon="4.89614">
        <ele>289</ele>
        <time>2016-09-26T09:56:08Z</time>
      </trkpt>
      <trkpt lat="45.95894" lon="4.89605">
        <ele>289</ele>
        <time>2016-09-26T09:56:09Z</time>
      </trkpt>
      <trkpt lat="45.95893" lon="4.89597">
        <ele>289</ele>
        <time>2016-09-26T09:56:10Z</time>
      </trkpt>
      <trkpt lat="45.95893" lon="4.89588">
        <ele>289</ele>
        <time>2016-09-26T09:56:11Z</time>
      </trkpt>
      <trkpt lat="45.95893" lon="4.8958">
        <ele>289</ele>
        <time>2016-09-26T09:56:12Z</time>
      </trkpt>
      <trkpt lat="45.95893" lon="4.89572">
        <ele>289</ele>
        <time>2016-09-26T09:56:13Z</time>
      </trkpt>
      <trkpt lat="45.95893" lon="4.89564">
        <ele>288</ele>
        <time>2016-09-26T09:56:14Z</time>
      </trkpt>
      <trkpt lat="45.95892" lon="4.89556">
        <ele>288</ele>
        <time>2016-09-26T09:56:15Z</time>
      </trkpt>
      <trkpt lat="45.95892" lon="4.89548">
        <ele>288</ele>
        <time>2016-09-26T09:56:16Z</time>
      </trkpt>
      <trkpt lat="45.95892" lon="4.89541">
        <ele>288</ele>
        <time>2016-09-26T09:56:17Z</time>
      </trkpt>
      <trkpt lat="45.95892" lon="4.89533">
        <ele>288</ele>
        <time>2016-09-26T09:56:18Z</time>
      </trkpt>
      <trkpt lat="45.95892" lon="4.89526">
        <ele>288</ele>
        <time>2016-09-26T09:56:19Z</time>
      </trkpt>
      <trkpt lat="45.95891" lon="4.89519">
        <ele>288</ele>
        <time>2016-09-26T09:56:20Z</time>
      </trkpt>
      <trkpt lat="45.95891" lon="4.89511">
        <ele>288</ele>
        <time>2016-09-26T09:56:21Z</time>
      </trkpt>
      <trkpt lat="45.95891" lon="4.89504">
        <ele>288</ele>
        <time>2016-09-26T09:56:22Z</time>
      </trkpt>
      <trkpt lat="45.95891" lon="4.89497">
        <ele>289</ele>
        <time>2016-09-26T09:56:23Z</time>
      </trkpt>
      <trkpt lat="45.95891" lon="4.89489">
        <ele>289</ele>
        <time>2016-09-26T09:56:24Z</time>
      </trkpt>
      <trkpt lat="45.95891" lon="4.89481">
        <ele>289</ele>
        <time>2016-09-26T09:56:25Z</time>
      </trkpt>
      <trkpt lat="45.95891" lon="4.89473">
        <ele>289</ele>
        <time>2016-09-26T09:56:26Z</time>
      </trkpt>
      <trkpt lat="45.95891" lon="4.89465">
        <ele>289</ele>
        <time>2016-09-26T09:56:27Z</time>
      </trkpt>
      <trkpt lat="45.95891" lon="4.89457">
        <ele>289</ele>
        <time>2016-09-26T09:56:28Z</time>
      </trkpt>
      <trkpt lat="45.95891" lon="4.89449">
        <ele>289</ele>
        <time>2016-09-26T09:56:29Z</time>
      </trkpt>
      <trkpt lat="45.95891" lon="4.8944">
        <ele>289</ele>
        <time>2016-09-26T09:56:30Z</time>
      </trkpt>
      <trkpt lat="45.95891" lon="4.89431">
        <ele>289</ele>
        <time>2016-09-26T09:56:31Z</time>
      </trkpt>
      <trkpt lat="45.95891" lon="4.89423">
        <ele>289</ele>
        <time>2016-09-26T09:56:32Z</time>
      </trkpt>
      <trkpt lat="45.95891" lon="4.89415">
        <ele>290</ele>
        <time>2016-09-26T09:56:33Z</time>
      </trkpt>
      <trkpt lat="45.95891" lon="4.89406">
        <ele>290</ele>
        <time>2016-09-26T09:56:34Z</time>
      </trkpt>
      <trkpt lat="45.95891" lon="4.89398">
        <ele>289</ele>
        <time>2016-09-26T09:56:35Z</time>
      </trkpt>
      <trkpt lat="45.95891" lon="4.8939">
        <ele>289</ele>
        <time>2016-09-26T09:56:36Z</time>
      </trkpt>
      <trkpt lat="45.95892" lon="4.89382">
        <ele>289</ele>
        <time>2016-09-26T09:56:37Z</time>
      </trkpt>
      <trkpt lat="45.95893" lon="4.89374">
        <ele>289</ele>
        <time>2016-09-26T09:56:38Z</time>
      </trkpt>
      <trkpt lat="45.95894" lon="4.89367">
        <ele>289</ele>
        <time>2016-09-26T09:56:39Z</time>
      </trkpt>
      <trkpt lat="45.95894" lon="4.89359">
        <ele>289</ele>
        <time>2016-09-26T09:56:40Z</time>
      </trkpt>
      <trkpt lat="45.95893" lon="4.89352">
        <ele>289</ele>
        <time>2016-09-26T09:56:41Z</time>
      </trkpt>
      <trkpt lat="45.95892" lon="4.89344">
        <ele>289</ele>
        <time>2016-09-26T09:56:42Z</time>
      </trkpt>
      <trkpt lat="45.95892" lon="4.89336">
        <ele>289</ele>
        <time>2016-09-26T09:56:43Z</time>
      </trkpt>
      <trkpt lat="45.95892" lon="4.89328">
        <ele>289</ele>
        <time>2016-09-26T09:56:44Z</time>
      </trkpt>
      <trkpt lat="45.95892" lon="4.8932">
        <ele>289</ele>
        <time>2016-09-26T09:56:45Z</time>
      </trkpt>
      <trkpt lat="45.95892" lon="4.89312">
        <ele>289</ele>
        <time>2016-09-26T09:56:46Z</time>
      </trkpt>
      <trkpt lat="45.95891" lon="4.89305">
        <ele>289</ele>
        <time>2016-09-26T09:56:47Z</time>
      </trkpt>
      <trkpt lat="45.95891" lon="4.89297">
        <ele>289</ele>
        <time>2016-09-26T09:56:48Z</time>
      </trkpt>
      <trkpt lat="45.95891" lon="4.89288">
        <ele>289</ele>
        <time>2016-09-26T09:56:49Z</time>
      </trkpt>
      <trkpt lat="45.95891" lon="4.8928">
        <ele>289</ele>
        <time>2016-09-26T09:56:50Z</time>
      </trkpt>
      <trkpt lat="45.95891" lon="4.89271">
        <ele>289</ele>
        <time>2016-09-26T09:56:51Z</time>
      </trkpt>
      <trkpt lat="45.95892" lon="4.89263">
        <ele>289</ele>
        <time>2016-09-26T09:56:52Z</time>
      </trkpt>
      <trkpt lat="45.95892" lon="4.89256">
        <ele>289</ele>
        <time>2016-09-26T09:56:53Z</time>
      </trkpt>
      <trkpt lat="45.95892" lon="4.89247">
        <ele>289</ele>
        <time>2016-09-26T09:56:54Z</time>
      </trkpt>
      <trkpt lat="45.95892" lon="4.89239">
        <ele>288</ele>
        <time>2016-09-26T09:56:55Z</time>
      </trkpt>
      <trkpt lat="45.95891" lon="4.8923">
        <ele>288</ele>
        <time>2016-09-26T09:56:56Z</time>
      </trkpt>
      <trkpt lat="45.95891" lon="4.89222">
        <ele>288</ele>
        <time>2016-09-26T09:56:57Z</time>
      </trkpt>
      <trkpt lat="45.9589" lon="4.89214">
        <ele>288</ele>
        <time>2016-09-26T09:56:58Z</time>
      </trkpt>
      <trkpt lat="45.95889" lon="4.89205">
        <ele>288</ele>
        <time>2016-09-26T09:56:59Z</time>
      </trkpt>
      <trkpt lat="45.95889" lon="4.89197">
        <ele>288</ele>
        <time>2016-09-26T09:57:00Z</time>
      </trkpt>
      <trkpt lat="45.95889" lon="4.89189">
        <ele>288</ele>
        <time>2016-09-26T09:57:01Z</time>
      </trkpt>
      <trkpt lat="45.95888" lon="4.89181">
        <ele>288</ele>
        <time>2016-09-26T09:57:02Z</time>
      </trkpt>
      <trkpt lat="45.95887" lon="4.89173">
        <ele>288</ele>
        <time>2016-09-26T09:57:03Z</time>
      </trkpt>
      <trkpt lat="45.95887" lon="4.89166">
        <ele>288</ele>
        <time>2016-09-26T09:57:04Z</time>
      </trkpt>
      <trkpt lat="45.95886" lon="4.89158">
        <ele>288</ele>
        <time>2016-09-26T09:57:05Z</time>
      </trkpt>
      <trkpt lat="45.95886" lon="4.8915">
        <ele>288</ele>
        <time>2016-09-26T09:57:06Z</time>
      </trkpt>
      <trkpt lat="45.95885" lon="4.89144">
        <ele>288</ele>
        <time>2016-09-26T09:57:07Z</time>
      </trkpt>
      <trkpt lat="45.95887" lon="4.89137">
        <ele>288</ele>
        <time>2016-09-26T09:57:08Z</time>
      </trkpt>
      <trkpt lat="45.95889" lon="4.89131">
        <ele>288</ele>
        <time>2016-09-26T09:57:09Z</time>
      </trkpt>
      <trkpt lat="45.95892" lon="4.89121">
        <ele>288</ele>
        <time>2016-09-26T09:57:11Z</time>
      </trkpt>
      <trkpt lat="45.95894" lon="4.89118">
        <ele>288</ele>
        <time>2016-09-26T09:57:12Z</time>
      </trkpt>
      <trkpt lat="45.95902" lon="4.89116">
        <ele>288</ele>
        <time>2016-09-26T09:57:16Z</time>
      </trkpt>
      <trkpt lat="45.95904" lon="4.89114">
        <ele>288</ele>
        <time>2016-09-26T09:57:17Z</time>
      </trkpt>
      <trkpt lat="45.95905" lon="4.89105">
        <ele>289</ele>
        <time>2016-09-26T09:57:19Z</time>
      </trkpt>
      <trkpt lat="45.95906" lon="4.89099">
        <ele>289</ele>
        <time>2016-09-26T09:57:20Z</time>
      </trkpt>
      <trkpt lat="45.95906" lon="4.89093">
        <ele>289</ele>
        <time>2016-09-26T09:57:21Z</time>
      </trkpt>
      <trkpt lat="45.95905" lon="4.89086">
        <ele>289</ele>
        <time>2016-09-26T09:57:22Z</time>
      </trkpt>
      <trkpt lat="45.95906" lon="4.8908">
        <ele>289</ele>
        <time>2016-09-26T09:57:23Z</time>
      </trkpt>
      <trkpt lat="45.95907" lon="4.89072">
        <ele>289</ele>
        <time>2016-09-26T09:57:24Z</time>
      </trkpt>
      <trkpt lat="45.95906" lon="4.89064">
        <ele>289</ele>
        <time>2016-09-26T09:57:25Z</time>
      </trkpt>
      <trkpt lat="45.95906" lon="4.89056">
        <ele>289</ele>
        <time>2016-09-26T09:57:26Z</time>
      </trkpt>
      <trkpt lat="45.95904" lon="4.89048">
        <ele>289</ele>
        <time>2016-09-26T09:57:27Z</time>
      </trkpt>
      <trkpt lat="45.95903" lon="4.8904">
        <ele>289</ele>
        <time>2016-09-26T09:57:28Z</time>
      </trkpt>
      <trkpt lat="45.959" lon="4.89032">
        <ele>289</ele>
        <time>2016-09-26T09:57:29Z</time>
      </trkpt>
      <trkpt lat="45.95898" lon="4.89024">
        <ele>289</ele>
        <time>2016-09-26T09:57:30Z</time>
      </trkpt>
      <trkpt lat="45.95896" lon="4.89016">
        <ele>289</ele>
        <time>2016-09-26T09:57:31Z</time>
      </trkpt>
      <trkpt lat="45.95894" lon="4.89009">
        <ele>289</ele>
        <time>2016-09-26T09:57:32Z</time>
      </trkpt>
      <trkpt lat="45.95892" lon="4.89001">
        <ele>289</ele>
        <time>2016-09-26T09:57:33Z</time>
      </trkpt>
      <trkpt lat="45.95891" lon="4.88993">
        <ele>289</ele>
        <time>2016-09-26T09:57:34Z</time>
      </trkpt>
      <trkpt lat="45.9589" lon="4.88985">
        <ele>289</ele>
        <time>2016-09-26T09:57:35Z</time>
      </trkpt>
      <trkpt lat="45.95889" lon="4.88977">
        <ele>289</ele>
        <time>2016-09-26T09:57:36Z</time>
      </trkpt>
      <trkpt lat="45.95889" lon="4.88969">
        <ele>289</ele>
        <time>2016-09-26T09:57:37Z</time>
      </trkpt>
      <trkpt lat="45.95889" lon="4.8896">
        <ele>289</ele>
        <time>2016-09-26T09:57:38Z</time>
      </trkpt>
      <trkpt lat="45.95889" lon="4.88952">
        <ele>289</ele>
        <time>2016-09-26T09:57:39Z</time>
      </trkpt>
      <trkpt lat="45.95887" lon="4.88944">
        <ele>289</ele>
        <time>2016-09-26T09:57:40Z</time>
      </trkpt>
      <trkpt lat="45.95887" lon="4.88936">
        <ele>289</ele>
        <time>2016-09-26T09:57:41Z</time>
      </trkpt>
      <trkpt lat="45.95887" lon="4.88929">
        <ele>289</ele>
        <time>2016-09-26T09:57:42Z</time>
      </trkpt>
      <trkpt lat="45.95887" lon="4.88922">
        <ele>289</ele>
        <time>2016-09-26T09:57:43Z</time>
      </trkpt>
      <trkpt lat="45.95886" lon="4.88914">
        <ele>289</ele>
        <time>2016-09-26T09:57:44Z</time>
      </trkpt>
      <trkpt lat="45.95886" lon="4.88906">
        <ele>289</ele>
        <time>2016-09-26T09:57:45Z</time>
      </trkpt>
      <trkpt lat="45.95886" lon="4.88898">
        <ele>289</ele>
        <time>2016-09-26T09:57:46Z</time>
      </trkpt>
      <trkpt lat="45.95886" lon="4.88891">
        <ele>289</ele>
        <time>2016-09-26T09:57:47Z</time>
      </trkpt>
      <trkpt lat="45.95886" lon="4.88883">
        <ele>289</ele>
        <time>2016-09-26T09:57:48Z</time>
      </trkpt>
      <trkpt lat="45.95885" lon="4.88875">
        <ele>289</ele>
        <time>2016-09-26T09:57:49Z</time>
      </trkpt>
      <trkpt lat="45.95885" lon="4.88867">
        <ele>289</ele>
        <time>2016-09-26T09:57:50Z</time>
      </trkpt>
      <trkpt lat="45.95885" lon="4.88859">
        <ele>289</ele>
        <time>2016-09-26T09:57:51Z</time>
      </trkpt>
      <trkpt lat="45.95885" lon="4.88851">
        <ele>289</ele>
        <time>2016-09-26T09:57:52Z</time>
      </trkpt>
      <trkpt lat="45.95885" lon="4.88843">
        <ele>289</ele>
        <time>2016-09-26T09:57:53Z</time>
      </trkpt>
      <trkpt lat="45.95885" lon="4.88835">
        <ele>289</ele>
        <time>2016-09-26T09:57:54Z</time>
      </trkpt>
      <trkpt lat="45.95885" lon="4.88827">
        <ele>288</ele>
        <time>2016-09-26T09:57:55Z</time>
      </trkpt>
      <trkpt lat="45.95884" lon="4.88819">
        <ele>288</ele>
        <time>2016-09-26T09:57:56Z</time>
      </trkpt>
      <trkpt lat="45.95884" lon="4.8881">
        <ele>288</ele>
        <time>2016-09-26T09:57:57Z</time>
      </trkpt>
      <trkpt lat="45.95883" lon="4.88801">
        <ele>288</ele>
        <time>2016-09-26T09:57:58Z</time>
      </trkpt>
      <trkpt lat="45.95883" lon="4.88793">
        <ele>288</ele>
        <time>2016-09-26T09:57:59Z</time>
      </trkpt>
      <trkpt lat="45.95883" lon="4.88784">
        <ele>288</ele>
        <time>2016-09-26T09:58:00Z</time>
      </trkpt>
      <trkpt lat="45.95882" lon="4.88775">
        <ele>288</ele>
        <time>2016-09-26T09:58:01Z</time>
      </trkpt>
      <trkpt lat="45.95882" lon="4.88766">
        <ele>288</ele>
        <time>2016-09-26T09:58:02Z</time>
      </trkpt>
      <trkpt lat="45.95882" lon="4.88756">
        <ele>288</ele>
        <time>2016-09-26T09:58:03Z</time>
      </trkpt>
      <trkpt lat="45.95881" lon="4.88747">
        <ele>288</ele>
        <time>2016-09-26T09:58:04Z</time>
      </trkpt>
      <trkpt lat="45.95881" lon="4.88737">
        <ele>288</ele>
        <time>2016-09-26T09:58:05Z</time>
      </trkpt>
      <trkpt lat="45.95881" lon="4.88728">
        <ele>288</ele>
        <time>2016-09-26T09:58:06Z</time>
      </trkpt>
      <trkpt lat="45.95881" lon="4.8872">
        <ele>288</ele>
        <time>2016-09-26T09:58:07Z</time>
      </trkpt>
      <trkpt lat="45.95881" lon="4.88711">
        <ele>288</ele>
        <time>2016-09-26T09:58:08Z</time>
      </trkpt>
      <trkpt lat="45.95882" lon="4.88703">
        <ele>288</ele>
        <time>2016-09-26T09:58:09Z</time>
      </trkpt>
      <trkpt lat="45.95882" lon="4.88694">
        <ele>288</ele>
        <time>2016-09-26T09:58:10Z</time>
      </trkpt>
      <trkpt lat="45.95881" lon="4.88686">
        <ele>288</ele>
        <time>2016-09-26T09:58:11Z</time>
      </trkpt>
      <trkpt lat="45.9588" lon="4.88678">
        <ele>288</ele>
        <time>2016-09-26T09:58:12Z</time>
      </trkpt>
      <trkpt lat="45.95881" lon="4.88669">
        <ele>288</ele>
        <time>2016-09-26T09:58:13Z</time>
      </trkpt>
      <trkpt lat="45.95881" lon="4.88661">
        <ele>288</ele>
        <time>2016-09-26T09:58:14Z</time>
      </trkpt>
      <trkpt lat="45.9588" lon="4.88653">
        <ele>288</ele>
        <time>2016-09-26T09:58:15Z</time>
      </trkpt>
      <trkpt lat="45.9588" lon="4.88645">
        <ele>288</ele>
        <time>2016-09-26T09:58:16Z</time>
      </trkpt>
      <trkpt lat="45.95879" lon="4.88636">
        <ele>288</ele>
        <time>2016-09-26T09:58:17Z</time>
      </trkpt>
      <trkpt lat="45.95878" lon="4.88627">
        <ele>288</ele>
        <time>2016-09-26T09:58:18Z</time>
      </trkpt>
      <trkpt lat="45.95878" lon="4.88619">
        <ele>288</ele>
        <time>2016-09-26T09:58:19Z</time>
      </trkpt>
      <trkpt lat="45.95877" lon="4.8861">
        <ele>288</ele>
        <time>2016-09-26T09:58:20Z</time>
      </trkpt>
      <trkpt lat="45.95876" lon="4.88602">
        <ele>288</ele>
        <time>2016-09-26T09:58:21Z</time>
      </trkpt>
      <trkpt lat="45.95876" lon="4.88593">
        <ele>288</ele>
        <time>2016-09-26T09:58:22Z</time>
      </trkpt>
      <trkpt lat="45.95875" lon="4.88585">
        <ele>288</ele>
        <time>2016-09-26T09:58:23Z</time>
      </trkpt>
      <trkpt lat="45.95876" lon="4.88575">
        <ele>288</ele>
        <time>2016-09-26T09:58:24Z</time>
      </trkpt>
      <trkpt lat="45.95875" lon="4.88566">
        <ele>288</ele>
        <time>2016-09-26T09:58:25Z</time>
      </trkpt>
      <trkpt lat="45.95875" lon="4.88557">
        <ele>288</ele>
        <time>2016-09-26T09:58:26Z</time>
      </trkpt>
      <trkpt lat="45.95874" lon="4.88549">
        <ele>288</ele>
        <time>2016-09-26T09:58:27Z</time>
      </trkpt>
      <trkpt lat="45.95873" lon="4.8854">
        <ele>288</ele>
        <time>2016-09-26T09:58:28Z</time>
      </trkpt>
      <trkpt lat="45.95873" lon="4.88532">
        <ele>288</ele>
        <time>2016-09-26T09:58:29Z</time>
      </trkpt>
      <trkpt lat="45.95873" lon="4.88524">
        <ele>288</ele>
        <time>2016-09-26T09:58:30Z</time>
      </trkpt>
      <trkpt lat="45.95872" lon="4.88517">
        <ele>288</ele>
        <time>2016-09-26T09:58:31Z</time>
      </trkpt>
      <trkpt lat="45.95872" lon="4.88508">
        <ele>288</ele>
        <time>2016-09-26T09:58:32Z</time>
      </trkpt>
      <trkpt lat="45.95871" lon="4.885">
        <ele>288</ele>
        <time>2016-09-26T09:58:33Z</time>
      </trkpt>
      <trkpt lat="45.9587" lon="4.88491">
        <ele>288</ele>
        <time>2016-09-26T09:58:34Z</time>
      </trkpt>
      <trkpt lat="45.9587" lon="4.88482">
        <ele>288</ele>
        <time>2016-09-26T09:58:35Z</time>
      </trkpt>
      <trkpt lat="45.95869" lon="4.88473">
        <ele>288</ele>
        <time>2016-09-26T09:58:36Z</time>
      </trkpt>
      <trkpt lat="45.95868" lon="4.88464">
        <ele>287</ele>
        <time>2016-09-26T09:58:37Z</time>
      </trkpt>
      <trkpt lat="45.95868" lon="4.88455">
        <ele>287</ele>
        <time>2016-09-26T09:58:38Z</time>
      </trkpt>
      <trkpt lat="45.95868" lon="4.88446">
        <ele>287</ele>
        <time>2016-09-26T09:58:39Z</time>
      </trkpt>
      <trkpt lat="45.95868" lon="4.88438">
        <ele>287</ele>
        <time>2016-09-26T09:58:40Z</time>
      </trkpt>
      <trkpt lat="45.95867" lon="4.8843">
        <ele>287</ele>
        <time>2016-09-26T09:58:41Z</time>
      </trkpt>
      <trkpt lat="45.95866" lon="4.88422">
        <ele>287</ele>
        <time>2016-09-26T09:58:42Z</time>
      </trkpt>
      <trkpt lat="45.95866" lon="4.88414">
        <ele>287</ele>
        <time>2016-09-26T09:58:43Z</time>
      </trkpt>
      <trkpt lat="45.95865" lon="4.88406">
        <ele>287</ele>
        <time>2016-09-26T09:58:44Z</time>
      </trkpt>
      <trkpt lat="45.95865" lon="4.88398">
        <ele>287</ele>
        <time>2016-09-26T09:58:45Z</time>
      </trkpt>
      <trkpt lat="45.95864" lon="4.8839">
        <ele>287</ele>
        <time>2016-09-26T09:58:46Z</time>
      </trkpt>
      <trkpt lat="45.95864" lon="4.88382">
        <ele>287</ele>
        <time>2016-09-26T09:58:47Z</time>
      </trkpt>
      <trkpt lat="45.95864" lon="4.88374">
        <ele>287</ele>
        <time>2016-09-26T09:58:48Z</time>
      </trkpt>
      <trkpt lat="45.95863" lon="4.88365">
        <ele>287</ele>
        <time>2016-09-26T09:58:49Z</time>
      </trkpt>
      <trkpt lat="45.95863" lon="4.88356">
        <ele>287</ele>
        <time>2016-09-26T09:58:50Z</time>
      </trkpt>
      <trkpt lat="45.95862" lon="4.88348">
        <ele>287</ele>
        <time>2016-09-26T09:58:51Z</time>
      </trkpt>
      <trkpt lat="45.95861" lon="4.88339">
        <ele>287</ele>
        <time>2016-09-26T09:58:52Z</time>
      </trkpt>
      <trkpt lat="45.95861" lon="4.8833">
        <ele>288</ele>
        <time>2016-09-26T09:58:53Z</time>
      </trkpt>
      <trkpt lat="45.9586" lon="4.88321">
        <ele>288</ele>
        <time>2016-09-26T09:58:54Z</time>
      </trkpt>
      <trkpt lat="45.9586" lon="4.88313">
        <ele>288</ele>
        <time>2016-09-26T09:58:55Z</time>
      </trkpt>
      <trkpt lat="45.9586" lon="4.88304">
        <ele>288</ele>
        <time>2016-09-26T09:58:56Z</time>
      </trkpt>
      <trkpt lat="45.9586" lon="4.88296">
        <ele>288</ele>
        <time>2016-09-26T09:58:57Z</time>
      </trkpt>
      <trkpt lat="45.95859" lon="4.88288">
        <ele>288</ele>
        <time>2016-09-26T09:58:58Z</time>
      </trkpt>
      <trkpt lat="45.95859" lon="4.8828">
        <ele>288</ele>
        <time>2016-09-26T09:58:59Z</time>
      </trkpt>
      <trkpt lat="45.95858" lon="4.88273">
        <ele>288</ele>
        <time>2016-09-26T09:59:00Z</time>
      </trkpt>
      <trkpt lat="45.95858" lon="4.88265">
        <ele>288</ele>
        <time>2016-09-26T09:59:01Z</time>
      </trkpt>
      <trkpt lat="45.95857" lon="4.88257">
        <ele>287</ele>
        <time>2016-09-26T09:59:02Z</time>
      </trkpt>
      <trkpt lat="45.95857" lon="4.88249">
        <ele>288</ele>
        <time>2016-09-26T09:59:03Z</time>
      </trkpt>
      <trkpt lat="45.95856" lon="4.88242">
        <ele>288</ele>
        <time>2016-09-26T09:59:04Z</time>
      </trkpt>
      <trkpt lat="45.95856" lon="4.88234">
        <ele>288</ele>
        <time>2016-09-26T09:59:05Z</time>
      </trkpt>
      <trkpt lat="45.95856" lon="4.88227">
        <ele>288</ele>
        <time>2016-09-26T09:59:06Z</time>
      </trkpt>
      <trkpt lat="45.95855" lon="4.88219">
        <ele>288</ele>
        <time>2016-09-26T09:59:07Z</time>
      </trkpt>
      <trkpt lat="45.95855" lon="4.88211">
        <ele>288</ele>
        <time>2016-09-26T09:59:08Z</time>
      </trkpt>
      <trkpt lat="45.95854" lon="4.88204">
        <ele>288</ele>
        <time>2016-09-26T09:59:09Z</time>
      </trkpt>
      <trkpt lat="45.95856" lon="4.88196">
        <ele>288</ele>
        <time>2016-09-26T09:59:10Z</time>
      </trkpt>
      <trkpt lat="45.95856" lon="4.88189">
        <ele>288</ele>
        <time>2016-09-26T09:59:11Z</time>
      </trkpt>
      <trkpt lat="45.95855" lon="4.88181">
        <ele>288</ele>
        <time>2016-09-26T09:59:12Z</time>
      </trkpt>
      <trkpt lat="45.95854" lon="4.88173">
        <ele>288</ele>
        <time>2016-09-26T09:59:13Z</time>
      </trkpt>
      <trkpt lat="45.95854" lon="4.88166">
        <ele>288</ele>
        <time>2016-09-26T09:59:14Z</time>
      </trkpt>
      <trkpt lat="45.95854" lon="4.88157">
        <ele>288</ele>
        <time>2016-09-26T09:59:15Z</time>
      </trkpt>
      <trkpt lat="45.95853" lon="4.88149">
        <ele>288</ele>
        <time>2016-09-26T09:59:16Z</time>
      </trkpt>
      <trkpt lat="45.95853" lon="4.88141">
        <ele>289</ele>
        <time>2016-09-26T09:59:17Z</time>
      </trkpt>
      <trkpt lat="45.95853" lon="4.88133">
        <ele>289</ele>
        <time>2016-09-26T09:59:18Z</time>
      </trkpt>
      <trkpt lat="45.95853" lon="4.88126">
        <ele>289</ele>
        <time>2016-09-26T09:59:19Z</time>
      </trkpt>
      <trkpt lat="45.95852" lon="4.88119">
        <ele>289</ele>
        <time>2016-09-26T09:59:20Z</time>
      </trkpt>
      <trkpt lat="45.95851" lon="4.88112">
        <ele>289</ele>
        <time>2016-09-26T09:59:21Z</time>
      </trkpt>
      <trkpt lat="45.9585" lon="4.88104">
        <ele>289</ele>
        <time>2016-09-26T09:59:22Z</time>
      </trkpt>
      <trkpt lat="45.9585" lon="4.88096">
        <ele>288</ele>
        <time>2016-09-26T09:59:23Z</time>
      </trkpt>
      <trkpt lat="45.95849" lon="4.88088">
        <ele>288</ele>
        <time>2016-09-26T09:59:24Z</time>
      </trkpt>
      <trkpt lat="45.95851" lon="4.8808">
        <ele>289</ele>
        <time>2016-09-26T09:59:25Z</time>
      </trkpt>
      <trkpt lat="45.95851" lon="4.88072">
        <ele>289</ele>
        <time>2016-09-26T09:59:26Z</time>
      </trkpt>
      <trkpt lat="45.9585" lon="4.88063">
        <ele>289</ele>
        <time>2016-09-26T09:59:27Z</time>
      </trkpt>
      <trkpt lat="45.9585" lon="4.88054">
        <ele>289</ele>
        <time>2016-09-26T09:59:28Z</time>
      </trkpt>
      <trkpt lat="45.9585" lon="4.88045">
        <ele>289</ele>
        <time>2016-09-26T09:59:29Z</time>
      </trkpt>
      <trkpt lat="45.95849" lon="4.88037">
        <ele>289</ele>
        <time>2016-09-26T09:59:30Z</time>
      </trkpt>
      <trkpt lat="45.95849" lon="4.88029">
        <ele>289</ele>
        <time>2016-09-26T09:59:31Z</time>
      </trkpt>
      <trkpt lat="45.95849" lon="4.88021">
        <ele>289</ele>
        <time>2016-09-26T09:59:32Z</time>
      </trkpt>
      <trkpt lat="45.95848" lon="4.88013">
        <ele>289</ele>
        <time>2016-09-26T09:59:33Z</time>
      </trkpt>
      <trkpt lat="45.95847" lon="4.88006">
        <ele>288</ele>
        <time>2016-09-26T09:59:34Z</time>
      </trkpt>
      <trkpt lat="45.95847" lon="4.87999">
        <ele>289</ele>
        <time>2016-09-26T09:59:35Z</time>
      </trkpt>
      <trkpt lat="45.95847" lon="4.87992">
        <ele>289</ele>
        <time>2016-09-26T09:59:36Z</time>
      </trkpt>
      <trkpt lat="45.95846" lon="4.87985">
        <ele>289</ele>
        <time>2016-09-26T09:59:37Z</time>
      </trkpt>
      <trkpt lat="45.95846" lon="4.87978">
        <ele>289</ele>
        <time>2016-09-26T09:59:38Z</time>
      </trkpt>
      <trkpt lat="45.95846" lon="4.8797">
        <ele>289</ele>
        <time>2016-09-26T09:59:39Z</time>
      </trkpt>
      <trkpt lat="45.95846" lon="4.87963">
        <ele>289</ele>
        <time>2016-09-26T09:59:40Z</time>
      </trkpt>
      <trkpt lat="45.95846" lon="4.87956">
        <ele>289</ele>
        <time>2016-09-26T09:59:41Z</time>
      </trkpt>
      <trkpt lat="45.95844" lon="4.87947">
        <ele>289</ele>
        <time>2016-09-26T09:59:42Z</time>
      </trkpt>
      <trkpt lat="45.95843" lon="4.87939">
        <ele>289</ele>
        <time>2016-09-26T09:59:43Z</time>
      </trkpt>
      <trkpt lat="45.95842" lon="4.8793">
        <ele>289</ele>
        <time>2016-09-26T09:59:44Z</time>
      </trkpt>
      <trkpt lat="45.95842" lon="4.87922">
        <ele>289</ele>
        <time>2016-09-26T09:59:45Z</time>
      </trkpt>
      <trkpt lat="45.95842" lon="4.87914">
        <ele>289</ele>
        <time>2016-09-26T09:59:46Z</time>
      </trkpt>
      <trkpt lat="45.95841" lon="4.87905">
        <ele>289</ele>
        <time>2016-09-26T09:59:47Z</time>
      </trkpt>
      <trkpt lat="45.95841" lon="4.87897">
        <ele>289</ele>
        <time>2016-09-26T09:59:48Z</time>
      </trkpt>
      <trkpt lat="45.95841" lon="4.87888">
        <ele>289</ele>
        <time>2016-09-26T09:59:49Z</time>
      </trkpt>
      <trkpt lat="45.9584" lon="4.8788">
        <ele>289</ele>
        <time>2016-09-26T09:59:50Z</time>
      </trkpt>
      <trkpt lat="45.9584" lon="4.87872">
        <ele>289</ele>
        <time>2016-09-26T09:59:51Z</time>
      </trkpt>
      <trkpt lat="45.95839" lon="4.87864">
        <ele>289</ele>
        <time>2016-09-26T09:59:52Z</time>
      </trkpt>
      <trkpt lat="45.95838" lon="4.87855">
        <ele>289</ele>
        <time>2016-09-26T09:59:53Z</time>
      </trkpt>
      <trkpt lat="45.95837" lon="4.87846">
        <ele>288</ele>
        <time>2016-09-26T09:59:54Z</time>
      </trkpt>
      <trkpt lat="45.95837" lon="4.87838">
        <ele>288</ele>
        <time>2016-09-26T09:59:55Z</time>
      </trkpt>
      <trkpt lat="45.95837" lon="4.87829">
        <ele>288</ele>
        <time>2016-09-26T09:59:56Z</time>
      </trkpt>
      <trkpt lat="45.95837" lon="4.8782">
        <ele>288</ele>
        <time>2016-09-26T09:59:57Z</time>
      </trkpt>
      <trkpt lat="45.95835" lon="4.87811">
        <ele>288</ele>
        <time>2016-09-26T09:59:58Z</time>
      </trkpt>
      <trkpt lat="45.95833" lon="4.87802">
        <ele>285</ele>
        <time>2016-09-26T09:59:59Z</time>
      </trkpt>
      <trkpt lat="45.95832" lon="4.87792">
        <ele>285</ele>
        <time>2016-09-26T10:00:00Z</time>
      </trkpt>
      <trkpt lat="45.95831" lon="4.87783">
        <ele>285</ele>
        <time>2016-09-26T10:00:01Z</time>
      </trkpt>
      <trkpt lat="45.9583" lon="4.87773">
        <ele>285</ele>
        <time>2016-09-26T10:00:02Z</time>
      </trkpt>
      <trkpt lat="45.95829" lon="4.87763">
        <ele>285</ele>
        <time>2016-09-26T10:00:03Z</time>
      </trkpt>
      <trkpt lat="45.95827" lon="4.87754">
        <ele>285</ele>
        <time>2016-09-26T10:00:04Z</time>
      </trkpt>
      <trkpt lat="45.95825" lon="4.87745">
        <ele>284</ele>
        <time>2016-09-26T10:00:05Z</time>
      </trkpt>
      <trkpt lat="45.95824" lon="4.87735">
        <ele>284</ele>
        <time>2016-09-26T10:00:06Z</time>
      </trkpt>
      <trkpt lat="45.95822" lon="4.87726">
        <ele>284</ele>
        <time>2016-09-26T10:00:07Z</time>
      </trkpt>
      <trkpt lat="45.9582" lon="4.87717">
        <ele>283</ele>
        <time>2016-09-26T10:00:08Z</time>
      </trkpt>
      <trkpt lat="45.95818" lon="4.87707">
        <ele>283</ele>
        <time>2016-09-26T10:00:09Z</time>
      </trkpt>
      <trkpt lat="45.95816" lon="4.87698">
        <ele>283</ele>
        <time>2016-09-26T10:00:10Z</time>
      </trkpt>
      <trkpt lat="45.95815" lon="4.87689">
        <ele>283</ele>
        <time>2016-09-26T10:00:11Z</time>
      </trkpt>
      <trkpt lat="45.95813" lon="4.87679">
        <ele>284</ele>
        <time>2016-09-26T10:00:12Z</time>
      </trkpt>
      <trkpt lat="45.95811" lon="4.8767">
        <ele>284</ele>
        <time>2016-09-26T10:00:13Z</time>
      </trkpt>
      <trkpt lat="45.95808" lon="4.87661">
        <ele>283</ele>
        <time>2016-09-26T10:00:14Z</time>
      </trkpt>
      <trkpt lat="45.95804" lon="4.87652">
        <ele>283</ele>
        <time>2016-09-26T10:00:15Z</time>
      </trkpt>
      <trkpt lat="45.95801" lon="4.87643">
        <ele>283</ele>
        <time>2016-09-26T10:00:16Z</time>
      </trkpt>
      <trkpt lat="45.95797" lon="4.87634">
        <ele>282</ele>
        <time>2016-09-26T10:00:17Z</time>
      </trkpt>
      <trkpt lat="45.95793" lon="4.87625">
        <ele>282</ele>
        <time>2016-09-26T10:00:18Z</time>
      </trkpt>
      <trkpt lat="45.95788" lon="4.87615">
        <ele>282</ele>
        <time>2016-09-26T10:00:19Z</time>
      </trkpt>
      <trkpt lat="45.95784" lon="4.87606">
        <ele>282</ele>
        <time>2016-09-26T10:00:20Z</time>
      </trkpt>
      <trkpt lat="45.95779" lon="4.87596">
        <ele>282</ele>
        <time>2016-09-26T10:00:21Z</time>
      </trkpt>
      <trkpt lat="45.95775" lon="4.87586">
        <ele>281</ele>
        <time>2016-09-26T10:00:22Z</time>
      </trkpt>
      <trkpt lat="45.95769" lon="4.87576">
        <ele>281</ele>
        <time>2016-09-26T10:00:23Z</time>
      </trkpt>
      <trkpt lat="45.95764" lon="4.87566">
        <ele>281</ele>
        <time>2016-09-26T10:00:24Z</time>
      </trkpt>
      <trkpt lat="45.95759" lon="4.87555">
        <ele>281</ele>
        <time>2016-09-26T10:00:25Z</time>
      </trkpt>
      <trkpt lat="45.95754" lon="4.87545">
        <ele>281</ele>
        <time>2016-09-26T10:00:26Z</time>
      </trkpt>
      <trkpt lat="45.9575" lon="4.87534">
        <ele>277</ele>
        <time>2016-09-26T10:00:27Z</time>
      </trkpt>
      <trkpt lat="45.95745" lon="4.87524">
        <ele>277</ele>
        <time>2016-09-26T10:00:28Z</time>
      </trkpt>
      <trkpt lat="45.9574" lon="4.87513">
        <ele>277</ele>
        <time>2016-09-26T10:00:29Z</time>
      </trkpt>
      <trkpt lat="45.95734" lon="4.87503">
        <ele>277</ele>
        <time>2016-09-26T10:00:30Z</time>
      </trkpt>
      <trkpt lat="45.95729" lon="4.87493">
        <ele>277</ele>
        <time>2016-09-26T10:00:31Z</time>
      </trkpt>
      <trkpt lat="45.95724" lon="4.87483">
        <ele>276</ele>
        <time>2016-09-26T10:00:32Z</time>
      </trkpt>
      <trkpt lat="45.95719" lon="4.87472">
        <ele>276</ele>
        <time>2016-09-26T10:00:33Z</time>
      </trkpt>
      <trkpt lat="45.95714" lon="4.87463">
        <ele>276</ele>
        <time>2016-09-26T10:00:34Z</time>
      </trkpt>
      <trkpt lat="45.95709" lon="4.87453">
        <ele>276</ele>
        <time>2016-09-26T10:00:35Z</time>
      </trkpt>
      <trkpt lat="45.95704" lon="4.87444">
        <ele>275</ele>
        <time>2016-09-26T10:00:36Z</time>
      </trkpt>
      <trkpt lat="45.95699" lon="4.87435">
        <ele>275</ele>
        <time>2016-09-26T10:00:37Z</time>
      </trkpt>
      <trkpt lat="45.95695" lon="4.87426">
        <ele>275</ele>
        <time>2016-09-26T10:00:38Z</time>
      </trkpt>
      <trkpt lat="45.95691" lon="4.87416">
        <ele>275</ele>
        <time>2016-09-26T10:00:39Z</time>
      </trkpt>
      <trkpt lat="45.95687" lon="4.87408">
        <ele>274</ele>
        <time>2016-09-26T10:00:40Z</time>
      </trkpt>
      <trkpt lat="45.95683" lon="4.87399">
        <ele>274</ele>
        <time>2016-09-26T10:00:41Z</time>
      </trkpt>
      <trkpt lat="45.95679" lon="4.8739">
        <ele>274</ele>
        <time>2016-09-26T10:00:42Z</time>
      </trkpt>
      <trkpt lat="45.95674" lon="4.87382">
        <ele>274</ele>
        <time>2016-09-26T10:00:43Z</time>
      </trkpt>
      <trkpt lat="45.95669" lon="4.87373">
        <ele>274</ele>
        <time>2016-09-26T10:00:44Z</time>
      </trkpt>
      <trkpt lat="45.95665" lon="4.87365">
        <ele>272</ele>
        <time>2016-09-26T10:00:45Z</time>
      </trkpt>
      <trkpt lat="45.9566" lon="4.87357">
        <ele>272</ele>
        <time>2016-09-26T10:00:46Z</time>
      </trkpt>
      <trkpt lat="45.95656" lon="4.87348">
        <ele>272</ele>
        <time>2016-09-26T10:00:47Z</time>
      </trkpt>
      <trkpt lat="45.95652" lon="4.8734">
        <ele>272</ele>
        <time>2016-09-26T10:00:48Z</time>
      </trkpt>
      <trkpt lat="45.95648" lon="4.87332">
        <ele>272</ele>
        <time>2016-09-26T10:00:49Z</time>
      </trkpt>
      <trkpt lat="45.95644" lon="4.87324">
        <ele>272</ele>
        <time>2016-09-26T10:00:50Z</time>
      </trkpt>
      <trkpt lat="45.9564" lon="4.87316">
        <ele>272</ele>
        <time>2016-09-26T10:00:51Z</time>
      </trkpt>
      <trkpt lat="45.95636" lon="4.87308">
        <ele>272</ele>
        <time>2016-09-26T10:00:52Z</time>
      </trkpt>
      <trkpt lat="45.95632" lon="4.873">
        <ele>272</ele>
        <time>2016-09-26T10:00:53Z</time>
      </trkpt>
      <trkpt lat="45.95628" lon="4.87291">
        <ele>272</ele>
        <time>2016-09-26T10:00:54Z</time>
      </trkpt>
      <trkpt lat="45.95624" lon="4.87283">
        <ele>272</ele>
        <time>2016-09-26T10:00:55Z</time>
      </trkpt>
      <trkpt lat="45.9562" lon="4.87275">
        <ele>272</ele>
        <time>2016-09-26T10:00:56Z</time>
      </trkpt>
      <trkpt lat="45.95616" lon="4.87267">
        <ele>272</ele>
        <time>2016-09-26T10:00:57Z</time>
      </trkpt>
      <trkpt lat="45.95612" lon="4.87258">
        <ele>272</ele>
        <time>2016-09-26T10:00:58Z</time>
      </trkpt>
      <trkpt lat="45.95607" lon="4.87249">
        <ele>272</ele>
        <time>2016-09-26T10:00:59Z</time>
      </trkpt>
      <trkpt lat="45.95603" lon="4.8724">
        <ele>272</ele>
        <time>2016-09-26T10:01:00Z</time>
      </trkpt>
      <trkpt lat="45.95598" lon="4.87231">
        <ele>272</ele>
        <time>2016-09-26T10:01:01Z</time>
      </trkpt>
      <trkpt lat="45.95593" lon="4.87221">
        <ele>272</ele>
        <time>2016-09-26T10:01:02Z</time>
      </trkpt>
      <trkpt lat="45.95588" lon="4.87212">
        <ele>272</ele>
        <time>2016-09-26T10:01:03Z</time>
      </trkpt>
      <trkpt lat="45.95583" lon="4.87203">
        <ele>270</ele>
        <time>2016-09-26T10:01:04Z</time>
      </trkpt>
      <trkpt lat="45.95579" lon="4.87193">
        <ele>270</ele>
        <time>2016-09-26T10:01:05Z</time>
      </trkpt>
      <trkpt lat="45.95575" lon="4.87184">
        <ele>270</ele>
        <time>2016-09-26T10:01:06Z</time>
      </trkpt>
      <trkpt lat="45.9557" lon="4.87174">
        <ele>271</ele>
        <time>2016-09-26T10:01:07Z</time>
      </trkpt>
      <trkpt lat="45.95565" lon="4.87164">
        <ele>270</ele>
        <time>2016-09-26T10:01:08Z</time>
      </trkpt>
      <trkpt lat="45.95561" lon="4.87155">
        <ele>270</ele>
        <time>2016-09-26T10:01:09Z</time>
      </trkpt>
      <trkpt lat="45.95557" lon="4.87146">
        <ele>270</ele>
        <time>2016-09-26T10:01:10Z</time>
      </trkpt>
      <trkpt lat="45.95553" lon="4.87138">
        <ele>270</ele>
        <time>2016-09-26T10:01:11Z</time>
      </trkpt>
      <trkpt lat="45.9555" lon="4.87129">
        <ele>270</ele>
        <time>2016-09-26T10:01:12Z</time>
      </trkpt>
      <trkpt lat="45.95547" lon="4.8712">
        <ele>270</ele>
        <time>2016-09-26T10:01:13Z</time>
      </trkpt>
      <trkpt lat="45.95543" lon="4.87112">
        <ele>269</ele>
        <time>2016-09-26T10:01:14Z</time>
      </trkpt>
      <trkpt lat="45.9554" lon="4.87103">
        <ele>269</ele>
        <time>2016-09-26T10:01:15Z</time>
      </trkpt>
      <trkpt lat="45.95535" lon="4.87095">
        <ele>269</ele>
        <time>2016-09-26T10:01:16Z</time>
      </trkpt>
      <trkpt lat="45.9553" lon="4.87089">
        <ele>269</ele>
        <time>2016-09-26T10:01:17Z</time>
      </trkpt>
      <trkpt lat="45.95527" lon="4.87081">
        <ele>268</ele>
        <time>2016-09-26T10:01:18Z</time>
      </trkpt>
      <trkpt lat="45.95522" lon="4.87073">
        <ele>268</ele>
        <time>2016-09-26T10:01:19Z</time>
      </trkpt>
      <trkpt lat="45.95518" lon="4.87065">
        <ele>268</ele>
        <time>2016-09-26T10:01:20Z</time>
      </trkpt>
      <trkpt lat="45.95514" lon="4.87057">
        <ele>268</ele>
        <time>2016-09-26T10:01:21Z</time>
      </trkpt>
      <trkpt lat="45.9551" lon="4.87049">
        <ele>268</ele>
        <time>2016-09-26T10:01:22Z</time>
      </trkpt>
      <trkpt lat="45.95507" lon="4.87041">
        <ele>268</ele>
        <time>2016-09-26T10:01:23Z</time>
      </trkpt>
      <trkpt lat="45.95503" lon="4.87034">
        <ele>268</ele>
        <time>2016-09-26T10:01:24Z</time>
      </trkpt>
      <trkpt lat="45.955" lon="4.87027">
        <ele>269</ele>
        <time>2016-09-26T10:01:25Z</time>
      </trkpt>
      <trkpt lat="45.95497" lon="4.87019">
        <ele>268</ele>
        <time>2016-09-26T10:01:26Z</time>
      </trkpt>
      <trkpt lat="45.95493" lon="4.87011">
        <ele>268</ele>
        <time>2016-09-26T10:01:27Z</time>
      </trkpt>
      <trkpt lat="45.95489" lon="4.87003">
        <ele>268</ele>
        <time>2016-09-26T10:01:28Z</time>
      </trkpt>
      <trkpt lat="45.95485" lon="4.86996">
        <ele>268</ele>
        <time>2016-09-26T10:01:29Z</time>
      </trkpt>
      <trkpt lat="45.95481" lon="4.86988">
        <ele>268</ele>
        <time>2016-09-26T10:01:30Z</time>
      </trkpt>
      <trkpt lat="45.95477" lon="4.8698">
        <ele>268</ele>
        <time>2016-09-26T10:01:31Z</time>
      </trkpt>
      <trkpt lat="45.95473" lon="4.86972">
        <ele>268</ele>
        <time>2016-09-26T10:01:32Z</time>
      </trkpt>
      <trkpt lat="45.95469" lon="4.86964">
        <ele>268</ele>
        <time>2016-09-26T10:01:33Z</time>
      </trkpt>
      <trkpt lat="45.95465" lon="4.86957">
        <ele>268</ele>
        <time>2016-09-26T10:01:34Z</time>
      </trkpt>
      <trkpt lat="45.95461" lon="4.86949">
        <ele>268</ele>
        <time>2016-09-26T10:01:35Z</time>
      </trkpt>
      <trkpt lat="45.95457" lon="4.86942">
        <ele>268</ele>
        <time>2016-09-26T10:01:36Z</time>
      </trkpt>
      <trkpt lat="45.95453" lon="4.86934">
        <ele>268</ele>
        <time>2016-09-26T10:01:37Z</time>
      </trkpt>
      <trkpt lat="45.95449" lon="4.86926">
        <ele>268</ele>
        <time>2016-09-26T10:01:38Z</time>
      </trkpt>
      <trkpt lat="45.95446" lon="4.86918">
        <ele>269</ele>
        <time>2016-09-26T10:01:39Z</time>
      </trkpt>
      <trkpt lat="45.95442" lon="4.8691">
        <ele>268</ele>
        <time>2016-09-26T10:01:40Z</time>
      </trkpt>
      <trkpt lat="45.95438" lon="4.86902">
        <ele>268</ele>
        <time>2016-09-26T10:01:41Z</time>
      </trkpt>
      <trkpt lat="45.95435" lon="4.86894">
        <ele>268</ele>
        <time>2016-09-26T10:01:42Z</time>
      </trkpt>
      <trkpt lat="45.9543" lon="4.86887">
        <ele>268</ele>
        <time>2016-09-26T10:01:43Z</time>
      </trkpt>
      <trkpt lat="45.95426" lon="4.86879">
        <ele>268</ele>
        <time>2016-09-26T10:01:44Z</time>
      </trkpt>
      <trkpt lat="45.95421" lon="4.86871">
        <ele>268</ele>
        <time>2016-09-26T10:01:45Z</time>
      </trkpt>
      <trkpt lat="45.95417" lon="4.86863">
        <ele>268</ele>
        <time>2016-09-26T10:01:46Z</time>
      </trkpt>
      <trkpt lat="45.95415" lon="4.86854">
        <ele>269</ele>
        <time>2016-09-26T10:01:47Z</time>
      </trkpt>
      <trkpt lat="45.95411" lon="4.86846">
        <ele>268</ele>
        <time>2016-09-26T10:01:48Z</time>
      </trkpt>
      <trkpt lat="45.95407" lon="4.86838">
        <ele>268</ele>
        <time>2016-09-26T10:01:49Z</time>
      </trkpt>
      <trkpt lat="45.95404" lon="4.8683">
        <ele>268</ele>
        <time>2016-09-26T10:01:50Z</time>
      </trkpt>
      <trkpt lat="45.95399" lon="4.86822">
        <ele>268</ele>
        <time>2016-09-26T10:01:51Z</time>
      </trkpt>
      <trkpt lat="45.95396" lon="4.86814">
        <ele>268</ele>
        <time>2016-09-26T10:01:52Z</time>
      </trkpt>
      <trkpt lat="45.95392" lon="4.86806">
        <ele>268</ele>
        <time>2016-09-26T10:01:53Z</time>
      </trkpt>
      <trkpt lat="45.95389" lon="4.86799">
        <ele>268</ele>
        <time>2016-09-26T10:01:54Z</time>
      </trkpt>
      <trkpt lat="45.95386" lon="4.86792">
        <ele>268</ele>
        <time>2016-09-26T10:01:55Z</time>
      </trkpt>
      <trkpt lat="45.95382" lon="4.86786">
        <ele>268</ele>
        <time>2016-09-26T10:01:56Z</time>
      </trkpt>
      <trkpt lat="45.95379" lon="4.86779">
        <ele>268</ele>
        <time>2016-09-26T10:01:57Z</time>
      </trkpt>
      <trkpt lat="45.95376" lon="4.86771">
        <ele>268</ele>
        <time>2016-09-26T10:01:58Z</time>
      </trkpt>
      <trkpt lat="45.95372" lon="4.86765">
        <ele>268</ele>
        <time>2016-09-26T10:01:59Z</time>
      </trkpt>
      <trkpt lat="45.95368" lon="4.86757">
        <ele>268</ele>
        <time>2016-09-26T10:02:00Z</time>
      </trkpt>
      <trkpt lat="45.95365" lon="4.8675">
        <ele>268</ele>
        <time>2016-09-26T10:02:01Z</time>
      </trkpt>
      <trkpt lat="45.95361" lon="4.86742">
        <ele>268</ele>
        <time>2016-09-26T10:02:02Z</time>
      </trkpt>
      <trkpt lat="45.95357" lon="4.86735">
        <ele>268</ele>
        <time>2016-09-26T10:02:03Z</time>
      </trkpt>
      <trkpt lat="45.95354" lon="4.86727">
        <ele>268</ele>
        <time>2016-09-26T10:02:04Z</time>
      </trkpt>
      <trkpt lat="45.9535" lon="4.86719">
        <ele>268</ele>
        <time>2016-09-26T10:02:05Z</time>
      </trkpt>
      <trkpt lat="45.95346" lon="4.86711">
        <ele>268</ele>
        <time>2016-09-26T10:02:06Z</time>
      </trkpt>
      <trkpt lat="45.95342" lon="4.86704">
        <ele>268</ele>
        <time>2016-09-26T10:02:07Z</time>
      </trkpt>
      <trkpt lat="45.95339" lon="4.86697">
        <ele>268</ele>
        <time>2016-09-26T10:02:08Z</time>
      </trkpt>
      <trkpt lat="45.95335" lon="4.8669">
        <ele>268</ele>
        <time>2016-09-26T10:02:09Z</time>
      </trkpt>
      <trkpt lat="45.95332" lon="4.86683">
        <ele>269</ele>
        <time>2016-09-26T10:02:10Z</time>
      </trkpt>
      <trkpt lat="45.95328" lon="4.86676">
        <ele>268</ele>
        <time>2016-09-26T10:02:11Z</time>
      </trkpt>
      <trkpt lat="45.95326" lon="4.8667">
        <ele>268</ele>
        <time>2016-09-26T10:02:12Z</time>
      </trkpt>
      <trkpt lat="45.95324" lon="4.86663">
        <ele>268</ele>
        <time>2016-09-26T10:02:13Z</time>
      </trkpt>
      <trkpt lat="45.9532" lon="4.86656">
        <ele>268</ele>
        <time>2016-09-26T10:02:14Z</time>
      </trkpt>
      <trkpt lat="45.95317" lon="4.86649">
        <ele>268</ele>
        <time>2016-09-26T10:02:15Z</time>
      </trkpt>
      <trkpt lat="45.95313" lon="4.86642">
        <ele>268</ele>
        <time>2016-09-26T10:02:16Z</time>
      </trkpt>
      <trkpt lat="45.95309" lon="4.86635">
        <ele>268</ele>
        <time>2016-09-26T10:02:17Z</time>
      </trkpt>
      <trkpt lat="45.95305" lon="4.86628">
        <ele>268</ele>
        <time>2016-09-26T10:02:18Z</time>
      </trkpt>
      <trkpt lat="45.95301" lon="4.8662">
        <ele>268</ele>
        <time>2016-09-26T10:02:19Z</time>
      </trkpt>
      <trkpt lat="45.95297" lon="4.86613">
        <ele>268</ele>
        <time>2016-09-26T10:02:20Z</time>
      </trkpt>
      <trkpt lat="45.95293" lon="4.86605">
        <ele>268</ele>
        <time>2016-09-26T10:02:21Z</time>
      </trkpt>
      <trkpt lat="45.95289" lon="4.86597">
        <ele>268</ele>
        <time>2016-09-26T10:02:22Z</time>
      </trkpt>
      <trkpt lat="45.95285" lon="4.86589">
        <ele>268</ele>
        <time>2016-09-26T10:02:23Z</time>
      </trkpt>
      <trkpt lat="45.9528" lon="4.86581">
        <ele>267</ele>
        <time>2016-09-26T10:02:24Z</time>
      </trkpt>
      <trkpt lat="45.95275" lon="4.86573">
        <ele>267</ele>
        <time>2016-09-26T10:02:25Z</time>
      </trkpt>
      <trkpt lat="45.95269" lon="4.86566">
        <ele>267</ele>
        <time>2016-09-26T10:02:26Z</time>
      </trkpt>
      <trkpt lat="45.95264" lon="4.86559">
        <ele>267</ele>
        <time>2016-09-26T10:02:27Z</time>
      </trkpt>
      <trkpt lat="45.9526" lon="4.86551">
        <ele>267</ele>
        <time>2016-09-26T10:02:28Z</time>
      </trkpt>
      <trkpt lat="45.95255" lon="4.86543">
        <ele>267</ele>
        <time>2016-09-26T10:02:29Z</time>
      </trkpt>
      <trkpt lat="45.95251" lon="4.86536">
        <ele>267</ele>
        <time>2016-09-26T10:02:30Z</time>
      </trkpt>
      <trkpt lat="45.95246" lon="4.8653">
        <ele>268</ele>
        <time>2016-09-26T10:02:31Z</time>
      </trkpt>
      <trkpt lat="45.95241" lon="4.86524">
        <ele>268</ele>
        <time>2016-09-26T10:02:32Z</time>
      </trkpt>
      <trkpt lat="45.95237" lon="4.86518">
        <ele>268</ele>
        <time>2016-09-26T10:02:33Z</time>
      </trkpt>
      <trkpt lat="45.95232" lon="4.86513">
        <ele>268</ele>
        <time>2016-09-26T10:02:34Z</time>
      </trkpt>
      <trkpt lat="45.95225" lon="4.86507">
        <ele>268</ele>
        <time>2016-09-26T10:02:35Z</time>
      </trkpt>
      <trkpt lat="45.9522" lon="4.86501">
        <ele>268</ele>
        <time>2016-09-26T10:02:36Z</time>
      </trkpt>
      <trkpt lat="45.95214" lon="4.86495">
        <ele>268</ele>
        <time>2016-09-26T10:02:37Z</time>
      </trkpt>
      <trkpt lat="45.95208" lon="4.8649">
        <ele>268</ele>
        <time>2016-09-26T10:02:38Z</time>
      </trkpt>
      <trkpt lat="45.95203" lon="4.86485">
        <ele>268</ele>
        <time>2016-09-26T10:02:39Z</time>
      </trkpt>
      <trkpt lat="45.95198" lon="4.86479">
        <ele>268</ele>
        <time>2016-09-26T10:02:40Z</time>
      </trkpt>
      <trkpt lat="45.95193" lon="4.86473">
        <ele>268</ele>
        <time>2016-09-26T10:02:41Z</time>
      </trkpt>
      <trkpt lat="45.95188" lon="4.86468">
        <ele>268</ele>
        <time>2016-09-26T10:02:42Z</time>
      </trkpt>
      <trkpt lat="45.95183" lon="4.86463">
        <ele>268</ele>
        <time>2016-09-26T10:02:43Z</time>
      </trkpt>
      <trkpt lat="45.95179" lon="4.86457">
        <ele>268</ele>
        <time>2016-09-26T10:02:44Z</time>
      </trkpt>
      <trkpt lat="45.95174" lon="4.86452">
        <ele>268</ele>
        <time>2016-09-26T10:02:45Z</time>
      </trkpt>
      <trkpt lat="45.9517" lon="4.86447">
        <ele>268</ele>
        <time>2016-09-26T10:02:46Z</time>
      </trkpt>
      <trkpt lat="45.95166" lon="4.86442">
        <ele>268</ele>
        <time>2016-09-26T10:02:47Z</time>
      </trkpt>
      <trkpt lat="45.9516" lon="4.86437">
        <ele>268</ele>
        <time>2016-09-26T10:02:48Z</time>
      </trkpt>
      <trkpt lat="45.95155" lon="4.86432">
        <ele>268</ele>
        <time>2016-09-26T10:02:49Z</time>
      </trkpt>
      <trkpt lat="45.95151" lon="4.86426">
        <ele>268</ele>
        <time>2016-09-26T10:02:50Z</time>
      </trkpt>
      <trkpt lat="45.95146" lon="4.8642">
        <ele>268</ele>
        <time>2016-09-26T10:02:51Z</time>
      </trkpt>
      <trkpt lat="45.95142" lon="4.86415">
        <ele>268</ele>
        <time>2016-09-26T10:02:52Z</time>
      </trkpt>
      <trkpt lat="45.95137" lon="4.86409">
        <ele>268</ele>
        <time>2016-09-26T10:02:53Z</time>
      </trkpt>
      <trkpt lat="45.95133" lon="4.86404">
        <ele>268</ele>
        <time>2016-09-26T10:02:54Z</time>
      </trkpt>
      <trkpt lat="45.95129" lon="4.86399">
        <ele>268</ele>
        <time>2016-09-26T10:02:55Z</time>
      </trkpt>
      <trkpt lat="45.95124" lon="4.86394">
        <ele>269</ele>
        <time>2016-09-26T10:02:56Z</time>
      </trkpt>
      <trkpt lat="45.9512" lon="4.8639">
        <ele>269</ele>
        <time>2016-09-26T10:02:57Z</time>
      </trkpt>
      <trkpt lat="45.95117" lon="4.86385">
        <ele>269</ele>
        <time>2016-09-26T10:02:58Z</time>
      </trkpt>
      <trkpt lat="45.95113" lon="4.86379">
        <ele>269</ele>
        <time>2016-09-26T10:02:59Z</time>
      </trkpt>
      <trkpt lat="45.95108" lon="4.86374">
        <ele>269</ele>
        <time>2016-09-26T10:03:00Z</time>
      </trkpt>
      <trkpt lat="45.95104" lon="4.86369">
        <ele>269</ele>
        <time>2016-09-26T10:03:01Z</time>
      </trkpt>
      <trkpt lat="45.951" lon="4.86364">
        <ele>269</ele>
        <time>2016-09-26T10:03:02Z</time>
      </trkpt>
      <trkpt lat="45.95096" lon="4.86359">
        <ele>269</ele>
        <time>2016-09-26T10:03:03Z</time>
      </trkpt>
      <trkpt lat="45.95092" lon="4.86354">
        <ele>269</ele>
        <time>2016-09-26T10:03:04Z</time>
      </trkpt>
      <trkpt lat="45.95088" lon="4.86349">
        <ele>269</ele>
        <time>2016-09-26T10:03:05Z</time>
      </trkpt>
      <trkpt lat="45.95084" lon="4.86344">
        <ele>269</ele>
        <time>2016-09-26T10:03:06Z</time>
      </trkpt>
      <trkpt lat="45.9508" lon="4.86339">
        <ele>270</ele>
        <time>2016-09-26T10:03:07Z</time>
      </trkpt>
      <trkpt lat="45.95077" lon="4.86334">
        <ele>270</ele>
        <time>2016-09-26T10:03:08Z</time>
      </trkpt>
      <trkpt lat="45.95072" lon="4.86328">
        <ele>270</ele>
        <time>2016-09-26T10:03:09Z</time>
      </trkpt>
      <trkpt lat="45.95069" lon="4.86323">
        <ele>270</ele>
        <time>2016-09-26T10:03:10Z</time>
      </trkpt>
      <trkpt lat="45.95065" lon="4.86318">
        <ele>270</ele>
        <time>2016-09-26T10:03:11Z</time>
      </trkpt>
      <trkpt lat="45.95061" lon="4.86313">
        <ele>270</ele>
        <time>2016-09-26T10:03:12Z</time>
      </trkpt>
      <trkpt lat="45.95057" lon="4.86308">
        <ele>271</ele>
        <time>2016-09-26T10:03:13Z</time>
      </trkpt>
      <trkpt lat="45.95053" lon="4.86302">
        <ele>271</ele>
        <time>2016-09-26T10:03:14Z</time>
      </trkpt>
      <trkpt lat="45.95049" lon="4.86297">
        <ele>271</ele>
        <time>2016-09-26T10:03:15Z</time>
      </trkpt>
      <trkpt lat="45.95045" lon="4.86292">
        <ele>271</ele>
        <time>2016-09-26T10:03:16Z</time>
      </trkpt>
      <trkpt lat="45.9504" lon="4.86287">
        <ele>271</ele>
        <time>2016-09-26T10:03:17Z</time>
      </trkpt>
      <trkpt lat="45.95036" lon="4.86282">
        <ele>271</ele>
        <time>2016-09-26T10:03:18Z</time>
      </trkpt>
      <trkpt lat="45.95031" lon="4.86277">
        <ele>271</ele>
        <time>2016-09-26T10:03:19Z</time>
      </trkpt>
      <trkpt lat="45.95027" lon="4.86272">
        <ele>271</ele>
        <time>2016-09-26T10:03:20Z</time>
      </trkpt>
      <trkpt lat="45.95024" lon="4.86267">
        <ele>271</ele>
        <time>2016-09-26T10:03:21Z</time>
      </trkpt>
      <trkpt lat="45.9502" lon="4.86261">
        <ele>271</ele>
        <time>2016-09-26T10:03:22Z</time>
      </trkpt>
      <trkpt lat="45.95016" lon="4.86256">
        <ele>272</ele>
        <time>2016-09-26T10:03:23Z</time>
      </trkpt>
      <trkpt lat="45.95012" lon="4.86251">
        <ele>272</ele>
        <time>2016-09-26T10:03:24Z</time>
      </trkpt>
      <trkpt lat="45.95008" lon="4.86246">
        <ele>272</ele>
        <time>2016-09-26T10:03:25Z</time>
      </trkpt>
      <trkpt lat="45.95003" lon="4.86241">
        <ele>272</ele>
        <time>2016-09-26T10:03:26Z</time>
      </trkpt>
      <trkpt lat="45.94999" lon="4.86236">
        <ele>272</ele>
        <time>2016-09-26T10:03:27Z</time>
      </trkpt>
      <trkpt lat="45.94996" lon="4.86232">
        <ele>272</ele>
        <time>2016-09-26T10:03:28Z</time>
      </trkpt>
      <trkpt lat="45.94993" lon="4.86227">
        <ele>272</ele>
        <time>2016-09-26T10:03:29Z</time>
      </trkpt>
      <trkpt lat="45.94989" lon="4.86223">
        <ele>272</ele>
        <time>2016-09-26T10:03:30Z</time>
      </trkpt>
      <trkpt lat="45.94985" lon="4.86219">
        <ele>272</ele>
        <time>2016-09-26T10:03:31Z</time>
      </trkpt>
      <trkpt lat="45.94982" lon="4.86214">
        <ele>272</ele>
        <time>2016-09-26T10:03:32Z</time>
      </trkpt>
      <trkpt lat="45.94978" lon="4.8621">
        <ele>272</ele>
        <time>2016-09-26T10:03:33Z</time>
      </trkpt>
      <trkpt lat="45.94975" lon="4.86206">
        <ele>272</ele>
        <time>2016-09-26T10:03:34Z</time>
      </trkpt>
      <trkpt lat="45.94971" lon="4.86201">
        <ele>272</ele>
        <time>2016-09-26T10:03:35Z</time>
      </trkpt>
      <trkpt lat="45.94967" lon="4.86196">
        <ele>272</ele>
        <time>2016-09-26T10:03:36Z</time>
      </trkpt>
      <trkpt lat="45.94964" lon="4.86192">
        <ele>272</ele>
        <time>2016-09-26T10:03:37Z</time>
      </trkpt>
      <trkpt lat="45.9496" lon="4.86188">
        <ele>272</ele>
        <time>2016-09-26T10:03:38Z</time>
      </trkpt>
      <trkpt lat="45.94956" lon="4.86184">
        <ele>273</ele>
        <time>2016-09-26T10:03:39Z</time>
      </trkpt>
      <trkpt lat="45.94949" lon="4.86176">
        <ele>273</ele>
        <time>2016-09-26T10:03:41Z</time>
      </trkpt>
      <trkpt lat="45.94945" lon="4.86172">
        <ele>273</ele>
        <time>2016-09-26T10:03:42Z</time>
      </trkpt>
      <trkpt lat="45.9494" lon="4.86162">
        <ele>273</ele>
        <time>2016-09-26T10:03:44Z</time>
      </trkpt>
      <trkpt lat="45.94937" lon="4.86157">
        <ele>273</ele>
        <time>2016-09-26T10:03:45Z</time>
      </trkpt>
      <trkpt lat="45.94933" lon="4.86152">
        <ele>273</ele>
        <time>2016-09-26T10:03:46Z</time>
      </trkpt>
      <trkpt lat="45.9493" lon="4.86147">
        <ele>273</ele>
        <time>2016-09-26T10:03:47Z</time>
      </trkpt>
      <trkpt lat="45.94926" lon="4.86142">
        <ele>273</ele>
        <time>2016-09-26T10:03:48Z</time>
      </trkpt>
      <trkpt lat="45.94923" lon="4.86137">
        <ele>273</ele>
        <time>2016-09-26T10:03:49Z</time>
      </trkpt>
      <trkpt lat="45.94918" lon="4.86128">
        <ele>273</ele>
        <time>2016-09-26T10:03:51Z</time>
      </trkpt>
      <trkpt lat="45.94916" lon="4.86123">
        <ele>274</ele>
        <time>2016-09-26T10:03:52Z</time>
      </trkpt>
      <trkpt lat="45.94911" lon="4.86113">
        <ele>274</ele>
        <time>2016-09-26T10:03:54Z</time>
      </trkpt>
      <trkpt lat="45.94908" lon="4.86108">
        <ele>274</ele>
        <time>2016-09-26T10:03:55Z</time>
      </trkpt>
      <trkpt lat="45.94903" lon="4.86098">
        <ele>274</ele>
        <time>2016-09-26T10:03:57Z</time>
      </trkpt>
      <trkpt lat="45.94901" lon="4.86092">
        <ele>274</ele>
        <time>2016-09-26T10:03:58Z</time>
      </trkpt>
      <trkpt lat="45.949" lon="4.86086">
        <ele>274</ele>
        <time>2016-09-26T10:03:59Z</time>
      </trkpt>
      <trkpt lat="45.94898" lon="4.8608">
        <ele>274</ele>
        <time>2016-09-26T10:04:00Z</time>
      </trkpt>
      <trkpt lat="45.94895" lon="4.86073">
        <ele>274</ele>
        <time>2016-09-26T10:04:01Z</time>
      </trkpt>
      <trkpt lat="45.94893" lon="4.86066">
        <ele>274</ele>
        <time>2016-09-26T10:04:02Z</time>
      </trkpt>
      <trkpt lat="45.94891" lon="4.86059">
        <ele>274</ele>
        <time>2016-09-26T10:04:03Z</time>
      </trkpt>
      <trkpt lat="45.94889" lon="4.86052">
        <ele>274</ele>
        <time>2016-09-26T10:04:04Z</time>
      </trkpt>
      <trkpt lat="45.94887" lon="4.86046">
        <ele>274</ele>
        <time>2016-09-26T10:04:05Z</time>
      </trkpt>
      <trkpt lat="45.94886" lon="4.86039">
        <ele>274</ele>
        <time>2016-09-26T10:04:06Z</time>
      </trkpt>
      <trkpt lat="45.94884" lon="4.86033">
        <ele>274</ele>
        <time>2016-09-26T10:04:07Z</time>
      </trkpt>
      <trkpt lat="45.94883" lon="4.86026">
        <ele>274</ele>
        <time>2016-09-26T10:04:08Z</time>
      </trkpt>
      <trkpt lat="45.94881" lon="4.8602">
        <ele>274</ele>
        <time>2016-09-26T10:04:09Z</time>
      </trkpt>
      <trkpt lat="45.94879" lon="4.86013">
        <ele>274</ele>
        <time>2016-09-26T10:04:10Z</time>
      </trkpt>
      <trkpt lat="45.94877" lon="4.86007">
        <ele>274</ele>
        <time>2016-09-26T10:04:11Z</time>
      </trkpt>
      <trkpt lat="45.94876" lon="4.86">
        <ele>274</ele>
        <time>2016-09-26T10:04:12Z</time>
      </trkpt>
      <trkpt lat="45.94873" lon="4.85994">
        <ele>275</ele>
        <time>2016-09-26T10:04:13Z</time>
      </trkpt>
      <trkpt lat="45.94872" lon="4.85987">
        <ele>275</ele>
        <time>2016-09-26T10:04:14Z</time>
      </trkpt>
      <trkpt lat="45.94872" lon="4.85981">
        <ele>275</ele>
        <time>2016-09-26T10:04:15Z</time>
      </trkpt>
      <trkpt lat="45.94869" lon="4.85974">
        <ele>275</ele>
        <time>2016-09-26T10:04:16Z</time>
      </trkpt>
      <trkpt lat="45.94868" lon="4.85968">
        <ele>275</ele>
        <time>2016-09-26T10:04:17Z</time>
      </trkpt>
      <trkpt lat="45.94866" lon="4.85961">
        <ele>275</ele>
        <time>2016-09-26T10:04:18Z</time>
      </trkpt>
      <trkpt lat="45.94864" lon="4.85955">
        <ele>275</ele>
        <time>2016-09-26T10:04:19Z</time>
      </trkpt>
      <trkpt lat="45.94863" lon="4.85948">
        <ele>275</ele>
        <time>2016-09-26T10:04:20Z</time>
      </trkpt>
      <trkpt lat="45.9486" lon="4.85941">
        <ele>275</ele>
        <time>2016-09-26T10:04:21Z</time>
      </trkpt>
      <trkpt lat="45.94858" lon="4.85935">
        <ele>275</ele>
        <time>2016-09-26T10:04:22Z</time>
      </trkpt>
      <trkpt lat="45.94857" lon="4.85929">
        <ele>275</ele>
        <time>2016-09-26T10:04:23Z</time>
      </trkpt>
      <trkpt lat="45.94855" lon="4.85923">
        <ele>275</ele>
        <time>2016-09-26T10:04:24Z</time>
      </trkpt>
      <trkpt lat="45.94852" lon="4.85911">
        <ele>276</ele>
        <time>2016-09-26T10:04:26Z</time>
      </trkpt>
      <trkpt lat="45.94851" lon="4.85904">
        <ele>276</ele>
        <time>2016-09-26T10:04:27Z</time>
      </trkpt>
      <trkpt lat="45.94849" lon="4.85898">
        <ele>276</ele>
        <time>2016-09-26T10:04:28Z</time>
      </trkpt>
      <trkpt lat="45.94848" lon="4.85891">
        <ele>276</ele>
        <time>2016-09-26T10:04:29Z</time>
      </trkpt>
      <trkpt lat="45.94847" lon="4.85884">
        <ele>276</ele>
        <time>2016-09-26T10:04:30Z</time>
      </trkpt>
      <trkpt lat="45.94845" lon="4.85878">
        <ele>276</ele>
        <time>2016-09-26T10:04:31Z</time>
      </trkpt>
      <trkpt lat="45.94844" lon="4.85871">
        <ele>276</ele>
        <time>2016-09-26T10:04:32Z</time>
      </trkpt>
      <trkpt lat="45.94841" lon="4.85864">
        <ele>276</ele>
        <time>2016-09-26T10:04:33Z</time>
      </trkpt>
      <trkpt lat="45.94839" lon="4.85857">
        <ele>276</ele>
        <time>2016-09-26T10:04:34Z</time>
      </trkpt>
      <trkpt lat="45.94837" lon="4.8585">
        <ele>276</ele>
        <time>2016-09-26T10:04:35Z</time>
      </trkpt>
      <trkpt lat="45.94834" lon="4.85843">
        <ele>277</ele>
        <time>2016-09-26T10:04:36Z</time>
      </trkpt>
      <trkpt lat="45.94832" lon="4.85836">
        <ele>277</ele>
        <time>2016-09-26T10:04:37Z</time>
      </trkpt>
      <trkpt lat="45.9483" lon="4.85828">
        <ele>277</ele>
        <time>2016-09-26T10:04:38Z</time>
      </trkpt>
      <trkpt lat="45.94829" lon="4.8582">
        <ele>278</ele>
        <time>2016-09-26T10:04:39Z</time>
      </trkpt>
      <trkpt lat="45.94827" lon="4.85812">
        <ele>278</ele>
        <time>2016-09-26T10:04:40Z</time>
      </trkpt>
      <trkpt lat="45.94825" lon="4.85805">
        <ele>278</ele>
        <time>2016-09-26T10:04:41Z</time>
      </trkpt>
      <trkpt lat="45.94823" lon="4.85799">
        <ele>278</ele>
        <time>2016-09-26T10:04:42Z</time>
      </trkpt>
      <trkpt lat="45.94822" lon="4.85792">
        <ele>278</ele>
        <time>2016-09-26T10:04:43Z</time>
      </trkpt>
      <trkpt lat="45.9482" lon="4.8578">
        <ele>278</ele>
        <time>2016-09-26T10:04:45Z</time>
      </trkpt>
      <trkpt lat="45.94818" lon="4.85774">
        <ele>278</ele>
        <time>2016-09-26T10:04:46Z</time>
      </trkpt>
      <trkpt lat="45.94816" lon="4.85767">
        <ele>278</ele>
        <time>2016-09-26T10:04:47Z</time>
      </trkpt>
      <trkpt lat="45.94814" lon="4.8576">
        <ele>278</ele>
        <time>2016-09-26T10:04:48Z</time>
      </trkpt>
      <trkpt lat="45.94812" lon="4.85754">
        <ele>278</ele>
        <time>2016-09-26T10:04:49Z</time>
      </trkpt>
      <trkpt lat="45.9481" lon="4.85746">
        <ele>279</ele>
        <time>2016-09-26T10:04:50Z</time>
      </trkpt>
      <trkpt lat="45.94809" lon="4.85739">
        <ele>279</ele>
        <time>2016-09-26T10:04:51Z</time>
      </trkpt>
      <trkpt lat="45.94806" lon="4.85732">
        <ele>280</ele>
        <time>2016-09-26T10:04:52Z</time>
      </trkpt>
      <trkpt lat="45.94804" lon="4.85725">
        <ele>280</ele>
        <time>2016-09-26T10:04:53Z</time>
      </trkpt>
      <trkpt lat="45.94802" lon="4.85718">
        <ele>280</ele>
        <time>2016-09-26T10:04:54Z</time>
      </trkpt>
      <trkpt lat="45.948" lon="4.85711">
        <ele>280</ele>
        <time>2016-09-26T10:04:55Z</time>
      </trkpt>
      <trkpt lat="45.94798" lon="4.85704">
        <ele>280</ele>
        <time>2016-09-26T10:04:56Z</time>
      </trkpt>
      <trkpt lat="45.94796" lon="4.85696">
        <ele>280</ele>
        <time>2016-09-26T10:04:57Z</time>
      </trkpt>
      <trkpt lat="45.94794" lon="4.85689">
        <ele>280</ele>
        <time>2016-09-26T10:04:58Z</time>
      </trkpt>
      <trkpt lat="45.94792" lon="4.85682">
        <ele>280</ele>
        <time>2016-09-26T10:04:59Z</time>
      </trkpt>
      <trkpt lat="45.94791" lon="4.85675">
        <ele>280</ele>
        <time>2016-09-26T10:05:00Z</time>
      </trkpt>
      <trkpt lat="45.94789" lon="4.85668">
        <ele>280</ele>
        <time>2016-09-26T10:05:01Z</time>
      </trkpt>
      <trkpt lat="45.94787" lon="4.85661">
        <ele>281</ele>
        <time>2016-09-26T10:05:02Z</time>
      </trkpt>
      <trkpt lat="45.94785" lon="4.85653">
        <ele>281</ele>
        <time>2016-09-26T10:05:03Z</time>
      </trkpt>
      <trkpt lat="45.94783" lon="4.85646">
        <ele>281</ele>
        <time>2016-09-26T10:05:04Z</time>
      </trkpt>
      <trkpt lat="45.94781" lon="4.85638">
        <ele>281</ele>
        <time>2016-09-26T10:05:05Z</time>
      </trkpt>
      <trkpt lat="45.94779" lon="4.8563">
        <ele>280</ele>
        <time>2016-09-26T10:05:06Z</time>
      </trkpt>
      <trkpt lat="45.94778" lon="4.85621">
        <ele>280</ele>
        <time>2016-09-26T10:05:07Z</time>
      </trkpt>
      <trkpt lat="45.94777" lon="4.85613">
        <ele>280</ele>
        <time>2016-09-26T10:05:08Z</time>
      </trkpt>
      <trkpt lat="45.94775" lon="4.85604">
        <ele>280</ele>
        <time>2016-09-26T10:05:09Z</time>
      </trkpt>
      <trkpt lat="45.94774" lon="4.85595">
        <ele>280</ele>
        <time>2016-09-26T10:05:10Z</time>
      </trkpt>
      <trkpt lat="45.94772" lon="4.85586">
        <ele>280</ele>
        <time>2016-09-26T10:05:11Z</time>
      </trkpt>
      <trkpt lat="45.9477" lon="4.85576">
        <ele>279</ele>
        <time>2016-09-26T10:05:12Z</time>
      </trkpt>
      <trkpt lat="45.94768" lon="4.85566">
        <ele>279</ele>
        <time>2016-09-26T10:05:13Z</time>
      </trkpt>
      <trkpt lat="45.94765" lon="4.85555">
        <ele>278</ele>
        <time>2016-09-26T10:05:14Z</time>
      </trkpt>
      <trkpt lat="45.94764" lon="4.85544">
        <ele>278</ele>
        <time>2016-09-26T10:05:15Z</time>
      </trkpt>
      <trkpt lat="45.94763" lon="4.85532">
        <ele>278</ele>
        <time>2016-09-26T10:05:16Z</time>
      </trkpt>
      <trkpt lat="45.9476" lon="4.8552">
        <ele>277</ele>
        <time>2016-09-26T10:05:17Z</time>
      </trkpt>
      <trkpt lat="45.94758" lon="4.85509">
        <ele>277</ele>
        <time>2016-09-26T10:05:18Z</time>
      </trkpt>
      <trkpt lat="45.94757" lon="4.85496">
        <ele>276</ele>
        <time>2016-09-26T10:05:19Z</time>
      </trkpt>
      <trkpt lat="45.94756" lon="4.85484">
        <ele>275</ele>
        <time>2016-09-26T10:05:20Z</time>
      </trkpt>
      <trkpt lat="45.94755" lon="4.85472">
        <ele>275</ele>
        <time>2016-09-26T10:05:21Z</time>
      </trkpt>
      <trkpt lat="45.94754" lon="4.85459">
        <ele>275</ele>
        <time>2016-09-26T10:05:22Z</time>
      </trkpt>
      <trkpt lat="45.94752" lon="4.85446">
        <ele>274</ele>
        <time>2016-09-26T10:05:23Z</time>
      </trkpt>
      <trkpt lat="45.94751" lon="4.85434">
        <ele>274</ele>
        <time>2016-09-26T10:05:24Z</time>
      </trkpt>
      <trkpt lat="45.9475" lon="4.85422">
        <ele>273</ele>
        <time>2016-09-26T10:05:25Z</time>
      </trkpt>
      <trkpt lat="45.94748" lon="4.85409">
        <ele>273</ele>
        <time>2016-09-26T10:05:26Z</time>
      </trkpt>
      <trkpt lat="45.94747" lon="4.85397">
        <ele>272</ele>
        <time>2016-09-26T10:05:27Z</time>
      </trkpt>
      <trkpt lat="45.94746" lon="4.85385">
        <ele>272</ele>
        <time>2016-09-26T10:05:28Z</time>
      </trkpt>
      <trkpt lat="45.94744" lon="4.85373">
        <ele>271</ele>
        <time>2016-09-26T10:05:29Z</time>
      </trkpt>
      <trkpt lat="45.94743" lon="4.85361">
        <ele>271</ele>
        <time>2016-09-26T10:05:30Z</time>
      </trkpt>
      <trkpt lat="45.94742" lon="4.8535">
        <ele>271</ele>
        <time>2016-09-26T10:05:31Z</time>
      </trkpt>
      <trkpt lat="45.94739" lon="4.85339">
        <ele>270</ele>
        <time>2016-09-26T10:05:32Z</time>
      </trkpt>
      <trkpt lat="45.94738" lon="4.85328">
        <ele>270</ele>
        <time>2016-09-26T10:05:33Z</time>
      </trkpt>
      <trkpt lat="45.94736" lon="4.85318">
        <ele>270</ele>
        <time>2016-09-26T10:05:34Z</time>
      </trkpt>
      <trkpt lat="45.94735" lon="4.85308">
        <ele>270</ele>
        <time>2016-09-26T10:05:35Z</time>
      </trkpt>
      <trkpt lat="45.94734" lon="4.85298">
        <ele>270</ele>
        <time>2016-09-26T10:05:36Z</time>
      </trkpt>
      <trkpt lat="45.94733" lon="4.85288">
        <ele>269</ele>
        <time>2016-09-26T10:05:37Z</time>
      </trkpt>
      <trkpt lat="45.94732" lon="4.85279">
        <ele>269</ele>
        <time>2016-09-26T10:05:38Z</time>
      </trkpt>
      <trkpt lat="45.94731" lon="4.8527">
        <ele>269</ele>
        <time>2016-09-26T10:05:39Z</time>
      </trkpt>
      <trkpt lat="45.94731" lon="4.85261">
        <ele>269</ele>
        <time>2016-09-26T10:05:40Z</time>
      </trkpt>
      <trkpt lat="45.9473" lon="4.85252">
        <ele>269</ele>
        <time>2016-09-26T10:05:41Z</time>
      </trkpt>
      <trkpt lat="45.94729" lon="4.85244">
        <ele>269</ele>
        <time>2016-09-26T10:05:42Z</time>
      </trkpt>
      <trkpt lat="45.94728" lon="4.85235">
        <ele>269</ele>
        <time>2016-09-26T10:05:43Z</time>
      </trkpt>
      <trkpt lat="45.94727" lon="4.85227">
        <ele>269</ele>
        <time>2016-09-26T10:05:44Z</time>
      </trkpt>
      <trkpt lat="45.94726" lon="4.85218">
        <ele>269</ele>
        <time>2016-09-26T10:05:45Z</time>
      </trkpt>
      <trkpt lat="45.94726" lon="4.8521">
        <ele>269</ele>
        <time>2016-09-26T10:05:46Z</time>
      </trkpt>
      <trkpt lat="45.94725" lon="4.85201">
        <ele>269</ele>
        <time>2016-09-26T10:05:47Z</time>
      </trkpt>
      <trkpt lat="45.94724" lon="4.85192">
        <ele>269</ele>
        <time>2016-09-26T10:05:48Z</time>
      </trkpt>
      <trkpt lat="45.94723" lon="4.85183">
        <ele>269</ele>
        <time>2016-09-26T10:05:49Z</time>
      </trkpt>
      <trkpt lat="45.94722" lon="4.85174">
        <ele>269</ele>
        <time>2016-09-26T10:05:50Z</time>
      </trkpt>
      <trkpt lat="45.94721" lon="4.85165">
        <ele>269</ele>
        <time>2016-09-26T10:05:51Z</time>
      </trkpt>
      <trkpt lat="45.94721" lon="4.85157">
        <ele>269</ele>
        <time>2016-09-26T10:05:52Z</time>
      </trkpt>
      <trkpt lat="45.94719" lon="4.85149">
        <ele>269</ele>
        <time>2016-09-26T10:05:53Z</time>
      </trkpt>
      <trkpt lat="45.94718" lon="4.85141">
        <ele>269</ele>
        <time>2016-09-26T10:05:54Z</time>
      </trkpt>
      <trkpt lat="45.94717" lon="4.85133">
        <ele>269</ele>
        <time>2016-09-26T10:05:55Z</time>
      </trkpt>
      <trkpt lat="45.94716" lon="4.85124">
        <ele>269</ele>
        <time>2016-09-26T10:05:56Z</time>
      </trkpt>
      <trkpt lat="45.94715" lon="4.85115">
        <ele>269</ele>
        <time>2016-09-26T10:05:57Z</time>
      </trkpt>
      <trkpt lat="45.94714" lon="4.85106">
        <ele>269</ele>
        <time>2016-09-26T10:05:58Z</time>
      </trkpt>
      <trkpt lat="45.94712" lon="4.85097">
        <ele>269</ele>
        <time>2016-09-26T10:05:59Z</time>
      </trkpt>
      <trkpt lat="45.9471" lon="4.85088">
        <ele>269</ele>
        <time>2016-09-26T10:06:00Z</time>
      </trkpt>
      <trkpt lat="45.9471" lon="4.85079">
        <ele>269</ele>
        <time>2016-09-26T10:06:01Z</time>
      </trkpt>
      <trkpt lat="45.94708" lon="4.85071">
        <ele>269</ele>
        <time>2016-09-26T10:06:02Z</time>
      </trkpt>
      <trkpt lat="45.94707" lon="4.85062">
        <ele>269</ele>
        <time>2016-09-26T10:06:03Z</time>
      </trkpt>
      <trkpt lat="45.94706" lon="4.85054">
        <ele>269</ele>
        <time>2016-09-26T10:06:04Z</time>
      </trkpt>
      <trkpt lat="45.94705" lon="4.85046">
        <ele>269</ele>
        <time>2016-09-26T10:06:05Z</time>
      </trkpt>
      <trkpt lat="45.94704" lon="4.85038">
        <ele>269</ele>
        <time>2016-09-26T10:06:06Z</time>
      </trkpt>
      <trkpt lat="45.94702" lon="4.8503">
        <ele>269</ele>
        <time>2016-09-26T10:06:07Z</time>
      </trkpt>
      <trkpt lat="45.94701" lon="4.85022">
        <ele>269</ele>
        <time>2016-09-26T10:06:08Z</time>
      </trkpt>
      <trkpt lat="45.947" lon="4.85014">
        <ele>269</ele>
        <time>2016-09-26T10:06:09Z</time>
      </trkpt>
      <trkpt lat="45.94699" lon="4.85006">
        <ele>269</ele>
        <time>2016-09-26T10:06:10Z</time>
      </trkpt>
      <trkpt lat="45.94698" lon="4.84999">
        <ele>269</ele>
        <time>2016-09-26T10:06:11Z</time>
      </trkpt>
      <trkpt lat="45.94697" lon="4.84991">
        <ele>269</ele>
        <time>2016-09-26T10:06:12Z</time>
      </trkpt>
      <trkpt lat="45.94696" lon="4.84984">
        <ele>269</ele>
        <time>2016-09-26T10:06:13Z</time>
      </trkpt>
      <trkpt lat="45.94695" lon="4.84977">
        <ele>269</ele>
        <time>2016-09-26T10:06:14Z</time>
      </trkpt>
      <trkpt lat="45.94694" lon="4.8497">
        <ele>269</ele>
        <time>2016-09-26T10:06:15Z</time>
      </trkpt>
      <trkpt lat="45.94694" lon="4.84963">
        <ele>269</ele>
        <time>2016-09-26T10:06:16Z</time>
      </trkpt>
      <trkpt lat="45.94694" lon="4.84955">
        <ele>269</ele>
        <time>2016-09-26T10:06:17Z</time>
      </trkpt>
      <trkpt lat="45.94693" lon="4.84948">
        <ele>269</ele>
        <time>2016-09-26T10:06:18Z</time>
      </trkpt>
      <trkpt lat="45.94692" lon="4.8494">
        <ele>269</ele>
        <time>2016-09-26T10:06:19Z</time>
      </trkpt>
      <trkpt lat="45.94691" lon="4.84932">
        <ele>269</ele>
        <time>2016-09-26T10:06:20Z</time>
      </trkpt>
      <trkpt lat="45.9469" lon="4.84925">
        <ele>269</ele>
        <time>2016-09-26T10:06:21Z</time>
      </trkpt>
      <trkpt lat="45.94689" lon="4.84917">
        <ele>269</ele>
        <time>2016-09-26T10:06:22Z</time>
      </trkpt>
      <trkpt lat="45.94689" lon="4.84909">
        <ele>269</ele>
        <time>2016-09-26T10:06:23Z</time>
      </trkpt>
      <trkpt lat="45.94688" lon="4.84902">
        <ele>268</ele>
        <time>2016-09-26T10:06:24Z</time>
      </trkpt>
      <trkpt lat="45.94687" lon="4.84895">
        <ele>268</ele>
        <time>2016-09-26T10:06:25Z</time>
      </trkpt>
      <trkpt lat="45.94686" lon="4.84888">
        <ele>268</ele>
        <time>2016-09-26T10:06:26Z</time>
      </trkpt>
      <trkpt lat="45.94685" lon="4.8488">
        <ele>268</ele>
        <time>2016-09-26T10:06:27Z</time>
      </trkpt>
      <trkpt lat="45.94684" lon="4.84873">
        <ele>268</ele>
        <time>2016-09-26T10:06:28Z</time>
      </trkpt>
      <trkpt lat="45.94683" lon="4.84864">
        <ele>268</ele>
        <time>2016-09-26T10:06:29Z</time>
      </trkpt>
      <trkpt lat="45.94683" lon="4.84856">
        <ele>268</ele>
        <time>2016-09-26T10:06:30Z</time>
      </trkpt>
      <trkpt lat="45.94683" lon="4.84847">
        <ele>268</ele>
        <time>2016-09-26T10:06:31Z</time>
      </trkpt>
      <trkpt lat="45.94682" lon="4.84838">
        <ele>268</ele>
        <time>2016-09-26T10:06:32Z</time>
      </trkpt>
      <trkpt lat="45.9468" lon="4.84829">
        <ele>268</ele>
        <time>2016-09-26T10:06:33Z</time>
      </trkpt>
      <trkpt lat="45.94679" lon="4.8482">
        <ele>268</ele>
        <time>2016-09-26T10:06:34Z</time>
      </trkpt>
      <trkpt lat="45.94678" lon="4.8481">
        <ele>268</ele>
        <time>2016-09-26T10:06:35Z</time>
      </trkpt>
      <trkpt lat="45.94677" lon="4.84801">
        <ele>268</ele>
        <time>2016-09-26T10:06:36Z</time>
      </trkpt>
      <trkpt lat="45.94677" lon="4.84791">
        <ele>269</ele>
        <time>2016-09-26T10:06:37Z</time>
      </trkpt>
      <trkpt lat="45.94676" lon="4.84783">
        <ele>269</ele>
        <time>2016-09-26T10:06:38Z</time>
      </trkpt>
      <trkpt lat="45.94676" lon="4.84774">
        <ele>269</ele>
        <time>2016-09-26T10:06:39Z</time>
      </trkpt>
      <trkpt lat="45.94676" lon="4.84766">
        <ele>269</ele>
        <time>2016-09-26T10:06:40Z</time>
      </trkpt>
      <trkpt lat="45.94676" lon="4.84758">
        <ele>269</ele>
        <time>2016-09-26T10:06:41Z</time>
      </trkpt>
      <trkpt lat="45.94675" lon="4.8475">
        <ele>269</ele>
        <time>2016-09-26T10:06:42Z</time>
      </trkpt>
      <trkpt lat="45.94675" lon="4.84743">
        <ele>269</ele>
        <time>2016-09-26T10:06:43Z</time>
      </trkpt>
      <trkpt lat="45.94674" lon="4.84735">
        <ele>269</ele>
        <time>2016-09-26T10:06:44Z</time>
      </trkpt>
      <trkpt lat="45.94674" lon="4.84727">
        <ele>269</ele>
        <time>2016-09-26T10:06:45Z</time>
      </trkpt>
      <trkpt lat="45.94673" lon="4.84719">
        <ele>269</ele>
        <time>2016-09-26T10:06:46Z</time>
      </trkpt>
      <trkpt lat="45.94673" lon="4.84712">
        <ele>269</ele>
        <time>2016-09-26T10:06:47Z</time>
      </trkpt>
      <trkpt lat="45.94673" lon="4.84704">
        <ele>269</ele>
        <time>2016-09-26T10:06:48Z</time>
      </trkpt>
      <trkpt lat="45.94672" lon="4.84696">
        <ele>269</ele>
        <time>2016-09-26T10:06:49Z</time>
      </trkpt>
      <trkpt lat="45.94671" lon="4.84688">
        <ele>269</ele>
        <time>2016-09-26T10:06:50Z</time>
      </trkpt>
      <trkpt lat="45.94671" lon="4.8468">
        <ele>269</ele>
        <time>2016-09-26T10:06:51Z</time>
      </trkpt>
      <trkpt lat="45.94671" lon="4.84671">
        <ele>269</ele>
        <time>2016-09-26T10:06:52Z</time>
      </trkpt>
      <trkpt lat="45.94671" lon="4.84663">
        <ele>269</ele>
        <time>2016-09-26T10:06:53Z</time>
      </trkpt>
      <trkpt lat="45.94671" lon="4.84654">
        <ele>268</ele>
        <time>2016-09-26T10:06:54Z</time>
      </trkpt>
      <trkpt lat="45.9467" lon="4.84645">
        <ele>268</ele>
        <time>2016-09-26T10:06:55Z</time>
      </trkpt>
      <trkpt lat="45.94669" lon="4.84636">
        <ele>268</ele>
        <time>2016-09-26T10:06:56Z</time>
      </trkpt>
      <trkpt lat="45.94669" lon="4.84627">
        <ele>268</ele>
        <time>2016-09-26T10:06:57Z</time>
      </trkpt>
      <trkpt lat="45.94669" lon="4.84619">
        <ele>268</ele>
        <time>2016-09-26T10:06:58Z</time>
      </trkpt>
      <trkpt lat="45.94668" lon="4.8461">
        <ele>268</ele>
        <time>2016-09-26T10:06:59Z</time>
      </trkpt>
      <trkpt lat="45.94668" lon="4.84602">
        <ele>268</ele>
        <time>2016-09-26T10:07:00Z</time>
      </trkpt>
      <trkpt lat="45.94667" lon="4.84594">
        <ele>268</ele>
        <time>2016-09-26T10:07:01Z</time>
      </trkpt>
      <trkpt lat="45.94667" lon="4.84587">
        <ele>268</ele>
        <time>2016-09-26T10:07:02Z</time>
      </trkpt>
      <trkpt lat="45.94666" lon="4.8458">
        <ele>268</ele>
        <time>2016-09-26T10:07:03Z</time>
      </trkpt>
      <trkpt lat="45.94666" lon="4.84573">
        <ele>268</ele>
        <time>2016-09-26T10:07:04Z</time>
      </trkpt>
      <trkpt lat="45.94665" lon="4.84565">
        <ele>268</ele>
        <time>2016-09-26T10:07:05Z</time>
      </trkpt>
      <trkpt lat="45.94663" lon="4.84558">
        <ele>268</ele>
        <time>2016-09-26T10:07:06Z</time>
      </trkpt>
      <trkpt lat="45.94663" lon="4.8455">
        <ele>268</ele>
        <time>2016-09-26T10:07:07Z</time>
      </trkpt>
      <trkpt lat="45.94663" lon="4.84542">
        <ele>268</ele>
        <time>2016-09-26T10:07:08Z</time>
      </trkpt>
      <trkpt lat="45.94661" lon="4.84534">
        <ele>268</ele>
        <time>2016-09-26T10:07:09Z</time>
      </trkpt>
      <trkpt lat="45.9466" lon="4.84526">
        <ele>268</ele>
        <time>2016-09-26T10:07:10Z</time>
      </trkpt>
      <trkpt lat="45.94659" lon="4.84518">
        <ele>268</ele>
        <time>2016-09-26T10:07:11Z</time>
      </trkpt>
      <trkpt lat="45.94658" lon="4.8451">
        <ele>268</ele>
        <time>2016-09-26T10:07:12Z</time>
      </trkpt>
      <trkpt lat="45.94657" lon="4.84503">
        <ele>268</ele>
        <time>2016-09-26T10:07:13Z</time>
      </trkpt>
      <trkpt lat="45.94657" lon="4.84496">
        <ele>268</ele>
        <time>2016-09-26T10:07:14Z</time>
      </trkpt>
      <trkpt lat="45.94656" lon="4.84489">
        <ele>268</ele>
        <time>2016-09-26T10:07:15Z</time>
      </trkpt>
      <trkpt lat="45.94655" lon="4.84482">
        <ele>268</ele>
        <time>2016-09-26T10:07:16Z</time>
      </trkpt>
      <trkpt lat="45.94654" lon="4.84475">
        <ele>268</ele>
        <time>2016-09-26T10:07:17Z</time>
      </trkpt>
      <trkpt lat="45.94654" lon="4.84468">
        <ele>268</ele>
        <time>2016-09-26T10:07:18Z</time>
      </trkpt>
      <trkpt lat="45.94653" lon="4.8446">
        <ele>268</ele>
        <time>2016-09-26T10:07:19Z</time>
      </trkpt>
      <trkpt lat="45.94653" lon="4.84453">
        <ele>268</ele>
        <time>2016-09-26T10:07:20Z</time>
      </trkpt>
      <trkpt lat="45.94652" lon="4.84446">
        <ele>268</ele>
        <time>2016-09-26T10:07:21Z</time>
      </trkpt>
      <trkpt lat="45.94652" lon="4.84439">
        <ele>268</ele>
        <time>2016-09-26T10:07:22Z</time>
      </trkpt>
      <trkpt lat="45.94651" lon="4.84431">
        <ele>268</ele>
        <time>2016-09-26T10:07:23Z</time>
      </trkpt>
      <trkpt lat="45.9465" lon="4.84424">
        <ele>268</ele>
        <time>2016-09-26T10:07:24Z</time>
      </trkpt>
      <trkpt lat="45.94649" lon="4.84416">
        <ele>268</ele>
        <time>2016-09-26T10:07:25Z</time>
      </trkpt>
      <trkpt lat="45.94649" lon="4.84408">
        <ele>268</ele>
        <time>2016-09-26T10:07:26Z</time>
      </trkpt>
      <trkpt lat="45.94648" lon="4.844">
        <ele>268</ele>
        <time>2016-09-26T10:07:27Z</time>
      </trkpt>
      <trkpt lat="45.94647" lon="4.84392">
        <ele>268</ele>
        <time>2016-09-26T10:07:28Z</time>
      </trkpt>
      <trkpt lat="45.94646" lon="4.84384">
        <ele>268</ele>
        <time>2016-09-26T10:07:29Z</time>
      </trkpt>
      <trkpt lat="45.94645" lon="4.84376">
        <ele>268</ele>
        <time>2016-09-26T10:07:30Z</time>
      </trkpt>
      <trkpt lat="45.94644" lon="4.84369">
        <ele>268</ele>
        <time>2016-09-26T10:07:31Z</time>
      </trkpt>
      <trkpt lat="45.94644" lon="4.84362">
        <ele>268</ele>
        <time>2016-09-26T10:07:32Z</time>
      </trkpt>
      <trkpt lat="45.94643" lon="4.84355">
        <ele>268</ele>
        <time>2016-09-26T10:07:33Z</time>
      </trkpt>
      <trkpt lat="45.94642" lon="4.84348">
        <ele>268</ele>
        <time>2016-09-26T10:07:34Z</time>
      </trkpt>
      <trkpt lat="45.94641" lon="4.8434">
        <ele>268</ele>
        <time>2016-09-26T10:07:35Z</time>
      </trkpt>
      <trkpt lat="45.9464" lon="4.84332">
        <ele>268</ele>
        <time>2016-09-26T10:07:36Z</time>
      </trkpt>
      <trkpt lat="45.9464" lon="4.84325">
        <ele>269</ele>
        <time>2016-09-26T10:07:37Z</time>
      </trkpt>
      <trkpt lat="45.9464" lon="4.84318">
        <ele>269</ele>
        <time>2016-09-26T10:07:38Z</time>
      </trkpt>
      <trkpt lat="45.94639" lon="4.8431">
        <ele>269</ele>
        <time>2016-09-26T10:07:39Z</time>
      </trkpt>
      <trkpt lat="45.94638" lon="4.84302">
        <ele>269</ele>
        <time>2016-09-26T10:07:40Z</time>
      </trkpt>
      <trkpt lat="45.94637" lon="4.84293">
        <ele>269</ele>
        <time>2016-09-26T10:07:41Z</time>
      </trkpt>
      <trkpt lat="45.94636" lon="4.84285">
        <ele>269</ele>
        <time>2016-09-26T10:07:42Z</time>
      </trkpt>
      <trkpt lat="45.94635" lon="4.84277">
        <ele>269</ele>
        <time>2016-09-26T10:07:43Z</time>
      </trkpt>
      <trkpt lat="45.94633" lon="4.84269">
        <ele>269</ele>
        <time>2016-09-26T10:07:44Z</time>
      </trkpt>
      <trkpt lat="45.94632" lon="4.84261">
        <ele>269</ele>
        <time>2016-09-26T10:07:45Z</time>
      </trkpt>
      <trkpt lat="45.94631" lon="4.84252">
        <ele>269</ele>
        <time>2016-09-26T10:07:46Z</time>
      </trkpt>
      <trkpt lat="45.9463" lon="4.84243">
        <ele>269</ele>
        <time>2016-09-26T10:07:47Z</time>
      </trkpt>
      <trkpt lat="45.94628" lon="4.84234">
        <ele>269</ele>
        <time>2016-09-26T10:07:48Z</time>
      </trkpt>
      <trkpt lat="45.94627" lon="4.84225">
        <ele>269</ele>
        <time>2016-09-26T10:07:49Z</time>
      </trkpt>
      <trkpt lat="45.94626" lon="4.84216">
        <ele>269</ele>
        <time>2016-09-26T10:07:50Z</time>
      </trkpt>
      <trkpt lat="45.94624" lon="4.84208">
        <ele>269</ele>
        <time>2016-09-26T10:07:51Z</time>
      </trkpt>
      <trkpt lat="45.94623" lon="4.842">
        <ele>269</ele>
        <time>2016-09-26T10:07:52Z</time>
      </trkpt>
      <trkpt lat="45.94624" lon="4.84192">
        <ele>269</ele>
        <time>2016-09-26T10:07:53Z</time>
      </trkpt>
      <trkpt lat="45.94622" lon="4.84184">
        <ele>269</ele>
        <time>2016-09-26T10:07:54Z</time>
      </trkpt>
      <trkpt lat="45.94621" lon="4.84177">
        <ele>269</ele>
        <time>2016-09-26T10:07:55Z</time>
      </trkpt>
      <trkpt lat="45.94619" lon="4.84169">
        <ele>269</ele>
        <time>2016-09-26T10:07:56Z</time>
      </trkpt>
      <trkpt lat="45.94618" lon="4.84161">
        <ele>269</ele>
        <time>2016-09-26T10:07:57Z</time>
      </trkpt>
      <trkpt lat="45.94617" lon="4.84153">
        <ele>269</ele>
        <time>2016-09-26T10:07:58Z</time>
      </trkpt>
      <trkpt lat="45.94615" lon="4.84145">
        <ele>269</ele>
        <time>2016-09-26T10:07:59Z</time>
      </trkpt>
      <trkpt lat="45.94614" lon="4.84137">
        <ele>269</ele>
        <time>2016-09-26T10:08:00Z</time>
      </trkpt>
      <trkpt lat="45.94613" lon="4.84129">
        <ele>269</ele>
        <time>2016-09-26T10:08:01Z</time>
      </trkpt>
      <trkpt lat="45.94612" lon="4.84121">
        <ele>269</ele>
        <time>2016-09-26T10:08:02Z</time>
      </trkpt>
      <trkpt lat="45.94611" lon="4.84113">
        <ele>269</ele>
        <time>2016-09-26T10:08:03Z</time>
      </trkpt>
      <trkpt lat="45.9461" lon="4.84104">
        <ele>269</ele>
        <time>2016-09-26T10:08:04Z</time>
      </trkpt>
      <trkpt lat="45.94608" lon="4.84096">
        <ele>269</ele>
        <time>2016-09-26T10:08:05Z</time>
      </trkpt>
      <trkpt lat="45.94607" lon="4.84087">
        <ele>269</ele>
        <time>2016-09-26T10:08:06Z</time>
      </trkpt>
      <trkpt lat="45.94605" lon="4.84079">
        <ele>269</ele>
        <time>2016-09-26T10:08:07Z</time>
      </trkpt>
      <trkpt lat="45.94605" lon="4.8407">
        <ele>269</ele>
        <time>2016-09-26T10:08:08Z</time>
      </trkpt>
      <trkpt lat="45.94605" lon="4.84062">
        <ele>269</ele>
        <time>2016-09-26T10:08:09Z</time>
      </trkpt>
      <trkpt lat="45.94604" lon="4.84053">
        <ele>269</ele>
        <time>2016-09-26T10:08:10Z</time>
      </trkpt>
      <trkpt lat="45.94603" lon="4.84045">
        <ele>269</ele>
        <time>2016-09-26T10:08:11Z</time>
      </trkpt>
      <trkpt lat="45.94602" lon="4.84036">
        <ele>269</ele>
        <time>2016-09-26T10:08:12Z</time>
      </trkpt>
      <trkpt lat="45.94601" lon="4.84027">
        <ele>269</ele>
        <time>2016-09-26T10:08:13Z</time>
      </trkpt>
      <trkpt lat="45.94599" lon="4.84018">
        <ele>269</ele>
        <time>2016-09-26T10:08:14Z</time>
      </trkpt>
      <trkpt lat="45.94598" lon="4.84009">
        <ele>269</ele>
        <time>2016-09-26T10:08:15Z</time>
      </trkpt>
      <trkpt lat="45.94597" lon="4.83999">
        <ele>269</ele>
        <time>2016-09-26T10:08:16Z</time>
      </trkpt>
      <trkpt lat="45.94595" lon="4.8399">
        <ele>269</ele>
        <time>2016-09-26T10:08:17Z</time>
      </trkpt>
      <trkpt lat="45.94593" lon="4.8398">
        <ele>268</ele>
        <time>2016-09-26T10:08:18Z</time>
      </trkpt>
      <trkpt lat="45.94592" lon="4.8397">
        <ele>268</ele>
        <time>2016-09-26T10:08:19Z</time>
      </trkpt>
      <trkpt lat="45.94591" lon="4.8396">
        <ele>268</ele>
        <time>2016-09-26T10:08:20Z</time>
      </trkpt>
      <trkpt lat="45.94589" lon="4.8395">
        <ele>268</ele>
        <time>2016-09-26T10:08:21Z</time>
      </trkpt>
      <trkpt lat="45.94588" lon="4.83941">
        <ele>268</ele>
        <time>2016-09-26T10:08:22Z</time>
      </trkpt>
      <trkpt lat="45.94585" lon="4.83932">
        <ele>268</ele>
        <time>2016-09-26T10:08:23Z</time>
      </trkpt>
      <trkpt lat="45.94584" lon="4.83922">
        <ele>268</ele>
        <time>2016-09-26T10:08:24Z</time>
      </trkpt>
      <trkpt lat="45.94582" lon="4.83911">
        <ele>268</ele>
        <time>2016-09-26T10:08:25Z</time>
      </trkpt>
      <trkpt lat="45.94581" lon="4.839">
        <ele>268</ele>
        <time>2016-09-26T10:08:26Z</time>
      </trkpt>
      <trkpt lat="45.9458" lon="4.83889">
        <ele>267</ele>
        <time>2016-09-26T10:08:27Z</time>
      </trkpt>
      <trkpt lat="45.94579" lon="4.83878">
        <ele>267</ele>
        <time>2016-09-26T10:08:28Z</time>
      </trkpt>
      <trkpt lat="45.94577" lon="4.83867">
        <ele>267</ele>
        <time>2016-09-26T10:08:29Z</time>
      </trkpt>
      <trkpt lat="45.94575" lon="4.83855">
        <ele>266</ele>
        <time>2016-09-26T10:08:30Z</time>
      </trkpt>
      <trkpt lat="45.94574" lon="4.83844">
        <ele>266</ele>
        <time>2016-09-26T10:08:31Z</time>
      </trkpt>
      <trkpt lat="45.94572" lon="4.83833">
        <ele>265</ele>
        <time>2016-09-26T10:08:32Z</time>
      </trkpt>
      <trkpt lat="45.94571" lon="4.83821">
        <ele>264</ele>
        <time>2016-09-26T10:08:33Z</time>
      </trkpt>
      <trkpt lat="45.94569" lon="4.8381">
        <ele>264</ele>
        <time>2016-09-26T10:08:34Z</time>
      </trkpt>
      <trkpt lat="45.94568" lon="4.83799">
        <ele>264</ele>
        <time>2016-09-26T10:08:35Z</time>
      </trkpt>
      <trkpt lat="45.94566" lon="4.83787">
        <ele>264</ele>
        <time>2016-09-26T10:08:36Z</time>
      </trkpt>
      <trkpt lat="45.94564" lon="4.83777">
        <ele>264</ele>
        <time>2016-09-26T10:08:37Z</time>
      </trkpt>
      <trkpt lat="45.94562" lon="4.83766">
        <ele>263</ele>
        <time>2016-09-26T10:08:38Z</time>
      </trkpt>
      <trkpt lat="45.94561" lon="4.83756">
        <ele>263</ele>
        <time>2016-09-26T10:08:39Z</time>
      </trkpt>
      <trkpt lat="45.94559" lon="4.83746">
        <ele>262</ele>
        <time>2016-09-26T10:08:40Z</time>
      </trkpt>
      <trkpt lat="45.94558" lon="4.83736">
        <ele>262</ele>
        <time>2016-09-26T10:08:41Z</time>
      </trkpt>
      <trkpt lat="45.94556" lon="4.83726">
        <ele>262</ele>
        <time>2016-09-26T10:08:42Z</time>
      </trkpt>
      <trkpt lat="45.94554" lon="4.83717">
        <ele>262</ele>
        <time>2016-09-26T10:08:43Z</time>
      </trkpt>
      <trkpt lat="45.94553" lon="4.83708">
        <ele>262</ele>
        <time>2016-09-26T10:08:44Z</time>
      </trkpt>
      <trkpt lat="45.94551" lon="4.83698">
        <ele>262</ele>
        <time>2016-09-26T10:08:45Z</time>
      </trkpt>
      <trkpt lat="45.94549" lon="4.83689">
        <ele>262</ele>
        <time>2016-09-26T10:08:46Z</time>
      </trkpt>
      <trkpt lat="45.94548" lon="4.8368">
        <ele>262</ele>
        <time>2016-09-26T10:08:47Z</time>
      </trkpt>
      <trkpt lat="45.94546" lon="4.83671">
        <ele>262</ele>
        <time>2016-09-26T10:08:48Z</time>
      </trkpt>
      <trkpt lat="45.94545" lon="4.83662">
        <ele>261</ele>
        <time>2016-09-26T10:08:49Z</time>
      </trkpt>
      <trkpt lat="45.94543" lon="4.83653">
        <ele>261</ele>
        <time>2016-09-26T10:08:50Z</time>
      </trkpt>
      <trkpt lat="45.94542" lon="4.83644">
        <ele>261</ele>
        <time>2016-09-26T10:08:51Z</time>
      </trkpt>
      <trkpt lat="45.9454" lon="4.83635">
        <ele>261</ele>
        <time>2016-09-26T10:08:52Z</time>
      </trkpt>
      <trkpt lat="45.94538" lon="4.83627">
        <ele>261</ele>
        <time>2016-09-26T10:08:53Z</time>
      </trkpt>
      <trkpt lat="45.94536" lon="4.83618">
        <ele>261</ele>
        <time>2016-09-26T10:08:54Z</time>
      </trkpt>
      <trkpt lat="45.94534" lon="4.83609">
        <ele>261</ele>
        <time>2016-09-26T10:08:55Z</time>
      </trkpt>
      <trkpt lat="45.94532" lon="4.836">
        <ele>261</ele>
        <time>2016-09-26T10:08:56Z</time>
      </trkpt>
      <trkpt lat="45.9453" lon="4.83592">
        <ele>261</ele>
        <time>2016-09-26T10:08:57Z</time>
      </trkpt>
      <trkpt lat="45.94527" lon="4.83583">
        <ele>261</ele>
        <time>2016-09-26T10:08:58Z</time>
      </trkpt>
      <trkpt lat="45.94525" lon="4.83574">
        <ele>261</ele>
        <time>2016-09-26T10:08:59Z</time>
      </trkpt>
      <trkpt lat="45.94523" lon="4.83567">
        <ele>261</ele>
        <time>2016-09-26T10:09:00Z</time>
      </trkpt>
      <trkpt lat="45.9452" lon="4.83559">
        <ele>261</ele>
        <time>2016-09-26T10:09:01Z</time>
      </trkpt>
      <trkpt lat="45.94517" lon="4.83552">
        <ele>261</ele>
        <time>2016-09-26T10:09:02Z</time>
      </trkpt>
      <trkpt lat="45.94513" lon="4.83546">
        <ele>261</ele>
        <time>2016-09-26T10:09:03Z</time>
      </trkpt>
      <trkpt lat="45.94509" lon="4.8354">
        <ele>262</ele>
        <time>2016-09-26T10:09:04Z</time>
      </trkpt>
      <trkpt lat="45.94505" lon="4.83534">
        <ele>262</ele>
        <time>2016-09-26T10:09:05Z</time>
      </trkpt>
      <trkpt lat="45.94501" lon="4.83527">
        <ele>262</ele>
        <time>2016-09-26T10:09:06Z</time>
      </trkpt>
      <trkpt lat="45.94498" lon="4.83521">
        <ele>262</ele>
        <time>2016-09-26T10:09:07Z</time>
      </trkpt>
      <trkpt lat="45.94494" lon="4.83514">
        <ele>262</ele>
        <time>2016-09-26T10:09:08Z</time>
      </trkpt>
      <trkpt lat="45.94491" lon="4.83507">
        <ele>262</ele>
        <time>2016-09-26T10:09:09Z</time>
      </trkpt>
      <trkpt lat="45.94487" lon="4.835">
        <ele>262</ele>
        <time>2016-09-26T10:09:10Z</time>
      </trkpt>
      <trkpt lat="45.94482" lon="4.83494">
        <ele>263</ele>
        <time>2016-09-26T10:09:11Z</time>
      </trkpt>
      <trkpt lat="45.94477" lon="4.83486">
        <ele>263</ele>
        <time>2016-09-26T10:09:12Z</time>
      </trkpt>
      <trkpt lat="45.94472" lon="4.83479">
        <ele>263</ele>
        <time>2016-09-26T10:09:13Z</time>
      </trkpt>
      <trkpt lat="45.94467" lon="4.83471">
        <ele>263</ele>
        <time>2016-09-26T10:09:14Z</time>
      </trkpt>
      <trkpt lat="45.94463" lon="4.83464">
        <ele>263</ele>
        <time>2016-09-26T10:09:15Z</time>
      </trkpt>
      <trkpt lat="45.94459" lon="4.83457">
        <ele>263</ele>
        <time>2016-09-26T10:09:16Z</time>
      </trkpt>
      <trkpt lat="45.94455" lon="4.8345">
        <ele>263</ele>
        <time>2016-09-26T10:09:17Z</time>
      </trkpt>
      <trkpt lat="45.94452" lon="4.83443">
        <ele>263</ele>
        <time>2016-09-26T10:09:18Z</time>
      </trkpt>
      <trkpt lat="45.94448" lon="4.83436">
        <ele>263</ele>
        <time>2016-09-26T10:09:19Z</time>
      </trkpt>
      <trkpt lat="45.94444" lon="4.83429">
        <ele>264</ele>
        <time>2016-09-26T10:09:20Z</time>
      </trkpt>
      <trkpt lat="45.9444" lon="4.83422">
        <ele>264</ele>
        <time>2016-09-26T10:09:21Z</time>
      </trkpt>
      <trkpt lat="45.94437" lon="4.83415">
        <ele>264</ele>
        <time>2016-09-26T10:09:22Z</time>
      </trkpt>
      <trkpt lat="45.94433" lon="4.83407">
        <ele>264</ele>
        <time>2016-09-26T10:09:23Z</time>
      </trkpt>
      <trkpt lat="45.94431" lon="4.834">
        <ele>264</ele>
        <time>2016-09-26T10:09:24Z</time>
      </trkpt>
      <trkpt lat="45.94428" lon="4.83393">
        <ele>264</ele>
        <time>2016-09-26T10:09:25Z</time>
      </trkpt>
      <trkpt lat="45.94424" lon="4.83386">
        <ele>264</ele>
        <time>2016-09-26T10:09:26Z</time>
      </trkpt>
      <trkpt lat="45.94421" lon="4.83379">
        <ele>264</ele>
        <time>2016-09-26T10:09:27Z</time>
      </trkpt>
      <trkpt lat="45.94418" lon="4.83372">
        <ele>264</ele>
        <time>2016-09-26T10:09:28Z</time>
      </trkpt>
      <trkpt lat="45.94415" lon="4.83365">
        <ele>264</ele>
        <time>2016-09-26T10:09:29Z</time>
      </trkpt>
      <trkpt lat="45.94412" lon="4.83359">
        <ele>264</ele>
        <time>2016-09-26T10:09:30Z</time>
      </trkpt>
      <trkpt lat="45.94409" lon="4.83352">
        <ele>263</ele>
        <time>2016-09-26T10:09:31Z</time>
      </trkpt>
      <trkpt lat="45.94406" lon="4.83345">
        <ele>263</ele>
        <time>2016-09-26T10:09:32Z</time>
      </trkpt>
      <trkpt lat="45.94403" lon="4.83338">
        <ele>263</ele>
        <time>2016-09-26T10:09:33Z</time>
      </trkpt>
      <trkpt lat="45.944" lon="4.83331">
        <ele>264</ele>
        <time>2016-09-26T10:09:34Z</time>
      </trkpt>
      <trkpt lat="45.94397" lon="4.83324">
        <ele>264</ele>
        <time>2016-09-26T10:09:35Z</time>
      </trkpt>
      <trkpt lat="45.94394" lon="4.83317">
        <ele>264</ele>
        <time>2016-09-26T10:09:36Z</time>
      </trkpt>
      <trkpt lat="45.94392" lon="4.83309">
        <ele>264</ele>
        <time>2016-09-26T10:09:37Z</time>
      </trkpt>
      <trkpt lat="45.94389" lon="4.83303">
        <ele>264</ele>
        <time>2016-09-26T10:09:38Z</time>
      </trkpt>
      <trkpt lat="45.94387" lon="4.83295">
        <ele>264</ele>
        <time>2016-09-26T10:09:39Z</time>
      </trkpt>
      <trkpt lat="45.94384" lon="4.83288">
        <ele>264</ele>
        <time>2016-09-26T10:09:40Z</time>
      </trkpt>
      <trkpt lat="45.94382" lon="4.83281">
        <ele>264</ele>
        <time>2016-09-26T10:09:41Z</time>
      </trkpt>
      <trkpt lat="45.9438" lon="4.83276">
        <ele>264</ele>
        <time>2016-09-26T10:09:42Z</time>
      </trkpt>
      <trkpt lat="45.94375" lon="4.83265">
        <ele>264</ele>
        <time>2016-09-26T10:09:44Z</time>
      </trkpt>
      <trkpt lat="45.94373" lon="4.83258">
        <ele>265</ele>
        <time>2016-09-26T10:09:45Z</time>
      </trkpt>
      <trkpt lat="45.94371" lon="4.83252">
        <ele>265</ele>
        <time>2016-09-26T10:09:46Z</time>
      </trkpt>
      <trkpt lat="45.94369" lon="4.83246">
        <ele>265</ele>
        <time>2016-09-26T10:09:47Z</time>
      </trkpt>
      <trkpt lat="45.94367" lon="4.83239">
        <ele>265</ele>
        <time>2016-09-26T10:09:48Z</time>
      </trkpt>
      <trkpt lat="45.94364" lon="4.83233">
        <ele>266</ele>
        <time>2016-09-26T10:09:49Z</time>
      </trkpt>
      <trkpt lat="45.94362" lon="4.83226">
        <ele>266</ele>
        <time>2016-09-26T10:09:50Z</time>
      </trkpt>
      <trkpt lat="45.94359" lon="4.83219">
        <ele>266</ele>
        <time>2016-09-26T10:09:51Z</time>
      </trkpt>
      <trkpt lat="45.94355" lon="4.83212">
        <ele>266</ele>
        <time>2016-09-26T10:09:52Z</time>
      </trkpt>
      <trkpt lat="45.94353" lon="4.83205">
        <ele>266</ele>
        <time>2016-09-26T10:09:53Z</time>
      </trkpt>
      <trkpt lat="45.9435" lon="4.83197">
        <ele>266</ele>
        <time>2016-09-26T10:09:54Z</time>
      </trkpt>
      <trkpt lat="45.94349" lon="4.8319">
        <ele>266</ele>
        <time>2016-09-26T10:09:55Z</time>
      </trkpt>
      <trkpt lat="45.94346" lon="4.83183">
        <ele>266</ele>
        <time>2016-09-26T10:09:56Z</time>
      </trkpt>
      <trkpt lat="45.94343" lon="4.83177">
        <ele>266</ele>
        <time>2016-09-26T10:09:57Z</time>
      </trkpt>
      <trkpt lat="45.94341" lon="4.8317">
        <ele>266</ele>
        <time>2016-09-26T10:09:58Z</time>
      </trkpt>
      <trkpt lat="45.94339" lon="4.83164">
        <ele>266</ele>
        <time>2016-09-26T10:09:59Z</time>
      </trkpt>
      <trkpt lat="45.94336" lon="4.83159">
        <ele>266</ele>
        <time>2016-09-26T10:10:00Z</time>
      </trkpt>
      <trkpt lat="45.94334" lon="4.83153">
        <ele>266</ele>
        <time>2016-09-26T10:10:01Z</time>
      </trkpt>
      <trkpt lat="45.94332" lon="4.83146">
        <ele>266</ele>
        <time>2016-09-26T10:10:02Z</time>
      </trkpt>
      <trkpt lat="45.9433" lon="4.8314">
        <ele>266</ele>
        <time>2016-09-26T10:10:03Z</time>
      </trkpt>
      <trkpt lat="45.94328" lon="4.83134">
        <ele>266</ele>
        <time>2016-09-26T10:10:04Z</time>
      </trkpt>
      <trkpt lat="45.94325" lon="4.83128">
        <ele>266</ele>
        <time>2016-09-26T10:10:05Z</time>
      </trkpt>
      <trkpt lat="45.94323" lon="4.83121">
        <ele>266</ele>
        <time>2016-09-26T10:10:06Z</time>
      </trkpt>
      <trkpt lat="45.94321" lon="4.83115">
        <ele>266</ele>
        <time>2016-09-26T10:10:07Z</time>
      </trkpt>
      <trkpt lat="45.94319" lon="4.83108">
        <ele>266</ele>
        <time>2016-09-26T10:10:08Z</time>
      </trkpt>
      <trkpt lat="45.94317" lon="4.83101">
        <ele>266</ele>
        <time>2016-09-26T10:10:09Z</time>
      </trkpt>
      <trkpt lat="45.94315" lon="4.83093">
        <ele>266</ele>
        <time>2016-09-26T10:10:10Z</time>
      </trkpt>
      <trkpt lat="45.94314" lon="4.83086">
        <ele>266</ele>
        <time>2016-09-26T10:10:11Z</time>
      </trkpt>
      <trkpt lat="45.94311" lon="4.83079">
        <ele>266</ele>
        <time>2016-09-26T10:10:12Z</time>
      </trkpt>
      <trkpt lat="45.94309" lon="4.83072">
        <ele>266</ele>
        <time>2016-09-26T10:10:13Z</time>
      </trkpt>
      <trkpt lat="45.94307" lon="4.83066">
        <ele>266</ele>
        <time>2016-09-26T10:10:14Z</time>
      </trkpt>
      <trkpt lat="45.94305" lon="4.83059">
        <ele>266</ele>
        <time>2016-09-26T10:10:15Z</time>
      </trkpt>
      <trkpt lat="45.94304" lon="4.83052">
        <ele>266</ele>
        <time>2016-09-26T10:10:16Z</time>
      </trkpt>
      <trkpt lat="45.94303" lon="4.83045">
        <ele>266</ele>
        <time>2016-09-26T10:10:17Z</time>
      </trkpt>
      <trkpt lat="45.94302" lon="4.83038">
        <ele>266</ele>
        <time>2016-09-26T10:10:18Z</time>
      </trkpt>
      <trkpt lat="45.943" lon="4.8303">
        <ele>266</ele>
        <time>2016-09-26T10:10:19Z</time>
      </trkpt>
      <trkpt lat="45.94298" lon="4.83022">
        <ele>266</ele>
        <time>2016-09-26T10:10:20Z</time>
      </trkpt>
      <trkpt lat="45.94297" lon="4.83015">
        <ele>266</ele>
        <time>2016-09-26T10:10:21Z</time>
      </trkpt>
      <trkpt lat="45.94295" lon="4.83008">
        <ele>266</ele>
        <time>2016-09-26T10:10:22Z</time>
      </trkpt>
      <trkpt lat="45.94294" lon="4.83001">
        <ele>266</ele>
        <time>2016-09-26T10:10:23Z</time>
      </trkpt>
      <trkpt lat="45.94292" lon="4.82994">
        <ele>265</ele>
        <time>2016-09-26T10:10:24Z</time>
      </trkpt>
      <trkpt lat="45.94291" lon="4.82987">
        <ele>265</ele>
        <time>2016-09-26T10:10:25Z</time>
      </trkpt>
      <trkpt lat="45.94289" lon="4.8298">
        <ele>265</ele>
        <time>2016-09-26T10:10:26Z</time>
      </trkpt>
      <trkpt lat="45.94287" lon="4.82974">
        <ele>265</ele>
        <time>2016-09-26T10:10:27Z</time>
      </trkpt>
      <trkpt lat="45.94284" lon="4.82968">
        <ele>265</ele>
        <time>2016-09-26T10:10:28Z</time>
      </trkpt>
      <trkpt lat="45.94283" lon="4.82961">
        <ele>265</ele>
        <time>2016-09-26T10:10:29Z</time>
      </trkpt>
      <trkpt lat="45.94282" lon="4.82954">
        <ele>265</ele>
        <time>2016-09-26T10:10:30Z</time>
      </trkpt>
      <trkpt lat="45.94283" lon="4.82946">
        <ele>265</ele>
        <time>2016-09-26T10:10:31Z</time>
      </trkpt>
      <trkpt lat="45.94284" lon="4.82939">
        <ele>265</ele>
        <time>2016-09-26T10:10:32Z</time>
      </trkpt>
      <trkpt lat="45.94285" lon="4.82932">
        <ele>265</ele>
        <time>2016-09-26T10:10:33Z</time>
      </trkpt>
      <trkpt lat="45.94286" lon="4.82924">
        <ele>265</ele>
        <time>2016-09-26T10:10:34Z</time>
      </trkpt>
      <trkpt lat="45.94287" lon="4.82916">
        <ele>265</ele>
        <time>2016-09-26T10:10:35Z</time>
      </trkpt>
      <trkpt lat="45.94289" lon="4.82908">
        <ele>265</ele>
        <time>2016-09-26T10:10:36Z</time>
      </trkpt>
      <trkpt lat="45.94289" lon="4.829">
        <ele>265</ele>
        <time>2016-09-26T10:10:37Z</time>
      </trkpt>
      <trkpt lat="45.9429" lon="4.82892">
        <ele>265</ele>
        <time>2016-09-26T10:10:38Z</time>
      </trkpt>
      <trkpt lat="45.9429" lon="4.82884">
        <ele>265</ele>
        <time>2016-09-26T10:10:39Z</time>
      </trkpt>
      <trkpt lat="45.94292" lon="4.82876">
        <ele>265</ele>
        <time>2016-09-26T10:10:40Z</time>
      </trkpt>
      <trkpt lat="45.94292" lon="4.82867">
        <ele>265</ele>
        <time>2016-09-26T10:10:41Z</time>
      </trkpt>
      <trkpt lat="45.94291" lon="4.82859">
        <ele>265</ele>
        <time>2016-09-26T10:10:42Z</time>
      </trkpt>
      <trkpt lat="45.94291" lon="4.82851">
        <ele>265</ele>
        <time>2016-09-26T10:10:43Z</time>
      </trkpt>
      <trkpt lat="45.94291" lon="4.82843">
        <ele>265</ele>
        <time>2016-09-26T10:10:44Z</time>
      </trkpt>
      <trkpt lat="45.94292" lon="4.82835">
        <ele>265</ele>
        <time>2016-09-26T10:10:45Z</time>
      </trkpt>
      <trkpt lat="45.94292" lon="4.82827">
        <ele>265</ele>
        <time>2016-09-26T10:10:46Z</time>
      </trkpt>
      <trkpt lat="45.94292" lon="4.82819">
        <ele>265</ele>
        <time>2016-09-26T10:10:47Z</time>
      </trkpt>
      <trkpt lat="45.94292" lon="4.82811">
        <ele>265</ele>
        <time>2016-09-26T10:10:48Z</time>
      </trkpt>
      <trkpt lat="45.94292" lon="4.82804">
        <ele>265</ele>
        <time>2016-09-26T10:10:49Z</time>
      </trkpt>
      <trkpt lat="45.94292" lon="4.82796">
        <ele>265</ele>
        <time>2016-09-26T10:10:50Z</time>
      </trkpt>
      <trkpt lat="45.94292" lon="4.82788">
        <ele>265</ele>
        <time>2016-09-26T10:10:51Z</time>
      </trkpt>
      <trkpt lat="45.94292" lon="4.8278">
        <ele>265</ele>
        <time>2016-09-26T10:10:52Z</time>
      </trkpt>
      <trkpt lat="45.94293" lon="4.82773">
        <ele>265</ele>
        <time>2016-09-26T10:10:53Z</time>
      </trkpt>
      <trkpt lat="45.94292" lon="4.82764">
        <ele>265</ele>
        <time>2016-09-26T10:10:54Z</time>
      </trkpt>
      <trkpt lat="45.94293" lon="4.82756">
        <ele>265</ele>
        <time>2016-09-26T10:10:55Z</time>
      </trkpt>
      <trkpt lat="45.94293" lon="4.82748">
        <ele>265</ele>
        <time>2016-09-26T10:10:56Z</time>
      </trkpt>
      <trkpt lat="45.94292" lon="4.82739">
        <ele>265</ele>
        <time>2016-09-26T10:10:57Z</time>
      </trkpt>
      <trkpt lat="45.94292" lon="4.82732">
        <ele>265</ele>
        <time>2016-09-26T10:10:58Z</time>
      </trkpt>
      <trkpt lat="45.94292" lon="4.82724">
        <ele>265</ele>
        <time>2016-09-26T10:10:59Z</time>
      </trkpt>
      <trkpt lat="45.94292" lon="4.82716">
        <ele>265</ele>
        <time>2016-09-26T10:11:00Z</time>
      </trkpt>
      <trkpt lat="45.94292" lon="4.82708">
        <ele>265</ele>
        <time>2016-09-26T10:11:01Z</time>
      </trkpt>
      <trkpt lat="45.94293" lon="4.827">
        <ele>265</ele>
        <time>2016-09-26T10:11:02Z</time>
      </trkpt>
      <trkpt lat="45.94293" lon="4.82692">
        <ele>265</ele>
        <time>2016-09-26T10:11:03Z</time>
      </trkpt>
      <trkpt lat="45.94293" lon="4.82683">
        <ele>265</ele>
        <time>2016-09-26T10:11:04Z</time>
      </trkpt>
      <trkpt lat="45.94293" lon="4.82674">
        <ele>265</ele>
        <time>2016-09-26T10:11:05Z</time>
      </trkpt>
      <trkpt lat="45.94293" lon="4.82665">
        <ele>265</ele>
        <time>2016-09-26T10:11:06Z</time>
      </trkpt>
      <trkpt lat="45.94293" lon="4.82656">
        <ele>265</ele>
        <time>2016-09-26T10:11:07Z</time>
      </trkpt>
      <trkpt lat="45.94292" lon="4.82648">
        <ele>265</ele>
        <time>2016-09-26T10:11:08Z</time>
      </trkpt>
      <trkpt lat="45.94292" lon="4.82639">
        <ele>265</ele>
        <time>2016-09-26T10:11:09Z</time>
      </trkpt>
      <trkpt lat="45.94293" lon="4.82631">
        <ele>265</ele>
        <time>2016-09-26T10:11:10Z</time>
      </trkpt>
      <trkpt lat="45.94293" lon="4.82623">
        <ele>265</ele>
        <time>2016-09-26T10:11:11Z</time>
      </trkpt>
      <trkpt lat="45.94294" lon="4.82615">
        <ele>265</ele>
        <time>2016-09-26T10:11:12Z</time>
      </trkpt>
      <trkpt lat="45.94293" lon="4.82607">
        <ele>265</ele>
        <time>2016-09-26T10:11:13Z</time>
      </trkpt>
      <trkpt lat="45.94294" lon="4.82599">
        <ele>265</ele>
        <time>2016-09-26T10:11:14Z</time>
      </trkpt>
      <trkpt lat="45.94294" lon="4.82591">
        <ele>265</ele>
        <time>2016-09-26T10:11:15Z</time>
      </trkpt>
      <trkpt lat="45.94294" lon="4.82583">
        <ele>264</ele>
        <time>2016-09-26T10:11:16Z</time>
      </trkpt>
      <trkpt lat="45.94294" lon="4.82575">
        <ele>264</ele>
        <time>2016-09-26T10:11:17Z</time>
      </trkpt>
      <trkpt lat="45.94294" lon="4.82568">
        <ele>264</ele>
        <time>2016-09-26T10:11:18Z</time>
      </trkpt>
      <trkpt lat="45.94295" lon="4.8256">
        <ele>264</ele>
        <time>2016-09-26T10:11:19Z</time>
      </trkpt>
      <trkpt lat="45.94295" lon="4.82553">
        <ele>264</ele>
        <time>2016-09-26T10:11:20Z</time>
      </trkpt>
      <trkpt lat="45.94295" lon="4.82545">
        <ele>264</ele>
        <time>2016-09-26T10:11:21Z</time>
      </trkpt>
      <trkpt lat="45.94296" lon="4.82538">
        <ele>264</ele>
        <time>2016-09-26T10:11:22Z</time>
      </trkpt>
      <trkpt lat="45.94296" lon="4.8253">
        <ele>264</ele>
        <time>2016-09-26T10:11:23Z</time>
      </trkpt>
      <trkpt lat="45.94296" lon="4.82522">
        <ele>264</ele>
        <time>2016-09-26T10:11:24Z</time>
      </trkpt>
      <trkpt lat="45.94296" lon="4.82513">
        <ele>264</ele>
        <time>2016-09-26T10:11:25Z</time>
      </trkpt>
      <trkpt lat="45.94297" lon="4.82505">
        <ele>264</ele>
        <time>2016-09-26T10:11:26Z</time>
      </trkpt>
      <trkpt lat="45.94297" lon="4.82496">
        <ele>264</ele>
        <time>2016-09-26T10:11:27Z</time>
      </trkpt>
      <trkpt lat="45.94297" lon="4.82487">
        <ele>264</ele>
        <time>2016-09-26T10:11:28Z</time>
      </trkpt>
      <trkpt lat="45.94296" lon="4.82479">
        <ele>264</ele>
        <time>2016-09-26T10:11:29Z</time>
      </trkpt>
      <trkpt lat="45.94296" lon="4.8247">
        <ele>264</ele>
        <time>2016-09-26T10:11:30Z</time>
      </trkpt>
      <trkpt lat="45.94296" lon="4.82461">
        <ele>264</ele>
        <time>2016-09-26T10:11:31Z</time>
      </trkpt>
      <trkpt lat="45.94295" lon="4.82452">
        <ele>264</ele>
        <time>2016-09-26T10:11:32Z</time>
      </trkpt>
      <trkpt lat="45.94295" lon="4.82444">
        <ele>264</ele>
        <time>2016-09-26T10:11:33Z</time>
      </trkpt>
      <trkpt lat="45.94294" lon="4.82435">
        <ele>264</ele>
        <time>2016-09-26T10:11:34Z</time>
      </trkpt>
      <trkpt lat="45.94294" lon="4.82426">
        <ele>264</ele>
        <time>2016-09-26T10:11:35Z</time>
      </trkpt>
      <trkpt lat="45.94294" lon="4.82418">
        <ele>264</ele>
        <time>2016-09-26T10:11:36Z</time>
      </trkpt>
      <trkpt lat="45.94294" lon="4.82409">
        <ele>264</ele>
        <time>2016-09-26T10:11:37Z</time>
      </trkpt>
      <trkpt lat="45.94293" lon="4.82399">
        <ele>264</ele>
        <time>2016-09-26T10:11:38Z</time>
      </trkpt>
      <trkpt lat="45.94293" lon="4.8239">
        <ele>264</ele>
        <time>2016-09-26T10:11:39Z</time>
      </trkpt>
      <trkpt lat="45.94292" lon="4.82381">
        <ele>264</ele>
        <time>2016-09-26T10:11:40Z</time>
      </trkpt>
      <trkpt lat="45.94293" lon="4.82372">
        <ele>264</ele>
        <time>2016-09-26T10:11:41Z</time>
      </trkpt>
      <trkpt lat="45.94293" lon="4.82364">
        <ele>264</ele>
        <time>2016-09-26T10:11:42Z</time>
      </trkpt>
      <trkpt lat="45.94293" lon="4.82355">
        <ele>264</ele>
        <time>2016-09-26T10:11:43Z</time>
      </trkpt>
      <trkpt lat="45.94292" lon="4.82346">
        <ele>264</ele>
        <time>2016-09-26T10:11:44Z</time>
      </trkpt>
      <trkpt lat="45.94291" lon="4.82338">
        <ele>264</ele>
        <time>2016-09-26T10:11:45Z</time>
      </trkpt>
      <trkpt lat="45.94291" lon="4.82329">
        <ele>265</ele>
        <time>2016-09-26T10:11:46Z</time>
      </trkpt>
      <trkpt lat="45.94291" lon="4.8232">
        <ele>265</ele>
        <time>2016-09-26T10:11:47Z</time>
      </trkpt>
      <trkpt lat="45.9429" lon="4.8231">
        <ele>265</ele>
        <time>2016-09-26T10:11:48Z</time>
      </trkpt>
      <trkpt lat="45.9429" lon="4.823">
        <ele>265</ele>
        <time>2016-09-26T10:11:49Z</time>
      </trkpt>
      <trkpt lat="45.9429" lon="4.8229">
        <ele>265</ele>
        <time>2016-09-26T10:11:50Z</time>
      </trkpt>
      <trkpt lat="45.94289" lon="4.82281">
        <ele>265</ele>
        <time>2016-09-26T10:11:51Z</time>
      </trkpt>
      <trkpt lat="45.94289" lon="4.82271">
        <ele>265</ele>
        <time>2016-09-26T10:11:52Z</time>
      </trkpt>
      <trkpt lat="45.94289" lon="4.82262">
        <ele>265</ele>
        <time>2016-09-26T10:11:53Z</time>
      </trkpt>
      <trkpt lat="45.94288" lon="4.82252">
        <ele>265</ele>
        <time>2016-09-26T10:11:54Z</time>
      </trkpt>
      <trkpt lat="45.94288" lon="4.82243">
        <ele>264</ele>
        <time>2016-09-26T10:11:55Z</time>
      </trkpt>
      <trkpt lat="45.94288" lon="4.82234">
        <ele>264</ele>
        <time>2016-09-26T10:11:56Z</time>
      </trkpt>
      <trkpt lat="45.94288" lon="4.82225">
        <ele>264</ele>
        <time>2016-09-26T10:11:57Z</time>
      </trkpt>
      <trkpt lat="45.94287" lon="4.82216">
        <ele>264</ele>
        <time>2016-09-26T10:11:58Z</time>
      </trkpt>
      <trkpt lat="45.94285" lon="4.82208">
        <ele>264</ele>
        <time>2016-09-26T10:11:59Z</time>
      </trkpt>
      <trkpt lat="45.94284" lon="4.822">
        <ele>264</ele>
        <time>2016-09-26T10:12:00Z</time>
      </trkpt>
      <trkpt lat="45.94283" lon="4.82192">
        <ele>264</ele>
        <time>2016-09-26T10:12:01Z</time>
      </trkpt>
      <trkpt lat="45.94281" lon="4.82184">
        <ele>264</ele>
        <time>2016-09-26T10:12:02Z</time>
      </trkpt>
      <trkpt lat="45.9428" lon="4.82176">
        <ele>264</ele>
        <time>2016-09-26T10:12:03Z</time>
      </trkpt>
      <trkpt lat="45.94279" lon="4.82167">
        <ele>264</ele>
        <time>2016-09-26T10:12:04Z</time>
      </trkpt>
      <trkpt lat="45.94277" lon="4.82159">
        <ele>263</ele>
        <time>2016-09-26T10:12:05Z</time>
      </trkpt>
      <trkpt lat="45.94275" lon="4.82151">
        <ele>263</ele>
        <time>2016-09-26T10:12:06Z</time>
      </trkpt>
      <trkpt lat="45.94274" lon="4.82143">
        <ele>263</ele>
        <time>2016-09-26T10:12:07Z</time>
      </trkpt>
      <trkpt lat="45.94272" lon="4.82135">
        <ele>263</ele>
        <time>2016-09-26T10:12:08Z</time>
      </trkpt>
      <trkpt lat="45.94271" lon="4.82126">
        <ele>263</ele>
        <time>2016-09-26T10:12:09Z</time>
      </trkpt>
      <trkpt lat="45.94269" lon="4.82119">
        <ele>263</ele>
        <time>2016-09-26T10:12:10Z</time>
      </trkpt>
      <trkpt lat="45.94269" lon="4.8211">
        <ele>263</ele>
        <time>2016-09-26T10:12:11Z</time>
      </trkpt>
      <trkpt lat="45.94269" lon="4.82102">
        <ele>263</ele>
        <time>2016-09-26T10:12:12Z</time>
      </trkpt>
      <trkpt lat="45.94268" lon="4.82094">
        <ele>262</ele>
        <time>2016-09-26T10:12:13Z</time>
      </trkpt>
      <trkpt lat="45.94266" lon="4.82085">
        <ele>262</ele>
        <time>2016-09-26T10:12:14Z</time>
      </trkpt>
      <trkpt lat="45.94264" lon="4.82076">
        <ele>262</ele>
        <time>2016-09-26T10:12:15Z</time>
      </trkpt>
      <trkpt lat="45.94262" lon="4.82067">
        <ele>262</ele>
        <time>2016-09-26T10:12:16Z</time>
      </trkpt>
      <trkpt lat="45.94261" lon="4.82059">
        <ele>262</ele>
        <time>2016-09-26T10:12:17Z</time>
      </trkpt>
      <trkpt lat="45.94259" lon="4.8205">
        <ele>262</ele>
        <time>2016-09-26T10:12:18Z</time>
      </trkpt>
      <trkpt lat="45.94257" lon="4.82042">
        <ele>262</ele>
        <time>2016-09-26T10:12:19Z</time>
      </trkpt>
      <trkpt lat="45.94255" lon="4.82034">
        <ele>262</ele>
        <time>2016-09-26T10:12:20Z</time>
      </trkpt>
      <trkpt lat="45.94251" lon="4.82026">
        <ele>262</ele>
        <time>2016-09-26T10:12:21Z</time>
      </trkpt>
      <trkpt lat="45.94249" lon="4.82018">
        <ele>263</ele>
        <time>2016-09-26T10:12:22Z</time>
      </trkpt>
      <trkpt lat="45.94247" lon="4.82011">
        <ele>263</ele>
        <time>2016-09-26T10:12:23Z</time>
      </trkpt>
      <trkpt lat="45.94245" lon="4.82003">
        <ele>262</ele>
        <time>2016-09-26T10:12:24Z</time>
      </trkpt>
      <trkpt lat="45.94243" lon="4.81995">
        <ele>263</ele>
        <time>2016-09-26T10:12:25Z</time>
      </trkpt>
      <trkpt lat="45.94242" lon="4.81987">
        <ele>263</ele>
        <time>2016-09-26T10:12:26Z</time>
      </trkpt>
      <trkpt lat="45.94242" lon="4.8198">
        <ele>263</ele>
        <time>2016-09-26T10:12:27Z</time>
      </trkpt>
      <trkpt lat="45.9424" lon="4.81971">
        <ele>263</ele>
        <time>2016-09-26T10:12:28Z</time>
      </trkpt>
      <trkpt lat="45.94239" lon="4.81963">
        <ele>264</ele>
        <time>2016-09-26T10:12:29Z</time>
      </trkpt>
      <trkpt lat="45.94237" lon="4.81955">
        <ele>264</ele>
        <time>2016-09-26T10:12:30Z</time>
      </trkpt>
      <trkpt lat="45.94235" lon="4.81947">
        <ele>264</ele>
        <time>2016-09-26T10:12:31Z</time>
      </trkpt>
      <trkpt lat="45.94234" lon="4.81939">
        <ele>263</ele>
        <time>2016-09-26T10:12:32Z</time>
      </trkpt>
      <trkpt lat="45.94232" lon="4.81931">
        <ele>263</ele>
        <time>2016-09-26T10:12:33Z</time>
      </trkpt>
      <trkpt lat="45.9423" lon="4.81923">
        <ele>263</ele>
        <time>2016-09-26T10:12:34Z</time>
      </trkpt>
      <trkpt lat="45.94229" lon="4.81915">
        <ele>264</ele>
        <time>2016-09-26T10:12:35Z</time>
      </trkpt>
      <trkpt lat="45.94227" lon="4.81907">
        <ele>264</ele>
        <time>2016-09-26T10:12:36Z</time>
      </trkpt>
      <trkpt lat="45.94226" lon="4.81899">
        <ele>264</ele>
        <time>2016-09-26T10:12:37Z</time>
      </trkpt>
      <trkpt lat="45.94224" lon="4.81891">
        <ele>265</ele>
        <time>2016-09-26T10:12:38Z</time>
      </trkpt>
      <trkpt lat="45.94222" lon="4.81882">
        <ele>265</ele>
        <time>2016-09-26T10:12:39Z</time>
      </trkpt>
      <trkpt lat="45.94221" lon="4.81874">
        <ele>265</ele>
        <time>2016-09-26T10:12:40Z</time>
      </trkpt>
      <trkpt lat="45.94219" lon="4.81866">
        <ele>265</ele>
        <time>2016-09-26T10:12:41Z</time>
      </trkpt>
      <trkpt lat="45.94218" lon="4.81859">
        <ele>265</ele>
        <time>2016-09-26T10:12:42Z</time>
      </trkpt>
      <trkpt lat="45.94216" lon="4.81851">
        <ele>265</ele>
        <time>2016-09-26T10:12:43Z</time>
      </trkpt>
      <trkpt lat="45.94215" lon="4.81844">
        <ele>265</ele>
        <time>2016-09-26T10:12:44Z</time>
      </trkpt>
      <trkpt lat="45.94213" lon="4.81837">
        <ele>265</ele>
        <time>2016-09-26T10:12:45Z</time>
      </trkpt>
      <trkpt lat="45.94212" lon="4.81831">
        <ele>265</ele>
        <time>2016-09-26T10:12:46Z</time>
      </trkpt>
      <trkpt lat="45.94211" lon="4.81824">
        <ele>266</ele>
        <time>2016-09-26T10:12:47Z</time>
      </trkpt>
      <trkpt lat="45.9421" lon="4.81817">
        <ele>266</ele>
        <time>2016-09-26T10:12:48Z</time>
      </trkpt>
      <trkpt lat="45.9421" lon="4.8181">
        <ele>266</ele>
        <time>2016-09-26T10:12:49Z</time>
      </trkpt>
      <trkpt lat="45.9421" lon="4.81803">
        <ele>266</ele>
        <time>2016-09-26T10:12:50Z</time>
      </trkpt>
      <trkpt lat="45.94211" lon="4.81796">
        <ele>265</ele>
        <time>2016-09-26T10:12:51Z</time>
      </trkpt>
      <trkpt lat="45.94214" lon="4.81788">
        <ele>265</ele>
        <time>2016-09-26T10:12:52Z</time>
      </trkpt>
      <trkpt lat="45.94215" lon="4.81781">
        <ele>265</ele>
        <time>2016-09-26T10:12:53Z</time>
      </trkpt>
      <trkpt lat="45.94217" lon="4.81774">
        <ele>265</ele>
        <time>2016-09-26T10:12:54Z</time>
      </trkpt>
      <trkpt lat="45.9422" lon="4.81767">
        <ele>265</ele>
        <time>2016-09-26T10:12:55Z</time>
      </trkpt>
      <trkpt lat="45.94223" lon="4.81761">
        <ele>265</ele>
        <time>2016-09-26T10:12:56Z</time>
      </trkpt>
      <trkpt lat="45.94225" lon="4.81753">
        <ele>264</ele>
        <time>2016-09-26T10:12:57Z</time>
      </trkpt>
      <trkpt lat="45.94228" lon="4.81747">
        <ele>265</ele>
        <time>2016-09-26T10:12:58Z</time>
      </trkpt>
      <trkpt lat="45.94228" lon="4.8174">
        <ele>265</ele>
        <time>2016-09-26T10:12:59Z</time>
      </trkpt>
      <trkpt lat="45.94228" lon="4.81732">
        <ele>265</ele>
        <time>2016-09-26T10:13:00Z</time>
      </trkpt>
      <trkpt lat="45.94226" lon="4.81725">
        <ele>265</ele>
        <time>2016-09-26T10:13:01Z</time>
      </trkpt>
      <trkpt lat="45.94223" lon="4.81719">
        <ele>266</ele>
        <time>2016-09-26T10:13:02Z</time>
      </trkpt>
      <trkpt lat="45.94219" lon="4.81715">
        <ele>266</ele>
        <time>2016-09-26T10:13:03Z</time>
      </trkpt>
      <trkpt lat="45.94214" lon="4.81712">
        <ele>266</ele>
        <time>2016-09-26T10:13:04Z</time>
      </trkpt>
      <trkpt lat="45.94211" lon="4.81708">
        <ele>266</ele>
        <time>2016-09-26T10:13:05Z</time>
      </trkpt>
      <trkpt lat="45.94205" lon="4.81706">
        <ele>266</ele>
        <time>2016-09-26T10:13:06Z</time>
      </trkpt>
      <trkpt lat="45.94201" lon="4.81702">
        <ele>267</ele>
        <time>2016-09-26T10:13:07Z</time>
      </trkpt>
      <trkpt lat="45.94198" lon="4.81697">
        <ele>267</ele>
        <time>2016-09-26T10:13:08Z</time>
      </trkpt>
      <trkpt lat="45.94194" lon="4.81691">
        <ele>267</ele>
        <time>2016-09-26T10:13:09Z</time>
      </trkpt>
      <trkpt lat="45.94191" lon="4.81682">
        <ele>267</ele>
        <time>2016-09-26T10:13:10Z</time>
      </trkpt>
      <trkpt lat="45.94187" lon="4.81673">
        <ele>267</ele>
        <time>2016-09-26T10:13:11Z</time>
      </trkpt>
      <trkpt lat="45.94183" lon="4.81663">
        <ele>268</ele>
        <time>2016-09-26T10:13:12Z</time>
      </trkpt>
      <trkpt lat="45.94178" lon="4.81652">
        <ele>268</ele>
        <time>2016-09-26T10:13:13Z</time>
      </trkpt>
      <trkpt lat="45.94174" lon="4.81642">
        <ele>268</ele>
        <time>2016-09-26T10:13:14Z</time>
      </trkpt>
      <trkpt lat="45.94169" lon="4.81631">
        <ele>267</ele>
        <time>2016-09-26T10:13:15Z</time>
      </trkpt>
      <trkpt lat="45.94167" lon="4.81619">
        <ele>268</ele>
        <time>2016-09-26T10:13:16Z</time>
      </trkpt>
      <trkpt lat="45.94162" lon="4.81604">
        <ele>267</ele>
        <time>2016-09-26T10:13:17Z</time>
      </trkpt>
      <trkpt lat="45.94171" lon="4.81591">
        <ele>267</ele>
        <time>2016-09-26T10:13:18Z</time>
      </trkpt>
      <trkpt lat="45.9417" lon="4.81577">
        <ele>267</ele>
        <time>2016-09-26T10:13:19Z</time>
      </trkpt>
      <trkpt lat="45.94171" lon="4.81555">
        <ele>266</ele>
        <time>2016-09-26T10:13:20Z</time>
      </trkpt>
      <trkpt lat="45.94169" lon="4.81545">
        <ele>266</ele>
        <time>2016-09-26T10:13:21Z</time>
      </trkpt>
      <trkpt lat="45.94169" lon="4.81532">
        <ele>265</ele>
        <time>2016-09-26T10:13:22Z</time>
      </trkpt>
      <trkpt lat="45.94169" lon="4.81519">
        <ele>265</ele>
        <time>2016-09-26T10:13:23Z</time>
      </trkpt>
      <trkpt lat="45.94166" lon="4.81506">
        <ele>263</ele>
        <time>2016-09-26T10:13:24Z</time>
      </trkpt>
      <trkpt lat="45.94166" lon="4.81491">
        <ele>261</ele>
        <time>2016-09-26T10:13:25Z</time>
      </trkpt>
      <trkpt lat="45.9417" lon="4.81472">
        <ele>262</ele>
        <time>2016-09-26T10:13:26Z</time>
      </trkpt>
      <trkpt lat="45.94172" lon="4.81457">
        <ele>262</ele>
        <time>2016-09-26T10:13:27Z</time>
      </trkpt>
      <trkpt lat="45.94174" lon="4.81443">
        <ele>261</ele>
        <time>2016-09-26T10:13:28Z</time>
      </trkpt>
      <trkpt lat="45.94175" lon="4.81428">
        <ele>259</ele>
        <time>2016-09-26T10:13:29Z</time>
      </trkpt>
      <trkpt lat="45.94178" lon="4.81415">
        <ele>257</ele>
        <time>2016-09-26T10:13:30Z</time>
      </trkpt>
      <trkpt lat="45.94179" lon="4.81399">
        <ele>258</ele>
        <time>2016-09-26T10:13:31Z</time>
      </trkpt>
      <trkpt lat="45.9418" lon="4.81383">
        <ele>258</ele>
        <time>2016-09-26T10:13:32Z</time>
      </trkpt>
      <trkpt lat="45.94181" lon="4.81367">
        <ele>258</ele>
        <time>2016-09-26T10:13:33Z</time>
      </trkpt>
      <trkpt lat="45.94182" lon="4.81351">
        <ele>257</ele>
        <time>2016-09-26T10:13:34Z</time>
      </trkpt>
      <trkpt lat="45.94181" lon="4.81335">
        <ele>256</ele>
        <time>2016-09-26T10:13:35Z</time>
      </trkpt>
      <trkpt lat="45.94181" lon="4.81319">
        <ele>255</ele>
        <time>2016-09-26T10:13:36Z</time>
      </trkpt>
      <trkpt lat="45.94182" lon="4.81301">
        <ele>256</ele>
        <time>2016-09-26T10:13:37Z</time>
      </trkpt>
      <trkpt lat="45.94181" lon="4.81283">
        <ele>256</ele>
        <time>2016-09-26T10:13:38Z</time>
      </trkpt>
      <trkpt lat="45.9418" lon="4.81265">
        <ele>254</ele>
        <time>2016-09-26T10:13:39Z</time>
      </trkpt>
      <trkpt lat="45.94178" lon="4.81248">
        <ele>252</ele>
        <time>2016-09-26T10:13:40Z</time>
      </trkpt>
      <trkpt lat="45.94175" lon="4.81231">
        <ele>253</ele>
        <time>2016-09-26T10:13:41Z</time>
      </trkpt>
      <trkpt lat="45.94172" lon="4.81214">
        <ele>253</ele>
        <time>2016-09-26T10:13:42Z</time>
      </trkpt>
      <trkpt lat="45.94167" lon="4.81198">
        <ele>253</ele>
        <time>2016-09-26T10:13:43Z</time>
      </trkpt>
      <trkpt lat="45.94161" lon="4.81181">
        <ele>246</ele>
        <time>2016-09-26T10:13:44Z</time>
      </trkpt>
      <trkpt lat="45.94155" lon="4.81165">
        <ele>246</ele>
        <time>2016-09-26T10:13:45Z</time>
      </trkpt>
      <trkpt lat="45.94149" lon="4.8115">
        <ele>245</ele>
        <time>2016-09-26T10:13:46Z</time>
      </trkpt>
      <trkpt lat="45.94142" lon="4.81136">
        <ele>244</ele>
        <time>2016-09-26T10:13:47Z</time>
      </trkpt>
      <trkpt lat="45.94134" lon="4.81121">
        <ele>244</ele>
        <time>2016-09-26T10:13:48Z</time>
      </trkpt>
      <trkpt lat="45.94126" lon="4.81107">
        <ele>244</ele>
        <time>2016-09-26T10:13:49Z</time>
      </trkpt>
      <trkpt lat="45.94119" lon="4.81094">
        <ele>243</ele>
        <time>2016-09-26T10:13:50Z</time>
      </trkpt>
      <trkpt lat="45.94112" lon="4.8108">
        <ele>244</ele>
        <time>2016-09-26T10:13:51Z</time>
      </trkpt>
      <trkpt lat="45.94106" lon="4.81065">
        <ele>244</ele>
        <time>2016-09-26T10:13:52Z</time>
      </trkpt>
      <trkpt lat="45.941" lon="4.8105">
        <ele>244</ele>
        <time>2016-09-26T10:13:53Z</time>
      </trkpt>
      <trkpt lat="45.94095" lon="4.81035">
        <ele>244</ele>
        <time>2016-09-26T10:13:54Z</time>
      </trkpt>
      <trkpt lat="45.94091" lon="4.81019">
        <ele>243</ele>
        <time>2016-09-26T10:13:55Z</time>
      </trkpt>
      <trkpt lat="45.94087" lon="4.81002">
        <ele>241</ele>
        <time>2016-09-26T10:13:56Z</time>
      </trkpt>
      <trkpt lat="45.94084" lon="4.80986">
        <ele>243</ele>
        <time>2016-09-26T10:13:57Z</time>
      </trkpt>
      <trkpt lat="45.9408" lon="4.80969">
        <ele>234</ele>
        <time>2016-09-26T10:13:58Z</time>
      </trkpt>
      <trkpt lat="45.94077" lon="4.80954">
        <ele>233</ele>
        <time>2016-09-26T10:13:59Z</time>
      </trkpt>
      <trkpt lat="45.94073" lon="4.80937">
        <ele>234</ele>
        <time>2016-09-26T10:14:00Z</time>
      </trkpt>
      <trkpt lat="45.9407" lon="4.80922">
        <ele>235</ele>
        <time>2016-09-26T10:14:01Z</time>
      </trkpt>
      <trkpt lat="45.94067" lon="4.80909">
        <ele>233</ele>
        <time>2016-09-26T10:14:02Z</time>
      </trkpt>
      <trkpt lat="45.94064" lon="4.80896">
        <ele>232</ele>
        <time>2016-09-26T10:14:03Z</time>
      </trkpt>
      <trkpt lat="45.94062" lon="4.8088">
        <ele>231</ele>
        <time>2016-09-26T10:14:04Z</time>
      </trkpt>
      <trkpt lat="45.9406" lon="4.80865">
        <ele>231</ele>
        <time>2016-09-26T10:14:05Z</time>
      </trkpt>
      <trkpt lat="45.94057" lon="4.8085">
        <ele>231</ele>
        <time>2016-09-26T10:14:06Z</time>
      </trkpt>
      <trkpt lat="45.94054" lon="4.80833">
        <ele>231</ele>
        <time>2016-09-26T10:14:07Z</time>
      </trkpt>
      <trkpt lat="45.94049" lon="4.80818">
        <ele>229</ele>
        <time>2016-09-26T10:14:08Z</time>
      </trkpt>
      <trkpt lat="45.9405" lon="4.808">
        <ele>229</ele>
        <time>2016-09-26T10:14:09Z</time>
      </trkpt>
      <trkpt lat="45.94049" lon="4.80781">
        <ele>229</ele>
        <time>2016-09-26T10:14:10Z</time>
      </trkpt>
      <trkpt lat="45.94047" lon="4.80762">
        <ele>229</ele>
        <time>2016-09-26T10:14:11Z</time>
      </trkpt>
      <trkpt lat="45.94046" lon="4.80743">
        <ele>228</ele>
        <time>2016-09-26T10:14:12Z</time>
      </trkpt>
      <trkpt lat="45.94046" lon="4.80724">
        <ele>227</ele>
        <time>2016-09-26T10:14:13Z</time>
      </trkpt>
      <trkpt lat="45.94044" lon="4.80702">
        <ele>227</ele>
        <time>2016-09-26T10:14:14Z</time>
      </trkpt>
      <trkpt lat="45.94049" lon="4.80714">
        <ele>228</ele>
        <time>2016-09-26T10:14:15Z</time>
      </trkpt>
      <trkpt lat="45.9405" lon="4.807">
        <ele>228</ele>
        <time>2016-09-26T10:14:16Z</time>
      </trkpt>
      <trkpt lat="45.94052" lon="4.80684">
        <ele>228</ele>
        <time>2016-09-26T10:14:17Z</time>
      </trkpt>
      <trkpt lat="45.94051" lon="4.80665">
        <ele>228</ele>
        <time>2016-09-26T10:14:18Z</time>
      </trkpt>
      <trkpt lat="45.94051" lon="4.80646">
        <ele>228</ele>
        <time>2016-09-26T10:14:19Z</time>
      </trkpt>
      <trkpt lat="45.94051" lon="4.80629">
        <ele>228</ele>
        <time>2016-09-26T10:14:20Z</time>
      </trkpt>
      <trkpt lat="45.94046" lon="4.80613">
        <ele>227</ele>
        <time>2016-09-26T10:14:21Z</time>
      </trkpt>
      <trkpt lat="45.94044" lon="4.806">
        <ele>227</ele>
        <time>2016-09-26T10:14:22Z</time>
      </trkpt>
      <trkpt lat="45.94044" lon="4.80583">
        <ele>228</ele>
        <time>2016-09-26T10:14:23Z</time>
      </trkpt>
      <trkpt lat="45.94044" lon="4.80568">
        <ele>227</ele>
        <time>2016-09-26T10:14:24Z</time>
      </trkpt>
      <trkpt lat="45.94045" lon="4.8052">
        <ele>227</ele>
        <time>2016-09-26T10:14:27Z</time>
      </trkpt>
      <trkpt lat="45.94046" lon="4.80502">
        <ele>227</ele>
        <time>2016-09-26T10:14:28Z</time>
      </trkpt>
      <trkpt lat="45.94047" lon="4.80488">
        <ele>226</ele>
        <time>2016-09-26T10:14:29Z</time>
      </trkpt>
      <trkpt lat="45.94043" lon="4.8047">
        <ele>226</ele>
        <time>2016-09-26T10:14:30Z</time>
      </trkpt>
      <trkpt lat="45.94038" lon="4.80449">
        <ele>225</ele>
        <time>2016-09-26T10:14:31Z</time>
      </trkpt>
      <trkpt lat="45.94034" lon="4.80429">
        <ele>224</ele>
        <time>2016-09-26T10:14:32Z</time>
      </trkpt>
      <trkpt lat="45.9403" lon="4.80408">
        <ele>219</ele>
        <time>2016-09-26T10:14:33Z</time>
      </trkpt>
      <trkpt lat="45.94027" lon="4.80391">
        <ele>218</ele>
        <time>2016-09-26T10:14:34Z</time>
      </trkpt>
      <trkpt lat="45.94021" lon="4.8037">
        <ele>217</ele>
        <time>2016-09-26T10:14:35Z</time>
      </trkpt>
      <trkpt lat="45.94018" lon="4.80348">
        <ele>214</ele>
        <time>2016-09-26T10:14:36Z</time>
      </trkpt>
      <trkpt lat="45.94011" lon="4.80328">
        <ele>208</ele>
        <time>2016-09-26T10:14:37Z</time>
      </trkpt>
      <trkpt lat="45.94005" lon="4.80309">
        <ele>208</ele>
        <time>2016-09-26T10:14:38Z</time>
      </trkpt>
      <trkpt lat="45.94" lon="4.80292">
        <ele>203</ele>
        <time>2016-09-26T10:14:39Z</time>
      </trkpt>
      <trkpt lat="45.93995" lon="4.80276">
        <ele>203</ele>
        <time>2016-09-26T10:14:40Z</time>
      </trkpt>
      <trkpt lat="45.9399" lon="4.80261">
        <ele>203</ele>
        <time>2016-09-26T10:14:41Z</time>
      </trkpt>
      <trkpt lat="45.93986" lon="4.80247">
        <ele>205</ele>
        <time>2016-09-26T10:14:42Z</time>
      </trkpt>
      <trkpt lat="45.93982" lon="4.80233">
        <ele>205</ele>
        <time>2016-09-26T10:14:43Z</time>
      </trkpt>
      <trkpt lat="45.93978" lon="4.80219">
        <ele>205</ele>
        <time>2016-09-26T10:14:44Z</time>
      </trkpt>
      <trkpt lat="45.93974" lon="4.80206">
        <ele>206</ele>
        <time>2016-09-26T10:14:45Z</time>
      </trkpt>
      <trkpt lat="45.9397" lon="4.80193">
        <ele>206</ele>
        <time>2016-09-26T10:14:46Z</time>
      </trkpt>
      <trkpt lat="45.93967" lon="4.80181">
        <ele>207</ele>
        <time>2016-09-26T10:14:47Z</time>
      </trkpt>
      <trkpt lat="45.93964" lon="4.80168">
        <ele>207</ele>
        <time>2016-09-26T10:14:48Z</time>
      </trkpt>
      <trkpt lat="45.93962" lon="4.80156">
        <ele>209</ele>
        <time>2016-09-26T10:14:49Z</time>
      </trkpt>
      <trkpt lat="45.93959" lon="4.80144">
        <ele>209</ele>
        <time>2016-09-26T10:14:50Z</time>
      </trkpt>
      <trkpt lat="45.93958" lon="4.80132">
        <ele>209</ele>
        <time>2016-09-26T10:14:51Z</time>
      </trkpt>
      <trkpt lat="45.93957" lon="4.80121">
        <ele>209</ele>
        <time>2016-09-26T10:14:52Z</time>
      </trkpt>
      <trkpt lat="45.93956" lon="4.8011">
        <ele>209</ele>
        <time>2016-09-26T10:14:53Z</time>
      </trkpt>
      <trkpt lat="45.93953" lon="4.801">
        <ele>209</ele>
        <time>2016-09-26T10:14:54Z</time>
      </trkpt>
      <trkpt lat="45.93952" lon="4.8009">
        <ele>209</ele>
        <time>2016-09-26T10:14:55Z</time>
      </trkpt>
      <trkpt lat="45.93952" lon="4.80078">
        <ele>208</ele>
        <time>2016-09-26T10:14:56Z</time>
      </trkpt>
      <trkpt lat="45.93952" lon="4.80067">
        <ele>208</ele>
        <time>2016-09-26T10:14:57Z</time>
      </trkpt>
      <trkpt lat="45.93952" lon="4.80057">
        <ele>208</ele>
        <time>2016-09-26T10:14:58Z</time>
      </trkpt>
      <trkpt lat="45.93953" lon="4.80046">
        <ele>208</ele>
        <time>2016-09-26T10:14:59Z</time>
      </trkpt>
      <trkpt lat="45.93953" lon="4.80039">
        <ele>208</ele>
        <time>2016-09-26T10:15:00Z</time>
      </trkpt>
      <trkpt lat="45.93956" lon="4.80029">
        <ele>208</ele>
        <time>2016-09-26T10:15:01Z</time>
      </trkpt>
      <trkpt lat="45.93959" lon="4.80019">
        <ele>208</ele>
        <time>2016-09-26T10:15:02Z</time>
      </trkpt>
      <trkpt lat="45.93961" lon="4.80008">
        <ele>208</ele>
        <time>2016-09-26T10:15:03Z</time>
      </trkpt>
      <trkpt lat="45.93963" lon="4.79996">
        <ele>206</ele>
        <time>2016-09-26T10:15:04Z</time>
      </trkpt>
      <trkpt lat="45.93964" lon="4.79985">
        <ele>206</ele>
        <time>2016-09-26T10:15:05Z</time>
      </trkpt>
      <trkpt lat="45.93965" lon="4.79974">
        <ele>206</ele>
        <time>2016-09-26T10:15:06Z</time>
      </trkpt>
      <trkpt lat="45.93965" lon="4.79962">
        <ele>206</ele>
        <time>2016-09-26T10:15:07Z</time>
      </trkpt>
      <trkpt lat="45.93966" lon="4.79953">
        <ele>206</ele>
        <time>2016-09-26T10:15:08Z</time>
      </trkpt>
      <trkpt lat="45.93968" lon="4.79944">
        <ele>206</ele>
        <time>2016-09-26T10:15:09Z</time>
      </trkpt>
      <trkpt lat="45.93968" lon="4.79935">
        <ele>206</ele>
        <time>2016-09-26T10:15:10Z</time>
      </trkpt>
      <trkpt lat="45.93969" lon="4.79927">
        <ele>206</ele>
        <time>2016-09-26T10:15:11Z</time>
      </trkpt>
      <trkpt lat="45.9397" lon="4.79918">
        <ele>206</ele>
        <time>2016-09-26T10:15:12Z</time>
      </trkpt>
      <trkpt lat="45.9397" lon="4.79908">
        <ele>206</ele>
        <time>2016-09-26T10:15:13Z</time>
      </trkpt>
      <trkpt lat="45.93972" lon="4.79898">
        <ele>206</ele>
        <time>2016-09-26T10:15:14Z</time>
      </trkpt>
      <trkpt lat="45.93975" lon="4.79882">
        <ele>206</ele>
        <time>2016-09-26T10:15:15Z</time>
      </trkpt>
      <trkpt lat="45.93977" lon="4.79868">
        <ele>206</ele>
        <time>2016-09-26T10:15:16Z</time>
      </trkpt>
      <trkpt lat="45.93978" lon="4.79856">
        <ele>207</ele>
        <time>2016-09-26T10:15:17Z</time>
      </trkpt>
      <trkpt lat="45.93979" lon="4.79846">
        <ele>207</ele>
        <time>2016-09-26T10:15:18Z</time>
      </trkpt>
      <trkpt lat="45.93982" lon="4.79837">
        <ele>207</ele>
        <time>2016-09-26T10:15:19Z</time>
      </trkpt>
      <trkpt lat="45.93983" lon="4.79827">
        <ele>207</ele>
        <time>2016-09-26T10:15:20Z</time>
      </trkpt>
      <trkpt lat="45.93982" lon="4.7982">
        <ele>207</ele>
        <time>2016-09-26T10:15:21Z</time>
      </trkpt>
      <trkpt lat="45.93983" lon="4.7981">
        <ele>207</ele>
        <time>2016-09-26T10:15:22Z</time>
      </trkpt>
      <trkpt lat="45.93983" lon="4.798">
        <ele>207</ele>
        <time>2016-09-26T10:15:23Z</time>
      </trkpt>
      <trkpt lat="45.93984" lon="4.79791">
        <ele>207</ele>
        <time>2016-09-26T10:15:24Z</time>
      </trkpt>
      <trkpt lat="45.93984" lon="4.79782">
        <ele>207</ele>
        <time>2016-09-26T10:15:25Z</time>
      </trkpt>
      <trkpt lat="45.93984" lon="4.79774">
        <ele>207</ele>
        <time>2016-09-26T10:15:26Z</time>
      </trkpt>
      <trkpt lat="45.93987" lon="4.7976">
        <ele>207</ele>
        <time>2016-09-26T10:15:27Z</time>
      </trkpt>
      <trkpt lat="45.93989" lon="4.79745">
        <ele>207</ele>
        <time>2016-09-26T10:15:28Z</time>
      </trkpt>
      <trkpt lat="45.9399" lon="4.79734">
        <ele>207</ele>
        <time>2016-09-26T10:15:29Z</time>
      </trkpt>
      <trkpt lat="45.9399" lon="4.79726">
        <ele>207</ele>
        <time>2016-09-26T10:15:30Z</time>
      </trkpt>
      <trkpt lat="45.93988" lon="4.79717">
        <ele>207</ele>
        <time>2016-09-26T10:15:31Z</time>
      </trkpt>
      <trkpt lat="45.93986" lon="4.79708">
        <ele>207</ele>
        <time>2016-09-26T10:15:32Z</time>
      </trkpt>
      <trkpt lat="45.93984" lon="4.797">
        <ele>208</ele>
        <time>2016-09-26T10:15:33Z</time>
      </trkpt>
      <trkpt lat="45.93983" lon="4.79692">
        <ele>208</ele>
        <time>2016-09-26T10:15:34Z</time>
      </trkpt>
      <trkpt lat="45.93982" lon="4.79684">
        <ele>208</ele>
        <time>2016-09-26T10:15:35Z</time>
      </trkpt>
      <trkpt lat="45.93981" lon="4.79676">
        <ele>209</ele>
        <time>2016-09-26T10:15:36Z</time>
      </trkpt>
      <trkpt lat="45.93978" lon="4.7967">
        <ele>208</ele>
        <time>2016-09-26T10:15:37Z</time>
      </trkpt>
      <trkpt lat="45.93974" lon="4.79663">
        <ele>208</ele>
        <time>2016-09-26T10:15:38Z</time>
      </trkpt>
      <trkpt lat="45.93973" lon="4.79654">
        <ele>208</ele>
        <time>2016-09-26T10:15:39Z</time>
      </trkpt>
      <trkpt lat="45.93971" lon="4.79645">
        <ele>208</ele>
        <time>2016-09-26T10:15:40Z</time>
      </trkpt>
      <trkpt lat="45.93969" lon="4.79636">
        <ele>207</ele>
        <time>2016-09-26T10:15:41Z</time>
      </trkpt>
      <trkpt lat="45.93967" lon="4.79627">
        <ele>207</ele>
        <time>2016-09-26T10:15:42Z</time>
      </trkpt>
      <trkpt lat="45.93965" lon="4.79619">
        <ele>207</ele>
        <time>2016-09-26T10:15:43Z</time>
      </trkpt>
      <trkpt lat="45.93962" lon="4.7961">
        <ele>207</ele>
        <time>2016-09-26T10:15:44Z</time>
      </trkpt>
      <trkpt lat="45.93961" lon="4.796">
        <ele>207</ele>
        <time>2016-09-26T10:15:45Z</time>
      </trkpt>
      <trkpt lat="45.9396" lon="4.79592">
        <ele>207</ele>
        <time>2016-09-26T10:15:46Z</time>
      </trkpt>
      <trkpt lat="45.9396" lon="4.79583">
        <ele>206</ele>
        <time>2016-09-26T10:15:47Z</time>
      </trkpt>
      <trkpt lat="45.93958" lon="4.79574">
        <ele>205</ele>
        <time>2016-09-26T10:15:48Z</time>
      </trkpt>
      <trkpt lat="45.93958" lon="4.79564">
        <ele>205</ele>
        <time>2016-09-26T10:15:49Z</time>
      </trkpt>
      <trkpt lat="45.93957" lon="4.79554">
        <ele>205</ele>
        <time>2016-09-26T10:15:50Z</time>
      </trkpt>
      <trkpt lat="45.93956" lon="4.79544">
        <ele>205</ele>
        <time>2016-09-26T10:15:51Z</time>
      </trkpt>
      <trkpt lat="45.93955" lon="4.79533">
        <ele>205</ele>
        <time>2016-09-26T10:15:52Z</time>
      </trkpt>
      <trkpt lat="45.93955" lon="4.79522">
        <ele>204</ele>
        <time>2016-09-26T10:15:53Z</time>
      </trkpt>
      <trkpt lat="45.93955" lon="4.79512">
        <ele>204</ele>
        <time>2016-09-26T10:15:54Z</time>
      </trkpt>
      <trkpt lat="45.93955" lon="4.79501">
        <ele>204</ele>
        <time>2016-09-26T10:15:55Z</time>
      </trkpt>
      <trkpt lat="45.93956" lon="4.79491">
        <ele>203</ele>
        <time>2016-09-26T10:15:56Z</time>
      </trkpt>
      <trkpt lat="45.93956" lon="4.79481">
        <ele>203</ele>
        <time>2016-09-26T10:15:57Z</time>
      </trkpt>
      <trkpt lat="45.93956" lon="4.7947">
        <ele>203</ele>
        <time>2016-09-26T10:15:58Z</time>
      </trkpt>
      <trkpt lat="45.93956" lon="4.79459">
        <ele>203</ele>
        <time>2016-09-26T10:15:59Z</time>
      </trkpt>
      <trkpt lat="45.93956" lon="4.79448">
        <ele>203</ele>
        <time>2016-09-26T10:16:00Z</time>
      </trkpt>
      <trkpt lat="45.93955" lon="4.79437">
        <ele>203</ele>
        <time>2016-09-26T10:16:01Z</time>
      </trkpt>
      <trkpt lat="45.93954" lon="4.79427">
        <ele>202</ele>
        <time>2016-09-26T10:16:02Z</time>
      </trkpt>
      <trkpt lat="45.93954" lon="4.79416">
        <ele>201</ele>
        <time>2016-09-26T10:16:03Z</time>
      </trkpt>
      <trkpt lat="45.93953" lon="4.79405">
        <ele>201</ele>
        <time>2016-09-26T10:16:04Z</time>
      </trkpt>
      <trkpt lat="45.93954" lon="4.79392">
        <ele>201</ele>
        <time>2016-09-26T10:16:05Z</time>
      </trkpt>
      <trkpt lat="45.93954" lon="4.7938">
        <ele>201</ele>
        <time>2016-09-26T10:16:06Z</time>
      </trkpt>
      <trkpt lat="45.93954" lon="4.79368">
        <ele>201</ele>
        <time>2016-09-26T10:16:07Z</time>
      </trkpt>
      <trkpt lat="45.93954" lon="4.79356">
        <ele>201</ele>
        <time>2016-09-26T10:16:08Z</time>
      </trkpt>
      <trkpt lat="45.93954" lon="4.79344">
        <ele>200</ele>
        <time>2016-09-26T10:16:09Z</time>
      </trkpt>
      <trkpt lat="45.93954" lon="4.79332">
        <ele>199</ele>
        <time>2016-09-26T10:16:10Z</time>
      </trkpt>
      <trkpt lat="45.93955" lon="4.7932">
        <ele>199</ele>
        <time>2016-09-26T10:16:11Z</time>
      </trkpt>
      <trkpt lat="45.93957" lon="4.79311">
        <ele>199</ele>
        <time>2016-09-26T10:16:12Z</time>
      </trkpt>
      <trkpt lat="45.93957" lon="4.79298">
        <ele>199</ele>
        <time>2016-09-26T10:16:13Z</time>
      </trkpt>
      <trkpt lat="45.93957" lon="4.79286">
        <ele>199</ele>
        <time>2016-09-26T10:16:14Z</time>
      </trkpt>
      <trkpt lat="45.93957" lon="4.79276">
        <ele>198</ele>
        <time>2016-09-26T10:16:15Z</time>
      </trkpt>
      <trkpt lat="45.93957" lon="4.79265">
        <ele>198</ele>
        <time>2016-09-26T10:16:16Z</time>
      </trkpt>
      <trkpt lat="45.93958" lon="4.79254">
        <ele>198</ele>
        <time>2016-09-26T10:16:17Z</time>
      </trkpt>
      <trkpt lat="45.93958" lon="4.79244">
        <ele>197</ele>
        <time>2016-09-26T10:16:18Z</time>
      </trkpt>
      <trkpt lat="45.93958" lon="4.79233">
        <ele>197</ele>
        <time>2016-09-26T10:16:19Z</time>
      </trkpt>
      <trkpt lat="45.93958" lon="4.79223">
        <ele>197</ele>
        <time>2016-09-26T10:16:20Z</time>
      </trkpt>
      <trkpt lat="45.93959" lon="4.79212">
        <ele>198</ele>
        <time>2016-09-26T10:16:21Z</time>
      </trkpt>
      <trkpt lat="45.93958" lon="4.79202">
        <ele>197</ele>
        <time>2016-09-26T10:16:22Z</time>
      </trkpt>
      <trkpt lat="45.93958" lon="4.79192">
        <ele>197</ele>
        <time>2016-09-26T10:16:23Z</time>
      </trkpt>
      <trkpt lat="45.93958" lon="4.7918">
        <ele>197</ele>
        <time>2016-09-26T10:16:24Z</time>
      </trkpt>
      <trkpt lat="45.93959" lon="4.7917">
        <ele>198</ele>
        <time>2016-09-26T10:16:25Z</time>
      </trkpt>
      <trkpt lat="45.93959" lon="4.79159">
        <ele>197</ele>
        <time>2016-09-26T10:16:26Z</time>
      </trkpt>
      <trkpt lat="45.9396" lon="4.79148">
        <ele>197</ele>
        <time>2016-09-26T10:16:27Z</time>
      </trkpt>
      <trkpt lat="45.93961" lon="4.79137">
        <ele>197</ele>
        <time>2016-09-26T10:16:28Z</time>
      </trkpt>
      <trkpt lat="45.93962" lon="4.79126">
        <ele>197</ele>
        <time>2016-09-26T10:16:29Z</time>
      </trkpt>
      <trkpt lat="45.93961" lon="4.79115">
        <ele>197</ele>
        <time>2016-09-26T10:16:30Z</time>
      </trkpt>
      <trkpt lat="45.9396" lon="4.79105">
        <ele>197</ele>
        <time>2016-09-26T10:16:31Z</time>
      </trkpt>
      <trkpt lat="45.93959" lon="4.79095">
        <ele>197</ele>
        <time>2016-09-26T10:16:32Z</time>
      </trkpt>
      <trkpt lat="45.93958" lon="4.79086">
        <ele>197</ele>
        <time>2016-09-26T10:16:33Z</time>
      </trkpt>
      <trkpt lat="45.93956" lon="4.79076">
        <ele>196</ele>
        <time>2016-09-26T10:16:34Z</time>
      </trkpt>
      <trkpt lat="45.93955" lon="4.79066">
        <ele>196</ele>
        <time>2016-09-26T10:16:35Z</time>
      </trkpt>
      <trkpt lat="45.93955" lon="4.79055">
        <ele>196</ele>
        <time>2016-09-26T10:16:36Z</time>
      </trkpt>
      <trkpt lat="45.93955" lon="4.79045">
        <ele>196</ele>
        <time>2016-09-26T10:16:37Z</time>
      </trkpt>
      <trkpt lat="45.93955" lon="4.79035">
        <ele>196</ele>
        <time>2016-09-26T10:16:38Z</time>
      </trkpt>
      <trkpt lat="45.93955" lon="4.79025">
        <ele>196</ele>
        <time>2016-09-26T10:16:39Z</time>
      </trkpt>
      <trkpt lat="45.93955" lon="4.79016">
        <ele>196</ele>
        <time>2016-09-26T10:16:40Z</time>
      </trkpt>
      <trkpt lat="45.93955" lon="4.79007">
        <ele>196</ele>
        <time>2016-09-26T10:16:41Z</time>
      </trkpt>
      <trkpt lat="45.93954" lon="4.78998">
        <ele>195</ele>
        <time>2016-09-26T10:16:42Z</time>
      </trkpt>
      <trkpt lat="45.93948" lon="4.78993">
        <ele>194</ele>
        <time>2016-09-26T10:16:43Z</time>
      </trkpt>
      <trkpt lat="45.93946" lon="4.78987">
        <ele>194</ele>
        <time>2016-09-26T10:16:44Z</time>
      </trkpt>
      <trkpt lat="45.93945" lon="4.78979">
        <ele>194</ele>
        <time>2016-09-26T10:16:45Z</time>
      </trkpt>
      <trkpt lat="45.93952" lon="4.78962">
        <ele>194</ele>
        <time>2016-09-26T10:16:46Z</time>
      </trkpt>
      <trkpt lat="45.93952" lon="4.78952">
        <ele>194</ele>
        <time>2016-09-26T10:16:47Z</time>
      </trkpt>
      <trkpt lat="45.93952" lon="4.78941">
        <ele>194</ele>
        <time>2016-09-26T10:16:48Z</time>
      </trkpt>
      <trkpt lat="45.93952" lon="4.78929">
        <ele>194</ele>
        <time>2016-09-26T10:16:49Z</time>
      </trkpt>
      <trkpt lat="45.93953" lon="4.78919">
        <ele>194</ele>
        <time>2016-09-26T10:16:50Z</time>
      </trkpt>
      <trkpt lat="45.93953" lon="4.78908">
        <ele>194</ele>
        <time>2016-09-26T10:16:51Z</time>
      </trkpt>
      <trkpt lat="45.93952" lon="4.78898">
        <ele>194</ele>
        <time>2016-09-26T10:16:52Z</time>
      </trkpt>
      <trkpt lat="45.9395" lon="4.7889">
        <ele>194</ele>
        <time>2016-09-26T10:16:53Z</time>
      </trkpt>
      <trkpt lat="45.93949" lon="4.7888">
        <ele>194</ele>
        <time>2016-09-26T10:16:54Z</time>
      </trkpt>
      <trkpt lat="45.93948" lon="4.78871">
        <ele>194</ele>
        <time>2016-09-26T10:16:55Z</time>
      </trkpt>
      <trkpt lat="45.93947" lon="4.78861">
        <ele>194</ele>
        <time>2016-09-26T10:16:56Z</time>
      </trkpt>
      <trkpt lat="45.93946" lon="4.78851">
        <ele>194</ele>
        <time>2016-09-26T10:16:57Z</time>
      </trkpt>
      <trkpt lat="45.93946" lon="4.78841">
        <ele>194</ele>
        <time>2016-09-26T10:16:58Z</time>
      </trkpt>
      <trkpt lat="45.93945" lon="4.7883">
        <ele>194</ele>
        <time>2016-09-26T10:16:59Z</time>
      </trkpt>
      <trkpt lat="45.93944" lon="4.7882">
        <ele>194</ele>
        <time>2016-09-26T10:17:00Z</time>
      </trkpt>
      <trkpt lat="45.93944" lon="4.78809">
        <ele>194</ele>
        <time>2016-09-26T10:17:01Z</time>
      </trkpt>
      <trkpt lat="45.93944" lon="4.78799">
        <ele>194</ele>
        <time>2016-09-26T10:17:02Z</time>
      </trkpt>
      <trkpt lat="45.93943" lon="4.7879">
        <ele>194</ele>
        <time>2016-09-26T10:17:03Z</time>
      </trkpt>
      <trkpt lat="45.93943" lon="4.78782">
        <ele>194</ele>
        <time>2016-09-26T10:17:04Z</time>
      </trkpt>
      <trkpt lat="45.93942" lon="4.78772">
        <ele>194</ele>
        <time>2016-09-26T10:17:05Z</time>
      </trkpt>
      <trkpt lat="45.93942" lon="4.78765">
        <ele>194</ele>
        <time>2016-09-26T10:17:06Z</time>
      </trkpt>
      <trkpt lat="45.93941" lon="4.78756">
        <ele>193</ele>
        <time>2016-09-26T10:17:07Z</time>
      </trkpt>
      <trkpt lat="45.93941" lon="4.78747">
        <ele>193</ele>
        <time>2016-09-26T10:17:08Z</time>
      </trkpt>
      <trkpt lat="45.93941" lon="4.78738">
        <ele>194</ele>
        <time>2016-09-26T10:17:09Z</time>
      </trkpt>
      <trkpt lat="45.93941" lon="4.78728">
        <ele>194</ele>
        <time>2016-09-26T10:17:10Z</time>
      </trkpt>
      <trkpt lat="45.93941" lon="4.7872">
        <ele>194</ele>
        <time>2016-09-26T10:17:11Z</time>
      </trkpt>
      <trkpt lat="45.93942" lon="4.7871">
        <ele>194</ele>
        <time>2016-09-26T10:17:12Z</time>
      </trkpt>
      <trkpt lat="45.93943" lon="4.78702">
        <ele>194</ele>
        <time>2016-09-26T10:17:13Z</time>
      </trkpt>
      <trkpt lat="45.93943" lon="4.78693">
        <ele>194</ele>
        <time>2016-09-26T10:17:14Z</time>
      </trkpt>
      <trkpt lat="45.93942" lon="4.78683">
        <ele>194</ele>
        <time>2016-09-26T10:17:15Z</time>
      </trkpt>
      <trkpt lat="45.93942" lon="4.78675">
        <ele>194</ele>
        <time>2016-09-26T10:17:16Z</time>
      </trkpt>
      <trkpt lat="45.93942" lon="4.78668">
        <ele>194</ele>
        <time>2016-09-26T10:17:17Z</time>
      </trkpt>
      <trkpt lat="45.93943" lon="4.7866">
        <ele>195</ele>
        <time>2016-09-26T10:17:18Z</time>
      </trkpt>
      <trkpt lat="45.93943" lon="4.78652">
        <ele>195</ele>
        <time>2016-09-26T10:17:19Z</time>
      </trkpt>
      <trkpt lat="45.93943" lon="4.78645">
        <ele>195</ele>
        <time>2016-09-26T10:17:20Z</time>
      </trkpt>
      <trkpt lat="45.93943" lon="4.78637">
        <ele>195</ele>
        <time>2016-09-26T10:17:21Z</time>
      </trkpt>
      <trkpt lat="45.93943" lon="4.7863">
        <ele>196</ele>
        <time>2016-09-26T10:17:22Z</time>
      </trkpt>
      <trkpt lat="45.93943" lon="4.78623">
        <ele>196</ele>
        <time>2016-09-26T10:17:23Z</time>
      </trkpt>
      <trkpt lat="45.93943" lon="4.78615">
        <ele>196</ele>
        <time>2016-09-26T10:17:24Z</time>
      </trkpt>
      <trkpt lat="45.93942" lon="4.78608">
        <ele>196</ele>
        <time>2016-09-26T10:17:25Z</time>
      </trkpt>
      <trkpt lat="45.93942" lon="4.78602">
        <ele>196</ele>
        <time>2016-09-26T10:17:26Z</time>
      </trkpt>
      <trkpt lat="45.93942" lon="4.78592">
        <ele>196</ele>
        <time>2016-09-26T10:17:28Z</time>
      </trkpt>
      <trkpt lat="45.93942" lon="4.78587">
        <ele>196</ele>
        <time>2016-09-26T10:17:29Z</time>
      </trkpt>
      <trkpt lat="45.9394" lon="4.78575">
        <ele>197</ele>
        <time>2016-09-26T10:17:31Z</time>
      </trkpt>
      <trkpt lat="45.93939" lon="4.78569">
        <ele>197</ele>
        <time>2016-09-26T10:17:32Z</time>
      </trkpt>
      <trkpt lat="45.9394" lon="4.78557">
        <ele>197</ele>
        <time>2016-09-26T10:17:34Z</time>
      </trkpt>
      <trkpt lat="45.9394" lon="4.78551">
        <ele>197</ele>
        <time>2016-09-26T10:17:35Z</time>
      </trkpt>
      <trkpt lat="45.93941" lon="4.78544">
        <ele>197</ele>
        <time>2016-09-26T10:17:36Z</time>
      </trkpt>
      <trkpt lat="45.93941" lon="4.78538">
        <ele>197</ele>
        <time>2016-09-26T10:17:37Z</time>
      </trkpt>
      <trkpt lat="45.93942" lon="4.7853">
        <ele>197</ele>
        <time>2016-09-26T10:17:38Z</time>
      </trkpt>
      <trkpt lat="45.93942" lon="4.78523">
        <ele>197</ele>
        <time>2016-09-26T10:17:39Z</time>
      </trkpt>
      <trkpt lat="45.93942" lon="4.78516">
        <ele>197</ele>
        <time>2016-09-26T10:17:40Z</time>
      </trkpt>
      <trkpt lat="45.93943" lon="4.78508">
        <ele>197</ele>
        <time>2016-09-26T10:17:41Z</time>
      </trkpt>
      <trkpt lat="45.93944" lon="4.78501">
        <ele>197</ele>
        <time>2016-09-26T10:17:42Z</time>
      </trkpt>
      <trkpt lat="45.93945" lon="4.78494">
        <ele>197</ele>
        <time>2016-09-26T10:17:43Z</time>
      </trkpt>
      <trkpt lat="45.93946" lon="4.78487">
        <ele>197</ele>
        <time>2016-09-26T10:17:44Z</time>
      </trkpt>
      <trkpt lat="45.93947" lon="4.7848">
        <ele>197</ele>
        <time>2016-09-26T10:17:45Z</time>
      </trkpt>
      <trkpt lat="45.93948" lon="4.78473">
        <ele>198</ele>
        <time>2016-09-26T10:17:46Z</time>
      </trkpt>
      <trkpt lat="45.93949" lon="4.78467">
        <ele>198</ele>
        <time>2016-09-26T10:17:47Z</time>
      </trkpt>
      <trkpt lat="45.9395" lon="4.78459">
        <ele>198</ele>
        <time>2016-09-26T10:17:48Z</time>
      </trkpt>
      <trkpt lat="45.93951" lon="4.78453">
        <ele>198</ele>
        <time>2016-09-26T10:17:49Z</time>
      </trkpt>
      <trkpt lat="45.93952" lon="4.78446">
        <ele>198</ele>
        <time>2016-09-26T10:17:50Z</time>
      </trkpt>
      <trkpt lat="45.93952" lon="4.78438">
        <ele>197</ele>
        <time>2016-09-26T10:17:51Z</time>
      </trkpt>
      <trkpt lat="45.93953" lon="4.7843">
        <ele>197</ele>
        <time>2016-09-26T10:17:52Z</time>
      </trkpt>
      <trkpt lat="45.93953" lon="4.78424">
        <ele>197</ele>
        <time>2016-09-26T10:17:53Z</time>
      </trkpt>
      <trkpt lat="45.93956" lon="4.78413">
        <ele>197</ele>
        <time>2016-09-26T10:17:55Z</time>
      </trkpt>
      <trkpt lat="45.93958" lon="4.78407">
        <ele>197</ele>
        <time>2016-09-26T10:17:56Z</time>
      </trkpt>
      <trkpt lat="45.93958" lon="4.784">
        <ele>197</ele>
        <time>2016-09-26T10:17:57Z</time>
      </trkpt>
      <trkpt lat="45.93959" lon="4.78393">
        <ele>197</ele>
        <time>2016-09-26T10:17:58Z</time>
      </trkpt>
      <trkpt lat="45.93959" lon="4.78385">
        <ele>197</ele>
        <time>2016-09-26T10:17:59Z</time>
      </trkpt>
      <trkpt lat="45.9396" lon="4.78376">
        <ele>197</ele>
        <time>2016-09-26T10:18:00Z</time>
      </trkpt>
      <trkpt lat="45.93961" lon="4.78369">
        <ele>197</ele>
        <time>2016-09-26T10:18:01Z</time>
      </trkpt>
      <trkpt lat="45.93961" lon="4.78362">
        <ele>197</ele>
        <time>2016-09-26T10:18:02Z</time>
      </trkpt>
      <trkpt lat="45.93962" lon="4.78354">
        <ele>197</ele>
        <time>2016-09-26T10:18:03Z</time>
      </trkpt>
      <trkpt lat="45.93964" lon="4.78347">
        <ele>197</ele>
        <time>2016-09-26T10:18:04Z</time>
      </trkpt>
      <trkpt lat="45.93965" lon="4.78335">
        <ele>197</ele>
        <time>2016-09-26T10:18:06Z</time>
      </trkpt>
      <trkpt lat="45.93966" lon="4.78329">
        <ele>196</ele>
        <time>2016-09-26T10:18:07Z</time>
      </trkpt>
      <trkpt lat="45.93967" lon="4.78316">
        <ele>196</ele>
        <time>2016-09-26T10:18:09Z</time>
      </trkpt>
      <trkpt lat="45.93968" lon="4.7831">
        <ele>196</ele>
        <time>2016-09-26T10:18:10Z</time>
      </trkpt>
      <trkpt lat="45.93969" lon="4.78303">
        <ele>196</ele>
        <time>2016-09-26T10:18:11Z</time>
      </trkpt>
      <trkpt lat="45.9397" lon="4.78297">
        <ele>196</ele>
        <time>2016-09-26T10:18:12Z</time>
      </trkpt>
      <trkpt lat="45.9397" lon="4.78286">
        <ele>196</ele>
        <time>2016-09-26T10:18:13Z</time>
      </trkpt>
      <trkpt lat="45.93971" lon="4.78279">
        <ele>196</ele>
        <time>2016-09-26T10:18:14Z</time>
      </trkpt>
      <trkpt lat="45.93972" lon="4.78272">
        <ele>196</ele>
        <time>2016-09-26T10:18:15Z</time>
      </trkpt>
      <trkpt lat="45.93975" lon="4.78265">
        <ele>196</ele>
        <time>2016-09-26T10:18:16Z</time>
      </trkpt>
      <trkpt lat="45.93976" lon="4.78259">
        <ele>196</ele>
        <time>2016-09-26T10:18:17Z</time>
      </trkpt>
      <trkpt lat="45.93977" lon="4.78251">
        <ele>196</ele>
        <time>2016-09-26T10:18:18Z</time>
      </trkpt>
      <trkpt lat="45.93977" lon="4.78243">
        <ele>197</ele>
        <time>2016-09-26T10:18:19Z</time>
      </trkpt>
      <trkpt lat="45.93977" lon="4.78238">
        <ele>197</ele>
        <time>2016-09-26T10:18:20Z</time>
      </trkpt>
      <trkpt lat="45.9398" lon="4.78226">
        <ele>197</ele>
        <time>2016-09-26T10:18:22Z</time>
      </trkpt>
      <trkpt lat="45.93982" lon="4.78221">
        <ele>197</ele>
        <time>2016-09-26T10:18:23Z</time>
      </trkpt>
      <trkpt lat="45.93982" lon="4.78213">
        <ele>197</ele>
        <time>2016-09-26T10:18:24Z</time>
      </trkpt>
      <trkpt lat="45.93984" lon="4.78206">
        <ele>197</ele>
        <time>2016-09-26T10:18:25Z</time>
      </trkpt>
      <trkpt lat="45.93987" lon="4.78199">
        <ele>197</ele>
        <time>2016-09-26T10:18:27Z</time>
      </trkpt>
      <trkpt lat="45.93988" lon="4.78192">
        <ele>198</ele>
        <time>2016-09-26T10:18:28Z</time>
      </trkpt>
      <trkpt lat="45.93991" lon="4.78181">
        <ele>199</ele>
        <time>2016-09-26T10:18:30Z</time>
      </trkpt>
      <trkpt lat="45.93993" lon="4.78177">
        <ele>199</ele>
        <time>2016-09-26T10:18:31Z</time>
      </trkpt>
      <trkpt lat="45.94" lon="4.7817">
        <ele>200</ele>
        <time>2016-09-26T10:18:33Z</time>
      </trkpt>
      <trkpt lat="45.94002" lon="4.78164">
        <ele>202</ele>
        <time>2016-09-26T10:18:34Z</time>
      </trkpt>
      <trkpt lat="45.94002" lon="4.78151">
        <ele>203</ele>
        <time>2016-09-26T10:18:36Z</time>
      </trkpt>
      <trkpt lat="45.94002" lon="4.78145">
        <ele>203</ele>
        <time>2016-09-26T10:18:37Z</time>
      </trkpt>
      <trkpt lat="45.94003" lon="4.78137">
        <ele>203</ele>
        <time>2016-09-26T10:18:38Z</time>
      </trkpt>
      <trkpt lat="45.94004" lon="4.7813">
        <ele>203</ele>
        <time>2016-09-26T10:18:39Z</time>
      </trkpt>
      <trkpt lat="45.94005" lon="4.78123">
        <ele>203</ele>
        <time>2016-09-26T10:18:40Z</time>
      </trkpt>
      <trkpt lat="45.94006" lon="4.78116">
        <ele>203</ele>
        <time>2016-09-26T10:18:41Z</time>
      </trkpt>
      <trkpt lat="45.94007" lon="4.78109">
        <ele>202</ele>
        <time>2016-09-26T10:18:42Z</time>
      </trkpt>
      <trkpt lat="45.94009" lon="4.78102">
        <ele>202</ele>
        <time>2016-09-26T10:18:43Z</time>
      </trkpt>
      <trkpt lat="45.94011" lon="4.78095">
        <ele>202</ele>
        <time>2016-09-26T10:18:44Z</time>
      </trkpt>
      <trkpt lat="45.94013" lon="4.78088">
        <ele>201</ele>
        <time>2016-09-26T10:18:45Z</time>
      </trkpt>
      <trkpt lat="45.94011" lon="4.7808">
        <ele>201</ele>
        <time>2016-09-26T10:18:46Z</time>
      </trkpt>
      <trkpt lat="45.94014" lon="4.78073">
        <ele>201</ele>
        <time>2016-09-26T10:18:47Z</time>
      </trkpt>
      <trkpt lat="45.94014" lon="4.78065">
        <ele>201</ele>
        <time>2016-09-26T10:18:48Z</time>
      </trkpt>
      <trkpt lat="45.94016" lon="4.78056">
        <ele>202</ele>
        <time>2016-09-26T10:18:49Z</time>
      </trkpt>
      <trkpt lat="45.94018" lon="4.78049">
        <ele>202</ele>
        <time>2016-09-26T10:18:50Z</time>
      </trkpt>
      <trkpt lat="45.94018" lon="4.78042">
        <ele>202</ele>
        <time>2016-09-26T10:18:51Z</time>
      </trkpt>
      <trkpt lat="45.94018" lon="4.78035">
        <ele>201</ele>
        <time>2016-09-26T10:18:52Z</time>
      </trkpt>
      <trkpt lat="45.94018" lon="4.78029">
        <ele>201</ele>
        <time>2016-09-26T10:18:53Z</time>
      </trkpt>
      <trkpt lat="45.94019" lon="4.78016">
        <ele>201</ele>
        <time>2016-09-26T10:18:55Z</time>
      </trkpt>
      <trkpt lat="45.9402" lon="4.7801">
        <ele>200</ele>
        <time>2016-09-26T10:18:56Z</time>
      </trkpt>
      <trkpt lat="45.94021" lon="4.77997">
        <ele>199</ele>
        <time>2016-09-26T10:18:58Z</time>
      </trkpt>
      <trkpt lat="45.94022" lon="4.77989">
        <ele>200</ele>
        <time>2016-09-26T10:18:59Z</time>
      </trkpt>
      <trkpt lat="45.94023" lon="4.7798">
        <ele>200</ele>
        <time>2016-09-26T10:19:00Z</time>
      </trkpt>
      <trkpt lat="45.94024" lon="4.77973">
        <ele>200</ele>
        <time>2016-09-26T10:19:01Z</time>
      </trkpt>
      <trkpt lat="45.94025" lon="4.77965">
        <ele>200</ele>
        <time>2016-09-26T10:19:02Z</time>
      </trkpt>
      <trkpt lat="45.94027" lon="4.77958">
        <ele>200</ele>
        <time>2016-09-26T10:19:03Z</time>
      </trkpt>
      <trkpt lat="45.94029" lon="4.77951">
        <ele>200</ele>
        <time>2016-09-26T10:19:04Z</time>
      </trkpt>
      <trkpt lat="45.9403" lon="4.77944">
        <ele>200</ele>
        <time>2016-09-26T10:19:05Z</time>
      </trkpt>
      <trkpt lat="45.9403" lon="4.77937">
        <ele>200</ele>
        <time>2016-09-26T10:19:06Z</time>
      </trkpt>
      <trkpt lat="45.94032" lon="4.7793">
        <ele>200</ele>
        <time>2016-09-26T10:19:07Z</time>
      </trkpt>
      <trkpt lat="45.94025" lon="4.77925">
        <ele>199</ele>
        <time>2016-09-26T10:19:09Z</time>
      </trkpt>
      <trkpt lat="45.94019" lon="4.77925">
        <ele>198</ele>
        <time>2016-09-26T10:19:10Z</time>
      </trkpt>
      <trkpt lat="45.94013" lon="4.77926">
        <ele>198</ele>
        <time>2016-09-26T10:19:11Z</time>
      </trkpt>
      <trkpt lat="45.94007" lon="4.77928">
        <ele>197</ele>
        <time>2016-09-26T10:19:12Z</time>
      </trkpt>
      <trkpt lat="45.94" lon="4.77931">
        <ele>192</ele>
        <time>2016-09-26T10:19:13Z</time>
      </trkpt>
      <trkpt lat="45.93993" lon="4.77935">
        <ele>192</ele>
        <time>2016-09-26T10:19:14Z</time>
      </trkpt>
      <trkpt lat="45.93985" lon="4.7794">
        <ele>191</ele>
        <time>2016-09-26T10:19:15Z</time>
      </trkpt>
      <trkpt lat="45.93977" lon="4.77946">
        <ele>191</ele>
        <time>2016-09-26T10:19:16Z</time>
      </trkpt>
      <trkpt lat="45.93969" lon="4.77952">
        <ele>191</ele>
        <time>2016-09-26T10:19:17Z</time>
      </trkpt>
      <trkpt lat="45.9396" lon="4.77957">
        <ele>190</ele>
        <time>2016-09-26T10:19:18Z</time>
      </trkpt>
      <trkpt lat="45.9395" lon="4.77962">
        <ele>190</ele>
        <time>2016-09-26T10:19:19Z</time>
      </trkpt>
      <trkpt lat="45.9394" lon="4.77966">
        <ele>189</ele>
        <time>2016-09-26T10:19:20Z</time>
      </trkpt>
      <trkpt lat="45.9393" lon="4.77972">
        <ele>189</ele>
        <time>2016-09-26T10:19:21Z</time>
      </trkpt>
      <trkpt lat="45.93921" lon="4.77978">
        <ele>188</ele>
        <time>2016-09-26T10:19:22Z</time>
      </trkpt>
      <trkpt lat="45.93912" lon="4.77984">
        <ele>183</ele>
        <time>2016-09-26T10:19:23Z</time>
      </trkpt>
      <trkpt lat="45.93904" lon="4.7799">
        <ele>183</ele>
        <time>2016-09-26T10:19:24Z</time>
      </trkpt>
      <trkpt lat="45.93897" lon="4.77996">
        <ele>182</ele>
        <time>2016-09-26T10:19:25Z</time>
      </trkpt>
      <trkpt lat="45.93891" lon="4.78002">
        <ele>184</ele>
        <time>2016-09-26T10:19:26Z</time>
      </trkpt>
      <trkpt lat="45.93886" lon="4.78007">
        <ele>184</ele>
        <time>2016-09-26T10:19:27Z</time>
      </trkpt>
      <trkpt lat="45.93882" lon="4.78011">
        <ele>184</ele>
        <time>2016-09-26T10:19:28Z</time>
      </trkpt>
      <trkpt lat="45.93874" lon="4.78014">
        <ele>183</ele>
        <time>2016-09-26T10:19:32Z</time>
      </trkpt>
      <trkpt lat="45.93873" lon="4.78014">
        <ele>183</ele>
        <time>2016-09-26T10:19:33Z</time>
      </trkpt>
      <trkpt lat="45.93868" lon="4.78006">
        <ele>183</ele>
        <time>2016-09-26T10:19:36Z</time>
      </trkpt>
      <trkpt lat="45.93865" lon="4.78002">
        <ele>183</ele>
        <time>2016-09-26T10:19:37Z</time>
      </trkpt>
      <trkpt lat="45.93861" lon="4.77995">
        <ele>179</ele>
        <time>2016-09-26T10:19:39Z</time>
      </trkpt>
      <trkpt lat="45.93858" lon="4.77991">
        <ele>179</ele>
        <time>2016-09-26T10:19:40Z</time>
      </trkpt>
      <trkpt lat="45.93854" lon="4.77987">
        <ele>179</ele>
        <time>2016-09-26T10:19:41Z</time>
      </trkpt>
      <trkpt lat="45.93849" lon="4.77983">
        <ele>179</ele>
        <time>2016-09-26T10:19:42Z</time>
      </trkpt>
      <trkpt lat="45.93845" lon="4.77978">
        <ele>178</ele>
        <time>2016-09-26T10:19:43Z</time>
      </trkpt>
      <trkpt lat="45.9384" lon="4.77971">
        <ele>178</ele>
        <time>2016-09-26T10:19:44Z</time>
      </trkpt>
      <trkpt lat="45.93837" lon="4.77965">
        <ele>177</ele>
        <time>2016-09-26T10:19:45Z</time>
      </trkpt>
      <trkpt lat="45.93833" lon="4.7796">
        <ele>171</ele>
        <time>2016-09-26T10:19:46Z</time>
      </trkpt>
      <trkpt lat="45.93829" lon="4.77955">
        <ele>170</ele>
        <time>2016-09-26T10:19:47Z</time>
      </trkpt>
      <trkpt lat="45.93824" lon="4.77949">
        <ele>169</ele>
        <time>2016-09-26T10:19:48Z</time>
      </trkpt>
      <trkpt lat="45.93821" lon="4.77945">
        <ele>169</ele>
        <time>2016-09-26T10:19:49Z</time>
      </trkpt>
      <trkpt lat="45.93817" lon="4.77939">
        <ele>169</ele>
        <time>2016-09-26T10:19:50Z</time>
      </trkpt>
      <trkpt lat="45.93814" lon="4.77934">
        <ele>168</ele>
        <time>2016-09-26T10:19:51Z</time>
      </trkpt>
      <trkpt lat="45.93811" lon="4.77929">
        <ele>168</ele>
        <time>2016-09-26T10:19:52Z</time>
      </trkpt>
      <trkpt lat="45.93807" lon="4.77925">
        <ele>168</ele>
        <time>2016-09-26T10:19:53Z</time>
      </trkpt>
      <trkpt lat="45.93804" lon="4.7792">
        <ele>168</ele>
        <time>2016-09-26T10:19:54Z</time>
      </trkpt>
      <trkpt lat="45.938" lon="4.77915">
        <ele>166</ele>
        <time>2016-09-26T10:19:55Z</time>
      </trkpt>
      <trkpt lat="45.93797" lon="4.77911">
        <ele>166</ele>
        <time>2016-09-26T10:19:56Z</time>
      </trkpt>
      <trkpt lat="45.93793" lon="4.77906">
        <ele>166</ele>
        <time>2016-09-26T10:19:57Z</time>
      </trkpt>
      <trkpt lat="45.9379" lon="4.77901">
        <ele>166</ele>
        <time>2016-09-26T10:19:58Z</time>
      </trkpt>
      <trkpt lat="45.93785" lon="4.77895">
        <ele>166</ele>
        <time>2016-09-26T10:19:59Z</time>
      </trkpt>
      <trkpt lat="45.93781" lon="4.7789">
        <ele>166</ele>
        <time>2016-09-26T10:20:00Z</time>
      </trkpt>
      <trkpt lat="45.93778" lon="4.77885">
        <ele>166</ele>
        <time>2016-09-26T10:20:01Z</time>
      </trkpt>
      <trkpt lat="45.93774" lon="4.77881">
        <ele>166</ele>
        <time>2016-09-26T10:20:02Z</time>
      </trkpt>
      <trkpt lat="45.93771" lon="4.77876">
        <ele>166</ele>
        <time>2016-09-26T10:20:03Z</time>
      </trkpt>
      <trkpt lat="45.93767" lon="4.77871">
        <ele>166</ele>
        <time>2016-09-26T10:20:04Z</time>
      </trkpt>
      <trkpt lat="45.93763" lon="4.77866">
        <ele>166</ele>
        <time>2016-09-26T10:20:05Z</time>
      </trkpt>
      <trkpt lat="45.93761" lon="4.7786">
        <ele>166</ele>
        <time>2016-09-26T10:20:06Z</time>
      </trkpt>
      <trkpt lat="45.93757" lon="4.77855">
        <ele>166</ele>
        <time>2016-09-26T10:20:07Z</time>
      </trkpt>
      <trkpt lat="45.93753" lon="4.7785">
        <ele>166</ele>
        <time>2016-09-26T10:20:08Z</time>
      </trkpt>
      <trkpt lat="45.93746" lon="4.77845">
        <ele>166</ele>
        <time>2016-09-26T10:20:09Z</time>
      </trkpt>
      <trkpt lat="45.9374" lon="4.7784">
        <ele>166</ele>
        <time>2016-09-26T10:20:10Z</time>
      </trkpt>
      <trkpt lat="45.93735" lon="4.77835">
        <ele>167</ele>
        <time>2016-09-26T10:20:11Z</time>
      </trkpt>
      <trkpt lat="45.93731" lon="4.77829">
        <ele>168</ele>
        <time>2016-09-26T10:20:12Z</time>
      </trkpt>
      <trkpt lat="45.93728" lon="4.77823">
        <ele>168</ele>
        <time>2016-09-26T10:20:13Z</time>
      </trkpt>
      <trkpt lat="45.93723" lon="4.77817">
        <ele>168</ele>
        <time>2016-09-26T10:20:14Z</time>
      </trkpt>
      <trkpt lat="45.93719" lon="4.77812">
        <ele>169</ele>
        <time>2016-09-26T10:20:15Z</time>
      </trkpt>
      <trkpt lat="45.93714" lon="4.77806">
        <ele>169</ele>
        <time>2016-09-26T10:20:16Z</time>
      </trkpt>
      <trkpt lat="45.9371" lon="4.77801">
        <ele>169</ele>
        <time>2016-09-26T10:20:17Z</time>
      </trkpt>
      <trkpt lat="45.93705" lon="4.77795">
        <ele>169</ele>
        <time>2016-09-26T10:20:18Z</time>
      </trkpt>
      <trkpt lat="45.93701" lon="4.77789">
        <ele>169</ele>
        <time>2016-09-26T10:20:19Z</time>
      </trkpt>
      <trkpt lat="45.93696" lon="4.77783">
        <ele>170</ele>
        <time>2016-09-26T10:20:20Z</time>
      </trkpt>
      <trkpt lat="45.93692" lon="4.77777">
        <ele>170</ele>
        <time>2016-09-26T10:20:21Z</time>
      </trkpt>
      <trkpt lat="45.93687" lon="4.7777">
        <ele>170</ele>
        <time>2016-09-26T10:20:22Z</time>
      </trkpt>
      <trkpt lat="45.93682" lon="4.77764">
        <ele>170</ele>
        <time>2016-09-26T10:20:23Z</time>
      </trkpt>
      <trkpt lat="45.93678" lon="4.77756">
        <ele>170</ele>
        <time>2016-09-26T10:20:24Z</time>
      </trkpt>
      <trkpt lat="45.93673" lon="4.77749">
        <ele>171</ele>
        <time>2016-09-26T10:20:25Z</time>
      </trkpt>
      <trkpt lat="45.93668" lon="4.77741">
        <ele>171</ele>
        <time>2016-09-26T10:20:26Z</time>
      </trkpt>
      <trkpt lat="45.93663" lon="4.77732">
        <ele>170</ele>
        <time>2016-09-26T10:20:27Z</time>
      </trkpt>
      <trkpt lat="45.93658" lon="4.77723">
        <ele>170</ele>
        <time>2016-09-26T10:20:28Z</time>
      </trkpt>
      <trkpt lat="45.93653" lon="4.77714">
        <ele>170</ele>
        <time>2016-09-26T10:20:29Z</time>
      </trkpt>
      <trkpt lat="45.93648" lon="4.77705">
        <ele>170</ele>
        <time>2016-09-26T10:20:30Z</time>
      </trkpt>
      <trkpt lat="45.93643" lon="4.77695">
        <ele>169</ele>
        <time>2016-09-26T10:20:31Z</time>
      </trkpt>
      <trkpt lat="45.93638" lon="4.77685">
        <ele>169</ele>
        <time>2016-09-26T10:20:32Z</time>
      </trkpt>
      <trkpt lat="45.93632" lon="4.77675">
        <ele>169</ele>
        <time>2016-09-26T10:20:33Z</time>
      </trkpt>
      <trkpt lat="45.93628" lon="4.77666">
        <ele>169</ele>
        <time>2016-09-26T10:20:34Z</time>
      </trkpt>
      <trkpt lat="45.93623" lon="4.77656">
        <ele>169</ele>
        <time>2016-09-26T10:20:35Z</time>
      </trkpt>
      <trkpt lat="45.9362" lon="4.77646">
        <ele>169</ele>
        <time>2016-09-26T10:20:36Z</time>
      </trkpt>
      <trkpt lat="45.93616" lon="4.77637">
        <ele>169</ele>
        <time>2016-09-26T10:20:37Z</time>
      </trkpt>
      <trkpt lat="45.93612" lon="4.77628">
        <ele>169</ele>
        <time>2016-09-26T10:20:38Z</time>
      </trkpt>
      <trkpt lat="45.93608" lon="4.77619">
        <ele>170</ele>
        <time>2016-09-26T10:20:39Z</time>
      </trkpt>
      <trkpt lat="45.93605" lon="4.7761">
        <ele>170</ele>
        <time>2016-09-26T10:20:40Z</time>
      </trkpt>
      <trkpt lat="45.93602" lon="4.77602">
        <ele>170</ele>
        <time>2016-09-26T10:20:41Z</time>
      </trkpt>
      <trkpt lat="45.93599" lon="4.77593">
        <ele>170</ele>
        <time>2016-09-26T10:20:42Z</time>
      </trkpt>
      <trkpt lat="45.93596" lon="4.77585">
        <ele>170</ele>
        <time>2016-09-26T10:20:43Z</time>
      </trkpt>
      <trkpt lat="45.93593" lon="4.77577">
        <ele>170</ele>
        <time>2016-09-26T10:20:44Z</time>
      </trkpt>
      <trkpt lat="45.93591" lon="4.77569">
        <ele>170</ele>
        <time>2016-09-26T10:20:45Z</time>
      </trkpt>
      <trkpt lat="45.93588" lon="4.7756">
        <ele>170</ele>
        <time>2016-09-26T10:20:46Z</time>
      </trkpt>
      <trkpt lat="45.93586" lon="4.77552">
        <ele>170</ele>
        <time>2016-09-26T10:20:47Z</time>
      </trkpt>
      <trkpt lat="45.93584" lon="4.77543">
        <ele>170</ele>
        <time>2016-09-26T10:20:48Z</time>
      </trkpt>
      <trkpt lat="45.93582" lon="4.77535">
        <ele>169</ele>
        <time>2016-09-26T10:20:49Z</time>
      </trkpt>
      <trkpt lat="45.93581" lon="4.77527">
        <ele>169</ele>
        <time>2016-09-26T10:20:50Z</time>
      </trkpt>
      <trkpt lat="45.93581" lon="4.77519">
        <ele>169</ele>
        <time>2016-09-26T10:20:51Z</time>
      </trkpt>
      <trkpt lat="45.93579" lon="4.7751">
        <ele>169</ele>
        <time>2016-09-26T10:20:52Z</time>
      </trkpt>
      <trkpt lat="45.93577" lon="4.77501">
        <ele>169</ele>
        <time>2016-09-26T10:20:53Z</time>
      </trkpt>
      <trkpt lat="45.93575" lon="4.77492">
        <ele>169</ele>
        <time>2016-09-26T10:20:54Z</time>
      </trkpt>
      <trkpt lat="45.93573" lon="4.77483">
        <ele>169</ele>
        <time>2016-09-26T10:20:55Z</time>
      </trkpt>
      <trkpt lat="45.93571" lon="4.77474">
        <ele>169</ele>
        <time>2016-09-26T10:20:56Z</time>
      </trkpt>
      <trkpt lat="45.93569" lon="4.77465">
        <ele>169</ele>
        <time>2016-09-26T10:20:57Z</time>
      </trkpt>
      <trkpt lat="45.93566" lon="4.77456">
        <ele>169</ele>
        <time>2016-09-26T10:20:58Z</time>
      </trkpt>
      <trkpt lat="45.93564" lon="4.77447">
        <ele>169</ele>
        <time>2016-09-26T10:20:59Z</time>
      </trkpt>
      <trkpt lat="45.93562" lon="4.77439">
        <ele>169</ele>
        <time>2016-09-26T10:21:00Z</time>
      </trkpt>
      <trkpt lat="45.93559" lon="4.7743">
        <ele>170</ele>
        <time>2016-09-26T10:21:01Z</time>
      </trkpt>
      <trkpt lat="45.93557" lon="4.77422">
        <ele>170</ele>
        <time>2016-09-26T10:21:02Z</time>
      </trkpt>
      <trkpt lat="45.93555" lon="4.77414">
        <ele>170</ele>
        <time>2016-09-26T10:21:03Z</time>
      </trkpt>
      <trkpt lat="45.93553" lon="4.77406">
        <ele>170</ele>
        <time>2016-09-26T10:21:04Z</time>
      </trkpt>
      <trkpt lat="45.93551" lon="4.77399">
        <ele>170</ele>
        <time>2016-09-26T10:21:05Z</time>
      </trkpt>
      <trkpt lat="45.9355" lon="4.77391">
        <ele>170</ele>
        <time>2016-09-26T10:21:06Z</time>
      </trkpt>
      <trkpt lat="45.93548" lon="4.77384">
        <ele>170</ele>
        <time>2016-09-26T10:21:07Z</time>
      </trkpt>
      <trkpt lat="45.93546" lon="4.77377">
        <ele>170</ele>
        <time>2016-09-26T10:21:08Z</time>
      </trkpt>
      <trkpt lat="45.93542" lon="4.77369">
        <ele>170</ele>
        <time>2016-09-26T10:21:09Z</time>
      </trkpt>
      <trkpt lat="45.9354" lon="4.77361">
        <ele>170</ele>
        <time>2016-09-26T10:21:10Z</time>
      </trkpt>
      <trkpt lat="45.93538" lon="4.77353">
        <ele>170</ele>
        <time>2016-09-26T10:21:11Z</time>
      </trkpt>
      <trkpt lat="45.93536" lon="4.77346">
        <ele>170</ele>
        <time>2016-09-26T10:21:12Z</time>
      </trkpt>
      <trkpt lat="45.93535" lon="4.77338">
        <ele>170</ele>
        <time>2016-09-26T10:21:13Z</time>
      </trkpt>
      <trkpt lat="45.93533" lon="4.7733">
        <ele>170</ele>
        <time>2016-09-26T10:21:14Z</time>
      </trkpt>
      <trkpt lat="45.93532" lon="4.77322">
        <ele>170</ele>
        <time>2016-09-26T10:21:15Z</time>
      </trkpt>
      <trkpt lat="45.9353" lon="4.77314">
        <ele>170</ele>
        <time>2016-09-26T10:21:16Z</time>
      </trkpt>
      <trkpt lat="45.93529" lon="4.77306">
        <ele>170</ele>
        <time>2016-09-26T10:21:17Z</time>
      </trkpt>
      <trkpt lat="45.93527" lon="4.77299">
        <ele>170</ele>
        <time>2016-09-26T10:21:18Z</time>
      </trkpt>
      <trkpt lat="45.93525" lon="4.77292">
        <ele>170</ele>
        <time>2016-09-26T10:21:19Z</time>
      </trkpt>
      <trkpt lat="45.93523" lon="4.77285">
        <ele>170</ele>
        <time>2016-09-26T10:21:20Z</time>
      </trkpt>
      <trkpt lat="45.93521" lon="4.77278">
        <ele>170</ele>
        <time>2016-09-26T10:21:21Z</time>
      </trkpt>
      <trkpt lat="45.9352" lon="4.7727">
        <ele>170</ele>
        <time>2016-09-26T10:21:22Z</time>
      </trkpt>
      <trkpt lat="45.93518" lon="4.77262">
        <ele>170</ele>
        <time>2016-09-26T10:21:23Z</time>
      </trkpt>
      <trkpt lat="45.93516" lon="4.77255">
        <ele>170</ele>
        <time>2016-09-26T10:21:24Z</time>
      </trkpt>
      <trkpt lat="45.93514" lon="4.77247">
        <ele>169</ele>
        <time>2016-09-26T10:21:25Z</time>
      </trkpt>
      <trkpt lat="45.93513" lon="4.77239">
        <ele>169</ele>
        <time>2016-09-26T10:21:26Z</time>
      </trkpt>
      <trkpt lat="45.93511" lon="4.7723">
        <ele>169</ele>
        <time>2016-09-26T10:21:27Z</time>
      </trkpt>
      <trkpt lat="45.93509" lon="4.77221">
        <ele>169</ele>
        <time>2016-09-26T10:21:28Z</time>
      </trkpt>
      <trkpt lat="45.93508" lon="4.77213">
        <ele>169</ele>
        <time>2016-09-26T10:21:29Z</time>
      </trkpt>
      <trkpt lat="45.93506" lon="4.77205">
        <ele>169</ele>
        <time>2016-09-26T10:21:30Z</time>
      </trkpt>
      <trkpt lat="45.93504" lon="4.77197">
        <ele>169</ele>
        <time>2016-09-26T10:21:31Z</time>
      </trkpt>
      <trkpt lat="45.93503" lon="4.77189">
        <ele>169</ele>
        <time>2016-09-26T10:21:32Z</time>
      </trkpt>
      <trkpt lat="45.93501" lon="4.77181">
        <ele>169</ele>
        <time>2016-09-26T10:21:33Z</time>
      </trkpt>
      <trkpt lat="45.93499" lon="4.77174">
        <ele>169</ele>
        <time>2016-09-26T10:21:34Z</time>
      </trkpt>
      <trkpt lat="45.93498" lon="4.77166">
        <ele>169</ele>
        <time>2016-09-26T10:21:35Z</time>
      </trkpt>
      <trkpt lat="45.93496" lon="4.77159">
        <ele>169</ele>
        <time>2016-09-26T10:21:36Z</time>
      </trkpt>
      <trkpt lat="45.93496" lon="4.77151">
        <ele>169</ele>
        <time>2016-09-26T10:21:37Z</time>
      </trkpt>
      <trkpt lat="45.93494" lon="4.77144">
        <ele>169</ele>
        <time>2016-09-26T10:21:38Z</time>
      </trkpt>
      <trkpt lat="45.93493" lon="4.77137">
        <ele>169</ele>
        <time>2016-09-26T10:21:39Z</time>
      </trkpt>
      <trkpt lat="45.93492" lon="4.77129">
        <ele>169</ele>
        <time>2016-09-26T10:21:40Z</time>
      </trkpt>
      <trkpt lat="45.9349" lon="4.77121">
        <ele>169</ele>
        <time>2016-09-26T10:21:41Z</time>
      </trkpt>
      <trkpt lat="45.93488" lon="4.77114">
        <ele>169</ele>
        <time>2016-09-26T10:21:42Z</time>
      </trkpt>
      <trkpt lat="45.93486" lon="4.77106">
        <ele>169</ele>
        <time>2016-09-26T10:21:43Z</time>
      </trkpt>
      <trkpt lat="45.93485" lon="4.77099">
        <ele>169</ele>
        <time>2016-09-26T10:21:44Z</time>
      </trkpt>
      <trkpt lat="45.93484" lon="4.77091">
        <ele>169</ele>
        <time>2016-09-26T10:21:45Z</time>
      </trkpt>
      <trkpt lat="45.93483" lon="4.77083">
        <ele>170</ele>
        <time>2016-09-26T10:21:46Z</time>
      </trkpt>
      <trkpt lat="45.93482" lon="4.77075">
        <ele>170</ele>
        <time>2016-09-26T10:21:47Z</time>
      </trkpt>
      <trkpt lat="45.9348" lon="4.77068">
        <ele>170</ele>
        <time>2016-09-26T10:21:48Z</time>
      </trkpt>
      <trkpt lat="45.93479" lon="4.7706">
        <ele>170</ele>
        <time>2016-09-26T10:21:49Z</time>
      </trkpt>
      <trkpt lat="45.93478" lon="4.77051">
        <ele>170</ele>
        <time>2016-09-26T10:21:50Z</time>
      </trkpt>
      <trkpt lat="45.93476" lon="4.77043">
        <ele>170</ele>
        <time>2016-09-26T10:21:51Z</time>
      </trkpt>
      <trkpt lat="45.93476" lon="4.77034">
        <ele>170</ele>
        <time>2016-09-26T10:21:52Z</time>
      </trkpt>
      <trkpt lat="45.93475" lon="4.77026">
        <ele>170</ele>
        <time>2016-09-26T10:21:53Z</time>
      </trkpt>
      <trkpt lat="45.93473" lon="4.77018">
        <ele>170</ele>
        <time>2016-09-26T10:21:54Z</time>
      </trkpt>
      <trkpt lat="45.93472" lon="4.7701">
        <ele>170</ele>
        <time>2016-09-26T10:21:55Z</time>
      </trkpt>
      <trkpt lat="45.93471" lon="4.77002">
        <ele>170</ele>
        <time>2016-09-26T10:21:56Z</time>
      </trkpt>
      <trkpt lat="45.9347" lon="4.76995">
        <ele>170</ele>
        <time>2016-09-26T10:21:57Z</time>
      </trkpt>
      <trkpt lat="45.93469" lon="4.76988">
        <ele>170</ele>
        <time>2016-09-26T10:21:58Z</time>
      </trkpt>
      <trkpt lat="45.93468" lon="4.7698">
        <ele>170</ele>
        <time>2016-09-26T10:21:59Z</time>
      </trkpt>
      <trkpt lat="45.93467" lon="4.76973">
        <ele>170</ele>
        <time>2016-09-26T10:22:00Z</time>
      </trkpt>
      <trkpt lat="45.93466" lon="4.76965">
        <ele>170</ele>
        <time>2016-09-26T10:22:01Z</time>
      </trkpt>
      <trkpt lat="45.93465" lon="4.76957">
        <ele>170</ele>
        <time>2016-09-26T10:22:02Z</time>
      </trkpt>
      <trkpt lat="45.93463" lon="4.76949">
        <ele>170</ele>
        <time>2016-09-26T10:22:03Z</time>
      </trkpt>
      <trkpt lat="45.93462" lon="4.7694">
        <ele>170</ele>
        <time>2016-09-26T10:22:04Z</time>
      </trkpt>
      <trkpt lat="45.93461" lon="4.76932">
        <ele>170</ele>
        <time>2016-09-26T10:22:05Z</time>
      </trkpt>
      <trkpt lat="45.93459" lon="4.76923">
        <ele>170</ele>
        <time>2016-09-26T10:22:06Z</time>
      </trkpt>
      <trkpt lat="45.93455" lon="4.76915">
        <ele>170</ele>
        <time>2016-09-26T10:22:07Z</time>
      </trkpt>
      <trkpt lat="45.93452" lon="4.76907">
        <ele>170</ele>
        <time>2016-09-26T10:22:08Z</time>
      </trkpt>
      <trkpt lat="45.9345" lon="4.76899">
        <ele>170</ele>
        <time>2016-09-26T10:22:09Z</time>
      </trkpt>
      <trkpt lat="45.93448" lon="4.76891">
        <ele>170</ele>
        <time>2016-09-26T10:22:10Z</time>
      </trkpt>
      <trkpt lat="45.93445" lon="4.76883">
        <ele>170</ele>
        <time>2016-09-26T10:22:11Z</time>
      </trkpt>
      <trkpt lat="45.93441" lon="4.76875">
        <ele>170</ele>
        <time>2016-09-26T10:22:12Z</time>
      </trkpt>
      <trkpt lat="45.93438" lon="4.76868">
        <ele>171</ele>
        <time>2016-09-26T10:22:13Z</time>
      </trkpt>
      <trkpt lat="45.93434" lon="4.76861">
        <ele>171</ele>
        <time>2016-09-26T10:22:14Z</time>
      </trkpt>
      <trkpt lat="45.9343" lon="4.76855">
        <ele>171</ele>
        <time>2016-09-26T10:22:15Z</time>
      </trkpt>
      <trkpt lat="45.93427" lon="4.76848">
        <ele>171</ele>
        <time>2016-09-26T10:22:16Z</time>
      </trkpt>
      <trkpt lat="45.93423" lon="4.76842">
        <ele>171</ele>
        <time>2016-09-26T10:22:17Z</time>
      </trkpt>
      <trkpt lat="45.93419" lon="4.76835">
        <ele>172</ele>
        <time>2016-09-26T10:22:18Z</time>
      </trkpt>
      <trkpt lat="45.93416" lon="4.76829">
        <ele>172</ele>
        <time>2016-09-26T10:22:19Z</time>
      </trkpt>
      <trkpt lat="45.93411" lon="4.76823">
        <ele>172</ele>
        <time>2016-09-26T10:22:20Z</time>
      </trkpt>
      <trkpt lat="45.93408" lon="4.76817">
        <ele>172</ele>
        <time>2016-09-26T10:22:21Z</time>
      </trkpt>
      <trkpt lat="45.93404" lon="4.76811">
        <ele>172</ele>
        <time>2016-09-26T10:22:22Z</time>
      </trkpt>
      <trkpt lat="45.934" lon="4.76806">
        <ele>172</ele>
        <time>2016-09-26T10:22:23Z</time>
      </trkpt>
      <trkpt lat="45.93396" lon="4.76801">
        <ele>172</ele>
        <time>2016-09-26T10:22:24Z</time>
      </trkpt>
      <trkpt lat="45.93391" lon="4.76796">
        <ele>172</ele>
        <time>2016-09-26T10:22:25Z</time>
      </trkpt>
      <trkpt lat="45.93387" lon="4.76791">
        <ele>172</ele>
        <time>2016-09-26T10:22:26Z</time>
      </trkpt>
      <trkpt lat="45.93382" lon="4.76786">
        <ele>172</ele>
        <time>2016-09-26T10:22:27Z</time>
      </trkpt>
      <trkpt lat="45.93376" lon="4.76782">
        <ele>172</ele>
        <time>2016-09-26T10:22:28Z</time>
      </trkpt>
      <trkpt lat="45.93371" lon="4.76777">
        <ele>172</ele>
        <time>2016-09-26T10:22:29Z</time>
      </trkpt>
      <trkpt lat="45.93366" lon="4.76771">
        <ele>172</ele>
        <time>2016-09-26T10:22:30Z</time>
      </trkpt>
      <trkpt lat="45.93362" lon="4.76766">
        <ele>172</ele>
        <time>2016-09-26T10:22:31Z</time>
      </trkpt>
      <trkpt lat="45.93358" lon="4.76762">
        <ele>172</ele>
        <time>2016-09-26T10:22:32Z</time>
      </trkpt>
      <trkpt lat="45.93353" lon="4.76757">
        <ele>172</ele>
        <time>2016-09-26T10:22:33Z</time>
      </trkpt>
      <trkpt lat="45.93349" lon="4.76752">
        <ele>172</ele>
        <time>2016-09-26T10:22:34Z</time>
      </trkpt>
      <trkpt lat="45.93344" lon="4.76748">
        <ele>173</ele>
        <time>2016-09-26T10:22:35Z</time>
      </trkpt>
      <trkpt lat="45.93339" lon="4.76743">
        <ele>173</ele>
        <time>2016-09-26T10:22:36Z</time>
      </trkpt>
      <trkpt lat="45.93334" lon="4.76738">
        <ele>172</ele>
        <time>2016-09-26T10:22:37Z</time>
      </trkpt>
      <trkpt lat="45.9333" lon="4.76734">
        <ele>172</ele>
        <time>2016-09-26T10:22:38Z</time>
      </trkpt>
      <trkpt lat="45.93326" lon="4.76729">
        <ele>172</ele>
        <time>2016-09-26T10:22:39Z</time>
      </trkpt>
      <trkpt lat="45.93321" lon="4.76724">
        <ele>172</ele>
        <time>2016-09-26T10:22:40Z</time>
      </trkpt>
      <trkpt lat="45.93317" lon="4.76719">
        <ele>172</ele>
        <time>2016-09-26T10:22:41Z</time>
      </trkpt>
      <trkpt lat="45.93311" lon="4.76714">
        <ele>172</ele>
        <time>2016-09-26T10:22:42Z</time>
      </trkpt>
      <trkpt lat="45.93308" lon="4.76709">
        <ele>172</ele>
        <time>2016-09-26T10:22:43Z</time>
      </trkpt>
      <trkpt lat="45.93303" lon="4.76704">
        <ele>172</ele>
        <time>2016-09-26T10:22:44Z</time>
      </trkpt>
      <trkpt lat="45.93298" lon="4.76699">
        <ele>172</ele>
        <time>2016-09-26T10:22:45Z</time>
      </trkpt>
      <trkpt lat="45.93293" lon="4.76694">
        <ele>172</ele>
        <time>2016-09-26T10:22:46Z</time>
      </trkpt>
      <trkpt lat="45.93288" lon="4.76689">
        <ele>172</ele>
        <time>2016-09-26T10:22:47Z</time>
      </trkpt>
      <trkpt lat="45.93283" lon="4.76684">
        <ele>172</ele>
        <time>2016-09-26T10:22:48Z</time>
      </trkpt>
      <trkpt lat="45.93278" lon="4.76679">
        <ele>172</ele>
        <time>2016-09-26T10:22:49Z</time>
      </trkpt>
      <trkpt lat="45.93273" lon="4.76673">
        <ele>172</ele>
        <time>2016-09-26T10:22:50Z</time>
      </trkpt>
      <trkpt lat="45.93268" lon="4.76669">
        <ele>172</ele>
        <time>2016-09-26T10:22:51Z</time>
      </trkpt>
      <trkpt lat="45.93263" lon="4.76664">
        <ele>171</ele>
        <time>2016-09-26T10:22:52Z</time>
      </trkpt>
      <trkpt lat="45.93259" lon="4.76659">
        <ele>171</ele>
        <time>2016-09-26T10:22:53Z</time>
      </trkpt>
      <trkpt lat="45.93255" lon="4.76655">
        <ele>171</ele>
        <time>2016-09-26T10:22:54Z</time>
      </trkpt>
      <trkpt lat="45.93251" lon="4.7665">
        <ele>171</ele>
        <time>2016-09-26T10:22:55Z</time>
      </trkpt>
      <trkpt lat="45.93247" lon="4.76646">
        <ele>171</ele>
        <time>2016-09-26T10:22:56Z</time>
      </trkpt>
      <trkpt lat="45.93242" lon="4.76641">
        <ele>171</ele>
        <time>2016-09-26T10:22:57Z</time>
      </trkpt>
      <trkpt lat="45.93239" lon="4.76636">
        <ele>171</ele>
        <time>2016-09-26T10:22:58Z</time>
      </trkpt>
      <trkpt lat="45.93235" lon="4.76632">
        <ele>170</ele>
        <time>2016-09-26T10:22:59Z</time>
      </trkpt>
      <trkpt lat="45.9323" lon="4.76628">
        <ele>170</ele>
        <time>2016-09-26T10:23:00Z</time>
      </trkpt>
      <trkpt lat="45.93225" lon="4.76623">
        <ele>170</ele>
        <time>2016-09-26T10:23:01Z</time>
      </trkpt>
      <trkpt lat="45.93221" lon="4.76619">
        <ele>170</ele>
        <time>2016-09-26T10:23:02Z</time>
      </trkpt>
      <trkpt lat="45.93217" lon="4.76614">
        <ele>170</ele>
        <time>2016-09-26T10:23:03Z</time>
      </trkpt>
      <trkpt lat="45.93212" lon="4.7661">
        <ele>170</ele>
        <time>2016-09-26T10:23:04Z</time>
      </trkpt>
      <trkpt lat="45.93206" lon="4.76605">
        <ele>170</ele>
        <time>2016-09-26T10:23:05Z</time>
      </trkpt>
      <trkpt lat="45.93201" lon="4.766">
        <ele>170</ele>
        <time>2016-09-26T10:23:06Z</time>
      </trkpt>
      <trkpt lat="45.93196" lon="4.76595">
        <ele>170</ele>
        <time>2016-09-26T10:23:07Z</time>
      </trkpt>
      <trkpt lat="45.93192" lon="4.76591">
        <ele>170</ele>
        <time>2016-09-26T10:23:08Z</time>
      </trkpt>
      <trkpt lat="45.93187" lon="4.76587">
        <ele>171</ele>
        <time>2016-09-26T10:23:09Z</time>
      </trkpt>
      <trkpt lat="45.93183" lon="4.76583">
        <ele>170</ele>
        <time>2016-09-26T10:23:10Z</time>
      </trkpt>
      <trkpt lat="45.93179" lon="4.76578">
        <ele>170</ele>
        <time>2016-09-26T10:23:11Z</time>
      </trkpt>
      <trkpt lat="45.93174" lon="4.76573">
        <ele>170</ele>
        <time>2016-09-26T10:23:12Z</time>
      </trkpt>
      <trkpt lat="45.93172" lon="4.76568">
        <ele>170</ele>
        <time>2016-09-26T10:23:13Z</time>
      </trkpt>
      <trkpt lat="45.93166" lon="4.76563">
        <ele>170</ele>
        <time>2016-09-26T10:23:14Z</time>
      </trkpt>
      <trkpt lat="45.93162" lon="4.76558">
        <ele>170</ele>
        <time>2016-09-26T10:23:15Z</time>
      </trkpt>
      <trkpt lat="45.93156" lon="4.76553">
        <ele>170</ele>
        <time>2016-09-26T10:23:16Z</time>
      </trkpt>
      <trkpt lat="45.93151" lon="4.76548">
        <ele>170</ele>
        <time>2016-09-26T10:23:17Z</time>
      </trkpt>
      <trkpt lat="45.93146" lon="4.76543">
        <ele>170</ele>
        <time>2016-09-26T10:23:18Z</time>
      </trkpt>
      <trkpt lat="45.93142" lon="4.76538">
        <ele>170</ele>
        <time>2016-09-26T10:23:19Z</time>
      </trkpt>
      <trkpt lat="45.93138" lon="4.76533">
        <ele>170</ele>
        <time>2016-09-26T10:23:20Z</time>
      </trkpt>
      <trkpt lat="45.93133" lon="4.76528">
        <ele>170</ele>
        <time>2016-09-26T10:23:21Z</time>
      </trkpt>
      <trkpt lat="45.93129" lon="4.76524">
        <ele>170</ele>
        <time>2016-09-26T10:23:22Z</time>
      </trkpt>
      <trkpt lat="45.93125" lon="4.76519">
        <ele>170</ele>
        <time>2016-09-26T10:23:23Z</time>
      </trkpt>
      <trkpt lat="45.9312" lon="4.76515">
        <ele>170</ele>
        <time>2016-09-26T10:23:24Z</time>
      </trkpt>
      <trkpt lat="45.93116" lon="4.76511">
        <ele>170</ele>
        <time>2016-09-26T10:23:25Z</time>
      </trkpt>
      <trkpt lat="45.93112" lon="4.76507">
        <ele>170</ele>
        <time>2016-09-26T10:23:26Z</time>
      </trkpt>
      <trkpt lat="45.93106" lon="4.76502">
        <ele>170</ele>
        <time>2016-09-26T10:23:27Z</time>
      </trkpt>
      <trkpt lat="45.93102" lon="4.76497">
        <ele>169</ele>
        <time>2016-09-26T10:23:28Z</time>
      </trkpt>
      <trkpt lat="45.93097" lon="4.76491">
        <ele>170</ele>
        <time>2016-09-26T10:23:29Z</time>
      </trkpt>
      <trkpt lat="45.93092" lon="4.76486">
        <ele>170</ele>
        <time>2016-09-26T10:23:30Z</time>
      </trkpt>
      <trkpt lat="45.93087" lon="4.76482">
        <ele>169</ele>
        <time>2016-09-26T10:23:31Z</time>
      </trkpt>
      <trkpt lat="45.93083" lon="4.76478">
        <ele>169</ele>
        <time>2016-09-26T10:23:32Z</time>
      </trkpt>
      <trkpt lat="45.93078" lon="4.76473">
        <ele>169</ele>
        <time>2016-09-26T10:23:33Z</time>
      </trkpt>
      <trkpt lat="45.93074" lon="4.76468">
        <ele>169</ele>
        <time>2016-09-26T10:23:34Z</time>
      </trkpt>
      <trkpt lat="45.9307" lon="4.76463">
        <ele>169</ele>
        <time>2016-09-26T10:23:35Z</time>
      </trkpt>
      <trkpt lat="45.93065" lon="4.76459">
        <ele>169</ele>
        <time>2016-09-26T10:23:36Z</time>
      </trkpt>
      <trkpt lat="45.9306" lon="4.76454">
        <ele>169</ele>
        <time>2016-09-26T10:23:37Z</time>
      </trkpt>
      <trkpt lat="45.93055" lon="4.76448">
        <ele>169</ele>
        <time>2016-09-26T10:23:38Z</time>
      </trkpt>
      <trkpt lat="45.9305" lon="4.76444">
        <ele>169</ele>
        <time>2016-09-26T10:23:39Z</time>
      </trkpt>
      <trkpt lat="45.93044" lon="4.76438">
        <ele>169</ele>
        <time>2016-09-26T10:23:40Z</time>
      </trkpt>
      <trkpt lat="45.93039" lon="4.76434">
        <ele>169</ele>
        <time>2016-09-26T10:23:41Z</time>
      </trkpt>
      <trkpt lat="45.93034" lon="4.7643">
        <ele>169</ele>
        <time>2016-09-26T10:23:42Z</time>
      </trkpt>
      <trkpt lat="45.9303" lon="4.76426">
        <ele>169</ele>
        <time>2016-09-26T10:23:43Z</time>
      </trkpt>
      <trkpt lat="45.93027" lon="4.76421">
        <ele>169</ele>
        <time>2016-09-26T10:23:44Z</time>
      </trkpt>
      <trkpt lat="45.93022" lon="4.76417">
        <ele>169</ele>
        <time>2016-09-26T10:23:45Z</time>
      </trkpt>
      <trkpt lat="45.93019" lon="4.76413">
        <ele>169</ele>
        <time>2016-09-26T10:23:46Z</time>
      </trkpt>
      <trkpt lat="45.93015" lon="4.76408">
        <ele>169</ele>
        <time>2016-09-26T10:23:47Z</time>
      </trkpt>
      <trkpt lat="45.9301" lon="4.76404">
        <ele>169</ele>
        <time>2016-09-26T10:23:48Z</time>
      </trkpt>
      <trkpt lat="45.93004" lon="4.76399">
        <ele>169</ele>
        <time>2016-09-26T10:23:49Z</time>
      </trkpt>
      <trkpt lat="45.93" lon="4.76395">
        <ele>169</ele>
        <time>2016-09-26T10:23:50Z</time>
      </trkpt>
      <trkpt lat="45.92995" lon="4.76391">
        <ele>169</ele>
        <time>2016-09-26T10:23:51Z</time>
      </trkpt>
      <trkpt lat="45.92991" lon="4.76386">
        <ele>169</ele>
        <time>2016-09-26T10:23:52Z</time>
      </trkpt>
      <trkpt lat="45.92987" lon="4.76381">
        <ele>169</ele>
        <time>2016-09-26T10:23:53Z</time>
      </trkpt>
      <trkpt lat="45.92982" lon="4.76377">
        <ele>169</ele>
        <time>2016-09-26T10:23:54Z</time>
      </trkpt>
      <trkpt lat="45.92977" lon="4.76371">
        <ele>169</ele>
        <time>2016-09-26T10:23:55Z</time>
      </trkpt>
      <trkpt lat="45.92971" lon="4.76366">
        <ele>169</ele>
        <time>2016-09-26T10:23:56Z</time>
      </trkpt>
      <trkpt lat="45.92966" lon="4.76361">
        <ele>169</ele>
        <time>2016-09-26T10:23:57Z</time>
      </trkpt>
      <trkpt lat="45.92961" lon="4.76356">
        <ele>169</ele>
        <time>2016-09-26T10:23:58Z</time>
      </trkpt>
      <trkpt lat="45.92956" lon="4.76351">
        <ele>169</ele>
        <time>2016-09-26T10:23:59Z</time>
      </trkpt>
      <trkpt lat="45.92951" lon="4.76346">
        <ele>169</ele>
        <time>2016-09-26T10:24:00Z</time>
      </trkpt>
      <trkpt lat="45.92946" lon="4.7634">
        <ele>169</ele>
        <time>2016-09-26T10:24:01Z</time>
      </trkpt>
      <trkpt lat="45.92939" lon="4.76335">
        <ele>169</ele>
        <time>2016-09-26T10:24:02Z</time>
      </trkpt>
      <trkpt lat="45.92933" lon="4.76329">
        <ele>169</ele>
        <time>2016-09-26T10:24:03Z</time>
      </trkpt>
      <trkpt lat="45.92927" lon="4.76324">
        <ele>169</ele>
        <time>2016-09-26T10:24:04Z</time>
      </trkpt>
      <trkpt lat="45.92921" lon="4.76319">
        <ele>169</ele>
        <time>2016-09-26T10:24:05Z</time>
      </trkpt>
      <trkpt lat="45.92916" lon="4.76313">
        <ele>169</ele>
        <time>2016-09-26T10:24:06Z</time>
      </trkpt>
      <trkpt lat="45.9291" lon="4.76308">
        <ele>169</ele>
        <time>2016-09-26T10:24:07Z</time>
      </trkpt>
      <trkpt lat="45.92904" lon="4.76304">
        <ele>169</ele>
        <time>2016-09-26T10:24:08Z</time>
      </trkpt>
      <trkpt lat="45.92899" lon="4.76299">
        <ele>169</ele>
        <time>2016-09-26T10:24:09Z</time>
      </trkpt>
      <trkpt lat="45.92895" lon="4.76294">
        <ele>169</ele>
        <time>2016-09-26T10:24:10Z</time>
      </trkpt>
      <trkpt lat="45.9289" lon="4.7629">
        <ele>169</ele>
        <time>2016-09-26T10:24:11Z</time>
      </trkpt>
      <trkpt lat="45.92885" lon="4.76286">
        <ele>169</ele>
        <time>2016-09-26T10:24:12Z</time>
      </trkpt>
      <trkpt lat="45.9288" lon="4.76281">
        <ele>169</ele>
        <time>2016-09-26T10:24:13Z</time>
      </trkpt>
      <trkpt lat="45.92876" lon="4.76276">
        <ele>169</ele>
        <time>2016-09-26T10:24:14Z</time>
      </trkpt>
      <trkpt lat="45.9287" lon="4.76272">
        <ele>169</ele>
        <time>2016-09-26T10:24:15Z</time>
      </trkpt>
      <trkpt lat="45.92866" lon="4.76267">
        <ele>169</ele>
        <time>2016-09-26T10:24:16Z</time>
      </trkpt>
      <trkpt lat="45.9286" lon="4.76262">
        <ele>169</ele>
        <time>2016-09-26T10:24:17Z</time>
      </trkpt>
      <trkpt lat="45.92855" lon="4.76258">
        <ele>169</ele>
        <time>2016-09-26T10:24:18Z</time>
      </trkpt>
      <trkpt lat="45.9285" lon="4.76253">
        <ele>169</ele>
        <time>2016-09-26T10:24:19Z</time>
      </trkpt>
      <trkpt lat="45.92845" lon="4.76248">
        <ele>169</ele>
        <time>2016-09-26T10:24:20Z</time>
      </trkpt>
      <trkpt lat="45.9284" lon="4.76242">
        <ele>169</ele>
        <time>2016-09-26T10:24:21Z</time>
      </trkpt>
      <trkpt lat="45.92835" lon="4.76237">
        <ele>169</ele>
        <time>2016-09-26T10:24:22Z</time>
      </trkpt>
      <trkpt lat="45.9283" lon="4.76231">
        <ele>168</ele>
        <time>2016-09-26T10:24:23Z</time>
      </trkpt>
      <trkpt lat="45.92826" lon="4.76226">
        <ele>168</ele>
        <time>2016-09-26T10:24:24Z</time>
      </trkpt>
      <trkpt lat="45.92822" lon="4.76222">
        <ele>168</ele>
        <time>2016-09-26T10:24:25Z</time>
      </trkpt>
      <trkpt lat="45.92817" lon="4.76217">
        <ele>168</ele>
        <time>2016-09-26T10:24:26Z</time>
      </trkpt>
      <trkpt lat="45.92812" lon="4.76212">
        <ele>168</ele>
        <time>2016-09-26T10:24:27Z</time>
      </trkpt>
      <trkpt lat="45.92808" lon="4.76208">
        <ele>168</ele>
        <time>2016-09-26T10:24:28Z</time>
      </trkpt>
      <trkpt lat="45.92804" lon="4.76203">
        <ele>168</ele>
        <time>2016-09-26T10:24:29Z</time>
      </trkpt>
      <trkpt lat="45.928" lon="4.76198">
        <ele>168</ele>
        <time>2016-09-26T10:24:30Z</time>
      </trkpt>
      <trkpt lat="45.92797" lon="4.76194">
        <ele>168</ele>
        <time>2016-09-26T10:24:31Z</time>
      </trkpt>
      <trkpt lat="45.92792" lon="4.76189">
        <ele>168</ele>
        <time>2016-09-26T10:24:32Z</time>
      </trkpt>
      <trkpt lat="45.92788" lon="4.76185">
        <ele>168</ele>
        <time>2016-09-26T10:24:33Z</time>
      </trkpt>
      <trkpt lat="45.92784" lon="4.7618">
        <ele>168</ele>
        <time>2016-09-26T10:24:34Z</time>
      </trkpt>
      <trkpt lat="45.92779" lon="4.76176">
        <ele>167</ele>
        <time>2016-09-26T10:24:35Z</time>
      </trkpt>
      <trkpt lat="45.92773" lon="4.76172">
        <ele>167</ele>
        <time>2016-09-26T10:24:36Z</time>
      </trkpt>
      <trkpt lat="45.92767" lon="4.76168">
        <ele>167</ele>
        <time>2016-09-26T10:24:37Z</time>
      </trkpt>
      <trkpt lat="45.92763" lon="4.76164">
        <ele>167</ele>
        <time>2016-09-26T10:24:38Z</time>
      </trkpt>
      <trkpt lat="45.92757" lon="4.7616">
        <ele>167</ele>
        <time>2016-09-26T10:24:39Z</time>
      </trkpt>
      <trkpt lat="45.92751" lon="4.76156">
        <ele>167</ele>
        <time>2016-09-26T10:24:40Z</time>
      </trkpt>
      <trkpt lat="45.92745" lon="4.76152">
        <ele>168</ele>
        <time>2016-09-26T10:24:41Z</time>
      </trkpt>
      <trkpt lat="45.9274" lon="4.76148">
        <ele>168</ele>
        <time>2016-09-26T10:24:42Z</time>
      </trkpt>
      <trkpt lat="45.92734" lon="4.76144">
        <ele>168</ele>
        <time>2016-09-26T10:24:43Z</time>
      </trkpt>
      <trkpt lat="45.92729" lon="4.76141">
        <ele>168</ele>
        <time>2016-09-26T10:24:44Z</time>
      </trkpt>
      <trkpt lat="45.92724" lon="4.76138">
        <ele>168</ele>
        <time>2016-09-26T10:24:45Z</time>
      </trkpt>
      <trkpt lat="45.9272" lon="4.76135">
        <ele>168</ele>
        <time>2016-09-26T10:24:46Z</time>
      </trkpt>
      <trkpt lat="45.92715" lon="4.7613">
        <ele>168</ele>
        <time>2016-09-26T10:24:47Z</time>
      </trkpt>
      <trkpt lat="45.92709" lon="4.76125">
        <ele>168</ele>
        <time>2016-09-26T10:24:48Z</time>
      </trkpt>
      <trkpt lat="45.92704" lon="4.76122">
        <ele>169</ele>
        <time>2016-09-26T10:24:49Z</time>
      </trkpt>
      <trkpt lat="45.92698" lon="4.76117">
        <ele>169</ele>
        <time>2016-09-26T10:24:50Z</time>
      </trkpt>
      <trkpt lat="45.92692" lon="4.76114">
        <ele>169</ele>
        <time>2016-09-26T10:24:51Z</time>
      </trkpt>
      <trkpt lat="45.92687" lon="4.7611">
        <ele>169</ele>
        <time>2016-09-26T10:24:52Z</time>
      </trkpt>
      <trkpt lat="45.92683" lon="4.76106">
        <ele>169</ele>
        <time>2016-09-26T10:24:53Z</time>
      </trkpt>
      <trkpt lat="45.92678" lon="4.76103">
        <ele>169</ele>
        <time>2016-09-26T10:24:54Z</time>
      </trkpt>
      <trkpt lat="45.92673" lon="4.76099">
        <ele>169</ele>
        <time>2016-09-26T10:24:55Z</time>
      </trkpt>
      <trkpt lat="45.92669" lon="4.76096">
        <ele>169</ele>
        <time>2016-09-26T10:24:56Z</time>
      </trkpt>
      <trkpt lat="45.92664" lon="4.76093">
        <ele>170</ele>
        <time>2016-09-26T10:24:57Z</time>
      </trkpt>
      <trkpt lat="45.9266" lon="4.76089">
        <ele>170</ele>
        <time>2016-09-26T10:24:58Z</time>
      </trkpt>
      <trkpt lat="45.92655" lon="4.76086">
        <ele>170</ele>
        <time>2016-09-26T10:24:59Z</time>
      </trkpt>
      <trkpt lat="45.92651" lon="4.76082">
        <ele>170</ele>
        <time>2016-09-26T10:25:00Z</time>
      </trkpt>
      <trkpt lat="45.92647" lon="4.76078">
        <ele>170</ele>
        <time>2016-09-26T10:25:01Z</time>
      </trkpt>
      <trkpt lat="45.92642" lon="4.76075">
        <ele>170</ele>
        <time>2016-09-26T10:25:02Z</time>
      </trkpt>
      <trkpt lat="45.92638" lon="4.76071">
        <ele>170</ele>
        <time>2016-09-26T10:25:03Z</time>
      </trkpt>
      <trkpt lat="45.92633" lon="4.76067">
        <ele>170</ele>
        <time>2016-09-26T10:25:04Z</time>
      </trkpt>
      <trkpt lat="45.92628" lon="4.76064">
        <ele>170</ele>
        <time>2016-09-26T10:25:05Z</time>
      </trkpt>
      <trkpt lat="45.92623" lon="4.76061">
        <ele>171</ele>
        <time>2016-09-26T10:25:06Z</time>
      </trkpt>
      <trkpt lat="45.92619" lon="4.76057">
        <ele>171</ele>
        <time>2016-09-26T10:25:07Z</time>
      </trkpt>
      <trkpt lat="45.92615" lon="4.76054">
        <ele>171</ele>
        <time>2016-09-26T10:25:08Z</time>
      </trkpt>
      <trkpt lat="45.9261" lon="4.76051">
        <ele>171</ele>
        <time>2016-09-26T10:25:09Z</time>
      </trkpt>
      <trkpt lat="45.92605" lon="4.76048">
        <ele>171</ele>
        <time>2016-09-26T10:25:10Z</time>
      </trkpt>
      <trkpt lat="45.926" lon="4.76044">
        <ele>171</ele>
        <time>2016-09-26T10:25:11Z</time>
      </trkpt>
      <trkpt lat="45.92596" lon="4.76041">
        <ele>171</ele>
        <time>2016-09-26T10:25:12Z</time>
      </trkpt>
      <trkpt lat="45.92591" lon="4.76038">
        <ele>171</ele>
        <time>2016-09-26T10:25:13Z</time>
      </trkpt>
      <trkpt lat="45.92586" lon="4.76035">
        <ele>171</ele>
        <time>2016-09-26T10:25:14Z</time>
      </trkpt>
      <trkpt lat="45.92581" lon="4.76032">
        <ele>172</ele>
        <time>2016-09-26T10:25:15Z</time>
      </trkpt>
      <trkpt lat="45.92576" lon="4.76029">
        <ele>172</ele>
        <time>2016-09-26T10:25:16Z</time>
      </trkpt>
      <trkpt lat="45.92571" lon="4.76026">
        <ele>172</ele>
        <time>2016-09-26T10:25:17Z</time>
      </trkpt>
      <trkpt lat="45.92566" lon="4.76022">
        <ele>172</ele>
        <time>2016-09-26T10:25:18Z</time>
      </trkpt>
      <trkpt lat="45.92561" lon="4.76019">
        <ele>172</ele>
        <time>2016-09-26T10:25:19Z</time>
      </trkpt>
      <trkpt lat="45.92555" lon="4.76015">
        <ele>172</ele>
        <time>2016-09-26T10:25:20Z</time>
      </trkpt>
      <trkpt lat="45.9255" lon="4.76012">
        <ele>172</ele>
        <time>2016-09-26T10:25:21Z</time>
      </trkpt>
      <trkpt lat="45.92545" lon="4.76009">
        <ele>172</ele>
        <time>2016-09-26T10:25:22Z</time>
      </trkpt>
      <trkpt lat="45.9254" lon="4.76006">
        <ele>172</ele>
        <time>2016-09-26T10:25:23Z</time>
      </trkpt>
      <trkpt lat="45.92536" lon="4.76004">
        <ele>172</ele>
        <time>2016-09-26T10:25:24Z</time>
      </trkpt>
      <trkpt lat="45.92532" lon="4.76001">
        <ele>172</ele>
        <time>2016-09-26T10:25:25Z</time>
      </trkpt>
      <trkpt lat="45.92527" lon="4.75998">
        <ele>172</ele>
        <time>2016-09-26T10:25:26Z</time>
      </trkpt>
      <trkpt lat="45.92523" lon="4.75995">
        <ele>172</ele>
        <time>2016-09-26T10:25:27Z</time>
      </trkpt>
      <trkpt lat="45.92518" lon="4.75992">
        <ele>172</ele>
        <time>2016-09-26T10:25:28Z</time>
      </trkpt>
      <trkpt lat="45.92513" lon="4.75989">
        <ele>172</ele>
        <time>2016-09-26T10:25:29Z</time>
      </trkpt>
      <trkpt lat="45.92509" lon="4.75985">
        <ele>172</ele>
        <time>2016-09-26T10:25:30Z</time>
      </trkpt>
      <trkpt lat="45.92504" lon="4.75982">
        <ele>172</ele>
        <time>2016-09-26T10:25:31Z</time>
      </trkpt>
      <trkpt lat="45.92499" lon="4.75979">
        <ele>172</ele>
        <time>2016-09-26T10:25:32Z</time>
      </trkpt>
      <trkpt lat="45.92494" lon="4.75975">
        <ele>172</ele>
        <time>2016-09-26T10:25:33Z</time>
      </trkpt>
      <trkpt lat="45.92489" lon="4.75972">
        <ele>172</ele>
        <time>2016-09-26T10:25:34Z</time>
      </trkpt>
      <trkpt lat="45.92484" lon="4.75968">
        <ele>172</ele>
        <time>2016-09-26T10:25:35Z</time>
      </trkpt>
      <trkpt lat="45.92479" lon="4.75965">
        <ele>172</ele>
        <time>2016-09-26T10:25:36Z</time>
      </trkpt>
      <trkpt lat="45.92473" lon="4.75962">
        <ele>172</ele>
        <time>2016-09-26T10:25:37Z</time>
      </trkpt>
      <trkpt lat="45.92468" lon="4.75958">
        <ele>172</ele>
        <time>2016-09-26T10:25:38Z</time>
      </trkpt>
      <trkpt lat="45.92463" lon="4.75954">
        <ele>172</ele>
        <time>2016-09-26T10:25:39Z</time>
      </trkpt>
      <trkpt lat="45.92457" lon="4.75951">
        <ele>172</ele>
        <time>2016-09-26T10:25:40Z</time>
      </trkpt>
      <trkpt lat="45.92452" lon="4.75947">
        <ele>172</ele>
        <time>2016-09-26T10:25:41Z</time>
      </trkpt>
      <trkpt lat="45.92447" lon="4.75944">
        <ele>172</ele>
        <time>2016-09-26T10:25:42Z</time>
      </trkpt>
      <trkpt lat="45.92442" lon="4.7594">
        <ele>172</ele>
        <time>2016-09-26T10:25:43Z</time>
      </trkpt>
      <trkpt lat="45.92437" lon="4.75937">
        <ele>172</ele>
        <time>2016-09-26T10:25:44Z</time>
      </trkpt>
      <trkpt lat="45.92432" lon="4.75933">
        <ele>172</ele>
        <time>2016-09-26T10:25:45Z</time>
      </trkpt>
      <trkpt lat="45.92427" lon="4.75929">
        <ele>172</ele>
        <time>2016-09-26T10:25:46Z</time>
      </trkpt>
      <trkpt lat="45.92421" lon="4.75925">
        <ele>172</ele>
        <time>2016-09-26T10:25:47Z</time>
      </trkpt>
      <trkpt lat="45.92414" lon="4.75919">
        <ele>172</ele>
        <time>2016-09-26T10:25:48Z</time>
      </trkpt>
      <trkpt lat="45.92408" lon="4.75914">
        <ele>172</ele>
        <time>2016-09-26T10:25:49Z</time>
      </trkpt>
      <trkpt lat="45.92402" lon="4.7591">
        <ele>172</ele>
        <time>2016-09-26T10:25:50Z</time>
      </trkpt>
      <trkpt lat="45.92397" lon="4.75906">
        <ele>173</ele>
        <time>2016-09-26T10:25:51Z</time>
      </trkpt>
      <trkpt lat="45.92391" lon="4.75901">
        <ele>173</ele>
        <time>2016-09-26T10:25:52Z</time>
      </trkpt>
      <trkpt lat="45.92385" lon="4.75897">
        <ele>173</ele>
        <time>2016-09-26T10:25:53Z</time>
      </trkpt>
      <trkpt lat="45.92379" lon="4.75892">
        <ele>173</ele>
        <time>2016-09-26T10:25:54Z</time>
      </trkpt>
      <trkpt lat="45.92373" lon="4.75888">
        <ele>173</ele>
        <time>2016-09-26T10:25:55Z</time>
      </trkpt>
      <trkpt lat="45.92367" lon="4.75885">
        <ele>173</ele>
        <time>2016-09-26T10:25:56Z</time>
      </trkpt>
      <trkpt lat="45.92362" lon="4.75881">
        <ele>173</ele>
        <time>2016-09-26T10:25:57Z</time>
      </trkpt>
      <trkpt lat="45.92357" lon="4.75878">
        <ele>173</ele>
        <time>2016-09-26T10:25:58Z</time>
      </trkpt>
      <trkpt lat="45.92351" lon="4.75875">
        <ele>173</ele>
        <time>2016-09-26T10:25:59Z</time>
      </trkpt>
      <trkpt lat="45.92346" lon="4.75872">
        <ele>173</ele>
        <time>2016-09-26T10:26:00Z</time>
      </trkpt>
      <trkpt lat="45.92341" lon="4.75868">
        <ele>173</ele>
        <time>2016-09-26T10:26:01Z</time>
      </trkpt>
      <trkpt lat="45.92335" lon="4.75864">
        <ele>173</ele>
        <time>2016-09-26T10:26:02Z</time>
      </trkpt>
      <trkpt lat="45.92329" lon="4.75861">
        <ele>173</ele>
        <time>2016-09-26T10:26:03Z</time>
      </trkpt>
      <trkpt lat="45.92323" lon="4.75857">
        <ele>173</ele>
        <time>2016-09-26T10:26:04Z</time>
      </trkpt>
      <trkpt lat="45.92318" lon="4.75854">
        <ele>173</ele>
        <time>2016-09-26T10:26:05Z</time>
      </trkpt>
      <trkpt lat="45.92312" lon="4.7585">
        <ele>173</ele>
        <time>2016-09-26T10:26:06Z</time>
      </trkpt>
      <trkpt lat="45.92306" lon="4.75846">
        <ele>173</ele>
        <time>2016-09-26T10:26:07Z</time>
      </trkpt>
      <trkpt lat="45.92301" lon="4.75842">
        <ele>173</ele>
        <time>2016-09-26T10:26:08Z</time>
      </trkpt>
      <trkpt lat="45.92295" lon="4.75839">
        <ele>173</ele>
        <time>2016-09-26T10:26:09Z</time>
      </trkpt>
      <trkpt lat="45.92289" lon="4.75835">
        <ele>173</ele>
        <time>2016-09-26T10:26:10Z</time>
      </trkpt>
      <trkpt lat="45.92283" lon="4.75831">
        <ele>174</ele>
        <time>2016-09-26T10:26:11Z</time>
      </trkpt>
      <trkpt lat="45.92278" lon="4.75826">
        <ele>174</ele>
        <time>2016-09-26T10:26:12Z</time>
      </trkpt>
      <trkpt lat="45.92272" lon="4.75821">
        <ele>174</ele>
        <time>2016-09-26T10:26:13Z</time>
      </trkpt>
      <trkpt lat="45.92268" lon="4.75815">
        <ele>174</ele>
        <time>2016-09-26T10:26:14Z</time>
      </trkpt>
      <trkpt lat="45.92263" lon="4.75808">
        <ele>174</ele>
        <time>2016-09-26T10:26:15Z</time>
      </trkpt>
      <trkpt lat="45.92259" lon="4.75802">
        <ele>174</ele>
        <time>2016-09-26T10:26:16Z</time>
      </trkpt>
      <trkpt lat="45.92257" lon="4.75796">
        <ele>174</ele>
        <time>2016-09-26T10:26:17Z</time>
      </trkpt>
      <trkpt lat="45.92255" lon="4.75789">
        <ele>174</ele>
        <time>2016-09-26T10:26:18Z</time>
      </trkpt>
      <trkpt lat="45.92256" lon="4.75782">
        <ele>174</ele>
        <time>2016-09-26T10:26:19Z</time>
      </trkpt>
      <trkpt lat="45.92253" lon="4.75775">
        <ele>174</ele>
        <time>2016-09-26T10:26:20Z</time>
      </trkpt>
      <trkpt lat="45.9225" lon="4.75768">
        <ele>174</ele>
        <time>2016-09-26T10:26:21Z</time>
      </trkpt>
      <trkpt lat="45.92246" lon="4.7576">
        <ele>174</ele>
        <time>2016-09-26T10:26:22Z</time>
      </trkpt>
      <trkpt lat="45.9224" lon="4.75753">
        <ele>174</ele>
        <time>2016-09-26T10:26:23Z</time>
      </trkpt>
      <trkpt lat="45.92246" lon="4.75744">
        <ele>174</ele>
        <time>2016-09-26T10:26:24Z</time>
      </trkpt>
      <trkpt lat="45.92245" lon="4.75734">
        <ele>174</ele>
        <time>2016-09-26T10:26:25Z</time>
      </trkpt>
      <trkpt lat="45.92243" lon="4.75726">
        <ele>174</ele>
        <time>2016-09-26T10:26:26Z</time>
      </trkpt>
      <trkpt lat="45.9224" lon="4.75717">
        <ele>174</ele>
        <time>2016-09-26T10:26:27Z</time>
      </trkpt>
      <trkpt lat="45.92241" lon="4.75709">
        <ele>174</ele>
        <time>2016-09-26T10:26:28Z</time>
      </trkpt>
      <trkpt lat="45.92236" lon="4.75703">
        <ele>174</ele>
        <time>2016-09-26T10:26:29Z</time>
      </trkpt>
      <trkpt lat="45.92228" lon="4.75698">
        <ele>174</ele>
        <time>2016-09-26T10:26:30Z</time>
      </trkpt>
      <trkpt lat="45.92221" lon="4.75692">
        <ele>174</ele>
        <time>2016-09-26T10:26:31Z</time>
      </trkpt>
      <trkpt lat="45.92214" lon="4.75687">
        <ele>174</ele>
        <time>2016-09-26T10:26:32Z</time>
      </trkpt>
      <trkpt lat="45.92208" lon="4.75682">
        <ele>174</ele>
        <time>2016-09-26T10:26:33Z</time>
      </trkpt>
      <trkpt lat="45.92202" lon="4.75676">
        <ele>174</ele>
        <time>2016-09-26T10:26:34Z</time>
      </trkpt>
      <trkpt lat="45.92197" lon="4.7567">
        <ele>174</ele>
        <time>2016-09-26T10:26:35Z</time>
      </trkpt>
      <trkpt lat="45.92192" lon="4.75665">
        <ele>174</ele>
        <time>2016-09-26T10:26:36Z</time>
      </trkpt>
      <trkpt lat="45.92187" lon="4.75659">
        <ele>174</ele>
        <time>2016-09-26T10:26:37Z</time>
      </trkpt>
      <trkpt lat="45.92182" lon="4.75654">
        <ele>174</ele>
        <time>2016-09-26T10:26:38Z</time>
      </trkpt>
      <trkpt lat="45.92177" lon="4.7565">
        <ele>174</ele>
        <time>2016-09-26T10:26:39Z</time>
      </trkpt>
      <trkpt lat="45.92172" lon="4.75645">
        <ele>174</ele>
        <time>2016-09-26T10:26:40Z</time>
      </trkpt>
      <trkpt lat="45.92167" lon="4.7564">
        <ele>174</ele>
        <time>2016-09-26T10:26:41Z</time>
      </trkpt>
      <trkpt lat="45.92162" lon="4.75635">
        <ele>174</ele>
        <time>2016-09-26T10:26:42Z</time>
      </trkpt>
      <trkpt lat="45.92157" lon="4.75631">
        <ele>174</ele>
        <time>2016-09-26T10:26:43Z</time>
      </trkpt>
      <trkpt lat="45.92153" lon="4.75626">
        <ele>174</ele>
        <time>2016-09-26T10:26:44Z</time>
      </trkpt>
      <trkpt lat="45.92149" lon="4.75622">
        <ele>174</ele>
        <time>2016-09-26T10:26:45Z</time>
      </trkpt>
      <trkpt lat="45.92144" lon="4.75618">
        <ele>174</ele>
        <time>2016-09-26T10:26:46Z</time>
      </trkpt>
      <trkpt lat="45.9214" lon="4.75613">
        <ele>174</ele>
        <time>2016-09-26T10:26:47Z</time>
      </trkpt>
      <trkpt lat="45.92135" lon="4.75609">
        <ele>174</ele>
        <time>2016-09-26T10:26:48Z</time>
      </trkpt>
      <trkpt lat="45.92131" lon="4.75605">
        <ele>174</ele>
        <time>2016-09-26T10:26:49Z</time>
      </trkpt>
      <trkpt lat="45.92126" lon="4.756">
        <ele>174</ele>
        <time>2016-09-26T10:26:50Z</time>
      </trkpt>
      <trkpt lat="45.92122" lon="4.75595">
        <ele>174</ele>
        <time>2016-09-26T10:26:51Z</time>
      </trkpt>
      <trkpt lat="45.92119" lon="4.75591">
        <ele>174</ele>
        <time>2016-09-26T10:26:52Z</time>
      </trkpt>
      <trkpt lat="45.92114" lon="4.75584">
        <ele>174</ele>
        <time>2016-09-26T10:26:54Z</time>
      </trkpt>
      <trkpt lat="45.92113" lon="4.75582">
        <ele>174</ele>
        <time>2016-09-26T10:26:55Z</time>
      </trkpt>
      <trkpt lat="45.92111" lon="4.75571">
        <ele>174</ele>
        <time>2016-09-26T10:26:58Z</time>
      </trkpt>
      <trkpt lat="45.92113" lon="4.75565">
        <ele>174</ele>
        <time>2016-09-26T10:26:59Z</time>
      </trkpt>
      <trkpt lat="45.92121" lon="4.75558">
        <ele>174</ele>
        <time>2016-09-26T10:27:02Z</time>
      </trkpt>
      <trkpt lat="45.92123" lon="4.75553">
        <ele>174</ele>
        <time>2016-09-26T10:27:03Z</time>
      </trkpt>
      <trkpt lat="45.92126" lon="4.75549">
        <ele>174</ele>
        <time>2016-09-26T10:27:04Z</time>
      </trkpt>
      <trkpt lat="45.92129" lon="4.75543">
        <ele>174</ele>
        <time>2016-09-26T10:27:05Z</time>
      </trkpt>
      <trkpt lat="45.92133" lon="4.75535">
        <ele>174</ele>
        <time>2016-09-26T10:27:06Z</time>
      </trkpt>
      <trkpt lat="45.92136" lon="4.75528">
        <ele>174</ele>
        <time>2016-09-26T10:27:07Z</time>
      </trkpt>
      <trkpt lat="45.9214" lon="4.75517">
        <ele>174</ele>
        <time>2016-09-26T10:27:09Z</time>
      </trkpt>
      <trkpt lat="45.92141" lon="4.75509">
        <ele>174</ele>
        <time>2016-09-26T10:27:10Z</time>
      </trkpt>
      <trkpt lat="45.92143" lon="4.75502">
        <ele>175</ele>
        <time>2016-09-26T10:27:11Z</time>
      </trkpt>
      <trkpt lat="45.92146" lon="4.75495">
        <ele>175</ele>
        <time>2016-09-26T10:27:12Z</time>
      </trkpt>
      <trkpt lat="45.92149" lon="4.75488">
        <ele>176</ele>
        <time>2016-09-26T10:27:13Z</time>
      </trkpt>
      <trkpt lat="45.92152" lon="4.75482">
        <ele>176</ele>
        <time>2016-09-26T10:27:14Z</time>
      </trkpt>
      <trkpt lat="45.92155" lon="4.75475">
        <ele>176</ele>
        <time>2016-09-26T10:27:15Z</time>
      </trkpt>
      <trkpt lat="45.92159" lon="4.75467">
        <ele>176</ele>
        <time>2016-09-26T10:27:16Z</time>
      </trkpt>
      <trkpt lat="45.92162" lon="4.75459">
        <ele>176</ele>
        <time>2016-09-26T10:27:17Z</time>
      </trkpt>
      <trkpt lat="45.92165" lon="4.75451">
        <ele>176</ele>
        <time>2016-09-26T10:27:18Z</time>
      </trkpt>
      <trkpt lat="45.92169" lon="4.75444">
        <ele>176</ele>
        <time>2016-09-26T10:27:19Z</time>
      </trkpt>
      <trkpt lat="45.92172" lon="4.75437">
        <ele>177</ele>
        <time>2016-09-26T10:27:20Z</time>
      </trkpt>
      <trkpt lat="45.92175" lon="4.75429">
        <ele>177</ele>
        <time>2016-09-26T10:27:21Z</time>
      </trkpt>
      <trkpt lat="45.92179" lon="4.75421">
        <ele>177</ele>
        <time>2016-09-26T10:27:22Z</time>
      </trkpt>
      <trkpt lat="45.92182" lon="4.75412">
        <ele>177</ele>
        <time>2016-09-26T10:27:23Z</time>
      </trkpt>
      <trkpt lat="45.92185" lon="4.75404">
        <ele>177</ele>
        <time>2016-09-26T10:27:24Z</time>
      </trkpt>
      <trkpt lat="45.92187" lon="4.75395">
        <ele>177</ele>
        <time>2016-09-26T10:27:25Z</time>
      </trkpt>
      <trkpt lat="45.9219" lon="4.75386">
        <ele>177</ele>
        <time>2016-09-26T10:27:26Z</time>
      </trkpt>
      <trkpt lat="45.92195" lon="4.75378">
        <ele>177</ele>
        <time>2016-09-26T10:27:27Z</time>
      </trkpt>
      <trkpt lat="45.92198" lon="4.75368">
        <ele>177</ele>
        <time>2016-09-26T10:27:28Z</time>
      </trkpt>
      <trkpt lat="45.92201" lon="4.75359">
        <ele>177</ele>
        <time>2016-09-26T10:27:29Z</time>
      </trkpt>
      <trkpt lat="45.92203" lon="4.75349">
        <ele>177</ele>
        <time>2016-09-26T10:27:30Z</time>
      </trkpt>
      <trkpt lat="45.92208" lon="4.75339">
        <ele>177</ele>
        <time>2016-09-26T10:27:31Z</time>
      </trkpt>
      <trkpt lat="45.92208" lon="4.75329">
        <ele>176</ele>
        <time>2016-09-26T10:27:32Z</time>
      </trkpt>
      <trkpt lat="45.9221" lon="4.75319">
        <ele>176</ele>
        <time>2016-09-26T10:27:33Z</time>
      </trkpt>
      <trkpt lat="45.92212" lon="4.75309">
        <ele>176</ele>
        <time>2016-09-26T10:27:34Z</time>
      </trkpt>
      <trkpt lat="45.92212" lon="4.75299">
        <ele>176</ele>
        <time>2016-09-26T10:27:35Z</time>
      </trkpt>
      <trkpt lat="45.92213" lon="4.7529">
        <ele>176</ele>
        <time>2016-09-26T10:27:36Z</time>
      </trkpt>
      <trkpt lat="45.92214" lon="4.75281">
        <ele>176</ele>
        <time>2016-09-26T10:27:37Z</time>
      </trkpt>
      <trkpt lat="45.92216" lon="4.75272">
        <ele>176</ele>
        <time>2016-09-26T10:27:38Z</time>
      </trkpt>
      <trkpt lat="45.92217" lon="4.75263">
        <ele>176</ele>
        <time>2016-09-26T10:27:39Z</time>
      </trkpt>
      <trkpt lat="45.9222" lon="4.75255">
        <ele>175</ele>
        <time>2016-09-26T10:27:40Z</time>
      </trkpt>
      <trkpt lat="45.92222" lon="4.75246">
        <ele>175</ele>
        <time>2016-09-26T10:27:41Z</time>
      </trkpt>
      <trkpt lat="45.92224" lon="4.75237">
        <ele>175</ele>
        <time>2016-09-26T10:27:42Z</time>
      </trkpt>
      <trkpt lat="45.92225" lon="4.75227">
        <ele>175</ele>
        <time>2016-09-26T10:27:43Z</time>
      </trkpt>
      <trkpt lat="45.92226" lon="4.75217">
        <ele>175</ele>
        <time>2016-09-26T10:27:44Z</time>
      </trkpt>
      <trkpt lat="45.92228" lon="4.75208">
        <ele>175</ele>
        <time>2016-09-26T10:27:45Z</time>
      </trkpt>
      <trkpt lat="45.92229" lon="4.75198">
        <ele>175</ele>
        <time>2016-09-26T10:27:46Z</time>
      </trkpt>
      <trkpt lat="45.92231" lon="4.75189">
        <ele>175</ele>
        <time>2016-09-26T10:27:47Z</time>
      </trkpt>
      <trkpt lat="45.92234" lon="4.7518">
        <ele>175</ele>
        <time>2016-09-26T10:27:48Z</time>
      </trkpt>
      <trkpt lat="45.92237" lon="4.75172">
        <ele>175</ele>
        <time>2016-09-26T10:27:49Z</time>
      </trkpt>
      <trkpt lat="45.92241" lon="4.75164">
        <ele>175</ele>
        <time>2016-09-26T10:27:50Z</time>
      </trkpt>
      <trkpt lat="45.92245" lon="4.75156">
        <ele>175</ele>
        <time>2016-09-26T10:27:51Z</time>
      </trkpt>
      <trkpt lat="45.92249" lon="4.75149">
        <ele>174</ele>
        <time>2016-09-26T10:27:52Z</time>
      </trkpt>
      <trkpt lat="45.92254" lon="4.75142">
        <ele>174</ele>
        <time>2016-09-26T10:27:53Z</time>
      </trkpt>
      <trkpt lat="45.92259" lon="4.75135">
        <ele>174</ele>
        <time>2016-09-26T10:27:54Z</time>
      </trkpt>
      <trkpt lat="45.92264" lon="4.75128">
        <ele>174</ele>
        <time>2016-09-26T10:27:55Z</time>
      </trkpt>
      <trkpt lat="45.92268" lon="4.75122">
        <ele>174</ele>
        <time>2016-09-26T10:27:56Z</time>
      </trkpt>
      <trkpt lat="45.92273" lon="4.75116">
        <ele>174</ele>
        <time>2016-09-26T10:27:57Z</time>
      </trkpt>
      <trkpt lat="45.92278" lon="4.75109">
        <ele>174</ele>
        <time>2016-09-26T10:27:58Z</time>
      </trkpt>
      <trkpt lat="45.92283" lon="4.75103">
        <ele>173</ele>
        <time>2016-09-26T10:27:59Z</time>
      </trkpt>
      <trkpt lat="45.92288" lon="4.75098">
        <ele>173</ele>
        <time>2016-09-26T10:28:00Z</time>
      </trkpt>
      <trkpt lat="45.92293" lon="4.75093">
        <ele>173</ele>
        <time>2016-09-26T10:28:01Z</time>
      </trkpt>
      <trkpt lat="45.92298" lon="4.75088">
        <ele>173</ele>
        <time>2016-09-26T10:28:02Z</time>
      </trkpt>
      <trkpt lat="45.92303" lon="4.75083">
        <ele>172</ele>
        <time>2016-09-26T10:28:03Z</time>
      </trkpt>
      <trkpt lat="45.92308" lon="4.75077">
        <ele>172</ele>
        <time>2016-09-26T10:28:04Z</time>
      </trkpt>
      <trkpt lat="45.92312" lon="4.75071">
        <ele>172</ele>
        <time>2016-09-26T10:28:05Z</time>
      </trkpt>
      <trkpt lat="45.92317" lon="4.75063">
        <ele>172</ele>
        <time>2016-09-26T10:28:06Z</time>
      </trkpt>
      <trkpt lat="45.92322" lon="4.75055">
        <ele>172</ele>
        <time>2016-09-26T10:28:07Z</time>
      </trkpt>
      <trkpt lat="45.92327" lon="4.75046">
        <ele>172</ele>
        <time>2016-09-26T10:28:08Z</time>
      </trkpt>
      <trkpt lat="45.92332" lon="4.75037">
        <ele>171</ele>
        <time>2016-09-26T10:28:09Z</time>
      </trkpt>
      <trkpt lat="45.92335" lon="4.75029">
        <ele>170</ele>
        <time>2016-09-26T10:28:10Z</time>
      </trkpt>
      <trkpt lat="45.9234" lon="4.7502">
        <ele>170</ele>
        <time>2016-09-26T10:28:11Z</time>
      </trkpt>
      <trkpt lat="45.92344" lon="4.75012">
        <ele>170</ele>
        <time>2016-09-26T10:28:12Z</time>
      </trkpt>
      <trkpt lat="45.92347" lon="4.75004">
        <ele>170</ele>
        <time>2016-09-26T10:28:13Z</time>
      </trkpt>
      <trkpt lat="45.9235" lon="4.74996">
        <ele>170</ele>
        <time>2016-09-26T10:28:14Z</time>
      </trkpt>
      <trkpt lat="45.92353" lon="4.74988">
        <ele>170</ele>
        <time>2016-09-26T10:28:15Z</time>
      </trkpt>
      <trkpt lat="45.92357" lon="4.7498">
        <ele>170</ele>
        <time>2016-09-26T10:28:16Z</time>
      </trkpt>
      <trkpt lat="45.9236" lon="4.74972">
        <ele>170</ele>
        <time>2016-09-26T10:28:17Z</time>
      </trkpt>
      <trkpt lat="45.92363" lon="4.74964">
        <ele>170</ele>
        <time>2016-09-26T10:28:18Z</time>
      </trkpt>
      <trkpt lat="45.92367" lon="4.74955">
        <ele>170</ele>
        <time>2016-09-26T10:28:19Z</time>
      </trkpt>
      <trkpt lat="45.9237" lon="4.74947">
        <ele>170</ele>
        <time>2016-09-26T10:28:20Z</time>
      </trkpt>
      <trkpt lat="45.92374" lon="4.74939">
        <ele>170</ele>
        <time>2016-09-26T10:28:21Z</time>
      </trkpt>
      <trkpt lat="45.92377" lon="4.74931">
        <ele>170</ele>
        <time>2016-09-26T10:28:22Z</time>
      </trkpt>
      <trkpt lat="45.9238" lon="4.74923">
        <ele>170</ele>
        <time>2016-09-26T10:28:23Z</time>
      </trkpt>
      <trkpt lat="45.92383" lon="4.74916">
        <ele>171</ele>
        <time>2016-09-26T10:28:24Z</time>
      </trkpt>
      <trkpt lat="45.92386" lon="4.74908">
        <ele>171</ele>
        <time>2016-09-26T10:28:25Z</time>
      </trkpt>
      <trkpt lat="45.92388" lon="4.74901">
        <ele>171</ele>
        <time>2016-09-26T10:28:26Z</time>
      </trkpt>
      <trkpt lat="45.92391" lon="4.74894">
        <ele>171</ele>
        <time>2016-09-26T10:28:27Z</time>
      </trkpt>
      <trkpt lat="45.92394" lon="4.74886">
        <ele>171</ele>
        <time>2016-09-26T10:28:28Z</time>
      </trkpt>
      <trkpt lat="45.92396" lon="4.74878">
        <ele>171</ele>
        <time>2016-09-26T10:28:29Z</time>
      </trkpt>
      <trkpt lat="45.92399" lon="4.7487">
        <ele>171</ele>
        <time>2016-09-26T10:28:30Z</time>
      </trkpt>
      <trkpt lat="45.92401" lon="4.74862">
        <ele>171</ele>
        <time>2016-09-26T10:28:31Z</time>
      </trkpt>
      <trkpt lat="45.92403" lon="4.74855">
        <ele>171</ele>
        <time>2016-09-26T10:28:32Z</time>
      </trkpt>
      <trkpt lat="45.92405" lon="4.74847">
        <ele>171</ele>
        <time>2016-09-26T10:28:33Z</time>
      </trkpt>
      <trkpt lat="45.92407" lon="4.74839">
        <ele>171</ele>
        <time>2016-09-26T10:28:34Z</time>
      </trkpt>
      <trkpt lat="45.92408" lon="4.74831">
        <ele>171</ele>
        <time>2016-09-26T10:28:35Z</time>
      </trkpt>
      <trkpt lat="45.92409" lon="4.74823">
        <ele>171</ele>
        <time>2016-09-26T10:28:36Z</time>
      </trkpt>
      <trkpt lat="45.92411" lon="4.74815">
        <ele>171</ele>
        <time>2016-09-26T10:28:37Z</time>
      </trkpt>
      <trkpt lat="45.92413" lon="4.74807">
        <ele>171</ele>
        <time>2016-09-26T10:28:38Z</time>
      </trkpt>
      <trkpt lat="45.92415" lon="4.74798">
        <ele>171</ele>
        <time>2016-09-26T10:28:39Z</time>
      </trkpt>
      <trkpt lat="45.92416" lon="4.7479">
        <ele>171</ele>
        <time>2016-09-26T10:28:40Z</time>
      </trkpt>
      <trkpt lat="45.92418" lon="4.74782">
        <ele>171</ele>
        <time>2016-09-26T10:28:41Z</time>
      </trkpt>
      <trkpt lat="45.92421" lon="4.74775">
        <ele>171</ele>
        <time>2016-09-26T10:28:42Z</time>
      </trkpt>
      <trkpt lat="45.92423" lon="4.74767">
        <ele>171</ele>
        <time>2016-09-26T10:28:43Z</time>
      </trkpt>
      <trkpt lat="45.92425" lon="4.74759">
        <ele>171</ele>
        <time>2016-09-26T10:28:44Z</time>
      </trkpt>
      <trkpt lat="45.92427" lon="4.74751">
        <ele>171</ele>
        <time>2016-09-26T10:28:45Z</time>
      </trkpt>
      <trkpt lat="45.9243" lon="4.74743">
        <ele>171</ele>
        <time>2016-09-26T10:28:46Z</time>
      </trkpt>
      <trkpt lat="45.92432" lon="4.74735">
        <ele>171</ele>
        <time>2016-09-26T10:28:47Z</time>
      </trkpt>
      <trkpt lat="45.92435" lon="4.74728">
        <ele>171</ele>
        <time>2016-09-26T10:28:48Z</time>
      </trkpt>
      <trkpt lat="45.92438" lon="4.7472">
        <ele>171</ele>
        <time>2016-09-26T10:28:49Z</time>
      </trkpt>
      <trkpt lat="45.9244" lon="4.74713">
        <ele>171</ele>
        <time>2016-09-26T10:28:50Z</time>
      </trkpt>
      <trkpt lat="45.92443" lon="4.74706">
        <ele>171</ele>
        <time>2016-09-26T10:28:51Z</time>
      </trkpt>
      <trkpt lat="45.92447" lon="4.74698">
        <ele>171</ele>
        <time>2016-09-26T10:28:52Z</time>
      </trkpt>
      <trkpt lat="45.9245" lon="4.74691">
        <ele>171</ele>
        <time>2016-09-26T10:28:53Z</time>
      </trkpt>
      <trkpt lat="45.92452" lon="4.74684">
        <ele>171</ele>
        <time>2016-09-26T10:28:54Z</time>
      </trkpt>
      <trkpt lat="45.92455" lon="4.74678">
        <ele>171</ele>
        <time>2016-09-26T10:28:55Z</time>
      </trkpt>
      <trkpt lat="45.92457" lon="4.74671">
        <ele>171</ele>
        <time>2016-09-26T10:28:56Z</time>
      </trkpt>
      <trkpt lat="45.9246" lon="4.74663">
        <ele>171</ele>
        <time>2016-09-26T10:28:57Z</time>
      </trkpt>
      <trkpt lat="45.92463" lon="4.74656">
        <ele>171</ele>
        <time>2016-09-26T10:28:58Z</time>
      </trkpt>
      <trkpt lat="45.92465" lon="4.74649">
        <ele>171</ele>
        <time>2016-09-26T10:28:59Z</time>
      </trkpt>
      <trkpt lat="45.92468" lon="4.74642">
        <ele>171</ele>
        <time>2016-09-26T10:29:00Z</time>
      </trkpt>
      <trkpt lat="45.92472" lon="4.74636">
        <ele>171</ele>
        <time>2016-09-26T10:29:01Z</time>
      </trkpt>
      <trkpt lat="45.92478" lon="4.74631">
        <ele>171</ele>
        <time>2016-09-26T10:29:02Z</time>
      </trkpt>
      <trkpt lat="45.92484" lon="4.74626">
        <ele>171</ele>
        <time>2016-09-26T10:29:03Z</time>
      </trkpt>
      <trkpt lat="45.92494" lon="4.74622">
        <ele>171</ele>
        <time>2016-09-26T10:29:04Z</time>
      </trkpt>
      <trkpt lat="45.92499" lon="4.74615">
        <ele>171</ele>
        <time>2016-09-26T10:29:05Z</time>
      </trkpt>
      <trkpt lat="45.92504" lon="4.7461">
        <ele>170</ele>
        <time>2016-09-26T10:29:06Z</time>
      </trkpt>
      <trkpt lat="45.92509" lon="4.74605">
        <ele>171</ele>
        <time>2016-09-26T10:29:07Z</time>
      </trkpt>
      <trkpt lat="45.92513" lon="4.746">
        <ele>171</ele>
        <time>2016-09-26T10:29:08Z</time>
      </trkpt>
      <trkpt lat="45.92517" lon="4.74596">
        <ele>171</ele>
        <time>2016-09-26T10:29:09Z</time>
      </trkpt>
      <trkpt lat="45.92521" lon="4.7459">
        <ele>171</ele>
        <time>2016-09-26T10:29:10Z</time>
      </trkpt>
      <trkpt lat="45.92526" lon="4.74585">
        <ele>171</ele>
        <time>2016-09-26T10:29:11Z</time>
      </trkpt>
      <trkpt lat="45.9253" lon="4.74579">
        <ele>171</ele>
        <time>2016-09-26T10:29:12Z</time>
      </trkpt>
      <trkpt lat="45.92535" lon="4.74574">
        <ele>171</ele>
        <time>2016-09-26T10:29:13Z</time>
      </trkpt>
      <trkpt lat="45.92539" lon="4.74569">
        <ele>171</ele>
        <time>2016-09-26T10:29:14Z</time>
      </trkpt>
      <trkpt lat="45.92544" lon="4.74562">
        <ele>170</ele>
        <time>2016-09-26T10:29:15Z</time>
      </trkpt>
      <trkpt lat="45.92548" lon="4.74556">
        <ele>170</ele>
        <time>2016-09-26T10:29:16Z</time>
      </trkpt>
      <trkpt lat="45.92553" lon="4.74549">
        <ele>170</ele>
        <time>2016-09-26T10:29:17Z</time>
      </trkpt>
      <trkpt lat="45.92557" lon="4.74542">
        <ele>170</ele>
        <time>2016-09-26T10:29:18Z</time>
      </trkpt>
      <trkpt lat="45.9256" lon="4.74535">
        <ele>170</ele>
        <time>2016-09-26T10:29:19Z</time>
      </trkpt>
      <trkpt lat="45.92564" lon="4.74528">
        <ele>170</ele>
        <time>2016-09-26T10:29:20Z</time>
      </trkpt>
      <trkpt lat="45.92567" lon="4.74521">
        <ele>170</ele>
        <time>2016-09-26T10:29:21Z</time>
      </trkpt>
      <trkpt lat="45.92571" lon="4.74515">
        <ele>170</ele>
        <time>2016-09-26T10:29:22Z</time>
      </trkpt>
      <trkpt lat="45.92574" lon="4.74509">
        <ele>170</ele>
        <time>2016-09-26T10:29:23Z</time>
      </trkpt>
      <trkpt lat="45.92577" lon="4.74503">
        <ele>170</ele>
        <time>2016-09-26T10:29:24Z</time>
      </trkpt>
      <trkpt lat="45.9258" lon="4.74497">
        <ele>170</ele>
        <time>2016-09-26T10:29:25Z</time>
      </trkpt>
      <trkpt lat="45.92583" lon="4.74491">
        <ele>170</ele>
        <time>2016-09-26T10:29:26Z</time>
      </trkpt>
      <trkpt lat="45.92586" lon="4.74485">
        <ele>170</ele>
        <time>2016-09-26T10:29:27Z</time>
      </trkpt>
      <trkpt lat="45.92589" lon="4.7448">
        <ele>170</ele>
        <time>2016-09-26T10:29:28Z</time>
      </trkpt>
      <trkpt lat="45.92592" lon="4.74473">
        <ele>170</ele>
        <time>2016-09-26T10:29:29Z</time>
      </trkpt>
      <trkpt lat="45.92595" lon="4.74467">
        <ele>170</ele>
        <time>2016-09-26T10:29:30Z</time>
      </trkpt>
      <trkpt lat="45.92599" lon="4.74461">
        <ele>170</ele>
        <time>2016-09-26T10:29:31Z</time>
      </trkpt>
      <trkpt lat="45.92602" lon="4.74454">
        <ele>170</ele>
        <time>2016-09-26T10:29:32Z</time>
      </trkpt>
      <trkpt lat="45.92606" lon="4.74448">
        <ele>170</ele>
        <time>2016-09-26T10:29:33Z</time>
      </trkpt>
      <trkpt lat="45.9261" lon="4.7444">
        <ele>170</ele>
        <time>2016-09-26T10:29:34Z</time>
      </trkpt>
      <trkpt lat="45.92614" lon="4.74434">
        <ele>170</ele>
        <time>2016-09-26T10:29:35Z</time>
      </trkpt>
      <trkpt lat="45.92618" lon="4.74428">
        <ele>170</ele>
        <time>2016-09-26T10:29:36Z</time>
      </trkpt>
      <trkpt lat="45.92622" lon="4.74421">
        <ele>170</ele>
        <time>2016-09-26T10:29:37Z</time>
      </trkpt>
      <trkpt lat="45.92625" lon="4.74416">
        <ele>170</ele>
        <time>2016-09-26T10:29:38Z</time>
      </trkpt>
      <trkpt lat="45.92628" lon="4.74409">
        <ele>170</ele>
        <time>2016-09-26T10:29:39Z</time>
      </trkpt>
      <trkpt lat="45.92632" lon="4.74403">
        <ele>170</ele>
        <time>2016-09-26T10:29:40Z</time>
      </trkpt>
      <trkpt lat="45.92635" lon="4.74397">
        <ele>170</ele>
        <time>2016-09-26T10:29:41Z</time>
      </trkpt>
      <trkpt lat="45.92636" lon="4.74391">
        <ele>170</ele>
        <time>2016-09-26T10:29:42Z</time>
      </trkpt>
      <trkpt lat="45.92639" lon="4.74386">
        <ele>170</ele>
        <time>2016-09-26T10:29:43Z</time>
      </trkpt>
      <trkpt lat="45.92642" lon="4.7438">
        <ele>170</ele>
        <time>2016-09-26T10:29:44Z</time>
      </trkpt>
      <trkpt lat="45.92645" lon="4.74374">
        <ele>171</ele>
        <time>2016-09-26T10:29:45Z</time>
      </trkpt>
      <trkpt lat="45.92647" lon="4.74368">
        <ele>171</ele>
        <time>2016-09-26T10:29:46Z</time>
      </trkpt>
      <trkpt lat="45.9265" lon="4.74362">
        <ele>171</ele>
        <time>2016-09-26T10:29:47Z</time>
      </trkpt>
      <trkpt lat="45.92654" lon="4.74356">
        <ele>171</ele>
        <time>2016-09-26T10:29:48Z</time>
      </trkpt>
      <trkpt lat="45.92657" lon="4.7435">
        <ele>171</ele>
        <time>2016-09-26T10:29:49Z</time>
      </trkpt>
      <trkpt lat="45.9266" lon="4.74344">
        <ele>171</ele>
        <time>2016-09-26T10:29:50Z</time>
      </trkpt>
      <trkpt lat="45.92664" lon="4.74337">
        <ele>171</ele>
        <time>2016-09-26T10:29:51Z</time>
      </trkpt>
      <trkpt lat="45.92667" lon="4.74331">
        <ele>171</ele>
        <time>2016-09-26T10:29:52Z</time>
      </trkpt>
      <trkpt lat="45.9267" lon="4.74324">
        <ele>171</ele>
        <time>2016-09-26T10:29:53Z</time>
      </trkpt>
      <trkpt lat="45.92674" lon="4.74318">
        <ele>171</ele>
        <time>2016-09-26T10:29:54Z</time>
      </trkpt>
      <trkpt lat="45.92678" lon="4.74312">
        <ele>171</ele>
        <time>2016-09-26T10:29:55Z</time>
      </trkpt>
      <trkpt lat="45.92681" lon="4.74308">
        <ele>171</ele>
        <time>2016-09-26T10:29:56Z</time>
      </trkpt>
      <trkpt lat="45.92684" lon="4.74303">
        <ele>171</ele>
        <time>2016-09-26T10:29:57Z</time>
      </trkpt>
      <trkpt lat="45.92687" lon="4.74298">
        <ele>171</ele>
        <time>2016-09-26T10:29:58Z</time>
      </trkpt>
      <trkpt lat="45.92689" lon="4.74293">
        <ele>171</ele>
        <time>2016-09-26T10:29:59Z</time>
      </trkpt>
      <trkpt lat="45.92692" lon="4.74287">
        <ele>171</ele>
        <time>2016-09-26T10:30:00Z</time>
      </trkpt>
      <trkpt lat="45.92696" lon="4.74281">
        <ele>171</ele>
        <time>2016-09-26T10:30:01Z</time>
      </trkpt>
      <trkpt lat="45.92699" lon="4.74276">
        <ele>171</ele>
        <time>2016-09-26T10:30:02Z</time>
      </trkpt>
      <trkpt lat="45.92702" lon="4.7427">
        <ele>171</ele>
        <time>2016-09-26T10:30:03Z</time>
      </trkpt>
      <trkpt lat="45.92705" lon="4.74264">
        <ele>171</ele>
        <time>2016-09-26T10:30:04Z</time>
      </trkpt>
      <trkpt lat="45.92709" lon="4.74258">
        <ele>171</ele>
        <time>2016-09-26T10:30:05Z</time>
      </trkpt>
      <trkpt lat="45.92713" lon="4.74252">
        <ele>171</ele>
        <time>2016-09-26T10:30:06Z</time>
      </trkpt>
      <trkpt lat="45.92717" lon="4.74247">
        <ele>171</ele>
        <time>2016-09-26T10:30:07Z</time>
      </trkpt>
      <trkpt lat="45.92721" lon="4.74241">
        <ele>171</ele>
        <time>2016-09-26T10:30:08Z</time>
      </trkpt>
      <trkpt lat="45.92724" lon="4.74236">
        <ele>171</ele>
        <time>2016-09-26T10:30:09Z</time>
      </trkpt>
      <trkpt lat="45.92728" lon="4.74231">
        <ele>171</ele>
        <time>2016-09-26T10:30:10Z</time>
      </trkpt>
      <trkpt lat="45.92732" lon="4.74226">
        <ele>171</ele>
        <time>2016-09-26T10:30:11Z</time>
      </trkpt>
      <trkpt lat="45.92736" lon="4.7422">
        <ele>171</ele>
        <time>2016-09-26T10:30:12Z</time>
      </trkpt>
      <trkpt lat="45.9274" lon="4.74214">
        <ele>171</ele>
        <time>2016-09-26T10:30:13Z</time>
      </trkpt>
      <trkpt lat="45.92743" lon="4.74209">
        <ele>171</ele>
        <time>2016-09-26T10:30:14Z</time>
      </trkpt>
      <trkpt lat="45.92747" lon="4.74204">
        <ele>171</ele>
        <time>2016-09-26T10:30:15Z</time>
      </trkpt>
      <trkpt lat="45.92751" lon="4.74199">
        <ele>172</ele>
        <time>2016-09-26T10:30:16Z</time>
      </trkpt>
      <trkpt lat="45.92756" lon="4.74194">
        <ele>172</ele>
        <time>2016-09-26T10:30:17Z</time>
      </trkpt>
      <trkpt lat="45.9276" lon="4.74189">
        <ele>172</ele>
        <time>2016-09-26T10:30:18Z</time>
      </trkpt>
      <trkpt lat="45.92765" lon="4.74184">
        <ele>172</ele>
        <time>2016-09-26T10:30:19Z</time>
      </trkpt>
      <trkpt lat="45.9277" lon="4.74178">
        <ele>172</ele>
        <time>2016-09-26T10:30:20Z</time>
      </trkpt>
      <trkpt lat="45.92775" lon="4.74172">
        <ele>172</ele>
        <time>2016-09-26T10:30:21Z</time>
      </trkpt>
      <trkpt lat="45.9278" lon="4.74167">
        <ele>172</ele>
        <time>2016-09-26T10:30:22Z</time>
      </trkpt>
      <trkpt lat="45.92784" lon="4.74162">
        <ele>172</ele>
        <time>2016-09-26T10:30:23Z</time>
      </trkpt>
      <trkpt lat="45.92789" lon="4.74157">
        <ele>172</ele>
        <time>2016-09-26T10:30:24Z</time>
      </trkpt>
      <trkpt lat="45.92794" lon="4.74152">
        <ele>172</ele>
        <time>2016-09-26T10:30:25Z</time>
      </trkpt>
      <trkpt lat="45.92799" lon="4.74149">
        <ele>172</ele>
        <time>2016-09-26T10:30:26Z</time>
      </trkpt>
      <trkpt lat="45.92803" lon="4.74146">
        <ele>172</ele>
        <time>2016-09-26T10:30:27Z</time>
      </trkpt>
      <trkpt lat="45.92808" lon="4.74141">
        <ele>172</ele>
        <time>2016-09-26T10:30:28Z</time>
      </trkpt>
      <trkpt lat="45.92812" lon="4.74135">
        <ele>172</ele>
        <time>2016-09-26T10:30:29Z</time>
      </trkpt>
      <trkpt lat="45.92817" lon="4.7413">
        <ele>172</ele>
        <time>2016-09-26T10:30:30Z</time>
      </trkpt>
      <trkpt lat="45.9282" lon="4.74125">
        <ele>172</ele>
        <time>2016-09-26T10:30:31Z</time>
      </trkpt>
      <trkpt lat="45.92824" lon="4.74119">
        <ele>171</ele>
        <time>2016-09-26T10:30:32Z</time>
      </trkpt>
      <trkpt lat="45.92828" lon="4.74115">
        <ele>171</ele>
        <time>2016-09-26T10:30:33Z</time>
      </trkpt>
      <trkpt lat="45.92833" lon="4.7411">
        <ele>171</ele>
        <time>2016-09-26T10:30:34Z</time>
      </trkpt>
      <trkpt lat="45.92837" lon="4.74105">
        <ele>171</ele>
        <time>2016-09-26T10:30:35Z</time>
      </trkpt>
      <trkpt lat="45.92841" lon="4.74099">
        <ele>171</ele>
        <time>2016-09-26T10:30:36Z</time>
      </trkpt>
      <trkpt lat="45.92845" lon="4.74094">
        <ele>171</ele>
        <time>2016-09-26T10:30:37Z</time>
      </trkpt>
      <trkpt lat="45.92849" lon="4.74087">
        <ele>171</ele>
        <time>2016-09-26T10:30:38Z</time>
      </trkpt>
      <trkpt lat="45.92853" lon="4.74082">
        <ele>172</ele>
        <time>2016-09-26T10:30:39Z</time>
      </trkpt>
      <trkpt lat="45.92857" lon="4.74077">
        <ele>172</ele>
        <time>2016-09-26T10:30:40Z</time>
      </trkpt>
      <trkpt lat="45.92861" lon="4.74074">
        <ele>172</ele>
        <time>2016-09-26T10:30:41Z</time>
      </trkpt>
      <trkpt lat="45.92865" lon="4.74071">
        <ele>172</ele>
        <time>2016-09-26T10:30:42Z</time>
      </trkpt>
      <trkpt lat="45.92869" lon="4.74067">
        <ele>172</ele>
        <time>2016-09-26T10:30:43Z</time>
      </trkpt>
      <trkpt lat="45.92873" lon="4.74061">
        <ele>172</ele>
        <time>2016-09-26T10:30:44Z</time>
      </trkpt>
      <trkpt lat="45.92877" lon="4.74057">
        <ele>172</ele>
        <time>2016-09-26T10:30:45Z</time>
      </trkpt>
      <trkpt lat="45.92881" lon="4.74053">
        <ele>172</ele>
        <time>2016-09-26T10:30:46Z</time>
      </trkpt>
      <trkpt lat="45.9289" lon="4.74052">
        <ele>172</ele>
        <time>2016-09-26T10:30:48Z</time>
      </trkpt>
      <trkpt lat="45.92894" lon="4.74053">
        <ele>172</ele>
        <time>2016-09-26T10:30:49Z</time>
      </trkpt>
      <trkpt lat="45.92899" lon="4.74054">
        <ele>172</ele>
        <time>2016-09-26T10:30:50Z</time>
      </trkpt>
      <trkpt lat="45.92904" lon="4.74053">
        <ele>172</ele>
        <time>2016-09-26T10:30:51Z</time>
      </trkpt>
      <trkpt lat="45.92909" lon="4.74051">
        <ele>172</ele>
        <time>2016-09-26T10:30:52Z</time>
      </trkpt>
      <trkpt lat="45.92913" lon="4.74046">
        <ele>172</ele>
        <time>2016-09-26T10:30:53Z</time>
      </trkpt>
      <trkpt lat="45.92916" lon="4.74039">
        <ele>172</ele>
        <time>2016-09-26T10:30:54Z</time>
      </trkpt>
      <trkpt lat="45.92919" lon="4.74031">
        <ele>172</ele>
        <time>2016-09-26T10:30:55Z</time>
      </trkpt>
      <trkpt lat="45.92921" lon="4.74023">
        <ele>172</ele>
        <time>2016-09-26T10:30:56Z</time>
      </trkpt>
      <trkpt lat="45.92921" lon="4.74014">
        <ele>172</ele>
        <time>2016-09-26T10:30:57Z</time>
      </trkpt>
      <trkpt lat="45.92918" lon="4.74006">
        <ele>172</ele>
        <time>2016-09-26T10:30:58Z</time>
      </trkpt>
      <trkpt lat="45.92915" lon="4.73999">
        <ele>172</ele>
        <time>2016-09-26T10:30:59Z</time>
      </trkpt>
      <trkpt lat="45.92909" lon="4.73993">
        <ele>172</ele>
        <time>2016-09-26T10:31:00Z</time>
      </trkpt>
      <trkpt lat="45.92903" lon="4.73989">
        <ele>172</ele>
        <time>2016-09-26T10:31:01Z</time>
      </trkpt>
      <trkpt lat="45.92897" lon="4.73983">
        <ele>172</ele>
        <time>2016-09-26T10:31:02Z</time>
      </trkpt>
      <trkpt lat="45.92893" lon="4.73975">
        <ele>172</ele>
        <time>2016-09-26T10:31:03Z</time>
      </trkpt>
      <trkpt lat="45.9289" lon="4.73966">
        <ele>172</ele>
        <time>2016-09-26T10:31:04Z</time>
      </trkpt>
      <trkpt lat="45.92889" lon="4.73956">
        <ele>172</ele>
        <time>2016-09-26T10:31:05Z</time>
      </trkpt>
      <trkpt lat="45.92888" lon="4.73946">
        <ele>172</ele>
        <time>2016-09-26T10:31:06Z</time>
      </trkpt>
      <trkpt lat="45.92887" lon="4.73936">
        <ele>172</ele>
        <time>2016-09-26T10:31:07Z</time>
      </trkpt>
      <trkpt lat="45.92887" lon="4.73926">
        <ele>172</ele>
        <time>2016-09-26T10:31:08Z</time>
      </trkpt>
      <trkpt lat="45.92884" lon="4.73916">
        <ele>173</ele>
        <time>2016-09-26T10:31:09Z</time>
      </trkpt>
      <trkpt lat="45.92883" lon="4.73907">
        <ele>173</ele>
        <time>2016-09-26T10:31:10Z</time>
      </trkpt>
      <trkpt lat="45.92881" lon="4.73897">
        <ele>173</ele>
        <time>2016-09-26T10:31:11Z</time>
      </trkpt>
      <trkpt lat="45.92881" lon="4.73888">
        <ele>173</ele>
        <time>2016-09-26T10:31:12Z</time>
      </trkpt>
      <trkpt lat="45.92879" lon="4.73879">
        <ele>173</ele>
        <time>2016-09-26T10:31:13Z</time>
      </trkpt>
      <trkpt lat="45.92877" lon="4.7387">
        <ele>173</ele>
        <time>2016-09-26T10:31:14Z</time>
      </trkpt>
      <trkpt lat="45.92876" lon="4.73862">
        <ele>173</ele>
        <time>2016-09-26T10:31:15Z</time>
      </trkpt>
      <trkpt lat="45.92875" lon="4.73854">
        <ele>173</ele>
        <time>2016-09-26T10:31:16Z</time>
      </trkpt>
      <trkpt lat="45.92876" lon="4.73844">
        <ele>173</ele>
        <time>2016-09-26T10:31:17Z</time>
      </trkpt>
      <trkpt lat="45.92876" lon="4.73835">
        <ele>173</ele>
        <time>2016-09-26T10:31:18Z</time>
      </trkpt>
      <trkpt lat="45.92875" lon="4.73828">
        <ele>173</ele>
        <time>2016-09-26T10:31:19Z</time>
      </trkpt>
      <trkpt lat="45.92873" lon="4.7382">
        <ele>173</ele>
        <time>2016-09-26T10:31:20Z</time>
      </trkpt>
      <trkpt lat="45.92872" lon="4.73813">
        <ele>173</ele>
        <time>2016-09-26T10:31:21Z</time>
      </trkpt>
      <trkpt lat="45.9287" lon="4.73806">
        <ele>173</ele>
        <time>2016-09-26T10:31:22Z</time>
      </trkpt>
      <trkpt lat="45.92868" lon="4.738">
        <ele>173</ele>
        <time>2016-09-26T10:31:23Z</time>
      </trkpt>
      <trkpt lat="45.92864" lon="4.73794">
        <ele>173</ele>
        <time>2016-09-26T10:31:24Z</time>
      </trkpt>
      <trkpt lat="45.92859" lon="4.7379">
        <ele>173</ele>
        <time>2016-09-26T10:31:25Z</time>
      </trkpt>
      <trkpt lat="45.92852" lon="4.73789">
        <ele>173</ele>
        <time>2016-09-26T10:31:27Z</time>
      </trkpt>
      <trkpt lat="45.92846" lon="4.73786">
        <ele>173</ele>
        <time>2016-09-26T10:31:28Z</time>
      </trkpt>
      <trkpt lat="45.92842" lon="4.73783">
        <ele>173</ele>
        <time>2016-09-26T10:31:29Z</time>
      </trkpt>
      <trkpt lat="45.92838" lon="4.73781">
        <ele>173</ele>
        <time>2016-09-26T10:31:30Z</time>
      </trkpt>
      <trkpt lat="45.92832" lon="4.73779">
        <ele>173</ele>
        <time>2016-09-26T10:31:31Z</time>
      </trkpt>
      <trkpt lat="45.92827" lon="4.73776">
        <ele>173</ele>
        <time>2016-09-26T10:31:32Z</time>
      </trkpt>
      <trkpt lat="45.92823" lon="4.73772">
        <ele>173</ele>
        <time>2016-09-26T10:31:33Z</time>
      </trkpt>
      <trkpt lat="45.92818" lon="4.7377">
        <ele>173</ele>
        <time>2016-09-26T10:31:34Z</time>
      </trkpt>
      <trkpt lat="45.92812" lon="4.73767">
        <ele>173</ele>
        <time>2016-09-26T10:31:35Z</time>
      </trkpt>
      <trkpt lat="45.92807" lon="4.73765">
        <ele>173</ele>
        <time>2016-09-26T10:31:36Z</time>
      </trkpt>
      <trkpt lat="45.92803" lon="4.73761">
        <ele>173</ele>
        <time>2016-09-26T10:31:37Z</time>
      </trkpt>
      <trkpt lat="45.92798" lon="4.73758">
        <ele>173</ele>
        <time>2016-09-26T10:31:38Z</time>
      </trkpt>
      <trkpt lat="45.92791" lon="4.7375">
        <ele>172</ele>
        <time>2016-09-26T10:31:40Z</time>
      </trkpt>
      <trkpt lat="45.92789" lon="4.73745">
        <ele>172</ele>
        <time>2016-09-26T10:31:41Z</time>
      </trkpt>
      <trkpt lat="45.92785" lon="4.73739">
        <ele>172</ele>
        <time>2016-09-26T10:31:42Z</time>
      </trkpt>
      <trkpt lat="45.9278" lon="4.73734">
        <ele>172</ele>
        <time>2016-09-26T10:31:43Z</time>
      </trkpt>
      <trkpt lat="45.92775" lon="4.73733">
        <ele>172</ele>
        <time>2016-09-26T10:31:44Z</time>
      </trkpt>
      <trkpt lat="45.92768" lon="4.73731">
        <ele>172</ele>
        <time>2016-09-26T10:31:45Z</time>
      </trkpt>
      <trkpt lat="45.92761" lon="4.73729">
        <ele>172</ele>
        <time>2016-09-26T10:31:46Z</time>
      </trkpt>
      <trkpt lat="45.92755" lon="4.73727">
        <ele>172</ele>
        <time>2016-09-26T10:31:47Z</time>
      </trkpt>
      <trkpt lat="45.92749" lon="4.73727">
        <ele>173</ele>
        <time>2016-09-26T10:31:48Z</time>
      </trkpt>
      <trkpt lat="45.92743" lon="4.73725">
        <ele>173</ele>
        <time>2016-09-26T10:31:49Z</time>
      </trkpt>
      <trkpt lat="45.92737" lon="4.73724">
        <ele>173</ele>
        <time>2016-09-26T10:31:50Z</time>
      </trkpt>
      <trkpt lat="45.92732" lon="4.73724">
        <ele>173</ele>
        <time>2016-09-26T10:31:51Z</time>
      </trkpt>
      <trkpt lat="45.92726" lon="4.73723">
        <ele>173</ele>
        <time>2016-09-26T10:31:52Z</time>
      </trkpt>
      <trkpt lat="45.9272" lon="4.73722">
        <ele>173</ele>
        <time>2016-09-26T10:31:53Z</time>
      </trkpt>
      <trkpt lat="45.92714" lon="4.73717">
        <ele>173</ele>
        <time>2016-09-26T10:31:54Z</time>
      </trkpt>
      <trkpt lat="45.92707" lon="4.73713">
        <ele>173</ele>
        <time>2016-09-26T10:31:55Z</time>
      </trkpt>
      <trkpt lat="45.92701" lon="4.73712">
        <ele>173</ele>
        <time>2016-09-26T10:31:56Z</time>
      </trkpt>
      <trkpt lat="45.92695" lon="4.73711">
        <ele>173</ele>
        <time>2016-09-26T10:31:57Z</time>
      </trkpt>
      <trkpt lat="45.92689" lon="4.73707">
        <ele>173</ele>
        <time>2016-09-26T10:31:58Z</time>
      </trkpt>
      <trkpt lat="45.92683" lon="4.73706">
        <ele>173</ele>
        <time>2016-09-26T10:31:59Z</time>
      </trkpt>
      <trkpt lat="45.92677" lon="4.73703">
        <ele>173</ele>
        <time>2016-09-26T10:32:00Z</time>
      </trkpt>
      <trkpt lat="45.92674" lon="4.73703">
        <ele>174</ele>
        <time>2016-09-26T10:32:01Z</time>
      </trkpt>
      <trkpt lat="45.92668" lon="4.73697">
        <ele>174</ele>
        <time>2016-09-26T10:32:02Z</time>
      </trkpt>
      <trkpt lat="45.92663" lon="4.73694">
        <ele>173</ele>
        <time>2016-09-26T10:32:03Z</time>
      </trkpt>
      <trkpt lat="45.92655" lon="4.73691">
        <ele>173</ele>
        <time>2016-09-26T10:32:05Z</time>
      </trkpt>
      <trkpt lat="45.92651" lon="4.73686">
        <ele>173</ele>
        <time>2016-09-26T10:32:06Z</time>
      </trkpt>
      <trkpt lat="45.92647" lon="4.7368">
        <ele>173</ele>
        <time>2016-09-26T10:32:07Z</time>
      </trkpt>
      <trkpt lat="45.92645" lon="4.73672">
        <ele>173</ele>
        <time>2016-09-26T10:32:08Z</time>
      </trkpt>
      <trkpt lat="45.92642" lon="4.73662">
        <ele>173</ele>
        <time>2016-09-26T10:32:10Z</time>
      </trkpt>
      <trkpt lat="45.9264" lon="4.73655">
        <ele>173</ele>
        <time>2016-09-26T10:32:11Z</time>
      </trkpt>
      <trkpt lat="45.92637" lon="4.7365">
        <ele>173</ele>
        <time>2016-09-26T10:32:12Z</time>
      </trkpt>
      <trkpt lat="45.92634" lon="4.73644">
        <ele>173</ele>
        <time>2016-09-26T10:32:13Z</time>
      </trkpt>
      <trkpt lat="45.9263" lon="4.73638">
        <ele>173</ele>
        <time>2016-09-26T10:32:14Z</time>
      </trkpt>
      <trkpt lat="45.92626" lon="4.73632">
        <ele>173</ele>
        <time>2016-09-26T10:32:15Z</time>
      </trkpt>
      <trkpt lat="45.92621" lon="4.73628">
        <ele>173</ele>
        <time>2016-09-26T10:32:16Z</time>
      </trkpt>
      <trkpt lat="45.92616" lon="4.73623">
        <ele>173</ele>
        <time>2016-09-26T10:32:17Z</time>
      </trkpt>
      <trkpt lat="45.92608" lon="4.73625">
        <ele>173</ele>
        <time>2016-09-26T10:32:19Z</time>
      </trkpt>
      <trkpt lat="45.92602" lon="4.73629">
        <ele>173</ele>
        <time>2016-09-26T10:32:20Z</time>
      </trkpt>
      <trkpt lat="45.92595" lon="4.73631">
        <ele>172</ele>
        <time>2016-09-26T10:32:21Z</time>
      </trkpt>
      <trkpt lat="45.92586" lon="4.7363">
        <ele>172</ele>
        <time>2016-09-26T10:32:22Z</time>
      </trkpt>
      <trkpt lat="45.92579" lon="4.73633">
        <ele>173</ele>
        <time>2016-09-26T10:32:23Z</time>
      </trkpt>
      <trkpt lat="45.92572" lon="4.73634">
        <ele>173</ele>
        <time>2016-09-26T10:32:24Z</time>
      </trkpt>
      <trkpt lat="45.92565" lon="4.73635">
        <ele>173</ele>
        <time>2016-09-26T10:32:25Z</time>
      </trkpt>
      <trkpt lat="45.92559" lon="4.73637">
        <ele>173</ele>
        <time>2016-09-26T10:32:26Z</time>
      </trkpt>
      <trkpt lat="45.92553" lon="4.73639">
        <ele>173</ele>
        <time>2016-09-26T10:32:27Z</time>
      </trkpt>
      <trkpt lat="45.92548" lon="4.73642">
        <ele>173</ele>
        <time>2016-09-26T10:32:28Z</time>
      </trkpt>
      <trkpt lat="45.92543" lon="4.73642">
        <ele>173</ele>
        <time>2016-09-26T10:32:29Z</time>
      </trkpt>
      <trkpt lat="45.92536" lon="4.73644">
        <ele>173</ele>
        <time>2016-09-26T10:32:30Z</time>
      </trkpt>
      <trkpt lat="45.9253" lon="4.73643">
        <ele>173</ele>
        <time>2016-09-26T10:32:31Z</time>
      </trkpt>
      <trkpt lat="45.92524" lon="4.73643">
        <ele>173</ele>
        <time>2016-09-26T10:32:32Z</time>
      </trkpt>
      <trkpt lat="45.92517" lon="4.73642">
        <ele>174</ele>
        <time>2016-09-26T10:32:33Z</time>
      </trkpt>
      <trkpt lat="45.92511" lon="4.73641">
        <ele>174</ele>
        <time>2016-09-26T10:32:34Z</time>
      </trkpt>
      <trkpt lat="45.92505" lon="4.73638">
        <ele>174</ele>
        <time>2016-09-26T10:32:35Z</time>
      </trkpt>
      <trkpt lat="45.925" lon="4.73637">
        <ele>174</ele>
        <time>2016-09-26T10:32:36Z</time>
      </trkpt>
      <trkpt lat="45.92496" lon="4.73637">
        <ele>174</ele>
        <time>2016-09-26T10:32:37Z</time>
      </trkpt>
      <trkpt lat="45.9249" lon="4.73638">
        <ele>174</ele>
        <time>2016-09-26T10:32:38Z</time>
      </trkpt>
      <trkpt lat="45.92483" lon="4.7364">
        <ele>174</ele>
        <time>2016-09-26T10:32:40Z</time>
      </trkpt>
      <trkpt lat="45.92481" lon="4.73642">
        <ele>174</ele>
        <time>2016-09-26T10:32:41Z</time>
      </trkpt>
      <trkpt lat="45.92472" lon="4.73644">
        <ele>174</ele>
        <time>2016-09-26T10:32:43Z</time>
      </trkpt>
      <trkpt lat="45.92468" lon="4.73646">
        <ele>174</ele>
        <time>2016-09-26T10:32:44Z</time>
      </trkpt>
      <trkpt lat="45.92462" lon="4.73653">
        <ele>174</ele>
        <time>2016-09-26T10:32:46Z</time>
      </trkpt>
      <trkpt lat="45.9246" lon="4.73657">
        <ele>174</ele>
        <time>2016-09-26T10:32:47Z</time>
      </trkpt>
      <trkpt lat="45.92461" lon="4.73667">
        <ele>174</ele>
        <time>2016-09-26T10:32:49Z</time>
      </trkpt>
      <trkpt lat="45.92462" lon="4.73673">
        <ele>174</ele>
        <time>2016-09-26T10:32:50Z</time>
      </trkpt>
      <trkpt lat="45.92463" lon="4.73686">
        <ele>174</ele>
        <time>2016-09-26T10:32:53Z</time>
      </trkpt>
      <trkpt lat="45.92462" lon="4.7369">
        <ele>174</ele>
        <time>2016-09-26T10:32:54Z</time>
      </trkpt>
      <trkpt lat="45.9246" lon="4.73703">
        <ele>174</ele>
        <time>2016-09-26T10:32:57Z</time>
      </trkpt>
      <trkpt lat="45.92459" lon="4.73709">
        <ele>174</ele>
        <time>2016-09-26T10:32:58Z</time>
      </trkpt>
      <trkpt lat="45.92457" lon="4.73712">
        <ele>174</ele>
        <time>2016-09-26T10:32:59Z</time>
      </trkpt>
      <trkpt lat="45.92459" lon="4.73707">
        <ele>174</ele>
        <time>2016-09-26T10:33:00Z</time>
      </trkpt>
      <trkpt lat="45.92462" lon="4.7371">
        <ele>174</ele>
        <time>2016-09-26T10:33:05Z</time>
      </trkpt>
      <trkpt lat="45.9246" lon="4.73708">
        <ele>174</ele>
        <time>2016-09-26T10:33:06Z</time>
      </trkpt>
      <trkpt lat="45.92459" lon="4.73713">
        <ele>174</ele>
        <time>2016-09-26T10:33:37.896Z</time>
      </trkpt>
    </trkseg>
  </trk>
</gpx>